<?xml version="1.0" encoding="UTF-8" standalone="no" ?>
<gpx xmlns="http://www.topografix.com/GPX/1/1" xmlns:xsi="http://www.w3.org/2001/XMLSchema-instance" xsi:schemaLocation="http://www.topografix.com/GPX/1/1 http://www.topografix.com/GPX/1/1/gpx.xsd" version="1.1" creator="VisuGPX - https://www.visugpx.com">
  <metadata>
    <name>Tour d'Europe: étape 029</name>
    <desc><![CDATA[Étape 029]]></desc>
  </metadata>
  <trk>
    <name><![CDATA[Tour d'Europe: étape 029]]></name>
    <trkseg>
      <trkpt lat="61.22338" lon="5.20247">
        <ele>81.291172</ele>
        <time>2020-07-27T07:50:08.714Z</time>
      </trkpt>
      <trkpt lat="61.22286" lon="5.20235">
        <ele>81.291172</ele>
        <time>2020-07-27T07:50:10.900Z</time>
      </trkpt>
      <trkpt lat="61.22251" lon="5.20233">
        <ele>81.291172</ele>
        <time>2020-07-27T07:50:12.373Z</time>
      </trkpt>
      <trkpt lat="61.22285" lon="5.2024">
        <ele>82.251855</ele>
        <time>2020-07-27T07:51:13.368Z</time>
      </trkpt>
      <trkpt lat="61.22301" lon="5.20269">
        <ele>82.942072</ele>
        <time>2020-07-27T07:53:19.367Z</time>
      </trkpt>
      <trkpt lat="61.22311" lon="5.2027">
        <ele>83.239763</ele>
        <time>2020-07-27T07:53:22.374Z</time>
      </trkpt>
      <trkpt lat="61.2232" lon="5.20272">
        <ele>83.536494</ele>
        <time>2020-07-27T07:53:30.403Z</time>
      </trkpt>
      <trkpt lat="61.2233" lon="5.2027">
        <ele>83.857393</ele>
        <time>2020-07-27T07:53:38.375Z</time>
      </trkpt>
      <trkpt lat="61.22339" lon="5.20263">
        <ele>84.156036</ele>
        <time>2020-07-27T07:53:44.422Z</time>
      </trkpt>
      <trkpt lat="61.22344" lon="5.20247">
        <ele>84.459836</ele>
        <time>2020-07-27T07:53:49.401Z</time>
      </trkpt>
      <trkpt lat="61.22348" lon="5.20226">
        <ele>84.792599</ele>
        <time>2020-07-27T07:53:54.364Z</time>
      </trkpt>
      <trkpt lat="61.22358" lon="5.20229">
        <ele>85.111888</ele>
        <time>2020-07-27T07:54:00.384Z</time>
      </trkpt>
      <trkpt lat="61.22363" lon="5.20246">
        <ele>85.410509</ele>
        <time>2020-07-27T07:54:05.364Z</time>
      </trkpt>
      <trkpt lat="61.2237" lon="5.20261">
        <ele>85.744786</ele>
        <time>2020-07-27T07:54:11.381Z</time>
      </trkpt>
      <trkpt lat="61.22378" lon="5.20279">
        <ele>86.10681</ele>
        <time>2020-07-27T07:54:17.367Z</time>
      </trkpt>
      <trkpt lat="61.22387" lon="5.20289">
        <ele>86.445277</ele>
        <time>2020-07-27T07:54:22.355Z</time>
      </trkpt>
      <trkpt lat="61.22396" lon="5.20298">
        <ele>86.76335</ele>
        <time>2020-07-27T07:54:27.387Z</time>
      </trkpt>
      <trkpt lat="61.22404" lon="5.2031">
        <ele>87.080262</ele>
        <time>2020-07-27T07:54:32.361Z</time>
      </trkpt>
      <trkpt lat="61.22411" lon="5.20324">
        <ele>87.435493</ele>
        <time>2020-07-27T07:54:37.375Z</time>
      </trkpt>
      <trkpt lat="61.2242" lon="5.20336">
        <ele>87.80345</ele>
        <time>2020-07-27T07:54:42.388Z</time>
      </trkpt>
      <trkpt lat="61.22428" lon="5.20351">
        <ele>88.189183</ele>
        <time>2020-07-27T07:54:48.366Z</time>
      </trkpt>
      <trkpt lat="61.22435" lon="5.20364">
        <ele>88.523599</ele>
        <time>2020-07-27T07:54:53.396Z</time>
      </trkpt>
      <trkpt lat="61.2244" lon="5.2038">
        <ele>88.860671</ele>
        <time>2020-07-27T07:54:58.370Z</time>
      </trkpt>
      <trkpt lat="61.22445" lon="5.20399">
        <ele>89.236879</ele>
        <time>2020-07-27T07:55:03.362Z</time>
      </trkpt>
      <trkpt lat="61.22449" lon="5.20417">
        <ele>89.581723</ele>
        <time>2020-07-27T07:55:08.385Z</time>
      </trkpt>
      <trkpt lat="61.22453" lon="5.20436">
        <ele>89.939979</ele>
        <time>2020-07-27T07:55:14.363Z</time>
      </trkpt>
      <trkpt lat="61.22456" lon="5.20454">
        <ele>90.264731</ele>
        <time>2020-07-27T07:55:19.376Z</time>
      </trkpt>
      <trkpt lat="61.22458" lon="5.20474">
        <ele>90.617046</ele>
        <time>2020-07-27T07:55:24.401Z</time>
      </trkpt>
      <trkpt lat="61.22461" lon="5.20494">
        <ele>90.970795</ele>
        <time>2020-07-27T07:55:29.377Z</time>
      </trkpt>
      <trkpt lat="61.22463" lon="5.20515">
        <ele>91.353308</ele>
        <time>2020-07-27T07:55:34.363Z</time>
      </trkpt>
      <trkpt lat="61.22464" lon="5.20536">
        <ele>91.721798</ele>
        <time>2020-07-27T07:55:39.383Z</time>
      </trkpt>
      <trkpt lat="61.22466" lon="5.20556">
        <ele>92.073116</ele>
        <time>2020-07-27T07:55:44.350Z</time>
      </trkpt>
      <trkpt lat="61.22468" lon="5.20578">
        <ele>92.459332</ele>
        <time>2020-07-27T07:55:50.351Z</time>
      </trkpt>
      <trkpt lat="61.2247" lon="5.20598">
        <ele>92.805576</ele>
        <time>2020-07-27T07:55:55.384Z</time>
      </trkpt>
      <trkpt lat="61.22471" lon="5.2062">
        <ele>93.182107</ele>
        <time>2020-07-27T07:56:00.375Z</time>
      </trkpt>
      <trkpt lat="61.22472" lon="5.20641">
        <ele>93.477632</ele>
        <time>2020-07-27T07:56:05.361Z</time>
      </trkpt>
      <trkpt lat="61.22472" lon="5.20662">
        <ele>93.605402</ele>
        <time>2020-07-27T07:56:10.364Z</time>
      </trkpt>
      <trkpt lat="61.22472" lon="5.20682">
        <ele>93.724067</ele>
        <time>2020-07-27T07:56:14.374Z</time>
      </trkpt>
      <trkpt lat="61.22472" lon="5.20703">
        <ele>93.850534</ele>
        <time>2020-07-27T07:56:18.363Z</time>
      </trkpt>
      <trkpt lat="61.22471" lon="5.20725">
        <ele>93.984322</ele>
        <time>2020-07-27T07:56:22.380Z</time>
      </trkpt>
      <trkpt lat="61.22471" lon="5.20744">
        <ele>94.098253</ele>
        <time>2020-07-27T07:56:25.370Z</time>
      </trkpt>
      <trkpt lat="61.2247" lon="5.20767">
        <ele>94.239971</ele>
        <time>2020-07-27T07:56:28.362Z</time>
      </trkpt>
      <trkpt lat="61.2247" lon="5.20794">
        <ele>94.401387</ele>
        <time>2020-07-27T07:56:31.376Z</time>
      </trkpt>
      <trkpt lat="61.22471" lon="5.20814">
        <ele>94.525608</ele>
        <time>2020-07-27T07:56:33.372Z</time>
      </trkpt>
      <trkpt lat="61.22472" lon="5.20835">
        <ele>94.647573</ele>
        <time>2020-07-27T07:56:35.378Z</time>
      </trkpt>
      <trkpt lat="61.22472" lon="5.20855">
        <ele>94.771789</ele>
        <time>2020-07-27T07:56:37.366Z</time>
      </trkpt>
      <trkpt lat="61.22473" lon="5.20875">
        <ele>94.890664</ele>
        <time>2020-07-27T07:56:39.375Z</time>
      </trkpt>
      <trkpt lat="61.22475" lon="5.20902">
        <ele>95.055306</ele>
        <time>2020-07-27T07:56:42.434Z</time>
      </trkpt>
      <trkpt lat="61.2248" lon="5.20927">
        <ele>95.219433</ele>
        <time>2020-07-27T07:56:45.379Z</time>
      </trkpt>
      <trkpt lat="61.22486" lon="5.2095">
        <ele>95.372019</ele>
        <time>2020-07-27T07:56:48.362Z</time>
      </trkpt>
      <trkpt lat="61.22489" lon="5.20973">
        <ele>95.518863</ele>
        <time>2020-07-27T07:56:51.355Z</time>
      </trkpt>
      <trkpt lat="61.22491" lon="5.20993">
        <ele>95.638932</ele>
        <time>2020-07-27T07:56:54.373Z</time>
      </trkpt>
      <trkpt lat="61.22495" lon="5.21016">
        <ele>96.022491</ele>
        <time>2020-07-27T07:56:58.358Z</time>
      </trkpt>
      <trkpt lat="61.22499" lon="5.21038">
        <ele>96.532969</ele>
        <time>2020-07-27T07:57:02.378Z</time>
      </trkpt>
      <trkpt lat="61.22505" lon="5.21058">
        <ele>97.035441</ele>
        <time>2020-07-27T07:57:06.386Z</time>
      </trkpt>
      <trkpt lat="61.22508" lon="5.2108">
        <ele>97.518312</ele>
        <time>2020-07-27T07:57:10.368Z</time>
      </trkpt>
      <trkpt lat="61.22511" lon="5.21102">
        <ele>97.982404</ele>
        <time>2020-07-27T07:57:14.358Z</time>
      </trkpt>
      <trkpt lat="61.22512" lon="5.21122">
        <ele>98.413775</ele>
        <time>2020-07-27T07:57:18.367Z</time>
      </trkpt>
      <trkpt lat="61.22514" lon="5.21144">
        <ele>98.878444</ele>
        <time>2020-07-27T07:57:22.359Z</time>
      </trkpt>
      <trkpt lat="61.22514" lon="5.21168">
        <ele>99.386948</ele>
        <time>2020-07-27T07:57:26.372Z</time>
      </trkpt>
      <trkpt lat="61.22514" lon="5.21191">
        <ele>99.884238</ele>
        <time>2020-07-27T07:57:30.362Z</time>
      </trkpt>
      <trkpt lat="61.22514" lon="5.21215">
        <ele>100.381547</ele>
        <time>2020-07-27T07:57:34.393Z</time>
      </trkpt>
      <trkpt lat="61.22515" lon="5.21239">
        <ele>100.883223</ele>
        <time>2020-07-27T07:57:38.352Z</time>
      </trkpt>
      <trkpt lat="61.22514" lon="5.21262">
        <ele>101.37226</ele>
        <time>2020-07-27T07:57:42.382Z</time>
      </trkpt>
      <trkpt lat="61.22515" lon="5.21282">
        <ele>101.787578</ele>
        <time>2020-07-27T07:57:46.379Z</time>
      </trkpt>
      <trkpt lat="61.22515" lon="5.21302">
        <ele>102.213247</ele>
        <time>2020-07-27T07:57:50.375Z</time>
      </trkpt>
      <trkpt lat="61.22514" lon="5.21323">
        <ele>102.649626</ele>
        <time>2020-07-27T07:57:54.380Z</time>
      </trkpt>
      <trkpt lat="61.22514" lon="5.21344">
        <ele>103.097116</ele>
        <time>2020-07-27T07:57:58.388Z</time>
      </trkpt>
      <trkpt lat="61.22513" lon="5.21367">
        <ele>103.570694</ele>
        <time>2020-07-27T07:58:02.385Z</time>
      </trkpt>
      <trkpt lat="61.22513" lon="5.21389">
        <ele>103.851945</ele>
        <time>2020-07-27T07:58:06.375Z</time>
      </trkpt>
      <trkpt lat="61.22514" lon="5.21413">
        <ele>104.140733</ele>
        <time>2020-07-27T07:58:10.362Z</time>
      </trkpt>
      <trkpt lat="61.22514" lon="5.21436">
        <ele>104.423212</ele>
        <time>2020-07-27T07:58:14.358Z</time>
      </trkpt>
      <trkpt lat="61.22514" lon="5.21458">
        <ele>104.698736</ele>
        <time>2020-07-27T07:58:18.357Z</time>
      </trkpt>
      <trkpt lat="61.22516" lon="5.21481">
        <ele>104.976112</ele>
        <time>2020-07-27T07:58:22.356Z</time>
      </trkpt>
      <trkpt lat="61.2252" lon="5.21503">
        <ele>105.263005</ele>
        <time>2020-07-27T07:58:26.359Z</time>
      </trkpt>
      <trkpt lat="61.22525" lon="5.21521">
        <ele>105.524484</ele>
        <time>2020-07-27T07:58:30.349Z</time>
      </trkpt>
      <trkpt lat="61.2253" lon="5.2154">
        <ele>105.787357</ele>
        <time>2020-07-27T07:58:34.349Z</time>
      </trkpt>
      <trkpt lat="61.22535" lon="5.2156">
        <ele>106.060686</ele>
        <time>2020-07-27T07:58:38.398Z</time>
      </trkpt>
      <trkpt lat="61.2254" lon="5.21581">
        <ele>106.35393</ele>
        <time>2020-07-27T07:58:42.381Z</time>
      </trkpt>
      <trkpt lat="61.22544" lon="5.21598">
        <ele>106.585206</ele>
        <time>2020-07-27T07:58:45.378Z</time>
      </trkpt>
      <trkpt lat="61.22548" lon="5.21616">
        <ele>106.825389</ele>
        <time>2020-07-27T07:58:48.364Z</time>
      </trkpt>
      <trkpt lat="61.2255" lon="5.2164">
        <ele>107.125919</ele>
        <time>2020-07-27T07:58:52.364Z</time>
      </trkpt>
      <trkpt lat="61.22552" lon="5.21663">
        <ele>107.408886</ele>
        <time>2020-07-27T07:58:56.364Z</time>
      </trkpt>
      <trkpt lat="61.22553" lon="5.21685">
        <ele>107.67866</ele>
        <time>2020-07-27T07:59:00.385Z</time>
      </trkpt>
      <trkpt lat="61.22555" lon="5.21705">
        <ele>107.939409</ele>
        <time>2020-07-27T07:59:04.393Z</time>
      </trkpt>
      <trkpt lat="61.22554" lon="5.21727">
        <ele>108.240093</ele>
        <time>2020-07-27T07:59:08.359Z</time>
      </trkpt>
      <trkpt lat="61.22555" lon="5.21747">
        <ele>108.687272</ele>
        <time>2020-07-27T07:59:12.406Z</time>
      </trkpt>
      <trkpt lat="61.22554" lon="5.21767">
        <ele>109.132316</ele>
        <time>2020-07-27T07:59:16.364Z</time>
      </trkpt>
      <trkpt lat="61.22553" lon="5.21789">
        <ele>109.628587</ele>
        <time>2020-07-27T07:59:21.365Z</time>
      </trkpt>
      <trkpt lat="61.22552" lon="5.21809">
        <ele>110.064469</ele>
        <time>2020-07-27T07:59:25.356Z</time>
      </trkpt>
      <trkpt lat="61.22552" lon="5.21831">
        <ele>110.546454</ele>
        <time>2020-07-27T07:59:29.356Z</time>
      </trkpt>
      <trkpt lat="61.22552" lon="5.21851">
        <ele>111.004674</ele>
        <time>2020-07-27T07:59:33.379Z</time>
      </trkpt>
      <trkpt lat="61.22552" lon="5.21871">
        <ele>111.430371</ele>
        <time>2020-07-27T07:59:37.353Z</time>
      </trkpt>
      <trkpt lat="61.22551" lon="5.21894">
        <ele>111.945824</ele>
        <time>2020-07-27T07:59:42.377Z</time>
      </trkpt>
      <trkpt lat="61.2255" lon="5.21917">
        <ele>112.451588</ele>
        <time>2020-07-27T07:59:46.358Z</time>
      </trkpt>
      <trkpt lat="61.2255" lon="5.2194">
        <ele>112.97606</ele>
        <time>2020-07-27T07:59:50.351Z</time>
      </trkpt>
      <trkpt lat="61.22551" lon="5.21959">
        <ele>113.395965</ele>
        <time>2020-07-27T07:59:54.368Z</time>
      </trkpt>
      <trkpt lat="61.22554" lon="5.21982">
        <ele>113.925272</ele>
        <time>2020-07-27T07:59:58.381Z</time>
      </trkpt>
      <trkpt lat="61.22557" lon="5.22004">
        <ele>114.421834</ele>
        <time>2020-07-27T08:00:02.378Z</time>
      </trkpt>
      <trkpt lat="61.22558" lon="5.22026">
        <ele>114.91245</ele>
        <time>2020-07-27T08:00:06.364Z</time>
      </trkpt>
      <trkpt lat="61.22558" lon="5.22048">
        <ele>115.392399</ele>
        <time>2020-07-27T08:00:10.415Z</time>
      </trkpt>
      <trkpt lat="61.22558" lon="5.22069">
        <ele>115.866075</ele>
        <time>2020-07-27T08:00:14.360Z</time>
      </trkpt>
      <trkpt lat="61.22558" lon="5.2209">
        <ele>116.321877</ele>
        <time>2020-07-27T08:00:18.377Z</time>
      </trkpt>
      <trkpt lat="61.22559" lon="5.22114">
        <ele>116.542636</ele>
        <time>2020-07-27T08:00:22.393Z</time>
      </trkpt>
      <trkpt lat="61.22561" lon="5.22133">
        <ele>116.662422</ele>
        <time>2020-07-27T08:00:25.378Z</time>
      </trkpt>
      <trkpt lat="61.22562" lon="5.22153">
        <ele>116.792216</ele>
        <time>2020-07-27T08:00:28.353Z</time>
      </trkpt>
      <trkpt lat="61.22561" lon="5.22172">
        <ele>116.914896</ele>
        <time>2020-07-27T08:00:31.359Z</time>
      </trkpt>
      <trkpt lat="61.22562" lon="5.22197">
        <ele>117.073576</ele>
        <time>2020-07-27T08:00:35.387Z</time>
      </trkpt>
      <trkpt lat="61.22565" lon="5.22219">
        <ele>117.214041</ele>
        <time>2020-07-27T08:00:39.362Z</time>
      </trkpt>
      <trkpt lat="61.22569" lon="5.22239">
        <ele>117.35481</ele>
        <time>2020-07-27T08:00:44.361Z</time>
      </trkpt>
      <trkpt lat="61.22575" lon="5.22256">
        <ele>117.490997</ele>
        <time>2020-07-27T08:00:49.366Z</time>
      </trkpt>
      <trkpt lat="61.22582" lon="5.22271">
        <ele>117.62418</ele>
        <time>2020-07-27T08:00:53.392Z</time>
      </trkpt>
      <trkpt lat="61.22588" lon="5.22288">
        <ele>117.757818</ele>
        <time>2020-07-27T08:00:57.361Z</time>
      </trkpt>
      <trkpt lat="61.22593" lon="5.22306">
        <ele>117.889796</ele>
        <time>2020-07-27T08:01:01.373Z</time>
      </trkpt>
      <trkpt lat="61.22597" lon="5.22326">
        <ele>118.024679</ele>
        <time>2020-07-27T08:01:05.358Z</time>
      </trkpt>
      <trkpt lat="61.22601" lon="5.22345">
        <ele>118.15633</ele>
        <time>2020-07-27T08:01:09.379Z</time>
      </trkpt>
      <trkpt lat="61.22605" lon="5.22364">
        <ele>118.287775</ele>
        <time>2020-07-27T08:01:13.377Z</time>
      </trkpt>
      <trkpt lat="61.22609" lon="5.22383">
        <ele>118.419384</ele>
        <time>2020-07-27T08:01:17.361Z</time>
      </trkpt>
      <trkpt lat="61.22613" lon="5.22401">
        <ele>118.544436</ele>
        <time>2020-07-27T08:01:21.367Z</time>
      </trkpt>
      <trkpt lat="61.22617" lon="5.22422">
        <ele>118.687678</ele>
        <time>2020-07-27T08:01:26.398Z</time>
      </trkpt>
      <trkpt lat="61.22622" lon="5.22439">
        <ele>118.8219</ele>
        <time>2020-07-27T08:01:30.387Z</time>
      </trkpt>
      <trkpt lat="61.2263" lon="5.22457">
        <ele>118.975853</ele>
        <time>2020-07-27T08:01:34.379Z</time>
      </trkpt>
      <trkpt lat="61.22639" lon="5.22473">
        <ele>119.139733</ele>
        <time>2020-07-27T08:01:38.375Z</time>
      </trkpt>
      <trkpt lat="61.22649" lon="5.22481">
        <ele>119.280473</ele>
        <time>2020-07-27T08:01:41.358Z</time>
      </trkpt>
      <trkpt lat="61.22658" lon="5.22486">
        <ele>119.415998</ele>
        <time>2020-07-27T08:01:44.356Z</time>
      </trkpt>
      <trkpt lat="61.22668" lon="5.22489">
        <ele>119.546464</ele>
        <time>2020-07-27T08:01:47.364Z</time>
      </trkpt>
      <trkpt lat="61.22677" lon="5.22491">
        <ele>119.675493</ele>
        <time>2020-07-27T08:01:50.380Z</time>
      </trkpt>
      <trkpt lat="61.22688" lon="5.22493">
        <ele>119.821508</ele>
        <time>2020-07-27T08:01:54.378Z</time>
      </trkpt>
      <trkpt lat="61.22699" lon="5.22495">
        <ele>119.968879</ele>
        <time>2020-07-27T08:01:58.396Z</time>
      </trkpt>
      <trkpt lat="61.22709" lon="5.22498">
        <ele>120.110488</ele>
        <time>2020-07-27T08:02:02.380Z</time>
      </trkpt>
      <trkpt lat="61.22719" lon="5.22501">
        <ele>120.252098</ele>
        <time>2020-07-27T08:02:06.385Z</time>
      </trkpt>
      <trkpt lat="61.2273" lon="5.22504">
        <ele>120.394003</ele>
        <time>2020-07-27T08:02:10.378Z</time>
      </trkpt>
      <trkpt lat="61.2274" lon="5.2251">
        <ele>120.54235</ele>
        <time>2020-07-27T08:02:14.366Z</time>
      </trkpt>
      <trkpt lat="61.2275" lon="5.22513">
        <ele>120.669165</ele>
        <time>2020-07-27T08:02:17.366Z</time>
      </trkpt>
      <trkpt lat="61.22759" lon="5.22514">
        <ele>120.804328</ele>
        <time>2020-07-27T08:02:20.377Z</time>
      </trkpt>
      <trkpt lat="61.2277" lon="5.22516">
        <ele>120.944866</ele>
        <time>2020-07-27T08:02:23.366Z</time>
      </trkpt>
      <trkpt lat="61.2278" lon="5.22518">
        <ele>121.08822</ele>
        <time>2020-07-27T08:02:26.384Z</time>
      </trkpt>
      <trkpt lat="61.22789" lon="5.22518">
        <ele>121.213406</ele>
        <time>2020-07-27T08:02:29.353Z</time>
      </trkpt>
      <trkpt lat="61.22799" lon="5.22518">
        <ele>121.668474</ele>
        <time>2020-07-27T08:02:32.362Z</time>
      </trkpt>
      <trkpt lat="61.22811" lon="5.22519">
        <ele>122.252561</ele>
        <time>2020-07-27T08:02:36.360Z</time>
      </trkpt>
      <trkpt lat="61.22821" lon="5.22521">
        <ele>122.797339</ele>
        <time>2020-07-27T08:02:40.383Z</time>
      </trkpt>
      <trkpt lat="61.22831" lon="5.22523">
        <ele>123.291064</ele>
        <time>2020-07-27T08:02:44.371Z</time>
      </trkpt>
      <trkpt lat="61.2284" lon="5.22524">
        <ele>123.797451</ele>
        <time>2020-07-27T08:02:48.374Z</time>
      </trkpt>
      <trkpt lat="61.2285" lon="5.22526">
        <ele>124.285233</ele>
        <time>2020-07-27T08:02:53.352Z</time>
      </trkpt>
      <trkpt lat="61.22861" lon="5.22523">
        <ele>124.876151</ele>
        <time>2020-07-27T08:02:58.384Z</time>
      </trkpt>
      <trkpt lat="61.2287" lon="5.22523">
        <ele>125.346329</ele>
        <time>2020-07-27T08:03:01.353Z</time>
      </trkpt>
      <trkpt lat="61.22882" lon="5.22526">
        <ele>125.938352</ele>
        <time>2020-07-27T08:03:05.370Z</time>
      </trkpt>
      <trkpt lat="61.22892" lon="5.22524">
        <ele>126.467472</ele>
        <time>2020-07-27T08:03:09.364Z</time>
      </trkpt>
      <trkpt lat="61.22904" lon="5.22526">
        <ele>127.078632</ele>
        <time>2020-07-27T08:03:13.414Z</time>
      </trkpt>
      <trkpt lat="61.22913" lon="5.22528">
        <ele>127.541306</ele>
        <time>2020-07-27T08:03:16.381Z</time>
      </trkpt>
      <trkpt lat="61.22921" lon="5.22532">
        <ele>128.006859</ele>
        <time>2020-07-27T08:03:19.362Z</time>
      </trkpt>
      <trkpt lat="61.22933" lon="5.2254">
        <ele>128.621535</ele>
        <time>2020-07-27T08:03:23.432Z</time>
      </trkpt>
      <trkpt lat="61.22942" lon="5.22544">
        <ele>129.117873</ele>
        <time>2020-07-27T08:03:26.350Z</time>
      </trkpt>
      <trkpt lat="61.22953" lon="5.22552">
        <ele>129.711447</ele>
        <time>2020-07-27T08:03:30.372Z</time>
      </trkpt>
      <trkpt lat="61.22963" lon="5.2256">
        <ele>130.265967</ele>
        <time>2020-07-27T08:03:34.407Z</time>
      </trkpt>
      <trkpt lat="61.22973" lon="5.22566">
        <ele>130.826354</ele>
        <time>2020-07-27T08:03:38.361Z</time>
      </trkpt>
      <trkpt lat="61.22982" lon="5.2257">
        <ele>131.361105</ele>
        <time>2020-07-27T08:03:42.363Z</time>
      </trkpt>
      <trkpt lat="61.22993" lon="5.22577">
        <ele>131.960947</ele>
        <time>2020-07-27T08:03:46.402Z</time>
      </trkpt>
      <trkpt lat="61.23002" lon="5.22579">
        <ele>132.490709</ele>
        <time>2020-07-27T08:03:50.354Z</time>
      </trkpt>
      <trkpt lat="61.23011" lon="5.22586">
        <ele>133.047765</ele>
        <time>2020-07-27T08:03:54.380Z</time>
      </trkpt>
      <trkpt lat="61.2302" lon="5.22595">
        <ele>133.575432</ele>
        <time>2020-07-27T08:03:58.374Z</time>
      </trkpt>
      <trkpt lat="61.23028" lon="5.22606">
        <ele>134.104409</ele>
        <time>2020-07-27T08:04:02.363Z</time>
      </trkpt>
      <trkpt lat="61.23037" lon="5.22619">
        <ele>134.742462</ele>
        <time>2020-07-27T08:04:06.363Z</time>
      </trkpt>
      <trkpt lat="61.23047" lon="5.22629">
        <ele>135.360583</ele>
        <time>2020-07-27T08:04:10.355Z</time>
      </trkpt>
      <trkpt lat="61.23055" lon="5.2264">
        <ele>135.898606</ele>
        <time>2020-07-27T08:04:16.386Z</time>
      </trkpt>
      <trkpt lat="61.23064" lon="5.22647">
        <ele>136.42379</ele>
        <time>2020-07-27T08:04:22.416Z</time>
      </trkpt>
      <trkpt lat="61.23073" lon="5.22656">
        <ele>136.987248</ele>
        <time>2020-07-27T08:04:27.353Z</time>
      </trkpt>
      <trkpt lat="61.23083" lon="5.22659">
        <ele>137.5465</ele>
        <time>2020-07-27T08:04:32.370Z</time>
      </trkpt>
      <trkpt lat="61.23092" lon="5.22664">
        <ele>138.078432</ele>
        <time>2020-07-27T08:04:36.356Z</time>
      </trkpt>
      <trkpt lat="61.23103" lon="5.22668">
        <ele>138.70356</ele>
        <time>2020-07-27T08:04:41.373Z</time>
      </trkpt>
      <trkpt lat="61.23112" lon="5.22665">
        <ele>139.243249</ele>
        <time>2020-07-27T08:04:46.398Z</time>
      </trkpt>
      <trkpt lat="61.23122" lon="5.22657">
        <ele>139.813517</ele>
        <time>2020-07-27T08:04:51.370Z</time>
      </trkpt>
      <trkpt lat="61.2313" lon="5.22646">
        <ele>140.336336</ele>
        <time>2020-07-27T08:04:57.384Z</time>
      </trkpt>
      <trkpt lat="61.23138" lon="5.22635">
        <ele>141.211778</ele>
        <time>2020-07-27T08:05:03.365Z</time>
      </trkpt>
      <trkpt lat="61.23145" lon="5.22624">
        <ele>142.309558</ele>
        <time>2020-07-27T08:05:11.376Z</time>
      </trkpt>
      <trkpt lat="61.23155" lon="5.22617">
        <ele>143.537571</ele>
        <time>2020-07-27T08:05:18.377Z</time>
      </trkpt>
      <trkpt lat="61.23162" lon="5.22603">
        <ele>144.742872</ele>
        <time>2020-07-27T08:05:25.368Z</time>
      </trkpt>
      <trkpt lat="61.2317" lon="5.22588">
        <ele>145.981442</ele>
        <time>2020-07-27T08:05:33.370Z</time>
      </trkpt>
      <trkpt lat="61.23176" lon="5.22572">
        <ele>147.188953</ele>
        <time>2020-07-27T08:05:41.384Z</time>
      </trkpt>
      <trkpt lat="61.23178" lon="5.22553">
        <ele>148.283362</ele>
        <time>2020-07-27T08:05:47.356Z</time>
      </trkpt>
      <trkpt lat="61.23183" lon="5.22535">
        <ele>149.466084</ele>
        <time>2020-07-27T08:05:54.382Z</time>
      </trkpt>
      <trkpt lat="61.23188" lon="5.22517">
        <ele>150.677827</ele>
        <time>2020-07-27T08:06:03.374Z</time>
      </trkpt>
      <trkpt lat="61.23189" lon="5.22498">
        <ele>151.776842</ele>
        <time>2020-07-27T08:06:10.404Z</time>
      </trkpt>
      <trkpt lat="61.23189" lon="5.22477">
        <ele>152.984117</ele>
        <time>2020-07-27T08:06:18.364Z</time>
      </trkpt>
      <trkpt lat="61.2319" lon="5.22458">
        <ele>154.086086</ele>
        <time>2020-07-27T08:06:25.384Z</time>
      </trkpt>
      <trkpt lat="61.23191" lon="5.22438">
        <ele>155.282387</ele>
        <time>2020-07-27T08:06:33.388Z</time>
      </trkpt>
      <trkpt lat="61.23191" lon="5.22417">
        <ele>156.460398</ele>
        <time>2020-07-27T08:06:41.367Z</time>
      </trkpt>
      <trkpt lat="61.23189" lon="5.22397">
        <ele>157.638323</ele>
        <time>2020-07-27T08:06:51.397Z</time>
      </trkpt>
      <trkpt lat="61.23187" lon="5.22378">
        <ele>158.7775</ele>
        <time>2020-07-27T08:06:57.363Z</time>
      </trkpt>
      <trkpt lat="61.23189" lon="5.22359">
        <ele>159.900206</ele>
        <time>2020-07-27T08:07:03.374Z</time>
      </trkpt>
      <trkpt lat="61.23191" lon="5.22338">
        <ele>161.120837</ele>
        <time>2020-07-27T08:07:09.367Z</time>
      </trkpt>
      <trkpt lat="61.23197" lon="5.22323">
        <ele>162.202523</ele>
        <time>2020-07-27T08:07:16.355Z</time>
      </trkpt>
      <trkpt lat="61.23207" lon="5.22314">
        <ele>162.840788</ele>
        <time>2020-07-27T08:07:24.400Z</time>
      </trkpt>
      <trkpt lat="61.23216" lon="5.22307">
        <ele>163.472627</ele>
        <time>2020-07-27T08:07:30.370Z</time>
      </trkpt>
      <trkpt lat="61.23221" lon="5.22286">
        <ele>164.171443</ele>
        <time>2020-07-27T08:07:35.386Z</time>
      </trkpt>
      <trkpt lat="61.2323" lon="5.22277">
        <ele>164.806088</ele>
        <time>2020-07-27T08:07:42.366Z</time>
      </trkpt>
      <trkpt lat="61.23239" lon="5.22271">
        <ele>165.40635</ele>
        <time>2020-07-27T08:07:48.437Z</time>
      </trkpt>
      <trkpt lat="61.23247" lon="5.22262">
        <ele>165.973847</ele>
        <time>2020-07-27T08:07:53.368Z</time>
      </trkpt>
      <trkpt lat="61.23256" lon="5.22254">
        <ele>166.570281</ele>
        <time>2020-07-27T08:07:58.396Z</time>
      </trkpt>
      <trkpt lat="61.23266" lon="5.2225">
        <ele>167.225054</ele>
        <time>2020-07-27T08:08:03.391Z</time>
      </trkpt>
      <trkpt lat="61.23277" lon="5.22253">
        <ele>167.915381</ele>
        <time>2020-07-27T08:08:08.362Z</time>
      </trkpt>
      <trkpt lat="61.23286" lon="5.2226">
        <ele>168.495584</ele>
        <time>2020-07-27T08:08:12.366Z</time>
      </trkpt>
      <trkpt lat="61.23297" lon="5.22267">
        <ele>169.210335</ele>
        <time>2020-07-27T08:08:17.380Z</time>
      </trkpt>
      <trkpt lat="61.23307" lon="5.22273">
        <ele>169.813185</ele>
        <time>2020-07-27T08:08:21.356Z</time>
      </trkpt>
      <trkpt lat="61.23317" lon="5.22274">
        <ele>170.47776</ele>
        <time>2020-07-27T08:08:27.363Z</time>
      </trkpt>
      <trkpt lat="61.23326" lon="5.22284">
        <ele>171.108543</ele>
        <time>2020-07-27T08:08:32.379Z</time>
      </trkpt>
      <trkpt lat="61.23335" lon="5.2229">
        <ele>171.686722</ele>
        <time>2020-07-27T08:08:37.369Z</time>
      </trkpt>
      <trkpt lat="61.23343" lon="5.22302">
        <ele>172.279021</ele>
        <time>2020-07-27T08:08:41.393Z</time>
      </trkpt>
      <trkpt lat="61.23351" lon="5.22314">
        <ele>172.891425</ele>
        <time>2020-07-27T08:08:45.356Z</time>
      </trkpt>
      <trkpt lat="61.23361" lon="5.22321">
        <ele>173.210521</ele>
        <time>2020-07-27T08:08:50.371Z</time>
      </trkpt>
      <trkpt lat="61.23371" lon="5.22329">
        <ele>173.036315</ele>
        <time>2020-07-27T08:08:55.368Z</time>
      </trkpt>
      <trkpt lat="61.23382" lon="5.22343">
        <ele>172.82487</ele>
        <time>2020-07-27T08:08:59.378Z</time>
      </trkpt>
      <trkpt lat="61.23391" lon="5.22358">
        <ele>172.632472</ele>
        <time>2020-07-27T08:09:02.358Z</time>
      </trkpt>
      <trkpt lat="61.23401" lon="5.2237">
        <ele>172.447772</ele>
        <time>2020-07-27T08:09:06.366Z</time>
      </trkpt>
      <trkpt lat="61.2341" lon="5.22375">
        <ele>172.300249</ele>
        <time>2020-07-27T08:09:12.365Z</time>
      </trkpt>
      <trkpt lat="61.23421" lon="5.22381">
        <ele>172.116785</ele>
        <time>2020-07-27T08:09:19.390Z</time>
      </trkpt>
      <trkpt lat="61.2343" lon="5.22394">
        <ele>171.93734</ele>
        <time>2020-07-27T08:09:24.366Z</time>
      </trkpt>
      <trkpt lat="61.23438" lon="5.22408">
        <ele>171.757722</ele>
        <time>2020-07-27T08:09:29.366Z</time>
      </trkpt>
      <trkpt lat="61.23446" lon="5.22422">
        <ele>171.583054</ele>
        <time>2020-07-27T08:09:34.384Z</time>
      </trkpt>
      <trkpt lat="61.23455" lon="5.22433">
        <ele>171.420112</ele>
        <time>2020-07-27T08:09:39.363Z</time>
      </trkpt>
      <trkpt lat="61.23464" lon="5.22444">
        <ele>171.243314</ele>
        <time>2020-07-27T08:09:44.369Z</time>
      </trkpt>
      <trkpt lat="61.23474" lon="5.22452">
        <ele>171.067177</ele>
        <time>2020-07-27T08:09:49.387Z</time>
      </trkpt>
      <trkpt lat="61.23485" lon="5.22457">
        <ele>170.890908</ele>
        <time>2020-07-27T08:09:54.372Z</time>
      </trkpt>
      <trkpt lat="61.23494" lon="5.2246">
        <ele>170.743186</ele>
        <time>2020-07-27T08:09:58.358Z</time>
      </trkpt>
      <trkpt lat="61.23503" lon="5.22464">
        <ele>170.583625</ele>
        <time>2020-07-27T08:10:02.369Z</time>
      </trkpt>
      <trkpt lat="61.23512" lon="5.22468">
        <ele>170.436436</ele>
        <time>2020-07-27T08:10:06.369Z</time>
      </trkpt>
      <trkpt lat="61.23521" lon="5.2247">
        <ele>170.324381</ele>
        <time>2020-07-27T08:10:10.359Z</time>
      </trkpt>
      <trkpt lat="61.23531" lon="5.22471">
        <ele>170.291487</ele>
        <time>2020-07-27T08:10:14.364Z</time>
      </trkpt>
      <trkpt lat="61.23542" lon="5.22475">
        <ele>170.255403</ele>
        <time>2020-07-27T08:10:18.376Z</time>
      </trkpt>
      <trkpt lat="61.23553" lon="5.2248">
        <ele>170.218847</ele>
        <time>2020-07-27T08:10:22.362Z</time>
      </trkpt>
      <trkpt lat="61.23562" lon="5.22483">
        <ele>170.188188</ele>
        <time>2020-07-27T08:10:25.370Z</time>
      </trkpt>
      <trkpt lat="61.23572" lon="5.22486">
        <ele>170.155049</ele>
        <time>2020-07-27T08:10:28.412Z</time>
      </trkpt>
      <trkpt lat="61.23583" lon="5.22489">
        <ele>170.120511</ele>
        <time>2020-07-27T08:10:31.358Z</time>
      </trkpt>
      <trkpt lat="61.23593" lon="5.22495">
        <ele>170.0849</ele>
        <time>2020-07-27T08:10:34.362Z</time>
      </trkpt>
      <trkpt lat="61.23604" lon="5.225">
        <ele>170.050569</ele>
        <time>2020-07-27T08:10:37.361Z</time>
      </trkpt>
      <trkpt lat="61.23615" lon="5.22506">
        <ele>170.01236</ele>
        <time>2020-07-27T08:10:40.357Z</time>
      </trkpt>
      <trkpt lat="61.23626" lon="5.22511">
        <ele>169.975517</ele>
        <time>2020-07-27T08:10:43.355Z</time>
      </trkpt>
      <trkpt lat="61.23636" lon="5.22512">
        <ele>169.942872</ele>
        <time>2020-07-27T08:10:46.392Z</time>
      </trkpt>
      <trkpt lat="61.23648" lon="5.22516">
        <ele>169.904654</ele>
        <time>2020-07-27T08:10:50.369Z</time>
      </trkpt>
      <trkpt lat="61.23657" lon="5.22513">
        <ele>169.875304</ele>
        <time>2020-07-27T08:10:53.400Z</time>
      </trkpt>
      <trkpt lat="61.23668" lon="5.22507">
        <ele>169.838153</ele>
        <time>2020-07-27T08:10:57.355Z</time>
      </trkpt>
      <trkpt lat="61.23678" lon="5.22496">
        <ele>169.80039</ele>
        <time>2020-07-27T08:11:01.384Z</time>
      </trkpt>
      <trkpt lat="61.23688" lon="5.22486">
        <ele>169.765107</ele>
        <time>2020-07-27T08:11:05.372Z</time>
      </trkpt>
      <trkpt lat="61.23697" lon="5.22476">
        <ele>169.994137</ele>
        <time>2020-07-27T08:11:09.368Z</time>
      </trkpt>
      <trkpt lat="61.23708" lon="5.22468">
        <ele>170.521173</ele>
        <time>2020-07-27T08:11:13.387Z</time>
      </trkpt>
      <trkpt lat="61.23718" lon="5.22464">
        <ele>171.039255</ele>
        <time>2020-07-27T08:11:17.402Z</time>
      </trkpt>
      <trkpt lat="61.23729" lon="5.22463">
        <ele>171.511915</ele>
        <time>2020-07-27T08:11:21.385Z</time>
      </trkpt>
      <trkpt lat="61.23739" lon="5.22464">
        <ele>171.98047</ele>
        <time>2020-07-27T08:11:25.401Z</time>
      </trkpt>
      <trkpt lat="61.23748" lon="5.22466">
        <ele>172.435399</ele>
        <time>2020-07-27T08:11:29.370Z</time>
      </trkpt>
      <trkpt lat="61.23758" lon="5.22469">
        <ele>172.903287</ele>
        <time>2020-07-27T08:11:33.371Z</time>
      </trkpt>
      <trkpt lat="61.23767" lon="5.22473">
        <ele>173.333404</ele>
        <time>2020-07-27T08:11:37.358Z</time>
      </trkpt>
      <trkpt lat="61.23775" lon="5.22484">
        <ele>173.768816</ele>
        <time>2020-07-27T08:11:40.358Z</time>
      </trkpt>
      <trkpt lat="61.23784" lon="5.22494">
        <ele>174.261304</ele>
        <time>2020-07-27T08:11:44.362Z</time>
      </trkpt>
      <trkpt lat="61.23791" lon="5.2251">
        <ele>174.740912</ele>
        <time>2020-07-27T08:11:48.371Z</time>
      </trkpt>
      <trkpt lat="61.23798" lon="5.22526">
        <ele>175.238675</ele>
        <time>2020-07-27T08:11:53.358Z</time>
      </trkpt>
      <trkpt lat="61.23808" lon="5.22537">
        <ele>175.73876</ele>
        <time>2020-07-27T08:11:59.380Z</time>
      </trkpt>
      <trkpt lat="61.23818" lon="5.22545">
        <ele>176.239529</ele>
        <time>2020-07-27T08:12:04.360Z</time>
      </trkpt>
      <trkpt lat="61.23826" lon="5.22555">
        <ele>176.676096</ele>
        <time>2020-07-27T08:12:08.387Z</time>
      </trkpt>
      <trkpt lat="61.23835" lon="5.22568">
        <ele>177.180665</ele>
        <time>2020-07-27T08:12:12.367Z</time>
      </trkpt>
      <trkpt lat="61.23845" lon="5.22578">
        <ele>177.713878</ele>
        <time>2020-07-27T08:12:16.380Z</time>
      </trkpt>
      <trkpt lat="61.23854" lon="5.22589">
        <ele>178.152115</ele>
        <time>2020-07-27T08:12:19.366Z</time>
      </trkpt>
      <trkpt lat="61.23864" lon="5.22603">
        <ele>178.106098</ele>
        <time>2020-07-27T08:12:22.382Z</time>
      </trkpt>
      <trkpt lat="61.23874" lon="5.22616">
        <ele>178.063879</ele>
        <time>2020-07-27T08:12:25.348Z</time>
      </trkpt>
      <trkpt lat="61.23883" lon="5.22625">
        <ele>178.027496</ele>
        <time>2020-07-27T08:12:28.370Z</time>
      </trkpt>
      <trkpt lat="61.23892" lon="5.22627">
        <ele>177.994644</ele>
        <time>2020-07-27T08:12:31.371Z</time>
      </trkpt>
      <trkpt lat="61.23903" lon="5.22625">
        <ele>177.954282</ele>
        <time>2020-07-27T08:12:35.359Z</time>
      </trkpt>
      <trkpt lat="61.23912" lon="5.22622">
        <ele>177.920038</ele>
        <time>2020-07-27T08:12:38.367Z</time>
      </trkpt>
      <trkpt lat="61.23922" lon="5.22617">
        <ele>177.881859</ele>
        <time>2020-07-27T08:12:41.404Z</time>
      </trkpt>
      <trkpt lat="61.23932" lon="5.22613">
        <ele>177.844827</ele>
        <time>2020-07-27T08:12:44.360Z</time>
      </trkpt>
      <trkpt lat="61.23942" lon="5.22608">
        <ele>177.807162</ele>
        <time>2020-07-27T08:12:47.364Z</time>
      </trkpt>
      <trkpt lat="61.23952" lon="5.22604">
        <ele>177.769976</ele>
        <time>2020-07-27T08:12:50.371Z</time>
      </trkpt>
      <trkpt lat="61.23961" lon="5.22599">
        <ele>177.735363</ele>
        <time>2020-07-27T08:12:53.369Z</time>
      </trkpt>
      <trkpt lat="61.23973" lon="5.22596">
        <ele>177.693572</ele>
        <time>2020-07-27T08:12:57.359Z</time>
      </trkpt>
      <trkpt lat="61.23983" lon="5.22598">
        <ele>177.653953</ele>
        <time>2020-07-27T08:13:01.361Z</time>
      </trkpt>
      <trkpt lat="61.23992" lon="5.22604">
        <ele>177.619158</ele>
        <time>2020-07-27T08:13:05.360Z</time>
      </trkpt>
      <trkpt lat="61.24002" lon="5.22611">
        <ele>177.581421</ele>
        <time>2020-07-27T08:13:09.373Z</time>
      </trkpt>
      <trkpt lat="61.24011" lon="5.22617">
        <ele>177.545801</ele>
        <time>2020-07-27T08:13:13.379Z</time>
      </trkpt>
      <trkpt lat="61.2402" lon="5.22623">
        <ele>177.513135</ele>
        <time>2020-07-27T08:13:17.405Z</time>
      </trkpt>
      <trkpt lat="61.24029" lon="5.2263">
        <ele>178.000432</ele>
        <time>2020-07-27T08:13:22.376Z</time>
      </trkpt>
      <trkpt lat="61.24037" lon="5.2264">
        <ele>178.935283</ele>
        <time>2020-07-27T08:13:27.380Z</time>
      </trkpt>
      <trkpt lat="61.24045" lon="5.22649">
        <ele>179.880525</ele>
        <time>2020-07-27T08:13:32.359Z</time>
      </trkpt>
      <trkpt lat="61.24054" lon="5.2266">
        <ele>180.945868</ele>
        <time>2020-07-27T08:13:38.376Z</time>
      </trkpt>
      <trkpt lat="61.24063" lon="5.22672">
        <ele>182.020388</ele>
        <time>2020-07-27T08:13:44.385Z</time>
      </trkpt>
      <trkpt lat="61.24072" lon="5.22686">
        <ele>183.088154</ele>
        <time>2020-07-27T08:13:50.389Z</time>
      </trkpt>
      <trkpt lat="61.24082" lon="5.22693">
        <ele>184.130834</ele>
        <time>2020-07-27T08:13:56.363Z</time>
      </trkpt>
      <trkpt lat="61.24091" lon="5.22698">
        <ele>185.093918</ele>
        <time>2020-07-27T08:14:01.366Z</time>
      </trkpt>
      <trkpt lat="61.24102" lon="5.22699">
        <ele>186.165766</ele>
        <time>2020-07-27T08:14:07.362Z</time>
      </trkpt>
      <trkpt lat="61.24112" lon="5.22697">
        <ele>187.162497</ele>
        <time>2020-07-27T08:14:13.378Z</time>
      </trkpt>
      <trkpt lat="61.24121" lon="5.22695">
        <ele>188.144829</ele>
        <time>2020-07-27T08:14:18.385Z</time>
      </trkpt>
      <trkpt lat="61.24132" lon="5.22691">
        <ele>189.194484</ele>
        <time>2020-07-27T08:14:23.401Z</time>
      </trkpt>
      <trkpt lat="61.24141" lon="5.22688">
        <ele>190.175904</ele>
        <time>2020-07-27T08:14:28.409Z</time>
      </trkpt>
      <trkpt lat="61.24152" lon="5.22684">
        <ele>191.245192</ele>
        <time>2020-07-27T08:14:34.355Z</time>
      </trkpt>
      <trkpt lat="61.24161" lon="5.22683">
        <ele>192.146495</ele>
        <time>2020-07-27T08:14:39.369Z</time>
      </trkpt>
      <trkpt lat="61.24172" lon="5.22682">
        <ele>193.237578</ele>
        <time>2020-07-27T08:14:44.392Z</time>
      </trkpt>
      <trkpt lat="61.24181" lon="5.2268">
        <ele>194.163665</ele>
        <time>2020-07-27T08:14:48.375Z</time>
      </trkpt>
      <trkpt lat="61.24191" lon="5.22677">
        <ele>195.150464</ele>
        <time>2020-07-27T08:14:53.379Z</time>
      </trkpt>
      <trkpt lat="61.24201" lon="5.22673">
        <ele>195.531276</ele>
        <time>2020-07-27T08:14:59.369Z</time>
      </trkpt>
      <trkpt lat="61.2421" lon="5.22666">
        <ele>195.600125</ele>
        <time>2020-07-27T08:15:04.371Z</time>
      </trkpt>
      <trkpt lat="61.24219" lon="5.22659">
        <ele>195.671678</ele>
        <time>2020-07-27T08:15:09.396Z</time>
      </trkpt>
      <trkpt lat="61.24229" lon="5.22652">
        <ele>195.748141</ele>
        <time>2020-07-27T08:15:15.370Z</time>
      </trkpt>
      <trkpt lat="61.2424" lon="5.22642">
        <ele>195.826656</ele>
        <time>2020-07-27T08:15:21.387Z</time>
      </trkpt>
      <trkpt lat="61.24249" lon="5.22635">
        <ele>195.898764</ele>
        <time>2020-07-27T08:15:26.389Z</time>
      </trkpt>
      <trkpt lat="61.24259" lon="5.22629">
        <ele>195.971688</ele>
        <time>2020-07-27T08:15:31.388Z</time>
      </trkpt>
      <trkpt lat="61.24268" lon="5.22624">
        <ele>196.038364</ele>
        <time>2020-07-27T08:15:35.364Z</time>
      </trkpt>
      <trkpt lat="61.24277" lon="5.22615">
        <ele>196.106196</ele>
        <time>2020-07-27T08:15:39.381Z</time>
      </trkpt>
      <trkpt lat="61.24286" lon="5.22607">
        <ele>196.177246</ele>
        <time>2020-07-27T08:15:43.398Z</time>
      </trkpt>
      <trkpt lat="61.24294" lon="5.22594">
        <ele>196.254179</ele>
        <time>2020-07-27T08:15:47.378Z</time>
      </trkpt>
      <trkpt lat="61.24303" lon="5.2258">
        <ele>196.330984</ele>
        <time>2020-07-27T08:15:50.375Z</time>
      </trkpt>
      <trkpt lat="61.24313" lon="5.22567">
        <ele>196.415061</ele>
        <time>2020-07-27T08:15:53.366Z</time>
      </trkpt>
      <trkpt lat="61.24324" lon="5.22557">
        <ele>196.500912</ele>
        <time>2020-07-27T08:15:56.369Z</time>
      </trkpt>
      <trkpt lat="61.24335" lon="5.22553">
        <ele>196.581991</ele>
        <time>2020-07-27T08:15:59.382Z</time>
      </trkpt>
      <trkpt lat="61.24346" lon="5.2255">
        <ele>196.654951</ele>
        <time>2020-07-27T08:16:02.351Z</time>
      </trkpt>
      <trkpt lat="61.24355" lon="5.22549">
        <ele>196.720516</ele>
        <time>2020-07-27T08:16:05.387Z</time>
      </trkpt>
      <trkpt lat="61.24365" lon="5.22547">
        <ele>196.657836</ele>
        <time>2020-07-27T08:16:08.398Z</time>
      </trkpt>
      <trkpt lat="61.24374" lon="5.22543">
        <ele>196.417855</ele>
        <time>2020-07-27T08:16:11.359Z</time>
      </trkpt>
      <trkpt lat="61.24383" lon="5.22536">
        <ele>196.174602</ele>
        <time>2020-07-27T08:16:14.368Z</time>
      </trkpt>
      <trkpt lat="61.24392" lon="5.22529">
        <ele>195.918806</ele>
        <time>2020-07-27T08:16:17.389Z</time>
      </trkpt>
      <trkpt lat="61.24402" lon="5.2252">
        <ele>195.662123</ele>
        <time>2020-07-27T08:16:20.379Z</time>
      </trkpt>
      <trkpt lat="61.24412" lon="5.22514">
        <ele>195.400861</ele>
        <time>2020-07-27T08:16:23.399Z</time>
      </trkpt>
      <trkpt lat="61.24421" lon="5.22506">
        <ele>195.140763</ele>
        <time>2020-07-27T08:16:26.363Z</time>
      </trkpt>
      <trkpt lat="61.24431" lon="5.22499">
        <ele>194.872684</ele>
        <time>2020-07-27T08:16:29.372Z</time>
      </trkpt>
      <trkpt lat="61.24441" lon="5.22491">
        <ele>194.598999</ele>
        <time>2020-07-27T08:16:32.364Z</time>
      </trkpt>
      <trkpt lat="61.24452" lon="5.22483">
        <ele>194.317333</ele>
        <time>2020-07-27T08:16:35.391Z</time>
      </trkpt>
      <trkpt lat="61.24461" lon="5.22476">
        <ele>194.05972</ele>
        <time>2020-07-27T08:16:38.369Z</time>
      </trkpt>
      <trkpt lat="61.24471" lon="5.22469">
        <ele>193.798832</ele>
        <time>2020-07-27T08:16:41.358Z</time>
      </trkpt>
      <trkpt lat="61.24481" lon="5.22463">
        <ele>193.535527</ele>
        <time>2020-07-27T08:16:44.367Z</time>
      </trkpt>
      <trkpt lat="61.2449" lon="5.22456">
        <ele>193.289016</ele>
        <time>2020-07-27T08:16:47.365Z</time>
      </trkpt>
      <trkpt lat="61.24501" lon="5.22449">
        <ele>192.990665</ele>
        <time>2020-07-27T08:16:51.375Z</time>
      </trkpt>
      <trkpt lat="61.2451" lon="5.22443">
        <ele>192.752752</ele>
        <time>2020-07-27T08:16:54.385Z</time>
      </trkpt>
      <trkpt lat="61.24519" lon="5.22437">
        <ele>192.507845</ele>
        <time>2020-07-27T08:16:57.380Z</time>
      </trkpt>
      <trkpt lat="61.24529" lon="5.2243">
        <ele>192.253354</ele>
        <time>2020-07-27T08:17:00.368Z</time>
      </trkpt>
      <trkpt lat="61.24539" lon="5.22421">
        <ele>192.670838</ele>
        <time>2020-07-27T08:17:03.396Z</time>
      </trkpt>
      <trkpt lat="61.24548" lon="5.22413">
        <ele>193.252056</ele>
        <time>2020-07-27T08:17:06.388Z</time>
      </trkpt>
      <trkpt lat="61.24558" lon="5.22403">
        <ele>193.840569</ele>
        <time>2020-07-27T08:17:09.379Z</time>
      </trkpt>
      <trkpt lat="61.24567" lon="5.22394">
        <ele>194.436389</ele>
        <time>2020-07-27T08:17:12.354Z</time>
      </trkpt>
      <trkpt lat="61.24577" lon="5.22384">
        <ele>195.046854</ele>
        <time>2020-07-27T08:17:15.363Z</time>
      </trkpt>
      <trkpt lat="61.24587" lon="5.22375">
        <ele>195.644445</ele>
        <time>2020-07-27T08:17:18.387Z</time>
      </trkpt>
      <trkpt lat="61.24596" lon="5.22367">
        <ele>196.199206</ele>
        <time>2020-07-27T08:17:21.389Z</time>
      </trkpt>
      <trkpt lat="61.24605" lon="5.22356">
        <ele>196.788236</ele>
        <time>2020-07-27T08:17:24.402Z</time>
      </trkpt>
      <trkpt lat="61.24613" lon="5.22345">
        <ele>197.301762</ele>
        <time>2020-07-27T08:17:27.356Z</time>
      </trkpt>
      <trkpt lat="61.24622" lon="5.22328">
        <ele>197.966379</ele>
        <time>2020-07-27T08:17:31.362Z</time>
      </trkpt>
      <trkpt lat="61.24628" lon="5.22314">
        <ele>198.486671</ele>
        <time>2020-07-27T08:17:34.362Z</time>
      </trkpt>
      <trkpt lat="61.24634" lon="5.22297">
        <ele>199.04709</ele>
        <time>2020-07-27T08:17:37.382Z</time>
      </trkpt>
      <trkpt lat="61.2464" lon="5.22277">
        <ele>199.690787</ele>
        <time>2020-07-27T08:17:40.379Z</time>
      </trkpt>
      <trkpt lat="61.24646" lon="5.22256">
        <ele>200.355549</ele>
        <time>2020-07-27T08:17:43.376Z</time>
      </trkpt>
      <trkpt lat="61.24652" lon="5.22235">
        <ele>200.982664</ele>
        <time>2020-07-27T08:17:46.371Z</time>
      </trkpt>
      <trkpt lat="61.24656" lon="5.22213">
        <ele>201.633699</ele>
        <time>2020-07-27T08:17:49.379Z</time>
      </trkpt>
      <trkpt lat="61.2466" lon="5.2219">
        <ele>202.229057</ele>
        <time>2020-07-27T08:17:52.363Z</time>
      </trkpt>
      <trkpt lat="61.24664" lon="5.22167">
        <ele>202.189808</ele>
        <time>2020-07-27T08:17:55.355Z</time>
      </trkpt>
      <trkpt lat="61.24667" lon="5.22142">
        <ele>202.149024</ele>
        <time>2020-07-27T08:17:58.375Z</time>
      </trkpt>
      <trkpt lat="61.2467" lon="5.22122">
        <ele>202.116694</ele>
        <time>2020-07-27T08:18:00.373Z</time>
      </trkpt>
      <trkpt lat="61.24672" lon="5.22103">
        <ele>202.085041</ele>
        <time>2020-07-27T08:18:02.378Z</time>
      </trkpt>
      <trkpt lat="61.24673" lon="5.22081">
        <ele>202.051107</ele>
        <time>2020-07-27T08:18:04.375Z</time>
      </trkpt>
      <trkpt lat="61.24674" lon="5.22059">
        <ele>202.015127</ele>
        <time>2020-07-27T08:18:06.380Z</time>
      </trkpt>
      <trkpt lat="61.24676" lon="5.22035">
        <ele>201.977003</ele>
        <time>2020-07-27T08:18:08.403Z</time>
      </trkpt>
      <trkpt lat="61.24678" lon="5.22011">
        <ele>201.937624</ele>
        <time>2020-07-27T08:18:10.376Z</time>
      </trkpt>
      <trkpt lat="61.2468" lon="5.21986">
        <ele>201.897928</ele>
        <time>2020-07-27T08:18:12.362Z</time>
      </trkpt>
      <trkpt lat="61.24681" lon="5.21962">
        <ele>201.859223</ele>
        <time>2020-07-27T08:18:14.379Z</time>
      </trkpt>
      <trkpt lat="61.24682" lon="5.21939">
        <ele>201.82159</ele>
        <time>2020-07-27T08:18:16.375Z</time>
      </trkpt>
      <trkpt lat="61.24682" lon="5.21916">
        <ele>201.784998</ele>
        <time>2020-07-27T08:18:18.407Z</time>
      </trkpt>
      <trkpt lat="61.24681" lon="5.21894">
        <ele>201.751038</ele>
        <time>2020-07-27T08:18:20.368Z</time>
      </trkpt>
      <trkpt lat="61.24679" lon="5.21874">
        <ele>201.717472</ele>
        <time>2020-07-27T08:18:22.377Z</time>
      </trkpt>
      <trkpt lat="61.24679" lon="5.21853">
        <ele>201.684592</ele>
        <time>2020-07-27T08:18:24.364Z</time>
      </trkpt>
      <trkpt lat="61.24679" lon="5.21833">
        <ele>201.652608</ele>
        <time>2020-07-27T08:18:26.368Z</time>
      </trkpt>
      <trkpt lat="61.2468" lon="5.21813">
        <ele>201.446357</ele>
        <time>2020-07-27T08:18:28.377Z</time>
      </trkpt>
      <trkpt lat="61.24681" lon="5.21794">
        <ele>201.094722</ele>
        <time>2020-07-27T08:18:30.399Z</time>
      </trkpt>
      <trkpt lat="61.24683" lon="5.21776">
        <ele>200.739061</ele>
        <time>2020-07-27T08:18:32.352Z</time>
      </trkpt>
      <trkpt lat="61.24685" lon="5.21757">
        <ele>200.39571</ele>
        <time>2020-07-27T08:18:34.376Z</time>
      </trkpt>
      <trkpt lat="61.24688" lon="5.21731">
        <ele>199.900564</ele>
        <time>2020-07-27T08:18:37.376Z</time>
      </trkpt>
      <trkpt lat="61.24691" lon="5.21714">
        <ele>199.559063</ele>
        <time>2020-07-27T08:18:39.388Z</time>
      </trkpt>
      <trkpt lat="61.24697" lon="5.2169">
        <ele>199.068633</ele>
        <time>2020-07-27T08:18:42.359Z</time>
      </trkpt>
      <trkpt lat="61.24704" lon="5.21672">
        <ele>198.651273</ele>
        <time>2020-07-27T08:18:45.382Z</time>
      </trkpt>
      <trkpt lat="61.24713" lon="5.21657">
        <ele>198.202204</ele>
        <time>2020-07-27T08:18:48.400Z</time>
      </trkpt>
      <trkpt lat="61.24725" lon="5.21646">
        <ele>197.707272</ele>
        <time>2020-07-27T08:18:51.376Z</time>
      </trkpt>
      <trkpt lat="61.24737" lon="5.21638">
        <ele>197.228437</ele>
        <time>2020-07-27T08:18:54.380Z</time>
      </trkpt>
      <trkpt lat="61.24748" lon="5.21632">
        <ele>196.767939</ele>
        <time>2020-07-27T08:18:57.380Z</time>
      </trkpt>
      <trkpt lat="61.24761" lon="5.21628">
        <ele>196.297557</ele>
        <time>2020-07-27T08:19:00.360Z</time>
      </trkpt>
      <trkpt lat="61.24773" lon="5.21625">
        <ele>195.809717</ele>
        <time>2020-07-27T08:19:03.384Z</time>
      </trkpt>
      <trkpt lat="61.24785" lon="5.21625">
        <ele>195.343482</ele>
        <time>2020-07-27T08:19:06.366Z</time>
      </trkpt>
      <trkpt lat="61.24797" lon="5.21625">
        <ele>194.900204</ele>
        <time>2020-07-27T08:19:09.368Z</time>
      </trkpt>
      <trkpt lat="61.24808" lon="5.21626">
        <ele>194.6652</ele>
        <time>2020-07-27T08:19:12.399Z</time>
      </trkpt>
      <trkpt lat="61.2482" lon="5.21627">
        <ele>194.516857</ele>
        <time>2020-07-27T08:19:15.379Z</time>
      </trkpt>
      <trkpt lat="61.24832" lon="5.21631">
        <ele>194.355921</ele>
        <time>2020-07-27T08:19:18.375Z</time>
      </trkpt>
      <trkpt lat="61.24844" lon="5.21635">
        <ele>194.193555</ele>
        <time>2020-07-27T08:19:21.391Z</time>
      </trkpt>
      <trkpt lat="61.24856" lon="5.21641">
        <ele>194.03851</ele>
        <time>2020-07-27T08:19:24.378Z</time>
      </trkpt>
      <trkpt lat="61.24867" lon="5.21648">
        <ele>193.888597</ele>
        <time>2020-07-27T08:19:27.357Z</time>
      </trkpt>
      <trkpt lat="61.24878" lon="5.21654">
        <ele>193.742206</ele>
        <time>2020-07-27T08:19:30.375Z</time>
      </trkpt>
      <trkpt lat="61.24889" lon="5.21655">
        <ele>193.595433</ele>
        <time>2020-07-27T08:19:33.363Z</time>
      </trkpt>
      <trkpt lat="61.24901" lon="5.21653">
        <ele>193.437625</ele>
        <time>2020-07-27T08:19:36.388Z</time>
      </trkpt>
      <trkpt lat="61.24914" lon="5.21649">
        <ele>193.269386</ele>
        <time>2020-07-27T08:19:39.370Z</time>
      </trkpt>
      <trkpt lat="61.24927" lon="5.21646">
        <ele>193.096989</ele>
        <time>2020-07-27T08:19:42.380Z</time>
      </trkpt>
      <trkpt lat="61.2494" lon="5.21645">
        <ele>192.926902</ele>
        <time>2020-07-27T08:19:45.363Z</time>
      </trkpt>
      <trkpt lat="61.24953" lon="5.21645">
        <ele>192.763311</ele>
        <time>2020-07-27T08:19:48.376Z</time>
      </trkpt>
      <trkpt lat="61.24965" lon="5.21646">
        <ele>192.599524</ele>
        <time>2020-07-27T08:19:51.369Z</time>
      </trkpt>
      <trkpt lat="61.24978" lon="5.21649">
        <ele>192.431258</ele>
        <time>2020-07-27T08:19:54.368Z</time>
      </trkpt>
      <trkpt lat="61.24991" lon="5.21652">
        <ele>192.666379</ele>
        <time>2020-07-27T08:19:57.375Z</time>
      </trkpt>
      <trkpt lat="61.25" lon="5.21655">
        <ele>192.835877</ele>
        <time>2020-07-27T08:19:59.380Z</time>
      </trkpt>
      <trkpt lat="61.25009" lon="5.21662">
        <ele>193.012183</ele>
        <time>2020-07-27T08:20:01.356Z</time>
      </trkpt>
      <trkpt lat="61.25018" lon="5.21673">
        <ele>193.190919</ele>
        <time>2020-07-27T08:20:03.391Z</time>
      </trkpt>
      <trkpt lat="61.25025" lon="5.21685">
        <ele>193.355116</ele>
        <time>2020-07-27T08:20:05.404Z</time>
      </trkpt>
      <trkpt lat="61.25034" lon="5.21703">
        <ele>193.584693</ele>
        <time>2020-07-27T08:20:08.400Z</time>
      </trkpt>
      <trkpt lat="61.25043" lon="5.21717">
        <ele>193.799965</ele>
        <time>2020-07-27T08:20:11.375Z</time>
      </trkpt>
      <trkpt lat="61.25056" lon="5.21725">
        <ele>194.038022</ele>
        <time>2020-07-27T08:20:14.363Z</time>
      </trkpt>
      <trkpt lat="61.25065" lon="5.2173">
        <ele>194.205823</ele>
        <time>2020-07-27T08:20:16.371Z</time>
      </trkpt>
      <trkpt lat="61.25074" lon="5.21737">
        <ele>194.378595</ele>
        <time>2020-07-27T08:20:18.365Z</time>
      </trkpt>
      <trkpt lat="61.25082" lon="5.21744">
        <ele>194.545059</ele>
        <time>2020-07-27T08:20:20.414Z</time>
      </trkpt>
      <trkpt lat="61.2509" lon="5.21752">
        <ele>194.711335</ele>
        <time>2020-07-27T08:20:22.363Z</time>
      </trkpt>
      <trkpt lat="61.25098" lon="5.21761">
        <ele>194.878373</ele>
        <time>2020-07-27T08:20:24.364Z</time>
      </trkpt>
      <trkpt lat="61.2511" lon="5.21775">
        <ele>195.121321</ele>
        <time>2020-07-27T08:20:27.376Z</time>
      </trkpt>
      <trkpt lat="61.25121" lon="5.21787">
        <ele>195.351342</ele>
        <time>2020-07-27T08:20:30.382Z</time>
      </trkpt>
      <trkpt lat="61.25133" lon="5.21798">
        <ele>195.591897</ele>
        <time>2020-07-27T08:20:33.376Z</time>
      </trkpt>
      <trkpt lat="61.25144" lon="5.21809">
        <ele>195.725234</ele>
        <time>2020-07-27T08:20:36.378Z</time>
      </trkpt>
      <trkpt lat="61.25155" lon="5.2182">
        <ele>195.728394</ele>
        <time>2020-07-27T08:20:39.374Z</time>
      </trkpt>
      <trkpt lat="61.25165" lon="5.21831">
        <ele>195.731597</ele>
        <time>2020-07-27T08:20:42.362Z</time>
      </trkpt>
      <trkpt lat="61.25176" lon="5.21841">
        <ele>195.734613</ele>
        <time>2020-07-27T08:20:45.352Z</time>
      </trkpt>
      <trkpt lat="61.25185" lon="5.21854">
        <ele>195.737695</ele>
        <time>2020-07-27T08:20:48.362Z</time>
      </trkpt>
      <trkpt lat="61.25196" lon="5.21867">
        <ele>195.740907</ele>
        <time>2020-07-27T08:20:51.384Z</time>
      </trkpt>
      <trkpt lat="61.25206" lon="5.21883">
        <ele>195.744445</ele>
        <time>2020-07-27T08:20:54.376Z</time>
      </trkpt>
      <trkpt lat="61.25214" lon="5.21893">
        <ele>195.746836</ele>
        <time>2020-07-27T08:20:56.368Z</time>
      </trkpt>
      <trkpt lat="61.25224" lon="5.21911">
        <ele>195.750317</ele>
        <time>2020-07-27T08:20:59.357Z</time>
      </trkpt>
      <trkpt lat="61.25233" lon="5.2193">
        <ele>195.753742</ele>
        <time>2020-07-27T08:21:02.376Z</time>
      </trkpt>
      <trkpt lat="61.25239" lon="5.21943">
        <ele>195.756156</ele>
        <time>2020-07-27T08:21:04.360Z</time>
      </trkpt>
      <trkpt lat="61.25246" lon="5.21957">
        <ele>195.758626</ele>
        <time>2020-07-27T08:21:06.362Z</time>
      </trkpt>
      <trkpt lat="61.25254" lon="5.21979">
        <ele>195.762184</ele>
        <time>2020-07-27T08:21:09.372Z</time>
      </trkpt>
      <trkpt lat="61.25263" lon="5.21999">
        <ele>195.765677</ele>
        <time>2020-07-27T08:21:12.371Z</time>
      </trkpt>
      <trkpt lat="61.25271" lon="5.2202">
        <ele>195.769115</ele>
        <time>2020-07-27T08:21:15.377Z</time>
      </trkpt>
      <trkpt lat="61.25277" lon="5.22034">
        <ele>195.77156</ele>
        <time>2020-07-27T08:21:17.379Z</time>
      </trkpt>
      <trkpt lat="61.25285" lon="5.22055">
        <ele>195.731506</ele>
        <time>2020-07-27T08:21:20.355Z</time>
      </trkpt>
      <trkpt lat="61.25294" lon="5.22076">
        <ele>195.686249</ele>
        <time>2020-07-27T08:21:23.378Z</time>
      </trkpt>
      <trkpt lat="61.25301" lon="5.2209">
        <ele>195.656051</ele>
        <time>2020-07-27T08:21:25.384Z</time>
      </trkpt>
      <trkpt lat="61.25308" lon="5.22102">
        <ele>195.624579</ele>
        <time>2020-07-27T08:21:27.387Z</time>
      </trkpt>
      <trkpt lat="61.25315" lon="5.22116">
        <ele>195.592003</ele>
        <time>2020-07-27T08:21:29.380Z</time>
      </trkpt>
      <trkpt lat="61.25322" lon="5.22131">
        <ele>195.55717</ele>
        <time>2020-07-27T08:21:31.367Z</time>
      </trkpt>
      <trkpt lat="61.2533" lon="5.22148">
        <ele>195.520944</ele>
        <time>2020-07-27T08:21:33.403Z</time>
      </trkpt>
      <trkpt lat="61.25337" lon="5.22166">
        <ele>195.483852</ele>
        <time>2020-07-27T08:21:35.365Z</time>
      </trkpt>
      <trkpt lat="61.25344" lon="5.22183">
        <ele>195.446853</ele>
        <time>2020-07-27T08:21:37.378Z</time>
      </trkpt>
      <trkpt lat="61.2535" lon="5.22202">
        <ele>195.4113</ele>
        <time>2020-07-27T08:21:39.379Z</time>
      </trkpt>
      <trkpt lat="61.25355" lon="5.22219">
        <ele>195.378821</ele>
        <time>2020-07-27T08:21:41.392Z</time>
      </trkpt>
      <trkpt lat="61.25361" lon="5.22243">
        <ele>195.336124</ele>
        <time>2020-07-27T08:21:44.360Z</time>
      </trkpt>
      <trkpt lat="61.25366" lon="5.22266">
        <ele>195.295606</ele>
        <time>2020-07-27T08:21:47.406Z</time>
      </trkpt>
      <trkpt lat="61.25369" lon="5.2229">
        <ele>195.254788</ele>
        <time>2020-07-27T08:21:50.366Z</time>
      </trkpt>
      <trkpt lat="61.25374" lon="5.22313">
        <ele>195.214229</ele>
        <time>2020-07-27T08:21:53.368Z</time>
      </trkpt>
      <trkpt lat="61.25378" lon="5.22336">
        <ele>195.174467</ele>
        <time>2020-07-27T08:21:56.355Z</time>
      </trkpt>
      <trkpt lat="61.25383" lon="5.22358">
        <ele>195.178419</ele>
        <time>2020-07-27T08:21:59.356Z</time>
      </trkpt>
      <trkpt lat="61.25388" lon="5.22379">
        <ele>195.185716</ele>
        <time>2020-07-27T08:22:02.359Z</time>
      </trkpt>
      <trkpt lat="61.25394" lon="5.22399">
        <ele>195.193394</ele>
        <time>2020-07-27T08:22:05.366Z</time>
      </trkpt>
      <trkpt lat="61.25403" lon="5.22415">
        <ele>195.201159</ele>
        <time>2020-07-27T08:22:08.383Z</time>
      </trkpt>
      <trkpt lat="61.25414" lon="5.22426">
        <ele>195.209068</ele>
        <time>2020-07-27T08:22:11.405Z</time>
      </trkpt>
      <trkpt lat="61.25426" lon="5.22433">
        <ele>195.217556</ele>
        <time>2020-07-27T08:22:14.381Z</time>
      </trkpt>
      <trkpt lat="61.25435" lon="5.22437">
        <ele>195.223586</ele>
        <time>2020-07-27T08:22:16.375Z</time>
      </trkpt>
      <trkpt lat="61.25445" lon="5.2244">
        <ele>195.230148</ele>
        <time>2020-07-27T08:22:18.419Z</time>
      </trkpt>
      <trkpt lat="61.25455" lon="5.22444">
        <ele>195.236975</ele>
        <time>2020-07-27T08:22:20.401Z</time>
      </trkpt>
      <trkpt lat="61.25466" lon="5.22448">
        <ele>195.243944</ele>
        <time>2020-07-27T08:22:22.395Z</time>
      </trkpt>
      <trkpt lat="61.25476" lon="5.22452">
        <ele>195.250788</ele>
        <time>2020-07-27T08:22:24.381Z</time>
      </trkpt>
      <trkpt lat="61.25486" lon="5.22456">
        <ele>195.257963</ele>
        <time>2020-07-27T08:22:26.361Z</time>
      </trkpt>
      <trkpt lat="61.25497" lon="5.22461">
        <ele>195.265129</ele>
        <time>2020-07-27T08:22:28.379Z</time>
      </trkpt>
      <trkpt lat="61.25508" lon="5.22466">
        <ele>195.272431</ele>
        <time>2020-07-27T08:22:30.408Z</time>
      </trkpt>
      <trkpt lat="61.25519" lon="5.2247">
        <ele>195.279919</ele>
        <time>2020-07-27T08:22:32.356Z</time>
      </trkpt>
      <trkpt lat="61.2553" lon="5.22474">
        <ele>195.287289</ele>
        <time>2020-07-27T08:22:34.378Z</time>
      </trkpt>
      <trkpt lat="61.25541" lon="5.22479">
        <ele>195.370447</ele>
        <time>2020-07-27T08:22:36.363Z</time>
      </trkpt>
      <trkpt lat="61.25551" lon="5.22483">
        <ele>195.499597</ele>
        <time>2020-07-27T08:22:38.413Z</time>
      </trkpt>
      <trkpt lat="61.25561" lon="5.22488">
        <ele>195.62807</ele>
        <time>2020-07-27T08:22:40.367Z</time>
      </trkpt>
      <trkpt lat="61.25571" lon="5.22494">
        <ele>195.75583</ele>
        <time>2020-07-27T08:22:42.358Z</time>
      </trkpt>
      <trkpt lat="61.25581" lon="5.22502">
        <ele>195.883757</ele>
        <time>2020-07-27T08:22:44.382Z</time>
      </trkpt>
      <trkpt lat="61.2559" lon="5.22511">
        <ele>196.006543</ele>
        <time>2020-07-27T08:22:46.386Z</time>
      </trkpt>
      <trkpt lat="61.25602" lon="5.22522">
        <ele>196.163236</ele>
        <time>2020-07-27T08:22:49.398Z</time>
      </trkpt>
      <trkpt lat="61.25612" lon="5.22534">
        <ele>196.312918</ele>
        <time>2020-07-27T08:22:52.395Z</time>
      </trkpt>
      <trkpt lat="61.25622" lon="5.22545">
        <ele>196.445368</ele>
        <time>2020-07-27T08:22:55.363Z</time>
      </trkpt>
      <trkpt lat="61.25632" lon="5.22554">
        <ele>196.58167</ele>
        <time>2020-07-27T08:22:58.391Z</time>
      </trkpt>
      <trkpt lat="61.25642" lon="5.22561">
        <ele>196.712984</ele>
        <time>2020-07-27T08:23:01.358Z</time>
      </trkpt>
      <trkpt lat="61.25652" lon="5.22564">
        <ele>196.840254</ele>
        <time>2020-07-27T08:23:04.358Z</time>
      </trkpt>
      <trkpt lat="61.25663" lon="5.22566">
        <ele>196.965749</ele>
        <time>2020-07-27T08:23:07.366Z</time>
      </trkpt>
      <trkpt lat="61.25672" lon="5.22567">
        <ele>197.081204</ele>
        <time>2020-07-27T08:23:10.384Z</time>
      </trkpt>
      <trkpt lat="61.25682" lon="5.22566">
        <ele>197.208788</ele>
        <time>2020-07-27T08:23:13.384Z</time>
      </trkpt>
      <trkpt lat="61.25693" lon="5.22563">
        <ele>197.335338</ele>
        <time>2020-07-27T08:23:16.358Z</time>
      </trkpt>
      <trkpt lat="61.25704" lon="5.22562">
        <ele>197.468986</ele>
        <time>2020-07-27T08:23:19.358Z</time>
      </trkpt>
      <trkpt lat="61.25714" lon="5.22563">
        <ele>197.693195</ele>
        <time>2020-07-27T08:23:22.354Z</time>
      </trkpt>
      <trkpt lat="61.25724" lon="5.22565">
        <ele>197.948393</ele>
        <time>2020-07-27T08:23:25.374Z</time>
      </trkpt>
      <trkpt lat="61.25736" lon="5.22564">
        <ele>198.232035</ele>
        <time>2020-07-27T08:23:29.370Z</time>
      </trkpt>
      <trkpt lat="61.25748" lon="5.22562">
        <ele>198.518544</ele>
        <time>2020-07-27T08:23:33.367Z</time>
      </trkpt>
      <trkpt lat="61.25758" lon="5.22562">
        <ele>198.760869</ele>
        <time>2020-07-27T08:23:36.367Z</time>
      </trkpt>
      <trkpt lat="61.25769" lon="5.22562">
        <ele>199.024916</ele>
        <time>2020-07-27T08:23:39.353Z</time>
      </trkpt>
      <trkpt lat="61.2578" lon="5.22564">
        <ele>199.309693</ele>
        <time>2020-07-27T08:23:42.371Z</time>
      </trkpt>
      <trkpt lat="61.25792" lon="5.22567">
        <ele>199.594251</ele>
        <time>2020-07-27T08:23:45.354Z</time>
      </trkpt>
      <trkpt lat="61.25803" lon="5.22567">
        <ele>199.860789</ele>
        <time>2020-07-27T08:23:48.380Z</time>
      </trkpt>
      <trkpt lat="61.25815" lon="5.2257">
        <ele>200.14153</ele>
        <time>2020-07-27T08:23:51.357Z</time>
      </trkpt>
      <trkpt lat="61.25827" lon="5.22576">
        <ele>200.459875</ele>
        <time>2020-07-27T08:23:54.378Z</time>
      </trkpt>
      <trkpt lat="61.25836" lon="5.22579">
        <ele>200.677908</ele>
        <time>2020-07-27T08:23:56.359Z</time>
      </trkpt>
      <trkpt lat="61.25847" lon="5.22582">
        <ele>200.936584</ele>
        <time>2020-07-27T08:23:58.357Z</time>
      </trkpt>
      <trkpt lat="61.25857" lon="5.22584">
        <ele>201.18486</ele>
        <time>2020-07-27T08:24:00.363Z</time>
      </trkpt>
      <trkpt lat="61.25866" lon="5.22584">
        <ele>201.405333</ele>
        <time>2020-07-27T08:24:02.381Z</time>
      </trkpt>
      <trkpt lat="61.25879" lon="5.22584">
        <ele>201.705691</ele>
        <time>2020-07-27T08:24:05.369Z</time>
      </trkpt>
      <trkpt lat="61.25891" lon="5.22585">
        <ele>201.675</ele>
        <time>2020-07-27T08:24:08.360Z</time>
      </trkpt>
      <trkpt lat="61.25903" lon="5.22588">
        <ele>201.345317</ele>
        <time>2020-07-27T08:24:11.373Z</time>
      </trkpt>
      <trkpt lat="61.25915" lon="5.22594">
        <ele>201.002777</ele>
        <time>2020-07-27T08:24:14.408Z</time>
      </trkpt>
      <trkpt lat="61.25925" lon="5.226">
        <ele>200.715521</ele>
        <time>2020-07-27T08:24:16.372Z</time>
      </trkpt>
      <trkpt lat="61.25936" lon="5.22604">
        <ele>200.428224</ele>
        <time>2020-07-27T08:24:18.364Z</time>
      </trkpt>
      <trkpt lat="61.25946" lon="5.22609">
        <ele>200.139561</ele>
        <time>2020-07-27T08:24:20.378Z</time>
      </trkpt>
      <trkpt lat="61.25956" lon="5.22614">
        <ele>199.865289</ele>
        <time>2020-07-27T08:24:22.372Z</time>
      </trkpt>
      <trkpt lat="61.25966" lon="5.22618">
        <ele>199.588708</ele>
        <time>2020-07-27T08:24:24.361Z</time>
      </trkpt>
      <trkpt lat="61.25975" lon="5.22622">
        <ele>199.318274</ele>
        <time>2020-07-27T08:24:26.386Z</time>
      </trkpt>
      <trkpt lat="61.25985" lon="5.22626">
        <ele>199.044901</ele>
        <time>2020-07-27T08:24:28.362Z</time>
      </trkpt>
      <trkpt lat="61.25995" lon="5.2263">
        <ele>198.774966</ele>
        <time>2020-07-27T08:24:30.390Z</time>
      </trkpt>
      <trkpt lat="61.26004" lon="5.22634">
        <ele>198.506953</ele>
        <time>2020-07-27T08:24:32.366Z</time>
      </trkpt>
      <trkpt lat="61.26014" lon="5.22638">
        <ele>198.23433</ele>
        <time>2020-07-27T08:24:34.359Z</time>
      </trkpt>
      <trkpt lat="61.26024" lon="5.22643">
        <ele>197.963688</ele>
        <time>2020-07-27T08:24:36.427Z</time>
      </trkpt>
      <trkpt lat="61.26033" lon="5.22649">
        <ele>197.701813</ele>
        <time>2020-07-27T08:24:38.360Z</time>
      </trkpt>
      <trkpt lat="61.26042" lon="5.22658">
        <ele>197.44198</ele>
        <time>2020-07-27T08:24:40.378Z</time>
      </trkpt>
      <trkpt lat="61.2605" lon="5.22669">
        <ele>197.167679</ele>
        <time>2020-07-27T08:24:42.366Z</time>
      </trkpt>
      <trkpt lat="61.26058" lon="5.22681">
        <ele>196.884083</ele>
        <time>2020-07-27T08:24:44.362Z</time>
      </trkpt>
      <trkpt lat="61.26066" lon="5.22694">
        <ele>196.549939</ele>
        <time>2020-07-27T08:24:46.371Z</time>
      </trkpt>
      <trkpt lat="61.26074" lon="5.22706">
        <ele>196.219076</ele>
        <time>2020-07-27T08:24:48.439Z</time>
      </trkpt>
      <trkpt lat="61.26081" lon="5.2272">
        <ele>195.896881</ele>
        <time>2020-07-27T08:24:50.357Z</time>
      </trkpt>
      <trkpt lat="61.26088" lon="5.22731">
        <ele>195.590409</ele>
        <time>2020-07-27T08:24:52.355Z</time>
      </trkpt>
      <trkpt lat="61.26095" lon="5.22744">
        <ele>195.27882</ele>
        <time>2020-07-27T08:24:54.409Z</time>
      </trkpt>
      <trkpt lat="61.26103" lon="5.22756">
        <ele>194.951327</ele>
        <time>2020-07-27T08:24:56.357Z</time>
      </trkpt>
      <trkpt lat="61.26111" lon="5.22767">
        <ele>194.612868</ele>
        <time>2020-07-27T08:24:58.379Z</time>
      </trkpt>
      <trkpt lat="61.26119" lon="5.2278">
        <ele>194.254942</ele>
        <time>2020-07-27T08:25:00.378Z</time>
      </trkpt>
      <trkpt lat="61.26127" lon="5.22793">
        <ele>193.915431</ele>
        <time>2020-07-27T08:25:02.402Z</time>
      </trkpt>
      <trkpt lat="61.26135" lon="5.22805">
        <ele>193.589901</ele>
        <time>2020-07-27T08:25:04.355Z</time>
      </trkpt>
      <trkpt lat="61.26144" lon="5.22817">
        <ele>193.238553</ele>
        <time>2020-07-27T08:25:06.374Z</time>
      </trkpt>
      <trkpt lat="61.26152" lon="5.22831">
        <ele>192.880628</ele>
        <time>2020-07-27T08:25:08.399Z</time>
      </trkpt>
      <trkpt lat="61.26161" lon="5.22844">
        <ele>192.504075</ele>
        <time>2020-07-27T08:25:10.359Z</time>
      </trkpt>
      <trkpt lat="61.2617" lon="5.2286">
        <ele>192.118614</ele>
        <time>2020-07-27T08:25:12.398Z</time>
      </trkpt>
      <trkpt lat="61.26178" lon="5.22875">
        <ele>191.748423</ele>
        <time>2020-07-27T08:25:14.382Z</time>
      </trkpt>
      <trkpt lat="61.26185" lon="5.22889">
        <ele>191.401332</ele>
        <time>2020-07-27T08:25:16.368Z</time>
      </trkpt>
      <trkpt lat="61.26196" lon="5.22906">
        <ele>190.950678</ele>
        <time>2020-07-27T08:25:19.374Z</time>
      </trkpt>
      <trkpt lat="61.26204" lon="5.22916">
        <ele>190.688682</ele>
        <time>2020-07-27T08:25:21.388Z</time>
      </trkpt>
      <trkpt lat="61.26213" lon="5.22924">
        <ele>190.437161</ele>
        <time>2020-07-27T08:25:23.362Z</time>
      </trkpt>
      <trkpt lat="61.26222" lon="5.22927">
        <ele>190.206942</ele>
        <time>2020-07-27T08:25:25.377Z</time>
      </trkpt>
      <trkpt lat="61.26231" lon="5.22932">
        <ele>189.958521</ele>
        <time>2020-07-27T08:25:27.370Z</time>
      </trkpt>
      <trkpt lat="61.26242" lon="5.22937">
        <ele>189.666686</ele>
        <time>2020-07-27T08:25:29.377Z</time>
      </trkpt>
      <trkpt lat="61.26253" lon="5.22943">
        <ele>189.373183</ele>
        <time>2020-07-27T08:25:31.364Z</time>
      </trkpt>
      <trkpt lat="61.26264" lon="5.22953">
        <ele>189.077085</ele>
        <time>2020-07-27T08:25:33.360Z</time>
      </trkpt>
      <trkpt lat="61.26274" lon="5.22965">
        <ele>188.769407</ele>
        <time>2020-07-27T08:25:35.378Z</time>
      </trkpt>
      <trkpt lat="61.26284" lon="5.2298">
        <ele>188.471606</ele>
        <time>2020-07-27T08:25:37.368Z</time>
      </trkpt>
      <trkpt lat="61.26292" lon="5.22994">
        <ele>188.182803</ele>
        <time>2020-07-27T08:25:39.376Z</time>
      </trkpt>
      <trkpt lat="61.263" lon="5.2301">
        <ele>187.898913</ele>
        <time>2020-07-27T08:25:41.394Z</time>
      </trkpt>
      <trkpt lat="61.26309" lon="5.23024">
        <ele>187.610867</ele>
        <time>2020-07-27T08:25:43.444Z</time>
      </trkpt>
      <trkpt lat="61.26319" lon="5.23035">
        <ele>187.322739</ele>
        <time>2020-07-27T08:25:45.379Z</time>
      </trkpt>
      <trkpt lat="61.2633" lon="5.23046">
        <ele>187.022628</ele>
        <time>2020-07-27T08:25:47.355Z</time>
      </trkpt>
      <trkpt lat="61.26341" lon="5.23054">
        <ele>186.703767</ele>
        <time>2020-07-27T08:25:49.397Z</time>
      </trkpt>
      <trkpt lat="61.26354" lon="5.23061">
        <ele>186.377669</ele>
        <time>2020-07-27T08:25:51.396Z</time>
      </trkpt>
      <trkpt lat="61.26366" lon="5.23067">
        <ele>186.056973</ele>
        <time>2020-07-27T08:25:53.391Z</time>
      </trkpt>
      <trkpt lat="61.26377" lon="5.23073">
        <ele>185.75539</ele>
        <time>2020-07-27T08:25:55.356Z</time>
      </trkpt>
      <trkpt lat="61.26389" lon="5.23077">
        <ele>185.462735</ele>
        <time>2020-07-27T08:25:57.398Z</time>
      </trkpt>
      <trkpt lat="61.264" lon="5.23079">
        <ele>185.164401</ele>
        <time>2020-07-27T08:25:59.405Z</time>
      </trkpt>
      <trkpt lat="61.26413" lon="5.23079">
        <ele>184.83881</ele>
        <time>2020-07-27T08:26:01.361Z</time>
      </trkpt>
      <trkpt lat="61.26427" lon="5.23076">
        <ele>184.488402</ele>
        <time>2020-07-27T08:26:03.380Z</time>
      </trkpt>
      <trkpt lat="61.2644" lon="5.2307">
        <ele>184.154648</ele>
        <time>2020-07-27T08:26:05.375Z</time>
      </trkpt>
      <trkpt lat="61.26449" lon="5.23062">
        <ele>183.891588</ele>
        <time>2020-07-27T08:26:07.373Z</time>
      </trkpt>
      <trkpt lat="61.26458" lon="5.23048">
        <ele>183.602949</ele>
        <time>2020-07-27T08:26:10.382Z</time>
      </trkpt>
      <trkpt lat="61.26464" lon="5.23033">
        <ele>183.374193</ele>
        <time>2020-07-27T08:26:13.366Z</time>
      </trkpt>
      <trkpt lat="61.26471" lon="5.23012">
        <ele>183.051829</ele>
        <time>2020-07-27T08:26:16.368Z</time>
      </trkpt>
      <trkpt lat="61.26479" lon="5.22995">
        <ele>182.774091</ele>
        <time>2020-07-27T08:26:18.396Z</time>
      </trkpt>
      <trkpt lat="61.26487" lon="5.22978">
        <ele>182.475207</ele>
        <time>2020-07-27T08:26:20.375Z</time>
      </trkpt>
      <trkpt lat="61.26497" lon="5.22959">
        <ele>182.142323</ele>
        <time>2020-07-27T08:26:22.403Z</time>
      </trkpt>
      <trkpt lat="61.26508" lon="5.22941">
        <ele>181.776536</ele>
        <time>2020-07-27T08:26:24.361Z</time>
      </trkpt>
      <trkpt lat="61.26522" lon="5.22925">
        <ele>181.256371</ele>
        <time>2020-07-27T08:26:26.377Z</time>
      </trkpt>
      <trkpt lat="61.26531" lon="5.22918">
        <ele>180.938585</ele>
        <time>2020-07-27T08:26:27.358Z</time>
      </trkpt>
      <trkpt lat="61.26546" lon="5.22907">
        <ele>180.366217</ele>
        <time>2020-07-27T08:26:29.385Z</time>
      </trkpt>
      <trkpt lat="61.2656" lon="5.22898">
        <ele>179.850203</ele>
        <time>2020-07-27T08:26:31.395Z</time>
      </trkpt>
      <trkpt lat="61.26574" lon="5.22892">
        <ele>179.337899</ele>
        <time>2020-07-27T08:26:33.375Z</time>
      </trkpt>
      <trkpt lat="61.2659" lon="5.22889">
        <ele>178.801862</ele>
        <time>2020-07-27T08:26:35.377Z</time>
      </trkpt>
      <trkpt lat="61.26605" lon="5.22887">
        <ele>178.249258</ele>
        <time>2020-07-27T08:26:37.371Z</time>
      </trkpt>
      <trkpt lat="61.26621" lon="5.2288">
        <ele>177.67437</ele>
        <time>2020-07-27T08:26:39.381Z</time>
      </trkpt>
      <trkpt lat="61.26637" lon="5.22866">
        <ele>177.069983</ele>
        <time>2020-07-27T08:26:41.370Z</time>
      </trkpt>
      <trkpt lat="61.26653" lon="5.22848">
        <ele>176.43346</ele>
        <time>2020-07-27T08:26:43.387Z</time>
      </trkpt>
      <trkpt lat="61.26661" lon="5.22837">
        <ele>176.094811</ele>
        <time>2020-07-27T08:26:44.375Z</time>
      </trkpt>
      <trkpt lat="61.26669" lon="5.22824">
        <ele>175.750334</ele>
        <time>2020-07-27T08:26:45.367Z</time>
      </trkpt>
      <trkpt lat="61.26676" lon="5.22808">
        <ele>175.386454</ele>
        <time>2020-07-27T08:26:46.375Z</time>
      </trkpt>
      <trkpt lat="61.26682" lon="5.22791">
        <ele>174.898062</ele>
        <time>2020-07-27T08:26:47.355Z</time>
      </trkpt>
      <trkpt lat="61.26688" lon="5.22773">
        <ele>174.381956</ele>
        <time>2020-07-27T08:26:48.386Z</time>
      </trkpt>
      <trkpt lat="61.26694" lon="5.22753">
        <ele>173.847328</ele>
        <time>2020-07-27T08:26:49.379Z</time>
      </trkpt>
      <trkpt lat="61.267" lon="5.22733">
        <ele>173.307437</ele>
        <time>2020-07-27T08:26:50.395Z</time>
      </trkpt>
      <trkpt lat="61.26706" lon="5.22713">
        <ele>172.749219</ele>
        <time>2020-07-27T08:26:51.395Z</time>
      </trkpt>
      <trkpt lat="61.26712" lon="5.22692">
        <ele>172.191001</ele>
        <time>2020-07-27T08:26:52.381Z</time>
      </trkpt>
      <trkpt lat="61.26718" lon="5.22672">
        <ele>171.639465</ele>
        <time>2020-07-27T08:26:53.375Z</time>
      </trkpt>
      <trkpt lat="61.26726" lon="5.22652">
        <ele>171.066981</ele>
        <time>2020-07-27T08:26:54.378Z</time>
      </trkpt>
      <trkpt lat="61.26733" lon="5.22633">
        <ele>170.492356</ele>
        <time>2020-07-27T08:26:55.369Z</time>
      </trkpt>
      <trkpt lat="61.26741" lon="5.22616">
        <ele>169.929343</ele>
        <time>2020-07-27T08:26:56.386Z</time>
      </trkpt>
      <trkpt lat="61.2675" lon="5.22599">
        <ele>169.374254</ele>
        <time>2020-07-27T08:26:57.366Z</time>
      </trkpt>
      <trkpt lat="61.26758" lon="5.22582">
        <ele>168.824568</ele>
        <time>2020-07-27T08:26:58.377Z</time>
      </trkpt>
      <trkpt lat="61.26765" lon="5.22565">
        <ele>168.283274</ele>
        <time>2020-07-27T08:26:59.383Z</time>
      </trkpt>
      <trkpt lat="61.26773" lon="5.22548">
        <ele>167.731936</ele>
        <time>2020-07-27T08:27:00.380Z</time>
      </trkpt>
      <trkpt lat="61.26782" lon="5.22532">
        <ele>167.161584</ele>
        <time>2020-07-27T08:27:01.368Z</time>
      </trkpt>
      <trkpt lat="61.26791" lon="5.22516">
        <ele>166.582057</ele>
        <time>2020-07-27T08:27:02.354Z</time>
      </trkpt>
      <trkpt lat="61.26801" lon="5.22502">
        <ele>165.957963</ele>
        <time>2020-07-27T08:27:03.361Z</time>
      </trkpt>
      <trkpt lat="61.2681" lon="5.22489">
        <ele>165.345412</ele>
        <time>2020-07-27T08:27:04.385Z</time>
      </trkpt>
      <trkpt lat="61.2682" lon="5.22474">
        <ele>164.738058</ele>
        <time>2020-07-27T08:27:05.376Z</time>
      </trkpt>
      <trkpt lat="61.26828" lon="5.22457">
        <ele>164.126234</ele>
        <time>2020-07-27T08:27:06.384Z</time>
      </trkpt>
      <trkpt lat="61.26836" lon="5.22439">
        <ele>163.495632</ele>
        <time>2020-07-27T08:27:07.375Z</time>
      </trkpt>
      <trkpt lat="61.26844" lon="5.2242">
        <ele>162.848804</ele>
        <time>2020-07-27T08:27:08.369Z</time>
      </trkpt>
      <trkpt lat="61.26852" lon="5.22402">
        <ele>162.215298</ele>
        <time>2020-07-27T08:27:09.367Z</time>
      </trkpt>
      <trkpt lat="61.26861" lon="5.22386">
        <ele>161.596041</ele>
        <time>2020-07-27T08:27:10.391Z</time>
      </trkpt>
      <trkpt lat="61.2687" lon="5.22371">
        <ele>160.996462</ele>
        <time>2020-07-27T08:27:11.363Z</time>
      </trkpt>
      <trkpt lat="61.26878" lon="5.22356">
        <ele>160.415581</ele>
        <time>2020-07-27T08:27:12.370Z</time>
      </trkpt>
      <trkpt lat="61.26886" lon="5.22342">
        <ele>159.863084</ele>
        <time>2020-07-27T08:27:13.377Z</time>
      </trkpt>
      <trkpt lat="61.26894" lon="5.2233">
        <ele>159.333227</ele>
        <time>2020-07-27T08:27:14.356Z</time>
      </trkpt>
      <trkpt lat="61.26902" lon="5.2232">
        <ele>158.82245</ele>
        <time>2020-07-27T08:27:15.366Z</time>
      </trkpt>
      <trkpt lat="61.26911" lon="5.22313">
        <ele>158.334065</ele>
        <time>2020-07-27T08:27:16.356Z</time>
      </trkpt>
      <trkpt lat="61.26928" lon="5.22311">
        <ele>157.432156</ele>
        <time>2020-07-27T08:27:18.366Z</time>
      </trkpt>
      <trkpt lat="61.26944" lon="5.22322">
        <ele>156.553114</ele>
        <time>2020-07-27T08:27:20.359Z</time>
      </trkpt>
      <trkpt lat="61.26958" lon="5.22334">
        <ele>155.723975</ele>
        <time>2020-07-27T08:27:22.379Z</time>
      </trkpt>
      <trkpt lat="61.26974" lon="5.22339">
        <ele>154.843815</ele>
        <time>2020-07-27T08:27:24.374Z</time>
      </trkpt>
      <trkpt lat="61.26991" lon="5.2234">
        <ele>153.901995</ele>
        <time>2020-07-27T08:27:26.402Z</time>
      </trkpt>
      <trkpt lat="61.27008" lon="5.22334">
        <ele>152.972945</ele>
        <time>2020-07-27T08:27:28.368Z</time>
      </trkpt>
      <trkpt lat="61.27024" lon="5.22321">
        <ele>152.038608</ele>
        <time>2020-07-27T08:27:30.368Z</time>
      </trkpt>
      <trkpt lat="61.27039" lon="5.22305">
        <ele>151.087424</ele>
        <time>2020-07-27T08:27:32.376Z</time>
      </trkpt>
      <trkpt lat="61.27054" lon="5.22287">
        <ele>150.149253</ele>
        <time>2020-07-27T08:27:34.354Z</time>
      </trkpt>
      <trkpt lat="61.27068" lon="5.22271">
        <ele>149.272636</ele>
        <time>2020-07-27T08:27:36.365Z</time>
      </trkpt>
      <trkpt lat="61.27082" lon="5.22257">
        <ele>148.426378</ele>
        <time>2020-07-27T08:27:38.399Z</time>
      </trkpt>
      <trkpt lat="61.27096" lon="5.22239">
        <ele>147.546809</ele>
        <time>2020-07-27T08:27:40.364Z</time>
      </trkpt>
      <trkpt lat="61.27108" lon="5.22217">
        <ele>147.341081</ele>
        <time>2020-07-27T08:27:42.367Z</time>
      </trkpt>
      <trkpt lat="61.27118" lon="5.22195">
        <ele>147.337379</ele>
        <time>2020-07-27T08:27:44.393Z</time>
      </trkpt>
      <trkpt lat="61.27125" lon="5.2217">
        <ele>147.333603</ele>
        <time>2020-07-27T08:27:46.375Z</time>
      </trkpt>
      <trkpt lat="61.27132" lon="5.22145">
        <ele>147.330075</ele>
        <time>2020-07-27T08:27:48.367Z</time>
      </trkpt>
      <trkpt lat="61.27139" lon="5.22122">
        <ele>147.326646</ele>
        <time>2020-07-27T08:27:50.372Z</time>
      </trkpt>
      <trkpt lat="61.27147" lon="5.221">
        <ele>147.323212</ele>
        <time>2020-07-27T08:27:52.362Z</time>
      </trkpt>
      <trkpt lat="61.27155" lon="5.22081">
        <ele>147.319965</ele>
        <time>2020-07-27T08:27:54.373Z</time>
      </trkpt>
      <trkpt lat="61.27162" lon="5.22062">
        <ele>147.316925</ele>
        <time>2020-07-27T08:27:56.377Z</time>
      </trkpt>
      <trkpt lat="61.27169" lon="5.22042">
        <ele>147.313913</ele>
        <time>2020-07-27T08:27:58.391Z</time>
      </trkpt>
      <trkpt lat="61.27176" lon="5.22023">
        <ele>147.310981</ele>
        <time>2020-07-27T08:28:00.398Z</time>
      </trkpt>
      <trkpt lat="61.27181" lon="5.22003">
        <ele>147.308122</ele>
        <time>2020-07-27T08:28:02.374Z</time>
      </trkpt>
      <trkpt lat="61.27185" lon="5.21981">
        <ele>147.305175</ele>
        <time>2020-07-27T08:28:04.367Z</time>
      </trkpt>
      <trkpt lat="61.27191" lon="5.2196">
        <ele>147.302159</ele>
        <time>2020-07-27T08:28:06.390Z</time>
      </trkpt>
      <trkpt lat="61.27196" lon="5.21939">
        <ele>147.299256</ele>
        <time>2020-07-27T08:28:08.371Z</time>
      </trkpt>
      <trkpt lat="61.27201" lon="5.21921">
        <ele>147.44653</ele>
        <time>2020-07-27T08:28:10.404Z</time>
      </trkpt>
      <trkpt lat="61.27205" lon="5.21903">
        <ele>147.953775</ele>
        <time>2020-07-27T08:28:12.397Z</time>
      </trkpt>
      <trkpt lat="61.27209" lon="5.21885">
        <ele>148.438294</ele>
        <time>2020-07-27T08:28:14.390Z</time>
      </trkpt>
      <trkpt lat="61.27214" lon="5.2186">
        <ele>149.119351</ele>
        <time>2020-07-27T08:28:17.367Z</time>
      </trkpt>
      <trkpt lat="61.2722" lon="5.2184">
        <ele>149.695494</ele>
        <time>2020-07-27T08:28:20.364Z</time>
      </trkpt>
      <trkpt lat="61.27225" lon="5.21822">
        <ele>150.215431</ele>
        <time>2020-07-27T08:28:23.393Z</time>
      </trkpt>
      <trkpt lat="61.27232" lon="5.21808">
        <ele>150.735943</ele>
        <time>2020-07-27T08:28:26.389Z</time>
      </trkpt>
      <trkpt lat="61.2724" lon="5.21791">
        <ele>151.342628</ele>
        <time>2020-07-27T08:28:30.385Z</time>
      </trkpt>
      <trkpt lat="61.27249" lon="5.21776">
        <ele>151.919736</ele>
        <time>2020-07-27T08:28:33.367Z</time>
      </trkpt>
      <trkpt lat="61.27256" lon="5.21759">
        <ele>152.472992</ele>
        <time>2020-07-27T08:28:36.389Z</time>
      </trkpt>
      <trkpt lat="61.27263" lon="5.21745">
        <ele>152.966372</ele>
        <time>2020-07-27T08:28:39.395Z</time>
      </trkpt>
      <trkpt lat="61.27269" lon="5.21729">
        <ele>153.477782</ele>
        <time>2020-07-27T08:28:42.376Z</time>
      </trkpt>
      <trkpt lat="61.27274" lon="5.21713">
        <ele>153.958176</ele>
        <time>2020-07-27T08:28:45.359Z</time>
      </trkpt>
      <trkpt lat="61.27278" lon="5.21692">
        <ele>154.520263</ele>
        <time>2020-07-27T08:28:49.386Z</time>
      </trkpt>
      <trkpt lat="61.27283" lon="5.21676">
        <ele>154.994447</ele>
        <time>2020-07-27T08:28:53.404Z</time>
      </trkpt>
      <trkpt lat="61.27288" lon="5.21658">
        <ele>155.528223</ele>
        <time>2020-07-27T08:28:57.382Z</time>
      </trkpt>
      <trkpt lat="61.27294" lon="5.21638">
        <ele>156.076608</ele>
        <time>2020-07-27T08:29:01.385Z</time>
      </trkpt>
      <trkpt lat="61.27299" lon="5.21623">
        <ele>156.553099</ele>
        <time>2020-07-27T08:29:04.366Z</time>
      </trkpt>
      <trkpt lat="61.27305" lon="5.21608">
        <ele>156.207112</ele>
        <time>2020-07-27T08:29:07.380Z</time>
      </trkpt>
      <trkpt lat="61.27311" lon="5.21594">
        <ele>155.729567</ele>
        <time>2020-07-27T08:29:10.362Z</time>
      </trkpt>
      <trkpt lat="61.27319" lon="5.21578">
        <ele>155.165859</ele>
        <time>2020-07-27T08:29:13.386Z</time>
      </trkpt>
      <trkpt lat="61.27328" lon="5.21569">
        <ele>154.700596</ele>
        <time>2020-07-27T08:29:15.384Z</time>
      </trkpt>
      <trkpt lat="61.27338" lon="5.21556">
        <ele>154.094141</ele>
        <time>2020-07-27T08:29:17.388Z</time>
      </trkpt>
      <trkpt lat="61.27352" lon="5.21543">
        <ele>153.33888</ele>
        <time>2020-07-27T08:29:19.376Z</time>
      </trkpt>
      <trkpt lat="61.27366" lon="5.21534">
        <ele>152.568264</ele>
        <time>2020-07-27T08:29:21.401Z</time>
      </trkpt>
      <trkpt lat="61.2738" lon="5.21524">
        <ele>151.858426</ele>
        <time>2020-07-27T08:29:23.355Z</time>
      </trkpt>
      <trkpt lat="61.2739" lon="5.21519">
        <ele>151.312865</ele>
        <time>2020-07-27T08:29:25.360Z</time>
      </trkpt>
      <trkpt lat="61.27403" lon="5.21515">
        <ele>150.665379</ele>
        <time>2020-07-27T08:29:27.374Z</time>
      </trkpt>
      <trkpt lat="61.2742" lon="5.21511">
        <ele>149.806946</ele>
        <time>2020-07-27T08:29:29.377Z</time>
      </trkpt>
      <trkpt lat="61.27439" lon="5.21509">
        <ele>148.854046</ele>
        <time>2020-07-27T08:29:31.363Z</time>
      </trkpt>
      <trkpt lat="61.27449" lon="5.21512">
        <ele>148.320359</ele>
        <time>2020-07-27T08:29:32.390Z</time>
      </trkpt>
      <trkpt lat="61.27459" lon="5.21518">
        <ele>147.787288</ele>
        <time>2020-07-27T08:29:33.377Z</time>
      </trkpt>
      <trkpt lat="61.27469" lon="5.21523">
        <ele>146.851322</ele>
        <time>2020-07-27T08:29:34.383Z</time>
      </trkpt>
      <trkpt lat="61.2748" lon="5.21527">
        <ele>145.591342</ele>
        <time>2020-07-27T08:29:35.399Z</time>
      </trkpt>
      <trkpt lat="61.2749" lon="5.2153">
        <ele>144.327954</ele>
        <time>2020-07-27T08:29:36.369Z</time>
      </trkpt>
      <trkpt lat="61.275" lon="5.2153">
        <ele>143.098342</ele>
        <time>2020-07-27T08:29:37.399Z</time>
      </trkpt>
      <trkpt lat="61.2751" lon="5.21527">
        <ele>141.869302</ele>
        <time>2020-07-27T08:29:38.394Z</time>
      </trkpt>
      <trkpt lat="61.2752" lon="5.21521">
        <ele>140.73018</ele>
        <time>2020-07-27T08:29:39.364Z</time>
      </trkpt>
      <trkpt lat="61.27528" lon="5.21514">
        <ele>139.614873</ele>
        <time>2020-07-27T08:29:40.367Z</time>
      </trkpt>
      <trkpt lat="61.27536" lon="5.21506">
        <ele>138.510534</ele>
        <time>2020-07-27T08:29:41.369Z</time>
      </trkpt>
      <trkpt lat="61.27551" lon="5.21486">
        <ele>136.416663</ele>
        <time>2020-07-27T08:29:43.383Z</time>
      </trkpt>
      <trkpt lat="61.27565" lon="5.21465">
        <ele>134.343163</ele>
        <time>2020-07-27T08:29:45.371Z</time>
      </trkpt>
      <trkpt lat="61.2758" lon="5.21447">
        <ele>132.279607</ele>
        <time>2020-07-27T08:29:47.360Z</time>
      </trkpt>
      <trkpt lat="61.27595" lon="5.21429">
        <ele>130.126513</ele>
        <time>2020-07-27T08:29:49.381Z</time>
      </trkpt>
      <trkpt lat="61.27611" lon="5.2141">
        <ele>127.973969</ele>
        <time>2020-07-27T08:29:51.365Z</time>
      </trkpt>
      <trkpt lat="61.27618" lon="5.21399">
        <ele>126.864515</ele>
        <time>2020-07-27T08:29:52.369Z</time>
      </trkpt>
      <trkpt lat="61.27625" lon="5.21386">
        <ele>125.799433</ele>
        <time>2020-07-27T08:29:53.378Z</time>
      </trkpt>
      <trkpt lat="61.27632" lon="5.21371">
        <ele>125.164452</ele>
        <time>2020-07-27T08:29:54.378Z</time>
      </trkpt>
      <trkpt lat="61.27638" lon="5.21355">
        <ele>124.52482</ele>
        <time>2020-07-27T08:29:55.376Z</time>
      </trkpt>
      <trkpt lat="61.27643" lon="5.21336">
        <ele>123.864218</ele>
        <time>2020-07-27T08:29:56.347Z</time>
      </trkpt>
      <trkpt lat="61.27648" lon="5.21317">
        <ele>123.211914</ele>
        <time>2020-07-27T08:29:57.361Z</time>
      </trkpt>
      <trkpt lat="61.27651" lon="5.21298">
        <ele>122.570907</ele>
        <time>2020-07-27T08:29:58.357Z</time>
      </trkpt>
      <trkpt lat="61.27655" lon="5.21279">
        <ele>121.966721</ele>
        <time>2020-07-27T08:29:59.374Z</time>
      </trkpt>
      <trkpt lat="61.27658" lon="5.21261">
        <ele>121.383698</ele>
        <time>2020-07-27T08:30:00.364Z</time>
      </trkpt>
      <trkpt lat="61.27665" lon="5.21227">
        <ele>120.239291</ele>
        <time>2020-07-27T08:30:02.399Z</time>
      </trkpt>
      <trkpt lat="61.27669" lon="5.21211">
        <ele>119.659062</ele>
        <time>2020-07-27T08:30:03.360Z</time>
      </trkpt>
      <trkpt lat="61.27674" lon="5.21194">
        <ele>119.079622</ele>
        <time>2020-07-27T08:30:04.373Z</time>
      </trkpt>
      <trkpt lat="61.27685" lon="5.21165">
        <ele>117.912289</ele>
        <time>2020-07-27T08:30:06.434Z</time>
      </trkpt>
      <trkpt lat="61.27692" lon="5.21152">
        <ele>117.295681</ele>
        <time>2020-07-27T08:30:07.377Z</time>
      </trkpt>
      <trkpt lat="61.27701" lon="5.21143">
        <ele>116.6872</ele>
        <time>2020-07-27T08:30:08.362Z</time>
      </trkpt>
      <trkpt lat="61.2771" lon="5.21136">
        <ele>116.084615</ele>
        <time>2020-07-27T08:30:09.372Z</time>
      </trkpt>
      <trkpt lat="61.27719" lon="5.2113">
        <ele>115.482688</ele>
        <time>2020-07-27T08:30:10.405Z</time>
      </trkpt>
      <trkpt lat="61.27727" lon="5.21125">
        <ele>114.89507</ele>
        <time>2020-07-27T08:30:11.365Z</time>
      </trkpt>
      <trkpt lat="61.27736" lon="5.2112">
        <ele>114.307881</ele>
        <time>2020-07-27T08:30:12.379Z</time>
      </trkpt>
      <trkpt lat="61.27745" lon="5.21114">
        <ele>113.758384</ele>
        <time>2020-07-27T08:30:13.363Z</time>
      </trkpt>
      <trkpt lat="61.27754" lon="5.21107">
        <ele>113.216204</ele>
        <time>2020-07-27T08:30:14.415Z</time>
      </trkpt>
      <trkpt lat="61.27763" lon="5.21101">
        <ele>112.674023</ele>
        <time>2020-07-27T08:30:15.354Z</time>
      </trkpt>
      <trkpt lat="61.27772" lon="5.21095">
        <ele>112.141902</ele>
        <time>2020-07-27T08:30:16.379Z</time>
      </trkpt>
      <trkpt lat="61.27781" lon="5.21089">
        <ele>111.591074</ele>
        <time>2020-07-27T08:30:17.407Z</time>
      </trkpt>
      <trkpt lat="61.2779" lon="5.21083">
        <ele>111.046598</ele>
        <time>2020-07-27T08:30:18.421Z</time>
      </trkpt>
      <trkpt lat="61.27799" lon="5.21078">
        <ele>110.502915</ele>
        <time>2020-07-27T08:30:19.365Z</time>
      </trkpt>
      <trkpt lat="61.27808" lon="5.21073">
        <ele>109.945468</ele>
        <time>2020-07-27T08:30:20.360Z</time>
      </trkpt>
      <trkpt lat="61.27817" lon="5.21068">
        <ele>109.386577</ele>
        <time>2020-07-27T08:30:21.386Z</time>
      </trkpt>
      <trkpt lat="61.27827" lon="5.21062">
        <ele>108.83401</ele>
        <time>2020-07-27T08:30:22.378Z</time>
      </trkpt>
      <trkpt lat="61.27835" lon="5.21057">
        <ele>108.297445</ele>
        <time>2020-07-27T08:30:23.378Z</time>
      </trkpt>
      <trkpt lat="61.27844" lon="5.21051">
        <ele>107.768059</ele>
        <time>2020-07-27T08:30:24.374Z</time>
      </trkpt>
      <trkpt lat="61.27852" lon="5.21044">
        <ele>107.246642</ele>
        <time>2020-07-27T08:30:25.422Z</time>
      </trkpt>
      <trkpt lat="61.27868" lon="5.21028">
        <ele>106.263067</ele>
        <time>2020-07-27T08:30:27.365Z</time>
      </trkpt>
      <trkpt lat="61.27881" lon="5.21012">
        <ele>105.348367</ele>
        <time>2020-07-27T08:30:29.364Z</time>
      </trkpt>
      <trkpt lat="61.27896" lon="5.20996">
        <ele>104.393136</ele>
        <time>2020-07-27T08:30:31.380Z</time>
      </trkpt>
      <trkpt lat="61.27912" lon="5.20982">
        <ele>103.554064</ele>
        <time>2020-07-27T08:30:33.362Z</time>
      </trkpt>
      <trkpt lat="61.27929" lon="5.20972">
        <ele>102.817996</ele>
        <time>2020-07-27T08:30:35.357Z</time>
      </trkpt>
      <trkpt lat="61.27938" lon="5.20969">
        <ele>102.438085</ele>
        <time>2020-07-27T08:30:36.395Z</time>
      </trkpt>
      <trkpt lat="61.27947" lon="5.20967">
        <ele>102.054451</ele>
        <time>2020-07-27T08:30:37.371Z</time>
      </trkpt>
      <trkpt lat="61.27956" lon="5.20967">
        <ele>101.667832</ele>
        <time>2020-07-27T08:30:38.375Z</time>
      </trkpt>
      <trkpt lat="61.27972" lon="5.20965">
        <ele>100.988516</ele>
        <time>2020-07-27T08:30:40.371Z</time>
      </trkpt>
      <trkpt lat="61.27984" lon="5.20952">
        <ele>100.438895</ele>
        <time>2020-07-27T08:30:42.370Z</time>
      </trkpt>
      <trkpt lat="61.27993" lon="5.20927">
        <ele>99.835142</ele>
        <time>2020-07-27T08:30:44.359Z</time>
      </trkpt>
      <trkpt lat="61.27998" lon="5.20912">
        <ele>99.460546</ele>
        <time>2020-07-27T08:30:45.361Z</time>
      </trkpt>
      <trkpt lat="61.28003" lon="5.20897">
        <ele>99.087001</ele>
        <time>2020-07-27T08:30:46.367Z</time>
      </trkpt>
      <trkpt lat="61.28015" lon="5.20869">
        <ele>98.335036</ele>
        <time>2020-07-27T08:30:48.376Z</time>
      </trkpt>
      <trkpt lat="61.28026" lon="5.20842">
        <ele>97.619124</ele>
        <time>2020-07-27T08:30:50.390Z</time>
      </trkpt>
      <trkpt lat="61.28036" lon="5.20815">
        <ele>96.949165</ele>
        <time>2020-07-27T08:30:52.383Z</time>
      </trkpt>
      <trkpt lat="61.28046" lon="5.20789">
        <ele>96.357619</ele>
        <time>2020-07-27T08:30:54.366Z</time>
      </trkpt>
      <trkpt lat="61.28056" lon="5.20759">
        <ele>95.971179</ele>
        <time>2020-07-27T08:30:56.363Z</time>
      </trkpt>
      <trkpt lat="61.28065" lon="5.20728">
        <ele>95.581595</ele>
        <time>2020-07-27T08:30:58.396Z</time>
      </trkpt>
      <trkpt lat="61.28073" lon="5.20698">
        <ele>95.201143</ele>
        <time>2020-07-27T08:31:00.389Z</time>
      </trkpt>
      <trkpt lat="61.28081" lon="5.20669">
        <ele>94.841018</ele>
        <time>2020-07-27T08:31:02.377Z</time>
      </trkpt>
      <trkpt lat="61.28088" lon="5.20641">
        <ele>94.502995</ele>
        <time>2020-07-27T08:31:04.374Z</time>
      </trkpt>
      <trkpt lat="61.28094" lon="5.20617">
        <ele>94.204192</ele>
        <time>2020-07-27T08:31:06.397Z</time>
      </trkpt>
      <trkpt lat="61.281" lon="5.20595">
        <ele>93.935588</ele>
        <time>2020-07-27T08:31:08.371Z</time>
      </trkpt>
      <trkpt lat="61.28105" lon="5.20573">
        <ele>93.670038</ele>
        <time>2020-07-27T08:31:10.356Z</time>
      </trkpt>
      <trkpt lat="61.2811" lon="5.20553">
        <ele>93.422889</ele>
        <time>2020-07-27T08:31:12.364Z</time>
      </trkpt>
      <trkpt lat="61.28115" lon="5.20533">
        <ele>93.187606</ele>
        <time>2020-07-27T08:31:14.408Z</time>
      </trkpt>
      <trkpt lat="61.28119" lon="5.20515">
        <ele>92.973808</ele>
        <time>2020-07-27T08:31:16.379Z</time>
      </trkpt>
      <trkpt lat="61.28123" lon="5.20499">
        <ele>92.766432</ele>
        <time>2020-07-27T08:31:18.382Z</time>
      </trkpt>
      <trkpt lat="61.28128" lon="5.2048">
        <ele>92.540475</ele>
        <time>2020-07-27T08:31:20.363Z</time>
      </trkpt>
      <trkpt lat="61.28133" lon="5.20462">
        <ele>92.381213</ele>
        <time>2020-07-27T08:31:22.375Z</time>
      </trkpt>
      <trkpt lat="61.28137" lon="5.20443">
        <ele>92.330272</ele>
        <time>2020-07-27T08:31:24.372Z</time>
      </trkpt>
      <trkpt lat="61.28142" lon="5.20421">
        <ele>92.270772</ele>
        <time>2020-07-27T08:31:26.399Z</time>
      </trkpt>
      <trkpt lat="61.28148" lon="5.20398">
        <ele>92.20776</ele>
        <time>2020-07-27T08:31:28.390Z</time>
      </trkpt>
      <trkpt lat="61.28154" lon="5.20374">
        <ele>92.140347</ele>
        <time>2020-07-27T08:31:30.382Z</time>
      </trkpt>
      <trkpt lat="61.28161" lon="5.2035">
        <ele>92.073112</ele>
        <time>2020-07-27T08:31:32.366Z</time>
      </trkpt>
      <trkpt lat="61.28167" lon="5.20329">
        <ele>92.01423</ele>
        <time>2020-07-27T08:31:34.378Z</time>
      </trkpt>
      <trkpt lat="61.28175" lon="5.20306">
        <ele>91.945269</ele>
        <time>2020-07-27T08:31:36.363Z</time>
      </trkpt>
      <trkpt lat="61.28184" lon="5.20287">
        <ele>91.876202</ele>
        <time>2020-07-27T08:31:38.411Z</time>
      </trkpt>
      <trkpt lat="61.28195" lon="5.20268">
        <ele>91.806533</ele>
        <time>2020-07-27T08:31:40.374Z</time>
      </trkpt>
      <trkpt lat="61.28206" lon="5.20249">
        <ele>91.734295</ele>
        <time>2020-07-27T08:31:42.380Z</time>
      </trkpt>
      <trkpt lat="61.28217" lon="5.20232">
        <ele>91.665947</ele>
        <time>2020-07-27T08:31:44.406Z</time>
      </trkpt>
      <trkpt lat="61.28228" lon="5.20212">
        <ele>91.58803</ele>
        <time>2020-07-27T08:31:46.362Z</time>
      </trkpt>
      <trkpt lat="61.28243" lon="5.20189">
        <ele>91.496766</ele>
        <time>2020-07-27T08:31:48.366Z</time>
      </trkpt>
      <trkpt lat="61.2825" lon="5.20176">
        <ele>91.351883</ele>
        <time>2020-07-27T08:31:49.382Z</time>
      </trkpt>
      <trkpt lat="61.28257" lon="5.20162">
        <ele>91.184868</ele>
        <time>2020-07-27T08:31:50.374Z</time>
      </trkpt>
      <trkpt lat="61.28263" lon="5.20147">
        <ele>91.01474</ele>
        <time>2020-07-27T08:31:51.375Z</time>
      </trkpt>
      <trkpt lat="61.28269" lon="5.20131">
        <ele>90.838423</ele>
        <time>2020-07-27T08:31:52.375Z</time>
      </trkpt>
      <trkpt lat="61.28275" lon="5.20113">
        <ele>90.656777</ele>
        <time>2020-07-27T08:31:53.374Z</time>
      </trkpt>
      <trkpt lat="61.2828" lon="5.20095">
        <ele>90.477868</ele>
        <time>2020-07-27T08:31:54.377Z</time>
      </trkpt>
      <trkpt lat="61.28285" lon="5.20076">
        <ele>90.302698</ele>
        <time>2020-07-27T08:31:55.364Z</time>
      </trkpt>
      <trkpt lat="61.28289" lon="5.20057">
        <ele>90.123729</ele>
        <time>2020-07-27T08:31:56.361Z</time>
      </trkpt>
      <trkpt lat="61.28293" lon="5.20039">
        <ele>89.954659</ele>
        <time>2020-07-27T08:31:57.370Z</time>
      </trkpt>
      <trkpt lat="61.28297" lon="5.20022">
        <ele>89.796252</ele>
        <time>2020-07-27T08:31:58.363Z</time>
      </trkpt>
      <trkpt lat="61.28305" lon="5.1999">
        <ele>89.491569</ele>
        <time>2020-07-27T08:32:00.378Z</time>
      </trkpt>
      <trkpt lat="61.28312" lon="5.1996">
        <ele>89.210529</ele>
        <time>2020-07-27T08:32:02.355Z</time>
      </trkpt>
      <trkpt lat="61.28319" lon="5.19933">
        <ele>88.946958</ele>
        <time>2020-07-27T08:32:04.378Z</time>
      </trkpt>
      <trkpt lat="61.28326" lon="5.19907">
        <ele>88.700654</ele>
        <time>2020-07-27T08:32:06.365Z</time>
      </trkpt>
      <trkpt lat="61.28333" lon="5.19884">
        <ele>88.467301</ele>
        <time>2020-07-27T08:32:08.390Z</time>
      </trkpt>
      <trkpt lat="61.28341" lon="5.19861">
        <ele>88.267583</ele>
        <time>2020-07-27T08:32:10.374Z</time>
      </trkpt>
      <trkpt lat="61.28348" lon="5.1984">
        <ele>88.126069</ele>
        <time>2020-07-27T08:32:12.366Z</time>
      </trkpt>
      <trkpt lat="61.28355" lon="5.19819">
        <ele>87.990146</ele>
        <time>2020-07-27T08:32:14.386Z</time>
      </trkpt>
      <trkpt lat="61.28361" lon="5.19797">
        <ele>87.855615</ele>
        <time>2020-07-27T08:32:16.358Z</time>
      </trkpt>
      <trkpt lat="61.28364" lon="5.19772">
        <ele>87.720881</ele>
        <time>2020-07-27T08:32:18.426Z</time>
      </trkpt>
      <trkpt lat="61.28366" lon="5.19748">
        <ele>87.590816</ele>
        <time>2020-07-27T08:32:20.369Z</time>
      </trkpt>
      <trkpt lat="61.28367" lon="5.19725">
        <ele>87.469487</ele>
        <time>2020-07-27T08:32:22.366Z</time>
      </trkpt>
      <trkpt lat="61.28369" lon="5.19705">
        <ele>87.360097</ele>
        <time>2020-07-27T08:32:24.379Z</time>
      </trkpt>
      <trkpt lat="61.28373" lon="5.19679">
        <ele>87.215818</ele>
        <time>2020-07-27T08:32:27.411Z</time>
      </trkpt>
      <trkpt lat="61.28376" lon="5.19656">
        <ele>87.084811</ele>
        <time>2020-07-27T08:32:30.359Z</time>
      </trkpt>
      <trkpt lat="61.2838" lon="5.19631">
        <ele>86.949573</ele>
        <time>2020-07-27T08:32:33.399Z</time>
      </trkpt>
      <trkpt lat="61.28384" lon="5.19605">
        <ele>86.80269</ele>
        <time>2020-07-27T08:32:36.385Z</time>
      </trkpt>
      <trkpt lat="61.28388" lon="5.19585">
        <ele>86.688568</ele>
        <time>2020-07-27T08:32:38.400Z</time>
      </trkpt>
      <trkpt lat="61.28391" lon="5.19562">
        <ele>86.565196</ele>
        <time>2020-07-27T08:32:40.376Z</time>
      </trkpt>
      <trkpt lat="61.28393" lon="5.1954">
        <ele>86.444165</ele>
        <time>2020-07-27T08:32:42.388Z</time>
      </trkpt>
      <trkpt lat="61.28397" lon="5.19519">
        <ele>86.33648</ele>
        <time>2020-07-27T08:32:44.388Z</time>
      </trkpt>
      <trkpt lat="61.284" lon="5.19498">
        <ele>86.364235</ele>
        <time>2020-07-27T08:32:46.374Z</time>
      </trkpt>
      <trkpt lat="61.28404" lon="5.19475">
        <ele>86.39332</ele>
        <time>2020-07-27T08:32:48.360Z</time>
      </trkpt>
      <trkpt lat="61.28407" lon="5.19451">
        <ele>86.423117</ele>
        <time>2020-07-27T08:32:50.376Z</time>
      </trkpt>
      <trkpt lat="61.2841" lon="5.19428">
        <ele>86.452866</ele>
        <time>2020-07-27T08:32:52.376Z</time>
      </trkpt>
      <trkpt lat="61.28415" lon="5.19405">
        <ele>86.48182</ele>
        <time>2020-07-27T08:32:54.362Z</time>
      </trkpt>
      <trkpt lat="61.2842" lon="5.19385">
        <ele>86.509653</ele>
        <time>2020-07-27T08:32:56.372Z</time>
      </trkpt>
      <trkpt lat="61.28424" lon="5.19364">
        <ele>86.537367</ele>
        <time>2020-07-27T08:32:58.368Z</time>
      </trkpt>
      <trkpt lat="61.28429" lon="5.19343">
        <ele>86.566277</ele>
        <time>2020-07-27T08:33:00.384Z</time>
      </trkpt>
      <trkpt lat="61.28434" lon="5.19321">
        <ele>86.595078</ele>
        <time>2020-07-27T08:33:02.368Z</time>
      </trkpt>
      <trkpt lat="61.28439" lon="5.193">
        <ele>86.623008</ele>
        <time>2020-07-27T08:33:04.359Z</time>
      </trkpt>
      <trkpt lat="61.28444" lon="5.1928">
        <ele>86.649737</ele>
        <time>2020-07-27T08:33:06.397Z</time>
      </trkpt>
      <trkpt lat="61.28448" lon="5.19262">
        <ele>86.674506</ele>
        <time>2020-07-27T08:33:08.366Z</time>
      </trkpt>
      <trkpt lat="61.28453" lon="5.19238">
        <ele>86.706591</ele>
        <time>2020-07-27T08:33:11.363Z</time>
      </trkpt>
      <trkpt lat="61.28459" lon="5.19215">
        <ele>86.737806</ele>
        <time>2020-07-27T08:33:14.383Z</time>
      </trkpt>
      <trkpt lat="61.28464" lon="5.192">
        <ele>86.760395</ele>
        <time>2020-07-27T08:33:16.385Z</time>
      </trkpt>
      <trkpt lat="61.28471" lon="5.19184">
        <ele>86.78554</ele>
        <time>2020-07-27T08:33:18.383Z</time>
      </trkpt>
      <trkpt lat="61.28478" lon="5.19169">
        <ele>86.879711</ele>
        <time>2020-07-27T08:33:20.392Z</time>
      </trkpt>
      <trkpt lat="61.28485" lon="5.19154">
        <ele>86.981401</ele>
        <time>2020-07-27T08:33:22.360Z</time>
      </trkpt>
      <trkpt lat="61.28493" lon="5.19137">
        <ele>87.091641</ele>
        <time>2020-07-27T08:33:24.384Z</time>
      </trkpt>
      <trkpt lat="61.28501" lon="5.19119">
        <ele>87.207365</ele>
        <time>2020-07-27T08:33:26.379Z</time>
      </trkpt>
      <trkpt lat="61.28507" lon="5.19098">
        <ele>87.324477</ele>
        <time>2020-07-27T08:33:28.391Z</time>
      </trkpt>
      <trkpt lat="61.28513" lon="5.19075">
        <ele>87.446483</ele>
        <time>2020-07-27T08:33:30.386Z</time>
      </trkpt>
      <trkpt lat="61.28518" lon="5.19053">
        <ele>87.56342</ele>
        <time>2020-07-27T08:33:32.371Z</time>
      </trkpt>
      <trkpt lat="61.28521" lon="5.19031">
        <ele>87.670841</ele>
        <time>2020-07-27T08:33:34.382Z</time>
      </trkpt>
      <trkpt lat="61.28523" lon="5.19009">
        <ele>87.779038</ele>
        <time>2020-07-27T08:33:36.382Z</time>
      </trkpt>
      <trkpt lat="61.28525" lon="5.18988">
        <ele>87.880291</ele>
        <time>2020-07-27T08:33:38.366Z</time>
      </trkpt>
      <trkpt lat="61.28527" lon="5.18969">
        <ele>87.970023</ele>
        <time>2020-07-27T08:33:40.385Z</time>
      </trkpt>
      <trkpt lat="61.28531" lon="5.18945">
        <ele>88.092759</ele>
        <time>2020-07-27T08:33:43.395Z</time>
      </trkpt>
      <trkpt lat="61.28539" lon="5.18922">
        <ele>88.226558</ele>
        <time>2020-07-27T08:33:46.397Z</time>
      </trkpt>
      <trkpt lat="61.28546" lon="5.18906">
        <ele>88.328248</ele>
        <time>2020-07-27T08:33:48.363Z</time>
      </trkpt>
      <trkpt lat="61.28555" lon="5.18893">
        <ele>88.434853</ele>
        <time>2020-07-27T08:33:50.423Z</time>
      </trkpt>
      <trkpt lat="61.28565" lon="5.18882">
        <ele>88.544976</ele>
        <time>2020-07-27T08:33:52.380Z</time>
      </trkpt>
      <trkpt lat="61.28574" lon="5.18872">
        <ele>88.272507</ele>
        <time>2020-07-27T08:33:54.405Z</time>
      </trkpt>
      <trkpt lat="61.28584" lon="5.18863">
        <ele>87.945947</ele>
        <time>2020-07-27T08:33:56.377Z</time>
      </trkpt>
      <trkpt lat="61.28593" lon="5.18854">
        <ele>87.62836</ele>
        <time>2020-07-27T08:33:58.407Z</time>
      </trkpt>
      <trkpt lat="61.28602" lon="5.18847">
        <ele>87.32015</ele>
        <time>2020-07-27T08:34:00.370Z</time>
      </trkpt>
      <trkpt lat="61.28611" lon="5.18839">
        <ele>87.008575</ele>
        <time>2020-07-27T08:34:02.360Z</time>
      </trkpt>
      <trkpt lat="61.2862" lon="5.18832">
        <ele>86.70112</ele>
        <time>2020-07-27T08:34:04.368Z</time>
      </trkpt>
      <trkpt lat="61.28633" lon="5.18828">
        <ele>86.282632</ele>
        <time>2020-07-27T08:34:07.365Z</time>
      </trkpt>
      <trkpt lat="61.28646" lon="5.18836">
        <ele>85.860912</ele>
        <time>2020-07-27T08:34:10.361Z</time>
      </trkpt>
      <trkpt lat="61.28654" lon="5.18846">
        <ele>85.553485</ele>
        <time>2020-07-27T08:34:12.380Z</time>
      </trkpt>
      <trkpt lat="61.28665" lon="5.18854">
        <ele>85.203203</ele>
        <time>2020-07-27T08:34:14.387Z</time>
      </trkpt>
      <trkpt lat="61.28677" lon="5.18861">
        <ele>84.791876</ele>
        <time>2020-07-27T08:34:16.360Z</time>
      </trkpt>
      <trkpt lat="61.28692" lon="5.18864">
        <ele>84.31982</ele>
        <time>2020-07-27T08:34:18.399Z</time>
      </trkpt>
      <trkpt lat="61.28708" lon="5.18863">
        <ele>83.808836</ele>
        <time>2020-07-27T08:34:20.404Z</time>
      </trkpt>
      <trkpt lat="61.28725" lon="5.18858">
        <ele>83.274183</ele>
        <time>2020-07-27T08:34:22.377Z</time>
      </trkpt>
      <trkpt lat="61.28742" lon="5.1885">
        <ele>82.576913</ele>
        <time>2020-07-27T08:34:24.376Z</time>
      </trkpt>
      <trkpt lat="61.28751" lon="5.18844">
        <ele>81.994697</ele>
        <time>2020-07-27T08:34:25.379Z</time>
      </trkpt>
      <trkpt lat="61.2876" lon="5.18837">
        <ele>81.402706</ele>
        <time>2020-07-27T08:34:26.366Z</time>
      </trkpt>
      <trkpt lat="61.28769" lon="5.18829">
        <ele>80.777699</ele>
        <time>2020-07-27T08:34:27.423Z</time>
      </trkpt>
      <trkpt lat="61.28778" lon="5.18819">
        <ele>80.152877</ele>
        <time>2020-07-27T08:34:28.375Z</time>
      </trkpt>
      <trkpt lat="61.28786" lon="5.18808">
        <ele>79.529001</ele>
        <time>2020-07-27T08:34:29.392Z</time>
      </trkpt>
      <trkpt lat="61.28794" lon="5.18794">
        <ele>78.867935</ele>
        <time>2020-07-27T08:34:30.362Z</time>
      </trkpt>
      <trkpt lat="61.28802" lon="5.18777">
        <ele>78.170459</ele>
        <time>2020-07-27T08:34:31.394Z</time>
      </trkpt>
      <trkpt lat="61.28809" lon="5.18757">
        <ele>77.433123</ele>
        <time>2020-07-27T08:34:32.444Z</time>
      </trkpt>
      <trkpt lat="61.28815" lon="5.18735">
        <ele>76.66676</ele>
        <time>2020-07-27T08:34:33.384Z</time>
      </trkpt>
      <trkpt lat="61.28821" lon="5.18711">
        <ele>75.886654</ele>
        <time>2020-07-27T08:34:34.394Z</time>
      </trkpt>
      <trkpt lat="61.28825" lon="5.18687">
        <ele>75.102232</ele>
        <time>2020-07-27T08:34:35.373Z</time>
      </trkpt>
      <trkpt lat="61.28829" lon="5.18662">
        <ele>74.3103</ele>
        <time>2020-07-27T08:34:36.383Z</time>
      </trkpt>
      <trkpt lat="61.28832" lon="5.18636">
        <ele>73.510826</ele>
        <time>2020-07-27T08:34:37.376Z</time>
      </trkpt>
      <trkpt lat="61.28834" lon="5.1861">
        <ele>72.7239</ele>
        <time>2020-07-27T08:34:38.386Z</time>
      </trkpt>
      <trkpt lat="61.28836" lon="5.18585">
        <ele>71.976376</ele>
        <time>2020-07-27T08:34:39.387Z</time>
      </trkpt>
      <trkpt lat="61.28839" lon="5.18561">
        <ele>71.243751</ele>
        <time>2020-07-27T08:34:40.385Z</time>
      </trkpt>
      <trkpt lat="61.28842" lon="5.18539">
        <ele>70.548263</ele>
        <time>2020-07-27T08:34:41.365Z</time>
      </trkpt>
      <trkpt lat="61.28844" lon="5.18517">
        <ele>69.872662</ele>
        <time>2020-07-27T08:34:42.384Z</time>
      </trkpt>
      <trkpt lat="61.28847" lon="5.18496">
        <ele>69.234999</ele>
        <time>2020-07-27T08:34:43.361Z</time>
      </trkpt>
      <trkpt lat="61.2885" lon="5.18476">
        <ele>68.602827</ele>
        <time>2020-07-27T08:34:44.379Z</time>
      </trkpt>
      <trkpt lat="61.28852" lon="5.18455">
        <ele>67.983759</ele>
        <time>2020-07-27T08:34:45.363Z</time>
      </trkpt>
      <trkpt lat="61.28855" lon="5.18435">
        <ele>67.350322</ele>
        <time>2020-07-27T08:34:46.375Z</time>
      </trkpt>
      <trkpt lat="61.28857" lon="5.18414">
        <ele>66.705372</ele>
        <time>2020-07-27T08:34:47.361Z</time>
      </trkpt>
      <trkpt lat="61.2886" lon="5.18392">
        <ele>66.041714</ele>
        <time>2020-07-27T08:34:48.376Z</time>
      </trkpt>
      <trkpt lat="61.28862" lon="5.18371">
        <ele>65.386641</ele>
        <time>2020-07-27T08:34:49.374Z</time>
      </trkpt>
      <trkpt lat="61.28865" lon="5.1835">
        <ele>64.743175</ele>
        <time>2020-07-27T08:34:50.450Z</time>
      </trkpt>
      <trkpt lat="61.28867" lon="5.18329">
        <ele>64.115491</ele>
        <time>2020-07-27T08:34:51.366Z</time>
      </trkpt>
      <trkpt lat="61.2887" lon="5.18309">
        <ele>63.500885</ele>
        <time>2020-07-27T08:34:52.370Z</time>
      </trkpt>
      <trkpt lat="61.28872" lon="5.18289">
        <ele>62.878487</ele>
        <time>2020-07-27T08:34:53.362Z</time>
      </trkpt>
      <trkpt lat="61.28876" lon="5.18271">
        <ele>62.302107</ele>
        <time>2020-07-27T08:34:54.377Z</time>
      </trkpt>
      <trkpt lat="61.28882" lon="5.18237">
        <ele>61.219787</ele>
        <time>2020-07-27T08:34:56.400Z</time>
      </trkpt>
      <trkpt lat="61.28891" lon="5.18212">
        <ele>60.351006</ele>
        <time>2020-07-27T08:34:58.373Z</time>
      </trkpt>
      <trkpt lat="61.28904" lon="5.18191">
        <ele>59.645941</ele>
        <time>2020-07-27T08:35:00.383Z</time>
      </trkpt>
      <trkpt lat="61.28918" lon="5.18174">
        <ele>58.928782</ele>
        <time>2020-07-27T08:35:02.405Z</time>
      </trkpt>
      <trkpt lat="61.28932" lon="5.18162">
        <ele>58.253568</ele>
        <time>2020-07-27T08:35:04.378Z</time>
      </trkpt>
      <trkpt lat="61.28947" lon="5.18152">
        <ele>57.564275</ele>
        <time>2020-07-27T08:35:06.399Z</time>
      </trkpt>
      <trkpt lat="61.28961" lon="5.18139">
        <ele>56.878954</ele>
        <time>2020-07-27T08:35:08.366Z</time>
      </trkpt>
      <trkpt lat="61.28973" lon="5.18115">
        <ele>56.177149</ele>
        <time>2020-07-27T08:35:10.380Z</time>
      </trkpt>
      <trkpt lat="61.28981" lon="5.18081">
        <ele>55.369505</ele>
        <time>2020-07-27T08:35:12.377Z</time>
      </trkpt>
      <trkpt lat="61.28986" lon="5.18063">
        <ele>54.92666</ele>
        <time>2020-07-27T08:35:13.383Z</time>
      </trkpt>
      <trkpt lat="61.28991" lon="5.18044">
        <ele>54.468251</ele>
        <time>2020-07-27T08:35:14.367Z</time>
      </trkpt>
      <trkpt lat="61.28997" lon="5.18025">
        <ele>54.007322</ele>
        <time>2020-07-27T08:35:15.398Z</time>
      </trkpt>
      <trkpt lat="61.29002" lon="5.18006">
        <ele>53.54551</ele>
        <time>2020-07-27T08:35:16.422Z</time>
      </trkpt>
      <trkpt lat="61.29008" lon="5.17987">
        <ele>53.066545</ele>
        <time>2020-07-27T08:35:17.374Z</time>
      </trkpt>
      <trkpt lat="61.29014" lon="5.17967">
        <ele>52.605609</ele>
        <time>2020-07-27T08:35:18.399Z</time>
      </trkpt>
      <trkpt lat="61.2902" lon="5.17947">
        <ele>52.411111</ele>
        <time>2020-07-27T08:35:19.402Z</time>
      </trkpt>
      <trkpt lat="61.29025" lon="5.17927">
        <ele>52.216805</ele>
        <time>2020-07-27T08:35:20.416Z</time>
      </trkpt>
      <trkpt lat="61.29031" lon="5.17908">
        <ele>52.030878</ele>
        <time>2020-07-27T08:35:21.361Z</time>
      </trkpt>
      <trkpt lat="61.29036" lon="5.17891">
        <ele>51.86185</ele>
        <time>2020-07-27T08:35:22.401Z</time>
      </trkpt>
      <trkpt lat="61.29045" lon="5.17862">
        <ele>51.581924</ele>
        <time>2020-07-27T08:35:24.371Z</time>
      </trkpt>
      <trkpt lat="61.29052" lon="5.17838">
        <ele>51.344835</ele>
        <time>2020-07-27T08:35:26.381Z</time>
      </trkpt>
      <trkpt lat="61.29057" lon="5.17817">
        <ele>51.143709</ele>
        <time>2020-07-27T08:35:28.372Z</time>
      </trkpt>
      <trkpt lat="61.29064" lon="5.17795">
        <ele>50.927059</ele>
        <time>2020-07-27T08:35:30.371Z</time>
      </trkpt>
      <trkpt lat="61.29071" lon="5.1777">
        <ele>50.688114</ele>
        <time>2020-07-27T08:35:32.372Z</time>
      </trkpt>
      <trkpt lat="61.29079" lon="5.17745">
        <ele>50.442413</ele>
        <time>2020-07-27T08:35:34.394Z</time>
      </trkpt>
      <trkpt lat="61.29089" lon="5.17721">
        <ele>50.169956</ele>
        <time>2020-07-27T08:35:36.383Z</time>
      </trkpt>
      <trkpt lat="61.29103" lon="5.177">
        <ele>49.870704</ele>
        <time>2020-07-27T08:35:38.411Z</time>
      </trkpt>
      <trkpt lat="61.29112" lon="5.17691">
        <ele>49.707436</ele>
        <time>2020-07-27T08:35:39.403Z</time>
      </trkpt>
      <trkpt lat="61.29121" lon="5.17683">
        <ele>49.531922</ele>
        <time>2020-07-27T08:35:40.368Z</time>
      </trkpt>
      <trkpt lat="61.2913" lon="5.17677">
        <ele>49.720803</ele>
        <time>2020-07-27T08:35:41.355Z</time>
      </trkpt>
      <trkpt lat="61.2914" lon="5.17673">
        <ele>49.972111</ele>
        <time>2020-07-27T08:35:42.398Z</time>
      </trkpt>
      <trkpt lat="61.2915" lon="5.17671">
        <ele>50.225301</ele>
        <time>2020-07-27T08:35:43.384Z</time>
      </trkpt>
      <trkpt lat="61.29159" lon="5.1767">
        <ele>50.456306</ele>
        <time>2020-07-27T08:35:44.369Z</time>
      </trkpt>
      <trkpt lat="61.29175" lon="5.17669">
        <ele>50.871854</ele>
        <time>2020-07-27T08:35:46.411Z</time>
      </trkpt>
      <trkpt lat="61.29189" lon="5.1767">
        <ele>51.225773</ele>
        <time>2020-07-27T08:35:48.397Z</time>
      </trkpt>
      <trkpt lat="61.29201" lon="5.1767">
        <ele>51.533621</ele>
        <time>2020-07-27T08:35:50.402Z</time>
      </trkpt>
      <trkpt lat="61.29211" lon="5.17673">
        <ele>51.799402</ele>
        <time>2020-07-27T08:35:52.386Z</time>
      </trkpt>
      <trkpt lat="61.2922" lon="5.17674">
        <ele>52.030935</ele>
        <time>2020-07-27T08:35:54.361Z</time>
      </trkpt>
      <trkpt lat="61.29232" lon="5.17674">
        <ele>52.338723</ele>
        <time>2020-07-27T08:35:57.376Z</time>
      </trkpt>
      <trkpt lat="61.29243" lon="5.17673">
        <ele>52.623413</ele>
        <time>2020-07-27T08:36:00.369Z</time>
      </trkpt>
      <trkpt lat="61.29252" lon="5.17673">
        <ele>52.856824</ele>
        <time>2020-07-27T08:36:03.375Z</time>
      </trkpt>
      <trkpt lat="61.29261" lon="5.17675">
        <ele>53.091234</ele>
        <time>2020-07-27T08:36:06.408Z</time>
      </trkpt>
      <trkpt lat="61.2927" lon="5.17679">
        <ele>53.334157</ele>
        <time>2020-07-27T08:36:09.408Z</time>
      </trkpt>
      <trkpt lat="61.29281" lon="5.17685">
        <ele>53.614297</ele>
        <time>2020-07-27T08:36:12.381Z</time>
      </trkpt>
      <trkpt lat="61.2929" lon="5.1769">
        <ele>53.86092</ele>
        <time>2020-07-27T08:36:15.387Z</time>
      </trkpt>
      <trkpt lat="61.29301" lon="5.17696">
        <ele>54.142915</ele>
        <time>2020-07-27T08:36:18.387Z</time>
      </trkpt>
      <trkpt lat="61.2931" lon="5.17704">
        <ele>54.681332</ele>
        <time>2020-07-27T08:36:21.386Z</time>
      </trkpt>
      <trkpt lat="61.2932" lon="5.17715">
        <ele>55.305398</ele>
        <time>2020-07-27T08:36:24.379Z</time>
      </trkpt>
      <trkpt lat="61.2933" lon="5.17727">
        <ele>55.94386</ele>
        <time>2020-07-27T08:36:27.357Z</time>
      </trkpt>
      <trkpt lat="61.29341" lon="5.17734">
        <ele>56.551648</ele>
        <time>2020-07-27T08:36:30.362Z</time>
      </trkpt>
      <trkpt lat="61.29352" lon="5.17738">
        <ele>57.132168</ele>
        <time>2020-07-27T08:36:33.383Z</time>
      </trkpt>
      <trkpt lat="61.29362" lon="5.17743">
        <ele>57.701176</ele>
        <time>2020-07-27T08:36:37.399Z</time>
      </trkpt>
      <trkpt lat="61.29371" lon="5.17749">
        <ele>58.193445</ele>
        <time>2020-07-27T08:36:41.396Z</time>
      </trkpt>
      <trkpt lat="61.2938" lon="5.17754">
        <ele>58.71478</ele>
        <time>2020-07-27T08:36:45.382Z</time>
      </trkpt>
      <trkpt lat="61.2939" lon="5.17759">
        <ele>59.244766</ele>
        <time>2020-07-27T08:36:49.364Z</time>
      </trkpt>
      <trkpt lat="61.29399" lon="5.17764">
        <ele>59.782387</ele>
        <time>2020-07-27T08:36:53.383Z</time>
      </trkpt>
      <trkpt lat="61.2941" lon="5.17768">
        <ele>60.338621</ele>
        <time>2020-07-27T08:36:57.390Z</time>
      </trkpt>
      <trkpt lat="61.29421" lon="5.1777">
        <ele>60.96506</ele>
        <time>2020-07-27T08:37:02.374Z</time>
      </trkpt>
      <trkpt lat="61.29431" lon="5.17769">
        <ele>61.477632</ele>
        <time>2020-07-27T08:37:06.372Z</time>
      </trkpt>
      <trkpt lat="61.29441" lon="5.1777">
        <ele>62.053667</ele>
        <time>2020-07-27T08:37:11.363Z</time>
      </trkpt>
      <trkpt lat="61.29451" lon="5.17765">
        <ele>62.586697</ele>
        <time>2020-07-27T08:37:15.400Z</time>
      </trkpt>
      <trkpt lat="61.29462" lon="5.17758">
        <ele>63.185767</ele>
        <time>2020-07-27T08:37:19.376Z</time>
      </trkpt>
      <trkpt lat="61.29471" lon="5.17754">
        <ele>63.69019</ele>
        <time>2020-07-27T08:37:23.354Z</time>
      </trkpt>
      <trkpt lat="61.2948" lon="5.17749">
        <ele>64.206192</ele>
        <time>2020-07-27T08:37:27.380Z</time>
      </trkpt>
      <trkpt lat="61.2949" lon="5.17744">
        <ele>64.796339</ele>
        <time>2020-07-27T08:37:32.397Z</time>
      </trkpt>
      <trkpt lat="61.29499" lon="5.17738">
        <ele>65.333508</ele>
        <time>2020-07-27T08:37:36.404Z</time>
      </trkpt>
      <trkpt lat="61.29509" lon="5.17735">
        <ele>65.881211</ele>
        <time>2020-07-27T08:37:40.365Z</time>
      </trkpt>
      <trkpt lat="61.29519" lon="5.17735">
        <ele>66.454425</ele>
        <time>2020-07-27T08:37:45.361Z</time>
      </trkpt>
      <trkpt lat="61.29529" lon="5.17735">
        <ele>67.010805</ele>
        <time>2020-07-27T08:37:50.399Z</time>
      </trkpt>
      <trkpt lat="61.29538" lon="5.17736">
        <ele>67.523226</ele>
        <time>2020-07-27T08:37:55.393Z</time>
      </trkpt>
      <trkpt lat="61.29548" lon="5.17732">
        <ele>68.119091</ele>
        <time>2020-07-27T08:37:59.369Z</time>
      </trkpt>
      <trkpt lat="61.29559" lon="5.17727">
        <ele>68.758477</ele>
        <time>2020-07-27T08:38:03.394Z</time>
      </trkpt>
      <trkpt lat="61.29571" lon="5.17723">
        <ele>69.392008</ele>
        <time>2020-07-27T08:38:07.391Z</time>
      </trkpt>
      <trkpt lat="61.2958" lon="5.17717">
        <ele>69.962399</ele>
        <time>2020-07-27T08:38:11.366Z</time>
      </trkpt>
      <trkpt lat="61.2959" lon="5.17713">
        <ele>70.540169</ele>
        <time>2020-07-27T08:38:15.373Z</time>
      </trkpt>
      <trkpt lat="61.29601" lon="5.17706">
        <ele>71.171075</ele>
        <time>2020-07-27T08:38:19.383Z</time>
      </trkpt>
      <trkpt lat="61.2961" lon="5.17696">
        <ele>71.719733</ele>
        <time>2020-07-27T08:38:22.398Z</time>
      </trkpt>
      <trkpt lat="61.29617" lon="5.17682">
        <ele>72.269881</ele>
        <time>2020-07-27T08:38:25.394Z</time>
      </trkpt>
      <trkpt lat="61.29624" lon="5.17669">
        <ele>72.814386</ele>
        <time>2020-07-27T08:38:28.380Z</time>
      </trkpt>
      <trkpt lat="61.29632" lon="5.17654">
        <ele>73.387295</ele>
        <time>2020-07-27T08:38:31.375Z</time>
      </trkpt>
      <trkpt lat="61.29638" lon="5.17639">
        <ele>73.952902</ele>
        <time>2020-07-27T08:38:34.377Z</time>
      </trkpt>
      <trkpt lat="61.29645" lon="5.17623">
        <ele>74.96335</ele>
        <time>2020-07-27T08:38:37.369Z</time>
      </trkpt>
      <trkpt lat="61.29651" lon="5.17607">
        <ele>75.927658</ele>
        <time>2020-07-27T08:38:40.369Z</time>
      </trkpt>
      <trkpt lat="61.29658" lon="5.17592">
        <ele>76.934069</ele>
        <time>2020-07-27T08:38:44.351Z</time>
      </trkpt>
      <trkpt lat="61.29666" lon="5.17576">
        <ele>77.953989</ele>
        <time>2020-07-27T08:38:48.368Z</time>
      </trkpt>
      <trkpt lat="61.29673" lon="5.17562">
        <ele>78.94091</ele>
        <time>2020-07-27T08:38:52.375Z</time>
      </trkpt>
      <trkpt lat="61.29681" lon="5.17545">
        <ele>80.063649</ele>
        <time>2020-07-27T08:38:56.398Z</time>
      </trkpt>
      <trkpt lat="61.29689" lon="5.1753">
        <ele>81.067337</ele>
        <time>2020-07-27T08:39:00.383Z</time>
      </trkpt>
      <trkpt lat="61.29697" lon="5.17517">
        <ele>82.056775</ele>
        <time>2020-07-27T08:39:04.362Z</time>
      </trkpt>
      <trkpt lat="61.29705" lon="5.17506">
        <ele>82.964606</ele>
        <time>2020-07-27T08:39:08.369Z</time>
      </trkpt>
      <trkpt lat="61.29714" lon="5.17496">
        <ele>84.017574</ele>
        <time>2020-07-27T08:39:13.375Z</time>
      </trkpt>
      <trkpt lat="61.29724" lon="5.17489">
        <ele>85.00778</ele>
        <time>2020-07-27T08:39:19.362Z</time>
      </trkpt>
      <trkpt lat="61.29733" lon="5.17486">
        <ele>85.928411</ele>
        <time>2020-07-27T08:39:25.381Z</time>
      </trkpt>
      <trkpt lat="61.29743" lon="5.17486">
        <ele>86.85467</ele>
        <time>2020-07-27T08:39:31.356Z</time>
      </trkpt>
      <trkpt lat="61.29753" lon="5.17486">
        <ele>87.84928</ele>
        <time>2020-07-27T08:39:37.410Z</time>
      </trkpt>
      <trkpt lat="61.29762" lon="5.17484">
        <ele>88.799665</ele>
        <time>2020-07-27T08:39:44.371Z</time>
      </trkpt>
      <trkpt lat="61.29772" lon="5.17481">
        <ele>89.729899</ele>
        <time>2020-07-27T08:39:50.377Z</time>
      </trkpt>
      <trkpt lat="61.29782" lon="5.17479">
        <ele>90.748225</ele>
        <time>2020-07-27T08:39:56.367Z</time>
      </trkpt>
      <trkpt lat="61.29792" lon="5.17477">
        <ele>91.350705</ele>
        <time>2020-07-27T08:40:02.356Z</time>
      </trkpt>
      <trkpt lat="61.29801" lon="5.17479">
        <ele>91.043576</ele>
        <time>2020-07-27T08:40:07.382Z</time>
      </trkpt>
      <trkpt lat="61.29811" lon="5.17477">
        <ele>90.702528</ele>
        <time>2020-07-27T08:40:12.386Z</time>
      </trkpt>
      <trkpt lat="61.2982" lon="5.17476">
        <ele>90.395642</ele>
        <time>2020-07-27T08:40:18.373Z</time>
      </trkpt>
      <trkpt lat="61.2983" lon="5.17473">
        <ele>90.037784</ele>
        <time>2020-07-27T08:40:25.400Z</time>
      </trkpt>
      <trkpt lat="61.29841" lon="5.17467">
        <ele>89.678109</ele>
        <time>2020-07-27T08:40:34.366Z</time>
      </trkpt>
      <trkpt lat="61.2985" lon="5.17464">
        <ele>89.341622</ele>
        <time>2020-07-27T08:40:40.367Z</time>
      </trkpt>
      <trkpt lat="61.2986" lon="5.17467">
        <ele>89.019268</ele>
        <time>2020-07-27T08:40:46.377Z</time>
      </trkpt>
      <trkpt lat="61.29871" lon="5.17466">
        <ele>88.651655</ele>
        <time>2020-07-27T08:40:51.376Z</time>
      </trkpt>
      <trkpt lat="61.29881" lon="5.1746">
        <ele>88.282542</ele>
        <time>2020-07-27T08:40:55.397Z</time>
      </trkpt>
      <trkpt lat="61.2989" lon="5.17456">
        <ele>87.975064</ele>
        <time>2020-07-27T08:40:58.365Z</time>
      </trkpt>
      <trkpt lat="61.29901" lon="5.17451">
        <ele>87.578078</ele>
        <time>2020-07-27T08:41:02.369Z</time>
      </trkpt>
      <trkpt lat="61.29911" lon="5.17446">
        <ele>87.251043</ele>
        <time>2020-07-27T08:41:06.385Z</time>
      </trkpt>
      <trkpt lat="61.29921" lon="5.17439">
        <ele>86.867515</ele>
        <time>2020-07-27T08:41:11.377Z</time>
      </trkpt>
      <trkpt lat="61.29931" lon="5.17434">
        <ele>86.530495</ele>
        <time>2020-07-27T08:41:15.381Z</time>
      </trkpt>
      <trkpt lat="61.2994" lon="5.17428">
        <ele>86.201628</ele>
        <time>2020-07-27T08:41:18.366Z</time>
      </trkpt>
      <trkpt lat="61.29952" lon="5.17425">
        <ele>85.808901</ele>
        <time>2020-07-27T08:41:21.378Z</time>
      </trkpt>
      <trkpt lat="61.29965" lon="5.17416">
        <ele>85.353826</ele>
        <time>2020-07-27T08:41:24.367Z</time>
      </trkpt>
      <trkpt lat="61.29974" lon="5.17412">
        <ele>84.699157</ele>
        <time>2020-07-27T08:41:26.378Z</time>
      </trkpt>
      <trkpt lat="61.29984" lon="5.17408">
        <ele>84.002503</ele>
        <time>2020-07-27T08:41:28.396Z</time>
      </trkpt>
      <trkpt lat="61.29994" lon="5.17403">
        <ele>83.253457</ele>
        <time>2020-07-27T08:41:30.386Z</time>
      </trkpt>
      <trkpt lat="61.30004" lon="5.17399">
        <ele>82.510585</ele>
        <time>2020-07-27T08:41:32.370Z</time>
      </trkpt>
      <trkpt lat="61.30015" lon="5.17394">
        <ele>81.773855</ele>
        <time>2020-07-27T08:41:34.361Z</time>
      </trkpt>
      <trkpt lat="61.30025" lon="5.17389">
        <ele>80.995838</ele>
        <time>2020-07-27T08:41:36.379Z</time>
      </trkpt>
      <trkpt lat="61.30037" lon="5.17382">
        <ele>80.16809</ele>
        <time>2020-07-27T08:41:38.386Z</time>
      </trkpt>
      <trkpt lat="61.30047" lon="5.17374">
        <ele>79.371435</ele>
        <time>2020-07-27T08:41:40.360Z</time>
      </trkpt>
      <trkpt lat="61.30057" lon="5.17365">
        <ele>78.642542</ele>
        <time>2020-07-27T08:41:42.384Z</time>
      </trkpt>
      <trkpt lat="61.30066" lon="5.17357">
        <ele>77.964701</ele>
        <time>2020-07-27T08:41:44.371Z</time>
      </trkpt>
      <trkpt lat="61.30075" lon="5.17348">
        <ele>77.245684</ele>
        <time>2020-07-27T08:41:46.394Z</time>
      </trkpt>
      <trkpt lat="61.30084" lon="5.17338">
        <ele>76.491927</ele>
        <time>2020-07-27T08:41:48.373Z</time>
      </trkpt>
      <trkpt lat="61.30094" lon="5.17328">
        <ele>75.73101</ele>
        <time>2020-07-27T08:41:50.399Z</time>
      </trkpt>
      <trkpt lat="61.30098" lon="5.17309">
        <ele>75.058823</ele>
        <time>2020-07-27T08:41:52.384Z</time>
      </trkpt>
      <trkpt lat="61.30097" lon="5.17286">
        <ele>74.270044</ele>
        <time>2020-07-27T08:41:54.375Z</time>
      </trkpt>
      <trkpt lat="61.30096" lon="5.17263">
        <ele>73.473749</ele>
        <time>2020-07-27T08:41:56.387Z</time>
      </trkpt>
      <trkpt lat="61.30095" lon="5.17238">
        <ele>72.631307</ele>
        <time>2020-07-27T08:41:58.419Z</time>
      </trkpt>
      <trkpt lat="61.30096" lon="5.17208">
        <ele>71.867685</ele>
        <time>2020-07-27T08:42:00.367Z</time>
      </trkpt>
      <trkpt lat="61.30096" lon="5.17175">
        <ele>71.026684</ele>
        <time>2020-07-27T08:42:02.372Z</time>
      </trkpt>
      <trkpt lat="61.30095" lon="5.17141">
        <ele>70.165849</ele>
        <time>2020-07-27T08:42:04.366Z</time>
      </trkpt>
      <trkpt lat="61.30094" lon="5.17108">
        <ele>69.313387</ele>
        <time>2020-07-27T08:42:06.384Z</time>
      </trkpt>
      <trkpt lat="61.30094" lon="5.17073">
        <ele>68.408917</ele>
        <time>2020-07-27T08:42:08.398Z</time>
      </trkpt>
      <trkpt lat="61.30097" lon="5.17036">
        <ele>67.455807</ele>
        <time>2020-07-27T08:42:10.376Z</time>
      </trkpt>
      <trkpt lat="61.30102" lon="5.17018">
        <ele>66.937572</ele>
        <time>2020-07-27T08:42:11.364Z</time>
      </trkpt>
      <trkpt lat="61.30107" lon="5.17001">
        <ele>66.404522</ele>
        <time>2020-07-27T08:42:12.399Z</time>
      </trkpt>
      <trkpt lat="61.30113" lon="5.16985">
        <ele>65.901182</ele>
        <time>2020-07-27T08:42:13.376Z</time>
      </trkpt>
      <trkpt lat="61.3012" lon="5.16972">
        <ele>65.42372</ele>
        <time>2020-07-27T08:42:14.408Z</time>
      </trkpt>
      <trkpt lat="61.30127" lon="5.16959">
        <ele>64.91046</ele>
        <time>2020-07-27T08:42:15.391Z</time>
      </trkpt>
      <trkpt lat="61.30134" lon="5.16944">
        <ele>64.36323</ele>
        <time>2020-07-27T08:42:16.383Z</time>
      </trkpt>
      <trkpt lat="61.30142" lon="5.16929">
        <ele>63.793117</ele>
        <time>2020-07-27T08:42:17.394Z</time>
      </trkpt>
      <trkpt lat="61.30149" lon="5.16913">
        <ele>63.229239</ele>
        <time>2020-07-27T08:42:18.386Z</time>
      </trkpt>
      <trkpt lat="61.30157" lon="5.16897">
        <ele>63.472737</ele>
        <time>2020-07-27T08:42:19.357Z</time>
      </trkpt>
      <trkpt lat="61.30164" lon="5.16881">
        <ele>63.975848</ele>
        <time>2020-07-27T08:42:20.363Z</time>
      </trkpt>
      <trkpt lat="61.3017" lon="5.16867">
        <ele>64.426229</ele>
        <time>2020-07-27T08:42:21.369Z</time>
      </trkpt>
      <trkpt lat="61.30181" lon="5.16843">
        <ele>65.197606</ele>
        <time>2020-07-27T08:42:23.372Z</time>
      </trkpt>
      <trkpt lat="61.30188" lon="5.16824">
        <ele>65.778834</ele>
        <time>2020-07-27T08:42:25.437Z</time>
      </trkpt>
      <trkpt lat="61.30194" lon="5.16802">
        <ele>66.376899</ele>
        <time>2020-07-27T08:42:28.393Z</time>
      </trkpt>
      <trkpt lat="61.30198" lon="5.16782">
        <ele>66.867825</ele>
        <time>2020-07-27T08:42:31.377Z</time>
      </trkpt>
      <trkpt lat="61.302" lon="5.16763">
        <ele>67.346772</ele>
        <time>2020-07-27T08:42:37.371Z</time>
      </trkpt>
      <trkpt lat="61.30204" lon="5.16743">
        <ele>67.842215</ele>
        <time>2020-07-27T08:42:43.386Z</time>
      </trkpt>
      <trkpt lat="61.30206" lon="5.16723">
        <ele>68.333557</ele>
        <time>2020-07-27T08:42:49.362Z</time>
      </trkpt>
      <trkpt lat="61.30205" lon="5.16702">
        <ele>68.828865</ele>
        <time>2020-07-27T08:42:56.368Z</time>
      </trkpt>
      <trkpt lat="61.30206" lon="5.16681">
        <ele>69.331185</ele>
        <time>2020-07-27T08:43:03.365Z</time>
      </trkpt>
      <trkpt lat="61.30206" lon="5.16661">
        <ele>69.788431</ele>
        <time>2020-07-27T08:43:11.379Z</time>
      </trkpt>
      <trkpt lat="61.30208" lon="5.16641">
        <ele>70.276603</ele>
        <time>2020-07-27T08:43:18.359Z</time>
      </trkpt>
      <trkpt lat="61.30209" lon="5.16621">
        <ele>70.752862</ele>
        <time>2020-07-27T08:43:25.365Z</time>
      </trkpt>
      <trkpt lat="61.30211" lon="5.16602">
        <ele>71.196097</ele>
        <time>2020-07-27T08:43:31.360Z</time>
      </trkpt>
      <trkpt lat="61.30212" lon="5.16582">
        <ele>71.678382</ele>
        <time>2020-07-27T08:43:38.387Z</time>
      </trkpt>
      <trkpt lat="61.30213" lon="5.16561">
        <ele>72.024646</ele>
        <time>2020-07-27T08:43:45.366Z</time>
      </trkpt>
      <trkpt lat="61.30212" lon="5.16539">
        <ele>72.250573</ele>
        <time>2020-07-27T08:43:51.364Z</time>
      </trkpt>
      <trkpt lat="61.30211" lon="5.1652">
        <ele>72.45623</ele>
        <time>2020-07-27T08:43:57.394Z</time>
      </trkpt>
      <trkpt lat="61.3021" lon="5.165">
        <ele>72.661853</ele>
        <time>2020-07-27T08:44:02.379Z</time>
      </trkpt>
      <trkpt lat="61.30208" lon="5.16477">
        <ele>72.89942</ele>
        <time>2020-07-27T08:44:06.358Z</time>
      </trkpt>
      <trkpt lat="61.30206" lon="5.16458">
        <ele>73.101707</ele>
        <time>2020-07-27T08:44:09.383Z</time>
      </trkpt>
      <trkpt lat="61.30204" lon="5.16436">
        <ele>73.330608</ele>
        <time>2020-07-27T08:44:12.368Z</time>
      </trkpt>
      <trkpt lat="61.30201" lon="5.16413">
        <ele>73.57444</ele>
        <time>2020-07-27T08:44:15.365Z</time>
      </trkpt>
      <trkpt lat="61.30199" lon="5.1639">
        <ele>73.824465</ele>
        <time>2020-07-27T08:44:18.389Z</time>
      </trkpt>
      <trkpt lat="61.30196" lon="5.16364">
        <ele>74.095964</ele>
        <time>2020-07-27T08:44:21.383Z</time>
      </trkpt>
      <trkpt lat="61.30194" lon="5.16341">
        <ele>74.342039</ele>
        <time>2020-07-27T08:44:24.378Z</time>
      </trkpt>
      <trkpt lat="61.30194" lon="5.16318">
        <ele>74.578599</ele>
        <time>2020-07-27T08:44:27.378Z</time>
      </trkpt>
      <trkpt lat="61.30193" lon="5.16297">
        <ele>74.793726</ele>
        <time>2020-07-27T08:44:30.355Z</time>
      </trkpt>
      <trkpt lat="61.30193" lon="5.16278">
        <ele>74.994899</ele>
        <time>2020-07-27T08:44:33.383Z</time>
      </trkpt>
      <trkpt lat="61.30192" lon="5.16257">
        <ele>75.208992</ele>
        <time>2020-07-27T08:44:36.417Z</time>
      </trkpt>
      <trkpt lat="61.30192" lon="5.16234">
        <ele>75.445552</ele>
        <time>2020-07-27T08:44:39.381Z</time>
      </trkpt>
      <trkpt lat="61.30191" lon="5.16212">
        <ele>75.674728</ele>
        <time>2020-07-27T08:44:42.364Z</time>
      </trkpt>
      <trkpt lat="61.3019" lon="5.16189">
        <ele>75.915883</ele>
        <time>2020-07-27T08:44:45.406Z</time>
      </trkpt>
      <trkpt lat="61.30189" lon="5.16166">
        <ele>76.157082</ele>
        <time>2020-07-27T08:44:48.397Z</time>
      </trkpt>
      <trkpt lat="61.30189" lon="5.16146">
        <ele>76.375798</ele>
        <time>2020-07-27T08:44:51.373Z</time>
      </trkpt>
      <trkpt lat="61.30188" lon="5.16124">
        <ele>76.608061</ele>
        <time>2020-07-27T08:44:54.381Z</time>
      </trkpt>
      <trkpt lat="61.30187" lon="5.16102">
        <ele>76.843441</ele>
        <time>2020-07-27T08:44:57.364Z</time>
      </trkpt>
      <trkpt lat="61.30186" lon="5.16082">
        <ele>77.056398</ele>
        <time>2020-07-27T08:45:00.384Z</time>
      </trkpt>
      <trkpt lat="61.30185" lon="5.16058">
        <ele>77.309099</ele>
        <time>2020-07-27T08:45:04.357Z</time>
      </trkpt>
      <trkpt lat="61.30185" lon="5.16036">
        <ele>77.539242</ele>
        <time>2020-07-27T08:45:08.386Z</time>
      </trkpt>
      <trkpt lat="61.30183" lon="5.16013">
        <ele>77.79158</ele>
        <time>2020-07-27T08:45:13.362Z</time>
      </trkpt>
      <trkpt lat="61.30181" lon="5.15992">
        <ele>78.012968</ele>
        <time>2020-07-27T08:45:17.382Z</time>
      </trkpt>
      <trkpt lat="61.30179" lon="5.15971">
        <ele>78.248142</ele>
        <time>2020-07-27T08:45:21.382Z</time>
      </trkpt>
      <trkpt lat="61.30175" lon="5.15952">
        <ele>78.462387</ele>
        <time>2020-07-27T08:45:25.421Z</time>
      </trkpt>
      <trkpt lat="61.30171" lon="5.15934">
        <ele>78.672701</ele>
        <time>2020-07-27T08:45:29.375Z</time>
      </trkpt>
      <trkpt lat="61.30164" lon="5.15915">
        <ele>78.927481</ele>
        <time>2020-07-27T08:45:33.399Z</time>
      </trkpt>
      <trkpt lat="61.30158" lon="5.15901">
        <ele>79.131879</ele>
        <time>2020-07-27T08:45:36.398Z</time>
      </trkpt>
      <trkpt lat="61.30148" lon="5.15883">
        <ele>79.412968</ele>
        <time>2020-07-27T08:45:39.364Z</time>
      </trkpt>
      <trkpt lat="61.30138" lon="5.15864">
        <ele>79.725166</ele>
        <time>2020-07-27T08:45:42.407Z</time>
      </trkpt>
      <trkpt lat="61.30129" lon="5.15849">
        <ele>79.679992</ele>
        <time>2020-07-27T08:45:44.364Z</time>
      </trkpt>
      <trkpt lat="61.3012" lon="5.15833">
        <ele>79.6011</ele>
        <time>2020-07-27T08:45:46.426Z</time>
      </trkpt>
      <trkpt lat="61.3011" lon="5.15819">
        <ele>79.518707</ele>
        <time>2020-07-27T08:45:48.375Z</time>
      </trkpt>
      <trkpt lat="61.30101" lon="5.15801">
        <ele>79.430148</ele>
        <time>2020-07-27T08:45:50.360Z</time>
      </trkpt>
      <trkpt lat="61.30089" lon="5.15782">
        <ele>79.327563</ele>
        <time>2020-07-27T08:45:52.399Z</time>
      </trkpt>
      <trkpt lat="61.30077" lon="5.15763">
        <ele>79.224362</ele>
        <time>2020-07-27T08:45:54.370Z</time>
      </trkpt>
      <trkpt lat="61.30067" lon="5.15744">
        <ele>79.128396</ele>
        <time>2020-07-27T08:45:56.366Z</time>
      </trkpt>
      <trkpt lat="61.30058" lon="5.15728">
        <ele>79.045873</ele>
        <time>2020-07-27T08:45:58.367Z</time>
      </trkpt>
      <trkpt lat="61.3005" lon="5.15715">
        <ele>78.976309</ele>
        <time>2020-07-27T08:46:00.375Z</time>
      </trkpt>
      <trkpt lat="61.30041" lon="5.15696">
        <ele>78.890022</ele>
        <time>2020-07-27T08:46:03.399Z</time>
      </trkpt>
      <trkpt lat="61.30033" lon="5.1568">
        <ele>78.813482</ele>
        <time>2020-07-27T08:46:06.379Z</time>
      </trkpt>
      <trkpt lat="61.30026" lon="5.15665">
        <ele>78.742248</ele>
        <time>2020-07-27T08:46:09.366Z</time>
      </trkpt>
      <trkpt lat="61.30017" lon="5.1565">
        <ele>78.667802</ele>
        <time>2020-07-27T08:46:12.378Z</time>
      </trkpt>
      <trkpt lat="61.30009" lon="5.15634">
        <ele>78.589755</ele>
        <time>2020-07-27T08:46:15.376Z</time>
      </trkpt>
      <trkpt lat="61.29999" lon="5.15615">
        <ele>78.485802</ele>
        <time>2020-07-27T08:46:18.401Z</time>
      </trkpt>
      <trkpt lat="61.29992" lon="5.15602">
        <ele>78.35276</ele>
        <time>2020-07-27T08:46:20.375Z</time>
      </trkpt>
      <trkpt lat="61.29984" lon="5.15588">
        <ele>78.213222</ele>
        <time>2020-07-27T08:46:22.357Z</time>
      </trkpt>
      <trkpt lat="61.29976" lon="5.15572">
        <ele>78.066474</ele>
        <time>2020-07-27T08:46:24.367Z</time>
      </trkpt>
      <trkpt lat="61.29969" lon="5.15557">
        <ele>77.924734</ele>
        <time>2020-07-27T08:46:26.386Z</time>
      </trkpt>
      <trkpt lat="61.29962" lon="5.15543">
        <ele>77.795326</ele>
        <time>2020-07-27T08:46:28.364Z</time>
      </trkpt>
      <trkpt lat="61.29951" lon="5.15527">
        <ele>77.615293</ele>
        <time>2020-07-27T08:46:31.378Z</time>
      </trkpt>
      <trkpt lat="61.29944" lon="5.15517">
        <ele>77.493192</ele>
        <time>2020-07-27T08:46:33.368Z</time>
      </trkpt>
      <trkpt lat="61.29934" lon="5.15501">
        <ele>77.321622</ele>
        <time>2020-07-27T08:46:36.369Z</time>
      </trkpt>
      <trkpt lat="61.29924" lon="5.15486">
        <ele>77.158987</ele>
        <time>2020-07-27T08:46:39.380Z</time>
      </trkpt>
      <trkpt lat="61.29913" lon="5.15472">
        <ele>76.985453</ele>
        <time>2020-07-27T08:46:42.406Z</time>
      </trkpt>
      <trkpt lat="61.29902" lon="5.15461">
        <ele>76.822272</ele>
        <time>2020-07-27T08:46:45.378Z</time>
      </trkpt>
      <trkpt lat="61.29892" lon="5.1545">
        <ele>76.66349</ele>
        <time>2020-07-27T08:46:48.377Z</time>
      </trkpt>
      <trkpt lat="61.2988" lon="5.1544">
        <ele>76.491103</ele>
        <time>2020-07-27T08:46:51.376Z</time>
      </trkpt>
      <trkpt lat="61.29869" lon="5.1543">
        <ele>76.325195</ele>
        <time>2020-07-27T08:46:54.403Z</time>
      </trkpt>
      <trkpt lat="61.29859" lon="5.15421">
        <ele>76.175833</ele>
        <time>2020-07-27T08:46:57.389Z</time>
      </trkpt>
      <trkpt lat="61.29847" lon="5.15412">
        <ele>76.080013</ele>
        <time>2020-07-27T08:47:00.366Z</time>
      </trkpt>
      <trkpt lat="61.29837" lon="5.15407">
        <ele>76.09344</ele>
        <time>2020-07-27T08:47:02.366Z</time>
      </trkpt>
      <trkpt lat="61.29827" lon="5.15404">
        <ele>76.106958</ele>
        <time>2020-07-27T08:47:04.384Z</time>
      </trkpt>
      <trkpt lat="61.29814" lon="5.154">
        <ele>76.125188</ele>
        <time>2020-07-27T08:47:07.383Z</time>
      </trkpt>
      <trkpt lat="61.29803" lon="5.15396">
        <ele>76.139732</ele>
        <time>2020-07-27T08:47:09.381Z</time>
      </trkpt>
      <trkpt lat="61.2979" lon="5.15393">
        <ele>76.157244</ele>
        <time>2020-07-27T08:47:11.400Z</time>
      </trkpt>
      <trkpt lat="61.29777" lon="5.15391">
        <ele>76.174579</ele>
        <time>2020-07-27T08:47:13.387Z</time>
      </trkpt>
      <trkpt lat="61.29764" lon="5.15389">
        <ele>76.192027</ele>
        <time>2020-07-27T08:47:15.379Z</time>
      </trkpt>
      <trkpt lat="61.29752" lon="5.15387">
        <ele>76.20814</ele>
        <time>2020-07-27T08:47:17.386Z</time>
      </trkpt>
      <trkpt lat="61.2974" lon="5.15384">
        <ele>76.224153</ele>
        <time>2020-07-27T08:47:19.395Z</time>
      </trkpt>
      <trkpt lat="61.29728" lon="5.15381">
        <ele>76.239885</ele>
        <time>2020-07-27T08:47:21.372Z</time>
      </trkpt>
      <trkpt lat="61.29718" lon="5.15375">
        <ele>76.254787</ele>
        <time>2020-07-27T08:47:23.391Z</time>
      </trkpt>
      <trkpt lat="61.29707" lon="5.15368">
        <ele>76.269628</ele>
        <time>2020-07-27T08:47:25.373Z</time>
      </trkpt>
      <trkpt lat="61.29698" lon="5.1536">
        <ele>76.282656</ele>
        <time>2020-07-27T08:47:27.388Z</time>
      </trkpt>
      <trkpt lat="61.29687" lon="5.15346">
        <ele>76.299817</ele>
        <time>2020-07-27T08:47:30.399Z</time>
      </trkpt>
      <trkpt lat="61.29679" lon="5.15332">
        <ele>76.314578</ele>
        <time>2020-07-27T08:47:33.382Z</time>
      </trkpt>
      <trkpt lat="61.2967" lon="5.15316">
        <ele>76.437009</ele>
        <time>2020-07-27T08:47:37.372Z</time>
      </trkpt>
      <trkpt lat="61.29662" lon="5.15299">
        <ele>76.561771</ele>
        <time>2020-07-27T08:47:41.428Z</time>
      </trkpt>
      <trkpt lat="61.29655" lon="5.15282">
        <ele>76.676629</ele>
        <time>2020-07-27T08:47:44.367Z</time>
      </trkpt>
      <trkpt lat="61.29648" lon="5.15268">
        <ele>76.777804</ele>
        <time>2020-07-27T08:47:47.357Z</time>
      </trkpt>
      <trkpt lat="61.2964" lon="5.15249">
        <ele>76.908117</ele>
        <time>2020-07-27T08:47:50.380Z</time>
      </trkpt>
      <trkpt lat="61.29632" lon="5.1523">
        <ele>77.034284</ele>
        <time>2020-07-27T08:47:53.374Z</time>
      </trkpt>
      <trkpt lat="61.29624" lon="5.15213">
        <ele>77.152</ele>
        <time>2020-07-27T08:47:56.382Z</time>
      </trkpt>
      <trkpt lat="61.29618" lon="5.15196">
        <ele>77.262158</ele>
        <time>2020-07-27T08:47:59.397Z</time>
      </trkpt>
      <trkpt lat="61.29612" lon="5.1518">
        <ele>77.365237</ele>
        <time>2020-07-27T08:48:02.373Z</time>
      </trkpt>
      <trkpt lat="61.29606" lon="5.15162">
        <ele>77.476847</ele>
        <time>2020-07-27T08:48:05.366Z</time>
      </trkpt>
      <trkpt lat="61.29597" lon="5.15144">
        <ele>77.605479</ele>
        <time>2020-07-27T08:48:08.401Z</time>
      </trkpt>
      <trkpt lat="61.29589" lon="5.15127">
        <ele>77.731198</ele>
        <time>2020-07-27T08:48:11.365Z</time>
      </trkpt>
      <trkpt lat="61.29581" lon="5.1511">
        <ele>77.849225</ele>
        <time>2020-07-27T08:48:14.369Z</time>
      </trkpt>
      <trkpt lat="61.29573" lon="5.15092">
        <ele>77.97247</ele>
        <time>2020-07-27T08:48:17.383Z</time>
      </trkpt>
      <trkpt lat="61.29564" lon="5.15074">
        <ele>78.104502</ele>
        <time>2020-07-27T08:48:20.374Z</time>
      </trkpt>
      <trkpt lat="61.29557" lon="5.15053">
        <ele>78.1289</ele>
        <time>2020-07-27T08:48:23.372Z</time>
      </trkpt>
      <trkpt lat="61.29549" lon="5.15031">
        <ele>77.562563</ele>
        <time>2020-07-27T08:48:26.380Z</time>
      </trkpt>
      <trkpt lat="61.29543" lon="5.15016">
        <ele>77.164341</ele>
        <time>2020-07-27T08:48:28.404Z</time>
      </trkpt>
      <trkpt lat="61.29536" lon="5.14998">
        <ele>76.675371</ele>
        <time>2020-07-27T08:48:31.362Z</time>
      </trkpt>
      <trkpt lat="61.29529" lon="5.14981">
        <ele>76.220467</ele>
        <time>2020-07-27T08:48:34.367Z</time>
      </trkpt>
      <trkpt lat="61.29521" lon="5.14962">
        <ele>75.705887</ele>
        <time>2020-07-27T08:48:37.369Z</time>
      </trkpt>
      <trkpt lat="61.29515" lon="5.14948">
        <ele>75.311124</ele>
        <time>2020-07-27T08:48:39.372Z</time>
      </trkpt>
      <trkpt lat="61.29508" lon="5.14932">
        <ele>74.861287</ele>
        <time>2020-07-27T08:48:41.366Z</time>
      </trkpt>
      <trkpt lat="61.29499" lon="5.14913">
        <ele>74.317629</ele>
        <time>2020-07-27T08:48:43.399Z</time>
      </trkpt>
      <trkpt lat="61.2949" lon="5.14891">
        <ele>73.705166</ele>
        <time>2020-07-27T08:48:45.370Z</time>
      </trkpt>
      <trkpt lat="61.29479" lon="5.14865">
        <ele>73.00437</ele>
        <time>2020-07-27T08:48:47.402Z</time>
      </trkpt>
      <trkpt lat="61.29473" lon="5.14851">
        <ele>72.616901</ele>
        <time>2020-07-27T08:48:48.402Z</time>
      </trkpt>
      <trkpt lat="61.29466" lon="5.14836">
        <ele>72.19663</ele>
        <time>2020-07-27T08:48:49.396Z</time>
      </trkpt>
      <trkpt lat="61.29459" lon="5.1482">
        <ele>71.757169</ele>
        <time>2020-07-27T08:48:50.389Z</time>
      </trkpt>
      <trkpt lat="61.29452" lon="5.14804">
        <ele>71.310234</ele>
        <time>2020-07-27T08:48:51.376Z</time>
      </trkpt>
      <trkpt lat="61.29446" lon="5.14788">
        <ele>70.864046</ele>
        <time>2020-07-27T08:48:52.429Z</time>
      </trkpt>
      <trkpt lat="61.29439" lon="5.1477">
        <ele>70.358197</ele>
        <time>2020-07-27T08:48:53.358Z</time>
      </trkpt>
      <trkpt lat="61.29432" lon="5.14751">
        <ele>69.607291</ele>
        <time>2020-07-27T08:48:54.368Z</time>
      </trkpt>
      <trkpt lat="61.29425" lon="5.14732">
        <ele>68.834612</ele>
        <time>2020-07-27T08:48:55.398Z</time>
      </trkpt>
      <trkpt lat="61.29418" lon="5.14711">
        <ele>68.047799</ele>
        <time>2020-07-27T08:48:56.373Z</time>
      </trkpt>
      <trkpt lat="61.29411" lon="5.1469">
        <ele>67.224654</ele>
        <time>2020-07-27T08:48:57.386Z</time>
      </trkpt>
      <trkpt lat="61.29404" lon="5.14667">
        <ele>66.367093</ele>
        <time>2020-07-27T08:48:58.376Z</time>
      </trkpt>
      <trkpt lat="61.29397" lon="5.14644">
        <ele>65.509531</ele>
        <time>2020-07-27T08:48:59.384Z</time>
      </trkpt>
      <trkpt lat="61.2939" lon="5.14621">
        <ele>64.636654</ele>
        <time>2020-07-27T08:49:00.367Z</time>
      </trkpt>
      <trkpt lat="61.29384" lon="5.14597">
        <ele>63.756316</ele>
        <time>2020-07-27T08:49:01.385Z</time>
      </trkpt>
      <trkpt lat="61.29377" lon="5.14573">
        <ele>62.888654</ele>
        <time>2020-07-27T08:49:02.390Z</time>
      </trkpt>
      <trkpt lat="61.29371" lon="5.14549">
        <ele>62.028131</ele>
        <time>2020-07-27T08:49:03.399Z</time>
      </trkpt>
      <trkpt lat="61.29365" lon="5.14525">
        <ele>61.168182</ele>
        <time>2020-07-27T08:49:04.381Z</time>
      </trkpt>
      <trkpt lat="61.2936" lon="5.14501">
        <ele>60.331125</ele>
        <time>2020-07-27T08:49:05.359Z</time>
      </trkpt>
      <trkpt lat="61.29354" lon="5.14479">
        <ele>59.542494</ele>
        <time>2020-07-27T08:49:06.375Z</time>
      </trkpt>
      <trkpt lat="61.29349" lon="5.14458">
        <ele>58.811171</ele>
        <time>2020-07-27T08:49:07.367Z</time>
      </trkpt>
      <trkpt lat="61.29345" lon="5.14439">
        <ele>58.359789</ele>
        <time>2020-07-27T08:49:08.373Z</time>
      </trkpt>
      <trkpt lat="61.2934" lon="5.14421">
        <ele>58.019469</ele>
        <time>2020-07-27T08:49:09.387Z</time>
      </trkpt>
      <trkpt lat="61.29335" lon="5.14404">
        <ele>57.695119</ele>
        <time>2020-07-27T08:49:10.377Z</time>
      </trkpt>
      <trkpt lat="61.29329" lon="5.14389">
        <ele>57.385248</ele>
        <time>2020-07-27T08:49:11.399Z</time>
      </trkpt>
      <trkpt lat="61.29318" lon="5.14363">
        <ele>56.809315</ele>
        <time>2020-07-27T08:49:13.383Z</time>
      </trkpt>
      <trkpt lat="61.29308" lon="5.14342">
        <ele>56.314239</ele>
        <time>2020-07-27T08:49:15.379Z</time>
      </trkpt>
      <trkpt lat="61.29298" lon="5.14325">
        <ele>55.873597</ele>
        <time>2020-07-27T08:49:17.383Z</time>
      </trkpt>
      <trkpt lat="61.29287" lon="5.14312">
        <ele>55.45117</ele>
        <time>2020-07-27T08:49:19.415Z</time>
      </trkpt>
      <trkpt lat="61.29275" lon="5.14299">
        <ele>54.986758</ele>
        <time>2020-07-27T08:49:21.409Z</time>
      </trkpt>
      <trkpt lat="61.29262" lon="5.14285">
        <ele>54.475293</ele>
        <time>2020-07-27T08:49:23.368Z</time>
      </trkpt>
      <trkpt lat="61.29248" lon="5.14271">
        <ele>53.945873</ele>
        <time>2020-07-27T08:49:25.394Z</time>
      </trkpt>
      <trkpt lat="61.29233" lon="5.14255">
        <ele>53.362934</ele>
        <time>2020-07-27T08:49:27.384Z</time>
      </trkpt>
      <trkpt lat="61.29217" lon="5.14237">
        <ele>52.743335</ele>
        <time>2020-07-27T08:49:29.411Z</time>
      </trkpt>
      <trkpt lat="61.29209" lon="5.14228">
        <ele>52.436606</ele>
        <time>2020-07-27T08:49:30.382Z</time>
      </trkpt>
      <trkpt lat="61.292" lon="5.14218">
        <ele>52.28785</ele>
        <time>2020-07-27T08:49:31.382Z</time>
      </trkpt>
      <trkpt lat="61.29192" lon="5.14209">
        <ele>52.143487</ele>
        <time>2020-07-27T08:49:32.376Z</time>
      </trkpt>
      <trkpt lat="61.29184" lon="5.14199">
        <ele>51.99738</ele>
        <time>2020-07-27T08:49:33.384Z</time>
      </trkpt>
      <trkpt lat="61.2917" lon="5.14179">
        <ele>51.723708</ele>
        <time>2020-07-27T08:49:35.380Z</time>
      </trkpt>
      <trkpt lat="61.29157" lon="5.14157">
        <ele>51.460032</ele>
        <time>2020-07-27T08:49:37.374Z</time>
      </trkpt>
      <trkpt lat="61.29146" lon="5.14133">
        <ele>51.210744</ele>
        <time>2020-07-27T08:49:39.387Z</time>
      </trkpt>
      <trkpt lat="61.29137" lon="5.14109">
        <ele>50.974614</ele>
        <time>2020-07-27T08:49:41.379Z</time>
      </trkpt>
      <trkpt lat="61.29129" lon="5.14085">
        <ele>50.753192</ele>
        <time>2020-07-27T08:49:43.378Z</time>
      </trkpt>
      <trkpt lat="61.29123" lon="5.14061">
        <ele>50.551439</ele>
        <time>2020-07-27T08:49:45.375Z</time>
      </trkpt>
      <trkpt lat="61.29118" lon="5.14038">
        <ele>50.359311</ele>
        <time>2020-07-27T08:49:47.383Z</time>
      </trkpt>
      <trkpt lat="61.29114" lon="5.14015">
        <ele>50.168517</ele>
        <time>2020-07-27T08:49:49.389Z</time>
      </trkpt>
      <trkpt lat="61.29111" lon="5.13992">
        <ele>49.992644</ele>
        <time>2020-07-27T08:49:51.378Z</time>
      </trkpt>
      <trkpt lat="61.29108" lon="5.13972">
        <ele>49.83557</ele>
        <time>2020-07-27T08:49:53.366Z</time>
      </trkpt>
      <trkpt lat="61.29107" lon="5.13948">
        <ele>49.651341</ele>
        <time>2020-07-27T08:49:56.360Z</time>
      </trkpt>
      <trkpt lat="61.29105" lon="5.13925">
        <ele>50.319632</ele>
        <time>2020-07-27T08:50:00.381Z</time>
      </trkpt>
      <trkpt lat="61.29103" lon="5.13907">
        <ele>51.100862</ele>
        <time>2020-07-27T08:50:04.372Z</time>
      </trkpt>
      <trkpt lat="61.291" lon="5.13888">
        <ele>51.842652</ele>
        <time>2020-07-27T08:50:09.391Z</time>
      </trkpt>
      <trkpt lat="61.29098" lon="5.13868">
        <ele>52.667154</ele>
        <time>2020-07-27T08:50:15.375Z</time>
      </trkpt>
      <trkpt lat="61.29096" lon="5.13849">
        <ele>53.456264</ele>
        <time>2020-07-27T08:50:21.402Z</time>
      </trkpt>
      <trkpt lat="61.29095" lon="5.13827">
        <ele>54.297157</ele>
        <time>2020-07-27T08:50:28.374Z</time>
      </trkpt>
      <trkpt lat="61.29095" lon="5.13806">
        <ele>55.155491</ele>
        <time>2020-07-27T08:50:35.381Z</time>
      </trkpt>
      <trkpt lat="61.29093" lon="5.13786">
        <ele>55.954899</ele>
        <time>2020-07-27T08:50:42.381Z</time>
      </trkpt>
      <trkpt lat="61.2909" lon="5.13768">
        <ele>56.71251</ele>
        <time>2020-07-27T08:50:49.378Z</time>
      </trkpt>
      <trkpt lat="61.29089" lon="5.13746">
        <ele>57.56544</ele>
        <time>2020-07-27T08:50:56.383Z</time>
      </trkpt>
      <trkpt lat="61.29088" lon="5.13727">
        <ele>58.315804</ele>
        <time>2020-07-27T08:51:02.383Z</time>
      </trkpt>
      <trkpt lat="61.29086" lon="5.13709">
        <ele>59.070904</ele>
        <time>2020-07-27T08:51:09.367Z</time>
      </trkpt>
      <trkpt lat="61.2908" lon="5.13692">
        <ele>59.891656</ele>
        <time>2020-07-27T08:51:16.378Z</time>
      </trkpt>
      <trkpt lat="61.29074" lon="5.13675">
        <ele>60.712998</ele>
        <time>2020-07-27T08:51:21.368Z</time>
      </trkpt>
      <trkpt lat="61.29069" lon="5.13659">
        <ele>61.461458</ele>
        <time>2020-07-27T08:51:25.399Z</time>
      </trkpt>
      <trkpt lat="61.29063" lon="5.13643">
        <ele>62.305427</ele>
        <time>2020-07-27T08:51:29.379Z</time>
      </trkpt>
      <trkpt lat="61.29055" lon="5.13627">
        <ele>63.226407</ele>
        <time>2020-07-27T08:51:33.407Z</time>
      </trkpt>
      <trkpt lat="61.29046" lon="5.13614">
        <ele>64.123345</ele>
        <time>2020-07-27T08:51:36.399Z</time>
      </trkpt>
      <trkpt lat="61.29038" lon="5.13603">
        <ele>64.26386</ele>
        <time>2020-07-27T08:51:38.395Z</time>
      </trkpt>
      <trkpt lat="61.29029" lon="5.13592">
        <ele>63.891853</ele>
        <time>2020-07-27T08:51:40.383Z</time>
      </trkpt>
      <trkpt lat="61.29017" lon="5.13582">
        <ele>63.460237</ele>
        <time>2020-07-27T08:51:42.366Z</time>
      </trkpt>
      <trkpt lat="61.29005" lon="5.1357">
        <ele>62.981305</ele>
        <time>2020-07-27T08:51:44.371Z</time>
      </trkpt>
      <trkpt lat="61.28991" lon="5.13554">
        <ele>62.438608</ele>
        <time>2020-07-27T08:51:46.383Z</time>
      </trkpt>
      <trkpt lat="61.28976" lon="5.13537">
        <ele>61.849486</ele>
        <time>2020-07-27T08:51:48.367Z</time>
      </trkpt>
      <trkpt lat="61.28963" lon="5.13515">
        <ele>61.276568</ele>
        <time>2020-07-27T08:51:50.405Z</time>
      </trkpt>
      <trkpt lat="61.28952" lon="5.1349">
        <ele>60.719403</ele>
        <time>2020-07-27T08:51:52.416Z</time>
      </trkpt>
      <trkpt lat="61.28942" lon="5.13463">
        <ele>60.146763</ele>
        <time>2020-07-27T08:51:54.384Z</time>
      </trkpt>
      <trkpt lat="61.28933" lon="5.13431">
        <ele>59.544826</ele>
        <time>2020-07-27T08:51:56.373Z</time>
      </trkpt>
      <trkpt lat="61.2893" lon="5.13414">
        <ele>59.232454</ele>
        <time>2020-07-27T08:51:57.365Z</time>
      </trkpt>
      <trkpt lat="61.28928" lon="5.13395">
        <ele>58.918782</ele>
        <time>2020-07-27T08:51:58.423Z</time>
      </trkpt>
      <trkpt lat="61.28927" lon="5.13376">
        <ele>58.601472</ele>
        <time>2020-07-27T08:51:59.366Z</time>
      </trkpt>
      <trkpt lat="61.28927" lon="5.13357">
        <ele>58.279734</ele>
        <time>2020-07-27T08:52:00.373Z</time>
      </trkpt>
      <trkpt lat="61.28928" lon="5.13338">
        <ele>58.093366</ele>
        <time>2020-07-27T08:52:01.383Z</time>
      </trkpt>
      <trkpt lat="61.2893" lon="5.13319">
        <ele>57.925894</ele>
        <time>2020-07-27T08:52:02.398Z</time>
      </trkpt>
      <trkpt lat="61.28936" lon="5.13285">
        <ele>57.601871</ele>
        <time>2020-07-27T08:52:04.401Z</time>
      </trkpt>
      <trkpt lat="61.28945" lon="5.13254">
        <ele>57.286009</ele>
        <time>2020-07-27T08:52:06.379Z</time>
      </trkpt>
      <trkpt lat="61.28953" lon="5.13225">
        <ele>56.990769</ele>
        <time>2020-07-27T08:52:08.376Z</time>
      </trkpt>
      <trkpt lat="61.2896" lon="5.13199">
        <ele>56.73293</ele>
        <time>2020-07-27T08:52:10.358Z</time>
      </trkpt>
      <trkpt lat="61.28965" lon="5.13178">
        <ele>56.518898</ele>
        <time>2020-07-27T08:52:12.373Z</time>
      </trkpt>
      <trkpt lat="61.2897" lon="5.1316">
        <ele>56.338297</ele>
        <time>2020-07-27T08:52:14.410Z</time>
      </trkpt>
      <trkpt lat="61.28974" lon="5.13142">
        <ele>56.160417</ele>
        <time>2020-07-27T08:52:16.376Z</time>
      </trkpt>
      <trkpt lat="61.28979" lon="5.13124">
        <ele>55.985625</ele>
        <time>2020-07-27T08:52:18.362Z</time>
      </trkpt>
      <trkpt lat="61.28984" lon="5.13108">
        <ele>55.815726</ele>
        <time>2020-07-27T08:52:20.377Z</time>
      </trkpt>
      <trkpt lat="61.28988" lon="5.13091">
        <ele>55.647369</ele>
        <time>2020-07-27T08:52:22.377Z</time>
      </trkpt>
      <trkpt lat="61.28992" lon="5.13072">
        <ele>55.466869</ele>
        <time>2020-07-27T08:52:24.353Z</time>
      </trkpt>
      <trkpt lat="61.28996" lon="5.13054">
        <ele>55.293701</ele>
        <time>2020-07-27T08:52:26.385Z</time>
      </trkpt>
      <trkpt lat="61.29001" lon="5.13031">
        <ele>55.062616</ele>
        <time>2020-07-27T08:52:29.405Z</time>
      </trkpt>
      <trkpt lat="61.29007" lon="5.1301">
        <ele>54.975779</ele>
        <time>2020-07-27T08:52:32.366Z</time>
      </trkpt>
      <trkpt lat="61.29011" lon="5.12993">
        <ele>55.039053</ele>
        <time>2020-07-27T08:52:35.373Z</time>
      </trkpt>
      <trkpt lat="61.29015" lon="5.12973">
        <ele>55.111763</ele>
        <time>2020-07-27T08:52:38.360Z</time>
      </trkpt>
      <trkpt lat="61.2902" lon="5.1295">
        <ele>55.196718</ele>
        <time>2020-07-27T08:52:41.398Z</time>
      </trkpt>
      <trkpt lat="61.29024" lon="5.12928">
        <ele>55.275332</ele>
        <time>2020-07-27T08:52:44.385Z</time>
      </trkpt>
      <trkpt lat="61.29029" lon="5.12905">
        <ele>55.358902</ele>
        <time>2020-07-27T08:52:47.383Z</time>
      </trkpt>
      <trkpt lat="61.29035" lon="5.12881">
        <ele>55.447793</ele>
        <time>2020-07-27T08:52:50.381Z</time>
      </trkpt>
      <trkpt lat="61.29039" lon="5.12864">
        <ele>55.511411</ele>
        <time>2020-07-27T08:52:52.410Z</time>
      </trkpt>
      <trkpt lat="61.29044" lon="5.12846">
        <ele>55.580467</ele>
        <time>2020-07-27T08:52:54.369Z</time>
      </trkpt>
      <trkpt lat="61.29049" lon="5.12827">
        <ele>55.652913</ele>
        <time>2020-07-27T08:52:56.383Z</time>
      </trkpt>
      <trkpt lat="61.29054" lon="5.12809">
        <ele>55.72397</ele>
        <time>2020-07-27T08:52:58.371Z</time>
      </trkpt>
      <trkpt lat="61.29058" lon="5.12791">
        <ele>55.792972</ele>
        <time>2020-07-27T08:53:00.375Z</time>
      </trkpt>
      <trkpt lat="61.29063" lon="5.12773">
        <ele>55.858427</ele>
        <time>2020-07-27T08:53:02.366Z</time>
      </trkpt>
      <trkpt lat="61.29068" lon="5.12757">
        <ele>55.92411</ele>
        <time>2020-07-27T08:53:04.384Z</time>
      </trkpt>
      <trkpt lat="61.29074" lon="5.12732">
        <ele>56.016312</ele>
        <time>2020-07-27T08:53:07.375Z</time>
      </trkpt>
      <trkpt lat="61.29079" lon="5.1271">
        <ele>56.101321</ele>
        <time>2020-07-27T08:53:10.372Z</time>
      </trkpt>
      <trkpt lat="61.29085" lon="5.12689">
        <ele>56.180042</ele>
        <time>2020-07-27T08:53:13.358Z</time>
      </trkpt>
      <trkpt lat="61.29089" lon="5.12671">
        <ele>56.56071</ele>
        <time>2020-07-27T08:53:16.384Z</time>
      </trkpt>
      <trkpt lat="61.29095" lon="5.1265">
        <ele>57.125602</ele>
        <time>2020-07-27T08:53:20.388Z</time>
      </trkpt>
      <trkpt lat="61.29101" lon="5.12629">
        <ele>57.665227</ele>
        <time>2020-07-27T08:53:24.396Z</time>
      </trkpt>
      <trkpt lat="61.29106" lon="5.12609">
        <ele>58.192511</ele>
        <time>2020-07-27T08:53:28.380Z</time>
      </trkpt>
      <trkpt lat="61.29114" lon="5.12569">
        <ele>59.169071</ele>
        <time>2020-07-27T08:56:51.385Z</time>
      </trkpt>
      <trkpt lat="61.29118" lon="5.12551">
        <ele>59.648502</ele>
        <time>2020-07-27T08:56:55.371Z</time>
      </trkpt>
      <trkpt lat="61.29123" lon="5.12534">
        <ele>60.089925</ele>
        <time>2020-07-27T08:56:59.377Z</time>
      </trkpt>
      <trkpt lat="61.29129" lon="5.12516">
        <ele>60.581208</ele>
        <time>2020-07-27T08:57:03.375Z</time>
      </trkpt>
      <trkpt lat="61.29134" lon="5.12495">
        <ele>61.128898</ele>
        <time>2020-07-27T08:57:07.358Z</time>
      </trkpt>
      <trkpt lat="61.29139" lon="5.12477">
        <ele>61.595973</ele>
        <time>2020-07-27T08:57:10.388Z</time>
      </trkpt>
      <trkpt lat="61.29143" lon="5.12458">
        <ele>62.072992</ele>
        <time>2020-07-27T08:57:13.385Z</time>
      </trkpt>
      <trkpt lat="61.29147" lon="5.1244">
        <ele>62.531491</ele>
        <time>2020-07-27T08:57:16.391Z</time>
      </trkpt>
      <trkpt lat="61.29152" lon="5.12418">
        <ele>63.08325</ele>
        <time>2020-07-27T08:57:20.388Z</time>
      </trkpt>
      <trkpt lat="61.29155" lon="5.124">
        <ele>63.538385</ele>
        <time>2020-07-27T08:57:24.374Z</time>
      </trkpt>
      <trkpt lat="61.29159" lon="5.12378">
        <ele>64.07726</ele>
        <time>2020-07-27T08:57:29.426Z</time>
      </trkpt>
      <trkpt lat="61.29163" lon="5.12359">
        <ele>64.544801</ele>
        <time>2020-07-27T08:57:33.395Z</time>
      </trkpt>
      <trkpt lat="61.29168" lon="5.12339">
        <ele>65.069183</ele>
        <time>2020-07-27T08:57:37.367Z</time>
      </trkpt>
      <trkpt lat="61.29174" lon="5.12321">
        <ele>65.576465</ele>
        <time>2020-07-27T08:57:41.377Z</time>
      </trkpt>
      <trkpt lat="61.29178" lon="5.12304">
        <ele>66.048995</ele>
        <time>2020-07-27T08:57:45.389Z</time>
      </trkpt>
      <trkpt lat="61.29183" lon="5.12284">
        <ele>66.564688</ele>
        <time>2020-07-27T08:57:49.376Z</time>
      </trkpt>
      <trkpt lat="61.29188" lon="5.12264">
        <ele>67.121811</ele>
        <time>2020-07-27T08:57:53.403Z</time>
      </trkpt>
      <trkpt lat="61.29192" lon="5.12247">
        <ele>67.568681</ele>
        <time>2020-07-27T08:57:56.387Z</time>
      </trkpt>
      <trkpt lat="61.29197" lon="5.12227">
        <ele>68.121593</ele>
        <time>2020-07-27T08:58:00.377Z</time>
      </trkpt>
      <trkpt lat="61.29203" lon="5.12207">
        <ele>68.673515</ele>
        <time>2020-07-27T08:58:04.383Z</time>
      </trkpt>
      <trkpt lat="61.29208" lon="5.12187">
        <ele>69.222225</ele>
        <time>2020-07-27T08:58:08.379Z</time>
      </trkpt>
      <trkpt lat="61.29213" lon="5.12167">
        <ele>69.762245</ele>
        <time>2020-07-27T08:58:12.380Z</time>
      </trkpt>
      <trkpt lat="61.29219" lon="5.12147">
        <ele>70.332631</ele>
        <time>2020-07-27T08:58:16.380Z</time>
      </trkpt>
      <trkpt lat="61.29225" lon="5.12128">
        <ele>70.86186</ele>
        <time>2020-07-27T08:58:20.377Z</time>
      </trkpt>
      <trkpt lat="61.29229" lon="5.1211">
        <ele>71.339245</ele>
        <time>2020-07-27T08:58:24.373Z</time>
      </trkpt>
      <trkpt lat="61.29234" lon="5.12091">
        <ele>71.848545</ele>
        <time>2020-07-27T08:58:28.380Z</time>
      </trkpt>
      <trkpt lat="61.29238" lon="5.12072">
        <ele>72.346994</ele>
        <time>2020-07-27T08:58:32.384Z</time>
      </trkpt>
      <trkpt lat="61.29242" lon="5.12055">
        <ele>72.819898</ele>
        <time>2020-07-27T08:58:36.365Z</time>
      </trkpt>
      <trkpt lat="61.29247" lon="5.12036">
        <ele>73.320959</ele>
        <time>2020-07-27T08:58:40.359Z</time>
      </trkpt>
      <trkpt lat="61.29252" lon="5.12018">
        <ele>73.802382</ele>
        <time>2020-07-27T08:58:44.365Z</time>
      </trkpt>
      <trkpt lat="61.29258" lon="5.11999">
        <ele>74.195762</ele>
        <time>2020-07-27T08:58:48.414Z</time>
      </trkpt>
      <trkpt lat="61.29264" lon="5.1198">
        <ele>74.608237</ele>
        <time>2020-07-27T08:58:52.396Z</time>
      </trkpt>
      <trkpt lat="61.29268" lon="5.11962">
        <ele>74.951667</ele>
        <time>2020-07-27T08:58:56.372Z</time>
      </trkpt>
      <trkpt lat="61.29272" lon="5.11943">
        <ele>75.318196</ele>
        <time>2020-07-27T08:59:01.376Z</time>
      </trkpt>
      <trkpt lat="61.29277" lon="5.11924">
        <ele>75.70895</ele>
        <time>2020-07-27T08:59:07.380Z</time>
      </trkpt>
      <trkpt lat="61.29282" lon="5.11905">
        <ele>76.09326</ele>
        <time>2020-07-27T08:59:13.372Z</time>
      </trkpt>
      <trkpt lat="61.29285" lon="5.11887">
        <ele>76.430966</ele>
        <time>2020-07-27T08:59:19.377Z</time>
      </trkpt>
      <trkpt lat="61.29289" lon="5.11868">
        <ele>76.807303</ele>
        <time>2020-07-27T08:59:26.368Z</time>
      </trkpt>
      <trkpt lat="61.29294" lon="5.11851">
        <ele>77.145725</ele>
        <time>2020-07-27T08:59:32.390Z</time>
      </trkpt>
      <trkpt lat="61.29298" lon="5.11832">
        <ele>77.520228</ele>
        <time>2020-07-27T08:59:39.368Z</time>
      </trkpt>
      <trkpt lat="61.29302" lon="5.11815">
        <ele>77.853226</ele>
        <time>2020-07-27T08:59:45.374Z</time>
      </trkpt>
      <trkpt lat="61.29307" lon="5.11796">
        <ele>78.240187</ele>
        <time>2020-07-27T08:59:52.379Z</time>
      </trkpt>
      <trkpt lat="61.2931" lon="5.11777">
        <ele>78.595474</ele>
        <time>2020-07-27T08:59:59.389Z</time>
      </trkpt>
      <trkpt lat="61.29315" lon="5.11758">
        <ele>78.979782</ele>
        <time>2020-07-27T09:00:07.386Z</time>
      </trkpt>
      <trkpt lat="61.29321" lon="5.11741">
        <ele>79.344811</ele>
        <time>2020-07-27T09:00:13.371Z</time>
      </trkpt>
      <trkpt lat="61.29325" lon="5.11722">
        <ele>79.716464</ele>
        <time>2020-07-27T09:00:19.385Z</time>
      </trkpt>
      <trkpt lat="61.2933" lon="5.11704">
        <ele>80.094563</ele>
        <time>2020-07-27T09:00:26.396Z</time>
      </trkpt>
      <trkpt lat="61.29335" lon="5.11687">
        <ele>80.365988</ele>
        <time>2020-07-27T09:00:31.376Z</time>
      </trkpt>
      <trkpt lat="61.2934" lon="5.11669">
        <ele>80.306564</ele>
        <time>2020-07-27T09:00:36.401Z</time>
      </trkpt>
      <trkpt lat="61.29346" lon="5.11652">
        <ele>80.247513</ele>
        <time>2020-07-27T09:00:41.386Z</time>
      </trkpt>
      <trkpt lat="61.29351" lon="5.11633">
        <ele>80.187694</ele>
        <time>2020-07-27T09:00:46.369Z</time>
      </trkpt>
      <trkpt lat="61.29356" lon="5.11613">
        <ele>80.127715</ele>
        <time>2020-07-27T09:00:50.388Z</time>
      </trkpt>
      <trkpt lat="61.2936" lon="5.11596">
        <ele>80.073224</ele>
        <time>2020-07-27T09:00:53.395Z</time>
      </trkpt>
      <trkpt lat="61.29365" lon="5.11574">
        <ele>80.006246</ele>
        <time>2020-07-27T09:00:56.375Z</time>
      </trkpt>
      <trkpt lat="61.29371" lon="5.11549">
        <ele>79.928775</ele>
        <time>2020-07-27T09:00:59.373Z</time>
      </trkpt>
      <trkpt lat="61.29375" lon="5.11532">
        <ele>79.876286</ele>
        <time>2020-07-27T09:01:01.367Z</time>
      </trkpt>
      <trkpt lat="61.29379" lon="5.11514">
        <ele>79.820808</ele>
        <time>2020-07-27T09:01:03.393Z</time>
      </trkpt>
      <trkpt lat="61.29383" lon="5.11495">
        <ele>79.764081</ele>
        <time>2020-07-27T09:01:05.417Z</time>
      </trkpt>
      <trkpt lat="61.29387" lon="5.11475">
        <ele>79.703764</ele>
        <time>2020-07-27T09:01:07.383Z</time>
      </trkpt>
      <trkpt lat="61.29391" lon="5.11457">
        <ele>79.64752</ele>
        <time>2020-07-27T09:01:09.397Z</time>
      </trkpt>
      <trkpt lat="61.29395" lon="5.11437">
        <ele>79.588249</ele>
        <time>2020-07-27T09:01:11.416Z</time>
      </trkpt>
      <trkpt lat="61.29398" lon="5.11414">
        <ele>79.524258</ele>
        <time>2020-07-27T09:01:13.365Z</time>
      </trkpt>
      <trkpt lat="61.29401" lon="5.11391">
        <ele>79.456187</ele>
        <time>2020-07-27T09:01:15.434Z</time>
      </trkpt>
      <trkpt lat="61.29403" lon="5.11366">
        <ele>79.386053</ele>
        <time>2020-07-27T09:01:17.406Z</time>
      </trkpt>
      <trkpt lat="61.29405" lon="5.11339">
        <ele>79.25673</ele>
        <time>2020-07-27T09:01:19.365Z</time>
      </trkpt>
      <trkpt lat="61.29407" lon="5.11311">
        <ele>79.015963</ele>
        <time>2020-07-27T09:01:21.393Z</time>
      </trkpt>
      <trkpt lat="61.29408" lon="5.1128">
        <ele>78.753351</ele>
        <time>2020-07-27T09:01:23.377Z</time>
      </trkpt>
      <trkpt lat="61.29409" lon="5.11249">
        <ele>78.494185</ele>
        <time>2020-07-27T09:01:25.370Z</time>
      </trkpt>
      <trkpt lat="61.29409" lon="5.1122">
        <ele>78.246968</ele>
        <time>2020-07-27T09:01:27.395Z</time>
      </trkpt>
      <trkpt lat="61.29409" lon="5.11192">
        <ele>78.012443</ele>
        <time>2020-07-27T09:01:29.369Z</time>
      </trkpt>
      <trkpt lat="61.29407" lon="5.11167">
        <ele>77.79998</ele>
        <time>2020-07-27T09:01:31.367Z</time>
      </trkpt>
      <trkpt lat="61.29406" lon="5.11145">
        <ele>77.60766</ele>
        <time>2020-07-27T09:01:33.368Z</time>
      </trkpt>
      <trkpt lat="61.29403" lon="5.11124">
        <ele>77.42486</ele>
        <time>2020-07-27T09:01:35.382Z</time>
      </trkpt>
      <trkpt lat="61.29401" lon="5.11104">
        <ele>77.252393</ele>
        <time>2020-07-27T09:01:37.376Z</time>
      </trkpt>
      <trkpt lat="61.29399" lon="5.11085">
        <ele>77.088054</ele>
        <time>2020-07-27T09:01:39.434Z</time>
      </trkpt>
      <trkpt lat="61.29395" lon="5.11059">
        <ele>76.856033</ele>
        <time>2020-07-27T09:01:42.370Z</time>
      </trkpt>
      <trkpt lat="61.29392" lon="5.11041">
        <ele>76.692323</ele>
        <time>2020-07-27T09:01:44.400Z</time>
      </trkpt>
      <trkpt lat="61.29389" lon="5.1102">
        <ele>76.508471</ele>
        <time>2020-07-27T09:01:46.380Z</time>
      </trkpt>
      <trkpt lat="61.29385" lon="5.10996">
        <ele>76.297737</ele>
        <time>2020-07-27T09:01:48.377Z</time>
      </trkpt>
      <trkpt lat="61.2938" lon="5.10969">
        <ele>75.970071</ele>
        <time>2020-07-27T09:01:50.384Z</time>
      </trkpt>
      <trkpt lat="61.29373" lon="5.10939">
        <ele>75.510818</ele>
        <time>2020-07-27T09:01:52.379Z</time>
      </trkpt>
      <trkpt lat="61.29366" lon="5.10906">
        <ele>75.007874</ele>
        <time>2020-07-27T09:01:54.382Z</time>
      </trkpt>
      <trkpt lat="61.29362" lon="5.10889">
        <ele>74.743244</ele>
        <time>2020-07-27T09:01:55.378Z</time>
      </trkpt>
      <trkpt lat="61.29358" lon="5.10872">
        <ele>74.480601</ele>
        <time>2020-07-27T09:01:56.375Z</time>
      </trkpt>
      <trkpt lat="61.29355" lon="5.10854">
        <ele>74.220324</ele>
        <time>2020-07-27T09:01:57.376Z</time>
      </trkpt>
      <trkpt lat="61.29348" lon="5.1082">
        <ele>73.707055</ele>
        <time>2020-07-27T09:01:59.366Z</time>
      </trkpt>
      <trkpt lat="61.29341" lon="5.10788">
        <ele>73.205387</ele>
        <time>2020-07-27T09:02:01.419Z</time>
      </trkpt>
      <trkpt lat="61.29334" lon="5.10756">
        <ele>72.723698</ele>
        <time>2020-07-27T09:02:03.374Z</time>
      </trkpt>
      <trkpt lat="61.29327" lon="5.10726">
        <ele>72.260901</ele>
        <time>2020-07-27T09:02:05.387Z</time>
      </trkpt>
      <trkpt lat="61.2932" lon="5.10699">
        <ele>71.835717</ele>
        <time>2020-07-27T09:02:07.382Z</time>
      </trkpt>
      <trkpt lat="61.29315" lon="5.10676">
        <ele>71.476611</ele>
        <time>2020-07-27T09:02:09.359Z</time>
      </trkpt>
      <trkpt lat="61.2931" lon="5.10657">
        <ele>71.180447</ele>
        <time>2020-07-27T09:02:11.397Z</time>
      </trkpt>
      <trkpt lat="61.29308" lon="5.10638">
        <ele>70.976823</ele>
        <time>2020-07-27T09:02:13.407Z</time>
      </trkpt>
      <trkpt lat="61.29303" lon="5.10616">
        <ele>71.130641</ele>
        <time>2020-07-27T09:02:16.377Z</time>
      </trkpt>
      <trkpt lat="61.29301" lon="5.10598">
        <ele>71.258109</ele>
        <time>2020-07-27T09:02:19.374Z</time>
      </trkpt>
      <trkpt lat="61.29299" lon="5.10577">
        <ele>71.3922</ele>
        <time>2020-07-27T09:02:22.371Z</time>
      </trkpt>
      <trkpt lat="61.29299" lon="5.10556">
        <ele>71.534299</ele>
        <time>2020-07-27T09:02:25.398Z</time>
      </trkpt>
      <trkpt lat="61.29301" lon="5.10529">
        <ele>71.710237</ele>
        <time>2020-07-27T09:02:28.367Z</time>
      </trkpt>
      <trkpt lat="61.29304" lon="5.1051">
        <ele>71.838325</ele>
        <time>2020-07-27T09:02:30.422Z</time>
      </trkpt>
      <trkpt lat="61.29309" lon="5.10492">
        <ele>71.97524</ele>
        <time>2020-07-27T09:02:32.367Z</time>
      </trkpt>
      <trkpt lat="61.29318" lon="5.10475">
        <ele>72.137525</ele>
        <time>2020-07-27T09:02:34.413Z</time>
      </trkpt>
      <trkpt lat="61.29328" lon="5.10462">
        <ele>72.299821</ele>
        <time>2020-07-27T09:02:36.381Z</time>
      </trkpt>
      <trkpt lat="61.29338" lon="5.10452">
        <ele>72.448303</ele>
        <time>2020-07-27T09:02:38.411Z</time>
      </trkpt>
      <trkpt lat="61.29348" lon="5.10444">
        <ele>72.59795</ele>
        <time>2020-07-27T09:02:40.365Z</time>
      </trkpt>
      <trkpt lat="61.29358" lon="5.10437">
        <ele>72.737096</ele>
        <time>2020-07-27T09:02:42.381Z</time>
      </trkpt>
      <trkpt lat="61.29366" lon="5.10429">
        <ele>72.863881</ele>
        <time>2020-07-27T09:02:44.369Z</time>
      </trkpt>
      <trkpt lat="61.29376" lon="5.10417">
        <ele>73.019866</ele>
        <time>2020-07-27T09:02:47.363Z</time>
      </trkpt>
      <trkpt lat="61.29384" lon="5.10404">
        <ele>73.147747</ele>
        <time>2020-07-27T09:02:50.356Z</time>
      </trkpt>
      <trkpt lat="61.2939" lon="5.10385">
        <ele>73.298235</ele>
        <time>2020-07-27T09:02:54.392Z</time>
      </trkpt>
      <trkpt lat="61.29393" lon="5.10364">
        <ele>73.384132</ele>
        <time>2020-07-27T09:02:58.378Z</time>
      </trkpt>
      <trkpt lat="61.29395" lon="5.10342">
        <ele>73.343079</ele>
        <time>2020-07-27T09:03:02.376Z</time>
      </trkpt>
      <trkpt lat="61.29396" lon="5.10319">
        <ele>73.301213</ele>
        <time>2020-07-27T09:03:06.379Z</time>
      </trkpt>
      <trkpt lat="61.29395" lon="5.10295">
        <ele>73.255804</ele>
        <time>2020-07-27T09:03:10.368Z</time>
      </trkpt>
      <trkpt lat="61.29394" lon="5.10274">
        <ele>73.218366</ele>
        <time>2020-07-27T09:03:13.406Z</time>
      </trkpt>
      <trkpt lat="61.29393" lon="5.10251">
        <ele>73.176359</ele>
        <time>2020-07-27T09:03:16.381Z</time>
      </trkpt>
      <trkpt lat="61.29391" lon="5.10227">
        <ele>73.13045</ele>
        <time>2020-07-27T09:03:19.400Z</time>
      </trkpt>
      <trkpt lat="61.29389" lon="5.10208">
        <ele>73.096335</ele>
        <time>2020-07-27T09:03:21.383Z</time>
      </trkpt>
      <trkpt lat="61.29388" lon="5.10188">
        <ele>73.059101</ele>
        <time>2020-07-27T09:03:23.362Z</time>
      </trkpt>
      <trkpt lat="61.29386" lon="5.10165">
        <ele>73.016564</ele>
        <time>2020-07-27T09:03:25.376Z</time>
      </trkpt>
      <trkpt lat="61.29384" lon="5.10139">
        <ele>72.968792</ele>
        <time>2020-07-27T09:03:27.385Z</time>
      </trkpt>
      <trkpt lat="61.29382" lon="5.10111">
        <ele>72.915617</ele>
        <time>2020-07-27T09:03:29.375Z</time>
      </trkpt>
      <trkpt lat="61.2938" lon="5.1008">
        <ele>72.858455</ele>
        <time>2020-07-27T09:03:31.388Z</time>
      </trkpt>
      <trkpt lat="61.29378" lon="5.10048">
        <ele>72.799844</ele>
        <time>2020-07-27T09:03:33.375Z</time>
      </trkpt>
      <trkpt lat="61.29376" lon="5.10015">
        <ele>72.740244</ele>
        <time>2020-07-27T09:03:35.366Z</time>
      </trkpt>
      <trkpt lat="61.29377" lon="5.09981">
        <ele>72.624712</ele>
        <time>2020-07-27T09:03:37.387Z</time>
      </trkpt>
      <trkpt lat="61.29379" lon="5.09945">
        <ele>72.45865</ele>
        <time>2020-07-27T09:03:39.383Z</time>
      </trkpt>
      <trkpt lat="61.29382" lon="5.09909">
        <ele>72.286868</ele>
        <time>2020-07-27T09:03:41.371Z</time>
      </trkpt>
      <trkpt lat="61.29385" lon="5.09873">
        <ele>72.120329</ele>
        <time>2020-07-27T09:03:43.371Z</time>
      </trkpt>
      <trkpt lat="61.29388" lon="5.09842">
        <ele>71.972202</ele>
        <time>2020-07-27T09:03:45.372Z</time>
      </trkpt>
      <trkpt lat="61.2939" lon="5.09816">
        <ele>71.850055</ele>
        <time>2020-07-27T09:03:47.402Z</time>
      </trkpt>
      <trkpt lat="61.29391" lon="5.09796">
        <ele>71.755433</ele>
        <time>2020-07-27T09:03:49.385Z</time>
      </trkpt>
      <trkpt lat="61.29393" lon="5.09771">
        <ele>71.642139</ele>
        <time>2020-07-27T09:03:52.374Z</time>
      </trkpt>
      <trkpt lat="61.29395" lon="5.09749">
        <ele>71.536589</ele>
        <time>2020-07-27T09:03:55.380Z</time>
      </trkpt>
      <trkpt lat="61.29397" lon="5.09729">
        <ele>71.44175</ele>
        <time>2020-07-27T09:03:58.374Z</time>
      </trkpt>
      <trkpt lat="61.29398" lon="5.0971">
        <ele>71.353247</ele>
        <time>2020-07-27T09:04:01.404Z</time>
      </trkpt>
      <trkpt lat="61.29399" lon="5.09683">
        <ele>71.229045</ele>
        <time>2020-07-27T09:04:04.373Z</time>
      </trkpt>
      <trkpt lat="61.29402" lon="5.09662">
        <ele>71.127962</ele>
        <time>2020-07-27T09:04:06.376Z</time>
      </trkpt>
      <trkpt lat="61.29404" lon="5.09639">
        <ele>71.02149</ele>
        <time>2020-07-27T09:04:08.365Z</time>
      </trkpt>
      <trkpt lat="61.29406" lon="5.09618">
        <ele>71.027053</ele>
        <time>2020-07-27T09:04:10.382Z</time>
      </trkpt>
      <trkpt lat="61.29408" lon="5.09598">
        <ele>71.092667</ele>
        <time>2020-07-27T09:04:12.383Z</time>
      </trkpt>
      <trkpt lat="61.2941" lon="5.09572">
        <ele>71.178592</ele>
        <time>2020-07-27T09:04:15.367Z</time>
      </trkpt>
      <trkpt lat="61.29411" lon="5.09549">
        <ele>71.253236</ele>
        <time>2020-07-27T09:04:18.382Z</time>
      </trkpt>
      <trkpt lat="61.29412" lon="5.09531">
        <ele>71.314996</ele>
        <time>2020-07-27T09:04:21.396Z</time>
      </trkpt>
      <trkpt lat="61.29414" lon="5.0951">
        <ele>71.383118</ele>
        <time>2020-07-27T09:04:25.396Z</time>
      </trkpt>
      <trkpt lat="61.29417" lon="5.09488">
        <ele>71.456355</ele>
        <time>2020-07-27T09:04:29.372Z</time>
      </trkpt>
      <trkpt lat="61.29419" lon="5.09466">
        <ele>71.531515</ele>
        <time>2020-07-27T09:04:33.367Z</time>
      </trkpt>
      <trkpt lat="61.29421" lon="5.09444">
        <ele>71.606444</ele>
        <time>2020-07-27T09:04:37.361Z</time>
      </trkpt>
      <trkpt lat="61.29423" lon="5.09424">
        <ele>71.671097</ele>
        <time>2020-07-27T09:04:40.376Z</time>
      </trkpt>
      <trkpt lat="61.29424" lon="5.09403">
        <ele>71.741573</ele>
        <time>2020-07-27T09:04:43.362Z</time>
      </trkpt>
      <trkpt lat="61.29426" lon="5.09381">
        <ele>71.814979</ele>
        <time>2020-07-27T09:04:46.376Z</time>
      </trkpt>
      <trkpt lat="61.29428" lon="5.09359">
        <ele>71.887977</ele>
        <time>2020-07-27T09:04:49.376Z</time>
      </trkpt>
      <trkpt lat="61.29429" lon="5.09337">
        <ele>71.96085</ele>
        <time>2020-07-27T09:04:52.370Z</time>
      </trkpt>
      <trkpt lat="61.29432" lon="5.09312">
        <ele>72.04491</ele>
        <time>2020-07-27T09:04:55.387Z</time>
      </trkpt>
      <trkpt lat="61.29435" lon="5.09286">
        <ele>72.133591</ele>
        <time>2020-07-27T09:04:58.376Z</time>
      </trkpt>
      <trkpt lat="61.29436" lon="5.09265">
        <ele>72.201215</ele>
        <time>2020-07-27T09:05:00.380Z</time>
      </trkpt>
      <trkpt lat="61.29437" lon="5.09242">
        <ele>71.911675</ele>
        <time>2020-07-27T09:05:02.397Z</time>
      </trkpt>
      <trkpt lat="61.2944" lon="5.09214">
        <ele>71.504583</ele>
        <time>2020-07-27T09:05:04.389Z</time>
      </trkpt>
      <trkpt lat="61.29443" lon="5.09184">
        <ele>71.055799</ele>
        <time>2020-07-27T09:05:06.367Z</time>
      </trkpt>
      <trkpt lat="61.29447" lon="5.09148">
        <ele>70.537554</ele>
        <time>2020-07-27T09:05:08.384Z</time>
      </trkpt>
      <trkpt lat="61.29449" lon="5.09129">
        <ele>70.24811</ele>
        <time>2020-07-27T09:05:09.415Z</time>
      </trkpt>
      <trkpt lat="61.29451" lon="5.09107">
        <ele>69.935401</ele>
        <time>2020-07-27T09:05:10.372Z</time>
      </trkpt>
      <trkpt lat="61.29453" lon="5.09085">
        <ele>69.608601</ele>
        <time>2020-07-27T09:05:11.385Z</time>
      </trkpt>
      <trkpt lat="61.29455" lon="5.09062">
        <ele>69.278426</ele>
        <time>2020-07-27T09:05:12.420Z</time>
      </trkpt>
      <trkpt lat="61.29457" lon="5.0904">
        <ele>68.948806</ele>
        <time>2020-07-27T09:05:13.386Z</time>
      </trkpt>
      <trkpt lat="61.29459" lon="5.09018">
        <ele>68.628702</ele>
        <time>2020-07-27T09:05:14.379Z</time>
      </trkpt>
      <trkpt lat="61.29461" lon="5.08997">
        <ele>68.326644</ele>
        <time>2020-07-27T09:05:15.388Z</time>
      </trkpt>
      <trkpt lat="61.29463" lon="5.08978">
        <ele>68.044204</ele>
        <time>2020-07-27T09:05:16.389Z</time>
      </trkpt>
      <trkpt lat="61.29466" lon="5.08944">
        <ele>67.555062</ele>
        <time>2020-07-27T09:05:18.386Z</time>
      </trkpt>
      <trkpt lat="61.29467" lon="5.08916">
        <ele>67.145979</ele>
        <time>2020-07-27T09:05:20.364Z</time>
      </trkpt>
      <trkpt lat="61.29469" lon="5.08891">
        <ele>66.781407</ele>
        <time>2020-07-27T09:05:22.384Z</time>
      </trkpt>
      <trkpt lat="61.29471" lon="5.08868">
        <ele>66.406851</ele>
        <time>2020-07-27T09:05:24.381Z</time>
      </trkpt>
      <trkpt lat="61.29473" lon="5.08844">
        <ele>66.031254</ele>
        <time>2020-07-27T09:05:26.399Z</time>
      </trkpt>
      <trkpt lat="61.29475" lon="5.08821">
        <ele>65.648906</ele>
        <time>2020-07-27T09:05:28.388Z</time>
      </trkpt>
      <trkpt lat="61.29476" lon="5.08797">
        <ele>65.276505</ele>
        <time>2020-07-27T09:05:30.371Z</time>
      </trkpt>
      <trkpt lat="61.29477" lon="5.08774">
        <ele>64.902168</ele>
        <time>2020-07-27T09:05:32.421Z</time>
      </trkpt>
      <trkpt lat="61.29479" lon="5.0875">
        <ele>64.517775</ele>
        <time>2020-07-27T09:05:34.404Z</time>
      </trkpt>
      <trkpt lat="61.29481" lon="5.08726">
        <ele>64.140104</ele>
        <time>2020-07-27T09:05:36.367Z</time>
      </trkpt>
      <trkpt lat="61.29482" lon="5.08702">
        <ele>63.759094</ele>
        <time>2020-07-27T09:05:38.378Z</time>
      </trkpt>
      <trkpt lat="61.29484" lon="5.08678">
        <ele>63.37723</ele>
        <time>2020-07-27T09:05:40.374Z</time>
      </trkpt>
      <trkpt lat="61.29486" lon="5.08655">
        <ele>62.998028</ele>
        <time>2020-07-27T09:05:42.371Z</time>
      </trkpt>
      <trkpt lat="61.29488" lon="5.08631">
        <ele>62.611384</ele>
        <time>2020-07-27T09:05:44.385Z</time>
      </trkpt>
      <trkpt lat="61.2949" lon="5.08605">
        <ele>62.197986</ele>
        <time>2020-07-27T09:05:46.378Z</time>
      </trkpt>
      <trkpt lat="61.29493" lon="5.08579">
        <ele>61.774788</ele>
        <time>2020-07-27T09:05:48.402Z</time>
      </trkpt>
      <trkpt lat="61.29496" lon="5.08555">
        <ele>61.381529</ele>
        <time>2020-07-27T09:05:50.390Z</time>
      </trkpt>
      <trkpt lat="61.29501" lon="5.08536">
        <ele>61.040079</ele>
        <time>2020-07-27T09:05:52.370Z</time>
      </trkpt>
      <trkpt lat="61.29511" lon="5.08528">
        <ele>60.67793</ele>
        <time>2020-07-27T09:05:54.406Z</time>
      </trkpt>
      <trkpt lat="61.29524" lon="5.08528">
        <ele>60.245279</ele>
        <time>2020-07-27T09:05:56.361Z</time>
      </trkpt>
      <trkpt lat="61.29538" lon="5.08525">
        <ele>59.787529</ele>
        <time>2020-07-27T09:05:58.402Z</time>
      </trkpt>
      <trkpt lat="61.29552" lon="5.08521">
        <ele>59.313412</ele>
        <time>2020-07-27T09:06:00.376Z</time>
      </trkpt>
      <trkpt lat="61.29567" lon="5.08517">
        <ele>58.810307</ele>
        <time>2020-07-27T09:06:02.385Z</time>
      </trkpt>
      <trkpt lat="61.29583" lon="5.08512">
        <ele>58.278775</ele>
        <time>2020-07-27T09:06:04.363Z</time>
      </trkpt>
      <trkpt lat="61.29599" lon="5.08507">
        <ele>57.744459</ele>
        <time>2020-07-27T09:06:06.375Z</time>
      </trkpt>
      <trkpt lat="61.29615" lon="5.08503">
        <ele>57.219198</ele>
        <time>2020-07-27T09:06:08.367Z</time>
      </trkpt>
      <trkpt lat="61.2963" lon="5.08499">
        <ele>56.712609</ele>
        <time>2020-07-27T09:06:10.417Z</time>
      </trkpt>
      <trkpt lat="61.29645" lon="5.08491">
        <ele>56.222781</ele>
        <time>2020-07-27T09:06:12.367Z</time>
      </trkpt>
      <trkpt lat="61.29658" lon="5.08483">
        <ele>55.762851</ele>
        <time>2020-07-27T09:06:14.403Z</time>
      </trkpt>
      <trkpt lat="61.2967" lon="5.08475">
        <ele>55.333664</ele>
        <time>2020-07-27T09:06:16.378Z</time>
      </trkpt>
      <trkpt lat="61.29682" lon="5.08468">
        <ele>54.933988</ele>
        <time>2020-07-27T09:06:18.374Z</time>
      </trkpt>
      <trkpt lat="61.29694" lon="5.08462">
        <ele>54.645599</ele>
        <time>2020-07-27T09:06:20.368Z</time>
      </trkpt>
      <trkpt lat="61.29705" lon="5.08457">
        <ele>54.368993</ele>
        <time>2020-07-27T09:06:22.374Z</time>
      </trkpt>
      <trkpt lat="61.29716" lon="5.08449">
        <ele>54.096297</ele>
        <time>2020-07-27T09:06:24.373Z</time>
      </trkpt>
      <trkpt lat="61.29727" lon="5.08443">
        <ele>53.823539</ele>
        <time>2020-07-27T09:06:26.368Z</time>
      </trkpt>
      <trkpt lat="61.29738" lon="5.08439">
        <ele>53.539932</ele>
        <time>2020-07-27T09:06:28.389Z</time>
      </trkpt>
      <trkpt lat="61.2975" lon="5.08435">
        <ele>53.253324</ele>
        <time>2020-07-27T09:06:30.373Z</time>
      </trkpt>
      <trkpt lat="61.29761" lon="5.08431">
        <ele>52.980094</ele>
        <time>2020-07-27T09:06:32.415Z</time>
      </trkpt>
      <trkpt lat="61.29771" lon="5.08428">
        <ele>52.728213</ele>
        <time>2020-07-27T09:06:34.388Z</time>
      </trkpt>
      <trkpt lat="61.2978" lon="5.08432">
        <ele>52.505089</ele>
        <time>2020-07-27T09:06:36.382Z</time>
      </trkpt>
      <trkpt lat="61.29788" lon="5.08442">
        <ele>52.286528</ele>
        <time>2020-07-27T09:06:38.397Z</time>
      </trkpt>
      <trkpt lat="61.29793" lon="5.08465">
        <ele>51.99085</ele>
        <time>2020-07-27T09:06:41.365Z</time>
      </trkpt>
      <trkpt lat="61.29796" lon="5.0849">
        <ele>51.688614</ele>
        <time>2020-07-27T09:06:44.367Z</time>
      </trkpt>
      <trkpt lat="61.29799" lon="5.08514">
        <ele>51.399106</ele>
        <time>2020-07-27T09:06:47.417Z</time>
      </trkpt>
      <trkpt lat="61.29798" lon="5.08533">
        <ele>51.176306</ele>
        <time>2020-07-27T09:06:50.366Z</time>
      </trkpt>
      <trkpt lat="61.34372" lon="5.06609">
        <ele>37.313327</ele>
        <time>2020-07-27T10:13:03.362Z</time>
      </trkpt>
      <trkpt lat="61.34379" lon="5.06591">
        <ele>37.53451</ele>
        <time>2020-07-27T10:13:06.363Z</time>
      </trkpt>
      <trkpt lat="61.34388" lon="5.06585">
        <ele>37.722848</ele>
        <time>2020-07-27T10:13:12.359Z</time>
      </trkpt>
      <trkpt lat="61.34396" lon="5.06574">
        <ele>37.915295</ele>
        <time>2020-07-27T10:13:19.378Z</time>
      </trkpt>
      <trkpt lat="61.34403" lon="5.06562">
        <ele>38.301353</ele>
        <time>2020-07-27T10:13:23.369Z</time>
      </trkpt>
      <trkpt lat="61.34412" lon="5.06554">
        <ele>38.869197</ele>
        <time>2020-07-27T10:13:29.365Z</time>
      </trkpt>
      <trkpt lat="61.34419" lon="5.06541">
        <ele>39.454135</ele>
        <time>2020-07-27T10:13:35.352Z</time>
      </trkpt>
      <trkpt lat="61.34428" lon="5.06531">
        <ele>40.032402</ele>
        <time>2020-07-27T10:13:40.358Z</time>
      </trkpt>
      <trkpt lat="61.34438" lon="5.06528">
        <ele>40.606289</ele>
        <time>2020-07-27T10:13:46.379Z</time>
      </trkpt>
      <trkpt lat="61.34447" lon="5.06527">
        <ele>41.156873</ele>
        <time>2020-07-27T10:13:59.347Z</time>
      </trkpt>
      <trkpt lat="61.34456" lon="5.06522">
        <ele>41.703165</ele>
        <time>2020-07-27T10:14:12.364Z</time>
      </trkpt>
      <trkpt lat="61.34472" lon="5.06506">
        <ele>42.702871</ele>
        <time>2020-07-27T10:14:41.354Z</time>
      </trkpt>
      <trkpt lat="61.34488" lon="5.06475">
        <ele>43.995447</ele>
        <time>2020-07-27T10:16:08.355Z</time>
      </trkpt>
      <trkpt lat="61.34498" lon="5.06463">
        <ele>44.652361</ele>
        <time>2020-07-27T10:16:11.367Z</time>
      </trkpt>
      <trkpt lat="61.34509" lon="5.0645">
        <ele>45.421155</ele>
        <time>2020-07-27T10:16:14.347Z</time>
      </trkpt>
      <trkpt lat="61.3452" lon="5.06443">
        <ele>46.100969</ele>
        <time>2020-07-27T10:16:16.364Z</time>
      </trkpt>
      <trkpt lat="61.34532" lon="5.06437">
        <ele>46.799231</ele>
        <time>2020-07-27T10:16:18.343Z</time>
      </trkpt>
      <trkpt lat="61.34542" lon="5.0643">
        <ele>47.422543</ele>
        <time>2020-07-27T10:16:20.392Z</time>
      </trkpt>
      <trkpt lat="61.34551" lon="5.06418">
        <ele>48.049209</ele>
        <time>2020-07-27T10:16:22.353Z</time>
      </trkpt>
      <trkpt lat="61.34558" lon="5.06406">
        <ele>48.542052</ele>
        <time>2020-07-27T10:16:24.367Z</time>
      </trkpt>
      <trkpt lat="61.34568" lon="5.0639">
        <ele>48.791797</ele>
        <time>2020-07-27T10:16:27.355Z</time>
      </trkpt>
      <trkpt lat="61.34578" lon="5.06372">
        <ele>49.038647</ele>
        <time>2020-07-27T10:16:30.371Z</time>
      </trkpt>
      <trkpt lat="61.34583" lon="5.06349">
        <ele>49.284055</ele>
        <time>2020-07-27T10:16:33.395Z</time>
      </trkpt>
      <trkpt lat="61.34586" lon="5.06326">
        <ele>49.511035</ele>
        <time>2020-07-27T10:16:36.351Z</time>
      </trkpt>
      <trkpt lat="61.34591" lon="5.06306">
        <ele>49.720689</ele>
        <time>2020-07-27T10:16:39.362Z</time>
      </trkpt>
      <trkpt lat="61.346" lon="5.06294">
        <ele>49.940286</ele>
        <time>2020-07-27T10:16:42.354Z</time>
      </trkpt>
      <trkpt lat="61.34612" lon="5.06284">
        <ele>50.190187</ele>
        <time>2020-07-27T10:16:45.354Z</time>
      </trkpt>
      <trkpt lat="61.34624" lon="5.06274">
        <ele>50.447025</ele>
        <time>2020-07-27T10:16:48.342Z</time>
      </trkpt>
      <trkpt lat="61.34635" lon="5.06264">
        <ele>50.689672</ele>
        <time>2020-07-27T10:16:51.357Z</time>
      </trkpt>
      <trkpt lat="61.34645" lon="5.06257">
        <ele>50.894781</ele>
        <time>2020-07-27T10:16:54.347Z</time>
      </trkpt>
      <trkpt lat="61.34654" lon="5.0625">
        <ele>51.084337</ele>
        <time>2020-07-27T10:16:57.367Z</time>
      </trkpt>
      <trkpt lat="61.34665" lon="5.06242">
        <ele>51.30551</ele>
        <time>2020-07-27T10:17:01.404Z</time>
      </trkpt>
      <trkpt lat="61.34674" lon="5.06238">
        <ele>51.484924</ele>
        <time>2020-07-27T10:17:05.376Z</time>
      </trkpt>
      <trkpt lat="61.34681" lon="5.06251">
        <ele>51.68377</ele>
        <time>2020-07-27T10:17:09.377Z</time>
      </trkpt>
      <trkpt lat="61.34684" lon="5.0627">
        <ele>51.87169</ele>
        <time>2020-07-27T10:17:12.347Z</time>
      </trkpt>
      <trkpt lat="61.34686" lon="5.06291">
        <ele>52.065946</ele>
        <time>2020-07-27T10:17:15.347Z</time>
      </trkpt>
      <trkpt lat="61.34689" lon="5.06312">
        <ele>52.175967</ele>
        <time>2020-07-27T10:17:18.370Z</time>
      </trkpt>
      <trkpt lat="61.34692" lon="5.06334">
        <ele>52.285944</ele>
        <time>2020-07-27T10:17:21.342Z</time>
      </trkpt>
      <trkpt lat="61.34696" lon="5.06355">
        <ele>52.394634</ele>
        <time>2020-07-27T10:17:24.373Z</time>
      </trkpt>
      <trkpt lat="61.347" lon="5.06376">
        <ele>52.509005</ele>
        <time>2020-07-27T10:17:27.374Z</time>
      </trkpt>
      <trkpt lat="61.34705" lon="5.06398">
        <ele>52.62532</ele>
        <time>2020-07-27T10:17:30.383Z</time>
      </trkpt>
      <trkpt lat="61.34708" lon="5.06418">
        <ele>52.731936</ele>
        <time>2020-07-27T10:17:33.356Z</time>
      </trkpt>
      <trkpt lat="61.34712" lon="5.0644">
        <ele>52.847032</ele>
        <time>2020-07-27T10:17:36.360Z</time>
      </trkpt>
      <trkpt lat="61.34716" lon="5.06463">
        <ele>52.966717</ele>
        <time>2020-07-27T10:17:39.404Z</time>
      </trkpt>
      <trkpt lat="61.34721" lon="5.06486">
        <ele>53.088356</ele>
        <time>2020-07-27T10:17:42.364Z</time>
      </trkpt>
      <trkpt lat="61.34725" lon="5.06508">
        <ele>53.206661</ele>
        <time>2020-07-27T10:17:45.399Z</time>
      </trkpt>
      <trkpt lat="61.3473" lon="5.06531">
        <ele>53.327739</ele>
        <time>2020-07-27T10:17:48.373Z</time>
      </trkpt>
      <trkpt lat="61.34734" lon="5.06554">
        <ele>53.448245</ele>
        <time>2020-07-27T10:17:51.376Z</time>
      </trkpt>
      <trkpt lat="61.34738" lon="5.06577">
        <ele>53.56943</ele>
        <time>2020-07-27T10:17:54.354Z</time>
      </trkpt>
      <trkpt lat="61.34743" lon="5.06599">
        <ele>53.68965</ele>
        <time>2020-07-27T10:17:57.363Z</time>
      </trkpt>
      <trkpt lat="61.34747" lon="5.06621">
        <ele>53.80695</ele>
        <time>2020-07-27T10:18:00.382Z</time>
      </trkpt>
      <trkpt lat="61.34751" lon="5.06643">
        <ele>53.864583</ele>
        <time>2020-07-27T10:18:03.355Z</time>
      </trkpt>
      <trkpt lat="61.34755" lon="5.06665">
        <ele>53.625053</ele>
        <time>2020-07-27T10:18:06.344Z</time>
      </trkpt>
      <trkpt lat="61.34759" lon="5.06688">
        <ele>53.371931</ele>
        <time>2020-07-27T10:18:09.380Z</time>
      </trkpt>
      <trkpt lat="61.34763" lon="5.0671">
        <ele>53.130909</ele>
        <time>2020-07-27T10:18:12.364Z</time>
      </trkpt>
      <trkpt lat="61.34768" lon="5.06732">
        <ele>52.881238</ele>
        <time>2020-07-27T10:18:15.346Z</time>
      </trkpt>
      <trkpt lat="61.34772" lon="5.06755">
        <ele>52.622313</ele>
        <time>2020-07-27T10:18:18.380Z</time>
      </trkpt>
      <trkpt lat="61.34776" lon="5.06779">
        <ele>52.360995</ele>
        <time>2020-07-27T10:18:21.349Z</time>
      </trkpt>
      <trkpt lat="61.3478" lon="5.06806">
        <ele>52.078208</ele>
        <time>2020-07-27T10:18:24.350Z</time>
      </trkpt>
      <trkpt lat="61.34783" lon="5.06825">
        <ele>51.874584</ele>
        <time>2020-07-27T10:18:26.355Z</time>
      </trkpt>
      <trkpt lat="61.34784" lon="5.06845">
        <ele>51.664358</ele>
        <time>2020-07-27T10:18:28.342Z</time>
      </trkpt>
      <trkpt lat="61.34785" lon="5.06865">
        <ele>51.457093</ele>
        <time>2020-07-27T10:18:30.371Z</time>
      </trkpt>
      <trkpt lat="61.34785" lon="5.06885">
        <ele>51.250361</ele>
        <time>2020-07-27T10:18:32.369Z</time>
      </trkpt>
      <trkpt lat="61.34785" lon="5.06904">
        <ele>51.053737</ele>
        <time>2020-07-27T10:18:34.348Z</time>
      </trkpt>
      <trkpt lat="61.34784" lon="5.06931">
        <ele>50.773002</ele>
        <time>2020-07-27T10:18:37.355Z</time>
      </trkpt>
      <trkpt lat="61.34781" lon="5.06958">
        <ele>50.489902</ele>
        <time>2020-07-27T10:18:40.355Z</time>
      </trkpt>
      <trkpt lat="61.34779" lon="5.06977">
        <ele>50.29112</ele>
        <time>2020-07-27T10:18:42.349Z</time>
      </trkpt>
      <trkpt lat="61.34778" lon="5.06996">
        <ele>50.098402</ele>
        <time>2020-07-27T10:18:44.364Z</time>
      </trkpt>
      <trkpt lat="61.34776" lon="5.07014">
        <ele>50.041029</ele>
        <time>2020-07-27T10:18:46.341Z</time>
      </trkpt>
      <trkpt lat="61.34773" lon="5.07041">
        <ele>50.031754</ele>
        <time>2020-07-27T10:18:49.352Z</time>
      </trkpt>
      <trkpt lat="61.34771" lon="5.07068">
        <ele>50.022391</ele>
        <time>2020-07-27T10:18:52.355Z</time>
      </trkpt>
      <trkpt lat="61.34769" lon="5.07087">
        <ele>50.016051</ele>
        <time>2020-07-27T10:18:54.386Z</time>
      </trkpt>
      <trkpt lat="61.34768" lon="5.07106">
        <ele>50.00957</ele>
        <time>2020-07-27T10:18:56.370Z</time>
      </trkpt>
      <trkpt lat="61.34766" lon="5.07125">
        <ele>50.003164</ele>
        <time>2020-07-27T10:18:58.356Z</time>
      </trkpt>
      <trkpt lat="61.34765" lon="5.07143">
        <ele>49.996771</ele>
        <time>2020-07-27T10:19:00.345Z</time>
      </trkpt>
      <trkpt lat="61.34762" lon="5.0717">
        <ele>49.987516</ele>
        <time>2020-07-27T10:19:03.363Z</time>
      </trkpt>
      <trkpt lat="61.34759" lon="5.07197">
        <ele>49.978383</ele>
        <time>2020-07-27T10:19:06.366Z</time>
      </trkpt>
      <trkpt lat="61.34756" lon="5.07223">
        <ele>49.969345</ele>
        <time>2020-07-27T10:19:09.367Z</time>
      </trkpt>
      <trkpt lat="61.34752" lon="5.07246">
        <ele>49.96102</ele>
        <time>2020-07-27T10:19:12.350Z</time>
      </trkpt>
      <trkpt lat="61.34748" lon="5.07269">
        <ele>49.952777</ele>
        <time>2020-07-27T10:19:15.379Z</time>
      </trkpt>
      <trkpt lat="61.34744" lon="5.07292">
        <ele>49.944644</ele>
        <time>2020-07-27T10:19:18.365Z</time>
      </trkpt>
      <trkpt lat="61.3474" lon="5.07314">
        <ele>49.9367</ele>
        <time>2020-07-27T10:19:21.375Z</time>
      </trkpt>
      <trkpt lat="61.34736" lon="5.07336">
        <ele>49.928636</ele>
        <time>2020-07-27T10:19:24.352Z</time>
      </trkpt>
      <trkpt lat="61.34732" lon="5.07359">
        <ele>49.920418</ele>
        <time>2020-07-27T10:19:27.358Z</time>
      </trkpt>
      <trkpt lat="61.34729" lon="5.07383">
        <ele>50.239567</ele>
        <time>2020-07-27T10:19:30.388Z</time>
      </trkpt>
      <trkpt lat="61.34726" lon="5.07409">
        <ele>50.619735</ele>
        <time>2020-07-27T10:19:33.350Z</time>
      </trkpt>
      <trkpt lat="61.34724" lon="5.07434">
        <ele>50.991602</ele>
        <time>2020-07-27T10:19:36.354Z</time>
      </trkpt>
      <trkpt lat="61.3473" lon="5.07457">
        <ele>51.364606</ele>
        <time>2020-07-27T10:19:39.369Z</time>
      </trkpt>
      <trkpt lat="61.3473" lon="5.07483">
        <ele>51.740251</ele>
        <time>2020-07-27T10:19:42.368Z</time>
      </trkpt>
      <trkpt lat="61.34727" lon="5.07509">
        <ele>52.13716</ele>
        <time>2020-07-27T10:19:45.375Z</time>
      </trkpt>
      <trkpt lat="61.34725" lon="5.07528">
        <ele>52.421461</ele>
        <time>2020-07-27T10:19:47.342Z</time>
      </trkpt>
      <trkpt lat="61.34722" lon="5.07553">
        <ele>52.801629</ele>
        <time>2020-07-27T10:19:50.347Z</time>
      </trkpt>
      <trkpt lat="61.34719" lon="5.07576">
        <ele>53.146367</ele>
        <time>2020-07-27T10:19:53.356Z</time>
      </trkpt>
      <trkpt lat="61.34717" lon="5.07596">
        <ele>53.448442</ele>
        <time>2020-07-27T10:19:56.359Z</time>
      </trkpt>
      <trkpt lat="61.34714" lon="5.07616">
        <ele>53.751038</ele>
        <time>2020-07-27T10:19:59.379Z</time>
      </trkpt>
      <trkpt lat="61.3471" lon="5.07634">
        <ele>54.047725</ele>
        <time>2020-07-27T10:20:02.372Z</time>
      </trkpt>
      <trkpt lat="61.34706" lon="5.07652">
        <ele>54.332374</ele>
        <time>2020-07-27T10:20:05.356Z</time>
      </trkpt>
      <trkpt lat="61.34703" lon="5.07671">
        <ele>54.624962</ele>
        <time>2020-07-27T10:20:08.379Z</time>
      </trkpt>
      <trkpt lat="61.34699" lon="5.07688">
        <ele>54.905751</ele>
        <time>2020-07-27T10:20:11.365Z</time>
      </trkpt>
      <trkpt lat="61.34693" lon="5.07707">
        <ele>55.238241</ele>
        <time>2020-07-27T10:20:15.390Z</time>
      </trkpt>
      <trkpt lat="61.34685" lon="5.07721">
        <ele>55.80591</ele>
        <time>2020-07-27T10:20:19.339Z</time>
      </trkpt>
      <trkpt lat="61.34676" lon="5.07731">
        <ele>56.583099</ele>
        <time>2020-07-27T10:20:23.373Z</time>
      </trkpt>
      <trkpt lat="61.34666" lon="5.07739">
        <ele>57.396448</ele>
        <time>2020-07-27T10:20:27.381Z</time>
      </trkpt>
      <trkpt lat="61.34657" lon="5.07745">
        <ele>58.161284</ele>
        <time>2020-07-27T10:20:31.368Z</time>
      </trkpt>
      <trkpt lat="61.34647" lon="5.07747">
        <ele>58.932032</ele>
        <time>2020-07-27T10:20:35.351Z</time>
      </trkpt>
      <trkpt lat="61.34637" lon="5.07753">
        <ele>59.764302</ele>
        <time>2020-07-27T10:20:40.365Z</time>
      </trkpt>
      <trkpt lat="61.34628" lon="5.07766">
        <ele>60.57602</ele>
        <time>2020-07-27T10:20:45.351Z</time>
      </trkpt>
      <trkpt lat="61.34622" lon="5.07783">
        <ele>61.414221</ele>
        <time>2020-07-27T10:20:50.371Z</time>
      </trkpt>
      <trkpt lat="61.34617" lon="5.07803">
        <ele>62.239868</ele>
        <time>2020-07-27T10:20:55.379Z</time>
      </trkpt>
      <trkpt lat="61.34612" lon="5.07822">
        <ele>63.052181</ele>
        <time>2020-07-27T10:21:00.368Z</time>
      </trkpt>
      <trkpt lat="61.34609" lon="5.07841">
        <ele>63.807663</ele>
        <time>2020-07-27T10:21:05.383Z</time>
      </trkpt>
      <trkpt lat="61.34606" lon="5.07863">
        <ele>64.654059</ele>
        <time>2020-07-27T10:21:10.373Z</time>
      </trkpt>
      <trkpt lat="61.34604" lon="5.07885">
        <ele>65.506122</ele>
        <time>2020-07-27T10:21:15.375Z</time>
      </trkpt>
      <trkpt lat="61.34602" lon="5.07906">
        <ele>66.305097</ele>
        <time>2020-07-27T10:21:20.370Z</time>
      </trkpt>
      <trkpt lat="61.34601" lon="5.07929">
        <ele>67.146109</ele>
        <time>2020-07-27T10:21:25.370Z</time>
      </trkpt>
      <trkpt lat="61.346" lon="5.07949">
        <ele>67.904221</ele>
        <time>2020-07-27T10:21:30.370Z</time>
      </trkpt>
      <trkpt lat="61.34599" lon="5.07969">
        <ele>68.66318</ele>
        <time>2020-07-27T10:21:35.355Z</time>
      </trkpt>
      <trkpt lat="61.346" lon="5.07991">
        <ele>69.487014</ele>
        <time>2020-07-27T10:21:40.370Z</time>
      </trkpt>
      <trkpt lat="61.346" lon="5.08011">
        <ele>69.859826</ele>
        <time>2020-07-27T10:21:44.375Z</time>
      </trkpt>
      <trkpt lat="61.34601" lon="5.08033">
        <ele>70.291057</ele>
        <time>2020-07-27T10:21:49.344Z</time>
      </trkpt>
      <trkpt lat="61.34602" lon="5.08056">
        <ele>70.732292</ele>
        <time>2020-07-27T10:21:54.367Z</time>
      </trkpt>
      <trkpt lat="61.34603" lon="5.08077">
        <ele>71.144918</ele>
        <time>2020-07-27T10:21:59.360Z</time>
      </trkpt>
      <trkpt lat="61.34606" lon="5.08096">
        <ele>71.519634</ele>
        <time>2020-07-27T10:22:04.353Z</time>
      </trkpt>
      <trkpt lat="61.34605" lon="5.08116">
        <ele>71.904497</ele>
        <time>2020-07-27T10:22:09.351Z</time>
      </trkpt>
      <trkpt lat="61.34604" lon="5.08135">
        <ele>72.27294</ele>
        <time>2020-07-27T10:22:13.357Z</time>
      </trkpt>
      <trkpt lat="61.34604" lon="5.08157">
        <ele>72.696645</ele>
        <time>2020-07-27T10:22:18.379Z</time>
      </trkpt>
      <trkpt lat="61.34604" lon="5.08179">
        <ele>73.126103</ele>
        <time>2020-07-27T10:22:23.401Z</time>
      </trkpt>
      <trkpt lat="61.34604" lon="5.082">
        <ele>73.524884</ele>
        <time>2020-07-27T10:22:27.350Z</time>
      </trkpt>
      <trkpt lat="61.34604" lon="5.08222">
        <ele>73.951973</ele>
        <time>2020-07-27T10:22:31.375Z</time>
      </trkpt>
      <trkpt lat="61.34604" lon="5.08245">
        <ele>74.382733</ele>
        <time>2020-07-27T10:22:35.362Z</time>
      </trkpt>
      <trkpt lat="61.34604" lon="5.08267">
        <ele>74.813363</ele>
        <time>2020-07-27T10:22:39.374Z</time>
      </trkpt>
      <trkpt lat="61.34604" lon="5.08286">
        <ele>75.188438</ele>
        <time>2020-07-27T10:22:42.354Z</time>
      </trkpt>
      <trkpt lat="61.34603" lon="5.08307">
        <ele>75.576809</ele>
        <time>2020-07-27T10:22:45.356Z</time>
      </trkpt>
      <trkpt lat="61.34602" lon="5.08326">
        <ele>75.951307</ele>
        <time>2020-07-27T10:22:48.359Z</time>
      </trkpt>
      <trkpt lat="61.34601" lon="5.08351">
        <ele>76.430416</ele>
        <time>2020-07-27T10:22:52.340Z</time>
      </trkpt>
      <trkpt lat="61.346" lon="5.0837">
        <ele>76.663719</ele>
        <time>2020-07-27T10:22:55.356Z</time>
      </trkpt>
      <trkpt lat="61.346" lon="5.0839">
        <ele>76.604525</ele>
        <time>2020-07-27T10:22:58.373Z</time>
      </trkpt>
      <trkpt lat="61.346" lon="5.08412">
        <ele>76.539472</ele>
        <time>2020-07-27T10:23:01.343Z</time>
      </trkpt>
      <trkpt lat="61.34598" lon="5.08433">
        <ele>76.47746</ele>
        <time>2020-07-27T10:23:04.350Z</time>
      </trkpt>
      <trkpt lat="61.34597" lon="5.08453">
        <ele>76.417984</ele>
        <time>2020-07-27T10:23:07.354Z</time>
      </trkpt>
      <trkpt lat="61.34595" lon="5.08472">
        <ele>76.359482</ele>
        <time>2020-07-27T10:23:10.354Z</time>
      </trkpt>
      <trkpt lat="61.34593" lon="5.08491">
        <ele>76.302496</ele>
        <time>2020-07-27T10:23:13.350Z</time>
      </trkpt>
      <trkpt lat="61.34591" lon="5.0851">
        <ele>76.24625</ele>
        <time>2020-07-27T10:23:16.345Z</time>
      </trkpt>
      <trkpt lat="61.34589" lon="5.08528">
        <ele>76.190372</ele>
        <time>2020-07-27T10:23:19.380Z</time>
      </trkpt>
      <trkpt lat="61.34586" lon="5.08553">
        <ele>76.116539</ele>
        <time>2020-07-27T10:23:23.340Z</time>
      </trkpt>
      <trkpt lat="61.34583" lon="5.08573">
        <ele>76.05559</ele>
        <time>2020-07-27T10:23:26.352Z</time>
      </trkpt>
      <trkpt lat="61.34581" lon="5.08594">
        <ele>75.991048</ele>
        <time>2020-07-27T10:23:29.363Z</time>
      </trkpt>
      <trkpt lat="61.34578" lon="5.08619">
        <ele>75.916192</ele>
        <time>2020-07-27T10:23:32.361Z</time>
      </trkpt>
      <trkpt lat="61.34576" lon="5.08645">
        <ele>75.837231</ele>
        <time>2020-07-27T10:23:35.360Z</time>
      </trkpt>
      <trkpt lat="61.34576" lon="5.0867">
        <ele>75.765562</ele>
        <time>2020-07-27T10:23:38.348Z</time>
      </trkpt>
      <trkpt lat="61.34576" lon="5.0869">
        <ele>75.705382</ele>
        <time>2020-07-27T10:23:41.375Z</time>
      </trkpt>
      <trkpt lat="61.34576" lon="5.08713">
        <ele>75.639177</ele>
        <time>2020-07-27T10:23:44.376Z</time>
      </trkpt>
      <trkpt lat="61.34577" lon="5.08737">
        <ele>75.523701</ele>
        <time>2020-07-27T10:23:47.397Z</time>
      </trkpt>
      <trkpt lat="61.34577" lon="5.08759">
        <ele>75.150382</ele>
        <time>2020-07-27T10:23:50.368Z</time>
      </trkpt>
      <trkpt lat="61.34578" lon="5.08784">
        <ele>74.751188</ele>
        <time>2020-07-27T10:23:53.347Z</time>
      </trkpt>
      <trkpt lat="61.3458" lon="5.08809">
        <ele>74.335048</ele>
        <time>2020-07-27T10:23:56.354Z</time>
      </trkpt>
      <trkpt lat="61.34583" lon="5.08834">
        <ele>73.904987</ele>
        <time>2020-07-27T10:23:59.360Z</time>
      </trkpt>
      <trkpt lat="61.34585" lon="5.08861">
        <ele>73.461769</ele>
        <time>2020-07-27T10:24:02.356Z</time>
      </trkpt>
      <trkpt lat="61.34589" lon="5.08885">
        <ele>73.037496</ele>
        <time>2020-07-27T10:24:05.354Z</time>
      </trkpt>
      <trkpt lat="61.34593" lon="5.08912">
        <ele>72.58456</ele>
        <time>2020-07-27T10:24:08.354Z</time>
      </trkpt>
      <trkpt lat="61.34596" lon="5.0893">
        <ele>72.272486</ele>
        <time>2020-07-27T10:24:10.348Z</time>
      </trkpt>
      <trkpt lat="61.34598" lon="5.08948">
        <ele>71.950525</ele>
        <time>2020-07-27T10:24:12.392Z</time>
      </trkpt>
      <trkpt lat="61.34601" lon="5.08967">
        <ele>71.623268</ele>
        <time>2020-07-27T10:24:14.414Z</time>
      </trkpt>
      <trkpt lat="61.34604" lon="5.08989">
        <ele>71.260296</ele>
        <time>2020-07-27T10:24:16.375Z</time>
      </trkpt>
      <trkpt lat="61.34606" lon="5.09012">
        <ele>70.8773</ele>
        <time>2020-07-27T10:24:18.360Z</time>
      </trkpt>
      <trkpt lat="61.34607" lon="5.09035">
        <ele>70.492173</ele>
        <time>2020-07-27T10:24:20.348Z</time>
      </trkpt>
      <trkpt lat="61.3461" lon="5.09057">
        <ele>70.114696</ele>
        <time>2020-07-27T10:24:22.344Z</time>
      </trkpt>
      <trkpt lat="61.34614" lon="5.0908">
        <ele>69.717241</ele>
        <time>2020-07-27T10:24:24.359Z</time>
      </trkpt>
      <trkpt lat="61.34618" lon="5.09103">
        <ele>69.34439</ele>
        <time>2020-07-27T10:24:26.369Z</time>
      </trkpt>
      <trkpt lat="61.34622" lon="5.09127">
        <ele>69.058731</ele>
        <time>2020-07-27T10:24:28.386Z</time>
      </trkpt>
      <trkpt lat="61.34625" lon="5.09151">
        <ele>68.776073</ele>
        <time>2020-07-27T10:24:30.383Z</time>
      </trkpt>
      <trkpt lat="61.3463" lon="5.09175">
        <ele>68.491959</ele>
        <time>2020-07-27T10:24:32.355Z</time>
      </trkpt>
      <trkpt lat="61.34634" lon="5.09199">
        <ele>68.205711</ele>
        <time>2020-07-27T10:24:34.354Z</time>
      </trkpt>
      <trkpt lat="61.34637" lon="5.09223">
        <ele>67.921987</ele>
        <time>2020-07-27T10:24:36.358Z</time>
      </trkpt>
      <trkpt lat="61.34641" lon="5.09246">
        <ele>67.648919</ele>
        <time>2020-07-27T10:24:38.370Z</time>
      </trkpt>
      <trkpt lat="61.34644" lon="5.09269">
        <ele>67.381892</ele>
        <time>2020-07-27T10:24:40.346Z</time>
      </trkpt>
      <trkpt lat="61.34648" lon="5.0929">
        <ele>67.129181</ele>
        <time>2020-07-27T10:24:42.368Z</time>
      </trkpt>
      <trkpt lat="61.34651" lon="5.0931">
        <ele>66.890657</ele>
        <time>2020-07-27T10:24:44.347Z</time>
      </trkpt>
      <trkpt lat="61.34655" lon="5.0933">
        <ele>66.655908</ele>
        <time>2020-07-27T10:24:46.360Z</time>
      </trkpt>
      <trkpt lat="61.34658" lon="5.09349">
        <ele>66.432495</ele>
        <time>2020-07-27T10:24:48.378Z</time>
      </trkpt>
      <trkpt lat="61.34661" lon="5.09367">
        <ele>66.211989</ele>
        <time>2020-07-27T10:24:50.353Z</time>
      </trkpt>
      <trkpt lat="61.34664" lon="5.09386">
        <ele>65.986643</ele>
        <time>2020-07-27T10:24:52.373Z</time>
      </trkpt>
      <trkpt lat="61.34667" lon="5.09405">
        <ele>65.769803</ele>
        <time>2020-07-27T10:24:54.381Z</time>
      </trkpt>
      <trkpt lat="61.34671" lon="5.09423">
        <ele>65.552893</ele>
        <time>2020-07-27T10:24:56.356Z</time>
      </trkpt>
      <trkpt lat="61.34674" lon="5.09441">
        <ele>65.329481</ele>
        <time>2020-07-27T10:24:58.365Z</time>
      </trkpt>
      <trkpt lat="61.34677" lon="5.09461">
        <ele>65.213975</ele>
        <time>2020-07-27T10:25:00.349Z</time>
      </trkpt>
      <trkpt lat="61.34679" lon="5.0948">
        <ele>65.227894</ele>
        <time>2020-07-27T10:25:02.363Z</time>
      </trkpt>
      <trkpt lat="61.34683" lon="5.09499">
        <ele>65.242117</ele>
        <time>2020-07-27T10:25:04.360Z</time>
      </trkpt>
      <trkpt lat="61.34686" lon="5.09518">
        <ele>65.256487</ele>
        <time>2020-07-27T10:25:06.356Z</time>
      </trkpt>
      <trkpt lat="61.3469" lon="5.09538">
        <ele>65.271234</ele>
        <time>2020-07-27T10:25:08.381Z</time>
      </trkpt>
      <trkpt lat="61.34693" lon="5.09558">
        <ele>65.286311</ele>
        <time>2020-07-27T10:25:10.354Z</time>
      </trkpt>
      <trkpt lat="61.34696" lon="5.09579">
        <ele>65.301427</ele>
        <time>2020-07-27T10:25:12.338Z</time>
      </trkpt>
      <trkpt lat="61.347" lon="5.09599">
        <ele>65.316355</ele>
        <time>2020-07-27T10:25:14.365Z</time>
      </trkpt>
      <trkpt lat="61.34703" lon="5.09619">
        <ele>65.331218</ele>
        <time>2020-07-27T10:25:16.354Z</time>
      </trkpt>
      <trkpt lat="61.34706" lon="5.09639">
        <ele>65.34587</ele>
        <time>2020-07-27T10:25:18.349Z</time>
      </trkpt>
      <trkpt lat="61.34709" lon="5.09658">
        <ele>65.360033</ele>
        <time>2020-07-27T10:25:20.348Z</time>
      </trkpt>
      <trkpt lat="61.34712" lon="5.09678">
        <ele>65.374135</ele>
        <time>2020-07-27T10:25:22.357Z</time>
      </trkpt>
      <trkpt lat="61.34715" lon="5.09697">
        <ele>65.388054</ele>
        <time>2020-07-27T10:25:24.369Z</time>
      </trkpt>
      <trkpt lat="61.34718" lon="5.09716">
        <ele>65.401974</ele>
        <time>2020-07-27T10:25:26.372Z</time>
      </trkpt>
      <trkpt lat="61.34721" lon="5.09735">
        <ele>65.416359</ele>
        <time>2020-07-27T10:25:28.350Z</time>
      </trkpt>
      <trkpt lat="61.34724" lon="5.09755">
        <ele>65.430569</ele>
        <time>2020-07-27T10:25:30.368Z</time>
      </trkpt>
      <trkpt lat="61.34726" lon="5.09773">
        <ele>65.443852</ele>
        <time>2020-07-27T10:25:32.372Z</time>
      </trkpt>
      <trkpt lat="61.34728" lon="5.09792">
        <ele>65.457059</ele>
        <time>2020-07-27T10:25:34.355Z</time>
      </trkpt>
      <trkpt lat="61.3473" lon="5.09812">
        <ele>65.429702</ele>
        <time>2020-07-27T10:25:36.362Z</time>
      </trkpt>
      <trkpt lat="61.34733" lon="5.09831">
        <ele>65.115712</ele>
        <time>2020-07-27T10:25:38.368Z</time>
      </trkpt>
      <trkpt lat="61.34736" lon="5.09854">
        <ele>64.757964</ele>
        <time>2020-07-27T10:25:40.370Z</time>
      </trkpt>
      <trkpt lat="61.34738" lon="5.09877">
        <ele>64.380353</ele>
        <time>2020-07-27T10:25:42.367Z</time>
      </trkpt>
      <trkpt lat="61.34741" lon="5.09903">
        <ele>63.978664</ele>
        <time>2020-07-27T10:25:44.372Z</time>
      </trkpt>
      <trkpt lat="61.34744" lon="5.09932">
        <ele>63.525373</ele>
        <time>2020-07-27T10:25:46.364Z</time>
      </trkpt>
      <trkpt lat="61.34748" lon="5.09963">
        <ele>63.02261</ele>
        <time>2020-07-27T10:25:48.349Z</time>
      </trkpt>
      <trkpt lat="61.34752" lon="5.09996">
        <ele>62.502686</ele>
        <time>2020-07-27T10:25:50.357Z</time>
      </trkpt>
      <trkpt lat="61.34756" lon="5.10029">
        <ele>61.972251</ele>
        <time>2020-07-27T10:25:52.385Z</time>
      </trkpt>
      <trkpt lat="61.34759" lon="5.10063">
        <ele>61.446157</ele>
        <time>2020-07-27T10:25:54.374Z</time>
      </trkpt>
      <trkpt lat="61.34764" lon="5.10095">
        <ele>60.92071</ele>
        <time>2020-07-27T10:25:56.355Z</time>
      </trkpt>
      <trkpt lat="61.34771" lon="5.10123">
        <ele>60.438552</ele>
        <time>2020-07-27T10:25:58.377Z</time>
      </trkpt>
      <trkpt lat="61.3478" lon="5.1015">
        <ele>59.934988</ele>
        <time>2020-07-27T10:26:00.341Z</time>
      </trkpt>
      <trkpt lat="61.3479" lon="5.10176">
        <ele>59.271401</ele>
        <time>2020-07-27T10:26:02.350Z</time>
      </trkpt>
      <trkpt lat="61.34803" lon="5.10198">
        <ele>58.461786</ele>
        <time>2020-07-27T10:26:04.372Z</time>
      </trkpt>
      <trkpt lat="61.34816" lon="5.10218">
        <ele>57.68378</ele>
        <time>2020-07-27T10:26:06.374Z</time>
      </trkpt>
      <trkpt lat="61.3483" lon="5.10234">
        <ele>56.907865</ele>
        <time>2020-07-27T10:26:08.384Z</time>
      </trkpt>
      <trkpt lat="61.34846" lon="5.10246">
        <ele>56.084737</ele>
        <time>2020-07-27T10:26:10.350Z</time>
      </trkpt>
      <trkpt lat="61.34862" lon="5.10257">
        <ele>55.259128</ele>
        <time>2020-07-27T10:26:12.370Z</time>
      </trkpt>
      <trkpt lat="61.34878" lon="5.10267">
        <ele>54.432974</ele>
        <time>2020-07-27T10:26:14.371Z</time>
      </trkpt>
      <trkpt lat="61.34894" lon="5.10279">
        <ele>53.613018</ele>
        <time>2020-07-27T10:26:16.393Z</time>
      </trkpt>
      <trkpt lat="61.34909" lon="5.10294">
        <ele>52.803787</ele>
        <time>2020-07-27T10:26:18.359Z</time>
      </trkpt>
      <trkpt lat="61.34924" lon="5.10312">
        <ele>51.962486</ele>
        <time>2020-07-27T10:26:20.364Z</time>
      </trkpt>
      <trkpt lat="61.34936" lon="5.10338">
        <ele>51.124962</ele>
        <time>2020-07-27T10:26:22.346Z</time>
      </trkpt>
      <trkpt lat="61.34943" lon="5.1037">
        <ele>51.15903</ele>
        <time>2020-07-27T10:26:24.366Z</time>
      </trkpt>
      <trkpt lat="61.34946" lon="5.10402">
        <ele>51.407374</ele>
        <time>2020-07-27T10:26:26.357Z</time>
      </trkpt>
      <trkpt lat="61.34947" lon="5.10433">
        <ele>51.644104</ele>
        <time>2020-07-27T10:26:28.378Z</time>
      </trkpt>
      <trkpt lat="61.34949" lon="5.10459">
        <ele>51.842321</ele>
        <time>2020-07-27T10:26:30.428Z</time>
      </trkpt>
      <trkpt lat="61.34951" lon="5.1048">
        <ele>52.003983</ele>
        <time>2020-07-27T10:26:32.364Z</time>
      </trkpt>
      <trkpt lat="61.34955" lon="5.10503">
        <ele>52.194823</ele>
        <time>2020-07-27T10:26:35.354Z</time>
      </trkpt>
      <trkpt lat="61.34961" lon="5.10523">
        <ele>52.374484</ele>
        <time>2020-07-27T10:26:38.359Z</time>
      </trkpt>
      <trkpt lat="61.34968" lon="5.10541">
        <ele>52.556262</ele>
        <time>2020-07-27T10:26:41.384Z</time>
      </trkpt>
      <trkpt lat="61.34977" lon="5.10557">
        <ele>52.739185</ele>
        <time>2020-07-27T10:26:44.378Z</time>
      </trkpt>
      <trkpt lat="61.34987" lon="5.10574">
        <ele>52.936438</ele>
        <time>2020-07-27T10:26:47.358Z</time>
      </trkpt>
      <trkpt lat="61.34997" lon="5.1059">
        <ele>53.140908</ele>
        <time>2020-07-27T10:26:50.344Z</time>
      </trkpt>
      <trkpt lat="61.35007" lon="5.10606">
        <ele>53.346847</ele>
        <time>2020-07-27T10:26:53.348Z</time>
      </trkpt>
      <trkpt lat="61.35018" lon="5.10623">
        <ele>53.559579</ele>
        <time>2020-07-27T10:26:56.365Z</time>
      </trkpt>
      <trkpt lat="61.35026" lon="5.10633">
        <ele>53.704977</ele>
        <time>2020-07-27T10:26:58.371Z</time>
      </trkpt>
      <trkpt lat="61.35033" lon="5.10645">
        <ele>53.833662</ele>
        <time>2020-07-27T10:27:00.360Z</time>
      </trkpt>
      <trkpt lat="61.35041" lon="5.10657">
        <ele>53.924524</ele>
        <time>2020-07-27T10:27:02.350Z</time>
      </trkpt>
      <trkpt lat="61.35049" lon="5.10668">
        <ele>54.015614</ele>
        <time>2020-07-27T10:27:04.355Z</time>
      </trkpt>
      <trkpt lat="61.35056" lon="5.10679">
        <ele>54.105389</ele>
        <time>2020-07-27T10:27:06.348Z</time>
      </trkpt>
      <trkpt lat="61.35064" lon="5.1069">
        <ele>54.192531</ele>
        <time>2020-07-27T10:27:08.368Z</time>
      </trkpt>
      <trkpt lat="61.35071" lon="5.107">
        <ele>54.280476</ele>
        <time>2020-07-27T10:27:10.354Z</time>
      </trkpt>
      <trkpt lat="61.35079" lon="5.10711">
        <ele>54.368936</ele>
        <time>2020-07-27T10:27:12.355Z</time>
      </trkpt>
      <trkpt lat="61.35086" lon="5.10723">
        <ele>54.455888</ele>
        <time>2020-07-27T10:27:14.388Z</time>
      </trkpt>
      <trkpt lat="61.35096" lon="5.10739">
        <ele>54.580534</ele>
        <time>2020-07-27T10:27:17.336Z</time>
      </trkpt>
      <trkpt lat="61.35107" lon="5.10754">
        <ele>54.700607</ele>
        <time>2020-07-27T10:27:20.364Z</time>
      </trkpt>
      <trkpt lat="61.35117" lon="5.10768">
        <ele>54.818865</ele>
        <time>2020-07-27T10:27:23.355Z</time>
      </trkpt>
      <trkpt lat="61.35126" lon="5.10785">
        <ele>54.933947</ele>
        <time>2020-07-27T10:27:26.380Z</time>
      </trkpt>
      <trkpt lat="61.35135" lon="5.10801">
        <ele>55.049465</ele>
        <time>2020-07-27T10:27:29.367Z</time>
      </trkpt>
      <trkpt lat="61.35145" lon="5.10818">
        <ele>55.169443</ele>
        <time>2020-07-27T10:27:32.397Z</time>
      </trkpt>
      <trkpt lat="61.35153" lon="5.10834">
        <ele>55.282552</ele>
        <time>2020-07-27T10:27:35.341Z</time>
      </trkpt>
      <trkpt lat="61.35162" lon="5.10852">
        <ele>55.397725</ele>
        <time>2020-07-27T10:27:38.378Z</time>
      </trkpt>
      <trkpt lat="61.35169" lon="5.10868">
        <ele>55.50092</ele>
        <time>2020-07-27T10:27:41.353Z</time>
      </trkpt>
      <trkpt lat="61.35176" lon="5.10884">
        <ele>55.806778</ele>
        <time>2020-07-27T10:27:44.375Z</time>
      </trkpt>
      <trkpt lat="61.35185" lon="5.10901">
        <ele>56.267073</ele>
        <time>2020-07-27T10:27:47.401Z</time>
      </trkpt>
      <trkpt lat="61.35194" lon="5.10918">
        <ele>56.748489</ele>
        <time>2020-07-27T10:27:50.358Z</time>
      </trkpt>
      <trkpt lat="61.35203" lon="5.10935">
        <ele>57.2072</ele>
        <time>2020-07-27T10:27:53.359Z</time>
      </trkpt>
      <trkpt lat="61.35211" lon="5.10949">
        <ele>57.635813</ele>
        <time>2020-07-27T10:27:56.351Z</time>
      </trkpt>
      <trkpt lat="61.35221" lon="5.10963">
        <ele>58.101494</ele>
        <time>2020-07-27T10:27:59.377Z</time>
      </trkpt>
      <trkpt lat="61.35231" lon="5.10978">
        <ele>58.581171</ele>
        <time>2020-07-27T10:28:02.375Z</time>
      </trkpt>
      <trkpt lat="61.35241" lon="5.10994">
        <ele>59.050385</ele>
        <time>2020-07-27T10:28:05.353Z</time>
      </trkpt>
      <trkpt lat="61.35249" lon="5.11009">
        <ele>59.475807</ele>
        <time>2020-07-27T10:28:08.350Z</time>
      </trkpt>
      <trkpt lat="61.35258" lon="5.11021">
        <ele>59.889391</ele>
        <time>2020-07-27T10:28:11.373Z</time>
      </trkpt>
      <trkpt lat="61.35267" lon="5.11031">
        <ele>60.295884</ele>
        <time>2020-07-27T10:28:14.384Z</time>
      </trkpt>
      <trkpt lat="61.35276" lon="5.11043">
        <ele>60.722562</ele>
        <time>2020-07-27T10:28:18.387Z</time>
      </trkpt>
      <trkpt lat="61.35284" lon="5.11055">
        <ele>61.107269</ele>
        <time>2020-07-27T10:28:22.360Z</time>
      </trkpt>
      <trkpt lat="61.35294" lon="5.11068">
        <ele>61.56501</ele>
        <time>2020-07-27T10:28:27.358Z</time>
      </trkpt>
      <trkpt lat="61.35303" lon="5.1108">
        <ele>61.953902</ele>
        <time>2020-07-27T10:28:30.344Z</time>
      </trkpt>
      <trkpt lat="61.35311" lon="5.1109">
        <ele>62.340904</ele>
        <time>2020-07-27T10:28:33.347Z</time>
      </trkpt>
      <trkpt lat="61.35321" lon="5.11103">
        <ele>62.943873</ele>
        <time>2020-07-27T10:28:37.375Z</time>
      </trkpt>
      <trkpt lat="61.3533" lon="5.11114">
        <ele>63.60047</ele>
        <time>2020-07-27T10:28:41.367Z</time>
      </trkpt>
      <trkpt lat="61.35338" lon="5.11123">
        <ele>64.154714</ele>
        <time>2020-07-27T10:28:45.374Z</time>
      </trkpt>
      <trkpt lat="61.35348" lon="5.11134">
        <ele>64.817781</ele>
        <time>2020-07-27T10:28:50.352Z</time>
      </trkpt>
      <trkpt lat="61.35356" lon="5.11144">
        <ele>65.391127</ele>
        <time>2020-07-27T10:28:54.354Z</time>
      </trkpt>
      <trkpt lat="61.35365" lon="5.11155">
        <ele>66.046275</ele>
        <time>2020-07-27T10:28:59.353Z</time>
      </trkpt>
      <trkpt lat="61.35374" lon="5.11166">
        <ele>66.697141</ele>
        <time>2020-07-27T10:29:05.359Z</time>
      </trkpt>
      <trkpt lat="61.35383" lon="5.11175">
        <ele>67.290778</ele>
        <time>2020-07-27T10:29:11.354Z</time>
      </trkpt>
      <trkpt lat="61.35391" lon="5.11185">
        <ele>67.862931</ele>
        <time>2020-07-27T10:29:16.363Z</time>
      </trkpt>
      <trkpt lat="61.354" lon="5.11194">
        <ele>68.500622</ele>
        <time>2020-07-27T10:29:21.366Z</time>
      </trkpt>
      <trkpt lat="61.35408" lon="5.11204">
        <ele>69.069888</ele>
        <time>2020-07-27T10:29:26.372Z</time>
      </trkpt>
      <trkpt lat="61.35418" lon="5.11214">
        <ele>69.734355</ele>
        <time>2020-07-27T10:29:32.379Z</time>
      </trkpt>
      <trkpt lat="61.35426" lon="5.11225">
        <ele>70.33205</ele>
        <time>2020-07-27T10:29:37.344Z</time>
      </trkpt>
      <trkpt lat="61.35434" lon="5.11235">
        <ele>70.898052</ele>
        <time>2020-07-27T10:29:41.355Z</time>
      </trkpt>
      <trkpt lat="61.35443" lon="5.11247">
        <ele>71.566004</ele>
        <time>2020-07-27T10:29:46.368Z</time>
      </trkpt>
      <trkpt lat="61.35452" lon="5.11258">
        <ele>72.179487</ele>
        <time>2020-07-27T10:29:51.359Z</time>
      </trkpt>
      <trkpt lat="61.35459" lon="5.11269">
        <ele>72.749277</ele>
        <time>2020-07-27T10:29:56.363Z</time>
      </trkpt>
      <trkpt lat="61.35469" lon="5.11279">
        <ele>73.414994</ele>
        <time>2020-07-27T10:30:01.367Z</time>
      </trkpt>
      <trkpt lat="61.35479" lon="5.11288">
        <ele>73.784477</ele>
        <time>2020-07-27T10:30:05.362Z</time>
      </trkpt>
      <trkpt lat="61.35487" lon="5.11297">
        <ele>74.0195</ele>
        <time>2020-07-27T10:30:08.361Z</time>
      </trkpt>
      <trkpt lat="61.35497" lon="5.11305">
        <ele>74.286429</ele>
        <time>2020-07-27T10:30:12.359Z</time>
      </trkpt>
      <trkpt lat="61.35507" lon="5.11306">
        <ele>74.540302</ele>
        <time>2020-07-27T10:30:16.377Z</time>
      </trkpt>
      <trkpt lat="61.35517" lon="5.11308">
        <ele>74.78399</ele>
        <time>2020-07-27T10:30:20.354Z</time>
      </trkpt>
      <trkpt lat="61.35527" lon="5.11309">
        <ele>75.055195</ele>
        <time>2020-07-27T10:30:25.360Z</time>
      </trkpt>
      <trkpt lat="61.35537" lon="5.11309">
        <ele>75.29559</ele>
        <time>2020-07-27T10:30:30.363Z</time>
      </trkpt>
      <trkpt lat="61.35547" lon="5.11309">
        <ele>75.558749</ele>
        <time>2020-07-27T10:30:35.371Z</time>
      </trkpt>
      <trkpt lat="61.35557" lon="5.1131">
        <ele>75.81687</ele>
        <time>2020-07-27T10:30:40.370Z</time>
      </trkpt>
      <trkpt lat="61.35567" lon="5.11311">
        <ele>76.057623</ele>
        <time>2020-07-27T10:30:45.395Z</time>
      </trkpt>
      <trkpt lat="61.35576" lon="5.11309">
        <ele>76.298788</ele>
        <time>2020-07-27T10:30:50.358Z</time>
      </trkpt>
      <trkpt lat="61.35585" lon="5.11309">
        <ele>76.526519</ele>
        <time>2020-07-27T10:30:55.395Z</time>
      </trkpt>
      <trkpt lat="61.35596" lon="5.11309">
        <ele>76.789677</ele>
        <time>2020-07-27T10:31:00.351Z</time>
      </trkpt>
      <trkpt lat="61.35606" lon="5.11309">
        <ele>77.055389</ele>
        <time>2020-07-27T10:31:05.394Z</time>
      </trkpt>
      <trkpt lat="61.35617" lon="5.1131">
        <ele>77.32121</ele>
        <time>2020-07-27T10:31:10.377Z</time>
      </trkpt>
      <trkpt lat="61.35626" lon="5.11313">
        <ele>77.549732</ele>
        <time>2020-07-27T10:31:14.350Z</time>
      </trkpt>
      <trkpt lat="61.35635" lon="5.11317">
        <ele>77.798438</ele>
        <time>2020-07-27T10:31:18.354Z</time>
      </trkpt>
      <trkpt lat="61.35644" lon="5.11323">
        <ele>78.036788</ele>
        <time>2020-07-27T10:31:22.353Z</time>
      </trkpt>
      <trkpt lat="61.35655" lon="5.11331">
        <ele>78.313898</ele>
        <time>2020-07-27T10:31:27.353Z</time>
      </trkpt>
      <trkpt lat="61.35663" lon="5.11341">
        <ele>78.557746</ele>
        <time>2020-07-27T10:31:31.373Z</time>
      </trkpt>
      <trkpt lat="61.35672" lon="5.11357">
        <ele>78.855225</ele>
        <time>2020-07-27T10:31:35.348Z</time>
      </trkpt>
      <trkpt lat="61.35679" lon="5.11372">
        <ele>79.101973</ele>
        <time>2020-07-27T10:31:38.362Z</time>
      </trkpt>
      <trkpt lat="61.35686" lon="5.11391">
        <ele>79.379034</ele>
        <time>2020-07-27T10:31:42.352Z</time>
      </trkpt>
      <trkpt lat="61.35691" lon="5.1141">
        <ele>79.651451</ele>
        <time>2020-07-27T10:31:46.353Z</time>
      </trkpt>
      <trkpt lat="61.35695" lon="5.11428">
        <ele>79.883142</ele>
        <time>2020-07-27T10:31:49.384Z</time>
      </trkpt>
      <trkpt lat="61.35698" lon="5.11448">
        <ele>80.129766</ele>
        <time>2020-07-27T10:31:52.358Z</time>
      </trkpt>
      <trkpt lat="61.35702" lon="5.11467">
        <ele>80.384206</ele>
        <time>2020-07-27T10:31:55.354Z</time>
      </trkpt>
      <trkpt lat="61.35706" lon="5.11487">
        <ele>80.641486</ele>
        <time>2020-07-27T10:31:58.379Z</time>
      </trkpt>
      <trkpt lat="61.35709" lon="5.11507">
        <ele>80.895362</ele>
        <time>2020-07-27T10:32:01.348Z</time>
      </trkpt>
      <trkpt lat="61.35713" lon="5.11527">
        <ele>81.14391</ele>
        <time>2020-07-27T10:32:04.370Z</time>
      </trkpt>
      <trkpt lat="61.35715" lon="5.11546">
        <ele>81.383314</ele>
        <time>2020-07-27T10:32:07.403Z</time>
      </trkpt>
      <trkpt lat="61.35719" lon="5.11567">
        <ele>81.647562</ele>
        <time>2020-07-27T10:32:10.356Z</time>
      </trkpt>
      <trkpt lat="61.35724" lon="5.11587">
        <ele>81.911625</ele>
        <time>2020-07-27T10:32:13.348Z</time>
      </trkpt>
      <trkpt lat="61.35729" lon="5.11605">
        <ele>82.166635</ele>
        <time>2020-07-27T10:32:16.337Z</time>
      </trkpt>
      <trkpt lat="61.35734" lon="5.11623">
        <ele>82.419056</ele>
        <time>2020-07-27T10:32:19.353Z</time>
      </trkpt>
      <trkpt lat="61.3574" lon="5.11641">
        <ele>82.617906</ele>
        <time>2020-07-27T10:32:22.367Z</time>
      </trkpt>
      <trkpt lat="61.35745" lon="5.11657">
        <ele>82.623458</ele>
        <time>2020-07-27T10:32:25.358Z</time>
      </trkpt>
      <trkpt lat="61.35752" lon="5.11673">
        <ele>82.628906</ele>
        <time>2020-07-27T10:32:28.347Z</time>
      </trkpt>
      <trkpt lat="61.35758" lon="5.11687">
        <ele>82.634119</ele>
        <time>2020-07-27T10:32:31.362Z</time>
      </trkpt>
      <trkpt lat="61.35766" lon="5.11704">
        <ele>82.640885</ele>
        <time>2020-07-27T10:32:35.349Z</time>
      </trkpt>
      <trkpt lat="61.35774" lon="5.11717">
        <ele>82.646355</ele>
        <time>2020-07-27T10:32:38.352Z</time>
      </trkpt>
      <trkpt lat="61.35781" lon="5.11728">
        <ele>82.651555</ele>
        <time>2020-07-27T10:32:41.348Z</time>
      </trkpt>
      <trkpt lat="61.35791" lon="5.11739">
        <ele>82.657632</ele>
        <time>2020-07-27T10:32:45.413Z</time>
      </trkpt>
      <trkpt lat="61.35799" lon="5.11747">
        <ele>82.662727</ele>
        <time>2020-07-27T10:32:48.359Z</time>
      </trkpt>
      <trkpt lat="61.35808" lon="5.11755">
        <ele>82.668393</ele>
        <time>2020-07-27T10:32:51.372Z</time>
      </trkpt>
      <trkpt lat="61.35817" lon="5.11758">
        <ele>82.67387</ele>
        <time>2020-07-27T10:32:54.345Z</time>
      </trkpt>
      <trkpt lat="61.35826" lon="5.11762">
        <ele>82.679053</ele>
        <time>2020-07-27T10:32:57.370Z</time>
      </trkpt>
      <trkpt lat="61.35837" lon="5.11765">
        <ele>82.685149</ele>
        <time>2020-07-27T10:33:00.348Z</time>
      </trkpt>
      <trkpt lat="61.35848" lon="5.11768">
        <ele>82.691277</ele>
        <time>2020-07-27T10:33:03.373Z</time>
      </trkpt>
      <trkpt lat="61.35858" lon="5.11771">
        <ele>82.697052</ele>
        <time>2020-07-27T10:33:06.340Z</time>
      </trkpt>
      <trkpt lat="61.35867" lon="5.11775">
        <ele>82.70252</ele>
        <time>2020-07-27T10:33:09.362Z</time>
      </trkpt>
      <trkpt lat="61.35877" lon="5.11778">
        <ele>82.708271</ele>
        <time>2020-07-27T10:33:12.358Z</time>
      </trkpt>
      <trkpt lat="61.35888" lon="5.11781">
        <ele>82.71441</ele>
        <time>2020-07-27T10:33:15.358Z</time>
      </trkpt>
      <trkpt lat="61.359" lon="5.11785">
        <ele>82.668348</ele>
        <time>2020-07-27T10:33:18.359Z</time>
      </trkpt>
      <trkpt lat="61.35911" lon="5.11789">
        <ele>82.524087</ele>
        <time>2020-07-27T10:33:21.370Z</time>
      </trkpt>
      <trkpt lat="61.35922" lon="5.11794">
        <ele>82.37637</ele>
        <time>2020-07-27T10:33:24.354Z</time>
      </trkpt>
      <trkpt lat="61.35934" lon="5.11798">
        <ele>82.223496</ele>
        <time>2020-07-27T10:33:27.347Z</time>
      </trkpt>
      <trkpt lat="61.35947" lon="5.11801">
        <ele>82.06323</ele>
        <time>2020-07-27T10:33:30.344Z</time>
      </trkpt>
      <trkpt lat="61.35959" lon="5.11806">
        <ele>81.908425</ele>
        <time>2020-07-27T10:33:33.386Z</time>
      </trkpt>
      <trkpt lat="61.35971" lon="5.1181">
        <ele>81.752968</ele>
        <time>2020-07-27T10:33:36.363Z</time>
      </trkpt>
      <trkpt lat="61.35984" lon="5.11814">
        <ele>81.594931</ele>
        <time>2020-07-27T10:33:39.395Z</time>
      </trkpt>
      <trkpt lat="61.35996" lon="5.11818">
        <ele>81.431729</ele>
        <time>2020-07-27T10:33:42.348Z</time>
      </trkpt>
      <trkpt lat="61.3601" lon="5.11823">
        <ele>81.263882</ele>
        <time>2020-07-27T10:33:45.349Z</time>
      </trkpt>
      <trkpt lat="61.36019" lon="5.11827">
        <ele>81.146992</ele>
        <time>2020-07-27T10:33:47.367Z</time>
      </trkpt>
      <trkpt lat="61.36028" lon="5.1183">
        <ele>81.033535</ele>
        <time>2020-07-27T10:33:49.359Z</time>
      </trkpt>
      <trkpt lat="61.3604" lon="5.11833">
        <ele>80.873588</ele>
        <time>2020-07-27T10:33:52.354Z</time>
      </trkpt>
      <trkpt lat="61.36052" lon="5.11836">
        <ele>80.717312</ele>
        <time>2020-07-27T10:33:55.377Z</time>
      </trkpt>
      <trkpt lat="61.36065" lon="5.11839">
        <ele>80.558832</ele>
        <time>2020-07-27T10:33:58.359Z</time>
      </trkpt>
      <trkpt lat="61.36078" lon="5.11842">
        <ele>80.480123</ele>
        <time>2020-07-27T10:34:01.377Z</time>
      </trkpt>
      <trkpt lat="61.36091" lon="5.11843">
        <ele>80.550022</ele>
        <time>2020-07-27T10:34:04.354Z</time>
      </trkpt>
      <trkpt lat="61.36104" lon="5.11844">
        <ele>80.621471</ele>
        <time>2020-07-27T10:34:07.354Z</time>
      </trkpt>
      <trkpt lat="61.36117" lon="5.11844">
        <ele>80.691261</ele>
        <time>2020-07-27T10:34:10.348Z</time>
      </trkpt>
      <trkpt lat="61.3613" lon="5.11842">
        <ele>80.76163</ele>
        <time>2020-07-27T10:34:13.372Z</time>
      </trkpt>
      <trkpt lat="61.36143" lon="5.11842">
        <ele>80.829771</ele>
        <time>2020-07-27T10:34:16.362Z</time>
      </trkpt>
      <trkpt lat="61.36155" lon="5.1184">
        <ele>80.893213</ele>
        <time>2020-07-27T10:34:19.360Z</time>
      </trkpt>
      <trkpt lat="61.36168" lon="5.11837">
        <ele>80.964063</ele>
        <time>2020-07-27T10:34:22.377Z</time>
      </trkpt>
      <trkpt lat="61.36179" lon="5.11834">
        <ele>81.024658</ele>
        <time>2020-07-27T10:34:25.355Z</time>
      </trkpt>
      <trkpt lat="61.36186" lon="5.11814">
        <ele>81.089814</ele>
        <time>2020-07-27T10:34:28.354Z</time>
      </trkpt>
      <trkpt lat="61.36187" lon="5.11795">
        <ele>81.13904</ele>
        <time>2020-07-27T10:34:30.370Z</time>
      </trkpt>
      <trkpt lat="61.36188" lon="5.11775">
        <ele>81.191878</ele>
        <time>2020-07-27T10:34:32.357Z</time>
      </trkpt>
      <trkpt lat="61.3619" lon="5.11754">
        <ele>81.246578</ele>
        <time>2020-07-27T10:34:34.396Z</time>
      </trkpt>
      <trkpt lat="61.36193" lon="5.11733">
        <ele>81.304027</ele>
        <time>2020-07-27T10:34:36.371Z</time>
      </trkpt>
      <trkpt lat="61.36197" lon="5.11713">
        <ele>81.36095</ele>
        <time>2020-07-27T10:34:38.350Z</time>
      </trkpt>
      <trkpt lat="61.36202" lon="5.11692">
        <ele>81.420565</ele>
        <time>2020-07-27T10:34:40.366Z</time>
      </trkpt>
      <trkpt lat="61.36208" lon="5.11672">
        <ele>81.134913</ele>
        <time>2020-07-27T10:34:42.377Z</time>
      </trkpt>
      <trkpt lat="61.36215" lon="5.11652">
        <ele>80.816393</ele>
        <time>2020-07-27T10:34:44.346Z</time>
      </trkpt>
      <trkpt lat="61.36222" lon="5.11633">
        <ele>80.485139</ele>
        <time>2020-07-27T10:34:46.368Z</time>
      </trkpt>
      <trkpt lat="61.36229" lon="5.11613">
        <ele>80.149605</ele>
        <time>2020-07-27T10:34:48.366Z</time>
      </trkpt>
      <trkpt lat="61.36237" lon="5.11593">
        <ele>79.812094</ele>
        <time>2020-07-27T10:34:50.379Z</time>
      </trkpt>
      <trkpt lat="61.36244" lon="5.11574">
        <ele>79.470009</ele>
        <time>2020-07-27T10:34:52.351Z</time>
      </trkpt>
      <trkpt lat="61.36252" lon="5.11554">
        <ele>79.127215</ele>
        <time>2020-07-27T10:34:54.392Z</time>
      </trkpt>
      <trkpt lat="61.36259" lon="5.11534">
        <ele>78.78585</ele>
        <time>2020-07-27T10:34:56.412Z</time>
      </trkpt>
      <trkpt lat="61.36267" lon="5.11514">
        <ele>78.444057</ele>
        <time>2020-07-27T10:34:58.352Z</time>
      </trkpt>
      <trkpt lat="61.36275" lon="5.11495">
        <ele>78.098835</ele>
        <time>2020-07-27T10:35:00.389Z</time>
      </trkpt>
      <trkpt lat="61.36283" lon="5.11475">
        <ele>77.747499</ele>
        <time>2020-07-27T10:35:02.353Z</time>
      </trkpt>
      <trkpt lat="61.36292" lon="5.11454">
        <ele>77.384314</ele>
        <time>2020-07-27T10:35:04.375Z</time>
      </trkpt>
      <trkpt lat="61.363" lon="5.11433">
        <ele>77.013855</ele>
        <time>2020-07-27T10:35:06.349Z</time>
      </trkpt>
      <trkpt lat="61.36309" lon="5.1141">
        <ele>76.619194</ele>
        <time>2020-07-27T10:35:08.394Z</time>
      </trkpt>
      <trkpt lat="61.36319" lon="5.11388">
        <ele>76.093474</ele>
        <time>2020-07-27T10:35:10.353Z</time>
      </trkpt>
      <trkpt lat="61.3633" lon="5.11365">
        <ele>75.37705</ele>
        <time>2020-07-27T10:35:12.393Z</time>
      </trkpt>
      <trkpt lat="61.36343" lon="5.11343">
        <ele>74.616191</ele>
        <time>2020-07-27T10:35:14.351Z</time>
      </trkpt>
      <trkpt lat="61.36358" lon="5.11324">
        <ele>73.797597</ele>
        <time>2020-07-27T10:35:16.376Z</time>
      </trkpt>
      <trkpt lat="61.36367" lon="5.11317">
        <ele>73.362315</ele>
        <time>2020-07-27T10:35:17.352Z</time>
      </trkpt>
      <trkpt lat="61.36377" lon="5.11312">
        <ele>72.909155</ele>
        <time>2020-07-27T10:35:18.382Z</time>
      </trkpt>
      <trkpt lat="61.36387" lon="5.11308">
        <ele>72.442718</ele>
        <time>2020-07-27T10:35:19.348Z</time>
      </trkpt>
      <trkpt lat="61.36397" lon="5.11306">
        <ele>71.972014</ele>
        <time>2020-07-27T10:35:20.353Z</time>
      </trkpt>
      <trkpt lat="61.36408" lon="5.11306">
        <ele>71.475577</ele>
        <time>2020-07-27T10:35:21.351Z</time>
      </trkpt>
      <trkpt lat="61.36419" lon="5.11307">
        <ele>70.955262</ele>
        <time>2020-07-27T10:35:22.375Z</time>
      </trkpt>
      <trkpt lat="61.36431" lon="5.11311">
        <ele>70.408029</ele>
        <time>2020-07-27T10:35:23.359Z</time>
      </trkpt>
      <trkpt lat="61.36442" lon="5.11315">
        <ele>69.878837</ele>
        <time>2020-07-27T10:35:24.357Z</time>
      </trkpt>
      <trkpt lat="61.36453" lon="5.11322">
        <ele>69.371009</ele>
        <time>2020-07-27T10:35:25.374Z</time>
      </trkpt>
      <trkpt lat="61.36462" lon="5.11329">
        <ele>68.891215</ele>
        <time>2020-07-27T10:35:26.356Z</time>
      </trkpt>
      <trkpt lat="61.36472" lon="5.11339">
        <ele>68.417425</ele>
        <time>2020-07-27T10:35:27.379Z</time>
      </trkpt>
      <trkpt lat="61.36481" lon="5.11349">
        <ele>67.962918</ele>
        <time>2020-07-27T10:35:28.355Z</time>
      </trkpt>
      <trkpt lat="61.3649" lon="5.11363">
        <ele>67.560716</ele>
        <time>2020-07-27T10:35:29.384Z</time>
      </trkpt>
      <trkpt lat="61.36498" lon="5.11378">
        <ele>67.144634</ele>
        <time>2020-07-27T10:35:30.355Z</time>
      </trkpt>
      <trkpt lat="61.36506" lon="5.11398">
        <ele>66.698847</ele>
        <time>2020-07-27T10:35:31.365Z</time>
      </trkpt>
      <trkpt lat="61.36513" lon="5.11419">
        <ele>66.239679</ele>
        <time>2020-07-27T10:35:32.347Z</time>
      </trkpt>
      <trkpt lat="61.3652" lon="5.11441">
        <ele>65.777344</ele>
        <time>2020-07-27T10:35:33.365Z</time>
      </trkpt>
      <trkpt lat="61.36526" lon="5.11464">
        <ele>65.314302</ele>
        <time>2020-07-27T10:35:34.355Z</time>
      </trkpt>
      <trkpt lat="61.36533" lon="5.11485">
        <ele>64.871352</ele>
        <time>2020-07-27T10:35:35.355Z</time>
      </trkpt>
      <trkpt lat="61.3654" lon="5.11503">
        <ele>64.444515</ele>
        <time>2020-07-27T10:35:36.348Z</time>
      </trkpt>
      <trkpt lat="61.36548" lon="5.11519">
        <ele>64.022548</ele>
        <time>2020-07-27T10:35:37.396Z</time>
      </trkpt>
      <trkpt lat="61.36558" lon="5.1153">
        <ele>63.633298</ele>
        <time>2020-07-27T10:35:38.382Z</time>
      </trkpt>
      <trkpt lat="61.36566" lon="5.11537">
        <ele>63.289734</ele>
        <time>2020-07-27T10:35:39.369Z</time>
      </trkpt>
      <trkpt lat="61.36576" lon="5.1154">
        <ele>62.93857</ele>
        <time>2020-07-27T10:35:40.355Z</time>
      </trkpt>
      <trkpt lat="61.36585" lon="5.11539">
        <ele>62.594766</ele>
        <time>2020-07-27T10:35:41.350Z</time>
      </trkpt>
      <trkpt lat="61.36594" lon="5.11535">
        <ele>62.262911</ele>
        <time>2020-07-27T10:35:42.364Z</time>
      </trkpt>
      <trkpt lat="61.36609" lon="5.11521">
        <ele>61.641979</ele>
        <time>2020-07-27T10:35:44.356Z</time>
      </trkpt>
      <trkpt lat="61.36622" lon="5.11499">
        <ele>61.522631</ele>
        <time>2020-07-27T10:35:46.380Z</time>
      </trkpt>
      <trkpt lat="61.3663" lon="5.11473">
        <ele>61.59654</ele>
        <time>2020-07-27T10:35:48.351Z</time>
      </trkpt>
      <trkpt lat="61.36637" lon="5.1145">
        <ele>61.659457</ele>
        <time>2020-07-27T10:35:50.377Z</time>
      </trkpt>
      <trkpt lat="61.36643" lon="5.11428">
        <ele>61.721227</ele>
        <time>2020-07-27T10:35:52.347Z</time>
      </trkpt>
      <trkpt lat="61.36649" lon="5.11409">
        <ele>61.774487</ele>
        <time>2020-07-27T10:35:54.351Z</time>
      </trkpt>
      <trkpt lat="61.36655" lon="5.11392">
        <ele>61.82267</ele>
        <time>2020-07-27T10:35:56.370Z</time>
      </trkpt>
      <trkpt lat="61.36663" lon="5.1137">
        <ele>61.88806</ele>
        <time>2020-07-27T10:35:59.369Z</time>
      </trkpt>
      <trkpt lat="61.3667" lon="5.11348">
        <ele>61.950508</ele>
        <time>2020-07-27T10:36:02.352Z</time>
      </trkpt>
      <trkpt lat="61.36678" lon="5.11325">
        <ele>62.016661</ele>
        <time>2020-07-27T10:36:05.366Z</time>
      </trkpt>
      <trkpt lat="61.36683" lon="5.11309">
        <ele>62.060971</ele>
        <time>2020-07-27T10:36:07.352Z</time>
      </trkpt>
      <trkpt lat="61.36688" lon="5.11293">
        <ele>62.107239</ele>
        <time>2020-07-27T10:36:09.363Z</time>
      </trkpt>
      <trkpt lat="61.36694" lon="5.11278">
        <ele>62.151788</ele>
        <time>2020-07-27T10:36:11.386Z</time>
      </trkpt>
      <trkpt lat="61.36701" lon="5.11255">
        <ele>62.216076</ele>
        <time>2020-07-27T10:36:14.390Z</time>
      </trkpt>
      <trkpt lat="61.36706" lon="5.11239">
        <ele>62.261119</ele>
        <time>2020-07-27T10:36:16.360Z</time>
      </trkpt>
      <trkpt lat="61.3671" lon="5.11222">
        <ele>62.30692</ele>
        <time>2020-07-27T10:36:18.387Z</time>
      </trkpt>
      <trkpt lat="61.36715" lon="5.11206">
        <ele>62.344532</ele>
        <time>2020-07-27T10:36:20.419Z</time>
      </trkpt>
      <trkpt lat="61.3672" lon="5.11191">
        <ele>62.222912</ele>
        <time>2020-07-27T10:36:22.358Z</time>
      </trkpt>
      <trkpt lat="61.36726" lon="5.11174">
        <ele>62.095151</ele>
        <time>2020-07-27T10:36:24.378Z</time>
      </trkpt>
      <trkpt lat="61.36732" lon="5.11158">
        <ele>61.955015</ele>
        <time>2020-07-27T10:36:26.367Z</time>
      </trkpt>
      <trkpt lat="61.3674" lon="5.11141">
        <ele>61.802059</ele>
        <time>2020-07-27T10:36:28.351Z</time>
      </trkpt>
      <trkpt lat="61.36748" lon="5.11124">
        <ele>61.652367</ele>
        <time>2020-07-27T10:36:30.396Z</time>
      </trkpt>
      <trkpt lat="61.36754" lon="5.11107">
        <ele>61.513772</ele>
        <time>2020-07-27T10:36:32.361Z</time>
      </trkpt>
      <trkpt lat="61.36762" lon="5.11091">
        <ele>61.360452</ele>
        <time>2020-07-27T10:36:34.366Z</time>
      </trkpt>
      <trkpt lat="61.36772" lon="5.11074">
        <ele>61.189232</ele>
        <time>2020-07-27T10:36:36.372Z</time>
      </trkpt>
      <trkpt lat="61.36781" lon="5.11053">
        <ele>61.000184</ele>
        <time>2020-07-27T10:36:38.359Z</time>
      </trkpt>
      <trkpt lat="61.36793" lon="5.11031">
        <ele>60.784351</ele>
        <time>2020-07-27T10:36:40.368Z</time>
      </trkpt>
      <trkpt lat="61.36806" lon="5.11009">
        <ele>60.562421</ele>
        <time>2020-07-27T10:36:42.387Z</time>
      </trkpt>
      <trkpt lat="61.36817" lon="5.10986">
        <ele>60.347362</ele>
        <time>2020-07-27T10:36:44.367Z</time>
      </trkpt>
      <trkpt lat="61.36829" lon="5.10963">
        <ele>60.130426</ele>
        <time>2020-07-27T10:36:46.351Z</time>
      </trkpt>
      <trkpt lat="61.3684" lon="5.10941">
        <ele>59.922972</ele>
        <time>2020-07-27T10:36:48.352Z</time>
      </trkpt>
      <trkpt lat="61.36851" lon="5.10923">
        <ele>59.628841</ele>
        <time>2020-07-27T10:36:50.370Z</time>
      </trkpt>
      <trkpt lat="61.36861" lon="5.10908">
        <ele>59.343833</ele>
        <time>2020-07-27T10:36:52.370Z</time>
      </trkpt>
      <trkpt lat="61.36872" lon="5.10895">
        <ele>59.071544</ele>
        <time>2020-07-27T10:36:54.365Z</time>
      </trkpt>
      <trkpt lat="61.36882" lon="5.10886">
        <ele>58.823189</ele>
        <time>2020-07-27T10:36:56.352Z</time>
      </trkpt>
      <trkpt lat="61.36892" lon="5.1088">
        <ele>58.596363</ele>
        <time>2020-07-27T10:36:58.399Z</time>
      </trkpt>
      <trkpt lat="61.36905" lon="5.10875">
        <ele>58.307127</ele>
        <time>2020-07-27T10:37:01.369Z</time>
      </trkpt>
      <trkpt lat="61.36914" lon="5.10875">
        <ele>58.108551</ele>
        <time>2020-07-27T10:37:03.374Z</time>
      </trkpt>
      <trkpt lat="61.36924" lon="5.10877">
        <ele>57.892953</ele>
        <time>2020-07-27T10:37:05.367Z</time>
      </trkpt>
      <trkpt lat="61.36936" lon="5.10883">
        <ele>57.608329</ele>
        <time>2020-07-27T10:37:08.367Z</time>
      </trkpt>
      <trkpt lat="61.36946" lon="5.10887">
        <ele>57.403819</ele>
        <time>2020-07-27T10:37:10.381Z</time>
      </trkpt>
      <trkpt lat="61.36955" lon="5.10891">
        <ele>57.199103</ele>
        <time>2020-07-27T10:37:12.347Z</time>
      </trkpt>
      <trkpt lat="61.36963" lon="5.10895">
        <ele>56.998728</ele>
        <time>2020-07-27T10:37:14.367Z</time>
      </trkpt>
      <trkpt lat="61.36976" lon="5.10902">
        <ele>56.721465</ele>
        <time>2020-07-27T10:37:17.386Z</time>
      </trkpt>
      <trkpt lat="61.36987" lon="5.10908">
        <ele>56.469053</ele>
        <time>2020-07-27T10:37:20.365Z</time>
      </trkpt>
      <trkpt lat="61.36998" lon="5.10912">
        <ele>56.224546</ele>
        <time>2020-07-27T10:37:23.351Z</time>
      </trkpt>
      <trkpt lat="61.37009" lon="5.1092">
        <ele>55.969603</ele>
        <time>2020-07-27T10:37:26.393Z</time>
      </trkpt>
      <trkpt lat="61.37019" lon="5.10926">
        <ele>56.522734</ele>
        <time>2020-07-27T10:37:29.372Z</time>
      </trkpt>
      <trkpt lat="61.37029" lon="5.1093">
        <ele>57.142319</ele>
        <time>2020-07-27T10:37:32.356Z</time>
      </trkpt>
      <trkpt lat="61.37038" lon="5.10933">
        <ele>57.691343</ele>
        <time>2020-07-27T10:37:35.343Z</time>
      </trkpt>
      <trkpt lat="61.3705" lon="5.10934">
        <ele>58.422247</ele>
        <time>2020-07-27T10:37:39.361Z</time>
      </trkpt>
      <trkpt lat="61.37059" lon="5.10934">
        <ele>58.965694</ele>
        <time>2020-07-27T10:37:42.357Z</time>
      </trkpt>
      <trkpt lat="61.37069" lon="5.10931">
        <ele>59.545427</ele>
        <time>2020-07-27T10:37:45.363Z</time>
      </trkpt>
      <trkpt lat="61.37078" lon="5.10927">
        <ele>60.105234</ele>
        <time>2020-07-27T10:37:48.368Z</time>
      </trkpt>
      <trkpt lat="61.37088" lon="5.1092">
        <ele>60.749687</ele>
        <time>2020-07-27T10:37:52.338Z</time>
      </trkpt>
      <trkpt lat="61.37097" lon="5.10911">
        <ele>61.381644</ele>
        <time>2020-07-27T10:37:56.362Z</time>
      </trkpt>
      <trkpt lat="61.37106" lon="5.10902">
        <ele>61.966604</ele>
        <time>2020-07-27T10:38:00.366Z</time>
      </trkpt>
      <trkpt lat="61.37114" lon="5.10892">
        <ele>62.522396</ele>
        <time>2020-07-27T10:38:04.389Z</time>
      </trkpt>
      <trkpt lat="61.37123" lon="5.10879">
        <ele>63.192315</ele>
        <time>2020-07-27T10:38:09.373Z</time>
      </trkpt>
      <trkpt lat="61.3713" lon="5.10867">
        <ele>63.733767</ele>
        <time>2020-07-27T10:38:13.364Z</time>
      </trkpt>
      <trkpt lat="61.37137" lon="5.10854">
        <ele>64.322696</ele>
        <time>2020-07-27T10:38:17.351Z</time>
      </trkpt>
      <trkpt lat="61.37143" lon="5.1084">
        <ele>64.868025</ele>
        <time>2020-07-27T10:38:21.361Z</time>
      </trkpt>
      <trkpt lat="61.3715" lon="5.10824">
        <ele>65.471782</ele>
        <time>2020-07-27T10:38:26.366Z</time>
      </trkpt>
      <trkpt lat="61.37158" lon="5.10809">
        <ele>66.1091</ele>
        <time>2020-07-27T10:38:32.359Z</time>
      </trkpt>
      <trkpt lat="61.37164" lon="5.10793">
        <ele>66.730023</ele>
        <time>2020-07-27T10:38:38.362Z</time>
      </trkpt>
      <trkpt lat="61.37171" lon="5.10779">
        <ele>67.203189</ele>
        <time>2020-07-27T10:38:44.369Z</time>
      </trkpt>
      <trkpt lat="61.37178" lon="5.10766">
        <ele>67.638776</ele>
        <time>2020-07-27T10:38:49.354Z</time>
      </trkpt>
      <trkpt lat="61.37185" lon="5.10751">
        <ele>68.138168</ele>
        <time>2020-07-27T10:38:55.378Z</time>
      </trkpt>
      <trkpt lat="61.37194" lon="5.10739">
        <ele>68.633011</ele>
        <time>2020-07-27T10:39:01.359Z</time>
      </trkpt>
      <trkpt lat="61.37202" lon="5.10729">
        <ele>69.08833</ele>
        <time>2020-07-27T10:39:07.381Z</time>
      </trkpt>
      <trkpt lat="61.3721" lon="5.10716">
        <ele>69.590038</ele>
        <time>2020-07-27T10:39:14.355Z</time>
      </trkpt>
      <trkpt lat="61.37219" lon="5.1071">
        <ele>70.036908</ele>
        <time>2020-07-27T10:39:19.340Z</time>
      </trkpt>
      <trkpt lat="61.37228" lon="5.10703">
        <ele>70.517898</ele>
        <time>2020-07-27T10:39:24.370Z</time>
      </trkpt>
      <trkpt lat="61.37238" lon="5.10698">
        <ele>71.029169</ele>
        <time>2020-07-27T10:39:30.381Z</time>
      </trkpt>
      <trkpt lat="61.37248" lon="5.10694">
        <ele>71.506329</ele>
        <time>2020-07-27T10:39:35.355Z</time>
      </trkpt>
      <trkpt lat="61.37259" lon="5.10693">
        <ele>72.015328</ele>
        <time>2020-07-27T10:39:40.394Z</time>
      </trkpt>
      <trkpt lat="61.37268" lon="5.10691">
        <ele>72.480942</ele>
        <time>2020-07-27T10:39:44.363Z</time>
      </trkpt>
      <trkpt lat="61.37278" lon="5.10687">
        <ele>72.963282</ele>
        <time>2020-07-27T10:39:48.352Z</time>
      </trkpt>
      <trkpt lat="61.37289" lon="5.10683">
        <ele>73.478907</ele>
        <time>2020-07-27T10:39:52.392Z</time>
      </trkpt>
      <trkpt lat="61.37299" lon="5.1068">
        <ele>73.991289</ele>
        <time>2020-07-27T10:39:56.359Z</time>
      </trkpt>
      <trkpt lat="61.37309" lon="5.10675">
        <ele>74.488443</ele>
        <time>2020-07-27T10:40:00.363Z</time>
      </trkpt>
      <trkpt lat="61.3732" lon="5.1067">
        <ele>75.021217</ele>
        <time>2020-07-27T10:40:04.388Z</time>
      </trkpt>
      <trkpt lat="61.37331" lon="5.10666">
        <ele>75.475548</ele>
        <time>2020-07-27T10:40:08.356Z</time>
      </trkpt>
      <trkpt lat="61.37342" lon="5.10661">
        <ele>75.317228</ele>
        <time>2020-07-27T10:40:12.355Z</time>
      </trkpt>
      <trkpt lat="61.37354" lon="5.10656">
        <ele>75.151203</ele>
        <time>2020-07-27T10:40:16.349Z</time>
      </trkpt>
      <trkpt lat="61.37363" lon="5.10653">
        <ele>75.016104</ele>
        <time>2020-07-27T10:40:19.361Z</time>
      </trkpt>
      <trkpt lat="61.37372" lon="5.10649">
        <ele>74.886529</ele>
        <time>2020-07-27T10:40:22.399Z</time>
      </trkpt>
      <trkpt lat="61.37383" lon="5.10645">
        <ele>74.738185</ele>
        <time>2020-07-27T10:40:25.374Z</time>
      </trkpt>
      <trkpt lat="61.37393" lon="5.10643">
        <ele>74.587359</ele>
        <time>2020-07-27T10:40:28.371Z</time>
      </trkpt>
      <trkpt lat="61.37404" lon="5.1064">
        <ele>74.438456</ele>
        <time>2020-07-27T10:40:31.363Z</time>
      </trkpt>
      <trkpt lat="61.37414" lon="5.10637">
        <ele>74.291288</ele>
        <time>2020-07-27T10:40:34.344Z</time>
      </trkpt>
      <trkpt lat="61.37425" lon="5.10636">
        <ele>74.143368</ele>
        <time>2020-07-27T10:40:37.365Z</time>
      </trkpt>
      <trkpt lat="61.37436" lon="5.10637">
        <ele>73.985913</ele>
        <time>2020-07-27T10:40:40.358Z</time>
      </trkpt>
      <trkpt lat="61.37446" lon="5.10636">
        <ele>73.84256</ele>
        <time>2020-07-27T10:40:43.353Z</time>
      </trkpt>
      <trkpt lat="61.37456" lon="5.10638">
        <ele>73.700245</ele>
        <time>2020-07-27T10:40:46.376Z</time>
      </trkpt>
      <trkpt lat="61.37466" lon="5.10641">
        <ele>73.563203</ele>
        <time>2020-07-27T10:40:49.350Z</time>
      </trkpt>
      <trkpt lat="61.37476" lon="5.10649">
        <ele>73.407002</ele>
        <time>2020-07-27T10:40:52.360Z</time>
      </trkpt>
      <trkpt lat="61.37489" lon="5.1066">
        <ele>73.215624</ele>
        <time>2020-07-27T10:40:55.365Z</time>
      </trkpt>
      <trkpt lat="61.37499" lon="5.1067">
        <ele>73.064793</ele>
        <time>2020-07-27T10:40:57.396Z</time>
      </trkpt>
      <trkpt lat="61.3751" lon="5.10678">
        <ele>72.960893</ele>
        <time>2020-07-27T10:40:59.368Z</time>
      </trkpt>
      <trkpt lat="61.37522" lon="5.10685">
        <ele>72.93419</ele>
        <time>2020-07-27T10:41:01.366Z</time>
      </trkpt>
      <trkpt lat="61.37534" lon="5.1069">
        <ele>72.906676</ele>
        <time>2020-07-27T10:41:03.344Z</time>
      </trkpt>
      <trkpt lat="61.37545" lon="5.10692">
        <ele>72.882495</ele>
        <time>2020-07-27T10:41:05.357Z</time>
      </trkpt>
      <trkpt lat="61.37558" lon="5.10692">
        <ele>72.854912</ele>
        <time>2020-07-27T10:41:08.355Z</time>
      </trkpt>
      <trkpt lat="61.37569" lon="5.10691">
        <ele>72.829893</ele>
        <time>2020-07-27T10:41:11.385Z</time>
      </trkpt>
      <trkpt lat="61.3758" lon="5.10688">
        <ele>72.806106</ele>
        <time>2020-07-27T10:41:14.356Z</time>
      </trkpt>
      <trkpt lat="61.37591" lon="5.10687">
        <ele>72.78114</ele>
        <time>2020-07-27T10:41:18.344Z</time>
      </trkpt>
      <trkpt lat="61.37601" lon="5.10688">
        <ele>72.75968</ele>
        <time>2020-07-27T10:41:22.391Z</time>
      </trkpt>
      <trkpt lat="61.3761" lon="5.10691">
        <ele>72.739745</ele>
        <time>2020-07-27T10:41:25.363Z</time>
      </trkpt>
      <trkpt lat="61.3762" lon="5.10693">
        <ele>72.718592</ele>
        <time>2020-07-27T10:41:28.355Z</time>
      </trkpt>
      <trkpt lat="61.37629" lon="5.10696">
        <ele>72.697327</ele>
        <time>2020-07-27T10:41:31.382Z</time>
      </trkpt>
      <trkpt lat="61.37639" lon="5.10699">
        <ele>72.675062</ele>
        <time>2020-07-27T10:41:34.357Z</time>
      </trkpt>
      <trkpt lat="61.37652" lon="5.10703">
        <ele>72.647611</ele>
        <time>2020-07-27T10:41:37.395Z</time>
      </trkpt>
      <trkpt lat="61.37661" lon="5.1071">
        <ele>72.626678</ele>
        <time>2020-07-27T10:41:39.374Z</time>
      </trkpt>
      <trkpt lat="61.37671" lon="5.1072">
        <ele>72.601326</ele>
        <time>2020-07-27T10:41:41.375Z</time>
      </trkpt>
      <trkpt lat="61.37683" lon="5.10737">
        <ele>72.460529</ele>
        <time>2020-07-27T10:41:43.365Z</time>
      </trkpt>
      <trkpt lat="61.37697" lon="5.10757">
        <ele>72.005063</ele>
        <time>2020-07-27T10:41:45.375Z</time>
      </trkpt>
      <trkpt lat="61.37704" lon="5.10768">
        <ele>71.750115</ele>
        <time>2020-07-27T10:41:46.391Z</time>
      </trkpt>
      <trkpt lat="61.37713" lon="5.10781">
        <ele>71.470696</ele>
        <time>2020-07-27T10:41:47.353Z</time>
      </trkpt>
      <trkpt lat="61.37722" lon="5.10793">
        <ele>71.164139</ele>
        <time>2020-07-27T10:41:48.367Z</time>
      </trkpt>
      <trkpt lat="61.37732" lon="5.10806">
        <ele>70.85039</ele>
        <time>2020-07-27T10:41:49.361Z</time>
      </trkpt>
      <trkpt lat="61.37741" lon="5.10818">
        <ele>70.557488</ele>
        <time>2020-07-27T10:41:50.354Z</time>
      </trkpt>
      <trkpt lat="61.37749" lon="5.10831">
        <ele>70.27198</ele>
        <time>2020-07-27T10:41:51.359Z</time>
      </trkpt>
      <trkpt lat="61.37758" lon="5.10844">
        <ele>69.983564</ele>
        <time>2020-07-27T10:41:52.349Z</time>
      </trkpt>
      <trkpt lat="61.37767" lon="5.10855">
        <ele>69.684602</ele>
        <time>2020-07-27T10:41:53.371Z</time>
      </trkpt>
      <trkpt lat="61.37777" lon="5.10865">
        <ele>69.393899</ele>
        <time>2020-07-27T10:41:54.348Z</time>
      </trkpt>
      <trkpt lat="61.37786" lon="5.10873">
        <ele>69.120465</ele>
        <time>2020-07-27T10:41:55.353Z</time>
      </trkpt>
      <trkpt lat="61.37795" lon="5.10878">
        <ele>68.862155</ele>
        <time>2020-07-27T10:41:56.376Z</time>
      </trkpt>
      <trkpt lat="61.37804" lon="5.10883">
        <ele>68.605499</ele>
        <time>2020-07-27T10:41:57.361Z</time>
      </trkpt>
      <trkpt lat="61.37813" lon="5.10888">
        <ele>68.350621</ele>
        <time>2020-07-27T10:41:58.364Z</time>
      </trkpt>
      <trkpt lat="61.3783" lon="5.10901">
        <ele>67.870496</ele>
        <time>2020-07-27T10:42:00.357Z</time>
      </trkpt>
      <trkpt lat="61.37845" lon="5.10912">
        <ele>67.81742</ele>
        <time>2020-07-27T10:42:02.368Z</time>
      </trkpt>
      <trkpt lat="61.3786" lon="5.10922">
        <ele>68.109457</ele>
        <time>2020-07-27T10:42:04.354Z</time>
      </trkpt>
      <trkpt lat="61.37874" lon="5.10931">
        <ele>68.383819</ele>
        <time>2020-07-27T10:42:06.355Z</time>
      </trkpt>
      <trkpt lat="61.37887" lon="5.10938">
        <ele>68.637625</ele>
        <time>2020-07-27T10:42:08.355Z</time>
      </trkpt>
      <trkpt lat="61.37899" lon="5.10943">
        <ele>68.879823</ele>
        <time>2020-07-27T10:42:10.360Z</time>
      </trkpt>
      <trkpt lat="61.37911" lon="5.10945">
        <ele>69.103229</ele>
        <time>2020-07-27T10:42:12.377Z</time>
      </trkpt>
      <trkpt lat="61.37921" lon="5.10946">
        <ele>69.292042</ele>
        <time>2020-07-27T10:42:14.391Z</time>
      </trkpt>
      <trkpt lat="61.37931" lon="5.10946">
        <ele>69.473202</ele>
        <time>2020-07-27T10:42:16.361Z</time>
      </trkpt>
      <trkpt lat="61.3794" lon="5.10945">
        <ele>69.643098</ele>
        <time>2020-07-27T10:42:18.368Z</time>
      </trkpt>
      <trkpt lat="61.37951" lon="5.10945">
        <ele>69.862117</ele>
        <time>2020-07-27T10:42:21.362Z</time>
      </trkpt>
      <trkpt lat="61.37962" lon="5.10941">
        <ele>70.066225</ele>
        <time>2020-07-27T10:42:25.367Z</time>
      </trkpt>
      <trkpt lat="61.37972" lon="5.10935">
        <ele>70.266448</ele>
        <time>2020-07-27T10:42:30.366Z</time>
      </trkpt>
      <trkpt lat="61.37982" lon="5.10932">
        <ele>70.449493</ele>
        <time>2020-07-27T10:42:35.374Z</time>
      </trkpt>
      <trkpt lat="61.37991" lon="5.1093">
        <ele>70.620596</ele>
        <time>2020-07-27T10:42:40.353Z</time>
      </trkpt>
      <trkpt lat="61.38001" lon="5.10927">
        <ele>70.805774</ele>
        <time>2020-07-27T10:42:45.391Z</time>
      </trkpt>
      <trkpt lat="61.3801" lon="5.10924">
        <ele>70.985219</ele>
        <time>2020-07-27T10:42:50.349Z</time>
      </trkpt>
      <trkpt lat="61.38019" lon="5.10919">
        <ele>71.216673</ele>
        <time>2020-07-27T10:42:55.394Z</time>
      </trkpt>
      <trkpt lat="61.3803" lon="5.10917">
        <ele>71.495041</ele>
        <time>2020-07-27T10:43:00.398Z</time>
      </trkpt>
      <trkpt lat="61.3804" lon="5.10915">
        <ele>71.776213</ele>
        <time>2020-07-27T10:43:05.341Z</time>
      </trkpt>
      <trkpt lat="61.3805" lon="5.10913">
        <ele>72.038394</ele>
        <time>2020-07-27T10:43:09.366Z</time>
      </trkpt>
      <trkpt lat="61.38059" lon="5.10911">
        <ele>72.297158</ele>
        <time>2020-07-27T10:43:13.355Z</time>
      </trkpt>
      <trkpt lat="61.3807" lon="5.10905">
        <ele>72.602968</ele>
        <time>2020-07-27T10:43:17.364Z</time>
      </trkpt>
      <trkpt lat="61.38082" lon="5.109">
        <ele>72.929473</ele>
        <time>2020-07-27T10:43:21.351Z</time>
      </trkpt>
      <trkpt lat="61.38092" lon="5.10898">
        <ele>73.19153</ele>
        <time>2020-07-27T10:43:24.360Z</time>
      </trkpt>
      <trkpt lat="61.38101" lon="5.10896">
        <ele>73.437793</ele>
        <time>2020-07-27T10:43:27.382Z</time>
      </trkpt>
      <trkpt lat="61.38113" lon="5.10894">
        <ele>73.758915</ele>
        <time>2020-07-27T10:43:31.364Z</time>
      </trkpt>
      <trkpt lat="61.38125" lon="5.10894">
        <ele>74.081702</ele>
        <time>2020-07-27T10:43:35.381Z</time>
      </trkpt>
      <trkpt lat="61.38135" lon="5.10893">
        <ele>74.367476</ele>
        <time>2020-07-27T10:43:38.355Z</time>
      </trkpt>
      <trkpt lat="61.38146" lon="5.1089">
        <ele>74.648648</ele>
        <time>2020-07-27T10:43:41.354Z</time>
      </trkpt>
      <trkpt lat="61.38157" lon="5.10891">
        <ele>74.936468</ele>
        <time>2020-07-27T10:43:44.350Z</time>
      </trkpt>
      <trkpt lat="61.38167" lon="5.10894">
        <ele>75.21372</ele>
        <time>2020-07-27T10:43:47.371Z</time>
      </trkpt>
      <trkpt lat="61.38177" lon="5.10895">
        <ele>75.4971</ele>
        <time>2020-07-27T10:43:50.377Z</time>
      </trkpt>
      <trkpt lat="61.38188" lon="5.10897">
        <ele>75.793609</ele>
        <time>2020-07-27T10:43:53.357Z</time>
      </trkpt>
      <trkpt lat="61.38199" lon="5.109">
        <ele>75.917696</ele>
        <time>2020-07-27T10:43:56.384Z</time>
      </trkpt>
      <trkpt lat="61.38211" lon="5.10903">
        <ele>75.963689</ele>
        <time>2020-07-27T10:43:59.382Z</time>
      </trkpt>
      <trkpt lat="61.38224" lon="5.10907">
        <ele>76.014997</ele>
        <time>2020-07-27T10:44:02.360Z</time>
      </trkpt>
      <trkpt lat="61.38233" lon="5.1091">
        <ele>76.050836</ele>
        <time>2020-07-27T10:44:04.359Z</time>
      </trkpt>
      <trkpt lat="61.38241" lon="5.10912">
        <ele>76.086527</ele>
        <time>2020-07-27T10:44:06.345Z</time>
      </trkpt>
      <trkpt lat="61.38251" lon="5.10916">
        <ele>76.123782</ele>
        <time>2020-07-27T10:44:08.371Z</time>
      </trkpt>
      <trkpt lat="61.38264" lon="5.10919">
        <ele>76.176102</ele>
        <time>2020-07-27T10:44:11.393Z</time>
      </trkpt>
      <trkpt lat="61.38276" lon="5.10922">
        <ele>76.224682</ele>
        <time>2020-07-27T10:44:14.346Z</time>
      </trkpt>
      <trkpt lat="61.38288" lon="5.10917">
        <ele>76.271763</ele>
        <time>2020-07-27T10:44:17.371Z</time>
      </trkpt>
      <trkpt lat="61.38301" lon="5.10912">
        <ele>76.324257</ele>
        <time>2020-07-27T10:44:20.363Z</time>
      </trkpt>
      <trkpt lat="61.3831" lon="5.10909">
        <ele>76.361013</ele>
        <time>2020-07-27T10:44:22.381Z</time>
      </trkpt>
      <trkpt lat="61.38319" lon="5.10904">
        <ele>76.398469</ele>
        <time>2020-07-27T10:44:24.369Z</time>
      </trkpt>
      <trkpt lat="61.38328" lon="5.10899">
        <ele>76.434598</ele>
        <time>2020-07-27T10:44:26.357Z</time>
      </trkpt>
      <trkpt lat="61.38338" lon="5.10888">
        <ele>76.480637</ele>
        <time>2020-07-27T10:44:29.348Z</time>
      </trkpt>
      <trkpt lat="61.38347" lon="5.10878">
        <ele>76.521644</ele>
        <time>2020-07-27T10:44:32.350Z</time>
      </trkpt>
      <trkpt lat="61.38356" lon="5.10865">
        <ele>76.562795</ele>
        <time>2020-07-27T10:44:35.402Z</time>
      </trkpt>
      <trkpt lat="61.38364" lon="5.10851">
        <ele>76.630696</ele>
        <time>2020-07-27T10:44:38.370Z</time>
      </trkpt>
      <trkpt lat="61.38373" lon="5.10837">
        <ele>76.856925</ele>
        <time>2020-07-27T10:44:41.358Z</time>
      </trkpt>
      <trkpt lat="61.38381" lon="5.10821">
        <ele>77.078458</ele>
        <time>2020-07-27T10:44:44.357Z</time>
      </trkpt>
      <trkpt lat="61.38389" lon="5.10805">
        <ele>77.305079</ele>
        <time>2020-07-27T10:44:47.368Z</time>
      </trkpt>
      <trkpt lat="61.38397" lon="5.1079">
        <ele>77.509972</ele>
        <time>2020-07-27T10:44:50.382Z</time>
      </trkpt>
      <trkpt lat="61.38403" lon="5.10776">
        <ele>77.695343</ele>
        <time>2020-07-27T10:44:53.386Z</time>
      </trkpt>
      <trkpt lat="61.3841" lon="5.10761">
        <ele>77.897433</ele>
        <time>2020-07-27T10:44:57.360Z</time>
      </trkpt>
      <trkpt lat="61.38417" lon="5.10745">
        <ele>78.109295</ele>
        <time>2020-07-27T10:45:02.352Z</time>
      </trkpt>
      <trkpt lat="61.38424" lon="5.10731">
        <ele>78.303232</ele>
        <time>2020-07-27T10:45:06.409Z</time>
      </trkpt>
      <trkpt lat="61.38432" lon="5.10716">
        <ele>78.512112</ele>
        <time>2020-07-27T10:45:11.386Z</time>
      </trkpt>
      <trkpt lat="61.38441" lon="5.10706">
        <ele>78.725517</ele>
        <time>2020-07-27T10:45:16.350Z</time>
      </trkpt>
      <trkpt lat="61.3845" lon="5.10698">
        <ele>78.924108</ele>
        <time>2020-07-27T10:45:21.362Z</time>
      </trkpt>
      <trkpt lat="61.38459" lon="5.10693">
        <ele>79.113183</ele>
        <time>2020-07-27T10:45:25.367Z</time>
      </trkpt>
      <trkpt lat="61.38468" lon="5.10689">
        <ele>79.295696</ele>
        <time>2020-07-27T10:45:29.395Z</time>
      </trkpt>
      <trkpt lat="61.38477" lon="5.10685">
        <ele>79.488758</ele>
        <time>2020-07-27T10:45:33.401Z</time>
      </trkpt>
      <trkpt lat="61.38488" lon="5.10681">
        <ele>79.694695</ele>
        <time>2020-07-27T10:45:37.357Z</time>
      </trkpt>
      <trkpt lat="61.38497" lon="5.1068">
        <ele>79.884409</ele>
        <time>2020-07-27T10:45:40.384Z</time>
      </trkpt>
      <trkpt lat="61.38509" lon="5.10678">
        <ele>80.123062</ele>
        <time>2020-07-27T10:45:44.382Z</time>
      </trkpt>
      <trkpt lat="61.38519" lon="5.10678">
        <ele>80.109912</ele>
        <time>2020-07-27T10:45:47.350Z</time>
      </trkpt>
      <trkpt lat="61.38528" lon="5.10677">
        <ele>79.90432</ele>
        <time>2020-07-27T10:45:50.344Z</time>
      </trkpt>
      <trkpt lat="61.38539" lon="5.10675">
        <ele>79.647281</ele>
        <time>2020-07-27T10:45:54.355Z</time>
      </trkpt>
      <trkpt lat="61.38549" lon="5.10677">
        <ele>79.434965</ele>
        <time>2020-07-27T10:45:58.350Z</time>
      </trkpt>
      <trkpt lat="61.3856" lon="5.1068">
        <ele>79.172071</ele>
        <time>2020-07-27T10:46:03.394Z</time>
      </trkpt>
      <trkpt lat="61.3857" lon="5.10682">
        <ele>78.94621</ele>
        <time>2020-07-27T10:46:06.393Z</time>
      </trkpt>
      <trkpt lat="61.3858" lon="5.10687">
        <ele>78.729281</ele>
        <time>2020-07-27T10:46:09.378Z</time>
      </trkpt>
      <trkpt lat="61.3859" lon="5.10697">
        <ele>78.472296</ele>
        <time>2020-07-27T10:46:12.353Z</time>
      </trkpt>
      <trkpt lat="61.386" lon="5.10712">
        <ele>78.198948</ele>
        <time>2020-07-27T10:46:15.374Z</time>
      </trkpt>
      <trkpt lat="61.3861" lon="5.10731">
        <ele>77.889724</ele>
        <time>2020-07-27T10:46:18.346Z</time>
      </trkpt>
      <trkpt lat="61.38618" lon="5.10748">
        <ele>77.628854</ele>
        <time>2020-07-27T10:46:20.371Z</time>
      </trkpt>
      <trkpt lat="61.38627" lon="5.10767">
        <ele>77.338511</ele>
        <time>2020-07-27T10:46:22.353Z</time>
      </trkpt>
      <trkpt lat="61.38636" lon="5.10787">
        <ele>77.049649</ele>
        <time>2020-07-27T10:46:24.369Z</time>
      </trkpt>
      <trkpt lat="61.38646" lon="5.10811">
        <ele>76.708568</ele>
        <time>2020-07-27T10:46:26.360Z</time>
      </trkpt>
      <trkpt lat="61.38658" lon="5.10831">
        <ele>76.365213</ele>
        <time>2020-07-27T10:46:28.370Z</time>
      </trkpt>
      <trkpt lat="61.38672" lon="5.10845">
        <ele>76.117776</ele>
        <time>2020-07-27T10:46:30.363Z</time>
      </trkpt>
      <trkpt lat="61.38687" lon="5.10853">
        <ele>75.988998</ele>
        <time>2020-07-27T10:46:32.351Z</time>
      </trkpt>
      <trkpt lat="61.38702" lon="5.10856">
        <ele>75.861954</ele>
        <time>2020-07-27T10:46:34.374Z</time>
      </trkpt>
      <trkpt lat="61.38716" lon="5.10856">
        <ele>75.737979</ele>
        <time>2020-07-27T10:46:36.358Z</time>
      </trkpt>
      <trkpt lat="61.3873" lon="5.10853">
        <ele>75.620104</ele>
        <time>2020-07-27T10:46:38.374Z</time>
      </trkpt>
      <trkpt lat="61.38744" lon="5.10849">
        <ele>75.504897</ele>
        <time>2020-07-27T10:46:40.373Z</time>
      </trkpt>
      <trkpt lat="61.38758" lon="5.10844">
        <ele>75.386434</ele>
        <time>2020-07-27T10:46:42.367Z</time>
      </trkpt>
      <trkpt lat="61.38772" lon="5.10838">
        <ele>75.268205</ele>
        <time>2020-07-27T10:46:44.356Z</time>
      </trkpt>
      <trkpt lat="61.38785" lon="5.10831">
        <ele>75.152609</ele>
        <time>2020-07-27T10:46:46.372Z</time>
      </trkpt>
      <trkpt lat="61.38799" lon="5.10824">
        <ele>75.037827</ele>
        <time>2020-07-27T10:46:48.371Z</time>
      </trkpt>
      <trkpt lat="61.38811" lon="5.10817">
        <ele>74.930835</ele>
        <time>2020-07-27T10:46:50.369Z</time>
      </trkpt>
      <trkpt lat="61.38822" lon="5.1081">
        <ele>74.835554</ele>
        <time>2020-07-27T10:46:52.358Z</time>
      </trkpt>
      <trkpt lat="61.38831" lon="5.10806">
        <ele>74.75478</ele>
        <time>2020-07-27T10:46:54.376Z</time>
      </trkpt>
      <trkpt lat="61.38843" lon="5.10802">
        <ele>74.784399</ele>
        <time>2020-07-27T10:46:57.366Z</time>
      </trkpt>
      <trkpt lat="61.38854" lon="5.10796">
        <ele>75.546201</ele>
        <time>2020-07-27T10:47:01.353Z</time>
      </trkpt>
      <trkpt lat="61.38864" lon="5.10792">
        <ele>76.292147</ele>
        <time>2020-07-27T10:47:06.365Z</time>
      </trkpt>
      <trkpt lat="61.38875" lon="5.10785">
        <ele>77.049375</ele>
        <time>2020-07-27T10:47:11.358Z</time>
      </trkpt>
      <trkpt lat="61.38885" lon="5.1078">
        <ele>77.795544</ele>
        <time>2020-07-27T10:47:16.352Z</time>
      </trkpt>
      <trkpt lat="61.38895" lon="5.10773">
        <ele>78.490582</ele>
        <time>2020-07-27T10:47:21.366Z</time>
      </trkpt>
      <trkpt lat="61.38904" lon="5.10767">
        <ele>79.132869</ele>
        <time>2020-07-27T10:47:26.346Z</time>
      </trkpt>
      <trkpt lat="61.38915" lon="5.10762">
        <ele>79.887441</ele>
        <time>2020-07-27T10:47:31.372Z</time>
      </trkpt>
      <trkpt lat="61.38924" lon="5.10759">
        <ele>80.50625</ele>
        <time>2020-07-27T10:47:35.358Z</time>
      </trkpt>
      <trkpt lat="61.38934" lon="5.10757">
        <ele>81.235816</ele>
        <time>2020-07-27T10:47:40.407Z</time>
      </trkpt>
      <trkpt lat="61.38945" lon="5.10753">
        <ele>81.976752</ele>
        <time>2020-07-27T10:47:45.355Z</time>
      </trkpt>
      <trkpt lat="61.38955" lon="5.10746">
        <ele>82.675051</ele>
        <time>2020-07-27T10:47:50.361Z</time>
      </trkpt>
      <trkpt lat="61.38965" lon="5.1074">
        <ele>83.392029</ele>
        <time>2020-07-27T10:47:55.350Z</time>
      </trkpt>
      <trkpt lat="61.38973" lon="5.10736">
        <ele>84.008568</ele>
        <time>2020-07-27T10:48:00.395Z</time>
      </trkpt>
      <trkpt lat="61.38983" lon="5.10735">
        <ele>84.687265</ele>
        <time>2020-07-27T10:48:05.356Z</time>
      </trkpt>
      <trkpt lat="61.38994" lon="5.10739">
        <ele>85.42712</ele>
        <time>2020-07-27T10:48:10.361Z</time>
      </trkpt>
      <trkpt lat="61.39004" lon="5.10744">
        <ele>86.137712</ele>
        <time>2020-07-27T10:48:14.368Z</time>
      </trkpt>
      <trkpt lat="61.39014" lon="5.1075">
        <ele>86.855682</ele>
        <time>2020-07-27T10:48:18.379Z</time>
      </trkpt>
      <trkpt lat="61.39025" lon="5.10757">
        <ele>86.646176</ele>
        <time>2020-07-27T10:48:22.379Z</time>
      </trkpt>
      <trkpt lat="61.39034" lon="5.10767">
        <ele>86.32135</ele>
        <time>2020-07-27T10:48:25.379Z</time>
      </trkpt>
      <trkpt lat="61.39044" lon="5.10782">
        <ele>85.917682</ele>
        <time>2020-07-27T10:48:28.365Z</time>
      </trkpt>
      <trkpt lat="61.39051" lon="5.10795">
        <ele>85.592046</ele>
        <time>2020-07-27T10:48:30.379Z</time>
      </trkpt>
      <trkpt lat="61.3906" lon="5.10809">
        <ele>85.225401</ele>
        <time>2020-07-27T10:48:32.374Z</time>
      </trkpt>
      <trkpt lat="61.39069" lon="5.10826">
        <ele>84.818647</ele>
        <time>2020-07-27T10:48:34.405Z</time>
      </trkpt>
      <trkpt lat="61.3908" lon="5.10844">
        <ele>84.358986</ele>
        <time>2020-07-27T10:48:36.369Z</time>
      </trkpt>
      <trkpt lat="61.39091" lon="5.10864">
        <ele>83.870613</ele>
        <time>2020-07-27T10:48:38.353Z</time>
      </trkpt>
      <trkpt lat="61.39103" lon="5.10884">
        <ele>83.340866</ele>
        <time>2020-07-27T10:48:40.368Z</time>
      </trkpt>
      <trkpt lat="61.39116" lon="5.10904">
        <ele>82.801629</ele>
        <time>2020-07-27T10:48:42.354Z</time>
      </trkpt>
      <trkpt lat="61.3913" lon="5.1092">
        <ele>82.264609</ele>
        <time>2020-07-27T10:48:44.384Z</time>
      </trkpt>
      <trkpt lat="61.39146" lon="5.10932">
        <ele>81.717274</ele>
        <time>2020-07-27T10:48:46.368Z</time>
      </trkpt>
      <trkpt lat="61.39161" lon="5.1094">
        <ele>81.183118</ele>
        <time>2020-07-27T10:48:48.356Z</time>
      </trkpt>
      <trkpt lat="61.39176" lon="5.10944">
        <ele>81.023745</ele>
        <time>2020-07-27T10:48:50.365Z</time>
      </trkpt>
      <trkpt lat="61.39188" lon="5.10946">
        <ele>81.106369</ele>
        <time>2020-07-27T10:48:52.348Z</time>
      </trkpt>
      <trkpt lat="61.39197" lon="5.10944">
        <ele>81.171811</ele>
        <time>2020-07-27T10:48:54.355Z</time>
      </trkpt>
      <trkpt lat="61.39207" lon="5.10943">
        <ele>81.235683</ele>
        <time>2020-07-27T10:48:56.355Z</time>
      </trkpt>
      <trkpt lat="61.39219" lon="5.10941">
        <ele>81.318361</ele>
        <time>2020-07-27T10:48:59.346Z</time>
      </trkpt>
      <trkpt lat="61.39229" lon="5.10939">
        <ele>81.386596</ele>
        <time>2020-07-27T10:49:02.364Z</time>
      </trkpt>
      <trkpt lat="61.39239" lon="5.10935">
        <ele>81.458328</ele>
        <time>2020-07-27T10:49:06.381Z</time>
      </trkpt>
      <trkpt lat="61.39248" lon="5.10933">
        <ele>81.523178</ele>
        <time>2020-07-27T10:49:10.375Z</time>
      </trkpt>
      <trkpt lat="61.39258" lon="5.10934">
        <ele>81.587699</ele>
        <time>2020-07-27T10:49:14.380Z</time>
      </trkpt>
      <trkpt lat="61.39267" lon="5.10934">
        <ele>81.654303</ele>
        <time>2020-07-27T10:49:19.379Z</time>
      </trkpt>
      <trkpt lat="61.39278" lon="5.10936">
        <ele>81.727931</ele>
        <time>2020-07-27T10:49:24.353Z</time>
      </trkpt>
      <trkpt lat="61.39287" lon="5.10938">
        <ele>81.792207</ele>
        <time>2020-07-27T10:49:28.343Z</time>
      </trkpt>
      <trkpt lat="61.39298" lon="5.10943">
        <ele>81.864785</ele>
        <time>2020-07-27T10:49:32.388Z</time>
      </trkpt>
      <trkpt lat="61.39308" lon="5.10948">
        <ele>81.939092</ele>
        <time>2020-07-27T10:49:36.355Z</time>
      </trkpt>
      <trkpt lat="61.39319" lon="5.10955">
        <ele>82.016803</ele>
        <time>2020-07-27T10:49:40.355Z</time>
      </trkpt>
      <trkpt lat="61.39328" lon="5.10961">
        <ele>82.084764</ele>
        <time>2020-07-27T10:49:43.367Z</time>
      </trkpt>
      <trkpt lat="61.39338" lon="5.10969">
        <ele>82.156933</ele>
        <time>2020-07-27T10:49:46.386Z</time>
      </trkpt>
      <trkpt lat="61.3935" lon="5.10978">
        <ele>82.415239</ele>
        <time>2020-07-27T10:49:49.376Z</time>
      </trkpt>
      <trkpt lat="61.39359" lon="5.10984">
        <ele>82.757721</ele>
        <time>2020-07-27T10:49:51.369Z</time>
      </trkpt>
      <trkpt lat="61.39368" lon="5.10991">
        <ele>83.105311</ele>
        <time>2020-07-27T10:49:53.360Z</time>
      </trkpt>
      <trkpt lat="61.39377" lon="5.10997">
        <ele>83.462319</ele>
        <time>2020-07-27T10:49:55.355Z</time>
      </trkpt>
      <trkpt lat="61.39386" lon="5.11002">
        <ele>83.825639</ele>
        <time>2020-07-27T10:49:57.411Z</time>
      </trkpt>
      <trkpt lat="61.39396" lon="5.11006">
        <ele>84.177494</ele>
        <time>2020-07-27T10:49:59.366Z</time>
      </trkpt>
      <trkpt lat="61.39405" lon="5.11009">
        <ele>84.528015</ele>
        <time>2020-07-27T10:50:01.367Z</time>
      </trkpt>
      <trkpt lat="61.39415" lon="5.11012">
        <ele>84.872399</ele>
        <time>2020-07-27T10:50:03.350Z</time>
      </trkpt>
      <trkpt lat="61.39428" lon="5.11014">
        <ele>85.350775</ele>
        <time>2020-07-27T10:50:06.379Z</time>
      </trkpt>
      <trkpt lat="61.39439" lon="5.11015">
        <ele>85.758142</ele>
        <time>2020-07-27T10:50:09.354Z</time>
      </trkpt>
      <trkpt lat="61.39448" lon="5.11015">
        <ele>86.113936</ele>
        <time>2020-07-27T10:50:12.367Z</time>
      </trkpt>
      <trkpt lat="61.39458" lon="5.11011">
        <ele>86.470781</ele>
        <time>2020-07-27T10:50:16.369Z</time>
      </trkpt>
      <trkpt lat="61.39469" lon="5.11007">
        <ele>86.86717</ele>
        <time>2020-07-27T10:50:21.393Z</time>
      </trkpt>
      <trkpt lat="61.39478" lon="5.11001">
        <ele>87.21665</ele>
        <time>2020-07-27T10:50:26.352Z</time>
      </trkpt>
      <trkpt lat="61.39486" lon="5.10996">
        <ele>87.552084</ele>
        <time>2020-07-27T10:50:31.355Z</time>
      </trkpt>
      <trkpt lat="61.39495" lon="5.10992">
        <ele>87.886746</ele>
        <time>2020-07-27T10:50:36.356Z</time>
      </trkpt>
      <trkpt lat="61.39506" lon="5.1099">
        <ele>88.276961</ele>
        <time>2020-07-27T10:50:42.362Z</time>
      </trkpt>
      <trkpt lat="61.39516" lon="5.10986">
        <ele>88.637712</ele>
        <time>2020-07-27T10:50:47.395Z</time>
      </trkpt>
      <trkpt lat="61.39526" lon="5.10983">
        <ele>88.715025</ele>
        <time>2020-07-27T10:50:53.365Z</time>
      </trkpt>
      <trkpt lat="61.39537" lon="5.10979">
        <ele>88.580829</ele>
        <time>2020-07-27T10:50:58.354Z</time>
      </trkpt>
      <trkpt lat="61.39546" lon="5.10976">
        <ele>88.460298</ele>
        <time>2020-07-27T10:51:02.384Z</time>
      </trkpt>
      <trkpt lat="61.39557" lon="5.10973">
        <ele>88.319589</ele>
        <time>2020-07-27T10:51:07.350Z</time>
      </trkpt>
      <trkpt lat="61.39567" lon="5.10968">
        <ele>88.189517</ele>
        <time>2020-07-27T10:51:12.360Z</time>
      </trkpt>
      <trkpt lat="61.39583" lon="5.1083">
        <ele>87.319508</ele>
        <time>2020-07-27T10:51:30.416Z</time>
      </trkpt>
      <trkpt lat="61.39621" lon="5.10981">
        <ele>87.069662</ele>
        <time>2020-07-27T10:51:31.381Z</time>
      </trkpt>
      <trkpt lat="61.39604" lon="5.10985">
        <ele>87.636874</ele>
        <time>2020-07-27T10:51:34.342Z</time>
      </trkpt>
      <trkpt lat="61.39611" lon="5.10972">
        <ele>87.939322</ele>
        <time>2020-07-27T10:51:38.338Z</time>
      </trkpt>
      <trkpt lat="61.39622" lon="5.10964">
        <ele>88.325106</ele>
        <time>2020-07-27T10:51:42.398Z</time>
      </trkpt>
      <trkpt lat="61.39632" lon="5.10961">
        <ele>88.678581</ele>
        <time>2020-07-27T10:51:45.348Z</time>
      </trkpt>
      <trkpt lat="61.39641" lon="5.10957">
        <ele>88.977854</ele>
        <time>2020-07-27T10:51:48.376Z</time>
      </trkpt>
      <trkpt lat="61.39652" lon="5.10959">
        <ele>89.315707</ele>
        <time>2020-07-27T10:51:52.375Z</time>
      </trkpt>
      <trkpt lat="61.39661" lon="5.10957">
        <ele>89.622145</ele>
        <time>2020-07-27T10:51:55.361Z</time>
      </trkpt>
      <trkpt lat="61.3967" lon="5.10955">
        <ele>89.927037</ele>
        <time>2020-07-27T10:51:58.396Z</time>
      </trkpt>
      <trkpt lat="61.39679" lon="5.10954">
        <ele>90.225139</ele>
        <time>2020-07-27T10:52:01.343Z</time>
      </trkpt>
      <trkpt lat="61.39689" lon="5.10955">
        <ele>90.536059</ele>
        <time>2020-07-27T10:52:04.395Z</time>
      </trkpt>
      <trkpt lat="61.39698" lon="5.10954">
        <ele>90.830659</ele>
        <time>2020-07-27T10:52:07.366Z</time>
      </trkpt>
      <trkpt lat="61.39709" lon="5.10954">
        <ele>91.20369</ele>
        <time>2020-07-27T10:52:11.360Z</time>
      </trkpt>
      <trkpt lat="61.3972" lon="5.10956">
        <ele>91.544702</ele>
        <time>2020-07-27T10:52:15.344Z</time>
      </trkpt>
      <trkpt lat="61.3973" lon="5.10956">
        <ele>91.891585</ele>
        <time>2020-07-27T10:52:19.352Z</time>
      </trkpt>
      <trkpt lat="61.3974" lon="5.10956">
        <ele>92.225439</ele>
        <time>2020-07-27T10:52:23.387Z</time>
      </trkpt>
      <trkpt lat="61.39751" lon="5.10956">
        <ele>92.799273</ele>
        <time>2020-07-27T10:52:27.377Z</time>
      </trkpt>
      <trkpt lat="61.39761" lon="5.10957">
        <ele>93.549918</ele>
        <time>2020-07-27T10:52:31.370Z</time>
      </trkpt>
      <trkpt lat="61.39772" lon="5.10957">
        <ele>94.322215</ele>
        <time>2020-07-27T10:52:35.348Z</time>
      </trkpt>
      <trkpt lat="61.39781" lon="5.10957">
        <ele>94.992485</ele>
        <time>2020-07-27T10:52:39.384Z</time>
      </trkpt>
      <trkpt lat="61.39791" lon="5.10955">
        <ele>95.730838</ele>
        <time>2020-07-27T10:52:44.350Z</time>
      </trkpt>
      <trkpt lat="61.39801" lon="5.10951">
        <ele>96.465316</ele>
        <time>2020-07-27T10:52:50.365Z</time>
      </trkpt>
      <trkpt lat="61.3981" lon="5.10946">
        <ele>97.138469</ele>
        <time>2020-07-27T10:52:55.353Z</time>
      </trkpt>
      <trkpt lat="61.3982" lon="5.10942">
        <ele>97.906332</ele>
        <time>2020-07-27T10:53:00.368Z</time>
      </trkpt>
      <trkpt lat="61.39829" lon="5.10937">
        <ele>98.592377</ele>
        <time>2020-07-27T10:53:05.345Z</time>
      </trkpt>
      <trkpt lat="61.39839" lon="5.10928">
        <ele>99.342439</ele>
        <time>2020-07-27T10:53:11.376Z</time>
      </trkpt>
      <trkpt lat="61.39848" lon="5.10922">
        <ele>100.064351</ele>
        <time>2020-07-27T10:53:16.372Z</time>
      </trkpt>
      <trkpt lat="61.39857" lon="5.10913">
        <ele>100.755202</ele>
        <time>2020-07-27T10:53:21.372Z</time>
      </trkpt>
      <trkpt lat="61.39865" lon="5.10903">
        <ele>101.480773</ele>
        <time>2020-07-27T10:53:26.348Z</time>
      </trkpt>
      <trkpt lat="61.39875" lon="5.1089">
        <ele>102.305499</ele>
        <time>2020-07-27T10:53:31.385Z</time>
      </trkpt>
      <trkpt lat="61.39884" lon="5.10879">
        <ele>103.064123</ele>
        <time>2020-07-27T10:53:35.359Z</time>
      </trkpt>
      <trkpt lat="61.39893" lon="5.10868">
        <ele>103.806677</ele>
        <time>2020-07-27T10:53:39.350Z</time>
      </trkpt>
      <trkpt lat="61.399" lon="5.10857">
        <ele>104.480152</ele>
        <time>2020-07-27T10:53:42.391Z</time>
      </trkpt>
      <trkpt lat="61.3991" lon="5.10846">
        <ele>105.287225</ele>
        <time>2020-07-27T10:53:45.381Z</time>
      </trkpt>
      <trkpt lat="61.39922" lon="5.10836">
        <ele>104.795531</ele>
        <time>2020-07-27T10:53:48.376Z</time>
      </trkpt>
      <trkpt lat="61.39932" lon="5.10831">
        <ele>104.159193</ele>
        <time>2020-07-27T10:53:50.352Z</time>
      </trkpt>
      <trkpt lat="61.39945" lon="5.10829">
        <ele>103.277834</ele>
        <time>2020-07-27T10:53:52.375Z</time>
      </trkpt>
      <trkpt lat="61.39959" lon="5.10826">
        <ele>102.374197</ele>
        <time>2020-07-27T10:53:54.375Z</time>
      </trkpt>
      <trkpt lat="61.39972" lon="5.10822">
        <ele>101.512251</ele>
        <time>2020-07-27T10:53:56.361Z</time>
      </trkpt>
      <trkpt lat="61.39985" lon="5.1082">
        <ele>100.644325</ele>
        <time>2020-07-27T10:53:58.378Z</time>
      </trkpt>
      <trkpt lat="61.39999" lon="5.10818">
        <ele>99.782893</ele>
        <time>2020-07-27T10:54:00.357Z</time>
      </trkpt>
      <trkpt lat="61.40011" lon="5.10815">
        <ele>98.971527</ele>
        <time>2020-07-27T10:54:02.367Z</time>
      </trkpt>
      <trkpt lat="61.40023" lon="5.10818">
        <ele>98.190378</ele>
        <time>2020-07-27T10:54:05.378Z</time>
      </trkpt>
      <trkpt lat="61.40039" lon="5.10814">
        <ele>97.134792</ele>
        <time>2020-07-27T10:54:07.368Z</time>
      </trkpt>
      <trkpt lat="61.40055" lon="5.10807">
        <ele>96.075572</ele>
        <time>2020-07-27T10:54:09.375Z</time>
      </trkpt>
      <trkpt lat="61.40069" lon="5.10799">
        <ele>95.131428</ele>
        <time>2020-07-27T10:54:11.355Z</time>
      </trkpt>
      <trkpt lat="61.40082" lon="5.10788">
        <ele>94.212227</ele>
        <time>2020-07-27T10:54:13.359Z</time>
      </trkpt>
      <trkpt lat="61.40095" lon="5.10778">
        <ele>93.178466</ele>
        <time>2020-07-27T10:54:15.384Z</time>
      </trkpt>
      <trkpt lat="61.40108" lon="5.10768">
        <ele>92.038994</ele>
        <time>2020-07-27T10:54:17.353Z</time>
      </trkpt>
      <trkpt lat="61.40121" lon="5.10756">
        <ele>90.864589</ele>
        <time>2020-07-27T10:54:19.357Z</time>
      </trkpt>
      <trkpt lat="61.40134" lon="5.10746">
        <ele>89.728445</ele>
        <time>2020-07-27T10:54:21.357Z</time>
      </trkpt>
      <trkpt lat="61.40146" lon="5.10735">
        <ele>88.610661</ele>
        <time>2020-07-27T10:54:23.379Z</time>
      </trkpt>
      <trkpt lat="61.40158" lon="5.10726">
        <ele>87.569204</ele>
        <time>2020-07-27T10:54:25.368Z</time>
      </trkpt>
      <trkpt lat="61.4017" lon="5.10718">
        <ele>86.511821</ele>
        <time>2020-07-27T10:54:27.363Z</time>
      </trkpt>
      <trkpt lat="61.40184" lon="5.10715">
        <ele>85.343349</ele>
        <time>2020-07-27T10:54:29.349Z</time>
      </trkpt>
      <trkpt lat="61.40199" lon="5.10716">
        <ele>84.1065</ele>
        <time>2020-07-27T10:54:31.409Z</time>
      </trkpt>
      <trkpt lat="61.40213" lon="5.10717">
        <ele>82.902191</ele>
        <time>2020-07-27T10:54:33.355Z</time>
      </trkpt>
      <trkpt lat="61.40224" lon="5.10721">
        <ele>81.999634</ele>
        <time>2020-07-27T10:54:35.360Z</time>
      </trkpt>
      <trkpt lat="61.40233" lon="5.10728">
        <ele>81.2416</ele>
        <time>2020-07-27T10:54:37.401Z</time>
      </trkpt>
      <trkpt lat="61.40242" lon="5.10737">
        <ele>80.419501</ele>
        <time>2020-07-27T10:54:39.400Z</time>
      </trkpt>
      <trkpt lat="61.4025" lon="5.10749">
        <ele>79.578705</ele>
        <time>2020-07-27T10:54:41.372Z</time>
      </trkpt>
      <trkpt lat="61.40262" lon="5.10757">
        <ele>78.960137</ele>
        <time>2020-07-27T10:54:44.349Z</time>
      </trkpt>
      <trkpt lat="61.40274" lon="5.10765">
        <ele>79.350313</ele>
        <time>2020-07-27T10:54:47.378Z</time>
      </trkpt>
      <trkpt lat="61.40284" lon="5.10773">
        <ele>79.702868</ele>
        <time>2020-07-27T10:54:50.350Z</time>
      </trkpt>
      <trkpt lat="61.40294" lon="5.10778">
        <ele>80.029841</ele>
        <time>2020-07-27T10:54:54.370Z</time>
      </trkpt>
      <trkpt lat="61.40306" lon="5.10776">
        <ele>80.385864</ele>
        <time>2020-07-27T10:54:59.370Z</time>
      </trkpt>
      <trkpt lat="61.40315" lon="5.10774">
        <ele>80.690132</ele>
        <time>2020-07-27T10:55:04.354Z</time>
      </trkpt>
      <trkpt lat="61.40325" lon="5.1077">
        <ele>81.010076</ele>
        <time>2020-07-27T10:55:09.360Z</time>
      </trkpt>
      <trkpt lat="61.40335" lon="5.10768">
        <ele>81.3232</ele>
        <time>2020-07-27T10:55:14.371Z</time>
      </trkpt>
      <trkpt lat="61.40346" lon="5.10765">
        <ele>81.671204</ele>
        <time>2020-07-27T10:55:19.356Z</time>
      </trkpt>
      <trkpt lat="61.40356" lon="5.10764">
        <ele>81.992602</ele>
        <time>2020-07-27T10:55:23.361Z</time>
      </trkpt>
      <trkpt lat="61.40366" lon="5.10765">
        <ele>82.307632</ele>
        <time>2020-07-27T10:55:27.395Z</time>
      </trkpt>
      <trkpt lat="61.40376" lon="5.10768">
        <ele>82.610771</ele>
        <time>2020-07-27T10:55:31.356Z</time>
      </trkpt>
      <trkpt lat="61.40387" lon="5.10776">
        <ele>82.976766</ele>
        <time>2020-07-27T10:55:35.361Z</time>
      </trkpt>
      <trkpt lat="61.40398" lon="5.10784">
        <ele>83.346688</ele>
        <time>2020-07-27T10:55:39.380Z</time>
      </trkpt>
      <trkpt lat="61.40407" lon="5.10791">
        <ele>83.64272</ele>
        <time>2020-07-27T10:55:42.373Z</time>
      </trkpt>
      <trkpt lat="61.40418" lon="5.10796">
        <ele>84.01464</ele>
        <time>2020-07-27T10:55:46.355Z</time>
      </trkpt>
      <trkpt lat="61.40428" lon="5.10796">
        <ele>84.31346</ele>
        <time>2020-07-27T10:55:49.358Z</time>
      </trkpt>
      <trkpt lat="61.40438" lon="5.10796">
        <ele>84.548902</ele>
        <time>2020-07-27T10:55:52.354Z</time>
      </trkpt>
      <trkpt lat="61.40449" lon="5.10791">
        <ele>84.659424</ele>
        <time>2020-07-27T10:55:55.354Z</time>
      </trkpt>
      <trkpt lat="61.4046" lon="5.10782">
        <ele>84.774201</ele>
        <time>2020-07-27T10:55:58.347Z</time>
      </trkpt>
      <trkpt lat="61.40471" lon="5.10772">
        <ele>84.892622</ele>
        <time>2020-07-27T10:56:01.372Z</time>
      </trkpt>
      <trkpt lat="61.40482" lon="5.10761">
        <ele>85.018204</ele>
        <time>2020-07-27T10:56:04.374Z</time>
      </trkpt>
      <trkpt lat="61.40493" lon="5.1075">
        <ele>85.141919</ele>
        <time>2020-07-27T10:56:07.384Z</time>
      </trkpt>
      <trkpt lat="61.40505" lon="5.1074">
        <ele>85.264756</ele>
        <time>2020-07-27T10:56:10.375Z</time>
      </trkpt>
      <trkpt lat="61.40517" lon="5.10734">
        <ele>85.389002</ele>
        <time>2020-07-27T10:56:13.354Z</time>
      </trkpt>
      <trkpt lat="61.4053" lon="5.10733">
        <ele>85.516568</ele>
        <time>2020-07-27T10:56:16.357Z</time>
      </trkpt>
      <trkpt lat="61.40539" lon="5.10732">
        <ele>85.608278</ele>
        <time>2020-07-27T10:56:18.384Z</time>
      </trkpt>
      <trkpt lat="61.40548" lon="5.10731">
        <ele>85.698198</ele>
        <time>2020-07-27T10:56:20.361Z</time>
      </trkpt>
      <trkpt lat="61.4056" lon="5.10729">
        <ele>85.818104</ele>
        <time>2020-07-27T10:56:23.360Z</time>
      </trkpt>
      <trkpt lat="61.40571" lon="5.10726">
        <ele>85.933895</ele>
        <time>2020-07-27T10:56:26.415Z</time>
      </trkpt>
      <trkpt lat="61.40582" lon="5.10723">
        <ele>86.042214</ele>
        <time>2020-07-27T10:56:29.361Z</time>
      </trkpt>
      <trkpt lat="61.40594" lon="5.1072">
        <ele>86.160487</ele>
        <time>2020-07-27T10:56:32.358Z</time>
      </trkpt>
      <trkpt lat="61.40605" lon="5.10717">
        <ele>86.275434</ele>
        <time>2020-07-27T10:56:35.394Z</time>
      </trkpt>
      <trkpt lat="61.40618" lon="5.10712">
        <ele>85.927632</ele>
        <time>2020-07-27T10:56:38.360Z</time>
      </trkpt>
      <trkpt lat="61.40627" lon="5.1071">
        <ele>85.595797</ele>
        <time>2020-07-27T10:56:40.353Z</time>
      </trkpt>
      <trkpt lat="61.40637" lon="5.10708">
        <ele>85.228329</ele>
        <time>2020-07-27T10:56:42.361Z</time>
      </trkpt>
      <trkpt lat="61.40648" lon="5.10711">
        <ele>84.808405</ele>
        <time>2020-07-27T10:56:44.369Z</time>
      </trkpt>
      <trkpt lat="61.40661" lon="5.10717">
        <ele>84.333725</ele>
        <time>2020-07-27T10:56:46.357Z</time>
      </trkpt>
      <trkpt lat="61.40673" lon="5.10727">
        <ele>83.849043</ele>
        <time>2020-07-27T10:56:48.353Z</time>
      </trkpt>
      <trkpt lat="61.40684" lon="5.10739">
        <ele>83.40497</ele>
        <time>2020-07-27T10:56:50.363Z</time>
      </trkpt>
      <trkpt lat="61.40693" lon="5.1075">
        <ele>83.02958</ele>
        <time>2020-07-27T10:56:52.359Z</time>
      </trkpt>
      <trkpt lat="61.40701" lon="5.1076">
        <ele>82.69673</ele>
        <time>2020-07-27T10:56:54.364Z</time>
      </trkpt>
      <trkpt lat="61.40709" lon="5.10771">
        <ele>82.339916</ele>
        <time>2020-07-27T10:56:57.373Z</time>
      </trkpt>
      <trkpt lat="61.4072" lon="5.10782">
        <ele>81.89758</ele>
        <time>2020-07-27T10:57:01.371Z</time>
      </trkpt>
      <trkpt lat="61.40731" lon="5.10794">
        <ele>81.462886</ele>
        <time>2020-07-27T10:57:04.384Z</time>
      </trkpt>
      <trkpt lat="61.40742" lon="5.10808">
        <ele>80.971687</ele>
        <time>2020-07-27T10:57:07.367Z</time>
      </trkpt>
      <trkpt lat="61.40751" lon="5.10818">
        <ele>80.62417</ele>
        <time>2020-07-27T10:57:09.349Z</time>
      </trkpt>
      <trkpt lat="61.4076" lon="5.10827">
        <ele>80.257928</ele>
        <time>2020-07-27T10:57:11.371Z</time>
      </trkpt>
      <trkpt lat="61.40769" lon="5.10837">
        <ele>79.875782</ele>
        <time>2020-07-27T10:57:13.352Z</time>
      </trkpt>
      <trkpt lat="61.40779" lon="5.10847">
        <ele>79.582655</ele>
        <time>2020-07-27T10:57:15.357Z</time>
      </trkpt>
      <trkpt lat="61.40789" lon="5.10858">
        <ele>79.32899</ele>
        <time>2020-07-27T10:57:17.358Z</time>
      </trkpt>
      <trkpt lat="61.40799" lon="5.10869">
        <ele>79.05691</ele>
        <time>2020-07-27T10:57:19.388Z</time>
      </trkpt>
      <trkpt lat="61.4081" lon="5.1088">
        <ele>78.785866</ele>
        <time>2020-07-27T10:57:21.355Z</time>
      </trkpt>
      <trkpt lat="61.4082" lon="5.10892">
        <ele>78.511729</ele>
        <time>2020-07-27T10:57:23.368Z</time>
      </trkpt>
      <trkpt lat="61.40831" lon="5.10901">
        <ele>78.243383</ele>
        <time>2020-07-27T10:57:25.355Z</time>
      </trkpt>
      <trkpt lat="61.40842" lon="5.10908">
        <ele>77.978533</ele>
        <time>2020-07-27T10:57:27.392Z</time>
      </trkpt>
      <trkpt lat="61.40852" lon="5.10915">
        <ele>77.729891</ele>
        <time>2020-07-27T10:57:29.370Z</time>
      </trkpt>
      <trkpt lat="61.40862" lon="5.1092">
        <ele>77.507987</ele>
        <time>2020-07-27T10:57:31.354Z</time>
      </trkpt>
      <trkpt lat="61.40875" lon="5.10926">
        <ele>77.202737</ele>
        <time>2020-07-27T10:57:34.366Z</time>
      </trkpt>
      <trkpt lat="61.40886" lon="5.10929">
        <ele>76.931069</ele>
        <time>2020-07-27T10:57:37.392Z</time>
      </trkpt>
      <trkpt lat="61.40897" lon="5.10931">
        <ele>76.682583</ele>
        <time>2020-07-27T10:57:40.360Z</time>
      </trkpt>
      <trkpt lat="61.40907" lon="5.10932">
        <ele>76.44213</ele>
        <time>2020-07-27T10:57:43.359Z</time>
      </trkpt>
      <trkpt lat="61.40918" lon="5.10933">
        <ele>76.208989</ele>
        <time>2020-07-27T10:57:46.368Z</time>
      </trkpt>
      <trkpt lat="61.40928" lon="5.10933">
        <ele>75.975878</ele>
        <time>2020-07-27T10:57:49.365Z</time>
      </trkpt>
      <trkpt lat="61.40939" lon="5.10933">
        <ele>75.717354</ele>
        <time>2020-07-27T10:57:52.355Z</time>
      </trkpt>
      <trkpt lat="61.40949" lon="5.10933">
        <ele>75.605056</ele>
        <time>2020-07-27T10:57:55.381Z</time>
      </trkpt>
      <trkpt lat="61.4096" lon="5.10932">
        <ele>75.583016</ele>
        <time>2020-07-27T10:57:58.359Z</time>
      </trkpt>
      <trkpt lat="61.40969" lon="5.10932">
        <ele>75.562887</ele>
        <time>2020-07-27T10:58:01.366Z</time>
      </trkpt>
      <trkpt lat="61.40979" lon="5.10931">
        <ele>75.541916</ele>
        <time>2020-07-27T10:58:04.354Z</time>
      </trkpt>
      <trkpt lat="61.40989" lon="5.10932">
        <ele>75.520095</ele>
        <time>2020-07-27T10:58:07.357Z</time>
      </trkpt>
      <trkpt lat="61.40999" lon="5.10933">
        <ele>75.499078</ele>
        <time>2020-07-27T10:58:10.388Z</time>
      </trkpt>
      <trkpt lat="61.41009" lon="5.10936">
        <ele>75.4784</ele>
        <time>2020-07-27T10:58:13.367Z</time>
      </trkpt>
      <trkpt lat="61.41019" lon="5.10939">
        <ele>75.456852</ele>
        <time>2020-07-27T10:58:16.362Z</time>
      </trkpt>
      <trkpt lat="61.41029" lon="5.10945">
        <ele>75.434435</ele>
        <time>2020-07-27T10:58:19.395Z</time>
      </trkpt>
      <trkpt lat="61.41039" lon="5.10953">
        <ele>75.41179</ele>
        <time>2020-07-27T10:58:22.372Z</time>
      </trkpt>
      <trkpt lat="61.41048" lon="5.10963">
        <ele>75.389908</ele>
        <time>2020-07-27T10:58:25.355Z</time>
      </trkpt>
      <trkpt lat="61.41057" lon="5.10975">
        <ele>75.367197</ele>
        <time>2020-07-27T10:58:28.367Z</time>
      </trkpt>
      <trkpt lat="61.41064" lon="5.10987">
        <ele>75.347816</ele>
        <time>2020-07-27T10:58:31.354Z</time>
      </trkpt>
      <trkpt lat="61.41071" lon="5.11003">
        <ele>75.326645</ele>
        <time>2020-07-27T10:58:35.379Z</time>
      </trkpt>
      <trkpt lat="61.41078" lon="5.1102">
        <ele>75.303482</ele>
        <time>2020-07-27T10:58:39.381Z</time>
      </trkpt>
      <trkpt lat="61.41084" lon="5.11035">
        <ele>75.28376</ele>
        <time>2020-07-27T10:58:42.376Z</time>
      </trkpt>
      <trkpt lat="61.4109" lon="5.11052">
        <ele>75.262673</ele>
        <time>2020-07-27T10:58:45.361Z</time>
      </trkpt>
      <trkpt lat="61.41095" lon="5.11069">
        <ele>75.242244</ele>
        <time>2020-07-27T10:58:48.354Z</time>
      </trkpt>
      <trkpt lat="61.41101" lon="5.11087">
        <ele>75.171337</ele>
        <time>2020-07-27T10:58:51.364Z</time>
      </trkpt>
      <trkpt lat="61.41107" lon="5.11106">
        <ele>75.082826</ele>
        <time>2020-07-27T10:58:54.388Z</time>
      </trkpt>
      <trkpt lat="61.41113" lon="5.11124">
        <ele>74.997717</ele>
        <time>2020-07-27T10:58:57.349Z</time>
      </trkpt>
      <trkpt lat="61.41119" lon="5.11143">
        <ele>74.908972</ele>
        <time>2020-07-27T10:59:00.356Z</time>
      </trkpt>
      <trkpt lat="61.41125" lon="5.11162">
        <ele>74.81756</ele>
        <time>2020-07-27T10:59:03.382Z</time>
      </trkpt>
      <trkpt lat="61.41132" lon="5.11182">
        <ele>74.721062</ele>
        <time>2020-07-27T10:59:06.382Z</time>
      </trkpt>
      <trkpt lat="61.4114" lon="5.11203">
        <ele>74.618704</ele>
        <time>2020-07-27T10:59:09.360Z</time>
      </trkpt>
      <trkpt lat="61.41148" lon="5.11222">
        <ele>74.51749</ele>
        <time>2020-07-27T10:59:12.351Z</time>
      </trkpt>
      <trkpt lat="61.41158" lon="5.11241">
        <ele>74.409108</ele>
        <time>2020-07-27T10:59:15.380Z</time>
      </trkpt>
      <trkpt lat="61.41164" lon="5.11255">
        <ele>74.332784</ele>
        <time>2020-07-27T10:59:17.379Z</time>
      </trkpt>
      <trkpt lat="61.41171" lon="5.11268">
        <ele>74.259424</ele>
        <time>2020-07-27T10:59:19.372Z</time>
      </trkpt>
      <trkpt lat="61.41178" lon="5.1128">
        <ele>74.184894</ele>
        <time>2020-07-27T10:59:21.383Z</time>
      </trkpt>
      <trkpt lat="61.41188" lon="5.11297">
        <ele>74.08047</ele>
        <time>2020-07-27T10:59:24.371Z</time>
      </trkpt>
      <trkpt lat="61.41197" lon="5.11311">
        <ele>73.986424</ele>
        <time>2020-07-27T10:59:27.359Z</time>
      </trkpt>
      <trkpt lat="61.41205" lon="5.11323">
        <ele>73.908819</ele>
        <time>2020-07-27T10:59:30.392Z</time>
      </trkpt>
      <trkpt lat="61.41214" lon="5.11339">
        <ele>73.811579</ele>
        <time>2020-07-27T10:59:34.363Z</time>
      </trkpt>
      <trkpt lat="61.41222" lon="5.11349">
        <ele>73.75717</ele>
        <time>2020-07-27T10:59:37.391Z</time>
      </trkpt>
      <trkpt lat="61.4123" lon="5.11362">
        <ele>73.732321</ele>
        <time>2020-07-27T10:59:40.404Z</time>
      </trkpt>
      <trkpt lat="61.4124" lon="5.11377">
        <ele>73.702791</ele>
        <time>2020-07-27T10:59:43.347Z</time>
      </trkpt>
      <trkpt lat="61.41251" lon="5.11394">
        <ele>73.670688</ele>
        <time>2020-07-27T10:59:46.391Z</time>
      </trkpt>
      <trkpt lat="61.41259" lon="5.11407">
        <ele>73.646618</ele>
        <time>2020-07-27T10:59:48.356Z</time>
      </trkpt>
      <trkpt lat="61.41268" lon="5.1142">
        <ele>73.621556</ele>
        <time>2020-07-27T10:59:50.358Z</time>
      </trkpt>
      <trkpt lat="61.41276" lon="5.11433">
        <ele>73.595527</ele>
        <time>2020-07-27T10:59:52.360Z</time>
      </trkpt>
      <trkpt lat="61.41285" lon="5.11447">
        <ele>73.569811</ele>
        <time>2020-07-27T10:59:54.392Z</time>
      </trkpt>
      <trkpt lat="61.41293" lon="5.11461">
        <ele>73.544486</ele>
        <time>2020-07-27T10:59:56.359Z</time>
      </trkpt>
      <trkpt lat="61.41301" lon="5.11474">
        <ele>73.520946</ele>
        <time>2020-07-27T10:59:58.388Z</time>
      </trkpt>
      <trkpt lat="61.41311" lon="5.11491">
        <ele>73.489446</ele>
        <time>2020-07-27T11:00:01.351Z</time>
      </trkpt>
      <trkpt lat="61.41322" lon="5.11505">
        <ele>73.460164</ele>
        <time>2020-07-27T11:00:04.351Z</time>
      </trkpt>
      <trkpt lat="61.41332" lon="5.11519">
        <ele>73.430891</ele>
        <time>2020-07-27T11:00:07.374Z</time>
      </trkpt>
      <trkpt lat="61.41342" lon="5.11533">
        <ele>73.403117</ele>
        <time>2020-07-27T11:00:10.431Z</time>
      </trkpt>
      <trkpt lat="61.4135" lon="5.11547">
        <ele>73.377224</ele>
        <time>2020-07-27T11:00:13.373Z</time>
      </trkpt>
      <trkpt lat="61.41359" lon="5.11563">
        <ele>73.348943</ele>
        <time>2020-07-27T11:00:16.360Z</time>
      </trkpt>
      <trkpt lat="61.41369" lon="5.11581">
        <ele>73.354419</ele>
        <time>2020-07-27T11:00:19.360Z</time>
      </trkpt>
      <trkpt lat="61.41378" lon="5.11599">
        <ele>73.379449</ele>
        <time>2020-07-27T11:00:22.368Z</time>
      </trkpt>
      <trkpt lat="61.41387" lon="5.11618">
        <ele>73.402986</ele>
        <time>2020-07-27T11:00:25.365Z</time>
      </trkpt>
      <trkpt lat="61.41395" lon="5.11637">
        <ele>73.426614</ele>
        <time>2020-07-27T11:00:28.380Z</time>
      </trkpt>
      <trkpt lat="61.41401" lon="5.11656">
        <ele>73.449339</ele>
        <time>2020-07-27T11:00:31.367Z</time>
      </trkpt>
      <trkpt lat="61.41408" lon="5.11676">
        <ele>73.471054</ele>
        <time>2020-07-27T11:00:34.374Z</time>
      </trkpt>
      <trkpt lat="61.41413" lon="5.11697">
        <ele>73.493623</ele>
        <time>2020-07-27T11:00:37.401Z</time>
      </trkpt>
      <trkpt lat="61.41419" lon="5.11716">
        <ele>73.514514</ele>
        <time>2020-07-27T11:00:40.356Z</time>
      </trkpt>
      <trkpt lat="61.41424" lon="5.11734">
        <ele>73.533764</ele>
        <time>2020-07-27T11:00:43.393Z</time>
      </trkpt>
      <trkpt lat="61.41428" lon="5.11753">
        <ele>73.552488</ele>
        <time>2020-07-27T11:00:46.367Z</time>
      </trkpt>
      <trkpt lat="61.4143" lon="5.11772">
        <ele>73.571741</ele>
        <time>2020-07-27T11:00:49.364Z</time>
      </trkpt>
      <trkpt lat="61.41433" lon="5.11792">
        <ele>73.591032</ele>
        <time>2020-07-27T11:00:52.352Z</time>
      </trkpt>
      <trkpt lat="61.41435" lon="5.11814">
        <ele>73.6114</ele>
        <time>2020-07-27T11:00:55.354Z</time>
      </trkpt>
      <trkpt lat="61.41437" lon="5.11835">
        <ele>73.631623</ele>
        <time>2020-07-27T11:00:58.359Z</time>
      </trkpt>
      <trkpt lat="61.41438" lon="5.11855">
        <ele>73.650502</ele>
        <time>2020-07-27T11:01:01.396Z</time>
      </trkpt>
      <trkpt lat="61.41439" lon="5.11877">
        <ele>73.670927</ele>
        <time>2020-07-27T11:01:04.364Z</time>
      </trkpt>
      <trkpt lat="61.4144" lon="5.11898">
        <ele>73.692457</ele>
        <time>2020-07-27T11:01:07.366Z</time>
      </trkpt>
      <trkpt lat="61.41442" lon="5.1192">
        <ele>73.726038</ele>
        <time>2020-07-27T11:01:10.395Z</time>
      </trkpt>
      <trkpt lat="61.41444" lon="5.11944">
        <ele>73.762137</ele>
        <time>2020-07-27T11:01:13.357Z</time>
      </trkpt>
      <trkpt lat="61.41446" lon="5.11968">
        <ele>73.799091</ele>
        <time>2020-07-27T11:01:16.366Z</time>
      </trkpt>
      <trkpt lat="61.41448" lon="5.11993">
        <ele>73.836931</ele>
        <time>2020-07-27T11:01:19.374Z</time>
      </trkpt>
      <trkpt lat="61.4145" lon="5.12018">
        <ele>73.875217</ele>
        <time>2020-07-27T11:01:22.387Z</time>
      </trkpt>
      <trkpt lat="61.41453" lon="5.12043">
        <ele>73.913266</ele>
        <time>2020-07-27T11:01:25.367Z</time>
      </trkpt>
      <trkpt lat="61.41456" lon="5.12067">
        <ele>73.950957</ele>
        <time>2020-07-27T11:01:28.359Z</time>
      </trkpt>
      <trkpt lat="61.4146" lon="5.12089">
        <ele>73.987896</ele>
        <time>2020-07-27T11:01:31.349Z</time>
      </trkpt>
      <trkpt lat="61.41465" lon="5.12113">
        <ele>74.026185</ele>
        <time>2020-07-27T11:01:34.344Z</time>
      </trkpt>
      <trkpt lat="61.41469" lon="5.12138">
        <ele>74.065033</ele>
        <time>2020-07-27T11:01:37.359Z</time>
      </trkpt>
      <trkpt lat="61.41472" lon="5.12163">
        <ele>74.104011</ele>
        <time>2020-07-27T11:01:40.412Z</time>
      </trkpt>
      <trkpt lat="61.41476" lon="5.12189">
        <ele>74.144867</ele>
        <time>2020-07-27T11:01:43.380Z</time>
      </trkpt>
      <trkpt lat="61.4148" lon="5.12213">
        <ele>74.184285</ele>
        <time>2020-07-27T11:01:46.374Z</time>
      </trkpt>
      <trkpt lat="61.41484" lon="5.12238">
        <ele>74.224131</ele>
        <time>2020-07-27T11:01:49.372Z</time>
      </trkpt>
      <trkpt lat="61.41488" lon="5.12266">
        <ele>74.215036</ele>
        <time>2020-07-27T11:01:52.391Z</time>
      </trkpt>
      <trkpt lat="61.41491" lon="5.12284">
        <ele>74.122042</ele>
        <time>2020-07-27T11:01:54.383Z</time>
      </trkpt>
      <trkpt lat="61.41494" lon="5.12302">
        <ele>74.029815</ele>
        <time>2020-07-27T11:01:56.356Z</time>
      </trkpt>
      <trkpt lat="61.41497" lon="5.12321">
        <ele>73.934247</ele>
        <time>2020-07-27T11:01:58.374Z</time>
      </trkpt>
      <trkpt lat="61.41501" lon="5.12342">
        <ele>73.825979</ele>
        <time>2020-07-27T11:02:00.394Z</time>
      </trkpt>
      <trkpt lat="61.41506" lon="5.12365">
        <ele>73.709821</ele>
        <time>2020-07-27T11:02:02.382Z</time>
      </trkpt>
      <trkpt lat="61.4151" lon="5.12388">
        <ele>73.590202</ele>
        <time>2020-07-27T11:02:04.380Z</time>
      </trkpt>
      <trkpt lat="61.41514" lon="5.12411">
        <ele>73.473448</ele>
        <time>2020-07-27T11:02:06.369Z</time>
      </trkpt>
      <trkpt lat="61.41519" lon="5.12433">
        <ele>73.358229</ele>
        <time>2020-07-27T11:02:08.378Z</time>
      </trkpt>
      <trkpt lat="61.41523" lon="5.12454">
        <ele>73.250796</ele>
        <time>2020-07-27T11:02:10.360Z</time>
      </trkpt>
      <trkpt lat="61.41527" lon="5.12472">
        <ele>73.155826</ele>
        <time>2020-07-27T11:02:12.355Z</time>
      </trkpt>
      <trkpt lat="61.41531" lon="5.1249">
        <ele>73.064354</ele>
        <time>2020-07-27T11:02:14.363Z</time>
      </trkpt>
      <trkpt lat="61.41537" lon="5.12515">
        <ele>72.932513</ele>
        <time>2020-07-27T11:02:17.364Z</time>
      </trkpt>
      <trkpt lat="61.41543" lon="5.12539">
        <ele>72.801453</ele>
        <time>2020-07-27T11:02:20.356Z</time>
      </trkpt>
      <trkpt lat="61.41548" lon="5.12563">
        <ele>72.676044</ele>
        <time>2020-07-27T11:02:23.354Z</time>
      </trkpt>
      <trkpt lat="61.41554" lon="5.12586">
        <ele>72.551464</ele>
        <time>2020-07-27T11:02:26.384Z</time>
      </trkpt>
      <trkpt lat="61.41559" lon="5.12609">
        <ele>72.492944</ele>
        <time>2020-07-27T11:02:29.367Z</time>
      </trkpt>
      <trkpt lat="61.41564" lon="5.12633">
        <ele>72.592715</ele>
        <time>2020-07-27T11:02:32.372Z</time>
      </trkpt>
      <trkpt lat="61.41569" lon="5.12655">
        <ele>72.688306</ele>
        <time>2020-07-27T11:02:35.384Z</time>
      </trkpt>
      <trkpt lat="61.41574" lon="5.12676">
        <ele>72.779039</ele>
        <time>2020-07-27T11:02:38.358Z</time>
      </trkpt>
      <trkpt lat="61.4158" lon="5.12698">
        <ele>72.874386</ele>
        <time>2020-07-27T11:02:41.356Z</time>
      </trkpt>
      <trkpt lat="61.41585" lon="5.12723">
        <ele>72.979262</ele>
        <time>2020-07-27T11:02:44.368Z</time>
      </trkpt>
      <trkpt lat="61.4159" lon="5.12748">
        <ele>73.083575</ele>
        <time>2020-07-27T11:02:47.357Z</time>
      </trkpt>
      <trkpt lat="61.41594" lon="5.12765">
        <ele>73.155885</ele>
        <time>2020-07-27T11:02:49.415Z</time>
      </trkpt>
      <trkpt lat="61.41599" lon="5.12782">
        <ele>73.230808</ele>
        <time>2020-07-27T11:02:51.402Z</time>
      </trkpt>
      <trkpt lat="61.41605" lon="5.12807">
        <ele>73.338224</ele>
        <time>2020-07-27T11:02:54.379Z</time>
      </trkpt>
      <trkpt lat="61.4161" lon="5.12831">
        <ele>73.439092</ele>
        <time>2020-07-27T11:02:57.368Z</time>
      </trkpt>
      <trkpt lat="61.41615" lon="5.12854">
        <ele>73.539959</ele>
        <time>2020-07-27T11:03:00.370Z</time>
      </trkpt>
      <trkpt lat="61.41621" lon="5.12877">
        <ele>73.637983</ele>
        <time>2020-07-27T11:03:03.412Z</time>
      </trkpt>
      <trkpt lat="61.41626" lon="5.12899">
        <ele>73.735314</ele>
        <time>2020-07-27T11:03:06.384Z</time>
      </trkpt>
      <trkpt lat="61.41632" lon="5.12921">
        <ele>73.83032</ele>
        <time>2020-07-27T11:03:09.356Z</time>
      </trkpt>
      <trkpt lat="61.41636" lon="5.12941">
        <ele>73.915146</ele>
        <time>2020-07-27T11:03:12.420Z</time>
      </trkpt>
      <trkpt lat="61.41641" lon="5.12961">
        <ele>73.954256</ele>
        <time>2020-07-27T11:03:15.361Z</time>
      </trkpt>
      <trkpt lat="61.41646" lon="5.12982">
        <ele>73.995581</ele>
        <time>2020-07-27T11:03:18.376Z</time>
      </trkpt>
      <trkpt lat="61.41651" lon="5.13007">
        <ele>74.045111</ele>
        <time>2020-07-27T11:03:21.373Z</time>
      </trkpt>
      <trkpt lat="61.41657" lon="5.13032">
        <ele>74.093994</ele>
        <time>2020-07-27T11:03:24.353Z</time>
      </trkpt>
      <trkpt lat="61.41661" lon="5.13049">
        <ele>74.12748</ele>
        <time>2020-07-27T11:03:26.366Z</time>
      </trkpt>
      <trkpt lat="61.41666" lon="5.13074">
        <ele>74.175248</ele>
        <time>2020-07-27T11:03:29.359Z</time>
      </trkpt>
      <trkpt lat="61.41672" lon="5.13098">
        <ele>74.223623</ele>
        <time>2020-07-27T11:03:32.374Z</time>
      </trkpt>
      <trkpt lat="61.41677" lon="5.13123">
        <ele>74.271034</ele>
        <time>2020-07-27T11:03:35.358Z</time>
      </trkpt>
      <trkpt lat="61.41682" lon="5.13148">
        <ele>74.319803</ele>
        <time>2020-07-27T11:03:38.362Z</time>
      </trkpt>
      <trkpt lat="61.41687" lon="5.13173">
        <ele>74.366807</ele>
        <time>2020-07-27T11:03:41.363Z</time>
      </trkpt>
      <trkpt lat="61.41691" lon="5.13195">
        <ele>74.410712</ele>
        <time>2020-07-27T11:03:44.374Z</time>
      </trkpt>
      <trkpt lat="61.41697" lon="5.13217">
        <ele>74.455061</ele>
        <time>2020-07-27T11:03:47.379Z</time>
      </trkpt>
      <trkpt lat="61.41704" lon="5.13239">
        <ele>74.501198</ele>
        <time>2020-07-27T11:03:50.384Z</time>
      </trkpt>
      <trkpt lat="61.41711" lon="5.1326">
        <ele>74.547289</ele>
        <time>2020-07-27T11:03:53.378Z</time>
      </trkpt>
      <trkpt lat="61.4172" lon="5.1328">
        <ele>74.596835</ele>
        <time>2020-07-27T11:03:56.382Z</time>
      </trkpt>
      <trkpt lat="61.41728" lon="5.13299">
        <ele>74.648449</ele>
        <time>2020-07-27T11:03:59.388Z</time>
      </trkpt>
      <trkpt lat="61.41736" lon="5.13318">
        <ele>74.700025</ele>
        <time>2020-07-27T11:04:02.378Z</time>
      </trkpt>
      <trkpt lat="61.41744" lon="5.13335">
        <ele>74.747523</ele>
        <time>2020-07-27T11:04:05.375Z</time>
      </trkpt>
      <trkpt lat="61.41752" lon="5.13352">
        <ele>74.795913</ele>
        <time>2020-07-27T11:04:08.362Z</time>
      </trkpt>
      <trkpt lat="61.4176" lon="5.13367">
        <ele>74.841386</ele>
        <time>2020-07-27T11:04:11.360Z</time>
      </trkpt>
      <trkpt lat="61.41769" lon="5.13382">
        <ele>74.888224</ele>
        <time>2020-07-27T11:04:14.360Z</time>
      </trkpt>
      <trkpt lat="61.41778" lon="5.13396">
        <ele>74.936384</ele>
        <time>2020-07-27T11:04:17.361Z</time>
      </trkpt>
      <trkpt lat="61.41788" lon="5.1341">
        <ele>74.987198</ele>
        <time>2020-07-27T11:04:20.387Z</time>
      </trkpt>
      <trkpt lat="61.41797" lon="5.13421">
        <ele>75.031059</ele>
        <time>2020-07-27T11:04:23.394Z</time>
      </trkpt>
      <trkpt lat="61.41805" lon="5.13431">
        <ele>75.069011</ele>
        <time>2020-07-27T11:04:26.375Z</time>
      </trkpt>
      <trkpt lat="61.41816" lon="5.13442">
        <ele>75.120975</ele>
        <time>2020-07-27T11:04:29.371Z</time>
      </trkpt>
      <trkpt lat="61.41829" lon="5.13451">
        <ele>75.176265</ele>
        <time>2020-07-27T11:04:32.369Z</time>
      </trkpt>
      <trkpt lat="61.41841" lon="5.13457">
        <ele>75.231114</ele>
        <time>2020-07-27T11:04:35.405Z</time>
      </trkpt>
      <trkpt lat="61.41854" lon="5.1346">
        <ele>75.285971</ele>
        <time>2020-07-27T11:04:38.370Z</time>
      </trkpt>
      <trkpt lat="61.41867" lon="5.1346">
        <ele>75.335664</ele>
        <time>2020-07-27T11:04:41.360Z</time>
      </trkpt>
      <trkpt lat="61.41879" lon="5.13458">
        <ele>75.30602</ele>
        <time>2020-07-27T11:04:44.374Z</time>
      </trkpt>
      <trkpt lat="61.41891" lon="5.13453">
        <ele>75.27707</ele>
        <time>2020-07-27T11:04:47.371Z</time>
      </trkpt>
      <trkpt lat="61.41903" lon="5.13444">
        <ele>75.248132</ele>
        <time>2020-07-27T11:04:50.392Z</time>
      </trkpt>
      <trkpt lat="61.41915" lon="5.13435">
        <ele>75.217811</ele>
        <time>2020-07-27T11:04:53.394Z</time>
      </trkpt>
      <trkpt lat="61.41927" lon="5.13429">
        <ele>75.187886</ele>
        <time>2020-07-27T11:04:56.353Z</time>
      </trkpt>
      <trkpt lat="61.4194" lon="5.13427">
        <ele>75.156393</ele>
        <time>2020-07-27T11:04:59.360Z</time>
      </trkpt>
      <trkpt lat="61.41953" lon="5.1343">
        <ele>75.12481</ele>
        <time>2020-07-27T11:05:02.371Z</time>
      </trkpt>
      <trkpt lat="61.41966" lon="5.1344">
        <ele>75.092594</ele>
        <time>2020-07-27T11:05:05.359Z</time>
      </trkpt>
      <trkpt lat="61.41974" lon="5.13449">
        <ele>75.07027</ele>
        <time>2020-07-27T11:05:07.364Z</time>
      </trkpt>
      <trkpt lat="61.41983" lon="5.13458">
        <ele>75.047632</ele>
        <time>2020-07-27T11:05:09.394Z</time>
      </trkpt>
      <trkpt lat="61.41991" lon="5.13468">
        <ele>75.024044</ele>
        <time>2020-07-27T11:05:11.394Z</time>
      </trkpt>
      <trkpt lat="61.42" lon="5.13478">
        <ele>75.00062</ele>
        <time>2020-07-27T11:05:13.365Z</time>
      </trkpt>
      <trkpt lat="61.42008" lon="5.1349">
        <ele>74.977169</ele>
        <time>2020-07-27T11:05:15.363Z</time>
      </trkpt>
      <trkpt lat="61.42016" lon="5.13501">
        <ele>74.953844</ele>
        <time>2020-07-27T11:05:17.358Z</time>
      </trkpt>
      <trkpt lat="61.42024" lon="5.13512">
        <ele>74.931166</ele>
        <time>2020-07-27T11:05:19.392Z</time>
      </trkpt>
      <trkpt lat="61.42032" lon="5.13522">
        <ele>74.909257</ele>
        <time>2020-07-27T11:05:21.386Z</time>
      </trkpt>
      <trkpt lat="61.42043" lon="5.13536">
        <ele>74.958698</ele>
        <time>2020-07-27T11:05:24.390Z</time>
      </trkpt>
      <trkpt lat="61.42053" lon="5.13551">
        <ele>75.009675</ele>
        <time>2020-07-27T11:05:27.401Z</time>
      </trkpt>
      <trkpt lat="61.42063" lon="5.13567">
        <ele>75.05951</ele>
        <time>2020-07-27T11:05:30.355Z</time>
      </trkpt>
      <trkpt lat="61.42072" lon="5.13584">
        <ele>75.10922</ele>
        <time>2020-07-27T11:05:33.389Z</time>
      </trkpt>
      <trkpt lat="61.42081" lon="5.13604">
        <ele>75.159402</ele>
        <time>2020-07-27T11:05:36.376Z</time>
      </trkpt>
      <trkpt lat="61.42088" lon="5.13624">
        <ele>75.20835</ele>
        <time>2020-07-27T11:05:39.373Z</time>
      </trkpt>
      <trkpt lat="61.42093" lon="5.13645">
        <ele>75.25296</ele>
        <time>2020-07-27T11:05:42.386Z</time>
      </trkpt>
      <trkpt lat="61.42098" lon="5.13666">
        <ele>75.298411</ele>
        <time>2020-07-27T11:05:45.370Z</time>
      </trkpt>
      <trkpt lat="61.42101" lon="5.13689">
        <ele>75.344445</ele>
        <time>2020-07-27T11:05:48.387Z</time>
      </trkpt>
      <trkpt lat="61.42105" lon="5.13711">
        <ele>75.388752</ele>
        <time>2020-07-27T11:05:51.352Z</time>
      </trkpt>
      <trkpt lat="61.42107" lon="5.13734">
        <ele>75.433329</ele>
        <time>2020-07-27T11:05:54.375Z</time>
      </trkpt>
      <trkpt lat="61.4211" lon="5.13756">
        <ele>75.477923</ele>
        <time>2020-07-27T11:05:57.384Z</time>
      </trkpt>
      <trkpt lat="61.42113" lon="5.13778">
        <ele>75.521198</ele>
        <time>2020-07-27T11:06:00.377Z</time>
      </trkpt>
      <trkpt lat="61.42114" lon="5.13799">
        <ele>75.562761</ele>
        <time>2020-07-27T11:06:03.373Z</time>
      </trkpt>
      <trkpt lat="61.42116" lon="5.13821">
        <ele>75.605655</ele>
        <time>2020-07-27T11:06:06.368Z</time>
      </trkpt>
      <trkpt lat="61.42118" lon="5.13844">
        <ele>75.652053</ele>
        <time>2020-07-27T11:06:09.354Z</time>
      </trkpt>
      <trkpt lat="61.4212" lon="5.13868">
        <ele>75.701321</ele>
        <time>2020-07-27T11:06:12.369Z</time>
      </trkpt>
      <trkpt lat="61.42122" lon="5.13892">
        <ele>75.751855</ele>
        <time>2020-07-27T11:06:15.355Z</time>
      </trkpt>
      <trkpt lat="61.42124" lon="5.13916">
        <ele>75.802991</ele>
        <time>2020-07-27T11:06:18.373Z</time>
      </trkpt>
      <trkpt lat="61.42126" lon="5.13938">
        <ele>75.84972</ele>
        <time>2020-07-27T11:06:21.355Z</time>
      </trkpt>
      <trkpt lat="61.42127" lon="5.13961">
        <ele>75.895543</ele>
        <time>2020-07-27T11:06:24.363Z</time>
      </trkpt>
      <trkpt lat="61.42129" lon="5.13982">
        <ele>75.94145</ele>
        <time>2020-07-27T11:06:27.375Z</time>
      </trkpt>
      <trkpt lat="61.4213" lon="5.14005">
        <ele>75.98858</ele>
        <time>2020-07-27T11:06:30.380Z</time>
      </trkpt>
      <trkpt lat="61.42133" lon="5.14028">
        <ele>76.037157</ele>
        <time>2020-07-27T11:06:33.372Z</time>
      </trkpt>
      <trkpt lat="61.42134" lon="5.14051">
        <ele>76.084287</ele>
        <time>2020-07-27T11:06:36.373Z</time>
      </trkpt>
      <trkpt lat="61.42136" lon="5.14073">
        <ele>76.131077</ele>
        <time>2020-07-27T11:06:39.402Z</time>
      </trkpt>
      <trkpt lat="61.42137" lon="5.14095">
        <ele>76.176578</ele>
        <time>2020-07-27T11:06:42.352Z</time>
      </trkpt>
      <trkpt lat="61.42139" lon="5.14117">
        <ele>76.222551</ele>
        <time>2020-07-27T11:06:45.415Z</time>
      </trkpt>
      <trkpt lat="61.4214" lon="5.14138">
        <ele>76.267515</ele>
        <time>2020-07-27T11:06:48.375Z</time>
      </trkpt>
      <trkpt lat="61.42141" lon="5.14161">
        <ele>76.314903</ele>
        <time>2020-07-27T11:06:51.391Z</time>
      </trkpt>
      <trkpt lat="61.42142" lon="5.14184">
        <ele>76.361587</ele>
        <time>2020-07-27T11:06:54.353Z</time>
      </trkpt>
      <trkpt lat="61.42143" lon="5.14204">
        <ele>76.404224</ele>
        <time>2020-07-27T11:06:57.415Z</time>
      </trkpt>
      <trkpt lat="61.42142" lon="5.14225">
        <ele>76.488245</ele>
        <time>2020-07-27T11:07:00.350Z</time>
      </trkpt>
      <trkpt lat="61.42143" lon="5.14245">
        <ele>76.57342</ele>
        <time>2020-07-27T11:07:03.360Z</time>
      </trkpt>
      <trkpt lat="61.42143" lon="5.14266">
        <ele>76.661136</ele>
        <time>2020-07-27T11:07:06.358Z</time>
      </trkpt>
      <trkpt lat="61.42143" lon="5.14286">
        <ele>76.74929</ele>
        <time>2020-07-27T11:07:09.361Z</time>
      </trkpt>
      <trkpt lat="61.42143" lon="5.14308">
        <ele>76.842149</ele>
        <time>2020-07-27T11:07:12.359Z</time>
      </trkpt>
      <trkpt lat="61.42143" lon="5.14329">
        <ele>76.931993</ele>
        <time>2020-07-27T11:07:15.372Z</time>
      </trkpt>
      <trkpt lat="61.42142" lon="5.14351">
        <ele>77.023575</ele>
        <time>2020-07-27T11:07:18.354Z</time>
      </trkpt>
      <trkpt lat="61.42142" lon="5.14373">
        <ele>77.117677</ele>
        <time>2020-07-27T11:07:21.381Z</time>
      </trkpt>
      <trkpt lat="61.42143" lon="5.14395">
        <ele>77.213495</ele>
        <time>2020-07-27T11:07:24.372Z</time>
      </trkpt>
      <trkpt lat="61.42142" lon="5.14418">
        <ele>77.310589</ele>
        <time>2020-07-27T11:07:27.360Z</time>
      </trkpt>
      <trkpt lat="61.42142" lon="5.14441">
        <ele>77.409471</ele>
        <time>2020-07-27T11:07:30.370Z</time>
      </trkpt>
      <trkpt lat="61.42142" lon="5.14465">
        <ele>77.509104</ele>
        <time>2020-07-27T11:07:33.356Z</time>
      </trkpt>
      <trkpt lat="61.42142" lon="5.14489">
        <ele>77.614306</ele>
        <time>2020-07-27T11:07:36.368Z</time>
      </trkpt>
      <trkpt lat="61.42142" lon="5.14514">
        <ele>77.718196</ele>
        <time>2020-07-27T11:07:39.369Z</time>
      </trkpt>
      <trkpt lat="61.42142" lon="5.14538">
        <ele>77.819595</ele>
        <time>2020-07-27T11:07:42.365Z</time>
      </trkpt>
      <trkpt lat="61.42142" lon="5.14559">
        <ele>77.912415</ele>
        <time>2020-07-27T11:07:45.390Z</time>
      </trkpt>
      <trkpt lat="61.42142" lon="5.14582">
        <ele>78.008646</ele>
        <time>2020-07-27T11:07:48.358Z</time>
      </trkpt>
      <trkpt lat="61.42142" lon="5.14604">
        <ele>77.992459</ele>
        <time>2020-07-27T11:07:51.381Z</time>
      </trkpt>
      <trkpt lat="61.42144" lon="5.14626">
        <ele>77.97567</ele>
        <time>2020-07-27T11:07:54.370Z</time>
      </trkpt>
      <trkpt lat="61.42145" lon="5.14651">
        <ele>77.957191</ele>
        <time>2020-07-27T11:07:57.360Z</time>
      </trkpt>
      <trkpt lat="61.42147" lon="5.14676">
        <ele>77.938261</ele>
        <time>2020-07-27T11:08:00.373Z</time>
      </trkpt>
      <trkpt lat="61.4215" lon="5.14703">
        <ele>77.9179</ele>
        <time>2020-07-27T11:08:03.367Z</time>
      </trkpt>
      <trkpt lat="61.42153" lon="5.14722">
        <ele>77.903706</ele>
        <time>2020-07-27T11:08:05.365Z</time>
      </trkpt>
      <trkpt lat="61.42155" lon="5.1474">
        <ele>77.889512</ele>
        <time>2020-07-27T11:08:07.388Z</time>
      </trkpt>
      <trkpt lat="61.42158" lon="5.14759">
        <ele>77.875327</ele>
        <time>2020-07-27T11:08:09.392Z</time>
      </trkpt>
      <trkpt lat="61.42161" lon="5.14786">
        <ele>77.854968</ele>
        <time>2020-07-27T11:08:12.376Z</time>
      </trkpt>
      <trkpt lat="61.42164" lon="5.14813">
        <ele>77.834392</ele>
        <time>2020-07-27T11:08:15.394Z</time>
      </trkpt>
      <trkpt lat="61.42167" lon="5.1484">
        <ele>77.813601</ele>
        <time>2020-07-27T11:08:18.423Z</time>
      </trkpt>
      <trkpt lat="61.42169" lon="5.14859">
        <ele>77.799138</ele>
        <time>2020-07-27T11:08:20.381Z</time>
      </trkpt>
      <trkpt lat="61.42171" lon="5.14879">
        <ele>77.784129</ele>
        <time>2020-07-27T11:08:22.392Z</time>
      </trkpt>
      <trkpt lat="61.42174" lon="5.14899">
        <ele>77.768866</ele>
        <time>2020-07-27T11:08:24.399Z</time>
      </trkpt>
      <trkpt lat="61.42175" lon="5.14919">
        <ele>77.753622</ele>
        <time>2020-07-27T11:08:26.392Z</time>
      </trkpt>
      <trkpt lat="61.42177" lon="5.1494">
        <ele>77.738573</ele>
        <time>2020-07-27T11:08:28.368Z</time>
      </trkpt>
      <trkpt lat="61.42179" lon="5.1496">
        <ele>77.652764</ele>
        <time>2020-07-27T11:08:30.375Z</time>
      </trkpt>
      <trkpt lat="61.42183" lon="5.1498">
        <ele>77.504668</ele>
        <time>2020-07-27T11:08:32.370Z</time>
      </trkpt>
      <trkpt lat="61.42187" lon="5.14999">
        <ele>77.356996</ele>
        <time>2020-07-27T11:08:34.379Z</time>
      </trkpt>
      <trkpt lat="61.42192" lon="5.15017">
        <ele>77.204633</ele>
        <time>2020-07-27T11:08:36.363Z</time>
      </trkpt>
      <trkpt lat="61.42198" lon="5.15035">
        <ele>77.049499</ele>
        <time>2020-07-27T11:08:38.389Z</time>
      </trkpt>
      <trkpt lat="61.42204" lon="5.15053">
        <ele>76.900645</ele>
        <time>2020-07-27T11:08:40.355Z</time>
      </trkpt>
      <trkpt lat="61.42209" lon="5.15071">
        <ele>76.752075</ele>
        <time>2020-07-27T11:08:42.373Z</time>
      </trkpt>
      <trkpt lat="61.42214" lon="5.15088">
        <ele>76.606869</ele>
        <time>2020-07-27T11:08:44.376Z</time>
      </trkpt>
      <trkpt lat="61.42219" lon="5.15105">
        <ele>76.466856</ele>
        <time>2020-07-27T11:08:46.375Z</time>
      </trkpt>
      <trkpt lat="61.42227" lon="5.15128">
        <ele>76.267114</ele>
        <time>2020-07-27T11:08:49.369Z</time>
      </trkpt>
      <trkpt lat="61.42232" lon="5.15145">
        <ele>76.128506</ele>
        <time>2020-07-27T11:08:51.407Z</time>
      </trkpt>
      <trkpt lat="61.42237" lon="5.15162">
        <ele>75.984493</ele>
        <time>2020-07-27T11:08:53.372Z</time>
      </trkpt>
      <trkpt lat="61.42243" lon="5.15177">
        <ele>75.844303</ele>
        <time>2020-07-27T11:08:55.378Z</time>
      </trkpt>
      <trkpt lat="61.42253" lon="5.15195">
        <ele>75.651699</ele>
        <time>2020-07-27T11:08:58.394Z</time>
      </trkpt>
      <trkpt lat="61.4226" lon="5.15205">
        <ele>75.51816</ele>
        <time>2020-07-27T11:09:00.390Z</time>
      </trkpt>
      <trkpt lat="61.42269" lon="5.15212">
        <ele>75.382303</ele>
        <time>2020-07-27T11:09:02.355Z</time>
      </trkpt>
      <trkpt lat="61.42278" lon="5.15216">
        <ele>75.23961</ele>
        <time>2020-07-27T11:09:04.380Z</time>
      </trkpt>
      <trkpt lat="61.42288" lon="5.15219">
        <ele>75.093275</ele>
        <time>2020-07-27T11:09:06.375Z</time>
      </trkpt>
      <trkpt lat="61.42298" lon="5.15219">
        <ele>75.188385</ele>
        <time>2020-07-27T11:09:08.364Z</time>
      </trkpt>
      <trkpt lat="61.42307" lon="5.1522">
        <ele>75.328493</ele>
        <time>2020-07-27T11:09:10.363Z</time>
      </trkpt>
      <trkpt lat="61.4232" lon="5.15221">
        <ele>75.526644</ele>
        <time>2020-07-27T11:09:13.365Z</time>
      </trkpt>
      <trkpt lat="61.42333" lon="5.15222">
        <ele>75.718371</ele>
        <time>2020-07-27T11:09:16.376Z</time>
      </trkpt>
      <trkpt lat="61.42346" lon="5.15222">
        <ele>75.916178</ele>
        <time>2020-07-27T11:09:19.380Z</time>
      </trkpt>
      <trkpt lat="61.42358" lon="5.15222">
        <ele>76.104892</ele>
        <time>2020-07-27T11:09:22.419Z</time>
      </trkpt>
      <trkpt lat="61.4237" lon="5.15224">
        <ele>76.287854</ele>
        <time>2020-07-27T11:09:25.371Z</time>
      </trkpt>
      <trkpt lat="61.42382" lon="5.15225">
        <ele>76.472211</ele>
        <time>2020-07-27T11:09:28.369Z</time>
      </trkpt>
      <trkpt lat="61.42394" lon="5.15226">
        <ele>76.656416</ele>
        <time>2020-07-27T11:09:31.376Z</time>
      </trkpt>
      <trkpt lat="61.42407" lon="5.15228">
        <ele>76.842565</ele>
        <time>2020-07-27T11:09:34.370Z</time>
      </trkpt>
      <trkpt lat="61.42415" lon="5.15231">
        <ele>76.978603</ele>
        <time>2020-07-27T11:09:36.356Z</time>
      </trkpt>
      <trkpt lat="61.42427" lon="5.15237">
        <ele>77.155478</ele>
        <time>2020-07-27T11:09:39.375Z</time>
      </trkpt>
      <trkpt lat="61.42437" lon="5.15245">
        <ele>77.327335</ele>
        <time>2020-07-27T11:09:42.391Z</time>
      </trkpt>
      <trkpt lat="61.42446" lon="5.15255">
        <ele>77.484777</ele>
        <time>2020-07-27T11:09:45.363Z</time>
      </trkpt>
      <trkpt lat="61.42455" lon="5.15269">
        <ele>77.65216</ele>
        <time>2020-07-27T11:09:48.365Z</time>
      </trkpt>
      <trkpt lat="61.42464" lon="5.15286">
        <ele>77.715677</ele>
        <time>2020-07-27T11:09:51.358Z</time>
      </trkpt>
      <trkpt lat="61.42474" lon="5.15304">
        <ele>77.245162</ele>
        <time>2020-07-27T11:09:54.352Z</time>
      </trkpt>
      <trkpt lat="61.42481" lon="5.15316">
        <ele>76.917981</ele>
        <time>2020-07-27T11:09:56.360Z</time>
      </trkpt>
      <trkpt lat="61.42488" lon="5.15329">
        <ele>76.587176</ele>
        <time>2020-07-27T11:09:58.398Z</time>
      </trkpt>
      <trkpt lat="61.42494" lon="5.15342">
        <ele>76.254011</ele>
        <time>2020-07-27T11:10:00.371Z</time>
      </trkpt>
      <trkpt lat="61.42501" lon="5.15355">
        <ele>75.909798</ele>
        <time>2020-07-27T11:10:02.411Z</time>
      </trkpt>
      <trkpt lat="61.42508" lon="5.1537">
        <ele>75.551947</ele>
        <time>2020-07-27T11:10:04.380Z</time>
      </trkpt>
      <trkpt lat="61.42515" lon="5.15384">
        <ele>75.195416</ele>
        <time>2020-07-27T11:10:06.383Z</time>
      </trkpt>
      <trkpt lat="61.42522" lon="5.154">
        <ele>74.809779</ele>
        <time>2020-07-27T11:10:08.371Z</time>
      </trkpt>
      <trkpt lat="61.4253" lon="5.15417">
        <ele>74.408997</ele>
        <time>2020-07-27T11:10:10.372Z</time>
      </trkpt>
      <trkpt lat="61.42538" lon="5.15433">
        <ele>73.997769</ele>
        <time>2020-07-27T11:10:12.378Z</time>
      </trkpt>
      <trkpt lat="61.42546" lon="5.15451">
        <ele>73.566594</ele>
        <time>2020-07-27T11:10:14.362Z</time>
      </trkpt>
      <trkpt lat="61.42554" lon="5.15471">
        <ele>73.102245</ele>
        <time>2020-07-27T11:10:16.379Z</time>
      </trkpt>
      <trkpt lat="61.42562" lon="5.15492">
        <ele>72.630933</ele>
        <time>2020-07-27T11:10:18.369Z</time>
      </trkpt>
      <trkpt lat="61.42569" lon="5.15516">
        <ele>72.157512</ele>
        <time>2020-07-27T11:10:20.406Z</time>
      </trkpt>
      <trkpt lat="61.42575" lon="5.15539">
        <ele>71.673992</ele>
        <time>2020-07-27T11:10:22.358Z</time>
      </trkpt>
      <trkpt lat="61.42582" lon="5.15563">
        <ele>71.191907</ele>
        <time>2020-07-27T11:10:24.356Z</time>
      </trkpt>
      <trkpt lat="61.42589" lon="5.15586">
        <ele>70.65016</ele>
        <time>2020-07-27T11:10:26.377Z</time>
      </trkpt>
      <trkpt lat="61.42594" lon="5.15611">
        <ele>70.115533</ele>
        <time>2020-07-27T11:10:28.371Z</time>
      </trkpt>
      <trkpt lat="61.42599" lon="5.15636">
        <ele>69.578667</ele>
        <time>2020-07-27T11:10:30.374Z</time>
      </trkpt>
      <trkpt lat="61.42603" lon="5.15662">
        <ele>69.037127</ele>
        <time>2020-07-27T11:10:32.353Z</time>
      </trkpt>
      <trkpt lat="61.42606" lon="5.15688">
        <ele>68.496513</ele>
        <time>2020-07-27T11:10:34.375Z</time>
      </trkpt>
      <trkpt lat="61.42609" lon="5.15717">
        <ele>67.924438</ele>
        <time>2020-07-27T11:10:36.407Z</time>
      </trkpt>
      <trkpt lat="61.4261" lon="5.15747">
        <ele>67.318822</ele>
        <time>2020-07-27T11:10:38.376Z</time>
      </trkpt>
      <trkpt lat="61.42611" lon="5.15778">
        <ele>66.710054</ele>
        <time>2020-07-27T11:10:40.382Z</time>
      </trkpt>
      <trkpt lat="61.42613" lon="5.15808">
        <ele>66.106971</ele>
        <time>2020-07-27T11:10:42.359Z</time>
      </trkpt>
      <trkpt lat="61.42615" lon="5.15837">
        <ele>65.529027</ele>
        <time>2020-07-27T11:10:44.382Z</time>
      </trkpt>
      <trkpt lat="61.42616" lon="5.1586">
        <ele>65.064141</ele>
        <time>2020-07-27T11:10:46.393Z</time>
      </trkpt>
      <trkpt lat="61.42616" lon="5.1588">
        <ele>64.677701</ele>
        <time>2020-07-27T11:10:48.376Z</time>
      </trkpt>
      <trkpt lat="61.42618" lon="5.15898">
        <ele>64.297762</ele>
        <time>2020-07-27T11:10:50.378Z</time>
      </trkpt>
      <trkpt lat="61.42619" lon="5.1592">
        <ele>63.870789</ele>
        <time>2020-07-27T11:10:52.410Z</time>
      </trkpt>
      <trkpt lat="61.4262" lon="5.15944">
        <ele>63.428479</ele>
        <time>2020-07-27T11:10:54.361Z</time>
      </trkpt>
      <trkpt lat="61.42621" lon="5.15969">
        <ele>62.96942</ele>
        <time>2020-07-27T11:10:56.381Z</time>
      </trkpt>
      <trkpt lat="61.42622" lon="5.15996">
        <ele>62.491755</ele>
        <time>2020-07-27T11:10:58.388Z</time>
      </trkpt>
      <trkpt lat="61.42623" lon="5.16022">
        <ele>62.007947</ele>
        <time>2020-07-27T11:11:00.409Z</time>
      </trkpt>
      <trkpt lat="61.42626" lon="5.1605">
        <ele>61.505095</ele>
        <time>2020-07-27T11:11:02.356Z</time>
      </trkpt>
      <trkpt lat="61.42629" lon="5.16077">
        <ele>60.99881</ele>
        <time>2020-07-27T11:11:04.392Z</time>
      </trkpt>
      <trkpt lat="61.42633" lon="5.16105">
        <ele>60.47731</ele>
        <time>2020-07-27T11:11:06.391Z</time>
      </trkpt>
      <trkpt lat="61.42636" lon="5.16135">
        <ele>59.924254</ele>
        <time>2020-07-27T11:11:08.373Z</time>
      </trkpt>
      <trkpt lat="61.42638" lon="5.16169">
        <ele>59.307619</ele>
        <time>2020-07-27T11:11:10.373Z</time>
      </trkpt>
      <trkpt lat="61.42641" lon="5.16205">
        <ele>58.65053</ele>
        <time>2020-07-27T11:11:12.353Z</time>
      </trkpt>
      <trkpt lat="61.42643" lon="5.16223">
        <ele>58.309442</ele>
        <time>2020-07-27T11:11:13.377Z</time>
      </trkpt>
      <trkpt lat="61.42645" lon="5.16243">
        <ele>57.956285</ele>
        <time>2020-07-27T11:11:14.371Z</time>
      </trkpt>
      <trkpt lat="61.42647" lon="5.16262">
        <ele>57.597064</ele>
        <time>2020-07-27T11:11:15.381Z</time>
      </trkpt>
      <trkpt lat="61.42649" lon="5.16282">
        <ele>57.235278</ele>
        <time>2020-07-27T11:11:16.364Z</time>
      </trkpt>
      <trkpt lat="61.42651" lon="5.16302">
        <ele>56.942176</ele>
        <time>2020-07-27T11:11:17.375Z</time>
      </trkpt>
      <trkpt lat="61.42653" lon="5.16322">
        <ele>56.790002</ele>
        <time>2020-07-27T11:11:18.415Z</time>
      </trkpt>
      <trkpt lat="61.42655" lon="5.16343">
        <ele>56.632947</ele>
        <time>2020-07-27T11:11:19.393Z</time>
      </trkpt>
      <trkpt lat="61.42657" lon="5.16364">
        <ele>56.475116</ele>
        <time>2020-07-27T11:11:20.368Z</time>
      </trkpt>
      <trkpt lat="61.42659" lon="5.16385">
        <ele>56.322507</ele>
        <time>2020-07-27T11:11:21.359Z</time>
      </trkpt>
      <trkpt lat="61.42661" lon="5.16404">
        <ele>56.174517</ele>
        <time>2020-07-27T11:11:22.386Z</time>
      </trkpt>
      <trkpt lat="61.42663" lon="5.16424">
        <ele>56.030416</ele>
        <time>2020-07-27T11:11:23.360Z</time>
      </trkpt>
      <trkpt lat="61.42664" lon="5.16442">
        <ele>55.889056</ele>
        <time>2020-07-27T11:11:24.406Z</time>
      </trkpt>
      <trkpt lat="61.42669" lon="5.16477">
        <ele>55.621038</ele>
        <time>2020-07-27T11:11:26.374Z</time>
      </trkpt>
      <trkpt lat="61.42675" lon="5.16509">
        <ele>55.372585</ele>
        <time>2020-07-27T11:11:28.375Z</time>
      </trkpt>
      <trkpt lat="61.42681" lon="5.16538">
        <ele>55.144329</ele>
        <time>2020-07-27T11:11:30.368Z</time>
      </trkpt>
      <trkpt lat="61.42688" lon="5.16564">
        <ele>54.922535</ele>
        <time>2020-07-27T11:11:32.356Z</time>
      </trkpt>
      <trkpt lat="61.42696" lon="5.16588">
        <ele>54.702562</ele>
        <time>2020-07-27T11:11:34.409Z</time>
      </trkpt>
      <trkpt lat="61.42705" lon="5.1661">
        <ele>54.491817</ele>
        <time>2020-07-27T11:11:36.360Z</time>
      </trkpt>
      <trkpt lat="61.42714" lon="5.1663">
        <ele>54.293964</ele>
        <time>2020-07-27T11:11:38.385Z</time>
      </trkpt>
      <trkpt lat="61.42722" lon="5.16648">
        <ele>54.296784</ele>
        <time>2020-07-27T11:11:40.364Z</time>
      </trkpt>
      <trkpt lat="61.4273" lon="5.16664">
        <ele>54.384437</ele>
        <time>2020-07-27T11:11:42.350Z</time>
      </trkpt>
      <trkpt lat="61.42738" lon="5.16679">
        <ele>54.470967</ele>
        <time>2020-07-27T11:11:44.356Z</time>
      </trkpt>
      <trkpt lat="61.42746" lon="5.16695">
        <ele>54.56464</ele>
        <time>2020-07-27T11:11:46.368Z</time>
      </trkpt>
      <trkpt lat="61.42753" lon="5.16709">
        <ele>54.640143</ele>
        <time>2020-07-27T11:11:48.368Z</time>
      </trkpt>
      <trkpt lat="61.42763" lon="5.16726">
        <ele>54.744284</ele>
        <time>2020-07-27T11:11:51.382Z</time>
      </trkpt>
      <trkpt lat="61.42773" lon="5.16742">
        <ele>54.852063</ele>
        <time>2020-07-27T11:11:54.360Z</time>
      </trkpt>
      <trkpt lat="61.42781" lon="5.16753">
        <ele>54.925084</ele>
        <time>2020-07-27T11:11:56.373Z</time>
      </trkpt>
      <trkpt lat="61.42792" lon="5.16766">
        <ele>55.030043</ele>
        <time>2020-07-27T11:11:59.373Z</time>
      </trkpt>
      <trkpt lat="61.42803" lon="5.16776">
        <ele>55.126252</ele>
        <time>2020-07-27T11:12:02.361Z</time>
      </trkpt>
      <trkpt lat="61.42814" lon="5.16784">
        <ele>55.223762</ele>
        <time>2020-07-27T11:12:05.390Z</time>
      </trkpt>
      <trkpt lat="61.42826" lon="5.16789">
        <ele>55.320042</ele>
        <time>2020-07-27T11:12:08.376Z</time>
      </trkpt>
      <trkpt lat="61.42839" lon="5.16791">
        <ele>55.423166</ele>
        <time>2020-07-27T11:12:11.358Z</time>
      </trkpt>
      <trkpt lat="61.42852" lon="5.1679">
        <ele>55.529408</ele>
        <time>2020-07-27T11:12:14.398Z</time>
      </trkpt>
      <trkpt lat="61.42864" lon="5.16786">
        <ele>55.63293</ele>
        <time>2020-07-27T11:12:17.357Z</time>
      </trkpt>
      <trkpt lat="61.42875" lon="5.16778">
        <ele>55.739447</ele>
        <time>2020-07-27T11:12:20.398Z</time>
      </trkpt>
      <trkpt lat="61.42887" lon="5.16768">
        <ele>55.882937</ele>
        <time>2020-07-27T11:12:23.375Z</time>
      </trkpt>
      <trkpt lat="61.42899" lon="5.16755">
        <ele>56.029948</ele>
        <time>2020-07-27T11:12:26.372Z</time>
      </trkpt>
      <trkpt lat="61.42907" lon="5.16748">
        <ele>56.129691</ele>
        <time>2020-07-27T11:12:28.367Z</time>
      </trkpt>
      <trkpt lat="61.42916" lon="5.16741">
        <ele>56.229858</ele>
        <time>2020-07-27T11:12:30.361Z</time>
      </trkpt>
      <trkpt lat="61.42924" lon="5.16733">
        <ele>56.329869</ele>
        <time>2020-07-27T11:12:32.397Z</time>
      </trkpt>
      <trkpt lat="61.42932" lon="5.16724">
        <ele>56.429779</ele>
        <time>2020-07-27T11:12:34.392Z</time>
      </trkpt>
      <trkpt lat="61.42944" lon="5.16711">
        <ele>56.577524</ele>
        <time>2020-07-27T11:12:37.355Z</time>
      </trkpt>
      <trkpt lat="61.42952" lon="5.16702">
        <ele>56.67999</ele>
        <time>2020-07-27T11:12:39.383Z</time>
      </trkpt>
      <trkpt lat="61.42964" lon="5.16691">
        <ele>56.827441</ele>
        <time>2020-07-27T11:12:42.367Z</time>
      </trkpt>
      <trkpt lat="61.42976" lon="5.16679">
        <ele>56.97288</ele>
        <time>2020-07-27T11:12:45.354Z</time>
      </trkpt>
      <trkpt lat="61.42984" lon="5.16671">
        <ele>57.076022</ele>
        <time>2020-07-27T11:12:47.375Z</time>
      </trkpt>
      <trkpt lat="61.42993" lon="5.16663">
        <ele>57.178268</ele>
        <time>2020-07-27T11:12:49.359Z</time>
      </trkpt>
      <trkpt lat="61.43001" lon="5.16655">
        <ele>57.278188</ele>
        <time>2020-07-27T11:12:51.355Z</time>
      </trkpt>
      <trkpt lat="61.43012" lon="5.16644">
        <ele>57.415752</ele>
        <time>2020-07-27T11:12:54.415Z</time>
      </trkpt>
      <trkpt lat="61.43024" lon="5.16634">
        <ele>57.555367</ele>
        <time>2020-07-27T11:12:57.371Z</time>
      </trkpt>
      <trkpt lat="61.43035" lon="5.16623">
        <ele>57.740132</ele>
        <time>2020-07-27T11:13:00.371Z</time>
      </trkpt>
      <trkpt lat="61.43045" lon="5.16614">
        <ele>58.458538</ele>
        <time>2020-07-27T11:13:03.369Z</time>
      </trkpt>
      <trkpt lat="61.43054" lon="5.16607">
        <ele>59.081946</ele>
        <time>2020-07-27T11:13:06.395Z</time>
      </trkpt>
      <trkpt lat="61.43062" lon="5.16599">
        <ele>59.707972</ele>
        <time>2020-07-27T11:13:10.387Z</time>
      </trkpt>
      <trkpt lat="61.43071" lon="5.16588">
        <ele>60.377675</ele>
        <time>2020-07-27T11:13:15.377Z</time>
      </trkpt>
      <trkpt lat="61.43079" lon="5.1658">
        <ele>60.984798</ele>
        <time>2020-07-27T11:13:20.353Z</time>
      </trkpt>
      <trkpt lat="61.43087" lon="5.1657">
        <ele>61.596668</ele>
        <time>2020-07-27T11:13:26.377Z</time>
      </trkpt>
      <trkpt lat="61.43095" lon="5.1656">
        <ele>62.217586</ele>
        <time>2020-07-27T11:13:31.355Z</time>
      </trkpt>
      <trkpt lat="61.43102" lon="5.16548">
        <ele>62.866206</ele>
        <time>2020-07-27T11:13:37.363Z</time>
      </trkpt>
      <trkpt lat="61.43108" lon="5.16532">
        <ele>63.518992</ele>
        <time>2020-07-27T11:13:43.371Z</time>
      </trkpt>
      <trkpt lat="61.43114" lon="5.16516">
        <ele>64.135035</ele>
        <time>2020-07-27T11:13:49.369Z</time>
      </trkpt>
      <trkpt lat="61.43119" lon="5.16498">
        <ele>64.812191</ele>
        <time>2020-07-27T11:13:55.366Z</time>
      </trkpt>
      <trkpt lat="61.43124" lon="5.16479">
        <ele>65.513591</ele>
        <time>2020-07-27T11:14:01.390Z</time>
      </trkpt>
      <trkpt lat="61.4313" lon="5.1646">
        <ele>66.218422</ele>
        <time>2020-07-27T11:14:07.380Z</time>
      </trkpt>
      <trkpt lat="61.43133" lon="5.16442">
        <ele>66.845777</ele>
        <time>2020-07-27T11:14:13.364Z</time>
      </trkpt>
      <trkpt lat="61.43138" lon="5.16425">
        <ele>67.466935</ele>
        <time>2020-07-27T11:14:18.391Z</time>
      </trkpt>
      <trkpt lat="61.43147" lon="5.16419">
        <ele>68.085862</ele>
        <time>2020-07-27T11:14:24.389Z</time>
      </trkpt>
      <trkpt lat="61.43151" lon="5.16437">
        <ele>68.767141</ele>
        <time>2020-07-27T11:14:31.382Z</time>
      </trkpt>
      <trkpt lat="61.4315" lon="5.16459">
        <ele>69.451569</ele>
        <time>2020-07-27T11:14:37.378Z</time>
      </trkpt>
      <trkpt lat="61.43147" lon="5.16478">
        <ele>70.23146</ele>
        <time>2020-07-27T11:14:43.354Z</time>
      </trkpt>
      <trkpt lat="61.43144" lon="5.16496">
        <ele>71.070274</ele>
        <time>2020-07-27T11:14:49.394Z</time>
      </trkpt>
      <trkpt lat="61.4314" lon="5.16514">
        <ele>71.976454</ele>
        <time>2020-07-27T11:14:55.376Z</time>
      </trkpt>
      <trkpt lat="61.43137" lon="5.16533">
        <ele>72.86461</ele>
        <time>2020-07-27T11:15:01.388Z</time>
      </trkpt>
      <trkpt lat="61.43134" lon="5.16552">
        <ele>73.754025</ele>
        <time>2020-07-27T11:15:07.411Z</time>
      </trkpt>
      <trkpt lat="61.43129" lon="5.16569">
        <ele>74.62975</ele>
        <time>2020-07-27T11:15:13.357Z</time>
      </trkpt>
      <trkpt lat="61.43125" lon="5.16589">
        <ele>75.564861</ele>
        <time>2020-07-27T11:15:19.417Z</time>
      </trkpt>
      <trkpt lat="61.43121" lon="5.16606">
        <ele>76.415687</ele>
        <time>2020-07-27T11:15:25.354Z</time>
      </trkpt>
      <trkpt lat="61.43117" lon="5.16624">
        <ele>77.305745</ele>
        <time>2020-07-27T11:15:32.367Z</time>
      </trkpt>
      <trkpt lat="61.43115" lon="5.16643">
        <ele>78.144842</ele>
        <time>2020-07-27T11:15:38.386Z</time>
      </trkpt>
      <trkpt lat="61.43112" lon="5.16661">
        <ele>79.003875</ele>
        <time>2020-07-27T11:15:44.379Z</time>
      </trkpt>
      <trkpt lat="61.43109" lon="5.16681">
        <ele>79.952605</ele>
        <time>2020-07-27T11:15:51.389Z</time>
      </trkpt>
      <trkpt lat="61.43107" lon="5.16702">
        <ele>80.89311</ele>
        <time>2020-07-27T11:15:58.360Z</time>
      </trkpt>
      <trkpt lat="61.43104" lon="5.16722">
        <ele>81.810831</ele>
        <time>2020-07-27T11:16:06.359Z</time>
      </trkpt>
      <trkpt lat="61.43101" lon="5.16743">
        <ele>82.781442</ele>
        <time>2020-07-27T11:16:13.380Z</time>
      </trkpt>
      <trkpt lat="61.431" lon="5.16764">
        <ele>83.714236</ele>
        <time>2020-07-27T11:16:20.381Z</time>
      </trkpt>
      <trkpt lat="61.43101" lon="5.16785">
        <ele>84.622365</ele>
        <time>2020-07-27T11:16:26.371Z</time>
      </trkpt>
      <trkpt lat="61.431" lon="5.16804">
        <ele>85.472003</ele>
        <time>2020-07-27T11:16:32.373Z</time>
      </trkpt>
      <trkpt lat="61.431" lon="5.16823">
        <ele>86.315844</ele>
        <time>2020-07-27T11:16:38.414Z</time>
      </trkpt>
      <trkpt lat="61.43099" lon="5.16843">
        <ele>87.012784</ele>
        <time>2020-07-27T11:16:45.352Z</time>
      </trkpt>
      <trkpt lat="61.43099" lon="5.16864">
        <ele>87.75745</ele>
        <time>2020-07-27T11:16:52.371Z</time>
      </trkpt>
      <trkpt lat="61.43099" lon="5.16883">
        <ele>88.411754</ele>
        <time>2020-07-27T11:16:58.383Z</time>
      </trkpt>
      <trkpt lat="61.43098" lon="5.16903">
        <ele>89.07088</ele>
        <time>2020-07-27T11:17:05.404Z</time>
      </trkpt>
      <trkpt lat="61.43098" lon="5.16922">
        <ele>89.747685</ele>
        <time>2020-07-27T11:17:11.379Z</time>
      </trkpt>
      <trkpt lat="61.43097" lon="5.16942">
        <ele>90.443607</ele>
        <time>2020-07-27T11:17:18.362Z</time>
      </trkpt>
      <trkpt lat="61.43096" lon="5.16961">
        <ele>91.089901</ele>
        <time>2020-07-27T11:17:25.376Z</time>
      </trkpt>
      <trkpt lat="61.43093" lon="5.16981">
        <ele>91.808832</ele>
        <time>2020-07-27T11:17:33.357Z</time>
      </trkpt>
      <trkpt lat="61.43095" lon="5.17001">
        <ele>92.504871</ele>
        <time>2020-07-27T11:17:40.363Z</time>
      </trkpt>
      <trkpt lat="61.43095" lon="5.17021">
        <ele>93.203939</ele>
        <time>2020-07-27T11:17:46.372Z</time>
      </trkpt>
      <trkpt lat="61.43095" lon="5.17042">
        <ele>93.918052</ele>
        <time>2020-07-27T11:17:52.392Z</time>
      </trkpt>
      <trkpt lat="61.43094" lon="5.17061">
        <ele>94.56983</ele>
        <time>2020-07-27T11:17:58.372Z</time>
      </trkpt>
      <trkpt lat="61.43092" lon="5.17079">
        <ele>95.216619</ele>
        <time>2020-07-27T11:18:04.377Z</time>
      </trkpt>
      <trkpt lat="61.43089" lon="5.17098">
        <ele>95.907832</ele>
        <time>2020-07-27T11:18:11.362Z</time>
      </trkpt>
      <trkpt lat="61.43087" lon="5.17117">
        <ele>96.573451</ele>
        <time>2020-07-27T11:18:18.385Z</time>
      </trkpt>
      <trkpt lat="61.43085" lon="5.17137">
        <ele>97.27031</ele>
        <time>2020-07-27T11:18:26.370Z</time>
      </trkpt>
      <trkpt lat="61.43082" lon="5.17155">
        <ele>97.943152</ele>
        <time>2020-07-27T11:18:33.382Z</time>
      </trkpt>
      <trkpt lat="61.43077" lon="5.17172">
        <ele>98.602056</ele>
        <time>2020-07-27T11:18:40.394Z</time>
      </trkpt>
      <trkpt lat="61.43073" lon="5.17192">
        <ele>99.366065</ele>
        <time>2020-07-27T11:18:48.355Z</time>
      </trkpt>
      <trkpt lat="61.43069" lon="5.1721">
        <ele>100.101587</ele>
        <time>2020-07-27T11:18:54.391Z</time>
      </trkpt>
      <trkpt lat="61.43066" lon="5.17229">
        <ele>100.87552</ele>
        <time>2020-07-27T11:19:01.358Z</time>
      </trkpt>
      <trkpt lat="61.43063" lon="5.17248">
        <ele>101.639837</ele>
        <time>2020-07-27T11:19:08.361Z</time>
      </trkpt>
      <trkpt lat="61.43059" lon="5.17268">
        <ele>102.44191</ele>
        <time>2020-07-27T11:19:16.351Z</time>
      </trkpt>
      <trkpt lat="61.43055" lon="5.17286">
        <ele>103.201254</ele>
        <time>2020-07-27T11:19:23.398Z</time>
      </trkpt>
      <trkpt lat="61.43051" lon="5.17304">
        <ele>103.956854</ele>
        <time>2020-07-27T11:19:30.354Z</time>
      </trkpt>
      <trkpt lat="61.43047" lon="5.17323">
        <ele>104.754365</ele>
        <time>2020-07-27T11:19:38.375Z</time>
      </trkpt>
      <trkpt lat="61.43042" lon="5.1734">
        <ele>105.505092</ele>
        <time>2020-07-27T11:19:45.379Z</time>
      </trkpt>
      <trkpt lat="61.43037" lon="5.17359">
        <ele>106.319824</ele>
        <time>2020-07-27T11:19:53.356Z</time>
      </trkpt>
      <trkpt lat="61.43035" lon="5.17379">
        <ele>107.086996</ele>
        <time>2020-07-27T11:20:00.378Z</time>
      </trkpt>
      <trkpt lat="61.43032" lon="5.17398">
        <ele>107.869471</ele>
        <time>2020-07-27T11:20:06.367Z</time>
      </trkpt>
      <trkpt lat="61.4303" lon="5.17419">
        <ele>108.677217</ele>
        <time>2020-07-27T11:20:13.364Z</time>
      </trkpt>
      <trkpt lat="61.43027" lon="5.1744">
        <ele>109.485168</ele>
        <time>2020-07-27T11:20:20.388Z</time>
      </trkpt>
      <trkpt lat="61.43025" lon="5.17459">
        <ele>110.220782</ele>
        <time>2020-07-27T11:20:26.389Z</time>
      </trkpt>
      <trkpt lat="61.43023" lon="5.17478">
        <ele>110.969167</ele>
        <time>2020-07-27T11:20:32.401Z</time>
      </trkpt>
      <trkpt lat="61.43023" lon="5.17497">
        <ele>111.68163</ele>
        <time>2020-07-27T11:20:38.367Z</time>
      </trkpt>
      <trkpt lat="61.43022" lon="5.17517">
        <ele>112.469075</ele>
        <time>2020-07-27T11:20:45.352Z</time>
      </trkpt>
      <trkpt lat="61.43021" lon="5.17537">
        <ele>113.199127</ele>
        <time>2020-07-27T11:20:51.401Z</time>
      </trkpt>
      <trkpt lat="61.4302" lon="5.17555">
        <ele>113.798878</ele>
        <time>2020-07-27T11:20:57.385Z</time>
      </trkpt>
      <trkpt lat="61.4302" lon="5.17576">
        <ele>114.317303</ele>
        <time>2020-07-27T11:21:04.359Z</time>
      </trkpt>
      <trkpt lat="61.43021" lon="5.17598">
        <ele>114.891737</ele>
        <time>2020-07-27T11:21:10.408Z</time>
      </trkpt>
      <trkpt lat="61.43021" lon="5.17618">
        <ele>115.392502</ele>
        <time>2020-07-27T11:21:16.355Z</time>
      </trkpt>
      <trkpt lat="61.43021" lon="5.17638">
        <ele>115.911367</ele>
        <time>2020-07-27T11:21:22.388Z</time>
      </trkpt>
      <trkpt lat="61.43019" lon="5.17661">
        <ele>116.500559</ele>
        <time>2020-07-27T11:21:28.371Z</time>
      </trkpt>
      <trkpt lat="61.43018" lon="5.17681">
        <ele>117.010715</ele>
        <time>2020-07-27T11:21:33.364Z</time>
      </trkpt>
      <trkpt lat="61.43018" lon="5.17703">
        <ele>117.577619</ele>
        <time>2020-07-27T11:21:38.354Z</time>
      </trkpt>
      <trkpt lat="61.43016" lon="5.17726">
        <ele>118.175949</ele>
        <time>2020-07-27T11:21:43.418Z</time>
      </trkpt>
      <trkpt lat="61.43014" lon="5.17744">
        <ele>118.655354</ele>
        <time>2020-07-27T11:21:47.367Z</time>
      </trkpt>
      <trkpt lat="61.43012" lon="5.17767">
        <ele>119.232684</ele>
        <time>2020-07-27T11:21:52.386Z</time>
      </trkpt>
      <trkpt lat="61.43009" lon="5.17787">
        <ele>119.78328</ele>
        <time>2020-07-27T11:21:57.373Z</time>
      </trkpt>
      <trkpt lat="61.43006" lon="5.17809">
        <ele>120.356473</ele>
        <time>2020-07-27T11:22:02.380Z</time>
      </trkpt>
      <trkpt lat="61.43003" lon="5.17828">
        <ele>120.886887</ele>
        <time>2020-07-27T11:22:07.372Z</time>
      </trkpt>
      <trkpt lat="61.43" lon="5.17847">
        <ele>121.386049</ele>
        <time>2020-07-27T11:22:12.372Z</time>
      </trkpt>
      <trkpt lat="61.42997" lon="5.17865">
        <ele>121.882896</ele>
        <time>2020-07-27T11:22:17.388Z</time>
      </trkpt>
      <trkpt lat="61.42993" lon="5.17883">
        <ele>122.396436</ele>
        <time>2020-07-27T11:22:22.384Z</time>
      </trkpt>
      <trkpt lat="61.42989" lon="5.17902">
        <ele>122.90336</ele>
        <time>2020-07-27T11:22:27.360Z</time>
      </trkpt>
      <trkpt lat="61.42986" lon="5.17921">
        <ele>123.397124</ele>
        <time>2020-07-27T11:22:32.425Z</time>
      </trkpt>
      <trkpt lat="61.42984" lon="5.17941">
        <ele>123.913191</ele>
        <time>2020-07-27T11:22:37.362Z</time>
      </trkpt>
      <trkpt lat="61.42982" lon="5.17962">
        <ele>124.430448</ele>
        <time>2020-07-27T11:22:42.362Z</time>
      </trkpt>
      <trkpt lat="61.42979" lon="5.1798">
        <ele>124.90431</ele>
        <time>2020-07-27T11:22:46.389Z</time>
      </trkpt>
      <trkpt lat="61.42974" lon="5.18001">
        <ele>125.470858</ele>
        <time>2020-07-27T11:22:51.362Z</time>
      </trkpt>
      <trkpt lat="61.4297" lon="5.18019">
        <ele>125.930312</ele>
        <time>2020-07-27T11:22:55.368Z</time>
      </trkpt>
      <trkpt lat="61.42967" lon="5.18037">
        <ele>126.407444</ele>
        <time>2020-07-27T11:22:59.383Z</time>
      </trkpt>
      <trkpt lat="61.42963" lon="5.18055">
        <ele>126.884129</ele>
        <time>2020-07-27T11:23:03.383Z</time>
      </trkpt>
      <trkpt lat="61.42961" lon="5.18075">
        <ele>127.378254</ele>
        <time>2020-07-27T11:23:08.374Z</time>
      </trkpt>
      <trkpt lat="61.42958" lon="5.18094">
        <ele>127.875679</ele>
        <time>2020-07-27T11:23:14.358Z</time>
      </trkpt>
      <trkpt lat="61.42956" lon="5.18115">
        <ele>128.382312</ele>
        <time>2020-07-27T11:23:21.361Z</time>
      </trkpt>
      <trkpt lat="61.42953" lon="5.18135">
        <ele>128.900324</ele>
        <time>2020-07-27T11:23:28.359Z</time>
      </trkpt>
      <trkpt lat="61.4295" lon="5.18155">
        <ele>129.400495</ele>
        <time>2020-07-27T11:23:35.370Z</time>
      </trkpt>
      <trkpt lat="61.42946" lon="5.18174">
        <ele>129.905178</ele>
        <time>2020-07-27T11:23:42.389Z</time>
      </trkpt>
      <trkpt lat="61.42945" lon="5.18193">
        <ele>130.3661</ele>
        <time>2020-07-27T11:23:48.358Z</time>
      </trkpt>
      <trkpt lat="61.42942" lon="5.18213">
        <ele>130.885587</ele>
        <time>2020-07-27T11:23:54.375Z</time>
      </trkpt>
      <trkpt lat="61.4294" lon="5.18231">
        <ele>131.342497</ele>
        <time>2020-07-27T11:24:00.362Z</time>
      </trkpt>
      <trkpt lat="61.42938" lon="5.1825">
        <ele>131.809175</ele>
        <time>2020-07-27T11:24:07.387Z</time>
      </trkpt>
      <trkpt lat="61.42936" lon="5.18269">
        <ele>132.285088</ele>
        <time>2020-07-27T11:24:13.379Z</time>
      </trkpt>
      <trkpt lat="61.42934" lon="5.18288">
        <ele>132.979836</ele>
        <time>2020-07-27T11:24:19.391Z</time>
      </trkpt>
      <trkpt lat="61.42931" lon="5.18305">
        <ele>133.687704</ele>
        <time>2020-07-27T11:24:26.386Z</time>
      </trkpt>
      <trkpt lat="61.42926" lon="5.18323">
        <ele>134.456213</ele>
        <time>2020-07-27T11:24:32.387Z</time>
      </trkpt>
      <trkpt lat="61.42922" lon="5.18341">
        <ele>135.192408</ele>
        <time>2020-07-27T11:24:39.395Z</time>
      </trkpt>
      <trkpt lat="61.42916" lon="5.18358">
        <ele>135.946305</ele>
        <time>2020-07-27T11:24:46.362Z</time>
      </trkpt>
      <trkpt lat="61.42909" lon="5.18373">
        <ele>136.713726</ele>
        <time>2020-07-27T11:24:54.372Z</time>
      </trkpt>
      <trkpt lat="61.42904" lon="5.1839">
        <ele>137.485555</ele>
        <time>2020-07-27T11:25:02.377Z</time>
      </trkpt>
      <trkpt lat="61.42899" lon="5.18407">
        <ele>138.245993</ele>
        <time>2020-07-27T11:25:08.406Z</time>
      </trkpt>
      <trkpt lat="61.42893" lon="5.18426">
        <ele>139.041656</ele>
        <time>2020-07-27T11:25:15.365Z</time>
      </trkpt>
      <trkpt lat="61.42889" lon="5.18443">
        <ele>139.77271</ele>
        <time>2020-07-27T11:25:22.376Z</time>
      </trkpt>
      <trkpt lat="61.42884" lon="5.1846">
        <ele>140.500519</ele>
        <time>2020-07-27T11:25:29.374Z</time>
      </trkpt>
      <trkpt lat="61.42881" lon="5.18479">
        <ele>141.252085</ele>
        <time>2020-07-27T11:25:37.372Z</time>
      </trkpt>
      <trkpt lat="61.42879" lon="5.18498">
        <ele>141.981127</ele>
        <time>2020-07-27T11:25:44.399Z</time>
      </trkpt>
      <trkpt lat="61.42879" lon="5.18518">
        <ele>142.720924</ele>
        <time>2020-07-27T11:25:51.388Z</time>
      </trkpt>
      <trkpt lat="61.42875" lon="5.18537">
        <ele>143.48559</ele>
        <time>2020-07-27T11:25:58.400Z</time>
      </trkpt>
      <trkpt lat="61.42873" lon="5.18557">
        <ele>144.246702</ele>
        <time>2020-07-27T11:26:05.387Z</time>
      </trkpt>
      <trkpt lat="61.4287" lon="5.18575">
        <ele>144.970106</ele>
        <time>2020-07-27T11:26:11.387Z</time>
      </trkpt>
      <trkpt lat="61.42867" lon="5.18595">
        <ele>145.722974</ele>
        <time>2020-07-27T11:26:17.363Z</time>
      </trkpt>
      <trkpt lat="61.42864" lon="5.18613">
        <ele>146.385187</ele>
        <time>2020-07-27T11:26:23.378Z</time>
      </trkpt>
      <trkpt lat="61.42863" lon="5.18632">
        <ele>146.791756</ele>
        <time>2020-07-27T11:26:29.371Z</time>
      </trkpt>
      <trkpt lat="61.42861" lon="5.18653">
        <ele>147.208981</ele>
        <time>2020-07-27T11:26:35.359Z</time>
      </trkpt>
      <trkpt lat="61.4286" lon="5.18673">
        <ele>147.623556</ele>
        <time>2020-07-27T11:26:41.371Z</time>
      </trkpt>
      <trkpt lat="61.42858" lon="5.18694">
        <ele>148.064183</ele>
        <time>2020-07-27T11:26:47.398Z</time>
      </trkpt>
      <trkpt lat="61.42857" lon="5.18717">
        <ele>148.525831</ele>
        <time>2020-07-27T11:26:53.364Z</time>
      </trkpt>
      <trkpt lat="61.42856" lon="5.18736">
        <ele>148.927708</ele>
        <time>2020-07-27T11:26:59.357Z</time>
      </trkpt>
      <trkpt lat="61.42856" lon="5.18756">
        <ele>149.338585</ele>
        <time>2020-07-27T11:27:05.400Z</time>
      </trkpt>
      <trkpt lat="61.42858" lon="5.18778">
        <ele>149.792775</ele>
        <time>2020-07-27T11:27:11.353Z</time>
      </trkpt>
      <trkpt lat="61.4286" lon="5.18797">
        <ele>150.192244</ele>
        <time>2020-07-27T11:27:17.388Z</time>
      </trkpt>
      <trkpt lat="61.42863" lon="5.18817">
        <ele>150.617294</ele>
        <time>2020-07-27T11:27:23.400Z</time>
      </trkpt>
      <trkpt lat="61.42865" lon="5.18838">
        <ele>151.056333</ele>
        <time>2020-07-27T11:27:29.369Z</time>
      </trkpt>
      <trkpt lat="61.4287" lon="5.18859">
        <ele>151.521285</ele>
        <time>2020-07-27T11:27:35.408Z</time>
      </trkpt>
      <trkpt lat="61.42876" lon="5.18877">
        <ele>151.971301</ele>
        <time>2020-07-27T11:27:40.360Z</time>
      </trkpt>
      <trkpt lat="61.42883" lon="5.18893">
        <ele>152.427799</ele>
        <time>2020-07-27T11:27:44.377Z</time>
      </trkpt>
      <trkpt lat="61.42893" lon="5.18909">
        <ele>152.952795</ele>
        <time>2020-07-27T11:27:48.372Z</time>
      </trkpt>
      <trkpt lat="61.42902" lon="5.18923">
        <ele>153.430425</ele>
        <time>2020-07-27T11:27:51.378Z</time>
      </trkpt>
      <trkpt lat="61.42913" lon="5.18937">
        <ele>153.988249</ele>
        <time>2020-07-27T11:27:54.375Z</time>
      </trkpt>
      <trkpt lat="61.42922" lon="5.18948">
        <ele>154.063086</ele>
        <time>2020-07-27T11:27:56.373Z</time>
      </trkpt>
      <trkpt lat="61.4293" lon="5.18961">
        <ele>154.140922</ele>
        <time>2020-07-27T11:27:58.378Z</time>
      </trkpt>
      <trkpt lat="61.42937" lon="5.18974">
        <ele>154.213082</ele>
        <time>2020-07-27T11:28:00.396Z</time>
      </trkpt>
      <trkpt lat="61.42945" lon="5.18993">
        <ele>154.30415</ele>
        <time>2020-07-27T11:28:03.387Z</time>
      </trkpt>
      <trkpt lat="61.42949" lon="5.19011">
        <ele>154.376047</ele>
        <time>2020-07-27T11:28:06.381Z</time>
      </trkpt>
      <trkpt lat="61.42953" lon="5.19033">
        <ele>154.460208</ele>
        <time>2020-07-27T11:28:10.375Z</time>
      </trkpt>
      <trkpt lat="61.42954" lon="5.19052">
        <ele>154.528408</ele>
        <time>2020-07-27T11:28:14.417Z</time>
      </trkpt>
      <trkpt lat="61.42957" lon="5.19094">
        <ele>154.681785</ele>
        <time>2020-07-27T11:30:18.383Z</time>
      </trkpt>
      <trkpt lat="61.42958" lon="5.19115">
        <ele>154.758906</ele>
        <time>2020-07-27T11:30:23.396Z</time>
      </trkpt>
      <trkpt lat="61.4296" lon="5.19134">
        <ele>154.829824</ele>
        <time>2020-07-27T11:30:28.374Z</time>
      </trkpt>
      <trkpt lat="61.42962" lon="5.19157">
        <ele>154.912927</ele>
        <time>2020-07-27T11:30:33.367Z</time>
      </trkpt>
      <trkpt lat="61.42964" lon="5.19175">
        <ele>154.980988</ele>
        <time>2020-07-27T11:30:37.368Z</time>
      </trkpt>
      <trkpt lat="61.42967" lon="5.19198">
        <ele>155.066799</ele>
        <time>2020-07-27T11:30:42.353Z</time>
      </trkpt>
      <trkpt lat="61.4297" lon="5.19217">
        <ele>155.139235</ele>
        <time>2020-07-27T11:30:46.418Z</time>
      </trkpt>
      <trkpt lat="61.42973" lon="5.19238">
        <ele>155.219744</ele>
        <time>2020-07-27T11:30:51.379Z</time>
      </trkpt>
      <trkpt lat="61.42977" lon="5.19259">
        <ele>155.298636</ele>
        <time>2020-07-27T11:30:56.373Z</time>
      </trkpt>
      <trkpt lat="61.42982" lon="5.1928">
        <ele>155.439322</ele>
        <time>2020-07-27T11:31:01.377Z</time>
      </trkpt>
      <trkpt lat="61.42987" lon="5.19296">
        <ele>155.611734</ele>
        <time>2020-07-27T11:31:05.359Z</time>
      </trkpt>
      <trkpt lat="61.42993" lon="5.19314">
        <ele>155.813096</ele>
        <time>2020-07-27T11:31:10.391Z</time>
      </trkpt>
      <trkpt lat="61.43" lon="5.19328">
        <ele>156.002478</ele>
        <time>2020-07-27T11:31:14.396Z</time>
      </trkpt>
      <trkpt lat="61.43006" lon="5.19342">
        <ele>156.174678</ele>
        <time>2020-07-27T11:31:17.388Z</time>
      </trkpt>
      <trkpt lat="61.43012" lon="5.19358">
        <ele>156.356549</ele>
        <time>2020-07-27T11:31:20.416Z</time>
      </trkpt>
      <trkpt lat="61.43018" lon="5.19372">
        <ele>156.528815</ele>
        <time>2020-07-27T11:31:23.360Z</time>
      </trkpt>
      <trkpt lat="61.43026" lon="5.19388">
        <ele>156.729168</ele>
        <time>2020-07-27T11:31:27.389Z</time>
      </trkpt>
      <trkpt lat="61.43033" lon="5.19407">
        <ele>156.948346</ele>
        <time>2020-07-27T11:31:31.357Z</time>
      </trkpt>
      <trkpt lat="61.43039" lon="5.19428">
        <ele>157.176798</ele>
        <time>2020-07-27T11:31:35.406Z</time>
      </trkpt>
      <trkpt lat="61.43043" lon="5.19447">
        <ele>157.35992</ele>
        <time>2020-07-27T11:31:38.367Z</time>
      </trkpt>
      <trkpt lat="61.43046" lon="5.19465">
        <ele>157.536269</ele>
        <time>2020-07-27T11:31:41.381Z</time>
      </trkpt>
      <trkpt lat="61.43049" lon="5.19488">
        <ele>157.74789</ele>
        <time>2020-07-27T11:31:45.354Z</time>
      </trkpt>
      <trkpt lat="61.43051" lon="5.19508">
        <ele>157.938665</ele>
        <time>2020-07-27T11:31:49.382Z</time>
      </trkpt>
      <trkpt lat="61.43054" lon="5.1953">
        <ele>158.140938</ele>
        <time>2020-07-27T11:31:53.360Z</time>
      </trkpt>
      <trkpt lat="61.43055" lon="5.19553">
        <ele>158.350352</ele>
        <time>2020-07-27T11:31:57.388Z</time>
      </trkpt>
      <trkpt lat="61.43056" lon="5.19575">
        <ele>158.554424</ele>
        <time>2020-07-27T11:32:01.365Z</time>
      </trkpt>
      <trkpt lat="61.43056" lon="5.19598">
        <ele>158.76605</ele>
        <time>2020-07-27T11:32:05.399Z</time>
      </trkpt>
      <trkpt lat="61.43055" lon="5.19622">
        <ele>159.063874</ele>
        <time>2020-07-27T11:32:09.369Z</time>
      </trkpt>
      <trkpt lat="61.43053" lon="5.19644">
        <ele>159.349735</ele>
        <time>2020-07-27T11:32:13.412Z</time>
      </trkpt>
      <trkpt lat="61.43052" lon="5.19665">
        <ele>159.626988</ele>
        <time>2020-07-27T11:32:17.359Z</time>
      </trkpt>
      <trkpt lat="61.43051" lon="5.19688">
        <ele>159.913418</ele>
        <time>2020-07-27T11:32:21.383Z</time>
      </trkpt>
      <trkpt lat="61.43051" lon="5.19709">
        <ele>160.190107</ele>
        <time>2020-07-27T11:32:25.381Z</time>
      </trkpt>
      <trkpt lat="61.43052" lon="5.19732">
        <ele>160.476949</ele>
        <time>2020-07-27T11:32:29.367Z</time>
      </trkpt>
      <trkpt lat="61.43053" lon="5.19753">
        <ele>160.7565</ele>
        <time>2020-07-27T11:32:33.357Z</time>
      </trkpt>
      <trkpt lat="61.43056" lon="5.19774">
        <ele>161.028071</ele>
        <time>2020-07-27T11:32:37.388Z</time>
      </trkpt>
      <trkpt lat="61.43057" lon="5.19795">
        <ele>161.290836</ele>
        <time>2020-07-27T11:32:41.384Z</time>
      </trkpt>
      <trkpt lat="61.4306" lon="5.19815">
        <ele>161.568208</ele>
        <time>2020-07-27T11:32:45.371Z</time>
      </trkpt>
      <trkpt lat="61.43063" lon="5.19835">
        <ele>161.829494</ele>
        <time>2020-07-27T11:32:49.408Z</time>
      </trkpt>
      <trkpt lat="61.43065" lon="5.19855">
        <ele>162.086976</ele>
        <time>2020-07-27T11:32:53.356Z</time>
      </trkpt>
      <trkpt lat="61.43067" lon="5.19875">
        <ele>162.353973</ele>
        <time>2020-07-27T11:32:57.398Z</time>
      </trkpt>
      <trkpt lat="61.43068" lon="5.19895">
        <ele>162.610001</ele>
        <time>2020-07-27T11:33:01.418Z</time>
      </trkpt>
      <trkpt lat="61.43069" lon="5.19915">
        <ele>162.864411</ele>
        <time>2020-07-27T11:33:05.359Z</time>
      </trkpt>
      <trkpt lat="61.43067" lon="5.19934">
        <ele>163.114396</ele>
        <time>2020-07-27T11:33:09.360Z</time>
      </trkpt>
      <trkpt lat="61.43064" lon="5.19954">
        <ele>163.377652</ele>
        <time>2020-07-27T11:33:13.374Z</time>
      </trkpt>
      <trkpt lat="61.4306" lon="5.19973">
        <ele>163.512467</ele>
        <time>2020-07-27T11:33:17.378Z</time>
      </trkpt>
      <trkpt lat="61.43055" lon="5.19992">
        <ele>163.402702</ele>
        <time>2020-07-27T11:33:21.371Z</time>
      </trkpt>
      <trkpt lat="61.43048" lon="5.2001">
        <ele>163.286492</ele>
        <time>2020-07-27T11:33:25.367Z</time>
      </trkpt>
      <trkpt lat="61.4304" lon="5.2002">
        <ele>163.190634</ele>
        <time>2020-07-27T11:33:28.366Z</time>
      </trkpt>
      <trkpt lat="61.43032" lon="5.2003">
        <ele>163.095616</ele>
        <time>2020-07-27T11:33:31.387Z</time>
      </trkpt>
      <trkpt lat="61.43024" lon="5.20044">
        <ele>162.979641</ele>
        <time>2020-07-27T11:33:35.374Z</time>
      </trkpt>
      <trkpt lat="61.43017" lon="5.20061">
        <ele>162.870434</ele>
        <time>2020-07-27T11:33:39.381Z</time>
      </trkpt>
      <trkpt lat="61.43013" lon="5.20081">
        <ele>162.756311</ele>
        <time>2020-07-27T11:33:43.376Z</time>
      </trkpt>
      <trkpt lat="61.43011" lon="5.201">
        <ele>162.661549</ele>
        <time>2020-07-27T11:33:46.367Z</time>
      </trkpt>
      <trkpt lat="61.43009" lon="5.20121">
        <ele>162.55284</ele>
        <time>2020-07-27T11:33:49.382Z</time>
      </trkpt>
      <trkpt lat="61.43007" lon="5.20144">
        <ele>162.438169</ele>
        <time>2020-07-27T11:33:52.376Z</time>
      </trkpt>
      <trkpt lat="61.43006" lon="5.20166">
        <ele>162.323199</ele>
        <time>2020-07-27T11:33:55.400Z</time>
      </trkpt>
      <trkpt lat="61.43004" lon="5.20188">
        <ele>162.211833</ele>
        <time>2020-07-27T11:33:58.375Z</time>
      </trkpt>
      <trkpt lat="61.43004" lon="5.20208">
        <ele>162.109446</ele>
        <time>2020-07-27T11:34:01.373Z</time>
      </trkpt>
      <trkpt lat="61.43002" lon="5.2023">
        <ele>162.002349</ele>
        <time>2020-07-27T11:34:05.379Z</time>
      </trkpt>
      <trkpt lat="61.42996" lon="5.20244">
        <ele>161.908033</ele>
        <time>2020-07-27T11:34:09.362Z</time>
      </trkpt>
      <trkpt lat="61.42986" lon="5.20473">
        <ele>166.829179</ele>
        <time>2020-07-27T11:34:55.493Z</time>
      </trkpt>
      <trkpt lat="61.4298" lon="5.20499">
        <ele>167.662582</ele>
        <time>2020-07-27T11:34:57.409Z</time>
      </trkpt>
      <trkpt lat="61.42982" lon="5.20523">
        <ele>168.337749</ele>
        <time>2020-07-27T11:35:02.378Z</time>
      </trkpt>
      <trkpt lat="61.42979" lon="5.20544">
        <ele>168.971908</ele>
        <time>2020-07-27T11:35:06.367Z</time>
      </trkpt>
      <trkpt lat="61.42981" lon="5.20564">
        <ele>169.542241</ele>
        <time>2020-07-27T11:35:10.392Z</time>
      </trkpt>
      <trkpt lat="61.42986" lon="5.20583">
        <ele>170.156519</ele>
        <time>2020-07-27T11:35:14.390Z</time>
      </trkpt>
      <trkpt lat="61.42991" lon="5.20603">
        <ele>170.823311</ele>
        <time>2020-07-27T11:35:18.388Z</time>
      </trkpt>
      <trkpt lat="61.42996" lon="5.2062">
        <ele>171.381892</ele>
        <time>2020-07-27T11:35:21.361Z</time>
      </trkpt>
      <trkpt lat="61.43" lon="5.20643">
        <ele>172.068353</ele>
        <time>2020-07-27T11:35:25.379Z</time>
      </trkpt>
      <trkpt lat="61.43004" lon="5.20664">
        <ele>172.476985</ele>
        <time>2020-07-27T11:35:29.396Z</time>
      </trkpt>
      <trkpt lat="61.43008" lon="5.20685">
        <ele>172.611007</ele>
        <time>2020-07-27T11:35:33.395Z</time>
      </trkpt>
      <trkpt lat="61.43014" lon="5.20706">
        <ele>172.751602</ele>
        <time>2020-07-27T11:35:37.375Z</time>
      </trkpt>
      <trkpt lat="61.43019" lon="5.20728">
        <ele>172.899691</ele>
        <time>2020-07-27T11:35:41.410Z</time>
      </trkpt>
      <trkpt lat="61.43023" lon="5.20746">
        <ele>173.014074</ele>
        <time>2020-07-27T11:35:44.407Z</time>
      </trkpt>
      <trkpt lat="61.43027" lon="5.20769">
        <ele>173.160892</ele>
        <time>2020-07-27T11:35:48.370Z</time>
      </trkpt>
      <trkpt lat="61.43032" lon="5.20789">
        <ele>173.294421</ele>
        <time>2020-07-27T11:35:52.368Z</time>
      </trkpt>
      <trkpt lat="61.43036" lon="5.20809">
        <ele>173.426861</ele>
        <time>2020-07-27T11:35:56.388Z</time>
      </trkpt>
      <trkpt lat="61.43041" lon="5.2083">
        <ele>173.565686</ele>
        <time>2020-07-27T11:36:00.372Z</time>
      </trkpt>
      <trkpt lat="61.43046" lon="5.2085">
        <ele>173.694904</ele>
        <time>2020-07-27T11:36:04.375Z</time>
      </trkpt>
      <trkpt lat="61.4305" lon="5.20869">
        <ele>173.81825</ele>
        <time>2020-07-27T11:36:08.389Z</time>
      </trkpt>
      <trkpt lat="61.43054" lon="5.20889">
        <ele>173.945533</ele>
        <time>2020-07-27T11:36:12.363Z</time>
      </trkpt>
      <trkpt lat="61.43059" lon="5.20907">
        <ele>174.068472</ele>
        <time>2020-07-27T11:36:16.377Z</time>
      </trkpt>
      <trkpt lat="61.43063" lon="5.20926">
        <ele>174.194486</ele>
        <time>2020-07-27T11:36:20.385Z</time>
      </trkpt>
      <trkpt lat="61.43066" lon="5.20944">
        <ele>174.306602</ele>
        <time>2020-07-27T11:36:23.409Z</time>
      </trkpt>
      <trkpt lat="61.43071" lon="5.20963">
        <ele>174.428886</ele>
        <time>2020-07-27T11:36:26.371Z</time>
      </trkpt>
      <trkpt lat="61.43075" lon="5.2098">
        <ele>174.548632</ele>
        <time>2020-07-27T11:36:29.371Z</time>
      </trkpt>
      <trkpt lat="61.4308" lon="5.20999">
        <ele>174.670549</ele>
        <time>2020-07-27T11:36:32.359Z</time>
      </trkpt>
      <trkpt lat="61.43086" lon="5.21019">
        <ele>174.792219</ele>
        <time>2020-07-27T11:36:35.373Z</time>
      </trkpt>
      <trkpt lat="61.43091" lon="5.21041">
        <ele>174.920947</ele>
        <time>2020-07-27T11:36:38.359Z</time>
      </trkpt>
      <trkpt lat="61.43096" lon="5.21066">
        <ele>175.06393</ele>
        <time>2020-07-27T11:36:41.457Z</time>
      </trkpt>
      <trkpt lat="61.43102" lon="5.2109">
        <ele>175.207924</ele>
        <time>2020-07-27T11:36:44.390Z</time>
      </trkpt>
      <trkpt lat="61.43108" lon="5.21114">
        <ele>175.349541</ele>
        <time>2020-07-27T11:36:47.370Z</time>
      </trkpt>
      <trkpt lat="61.43114" lon="5.21135">
        <ele>175.478056</ele>
        <time>2020-07-27T11:36:50.380Z</time>
      </trkpt>
      <trkpt lat="61.4312" lon="5.21155">
        <ele>175.599998</ele>
        <time>2020-07-27T11:36:53.389Z</time>
      </trkpt>
      <trkpt lat="61.43125" lon="5.21173">
        <ele>175.713947</ele>
        <time>2020-07-27T11:36:56.381Z</time>
      </trkpt>
      <trkpt lat="61.43131" lon="5.21191">
        <ele>175.830969</ele>
        <time>2020-07-27T11:36:59.373Z</time>
      </trkpt>
      <trkpt lat="61.43138" lon="5.21207">
        <ele>175.937886</ele>
        <time>2020-07-27T11:37:02.438Z</time>
      </trkpt>
      <trkpt lat="61.43143" lon="5.21223">
        <ele>176.042104</ele>
        <time>2020-07-27T11:37:05.378Z</time>
      </trkpt>
      <trkpt lat="61.43148" lon="5.21238">
        <ele>176.141885</ele>
        <time>2020-07-27T11:37:08.374Z</time>
      </trkpt>
      <trkpt lat="61.43155" lon="5.21256">
        <ele>176.264041</ele>
        <time>2020-07-27T11:37:12.383Z</time>
      </trkpt>
      <trkpt lat="61.43163" lon="5.21275">
        <ele>176.392453</ele>
        <time>2020-07-27T11:37:16.374Z</time>
      </trkpt>
      <trkpt lat="61.4317" lon="5.2129">
        <ele>176.505474</ele>
        <time>2020-07-27T11:37:19.373Z</time>
      </trkpt>
      <trkpt lat="61.43179" lon="5.21308">
        <ele>176.62454</ele>
        <time>2020-07-27T11:37:22.413Z</time>
      </trkpt>
      <trkpt lat="61.43187" lon="5.2132">
        <ele>176.653148</ele>
        <time>2020-07-27T11:37:24.377Z</time>
      </trkpt>
      <trkpt lat="61.43193" lon="5.21334">
        <ele>176.680622</ele>
        <time>2020-07-27T11:37:26.376Z</time>
      </trkpt>
      <trkpt lat="61.432" lon="5.21349">
        <ele>176.710139</ele>
        <time>2020-07-27T11:37:28.371Z</time>
      </trkpt>
      <trkpt lat="61.43208" lon="5.21362">
        <ele>176.740253</ele>
        <time>2020-07-27T11:37:30.422Z</time>
      </trkpt>
      <trkpt lat="61.43216" lon="5.21374">
        <ele>176.769992</ele>
        <time>2020-07-27T11:37:32.366Z</time>
      </trkpt>
      <trkpt lat="61.43225" lon="5.21385">
        <ele>176.799605</ele>
        <time>2020-07-27T11:37:34.374Z</time>
      </trkpt>
      <trkpt lat="61.43234" lon="5.21393">
        <ele>176.827571</ele>
        <time>2020-07-27T11:37:36.382Z</time>
      </trkpt>
      <trkpt lat="61.43242" lon="5.21402">
        <ele>176.856544</ele>
        <time>2020-07-27T11:37:38.380Z</time>
      </trkpt>
      <trkpt lat="61.43252" lon="5.21409">
        <ele>176.886776</ele>
        <time>2020-07-27T11:37:40.392Z</time>
      </trkpt>
      <trkpt lat="61.43262" lon="5.21415">
        <ele>176.917158</ele>
        <time>2020-07-27T11:37:42.367Z</time>
      </trkpt>
      <trkpt lat="61.43272" lon="5.21421">
        <ele>176.94868</ele>
        <time>2020-07-27T11:37:44.410Z</time>
      </trkpt>
      <trkpt lat="61.43283" lon="5.21428">
        <ele>176.980474</ele>
        <time>2020-07-27T11:37:46.381Z</time>
      </trkpt>
      <trkpt lat="61.43293" lon="5.21433">
        <ele>177.010994</ele>
        <time>2020-07-27T11:37:48.374Z</time>
      </trkpt>
      <trkpt lat="61.43302" lon="5.21438">
        <ele>177.038513</ele>
        <time>2020-07-27T11:37:50.375Z</time>
      </trkpt>
      <trkpt lat="61.43312" lon="5.21445">
        <ele>177.070432</ele>
        <time>2020-07-27T11:37:53.364Z</time>
      </trkpt>
      <trkpt lat="61.4332" lon="5.2145">
        <ele>177.097049</ele>
        <time>2020-07-27T11:37:56.372Z</time>
      </trkpt>
      <trkpt lat="61.43332" lon="5.21457">
        <ele>177.130965</ele>
        <time>2020-07-27T11:38:00.392Z</time>
      </trkpt>
      <trkpt lat="61.43341" lon="5.21463">
        <ele>177.310108</ele>
        <time>2020-07-27T11:38:04.365Z</time>
      </trkpt>
      <trkpt lat="61.4335" lon="5.2147">
        <ele>177.752642</ele>
        <time>2020-07-27T11:38:08.367Z</time>
      </trkpt>
      <trkpt lat="61.4336" lon="5.21473">
        <ele>178.192867</ele>
        <time>2020-07-27T11:38:12.361Z</time>
      </trkpt>
      <trkpt lat="61.43369" lon="5.21478">
        <ele>178.616491</ele>
        <time>2020-07-27T11:38:16.382Z</time>
      </trkpt>
      <trkpt lat="61.43377" lon="5.21483">
        <ele>179.02566</ele>
        <time>2020-07-27T11:38:20.380Z</time>
      </trkpt>
      <trkpt lat="61.43387" lon="5.21489">
        <ele>179.505679</ele>
        <time>2020-07-27T11:38:25.386Z</time>
      </trkpt>
      <trkpt lat="61.43398" lon="5.21497">
        <ele>180.011495</ele>
        <time>2020-07-27T11:38:30.377Z</time>
      </trkpt>
      <trkpt lat="61.43407" lon="5.21503">
        <ele>180.430267</ele>
        <time>2020-07-27T11:38:35.373Z</time>
      </trkpt>
      <trkpt lat="61.43416" lon="5.21508">
        <ele>180.891918</ele>
        <time>2020-07-27T11:38:41.394Z</time>
      </trkpt>
      <trkpt lat="61.43425" lon="5.21514">
        <ele>181.318547</ele>
        <time>2020-07-27T11:38:47.374Z</time>
      </trkpt>
      <trkpt lat="61.43435" lon="5.21518">
        <ele>181.755396</ele>
        <time>2020-07-27T11:38:53.391Z</time>
      </trkpt>
      <trkpt lat="61.43444" lon="5.21524">
        <ele>182.198409</ele>
        <time>2020-07-27T11:38:59.379Z</time>
      </trkpt>
      <trkpt lat="61.43453" lon="5.21527">
        <ele>182.638634</ele>
        <time>2020-07-27T11:39:05.388Z</time>
      </trkpt>
      <trkpt lat="61.43463" lon="5.21534">
        <ele>183.10787</ele>
        <time>2020-07-27T11:39:12.382Z</time>
      </trkpt>
      <trkpt lat="61.43472" lon="5.21542">
        <ele>183.567009</ele>
        <time>2020-07-27T11:39:18.357Z</time>
      </trkpt>
      <trkpt lat="61.43482" lon="5.21548">
        <ele>184.0082</ele>
        <time>2020-07-27T11:39:24.386Z</time>
      </trkpt>
      <trkpt lat="61.43491" lon="5.21553">
        <ele>184.441651</ele>
        <time>2020-07-27T11:39:30.374Z</time>
      </trkpt>
      <trkpt lat="61.435" lon="5.21558">
        <ele>184.87347</ele>
        <time>2020-07-27T11:39:36.384Z</time>
      </trkpt>
      <trkpt lat="61.43509" lon="5.21562">
        <ele>185.28213</ele>
        <time>2020-07-27T11:39:42.380Z</time>
      </trkpt>
      <trkpt lat="61.43517" lon="5.21566">
        <ele>185.37724</ele>
        <time>2020-07-27T11:39:48.392Z</time>
      </trkpt>
      <trkpt lat="61.43526" lon="5.21572">
        <ele>185.383309</ele>
        <time>2020-07-27T11:39:54.372Z</time>
      </trkpt>
      <trkpt lat="61.43537" lon="5.21576">
        <ele>185.390055</ele>
        <time>2020-07-27T11:40:00.387Z</time>
      </trkpt>
      <trkpt lat="61.43545" lon="5.21582">
        <ele>185.395837</ele>
        <time>2020-07-27T11:40:05.359Z</time>
      </trkpt>
      <trkpt lat="61.43555" lon="5.21589">
        <ele>185.402349</ele>
        <time>2020-07-27T11:40:10.431Z</time>
      </trkpt>
      <trkpt lat="61.43565" lon="5.21596">
        <ele>185.409461</ele>
        <time>2020-07-27T11:40:15.368Z</time>
      </trkpt>
      <trkpt lat="61.43575" lon="5.21601">
        <ele>185.415844</ele>
        <time>2020-07-27T11:40:19.362Z</time>
      </trkpt>
      <trkpt lat="61.43585" lon="5.21605">
        <ele>185.422487</ele>
        <time>2020-07-27T11:40:23.396Z</time>
      </trkpt>
      <trkpt lat="61.43596" lon="5.21611">
        <ele>185.429751</ele>
        <time>2020-07-27T11:40:27.407Z</time>
      </trkpt>
      <trkpt lat="61.43605" lon="5.21617">
        <ele>185.435732</ele>
        <time>2020-07-27T11:40:30.380Z</time>
      </trkpt>
      <trkpt lat="61.43613" lon="5.21623">
        <ele>185.441525</ele>
        <time>2020-07-27T11:40:33.394Z</time>
      </trkpt>
      <trkpt lat="61.43622" lon="5.21629">
        <ele>185.447559</ele>
        <time>2020-07-27T11:40:36.396Z</time>
      </trkpt>
      <trkpt lat="61.43631" lon="5.21634">
        <ele>185.453479</ele>
        <time>2020-07-27T11:40:39.419Z</time>
      </trkpt>
      <trkpt lat="61.4364" lon="5.2164">
        <ele>185.459451</ele>
        <time>2020-07-27T11:40:42.373Z</time>
      </trkpt>
      <trkpt lat="61.43649" lon="5.21645">
        <ele>185.465634</ele>
        <time>2020-07-27T11:40:45.366Z</time>
      </trkpt>
      <trkpt lat="61.43659" lon="5.2165">
        <ele>185.4724</ele>
        <time>2020-07-27T11:40:48.382Z</time>
      </trkpt>
      <trkpt lat="61.4367" lon="5.21656">
        <ele>185.479166</ele>
        <time>2020-07-27T11:40:51.361Z</time>
      </trkpt>
      <trkpt lat="61.4368" lon="5.21662">
        <ele>185.485987</ele>
        <time>2020-07-27T11:40:54.382Z</time>
      </trkpt>
      <trkpt lat="61.4369" lon="5.21667">
        <ele>185.477019</ele>
        <time>2020-07-27T11:40:57.383Z</time>
      </trkpt>
      <trkpt lat="61.43699" lon="5.21673">
        <ele>185.460289</ele>
        <time>2020-07-27T11:41:00.411Z</time>
      </trkpt>
      <trkpt lat="61.43708" lon="5.21679">
        <ele>185.444405</ele>
        <time>2020-07-27T11:41:03.380Z</time>
      </trkpt>
      <trkpt lat="61.43717" lon="5.21684">
        <ele>185.428461</ele>
        <time>2020-07-27T11:41:06.375Z</time>
      </trkpt>
      <trkpt lat="61.43726" lon="5.21689">
        <ele>185.411057</ele>
        <time>2020-07-27T11:41:09.356Z</time>
      </trkpt>
      <trkpt lat="61.43737" lon="5.21695">
        <ele>185.392029</ele>
        <time>2020-07-27T11:41:12.373Z</time>
      </trkpt>
      <trkpt lat="61.43748" lon="5.21702">
        <ele>185.371924</ele>
        <time>2020-07-27T11:41:15.384Z</time>
      </trkpt>
      <trkpt lat="61.4376" lon="5.21708">
        <ele>185.349773</ele>
        <time>2020-07-27T11:41:18.382Z</time>
      </trkpt>
      <trkpt lat="61.43772" lon="5.21715">
        <ele>185.328692</ele>
        <time>2020-07-27T11:41:21.374Z</time>
      </trkpt>
      <trkpt lat="61.43784" lon="5.21722">
        <ele>185.306202</ele>
        <time>2020-07-27T11:41:24.368Z</time>
      </trkpt>
      <trkpt lat="61.43793" lon="5.21727">
        <ele>185.289807</ele>
        <time>2020-07-27T11:41:26.409Z</time>
      </trkpt>
      <trkpt lat="61.43803" lon="5.21732">
        <ele>185.27283</ele>
        <time>2020-07-27T11:41:28.367Z</time>
      </trkpt>
      <trkpt lat="61.43812" lon="5.21738">
        <ele>185.255717</ele>
        <time>2020-07-27T11:41:30.370Z</time>
      </trkpt>
      <trkpt lat="61.43822" lon="5.21744">
        <ele>185.238147</ele>
        <time>2020-07-27T11:41:32.382Z</time>
      </trkpt>
      <trkpt lat="61.43832" lon="5.2175">
        <ele>185.219478</ele>
        <time>2020-07-27T11:41:34.371Z</time>
      </trkpt>
      <trkpt lat="61.43842" lon="5.21755">
        <ele>185.201381</ele>
        <time>2020-07-27T11:41:36.392Z</time>
      </trkpt>
      <trkpt lat="61.43853" lon="5.21761">
        <ele>185.182587</ele>
        <time>2020-07-27T11:41:38.388Z</time>
      </trkpt>
      <trkpt lat="61.43862" lon="5.21767">
        <ele>185.213151</ele>
        <time>2020-07-27T11:41:40.417Z</time>
      </trkpt>
      <trkpt lat="61.43872" lon="5.21774">
        <ele>185.282663</ele>
        <time>2020-07-27T11:41:42.367Z</time>
      </trkpt>
      <trkpt lat="61.43881" lon="5.2178">
        <ele>185.349314</ele>
        <time>2020-07-27T11:41:44.364Z</time>
      </trkpt>
      <trkpt lat="61.4389" lon="5.21785">
        <ele>185.414334</ele>
        <time>2020-07-27T11:41:46.389Z</time>
      </trkpt>
      <trkpt lat="61.43902" lon="5.21792">
        <ele>185.503918</ele>
        <time>2020-07-27T11:41:49.383Z</time>
      </trkpt>
      <trkpt lat="61.43913" lon="5.218">
        <ele>185.584977</ele>
        <time>2020-07-27T11:41:52.391Z</time>
      </trkpt>
      <trkpt lat="61.43925" lon="5.21807">
        <ele>185.666509</ele>
        <time>2020-07-27T11:41:55.411Z</time>
      </trkpt>
      <trkpt lat="61.43937" lon="5.21813">
        <ele>185.754602</ele>
        <time>2020-07-27T11:41:58.380Z</time>
      </trkpt>
      <trkpt lat="61.43948" lon="5.21819">
        <ele>185.838539</ele>
        <time>2020-07-27T11:42:01.412Z</time>
      </trkpt>
      <trkpt lat="61.43961" lon="5.21825">
        <ele>185.930235</ele>
        <time>2020-07-27T11:42:04.383Z</time>
      </trkpt>
      <trkpt lat="61.43973" lon="5.21833">
        <ele>186.017624</ele>
        <time>2020-07-27T11:42:07.355Z</time>
      </trkpt>
      <trkpt lat="61.43986" lon="5.21841">
        <ele>186.109302</ele>
        <time>2020-07-27T11:42:10.392Z</time>
      </trkpt>
      <trkpt lat="61.43995" lon="5.21846">
        <ele>186.175519</ele>
        <time>2020-07-27T11:42:12.358Z</time>
      </trkpt>
      <trkpt lat="61.44004" lon="5.21852">
        <ele>186.239485</ele>
        <time>2020-07-27T11:42:14.391Z</time>
      </trkpt>
      <trkpt lat="61.44012" lon="5.21858">
        <ele>186.304265</ele>
        <time>2020-07-27T11:42:16.386Z</time>
      </trkpt>
      <trkpt lat="61.44022" lon="5.21865">
        <ele>186.373531</ele>
        <time>2020-07-27T11:42:18.356Z</time>
      </trkpt>
      <trkpt lat="61.44031" lon="5.21871">
        <ele>186.481195</ele>
        <time>2020-07-27T11:42:20.379Z</time>
      </trkpt>
      <trkpt lat="61.4404" lon="5.21877">
        <ele>186.774346</ele>
        <time>2020-07-27T11:42:22.399Z</time>
      </trkpt>
      <trkpt lat="61.44049" lon="5.21882">
        <ele>187.060322</ele>
        <time>2020-07-27T11:42:24.415Z</time>
      </trkpt>
      <trkpt lat="61.44058" lon="5.21888">
        <ele>187.335481</ele>
        <time>2020-07-27T11:42:26.373Z</time>
      </trkpt>
      <trkpt lat="61.44066" lon="5.21893">
        <ele>187.613079</ele>
        <time>2020-07-27T11:42:28.395Z</time>
      </trkpt>
      <trkpt lat="61.44075" lon="5.21899">
        <ele>187.899488</ele>
        <time>2020-07-27T11:42:30.361Z</time>
      </trkpt>
      <trkpt lat="61.44087" lon="5.21907">
        <ele>188.283078</ele>
        <time>2020-07-27T11:42:33.358Z</time>
      </trkpt>
      <trkpt lat="61.44096" lon="5.21913">
        <ele>188.57157</ele>
        <time>2020-07-27T11:42:35.413Z</time>
      </trkpt>
      <trkpt lat="61.44105" lon="5.21918">
        <ele>188.852128</ele>
        <time>2020-07-27T11:42:37.407Z</time>
      </trkpt>
      <trkpt lat="61.44114" lon="5.21922">
        <ele>189.13909</ele>
        <time>2020-07-27T11:42:39.378Z</time>
      </trkpt>
      <trkpt lat="61.44123" lon="5.21924">
        <ele>189.4297</ele>
        <time>2020-07-27T11:42:41.389Z</time>
      </trkpt>
      <trkpt lat="61.44133" lon="5.21926">
        <ele>189.731312</ele>
        <time>2020-07-27T11:42:43.389Z</time>
      </trkpt>
      <trkpt lat="61.44146" lon="5.21925">
        <ele>190.115502</ele>
        <time>2020-07-27T11:42:46.368Z</time>
      </trkpt>
      <trkpt lat="61.4416" lon="5.21918">
        <ele>190.556429</ele>
        <time>2020-07-27T11:42:49.411Z</time>
      </trkpt>
      <trkpt lat="61.4417" lon="5.21913">
        <ele>190.86567</ele>
        <time>2020-07-27T11:42:51.391Z</time>
      </trkpt>
      <trkpt lat="61.44179" lon="5.21907">
        <ele>191.179399</ele>
        <time>2020-07-27T11:42:53.362Z</time>
      </trkpt>
      <trkpt lat="61.44189" lon="5.21901">
        <ele>191.495716</ele>
        <time>2020-07-27T11:42:55.384Z</time>
      </trkpt>
      <trkpt lat="61.44199" lon="5.21894">
        <ele>191.821129</ele>
        <time>2020-07-27T11:42:57.395Z</time>
      </trkpt>
      <trkpt lat="61.44209" lon="5.21887">
        <ele>191.702295</ele>
        <time>2020-07-27T11:42:59.369Z</time>
      </trkpt>
      <trkpt lat="61.44221" lon="5.2188">
        <ele>191.214219</ele>
        <time>2020-07-27T11:43:01.371Z</time>
      </trkpt>
      <trkpt lat="61.44233" lon="5.21873">
        <ele>190.665052</ele>
        <time>2020-07-27T11:43:03.374Z</time>
      </trkpt>
      <trkpt lat="61.44247" lon="5.21867">
        <ele>190.113779</ele>
        <time>2020-07-27T11:43:05.374Z</time>
      </trkpt>
      <trkpt lat="61.4426" lon="5.21862">
        <ele>189.544943</ele>
        <time>2020-07-27T11:43:07.369Z</time>
      </trkpt>
      <trkpt lat="61.44274" lon="5.21858">
        <ele>188.962385</ele>
        <time>2020-07-27T11:43:09.393Z</time>
      </trkpt>
      <trkpt lat="61.44288" lon="5.21855">
        <ele>188.383378</ele>
        <time>2020-07-27T11:43:11.373Z</time>
      </trkpt>
      <trkpt lat="61.44302" lon="5.21854">
        <ele>187.814957</ele>
        <time>2020-07-27T11:43:13.393Z</time>
      </trkpt>
      <trkpt lat="61.44316" lon="5.21855">
        <ele>187.242287</ele>
        <time>2020-07-27T11:43:15.388Z</time>
      </trkpt>
      <trkpt lat="61.44331" lon="5.2186">
        <ele>186.628497</ele>
        <time>2020-07-27T11:43:17.367Z</time>
      </trkpt>
      <trkpt lat="61.44345" lon="5.21866">
        <ele>186.031686</ele>
        <time>2020-07-27T11:43:19.371Z</time>
      </trkpt>
      <trkpt lat="61.44358" lon="5.21872">
        <ele>185.455431</ele>
        <time>2020-07-27T11:43:21.373Z</time>
      </trkpt>
      <trkpt lat="61.44372" lon="5.21879">
        <ele>184.887287</ele>
        <time>2020-07-27T11:43:23.378Z</time>
      </trkpt>
      <trkpt lat="61.44386" lon="5.21889">
        <ele>184.369151</ele>
        <time>2020-07-27T11:43:25.366Z</time>
      </trkpt>
      <trkpt lat="61.44401" lon="5.21901">
        <ele>183.911433</ele>
        <time>2020-07-27T11:43:27.382Z</time>
      </trkpt>
      <trkpt lat="61.44417" lon="5.21913">
        <ele>183.420247</ele>
        <time>2020-07-27T11:43:29.390Z</time>
      </trkpt>
      <trkpt lat="61.44434" lon="5.21926">
        <ele>182.911549</ele>
        <time>2020-07-27T11:43:31.430Z</time>
      </trkpt>
      <trkpt lat="61.44443" lon="5.21932">
        <ele>182.64359</ele>
        <time>2020-07-27T11:43:32.381Z</time>
      </trkpt>
      <trkpt lat="61.44452" lon="5.21939">
        <ele>182.369694</ele>
        <time>2020-07-27T11:43:33.387Z</time>
      </trkpt>
      <trkpt lat="61.44461" lon="5.21947">
        <ele>182.09531</ele>
        <time>2020-07-27T11:43:34.380Z</time>
      </trkpt>
      <trkpt lat="61.4447" lon="5.21954">
        <ele>181.808359</ele>
        <time>2020-07-27T11:43:35.418Z</time>
      </trkpt>
      <trkpt lat="61.4448" lon="5.21963">
        <ele>181.517805</ele>
        <time>2020-07-27T11:43:36.370Z</time>
      </trkpt>
      <trkpt lat="61.44489" lon="5.21971">
        <ele>181.221488</ele>
        <time>2020-07-27T11:43:37.391Z</time>
      </trkpt>
      <trkpt lat="61.44499" lon="5.2198">
        <ele>180.919404</ele>
        <time>2020-07-27T11:43:38.378Z</time>
      </trkpt>
      <trkpt lat="61.44509" lon="5.21988">
        <ele>180.60176</ele>
        <time>2020-07-27T11:43:39.372Z</time>
      </trkpt>
      <trkpt lat="61.4452" lon="5.21996">
        <ele>180.289666</ele>
        <time>2020-07-27T11:43:40.371Z</time>
      </trkpt>
      <trkpt lat="61.44529" lon="5.22005">
        <ele>179.992817</ele>
        <time>2020-07-27T11:43:41.367Z</time>
      </trkpt>
      <trkpt lat="61.44539" lon="5.22013">
        <ele>179.691257</ele>
        <time>2020-07-27T11:43:42.399Z</time>
      </trkpt>
      <trkpt lat="61.44549" lon="5.22022">
        <ele>179.32134</ele>
        <time>2020-07-27T11:43:43.376Z</time>
      </trkpt>
      <trkpt lat="61.44558" lon="5.22031">
        <ele>178.605746</ele>
        <time>2020-07-27T11:43:44.429Z</time>
      </trkpt>
      <trkpt lat="61.44568" lon="5.22039">
        <ele>177.89524</ele>
        <time>2020-07-27T11:43:45.391Z</time>
      </trkpt>
      <trkpt lat="61.44577" lon="5.22047">
        <ele>177.202519</ele>
        <time>2020-07-27T11:43:46.398Z</time>
      </trkpt>
      <trkpt lat="61.44586" lon="5.22055">
        <ele>176.514894</ele>
        <time>2020-07-27T11:43:47.372Z</time>
      </trkpt>
      <trkpt lat="61.44596" lon="5.22063">
        <ele>175.808175</ele>
        <time>2020-07-27T11:43:48.379Z</time>
      </trkpt>
      <trkpt lat="61.44606" lon="5.22071">
        <ele>175.08106</ele>
        <time>2020-07-27T11:43:49.389Z</time>
      </trkpt>
      <trkpt lat="61.44616" lon="5.2208">
        <ele>174.32302</ele>
        <time>2020-07-27T11:43:50.368Z</time>
      </trkpt>
      <trkpt lat="61.44627" lon="5.22087">
        <ele>173.543509</ele>
        <time>2020-07-27T11:43:51.366Z</time>
      </trkpt>
      <trkpt lat="61.44638" lon="5.22094">
        <ele>172.761792</ele>
        <time>2020-07-27T11:43:52.393Z</time>
      </trkpt>
      <trkpt lat="61.44648" lon="5.221">
        <ele>172.013659</ele>
        <time>2020-07-27T11:43:53.388Z</time>
      </trkpt>
      <trkpt lat="61.44659" lon="5.22105">
        <ele>171.244209</ele>
        <time>2020-07-27T11:43:54.377Z</time>
      </trkpt>
      <trkpt lat="61.44669" lon="5.22109">
        <ele>170.505844</ele>
        <time>2020-07-27T11:43:55.374Z</time>
      </trkpt>
      <trkpt lat="61.4468" lon="5.22113">
        <ele>169.735538</ele>
        <time>2020-07-27T11:43:56.370Z</time>
      </trkpt>
      <trkpt lat="61.44691" lon="5.22118">
        <ele>168.964634</ele>
        <time>2020-07-27T11:43:57.388Z</time>
      </trkpt>
      <trkpt lat="61.44703" lon="5.22121">
        <ele>168.13584</ele>
        <time>2020-07-27T11:43:58.371Z</time>
      </trkpt>
      <trkpt lat="61.44715" lon="5.22123">
        <ele>167.301485</ele>
        <time>2020-07-27T11:43:59.371Z</time>
      </trkpt>
      <trkpt lat="61.44727" lon="5.22124">
        <ele>166.126545</ele>
        <time>2020-07-27T11:44:00.409Z</time>
      </trkpt>
      <trkpt lat="61.4474" lon="5.22125">
        <ele>164.773549</ele>
        <time>2020-07-27T11:44:01.388Z</time>
      </trkpt>
      <trkpt lat="61.44752" lon="5.22127">
        <ele>163.441616</ele>
        <time>2020-07-27T11:44:02.398Z</time>
      </trkpt>
      <trkpt lat="61.44764" lon="5.22128">
        <ele>162.112239</ele>
        <time>2020-07-27T11:44:03.373Z</time>
      </trkpt>
      <trkpt lat="61.44776" lon="5.22128">
        <ele>160.783452</ele>
        <time>2020-07-27T11:44:04.371Z</time>
      </trkpt>
      <trkpt lat="61.44788" lon="5.22129">
        <ele>159.432528</ele>
        <time>2020-07-27T11:44:05.375Z</time>
      </trkpt>
      <trkpt lat="61.448" lon="5.22129">
        <ele>158.070781</ele>
        <time>2020-07-27T11:44:06.359Z</time>
      </trkpt>
      <trkpt lat="61.44812" lon="5.22128">
        <ele>156.775082</ele>
        <time>2020-07-27T11:44:07.380Z</time>
      </trkpt>
      <trkpt lat="61.44823" lon="5.22127">
        <ele>155.501375</ele>
        <time>2020-07-27T11:44:08.369Z</time>
      </trkpt>
      <trkpt lat="61.44834" lon="5.22127">
        <ele>154.305657</ele>
        <time>2020-07-27T11:44:09.383Z</time>
      </trkpt>
      <trkpt lat="61.44845" lon="5.22127">
        <ele>153.098916</ele>
        <time>2020-07-27T11:44:10.405Z</time>
      </trkpt>
      <trkpt lat="61.44856" lon="5.22127">
        <ele>151.936349</ele>
        <time>2020-07-27T11:44:11.388Z</time>
      </trkpt>
      <trkpt lat="61.44866" lon="5.22126">
        <ele>150.828791</ele>
        <time>2020-07-27T11:44:12.379Z</time>
      </trkpt>
      <trkpt lat="61.44875" lon="5.22125">
        <ele>149.731483</ele>
        <time>2020-07-27T11:44:13.406Z</time>
      </trkpt>
      <trkpt lat="61.44885" lon="5.22123">
        <ele>148.675432</ele>
        <time>2020-07-27T11:44:14.400Z</time>
      </trkpt>
      <trkpt lat="61.44894" lon="5.22121">
        <ele>147.6133</ele>
        <time>2020-07-27T11:44:15.381Z</time>
      </trkpt>
      <trkpt lat="61.44904" lon="5.22117">
        <ele>146.562059</ele>
        <time>2020-07-27T11:44:16.379Z</time>
      </trkpt>
      <trkpt lat="61.44913" lon="5.22112">
        <ele>145.535531</ele>
        <time>2020-07-27T11:44:17.389Z</time>
      </trkpt>
      <trkpt lat="61.4493" lon="5.22099">
        <ele>143.517201</ele>
        <time>2020-07-27T11:44:19.365Z</time>
      </trkpt>
      <trkpt lat="61.44939" lon="5.22089">
        <ele>142.418564</ele>
        <time>2020-07-27T11:44:20.378Z</time>
      </trkpt>
      <trkpt lat="61.44947" lon="5.22077">
        <ele>141.243999</ele>
        <time>2020-07-27T11:44:21.390Z</time>
      </trkpt>
      <trkpt lat="61.44956" lon="5.22064">
        <ele>140.087452</ele>
        <time>2020-07-27T11:44:22.401Z</time>
      </trkpt>
      <trkpt lat="61.44963" lon="5.2205">
        <ele>138.975166</ele>
        <time>2020-07-27T11:44:23.367Z</time>
      </trkpt>
      <trkpt lat="61.44969" lon="5.22034">
        <ele>137.873872</ele>
        <time>2020-07-27T11:44:24.414Z</time>
      </trkpt>
      <trkpt lat="61.44975" lon="5.22017">
        <ele>136.757802</ele>
        <time>2020-07-27T11:44:25.373Z</time>
      </trkpt>
      <trkpt lat="61.4498" lon="5.21999">
        <ele>135.64266</ele>
        <time>2020-07-27T11:44:26.373Z</time>
      </trkpt>
      <trkpt lat="61.44985" lon="5.21981">
        <ele>134.570332</ele>
        <time>2020-07-27T11:44:27.395Z</time>
      </trkpt>
      <trkpt lat="61.44989" lon="5.21963">
        <ele>133.537015</ele>
        <time>2020-07-27T11:44:28.389Z</time>
      </trkpt>
      <trkpt lat="61.44998" lon="5.21931">
        <ele>131.566645</ele>
        <time>2020-07-27T11:44:30.364Z</time>
      </trkpt>
      <trkpt lat="61.45006" lon="5.21899">
        <ele>129.664194</ele>
        <time>2020-07-27T11:44:32.396Z</time>
      </trkpt>
      <trkpt lat="61.45013" lon="5.21868">
        <ele>127.841608</ele>
        <time>2020-07-27T11:44:34.386Z</time>
      </trkpt>
      <trkpt lat="61.45018" lon="5.21834">
        <ele>126.002911</ele>
        <time>2020-07-27T11:44:36.388Z</time>
      </trkpt>
      <trkpt lat="61.4502" lon="5.21816">
        <ele>125.056674</ele>
        <time>2020-07-27T11:44:37.363Z</time>
      </trkpt>
      <trkpt lat="61.45022" lon="5.21797">
        <ele>124.079357</ele>
        <time>2020-07-27T11:44:38.411Z</time>
      </trkpt>
      <trkpt lat="61.45023" lon="5.21777">
        <ele>123.06575</ele>
        <time>2020-07-27T11:44:39.379Z</time>
      </trkpt>
      <trkpt lat="61.45025" lon="5.21756">
        <ele>122.029127</ele>
        <time>2020-07-27T11:44:40.417Z</time>
      </trkpt>
      <trkpt lat="61.45028" lon="5.21737">
        <ele>120.98755</ele>
        <time>2020-07-27T11:44:41.389Z</time>
      </trkpt>
      <trkpt lat="61.45033" lon="5.21718">
        <ele>119.951306</ele>
        <time>2020-07-27T11:44:42.373Z</time>
      </trkpt>
      <trkpt lat="61.45037" lon="5.217">
        <ele>118.945966</ele>
        <time>2020-07-27T11:44:43.398Z</time>
      </trkpt>
      <trkpt lat="61.45043" lon="5.21683">
        <ele>117.914745</ele>
        <time>2020-07-27T11:44:44.389Z</time>
      </trkpt>
      <trkpt lat="61.45049" lon="5.21667">
        <ele>116.898862</ele>
        <time>2020-07-27T11:44:45.379Z</time>
      </trkpt>
      <trkpt lat="61.45059" lon="5.21638">
        <ele>115.074462</ele>
        <time>2020-07-27T11:44:47.385Z</time>
      </trkpt>
      <trkpt lat="61.45068" lon="5.2161">
        <ele>113.380067</ele>
        <time>2020-07-27T11:44:49.416Z</time>
      </trkpt>
      <trkpt lat="61.45075" lon="5.21583">
        <ele>111.817417</ele>
        <time>2020-07-27T11:44:51.380Z</time>
      </trkpt>
      <trkpt lat="61.45083" lon="5.21558">
        <ele>110.345413</ele>
        <time>2020-07-27T11:44:53.385Z</time>
      </trkpt>
      <trkpt lat="61.45091" lon="5.21536">
        <ele>108.971991</ele>
        <time>2020-07-27T11:44:55.371Z</time>
      </trkpt>
      <trkpt lat="61.45098" lon="5.21515">
        <ele>107.895597</ele>
        <time>2020-07-27T11:44:57.401Z</time>
      </trkpt>
      <trkpt lat="61.45105" lon="5.21493">
        <ele>106.9785</ele>
        <time>2020-07-27T11:44:59.375Z</time>
      </trkpt>
      <trkpt lat="61.45111" lon="5.2147">
        <ele>106.078846</ele>
        <time>2020-07-27T11:45:01.403Z</time>
      </trkpt>
      <trkpt lat="61.45117" lon="5.21449">
        <ele>105.268596</ele>
        <time>2020-07-27T11:45:03.373Z</time>
      </trkpt>
      <trkpt lat="61.45125" lon="5.21432">
        <ele>104.490488</ele>
        <time>2020-07-27T11:45:05.406Z</time>
      </trkpt>
      <trkpt lat="61.45134" lon="5.21422">
        <ele>103.748762</ele>
        <time>2020-07-27T11:45:07.367Z</time>
      </trkpt>
      <trkpt lat="61.45144" lon="5.21425">
        <ele>103.011247</ele>
        <time>2020-07-27T11:45:09.366Z</time>
      </trkpt>
      <trkpt lat="61.45151" lon="5.21439">
        <ele>102.332854</ele>
        <time>2020-07-27T11:45:11.390Z</time>
      </trkpt>
      <trkpt lat="61.45153" lon="5.21457">
        <ele>101.69425</ele>
        <time>2020-07-27T11:45:13.378Z</time>
      </trkpt>
      <trkpt lat="61.45148" lon="5.21484">
        <ele>100.715911</ele>
        <time>2020-07-27T11:45:16.369Z</time>
      </trkpt>
      <trkpt lat="61.45144" lon="5.21504">
        <ele>99.982553</ele>
        <time>2020-07-27T11:45:18.364Z</time>
      </trkpt>
      <trkpt lat="61.45142" lon="5.21527">
        <ele>99.213743</ele>
        <time>2020-07-27T11:45:20.372Z</time>
      </trkpt>
      <trkpt lat="61.45141" lon="5.2155">
        <ele>98.422441</ele>
        <time>2020-07-27T11:45:22.371Z</time>
      </trkpt>
      <trkpt lat="61.45142" lon="5.21574">
        <ele>97.596617</ele>
        <time>2020-07-27T11:45:24.371Z</time>
      </trkpt>
      <trkpt lat="61.45144" lon="5.21598">
        <ele>96.78191</ele>
        <time>2020-07-27T11:45:26.362Z</time>
      </trkpt>
      <trkpt lat="61.45148" lon="5.2162">
        <ele>95.982555</ele>
        <time>2020-07-27T11:45:28.380Z</time>
      </trkpt>
      <trkpt lat="61.45152" lon="5.21641">
        <ele>95.397226</ele>
        <time>2020-07-27T11:45:30.374Z</time>
      </trkpt>
      <trkpt lat="61.45155" lon="5.21661">
        <ele>95.026945</ele>
        <time>2020-07-27T11:45:32.400Z</time>
      </trkpt>
      <trkpt lat="61.45159" lon="5.21679">
        <ele>94.679966</ele>
        <time>2020-07-27T11:45:34.387Z</time>
      </trkpt>
      <trkpt lat="61.45164" lon="5.21703">
        <ele>94.214922</ele>
        <time>2020-07-27T11:45:37.373Z</time>
      </trkpt>
      <trkpt lat="61.45168" lon="5.21726">
        <ele>93.797278</ele>
        <time>2020-07-27T11:45:40.364Z</time>
      </trkpt>
      <trkpt lat="61.45172" lon="5.21749">
        <ele>93.366012</ele>
        <time>2020-07-27T11:45:43.406Z</time>
      </trkpt>
      <trkpt lat="61.45177" lon="5.21776">
        <ele>92.868211</ele>
        <time>2020-07-27T11:45:46.379Z</time>
      </trkpt>
      <trkpt lat="61.45181" lon="5.21795">
        <ele>92.500696</ele>
        <time>2020-07-27T11:45:48.378Z</time>
      </trkpt>
      <trkpt lat="61.45186" lon="5.21816">
        <ele>92.09421</ele>
        <time>2020-07-27T11:45:50.386Z</time>
      </trkpt>
      <trkpt lat="61.4519" lon="5.21836">
        <ele>91.711883</ele>
        <time>2020-07-27T11:45:52.363Z</time>
      </trkpt>
      <trkpt lat="61.45194" lon="5.21859">
        <ele>91.286153</ele>
        <time>2020-07-27T11:45:54.365Z</time>
      </trkpt>
      <trkpt lat="61.452" lon="5.21882">
        <ele>90.820203</ele>
        <time>2020-07-27T11:45:56.371Z</time>
      </trkpt>
      <trkpt lat="61.45208" lon="5.21905">
        <ele>90.322019</ele>
        <time>2020-07-27T11:45:58.369Z</time>
      </trkpt>
      <trkpt lat="61.45218" lon="5.21927">
        <ele>89.809303</ele>
        <time>2020-07-27T11:46:00.393Z</time>
      </trkpt>
      <trkpt lat="61.45229" lon="5.21946">
        <ele>89.294736</ele>
        <time>2020-07-27T11:46:02.370Z</time>
      </trkpt>
      <trkpt lat="61.45241" lon="5.2196">
        <ele>88.787901</ele>
        <time>2020-07-27T11:46:04.357Z</time>
      </trkpt>
      <trkpt lat="61.45255" lon="5.21976">
        <ele>88.230895</ele>
        <time>2020-07-27T11:46:06.391Z</time>
      </trkpt>
      <trkpt lat="61.4527" lon="5.21994">
        <ele>87.632374</ele>
        <time>2020-07-27T11:46:08.374Z</time>
      </trkpt>
      <trkpt lat="61.45278" lon="5.22003">
        <ele>87.316275</ele>
        <time>2020-07-27T11:46:09.369Z</time>
      </trkpt>
      <trkpt lat="61.45294" lon="5.22021">
        <ele>86.704649</ele>
        <time>2020-07-27T11:46:11.379Z</time>
      </trkpt>
      <trkpt lat="61.45309" lon="5.22039">
        <ele>86.090808</ele>
        <time>2020-07-27T11:46:13.415Z</time>
      </trkpt>
      <trkpt lat="61.45324" lon="5.22057">
        <ele>85.481913</ele>
        <time>2020-07-27T11:46:15.369Z</time>
      </trkpt>
      <trkpt lat="61.45332" lon="5.22067">
        <ele>85.171866</ele>
        <time>2020-07-27T11:46:16.386Z</time>
      </trkpt>
      <trkpt lat="61.4534" lon="5.22076">
        <ele>84.860394</ele>
        <time>2020-07-27T11:46:17.380Z</time>
      </trkpt>
      <trkpt lat="61.45348" lon="5.22085">
        <ele>84.547327</ele>
        <time>2020-07-27T11:46:18.358Z</time>
      </trkpt>
      <trkpt lat="61.45356" lon="5.22094">
        <ele>84.231816</ele>
        <time>2020-07-27T11:46:19.415Z</time>
      </trkpt>
      <trkpt lat="61.45371" lon="5.22113">
        <ele>83.617017</ele>
        <time>2020-07-27T11:46:21.389Z</time>
      </trkpt>
      <trkpt lat="61.45385" lon="5.22132">
        <ele>83.03808</ele>
        <time>2020-07-27T11:46:23.367Z</time>
      </trkpt>
      <trkpt lat="61.45397" lon="5.22153">
        <ele>82.577117</ele>
        <time>2020-07-27T11:46:25.366Z</time>
      </trkpt>
      <trkpt lat="61.45405" lon="5.22175">
        <ele>82.221854</ele>
        <time>2020-07-27T11:46:27.372Z</time>
      </trkpt>
      <trkpt lat="61.45409" lon="5.22199">
        <ele>81.888511</ele>
        <time>2020-07-27T11:46:29.378Z</time>
      </trkpt>
      <trkpt lat="61.45412" lon="5.22225">
        <ele>81.549837</ele>
        <time>2020-07-27T11:46:31.371Z</time>
      </trkpt>
      <trkpt lat="61.45413" lon="5.22252">
        <ele>81.204261</ele>
        <time>2020-07-27T11:46:33.368Z</time>
      </trkpt>
      <trkpt lat="61.45411" lon="5.22282">
        <ele>80.821583</ele>
        <time>2020-07-27T11:46:35.367Z</time>
      </trkpt>
      <trkpt lat="61.45409" lon="5.22315">
        <ele>80.401084</ele>
        <time>2020-07-27T11:46:37.357Z</time>
      </trkpt>
      <trkpt lat="61.45407" lon="5.22351">
        <ele>79.938283</ele>
        <time>2020-07-27T11:46:39.396Z</time>
      </trkpt>
      <trkpt lat="61.45405" lon="5.22387">
        <ele>79.472293</ele>
        <time>2020-07-27T11:46:41.367Z</time>
      </trkpt>
      <trkpt lat="61.45403" lon="5.22425">
        <ele>78.991352</ele>
        <time>2020-07-27T11:46:43.405Z</time>
      </trkpt>
      <trkpt lat="61.45401" lon="5.22462">
        <ele>78.515559</ele>
        <time>2020-07-27T11:46:45.379Z</time>
      </trkpt>
      <trkpt lat="61.45398" lon="5.22496">
        <ele>78.067752</ele>
        <time>2020-07-27T11:46:47.376Z</time>
      </trkpt>
      <trkpt lat="61.45396" lon="5.22528">
        <ele>77.783484</ele>
        <time>2020-07-27T11:46:49.390Z</time>
      </trkpt>
      <trkpt lat="61.45394" lon="5.22557">
        <ele>77.558048</ele>
        <time>2020-07-27T11:46:51.361Z</time>
      </trkpt>
      <trkpt lat="61.45392" lon="5.22584">
        <ele>77.353789</ele>
        <time>2020-07-27T11:46:53.376Z</time>
      </trkpt>
      <trkpt lat="61.4539" lon="5.22608">
        <ele>77.163004</ele>
        <time>2020-07-27T11:46:55.406Z</time>
      </trkpt>
      <trkpt lat="61.45388" lon="5.22634">
        <ele>76.963142</ele>
        <time>2020-07-27T11:46:57.372Z</time>
      </trkpt>
      <trkpt lat="61.45387" lon="5.22661">
        <ele>76.755183</ele>
        <time>2020-07-27T11:46:59.431Z</time>
      </trkpt>
      <trkpt lat="61.45385" lon="5.22688">
        <ele>76.542545</ele>
        <time>2020-07-27T11:47:01.440Z</time>
      </trkpt>
      <trkpt lat="61.45383" lon="5.22716">
        <ele>76.32628</ele>
        <time>2020-07-27T11:47:03.399Z</time>
      </trkpt>
      <trkpt lat="61.45382" lon="5.22744">
        <ele>76.115227</ele>
        <time>2020-07-27T11:47:05.363Z</time>
      </trkpt>
      <trkpt lat="61.45381" lon="5.22771">
        <ele>75.901879</ele>
        <time>2020-07-27T11:47:07.387Z</time>
      </trkpt>
      <trkpt lat="61.4538" lon="5.22799">
        <ele>75.69006</ele>
        <time>2020-07-27T11:47:09.372Z</time>
      </trkpt>
      <trkpt lat="61.4538" lon="5.22826">
        <ele>75.480293</ele>
        <time>2020-07-27T11:47:11.371Z</time>
      </trkpt>
      <trkpt lat="61.4538" lon="5.22852">
        <ele>75.280494</ele>
        <time>2020-07-27T11:47:13.400Z</time>
      </trkpt>
      <trkpt lat="61.4538" lon="5.22877">
        <ele>75.090796</ele>
        <time>2020-07-27T11:47:15.367Z</time>
      </trkpt>
      <trkpt lat="61.4538" lon="5.229">
        <ele>74.834191</ele>
        <time>2020-07-27T11:47:17.375Z</time>
      </trkpt>
      <trkpt lat="61.4538" lon="5.22921">
        <ele>74.598562</ele>
        <time>2020-07-27T11:47:19.391Z</time>
      </trkpt>
      <trkpt lat="61.4538" lon="5.2294">
        <ele>74.388711</ele>
        <time>2020-07-27T11:47:21.414Z</time>
      </trkpt>
      <trkpt lat="61.4538" lon="5.22966">
        <ele>74.0929</ele>
        <time>2020-07-27T11:47:24.378Z</time>
      </trkpt>
      <trkpt lat="61.4538" lon="5.22993">
        <ele>73.797062</ele>
        <time>2020-07-27T11:47:27.385Z</time>
      </trkpt>
      <trkpt lat="61.45381" lon="5.2302">
        <ele>73.491892</ele>
        <time>2020-07-27T11:47:30.380Z</time>
      </trkpt>
      <trkpt lat="61.45381" lon="5.23039">
        <ele>73.280808</ele>
        <time>2020-07-27T11:47:32.361Z</time>
      </trkpt>
      <trkpt lat="61.45382" lon="5.23058">
        <ele>73.064756</ele>
        <time>2020-07-27T11:47:34.365Z</time>
      </trkpt>
      <trkpt lat="61.45382" lon="5.23078">
        <ele>72.845925</ele>
        <time>2020-07-27T11:47:36.371Z</time>
      </trkpt>
      <trkpt lat="61.45383" lon="5.23098">
        <ele>72.623354</ele>
        <time>2020-07-27T11:47:38.371Z</time>
      </trkpt>
      <trkpt lat="61.45384" lon="5.23119">
        <ele>72.389116</ele>
        <time>2020-07-27T11:47:40.391Z</time>
      </trkpt>
      <trkpt lat="61.45384" lon="5.2314">
        <ele>72.150626</ele>
        <time>2020-07-27T11:47:42.407Z</time>
      </trkpt>
      <trkpt lat="61.45385" lon="5.23162">
        <ele>71.899708</ele>
        <time>2020-07-27T11:47:44.392Z</time>
      </trkpt>
      <trkpt lat="61.45386" lon="5.23186">
        <ele>71.641183</ele>
        <time>2020-07-27T11:47:46.375Z</time>
      </trkpt>
      <trkpt lat="61.45387" lon="5.2321">
        <ele>71.370716</ele>
        <time>2020-07-27T11:47:48.375Z</time>
      </trkpt>
      <trkpt lat="61.45389" lon="5.23235">
        <ele>71.088479</ele>
        <time>2020-07-27T11:47:50.380Z</time>
      </trkpt>
      <trkpt lat="61.45391" lon="5.2326">
        <ele>70.841206</ele>
        <time>2020-07-27T11:47:52.412Z</time>
      </trkpt>
      <trkpt lat="61.45393" lon="5.23285">
        <ele>70.686154</ele>
        <time>2020-07-27T11:47:54.396Z</time>
      </trkpt>
      <trkpt lat="61.45395" lon="5.23312">
        <ele>70.524675</ele>
        <time>2020-07-27T11:47:56.364Z</time>
      </trkpt>
      <trkpt lat="61.45396" lon="5.2334">
        <ele>70.356393</ele>
        <time>2020-07-27T11:47:58.369Z</time>
      </trkpt>
      <trkpt lat="61.45398" lon="5.23368">
        <ele>70.187797</ele>
        <time>2020-07-27T11:48:00.368Z</time>
      </trkpt>
      <trkpt lat="61.45399" lon="5.23397">
        <ele>70.013961</ele>
        <time>2020-07-27T11:48:02.396Z</time>
      </trkpt>
      <trkpt lat="61.454" lon="5.23426">
        <ele>69.841914</ele>
        <time>2020-07-27T11:48:04.375Z</time>
      </trkpt>
      <trkpt lat="61.45401" lon="5.23454">
        <ele>69.671059</ele>
        <time>2020-07-27T11:48:06.384Z</time>
      </trkpt>
      <trkpt lat="61.45403" lon="5.23482">
        <ele>69.501512</ele>
        <time>2020-07-27T11:48:08.380Z</time>
      </trkpt>
      <trkpt lat="61.45405" lon="5.2351">
        <ele>69.335521</ele>
        <time>2020-07-27T11:48:10.392Z</time>
      </trkpt>
      <trkpt lat="61.45408" lon="5.23537">
        <ele>69.164846</ele>
        <time>2020-07-27T11:48:12.398Z</time>
      </trkpt>
      <trkpt lat="61.45413" lon="5.23565">
        <ele>68.987961</ele>
        <time>2020-07-27T11:48:14.398Z</time>
      </trkpt>
      <trkpt lat="61.45417" lon="5.23592">
        <ele>68.815561</ele>
        <time>2020-07-27T11:48:16.382Z</time>
      </trkpt>
      <trkpt lat="61.45423" lon="5.23619">
        <ele>68.641443</ele>
        <time>2020-07-27T11:48:18.390Z</time>
      </trkpt>
      <trkpt lat="61.45428" lon="5.23644">
        <ele>68.606967</ele>
        <time>2020-07-27T11:48:20.377Z</time>
      </trkpt>
      <trkpt lat="61.45434" lon="5.23669">
        <ele>68.582287</ele>
        <time>2020-07-27T11:48:22.375Z</time>
      </trkpt>
      <trkpt lat="61.4544" lon="5.23692">
        <ele>68.559031</ele>
        <time>2020-07-27T11:48:24.372Z</time>
      </trkpt>
      <trkpt lat="61.45446" lon="5.23715">
        <ele>68.536273</ele>
        <time>2020-07-27T11:48:26.374Z</time>
      </trkpt>
      <trkpt lat="61.45452" lon="5.23737">
        <ele>68.513721</ele>
        <time>2020-07-27T11:48:28.376Z</time>
      </trkpt>
      <trkpt lat="61.45458" lon="5.23759">
        <ele>68.491091</ele>
        <time>2020-07-27T11:48:30.374Z</time>
      </trkpt>
      <trkpt lat="61.45464" lon="5.23781">
        <ele>68.468292</ele>
        <time>2020-07-27T11:48:32.389Z</time>
      </trkpt>
      <trkpt lat="61.45469" lon="5.23803">
        <ele>68.446128</ele>
        <time>2020-07-27T11:48:34.367Z</time>
      </trkpt>
      <trkpt lat="61.45475" lon="5.23825">
        <ele>68.42399</ele>
        <time>2020-07-27T11:48:36.392Z</time>
      </trkpt>
      <trkpt lat="61.45481" lon="5.23846">
        <ele>68.40204</ele>
        <time>2020-07-27T11:48:38.365Z</time>
      </trkpt>
      <trkpt lat="61.45487" lon="5.23865">
        <ele>68.381791</ele>
        <time>2020-07-27T11:48:40.417Z</time>
      </trkpt>
      <trkpt lat="61.45491" lon="5.23883">
        <ele>68.363583</ele>
        <time>2020-07-27T11:48:42.386Z</time>
      </trkpt>
      <trkpt lat="61.45497" lon="5.23905">
        <ele>68.341326</ele>
        <time>2020-07-27T11:48:45.381Z</time>
      </trkpt>
      <trkpt lat="61.45501" lon="5.23922">
        <ele>68.324435</ele>
        <time>2020-07-27T11:48:48.376Z</time>
      </trkpt>
      <trkpt lat="61.45506" lon="5.23941">
        <ele>68.305131</ele>
        <time>2020-07-27T11:48:52.391Z</time>
      </trkpt>
      <trkpt lat="61.45512" lon="5.2396">
        <ele>68.480161</ele>
        <time>2020-07-27T11:48:57.370Z</time>
      </trkpt>
      <trkpt lat="61.45517" lon="5.23978">
        <ele>68.850973</ele>
        <time>2020-07-27T11:49:02.387Z</time>
      </trkpt>
      <trkpt lat="61.45522" lon="5.23996">
        <ele>69.218788</ele>
        <time>2020-07-27T11:49:07.369Z</time>
      </trkpt>
      <trkpt lat="61.45527" lon="5.24013">
        <ele>69.568812</ele>
        <time>2020-07-27T11:49:12.371Z</time>
      </trkpt>
      <trkpt lat="61.45531" lon="5.24032">
        <ele>69.939604</ele>
        <time>2020-07-27T11:49:18.368Z</time>
      </trkpt>
      <trkpt lat="61.45536" lon="5.2405">
        <ele>70.305197</ele>
        <time>2020-07-27T11:49:23.390Z</time>
      </trkpt>
      <trkpt lat="61.45541" lon="5.24068">
        <ele>70.642881</ele>
        <time>2020-07-27T11:49:28.423Z</time>
      </trkpt>
      <trkpt lat="61.45546" lon="5.24086">
        <ele>71.020071</ele>
        <time>2020-07-27T11:49:33.400Z</time>
      </trkpt>
      <trkpt lat="61.45551" lon="5.24105">
        <ele>71.395392</ele>
        <time>2020-07-27T11:49:38.394Z</time>
      </trkpt>
      <trkpt lat="61.45555" lon="5.24123">
        <ele>71.752062</ele>
        <time>2020-07-27T11:49:43.392Z</time>
      </trkpt>
      <trkpt lat="61.45561" lon="5.24138">
        <ele>72.084926</ele>
        <time>2020-07-27T11:49:47.436Z</time>
      </trkpt>
      <trkpt lat="61.45566" lon="5.24159">
        <ele>72.484126</ele>
        <time>2020-07-27T11:49:52.370Z</time>
      </trkpt>
      <trkpt lat="61.45571" lon="5.24175">
        <ele>72.828887</ele>
        <time>2020-07-27T11:49:56.378Z</time>
      </trkpt>
      <trkpt lat="61.45576" lon="5.24193">
        <ele>73.204576</ele>
        <time>2020-07-27T11:50:00.405Z</time>
      </trkpt>
      <trkpt lat="61.45581" lon="5.24212">
        <ele>73.570805</ele>
        <time>2020-07-27T11:50:04.388Z</time>
      </trkpt>
      <trkpt lat="61.45585" lon="5.24233">
        <ele>73.973177</ele>
        <time>2020-07-27T11:50:08.378Z</time>
      </trkpt>
      <trkpt lat="61.4559" lon="5.24251">
        <ele>74.337252</ele>
        <time>2020-07-27T11:50:11.406Z</time>
      </trkpt>
      <trkpt lat="61.45597" lon="5.24271">
        <ele>74.759547</ele>
        <time>2020-07-27T11:50:14.387Z</time>
      </trkpt>
      <trkpt lat="61.45604" lon="5.24294">
        <ele>74.99234</ele>
        <time>2020-07-27T11:50:17.380Z</time>
      </trkpt>
      <trkpt lat="61.45613" lon="5.24313">
        <ele>75.13733</ele>
        <time>2020-07-27T11:50:20.365Z</time>
      </trkpt>
      <trkpt lat="61.45621" lon="5.24331">
        <ele>75.263736</ele>
        <time>2020-07-27T11:50:23.368Z</time>
      </trkpt>
      <trkpt lat="61.45627" lon="5.24347">
        <ele>75.376671</ele>
        <time>2020-07-27T11:50:25.378Z</time>
      </trkpt>
      <trkpt lat="61.45634" lon="5.24362">
        <ele>75.495796</ele>
        <time>2020-07-27T11:50:27.363Z</time>
      </trkpt>
      <trkpt lat="61.45641" lon="5.24375">
        <ele>75.601472</ele>
        <time>2020-07-27T11:50:29.384Z</time>
      </trkpt>
      <trkpt lat="61.45651" lon="5.24392">
        <ele>75.740639</ele>
        <time>2020-07-27T11:50:32.385Z</time>
      </trkpt>
      <trkpt lat="61.45661" lon="5.24408">
        <ele>75.884001</ele>
        <time>2020-07-27T11:50:35.372Z</time>
      </trkpt>
      <trkpt lat="61.45668" lon="5.24419">
        <ele>75.988553</ele>
        <time>2020-07-27T11:50:37.388Z</time>
      </trkpt>
      <trkpt lat="61.45678" lon="5.24436">
        <ele>76.133799</ele>
        <time>2020-07-27T11:50:40.372Z</time>
      </trkpt>
      <trkpt lat="61.45688" lon="5.2445">
        <ele>76.264985</ele>
        <time>2020-07-27T11:50:43.377Z</time>
      </trkpt>
      <trkpt lat="61.45696" lon="5.24461">
        <ele>76.376354</ele>
        <time>2020-07-27T11:50:46.369Z</time>
      </trkpt>
      <trkpt lat="61.45705" lon="5.24473">
        <ele>76.497634</ele>
        <time>2020-07-27T11:50:50.387Z</time>
      </trkpt>
      <trkpt lat="61.45714" lon="5.24485">
        <ele>76.622945</ele>
        <time>2020-07-27T11:50:54.420Z</time>
      </trkpt>
      <trkpt lat="61.45723" lon="5.24495">
        <ele>76.739042</ele>
        <time>2020-07-27T11:50:58.397Z</time>
      </trkpt>
      <trkpt lat="61.45732" lon="5.24505">
        <ele>76.850606</ele>
        <time>2020-07-27T11:51:02.370Z</time>
      </trkpt>
      <trkpt lat="61.45741" lon="5.24518">
        <ele>77.155177</ele>
        <time>2020-07-27T11:51:07.366Z</time>
      </trkpt>
      <trkpt lat="61.45748" lon="5.24534">
        <ele>77.618215</ele>
        <time>2020-07-27T11:51:12.371Z</time>
      </trkpt>
      <trkpt lat="61.45757" lon="5.24545">
        <ele>78.08238</ele>
        <time>2020-07-27T11:51:17.372Z</time>
      </trkpt>
      <trkpt lat="61.45765" lon="5.24554">
        <ele>78.511816</ele>
        <time>2020-07-27T11:51:23.379Z</time>
      </trkpt>
      <trkpt lat="61.45773" lon="5.24566">
        <ele>78.926876</ele>
        <time>2020-07-27T11:51:30.367Z</time>
      </trkpt>
      <trkpt lat="61.45779" lon="5.2458">
        <ele>79.357141</ele>
        <time>2020-07-27T11:51:36.395Z</time>
      </trkpt>
      <trkpt lat="61.45789" lon="5.24591">
        <ele>79.834106</ele>
        <time>2020-07-27T11:51:41.383Z</time>
      </trkpt>
      <trkpt lat="61.45799" lon="5.24601">
        <ele>80.33915</ele>
        <time>2020-07-27T11:51:46.370Z</time>
      </trkpt>
      <trkpt lat="61.45808" lon="5.24613">
        <ele>80.823314</ele>
        <time>2020-07-27T11:51:50.376Z</time>
      </trkpt>
      <trkpt lat="61.45817" lon="5.24624">
        <ele>81.298113</ele>
        <time>2020-07-27T11:51:54.396Z</time>
      </trkpt>
      <trkpt lat="61.45827" lon="5.24635">
        <ele>81.814705</ele>
        <time>2020-07-27T11:51:58.369Z</time>
      </trkpt>
      <trkpt lat="61.45835" lon="5.24644">
        <ele>82.227979</ele>
        <time>2020-07-27T11:52:01.379Z</time>
      </trkpt>
      <trkpt lat="61.45844" lon="5.24657">
        <ele>82.724481</ele>
        <time>2020-07-27T11:52:05.375Z</time>
      </trkpt>
      <trkpt lat="61.45854" lon="5.24671">
        <ele>83.275463</ele>
        <time>2020-07-27T11:52:09.426Z</time>
      </trkpt>
      <trkpt lat="61.45862" lon="5.24682">
        <ele>83.713529</ele>
        <time>2020-07-27T11:52:12.363Z</time>
      </trkpt>
      <trkpt lat="61.45872" lon="5.24694">
        <ele>84.221679</ele>
        <time>2020-07-27T11:52:16.370Z</time>
      </trkpt>
      <trkpt lat="61.4588" lon="5.24705">
        <ele>84.649292</ele>
        <time>2020-07-27T11:52:19.373Z</time>
      </trkpt>
      <trkpt lat="61.45889" lon="5.24716">
        <ele>85.085554</ele>
        <time>2020-07-27T11:52:22.376Z</time>
      </trkpt>
      <trkpt lat="61.45897" lon="5.24726">
        <ele>85.220274</ele>
        <time>2020-07-27T11:52:25.371Z</time>
      </trkpt>
      <trkpt lat="61.45905" lon="5.24735">
        <ele>85.357311</ele>
        <time>2020-07-27T11:52:29.379Z</time>
      </trkpt>
      <trkpt lat="61.45914" lon="5.24748">
        <ele>85.517167</ele>
        <time>2020-07-27T11:52:34.378Z</time>
      </trkpt>
      <trkpt lat="61.45923" lon="5.24758">
        <ele>85.670143</ele>
        <time>2020-07-27T11:52:39.369Z</time>
      </trkpt>
      <trkpt lat="61.45932" lon="5.2477">
        <ele>85.821082</ele>
        <time>2020-07-27T11:52:44.368Z</time>
      </trkpt>
      <trkpt lat="61.4594" lon="5.24781">
        <ele>85.963495</ele>
        <time>2020-07-27T11:52:49.420Z</time>
      </trkpt>
      <trkpt lat="61.45948" lon="5.24792">
        <ele>86.107642</ele>
        <time>2020-07-27T11:52:55.372Z</time>
      </trkpt>
      <trkpt lat="61.45957" lon="5.24804">
        <ele>86.258581</ele>
        <time>2020-07-27T11:53:00.409Z</time>
      </trkpt>
      <trkpt lat="61.45966" lon="5.24817">
        <ele>86.421179</ele>
        <time>2020-07-27T11:53:05.398Z</time>
      </trkpt>
      <trkpt lat="61.45974" lon="5.24827">
        <ele>86.560445</ele>
        <time>2020-07-27T11:53:09.369Z</time>
      </trkpt>
      <trkpt lat="61.45983" lon="5.24837">
        <ele>86.709487</ele>
        <time>2020-07-27T11:53:13.375Z</time>
      </trkpt>
      <trkpt lat="61.45993" lon="5.24849">
        <ele>86.878974</ele>
        <time>2020-07-27T11:53:17.391Z</time>
      </trkpt>
      <trkpt lat="61.46002" lon="5.24861">
        <ele>87.039443</ele>
        <time>2020-07-27T11:53:20.394Z</time>
      </trkpt>
      <trkpt lat="61.46013" lon="5.24876">
        <ele>87.232653</ele>
        <time>2020-07-27T11:53:23.372Z</time>
      </trkpt>
      <trkpt lat="61.46022" lon="5.24889">
        <ele>87.392054</ele>
        <time>2020-07-27T11:53:25.390Z</time>
      </trkpt>
      <trkpt lat="61.46032" lon="5.24902">
        <ele>87.571842</ele>
        <time>2020-07-27T11:53:27.378Z</time>
      </trkpt>
      <trkpt lat="61.46044" lon="5.24917">
        <ele>87.446463</ele>
        <time>2020-07-27T11:53:29.372Z</time>
      </trkpt>
      <trkpt lat="61.46058" lon="5.24934">
        <ele>86.518392</ele>
        <time>2020-07-27T11:53:31.382Z</time>
      </trkpt>
      <trkpt lat="61.46073" lon="5.24954">
        <ele>85.50438</ele>
        <time>2020-07-27T11:53:33.383Z</time>
      </trkpt>
      <trkpt lat="61.46081" lon="5.24964">
        <ele>84.95729</ele>
        <time>2020-07-27T11:53:34.388Z</time>
      </trkpt>
      <trkpt lat="61.46089" lon="5.24975">
        <ele>84.38314</ele>
        <time>2020-07-27T11:53:35.395Z</time>
      </trkpt>
      <trkpt lat="61.46098" lon="5.24987">
        <ele>83.772593</ele>
        <time>2020-07-27T11:53:36.414Z</time>
      </trkpt>
      <trkpt lat="61.46108" lon="5.24999">
        <ele>83.122193</ele>
        <time>2020-07-27T11:53:37.401Z</time>
      </trkpt>
      <trkpt lat="61.46117" lon="5.25013">
        <ele>82.454929</ele>
        <time>2020-07-27T11:53:38.393Z</time>
      </trkpt>
      <trkpt lat="61.46127" lon="5.25026">
        <ele>81.777469</ele>
        <time>2020-07-27T11:53:39.369Z</time>
      </trkpt>
      <trkpt lat="61.46137" lon="5.25039">
        <ele>81.094077</ele>
        <time>2020-07-27T11:53:40.367Z</time>
      </trkpt>
      <trkpt lat="61.46147" lon="5.25052">
        <ele>80.404616</ele>
        <time>2020-07-27T11:53:41.389Z</time>
      </trkpt>
      <trkpt lat="61.46157" lon="5.25063">
        <ele>79.728924</ele>
        <time>2020-07-27T11:53:42.376Z</time>
      </trkpt>
      <trkpt lat="61.46167" lon="5.25075">
        <ele>79.084025</ele>
        <time>2020-07-27T11:53:43.376Z</time>
      </trkpt>
      <trkpt lat="61.46176" lon="5.25086">
        <ele>78.467137</ele>
        <time>2020-07-27T11:53:44.377Z</time>
      </trkpt>
      <trkpt lat="61.46185" lon="5.25097">
        <ele>77.864465</ele>
        <time>2020-07-27T11:53:45.371Z</time>
      </trkpt>
      <trkpt lat="61.46193" lon="5.25108">
        <ele>77.295654</ele>
        <time>2020-07-27T11:53:46.368Z</time>
      </trkpt>
      <trkpt lat="61.46201" lon="5.25119">
        <ele>76.924432</ele>
        <time>2020-07-27T11:53:47.402Z</time>
      </trkpt>
      <trkpt lat="61.46216" lon="5.25139">
        <ele>76.223258</ele>
        <time>2020-07-27T11:53:49.391Z</time>
      </trkpt>
      <trkpt lat="61.4623" lon="5.25158">
        <ele>75.53494</ele>
        <time>2020-07-27T11:53:51.364Z</time>
      </trkpt>
      <trkpt lat="61.46244" lon="5.25177">
        <ele>74.871864</ele>
        <time>2020-07-27T11:53:53.371Z</time>
      </trkpt>
      <trkpt lat="61.46258" lon="5.25195">
        <ele>74.235799</ele>
        <time>2020-07-27T11:53:55.393Z</time>
      </trkpt>
      <trkpt lat="61.4627" lon="5.25212">
        <ele>73.642476</ele>
        <time>2020-07-27T11:53:57.398Z</time>
      </trkpt>
      <trkpt lat="61.46282" lon="5.25228">
        <ele>73.071016</ele>
        <time>2020-07-27T11:53:59.374Z</time>
      </trkpt>
      <trkpt lat="61.46294" lon="5.25245">
        <ele>72.502668</ele>
        <time>2020-07-27T11:54:01.379Z</time>
      </trkpt>
      <trkpt lat="61.46306" lon="5.2526">
        <ele>71.946151</ele>
        <time>2020-07-27T11:54:03.376Z</time>
      </trkpt>
      <trkpt lat="61.46318" lon="5.25276">
        <ele>71.395302</ele>
        <time>2020-07-27T11:54:05.389Z</time>
      </trkpt>
      <trkpt lat="61.46329" lon="5.25291">
        <ele>70.846208</ele>
        <time>2020-07-27T11:54:07.374Z</time>
      </trkpt>
      <trkpt lat="61.4634" lon="5.25307">
        <ele>70.323931</ele>
        <time>2020-07-27T11:54:09.388Z</time>
      </trkpt>
      <trkpt lat="61.4635" lon="5.25322">
        <ele>70.253138</ele>
        <time>2020-07-27T11:54:11.415Z</time>
      </trkpt>
      <trkpt lat="61.4636" lon="5.25336">
        <ele>70.52764</ele>
        <time>2020-07-27T11:54:13.370Z</time>
      </trkpt>
      <trkpt lat="61.46369" lon="5.2535">
        <ele>70.805914</ele>
        <time>2020-07-27T11:54:15.407Z</time>
      </trkpt>
      <trkpt lat="61.46378" lon="5.25362">
        <ele>71.03519</ele>
        <time>2020-07-27T11:54:17.367Z</time>
      </trkpt>
      <trkpt lat="61.46385" lon="5.25372">
        <ele>71.251073</ele>
        <time>2020-07-27T11:54:19.373Z</time>
      </trkpt>
      <trkpt lat="61.46396" lon="5.25388">
        <ele>71.563719</ele>
        <time>2020-07-27T11:54:22.366Z</time>
      </trkpt>
      <trkpt lat="61.46404" lon="5.25399">
        <ele>71.776555</ele>
        <time>2020-07-27T11:54:24.380Z</time>
      </trkpt>
      <trkpt lat="61.46415" lon="5.2541">
        <ele>72.058765</ele>
        <time>2020-07-27T11:54:27.378Z</time>
      </trkpt>
      <trkpt lat="61.46424" lon="5.25419">
        <ele>72.298604</ele>
        <time>2020-07-27T11:54:30.368Z</time>
      </trkpt>
      <trkpt lat="61.46434" lon="5.25427">
        <ele>72.547842</ele>
        <time>2020-07-27T11:54:34.397Z</time>
      </trkpt>
      <trkpt lat="61.46444" lon="5.25434">
        <ele>72.780224</ele>
        <time>2020-07-27T11:54:37.378Z</time>
      </trkpt>
      <trkpt lat="61.46454" lon="5.25442">
        <ele>73.046394</ele>
        <time>2020-07-27T11:54:40.417Z</time>
      </trkpt>
      <trkpt lat="61.46463" lon="5.25451">
        <ele>73.276825</ele>
        <time>2020-07-27T11:54:43.378Z</time>
      </trkpt>
      <trkpt lat="61.46473" lon="5.25458">
        <ele>73.510737</ele>
        <time>2020-07-27T11:54:47.408Z</time>
      </trkpt>
      <trkpt lat="61.46481" lon="5.25466">
        <ele>73.72128</ele>
        <time>2020-07-27T11:54:51.363Z</time>
      </trkpt>
      <trkpt lat="61.46489" lon="5.25474">
        <ele>73.937001</ele>
        <time>2020-07-27T11:54:55.394Z</time>
      </trkpt>
      <trkpt lat="61.46499" lon="5.25482">
        <ele>74.175665</ele>
        <time>2020-07-27T11:55:00.379Z</time>
      </trkpt>
      <trkpt lat="61.46508" lon="5.25489">
        <ele>74.44986</ele>
        <time>2020-07-27T11:55:04.371Z</time>
      </trkpt>
      <trkpt lat="61.46517" lon="5.25495">
        <ele>74.749542</ele>
        <time>2020-07-27T11:55:08.366Z</time>
      </trkpt>
      <trkpt lat="61.46526" lon="5.25499">
        <ele>75.063426</ele>
        <time>2020-07-27T11:55:12.388Z</time>
      </trkpt>
      <trkpt lat="61.46535" lon="5.25504">
        <ele>75.363462</ele>
        <time>2020-07-27T11:55:16.375Z</time>
      </trkpt>
      <trkpt lat="61.46544" lon="5.25508">
        <ele>75.664962</ele>
        <time>2020-07-27T11:55:21.388Z</time>
      </trkpt>
      <trkpt lat="61.46555" lon="5.25515">
        <ele>76.044402</ele>
        <time>2020-07-27T11:55:26.378Z</time>
      </trkpt>
      <trkpt lat="61.46566" lon="5.25519">
        <ele>76.408171</ele>
        <time>2020-07-27T11:55:31.371Z</time>
      </trkpt>
      <trkpt lat="61.46576" lon="5.25524">
        <ele>76.745085</ele>
        <time>2020-07-27T11:55:35.378Z</time>
      </trkpt>
      <trkpt lat="61.46585" lon="5.2553">
        <ele>77.063529</ele>
        <time>2020-07-27T11:55:39.373Z</time>
      </trkpt>
      <trkpt lat="61.46594" lon="5.25537">
        <ele>77.358657</ele>
        <time>2020-07-27T11:55:43.375Z</time>
      </trkpt>
      <trkpt lat="61.46603" lon="5.25542">
        <ele>77.678188</ele>
        <time>2020-07-27T11:55:48.399Z</time>
      </trkpt>
      <trkpt lat="61.46614" lon="5.25546">
        <ele>78.027517</ele>
        <time>2020-07-27T11:55:53.368Z</time>
      </trkpt>
      <trkpt lat="61.46625" lon="5.25551">
        <ele>78.405051</ele>
        <time>2020-07-27T11:55:57.374Z</time>
      </trkpt>
      <trkpt lat="61.46636" lon="5.25556">
        <ele>78.776159</ele>
        <time>2020-07-27T11:56:00.370Z</time>
      </trkpt>
      <trkpt lat="61.46648" lon="5.25562">
        <ele>79.170167</ele>
        <time>2020-07-27T11:56:03.395Z</time>
      </trkpt>
      <trkpt lat="61.46657" lon="5.25569">
        <ele>79.484558</ele>
        <time>2020-07-27T11:56:05.418Z</time>
      </trkpt>
      <trkpt lat="61.46667" lon="5.25578">
        <ele>79.85214</ele>
        <time>2020-07-27T11:56:07.373Z</time>
      </trkpt>
      <trkpt lat="61.4668" lon="5.25588">
        <ele>80.009959</ele>
        <time>2020-07-27T11:56:09.381Z</time>
      </trkpt>
      <trkpt lat="61.46694" lon="5.25597">
        <ele>79.280744</ele>
        <time>2020-07-27T11:56:11.382Z</time>
      </trkpt>
      <trkpt lat="61.4671" lon="5.25606">
        <ele>78.445949</ele>
        <time>2020-07-27T11:56:13.391Z</time>
      </trkpt>
      <trkpt lat="61.46719" lon="5.25611">
        <ele>77.977792</ele>
        <time>2020-07-27T11:56:14.368Z</time>
      </trkpt>
      <trkpt lat="61.46729" lon="5.25616">
        <ele>77.495807</ele>
        <time>2020-07-27T11:56:15.399Z</time>
      </trkpt>
      <trkpt lat="61.46738" lon="5.25621">
        <ele>77.00722</ele>
        <time>2020-07-27T11:56:16.373Z</time>
      </trkpt>
      <trkpt lat="61.46749" lon="5.25627">
        <ele>76.454286</ele>
        <time>2020-07-27T11:56:17.368Z</time>
      </trkpt>
      <trkpt lat="61.4676" lon="5.25632">
        <ele>75.884168</ele>
        <time>2020-07-27T11:56:18.379Z</time>
      </trkpt>
      <trkpt lat="61.46772" lon="5.25637">
        <ele>75.308512</ele>
        <time>2020-07-27T11:56:19.376Z</time>
      </trkpt>
      <trkpt lat="61.46782" lon="5.25642">
        <ele>74.777139</ele>
        <time>2020-07-27T11:56:20.362Z</time>
      </trkpt>
      <trkpt lat="61.46792" lon="5.25647">
        <ele>74.262708</ele>
        <time>2020-07-27T11:56:21.367Z</time>
      </trkpt>
      <trkpt lat="61.46802" lon="5.25654">
        <ele>73.753936</ele>
        <time>2020-07-27T11:56:22.372Z</time>
      </trkpt>
      <trkpt lat="61.46811" lon="5.2566">
        <ele>73.250288</ele>
        <time>2020-07-27T11:56:23.367Z</time>
      </trkpt>
      <trkpt lat="61.4682" lon="5.25668">
        <ele>72.773509</ele>
        <time>2020-07-27T11:56:24.359Z</time>
      </trkpt>
      <trkpt lat="61.46829" lon="5.25676">
        <ele>72.307407</ele>
        <time>2020-07-27T11:56:25.406Z</time>
      </trkpt>
      <trkpt lat="61.46837" lon="5.25685">
        <ele>71.852801</ele>
        <time>2020-07-27T11:56:26.399Z</time>
      </trkpt>
      <trkpt lat="61.46845" lon="5.25695">
        <ele>71.39646</ele>
        <time>2020-07-27T11:56:27.372Z</time>
      </trkpt>
      <trkpt lat="61.46852" lon="5.25706">
        <ele>71.071643</ele>
        <time>2020-07-27T11:56:28.365Z</time>
      </trkpt>
      <trkpt lat="61.46867" lon="5.25728">
        <ele>70.565427</ele>
        <time>2020-07-27T11:56:30.368Z</time>
      </trkpt>
      <trkpt lat="61.46874" lon="5.25741">
        <ele>70.298851</ele>
        <time>2020-07-27T11:56:31.411Z</time>
      </trkpt>
      <trkpt lat="61.46881" lon="5.25755">
        <ele>70.029404</ele>
        <time>2020-07-27T11:56:32.371Z</time>
      </trkpt>
      <trkpt lat="61.46887" lon="5.2577">
        <ele>69.769579</ele>
        <time>2020-07-27T11:56:33.373Z</time>
      </trkpt>
      <trkpt lat="61.46893" lon="5.25784">
        <ele>69.51347</ele>
        <time>2020-07-27T11:56:34.390Z</time>
      </trkpt>
      <trkpt lat="61.46898" lon="5.25799">
        <ele>69.256083</ele>
        <time>2020-07-27T11:56:35.374Z</time>
      </trkpt>
      <trkpt lat="61.46908" lon="5.25828">
        <ele>68.7758</ele>
        <time>2020-07-27T11:56:37.366Z</time>
      </trkpt>
      <trkpt lat="61.46916" lon="5.25855">
        <ele>68.34616</ele>
        <time>2020-07-27T11:56:39.389Z</time>
      </trkpt>
      <trkpt lat="61.46924" lon="5.25884">
        <ele>67.899005</ele>
        <time>2020-07-27T11:56:41.374Z</time>
      </trkpt>
      <trkpt lat="61.46933" lon="5.25913">
        <ele>67.43521</ele>
        <time>2020-07-27T11:56:43.380Z</time>
      </trkpt>
      <trkpt lat="61.46941" lon="5.25941">
        <ele>66.988101</ele>
        <time>2020-07-27T11:56:45.381Z</time>
      </trkpt>
      <trkpt lat="61.46949" lon="5.25967">
        <ele>66.582643</ele>
        <time>2020-07-27T11:56:47.371Z</time>
      </trkpt>
      <trkpt lat="61.46955" lon="5.25991">
        <ele>66.202129</ele>
        <time>2020-07-27T11:56:49.393Z</time>
      </trkpt>
      <trkpt lat="61.46961" lon="5.26013">
        <ele>66.53731</ele>
        <time>2020-07-27T11:56:51.372Z</time>
      </trkpt>
      <trkpt lat="61.46967" lon="5.26031">
        <ele>66.91118</ele>
        <time>2020-07-27T11:56:53.386Z</time>
      </trkpt>
      <trkpt lat="61.46971" lon="5.26049">
        <ele>67.247688</ele>
        <time>2020-07-27T11:56:55.391Z</time>
      </trkpt>
      <trkpt lat="61.46977" lon="5.26073">
        <ele>67.697057</ele>
        <time>2020-07-27T11:56:58.394Z</time>
      </trkpt>
      <trkpt lat="61.46983" lon="5.26095">
        <ele>68.121854</ele>
        <time>2020-07-27T11:57:01.373Z</time>
      </trkpt>
      <trkpt lat="61.46989" lon="5.26117">
        <ele>68.547769</ele>
        <time>2020-07-27T11:57:04.411Z</time>
      </trkpt>
      <trkpt lat="61.46994" lon="5.26138">
        <ele>68.941232</ele>
        <time>2020-07-27T11:57:07.439Z</time>
      </trkpt>
      <trkpt lat="61.46998" lon="5.26155">
        <ele>69.279243</ele>
        <time>2020-07-27T11:57:10.371Z</time>
      </trkpt>
      <trkpt lat="61.47002" lon="5.26173">
        <ele>69.614157</ele>
        <time>2020-07-27T11:57:13.382Z</time>
      </trkpt>
      <trkpt lat="61.47006" lon="5.26192">
        <ele>69.959709</ele>
        <time>2020-07-27T11:57:16.411Z</time>
      </trkpt>
      <trkpt lat="61.47011" lon="5.2621">
        <ele>70.294634</ele>
        <time>2020-07-27T11:57:19.382Z</time>
      </trkpt>
      <trkpt lat="61.47014" lon="5.26228">
        <ele>70.628509</ele>
        <time>2020-07-27T11:57:22.382Z</time>
      </trkpt>
      <trkpt lat="61.47017" lon="5.26248">
        <ele>70.975211</ele>
        <time>2020-07-27T11:57:25.360Z</time>
      </trkpt>
      <trkpt lat="61.4702" lon="5.26267">
        <ele>71.323514</ele>
        <time>2020-07-27T11:57:28.396Z</time>
      </trkpt>
      <trkpt lat="61.47023" lon="5.26289">
        <ele>71.698538</ele>
        <time>2020-07-27T11:57:31.380Z</time>
      </trkpt>
      <trkpt lat="61.47026" lon="5.26311">
        <ele>72.094042</ele>
        <time>2020-07-27T11:57:34.371Z</time>
      </trkpt>
      <trkpt lat="61.47029" lon="5.26333">
        <ele>72.483616</ele>
        <time>2020-07-27T11:57:37.388Z</time>
      </trkpt>
      <trkpt lat="61.47032" lon="5.2636">
        <ele>73.03058</ele>
        <time>2020-07-27T11:57:41.445Z</time>
      </trkpt>
      <trkpt lat="61.47034" lon="5.26384">
        <ele>73.511527</ele>
        <time>2020-07-27T11:57:44.395Z</time>
      </trkpt>
      <trkpt lat="61.47037" lon="5.26407">
        <ele>73.982655</ele>
        <time>2020-07-27T11:57:47.370Z</time>
      </trkpt>
      <trkpt lat="61.47039" lon="5.2643">
        <ele>74.468362</ele>
        <time>2020-07-27T11:57:50.383Z</time>
      </trkpt>
      <trkpt lat="61.47043" lon="5.26453">
        <ele>74.947832</ele>
        <time>2020-07-27T11:57:53.411Z</time>
      </trkpt>
      <trkpt lat="61.47045" lon="5.26476">
        <ele>75.410943</ele>
        <time>2020-07-27T11:57:56.384Z</time>
      </trkpt>
      <trkpt lat="61.47047" lon="5.26501">
        <ele>75.934915</ele>
        <time>2020-07-27T11:57:59.375Z</time>
      </trkpt>
      <trkpt lat="61.4705" lon="5.26528">
        <ele>76.479272</ele>
        <time>2020-07-27T11:58:02.363Z</time>
      </trkpt>
      <trkpt lat="61.47053" lon="5.26553">
        <ele>77.000754</ele>
        <time>2020-07-27T11:58:05.391Z</time>
      </trkpt>
      <trkpt lat="61.47055" lon="5.26576">
        <ele>77.476717</ele>
        <time>2020-07-27T11:58:08.376Z</time>
      </trkpt>
      <trkpt lat="61.47058" lon="5.26599">
        <ele>77.955584</ele>
        <time>2020-07-27T11:58:11.372Z</time>
      </trkpt>
      <trkpt lat="61.4706" lon="5.2662">
        <ele>78.389583</ele>
        <time>2020-07-27T11:58:14.375Z</time>
      </trkpt>
      <trkpt lat="61.47061" lon="5.2664">
        <ele>78.796136</ele>
        <time>2020-07-27T11:58:17.399Z</time>
      </trkpt>
      <trkpt lat="61.47064" lon="5.26663">
        <ele>79.275046</ele>
        <time>2020-07-27T11:58:21.379Z</time>
      </trkpt>
      <trkpt lat="61.47066" lon="5.26683">
        <ele>79.66534</ele>
        <time>2020-07-27T11:58:25.369Z</time>
      </trkpt>
      <trkpt lat="61.47067" lon="5.26701">
        <ele>80.049837</ele>
        <time>2020-07-27T11:58:29.387Z</time>
      </trkpt>
      <trkpt lat="61.47069" lon="5.26722">
        <ele>80.168643</ele>
        <time>2020-07-27T11:58:33.365Z</time>
      </trkpt>
      <trkpt lat="61.47071" lon="5.26745">
        <ele>80.272783</ele>
        <time>2020-07-27T11:58:38.376Z</time>
      </trkpt>
      <trkpt lat="61.47074" lon="5.26768">
        <ele>80.373029</ele>
        <time>2020-07-27T11:58:43.395Z</time>
      </trkpt>
      <trkpt lat="61.47074" lon="5.26788">
        <ele>80.463509</ele>
        <time>2020-07-27T11:58:49.380Z</time>
      </trkpt>
      <trkpt lat="61.47076" lon="5.26809">
        <ele>80.557449</ele>
        <time>2020-07-27T11:58:52.369Z</time>
      </trkpt>
      <trkpt lat="61.47077" lon="5.26831">
        <ele>80.655544</ele>
        <time>2020-07-27T11:58:56.367Z</time>
      </trkpt>
      <trkpt lat="61.47076" lon="5.26854">
        <ele>80.75495</ele>
        <time>2020-07-27T11:59:00.388Z</time>
      </trkpt>
      <trkpt lat="61.47076" lon="5.26875">
        <ele>80.8478</ele>
        <time>2020-07-27T11:59:03.373Z</time>
      </trkpt>
      <trkpt lat="61.47075" lon="5.26898">
        <ele>80.948788</ele>
        <time>2020-07-27T11:59:06.372Z</time>
      </trkpt>
      <trkpt lat="61.47074" lon="5.26921">
        <ele>81.05212</ele>
        <time>2020-07-27T11:59:09.394Z</time>
      </trkpt>
      <trkpt lat="61.47072" lon="5.26948">
        <ele>81.169026</ele>
        <time>2020-07-27T11:59:12.394Z</time>
      </trkpt>
      <trkpt lat="61.4707" lon="5.26967">
        <ele>81.253985</ele>
        <time>2020-07-27T11:59:14.394Z</time>
      </trkpt>
      <trkpt lat="61.47069" lon="5.26986">
        <ele>81.341662</ele>
        <time>2020-07-27T11:59:16.377Z</time>
      </trkpt>
      <trkpt lat="61.47068" lon="5.27005">
        <ele>81.424471</ele>
        <time>2020-07-27T11:59:18.413Z</time>
      </trkpt>
      <trkpt lat="61.47065" lon="5.27026">
        <ele>81.518963</ele>
        <time>2020-07-27T11:59:20.376Z</time>
      </trkpt>
      <trkpt lat="61.47064" lon="5.27047">
        <ele>81.6136</ele>
        <time>2020-07-27T11:59:22.423Z</time>
      </trkpt>
      <trkpt lat="61.47062" lon="5.27068">
        <ele>81.705812</ele>
        <time>2020-07-27T11:59:24.369Z</time>
      </trkpt>
      <trkpt lat="61.4706" lon="5.27088">
        <ele>81.487796</ele>
        <time>2020-07-27T11:59:26.395Z</time>
      </trkpt>
      <trkpt lat="61.47059" lon="5.27108">
        <ele>81.087874</ele>
        <time>2020-07-27T11:59:28.389Z</time>
      </trkpt>
      <trkpt lat="61.47057" lon="5.27128">
        <ele>80.684692</ele>
        <time>2020-07-27T11:59:30.372Z</time>
      </trkpt>
      <trkpt lat="61.47056" lon="5.27147">
        <ele>80.295113</ele>
        <time>2020-07-27T11:59:32.372Z</time>
      </trkpt>
      <trkpt lat="61.47055" lon="5.27168">
        <ele>79.882306</ele>
        <time>2020-07-27T11:59:34.386Z</time>
      </trkpt>
      <trkpt lat="61.47054" lon="5.27189">
        <ele>79.450714</ele>
        <time>2020-07-27T11:59:36.369Z</time>
      </trkpt>
      <trkpt lat="61.47052" lon="5.27213">
        <ele>78.962752</ele>
        <time>2020-07-27T11:59:38.377Z</time>
      </trkpt>
      <trkpt lat="61.4705" lon="5.27239">
        <ele>78.446048</ele>
        <time>2020-07-27T11:59:40.372Z</time>
      </trkpt>
      <trkpt lat="61.47048" lon="5.27267">
        <ele>77.879624</ele>
        <time>2020-07-27T11:59:42.376Z</time>
      </trkpt>
      <trkpt lat="61.47046" lon="5.27296">
        <ele>77.303359</ele>
        <time>2020-07-27T11:59:44.427Z</time>
      </trkpt>
      <trkpt lat="61.47044" lon="5.27326">
        <ele>76.698903</ele>
        <time>2020-07-27T11:59:46.399Z</time>
      </trkpt>
      <trkpt lat="61.47041" lon="5.27356">
        <ele>76.094056</ele>
        <time>2020-07-27T11:59:48.412Z</time>
      </trkpt>
      <trkpt lat="61.47039" lon="5.27385">
        <ele>75.504677</ele>
        <time>2020-07-27T11:59:50.363Z</time>
      </trkpt>
      <trkpt lat="61.47036" lon="5.27414">
        <ele>74.900962</ele>
        <time>2020-07-27T11:59:52.387Z</time>
      </trkpt>
      <trkpt lat="61.47033" lon="5.27444">
        <ele>74.304729</ele>
        <time>2020-07-27T11:59:54.429Z</time>
      </trkpt>
      <trkpt lat="61.47031" lon="5.27474">
        <ele>73.94264</ele>
        <time>2020-07-27T11:59:56.384Z</time>
      </trkpt>
      <trkpt lat="61.47028" lon="5.27504">
        <ele>73.600174</ele>
        <time>2020-07-27T11:59:58.365Z</time>
      </trkpt>
      <trkpt lat="61.47025" lon="5.27533">
        <ele>73.27297</ele>
        <time>2020-07-27T12:00:00.370Z</time>
      </trkpt>
      <trkpt lat="61.47022" lon="5.27562">
        <ele>72.954547</ele>
        <time>2020-07-27T12:00:02.363Z</time>
      </trkpt>
      <trkpt lat="61.47019" lon="5.27587">
        <ele>72.670981</ele>
        <time>2020-07-27T12:00:04.426Z</time>
      </trkpt>
      <trkpt lat="61.47016" lon="5.27608">
        <ele>72.426412</ele>
        <time>2020-07-27T12:00:06.372Z</time>
      </trkpt>
      <trkpt lat="61.47014" lon="5.27633">
        <ele>72.147129</ele>
        <time>2020-07-27T12:00:09.387Z</time>
      </trkpt>
      <trkpt lat="61.47011" lon="5.27656">
        <ele>71.889203</ele>
        <time>2020-07-27T12:00:12.371Z</time>
      </trkpt>
      <trkpt lat="61.47009" lon="5.27677">
        <ele>71.652087</ele>
        <time>2020-07-27T12:00:15.392Z</time>
      </trkpt>
      <trkpt lat="61.47007" lon="5.27696">
        <ele>71.432682</ele>
        <time>2020-07-27T12:00:18.367Z</time>
      </trkpt>
      <trkpt lat="61.47004" lon="5.27719">
        <ele>71.174252</ele>
        <time>2020-07-27T12:00:22.432Z</time>
      </trkpt>
      <trkpt lat="61.47002" lon="5.27738">
        <ele>70.956377</ele>
        <time>2020-07-27T12:00:25.377Z</time>
      </trkpt>
      <trkpt lat="61.47" lon="5.27757">
        <ele>70.748775</ele>
        <time>2020-07-27T12:00:28.377Z</time>
      </trkpt>
      <trkpt lat="61.46997" lon="5.27781">
        <ele>70.471086</ele>
        <time>2020-07-27T12:00:32.412Z</time>
      </trkpt>
      <trkpt lat="61.46994" lon="5.27804">
        <ele>70.2148</ele>
        <time>2020-07-27T12:00:35.409Z</time>
      </trkpt>
      <trkpt lat="61.46992" lon="5.27828">
        <ele>70.171277</ele>
        <time>2020-07-27T12:00:38.386Z</time>
      </trkpt>
      <trkpt lat="61.46989" lon="5.27847">
        <ele>70.275842</ele>
        <time>2020-07-27T12:00:40.425Z</time>
      </trkpt>
      <trkpt lat="61.46987" lon="5.27867">
        <ele>70.385057</ele>
        <time>2020-07-27T12:00:42.384Z</time>
      </trkpt>
      <trkpt lat="61.46985" lon="5.27889">
        <ele>70.509367</ele>
        <time>2020-07-27T12:00:44.392Z</time>
      </trkpt>
      <trkpt lat="61.46983" lon="5.27915">
        <ele>70.64825</ele>
        <time>2020-07-27T12:00:46.370Z</time>
      </trkpt>
      <trkpt lat="61.4698" lon="5.27943">
        <ele>70.800554</ele>
        <time>2020-07-27T12:00:48.391Z</time>
      </trkpt>
      <trkpt lat="61.46977" lon="5.27972">
        <ele>70.961155</ele>
        <time>2020-07-27T12:00:50.378Z</time>
      </trkpt>
      <trkpt lat="61.46974" lon="5.28003">
        <ele>71.126908</ele>
        <time>2020-07-27T12:00:52.375Z</time>
      </trkpt>
      <trkpt lat="61.46971" lon="5.28033">
        <ele>71.293115</ele>
        <time>2020-07-27T12:00:54.421Z</time>
      </trkpt>
      <trkpt lat="61.46969" lon="5.2806">
        <ele>71.436948</ele>
        <time>2020-07-27T12:00:56.371Z</time>
      </trkpt>
      <trkpt lat="61.46966" lon="5.28084">
        <ele>71.572471</ele>
        <time>2020-07-27T12:00:58.370Z</time>
      </trkpt>
      <trkpt lat="61.46964" lon="5.28106">
        <ele>71.692609</ele>
        <time>2020-07-27T12:01:00.375Z</time>
      </trkpt>
      <trkpt lat="61.46961" lon="5.28132">
        <ele>71.831889</ele>
        <time>2020-07-27T12:01:03.389Z</time>
      </trkpt>
      <trkpt lat="61.46959" lon="5.28152">
        <ele>71.944232</ele>
        <time>2020-07-27T12:01:06.398Z</time>
      </trkpt>
      <trkpt lat="61.46958" lon="5.28172">
        <ele>72.048641</ele>
        <time>2020-07-27T12:01:09.377Z</time>
      </trkpt>
      <trkpt lat="61.46955" lon="5.28194">
        <ele>72.21221</ele>
        <time>2020-07-27T12:01:13.374Z</time>
      </trkpt>
      <trkpt lat="61.46953" lon="5.28213">
        <ele>72.381687</ele>
        <time>2020-07-27T12:01:17.386Z</time>
      </trkpt>
      <trkpt lat="61.46951" lon="5.28232">
        <ele>72.551809</ele>
        <time>2020-07-27T12:01:20.370Z</time>
      </trkpt>
      <trkpt lat="61.46949" lon="5.28255">
        <ele>72.753077</ele>
        <time>2020-07-27T12:01:24.405Z</time>
      </trkpt>
      <trkpt lat="61.46947" lon="5.28275">
        <ele>72.934346</ele>
        <time>2020-07-27T12:01:27.368Z</time>
      </trkpt>
      <trkpt lat="61.46944" lon="5.28296">
        <ele>73.120941</ele>
        <time>2020-07-27T12:01:30.373Z</time>
      </trkpt>
      <trkpt lat="61.46942" lon="5.28318">
        <ele>73.317759</ele>
        <time>2020-07-27T12:01:33.371Z</time>
      </trkpt>
      <trkpt lat="61.46939" lon="5.28345">
        <ele>73.557233</ele>
        <time>2020-07-27T12:01:36.393Z</time>
      </trkpt>
      <trkpt lat="61.46937" lon="5.28365">
        <ele>73.740284</ele>
        <time>2020-07-27T12:01:38.391Z</time>
      </trkpt>
      <trkpt lat="61.46934" lon="5.2839">
        <ele>73.960603</ele>
        <time>2020-07-27T12:01:40.371Z</time>
      </trkpt>
      <trkpt lat="61.46932" lon="5.28416">
        <ele>74.192029</ele>
        <time>2020-07-27T12:01:42.403Z</time>
      </trkpt>
      <trkpt lat="61.46929" lon="5.28442">
        <ele>74.42423</ele>
        <time>2020-07-27T12:01:44.387Z</time>
      </trkpt>
      <trkpt lat="61.46927" lon="5.28467">
        <ele>74.646756</ele>
        <time>2020-07-27T12:01:46.383Z</time>
      </trkpt>
      <trkpt lat="61.46925" lon="5.28488">
        <ele>74.831604</ele>
        <time>2020-07-27T12:01:48.395Z</time>
      </trkpt>
      <trkpt lat="61.46923" lon="5.2851">
        <ele>75.030992</ele>
        <time>2020-07-27T12:01:50.368Z</time>
      </trkpt>
      <trkpt lat="61.46921" lon="5.28536">
        <ele>75.257561</ele>
        <time>2020-07-27T12:01:53.385Z</time>
      </trkpt>
      <trkpt lat="61.46919" lon="5.28559">
        <ele>75.618703</ele>
        <time>2020-07-27T12:01:56.407Z</time>
      </trkpt>
      <trkpt lat="61.46916" lon="5.28582">
        <ele>76.242733</ele>
        <time>2020-07-27T12:01:59.376Z</time>
      </trkpt>
      <trkpt lat="61.46915" lon="5.28604">
        <ele>76.849433</ele>
        <time>2020-07-27T12:02:02.380Z</time>
      </trkpt>
      <trkpt lat="61.46914" lon="5.28625">
        <ele>77.422124</ele>
        <time>2020-07-27T12:02:05.374Z</time>
      </trkpt>
      <trkpt lat="61.46912" lon="5.28644">
        <ele>77.939682</ele>
        <time>2020-07-27T12:02:08.382Z</time>
      </trkpt>
      <trkpt lat="61.46911" lon="5.28666">
        <ele>78.545687</ele>
        <time>2020-07-27T12:02:12.366Z</time>
      </trkpt>
      <trkpt lat="61.4691" lon="5.28685">
        <ele>79.072814</ele>
        <time>2020-07-27T12:02:15.368Z</time>
      </trkpt>
      <trkpt lat="61.46908" lon="5.28709">
        <ele>79.721587</ele>
        <time>2020-07-27T12:02:19.416Z</time>
      </trkpt>
      <trkpt lat="61.46907" lon="5.2873">
        <ele>80.318778</ele>
        <time>2020-07-27T12:02:23.369Z</time>
      </trkpt>
      <trkpt lat="61.46906" lon="5.28751">
        <ele>80.890993</ele>
        <time>2020-07-27T12:02:27.397Z</time>
      </trkpt>
      <trkpt lat="61.46905" lon="5.28772">
        <ele>81.456009</ele>
        <time>2020-07-27T12:02:32.369Z</time>
      </trkpt>
      <trkpt lat="61.46904" lon="5.28793">
        <ele>82.029694</ele>
        <time>2020-07-27T12:02:38.419Z</time>
      </trkpt>
      <trkpt lat="61.46902" lon="5.28814">
        <ele>82.597227</ele>
        <time>2020-07-27T12:02:44.381Z</time>
      </trkpt>
      <trkpt lat="61.46902" lon="5.28834">
        <ele>83.153628</ele>
        <time>2020-07-27T12:02:50.397Z</time>
      </trkpt>
      <trkpt lat="61.46901" lon="5.28854">
        <ele>83.699192</ele>
        <time>2020-07-27T12:02:56.411Z</time>
      </trkpt>
      <trkpt lat="61.469" lon="5.28873">
        <ele>84.219916</ele>
        <time>2020-07-27T12:03:02.406Z</time>
      </trkpt>
      <trkpt lat="61.469" lon="5.28892">
        <ele>84.741862</ele>
        <time>2020-07-27T12:03:08.384Z</time>
      </trkpt>
      <trkpt lat="61.46898" lon="5.28911">
        <ele>85.265379</ele>
        <time>2020-07-27T12:03:14.377Z</time>
      </trkpt>
      <trkpt lat="61.46896" lon="5.28932">
        <ele>85.969799</ele>
        <time>2020-07-27T12:03:22.375Z</time>
      </trkpt>
      <trkpt lat="61.46894" lon="5.28952">
        <ele>86.869462</ele>
        <time>2020-07-27T12:03:29.384Z</time>
      </trkpt>
      <trkpt lat="61.46892" lon="5.28973">
        <ele>87.781775</ele>
        <time>2020-07-27T12:03:35.436Z</time>
      </trkpt>
      <trkpt lat="61.46888" lon="5.28991">
        <ele>88.63597</ele>
        <time>2020-07-27T12:03:41.409Z</time>
      </trkpt>
      <trkpt lat="61.46884" lon="5.29008">
        <ele>89.470597</ele>
        <time>2020-07-27T12:03:47.374Z</time>
      </trkpt>
      <trkpt lat="61.46879" lon="5.29027">
        <ele>90.416336</ele>
        <time>2020-07-27T12:03:53.379Z</time>
      </trkpt>
      <trkpt lat="61.46873" lon="5.29042">
        <ele>91.256167</ele>
        <time>2020-07-27T12:03:58.370Z</time>
      </trkpt>
      <trkpt lat="61.46867" lon="5.2906">
        <ele>92.191861</ele>
        <time>2020-07-27T12:04:03.411Z</time>
      </trkpt>
      <trkpt lat="61.46861" lon="5.29075">
        <ele>93.049207</ele>
        <time>2020-07-27T12:04:07.404Z</time>
      </trkpt>
      <trkpt lat="61.46854" lon="5.29094">
        <ele>94.100837</ele>
        <time>2020-07-27T12:04:12.380Z</time>
      </trkpt>
      <trkpt lat="61.46847" lon="5.29109">
        <ele>94.986349</ele>
        <time>2020-07-27T12:04:17.364Z</time>
      </trkpt>
      <trkpt lat="61.46842" lon="5.29124">
        <ele>95.798321</ele>
        <time>2020-07-27T12:04:21.377Z</time>
      </trkpt>
      <trkpt lat="61.46836" lon="5.29143">
        <ele>96.740299</ele>
        <time>2020-07-27T12:04:27.375Z</time>
      </trkpt>
      <trkpt lat="61.46832" lon="5.29162">
        <ele>97.64127</ele>
        <time>2020-07-27T12:04:34.392Z</time>
      </trkpt>
      <trkpt lat="61.46829" lon="5.29181">
        <ele>98.533528</ele>
        <time>2020-07-27T12:04:40.410Z</time>
      </trkpt>
      <trkpt lat="61.46824" lon="5.29198">
        <ele>99.402825</ele>
        <time>2020-07-27T12:04:47.381Z</time>
      </trkpt>
      <trkpt lat="61.4682" lon="5.29218">
        <ele>100.318501</ele>
        <time>2020-07-27T12:04:55.412Z</time>
      </trkpt>
      <trkpt lat="61.46817" lon="5.29236">
        <ele>101.131041</ele>
        <time>2020-07-27T12:05:02.391Z</time>
      </trkpt>
      <trkpt lat="61.46813" lon="5.29254">
        <ele>101.942129</ele>
        <time>2020-07-27T12:05:09.374Z</time>
      </trkpt>
      <trkpt lat="61.4681" lon="5.29272">
        <ele>102.274005</ele>
        <time>2020-07-27T12:05:15.398Z</time>
      </trkpt>
      <trkpt lat="61.46805" lon="5.29289">
        <ele>102.602089</ele>
        <time>2020-07-27T12:05:22.417Z</time>
      </trkpt>
      <trkpt lat="61.46802" lon="5.29309">
        <ele>102.973211</ele>
        <time>2020-07-27T12:05:29.372Z</time>
      </trkpt>
      <trkpt lat="61.46796" lon="5.29325">
        <ele>103.318583</ele>
        <time>2020-07-27T12:05:35.402Z</time>
      </trkpt>
      <trkpt lat="61.4679" lon="5.29343">
        <ele>103.685925</ele>
        <time>2020-07-27T12:05:41.367Z</time>
      </trkpt>
      <trkpt lat="61.46784" lon="5.29358">
        <ele>104.020402</ele>
        <time>2020-07-27T12:05:46.412Z</time>
      </trkpt>
      <trkpt lat="61.46777" lon="5.2937">
        <ele>104.347537</ele>
        <time>2020-07-27T12:05:51.389Z</time>
      </trkpt>
      <trkpt lat="61.4677" lon="5.29386">
        <ele>104.725276</ele>
        <time>2020-07-27T12:05:56.366Z</time>
      </trkpt>
      <trkpt lat="61.46762" lon="5.294">
        <ele>105.107238</ele>
        <time>2020-07-27T12:06:01.374Z</time>
      </trkpt>
      <trkpt lat="61.46754" lon="5.29412">
        <ele>105.463882</ele>
        <time>2020-07-27T12:06:07.392Z</time>
      </trkpt>
      <trkpt lat="61.46749" lon="5.29427">
        <ele>105.790612</ele>
        <time>2020-07-27T12:06:14.368Z</time>
      </trkpt>
      <trkpt lat="61.46742" lon="5.29441">
        <ele>106.12833</ele>
        <time>2020-07-27T12:06:21.383Z</time>
      </trkpt>
      <trkpt lat="61.46736" lon="5.29456">
        <ele>106.473448</ele>
        <time>2020-07-27T12:06:28.375Z</time>
      </trkpt>
      <trkpt lat="61.46729" lon="5.2947">
        <ele>106.812131</ele>
        <time>2020-07-27T12:06:35.373Z</time>
      </trkpt>
      <trkpt lat="61.46723" lon="5.29487">
        <ele>107.174013</ele>
        <time>2020-07-27T12:06:43.403Z</time>
      </trkpt>
      <trkpt lat="61.46717" lon="5.29503">
        <ele>107.530945</ele>
        <time>2020-07-27T12:06:50.387Z</time>
      </trkpt>
      <trkpt lat="61.4671" lon="5.29519">
        <ele>107.904432</ele>
        <time>2020-07-27T12:06:58.434Z</time>
      </trkpt>
      <trkpt lat="61.46703" lon="5.29535">
        <ele>108.264955</ele>
        <time>2020-07-27T12:07:06.366Z</time>
      </trkpt>
      <trkpt lat="61.46696" lon="5.2955">
        <ele>108.98427</ele>
        <time>2020-07-27T12:07:13.393Z</time>
      </trkpt>
      <trkpt lat="61.46689" lon="5.29563">
        <ele>109.807355</ele>
        <time>2020-07-27T12:07:18.397Z</time>
      </trkpt>
      <trkpt lat="61.46682" lon="5.29574">
        <ele>110.648902</ele>
        <time>2020-07-27T12:07:24.366Z</time>
      </trkpt>
      <trkpt lat="61.46676" lon="5.29591">
        <ele>111.54886</ele>
        <time>2020-07-27T12:07:31.361Z</time>
      </trkpt>
      <trkpt lat="61.46671" lon="5.2961">
        <ele>112.467074</ele>
        <time>2020-07-27T12:07:38.385Z</time>
      </trkpt>
      <trkpt lat="61.46665" lon="5.29627">
        <ele>113.363936</ele>
        <time>2020-07-27T12:07:45.410Z</time>
      </trkpt>
      <trkpt lat="61.4666" lon="5.29645">
        <ele>114.25993</ele>
        <time>2020-07-27T12:07:52.379Z</time>
      </trkpt>
      <trkpt lat="61.46655" lon="5.29663">
        <ele>115.105784</ele>
        <time>2020-07-27T12:08:00.395Z</time>
      </trkpt>
      <trkpt lat="61.46651" lon="5.2968">
        <ele>115.914965</ele>
        <time>2020-07-27T12:08:06.386Z</time>
      </trkpt>
      <trkpt lat="61.46645" lon="5.29697">
        <ele>116.842901</ele>
        <time>2020-07-27T12:08:13.390Z</time>
      </trkpt>
      <trkpt lat="61.4664" lon="5.29717">
        <ele>117.779335</ele>
        <time>2020-07-27T12:08:21.388Z</time>
      </trkpt>
      <trkpt lat="61.46635" lon="5.29737">
        <ele>118.738412</ele>
        <time>2020-07-27T12:08:28.398Z</time>
      </trkpt>
      <trkpt lat="61.46631" lon="5.29755">
        <ele>119.586188</ele>
        <time>2020-07-27T12:08:34.406Z</time>
      </trkpt>
      <trkpt lat="61.46625" lon="5.2977">
        <ele>120.442157</ele>
        <time>2020-07-27T12:08:41.384Z</time>
      </trkpt>
      <trkpt lat="61.4662" lon="5.2979">
        <ele>121.383286</ele>
        <time>2020-07-27T12:08:48.390Z</time>
      </trkpt>
      <trkpt lat="61.46614" lon="5.29806">
        <ele>122.221072</ele>
        <time>2020-07-27T12:08:55.375Z</time>
      </trkpt>
      <trkpt lat="61.46607" lon="5.2982">
        <ele>123.11999</ele>
        <time>2020-07-27T12:09:02.416Z</time>
      </trkpt>
      <trkpt lat="61.46601" lon="5.29835">
        <ele>123.9313</ele>
        <time>2020-07-27T12:09:09.403Z</time>
      </trkpt>
      <trkpt lat="61.46595" lon="5.29852">
        <ele>124.990533</ele>
        <time>2020-07-27T12:09:17.380Z</time>
      </trkpt>
      <trkpt lat="61.46588" lon="5.29869">
        <ele>126.217057</ele>
        <time>2020-07-27T12:09:26.370Z</time>
      </trkpt>
      <trkpt lat="61.46582" lon="5.29887">
        <ele>127.403993</ele>
        <time>2020-07-27T12:09:32.395Z</time>
      </trkpt>
      <trkpt lat="61.46575" lon="5.29901">
        <ele>128.534237</ele>
        <time>2020-07-27T12:09:39.388Z</time>
      </trkpt>
      <trkpt lat="61.4657" lon="5.29916">
        <ele>129.623532</ele>
        <time>2020-07-27T12:09:45.376Z</time>
      </trkpt>
      <trkpt lat="61.46565" lon="5.29932">
        <ele>130.69448</ele>
        <time>2020-07-27T12:09:52.376Z</time>
      </trkpt>
      <trkpt lat="61.46558" lon="5.29948">
        <ele>131.881894</ele>
        <time>2020-07-27T12:09:59.378Z</time>
      </trkpt>
      <trkpt lat="61.46553" lon="5.29964">
        <ele>132.968565</ele>
        <time>2020-07-27T12:10:07.371Z</time>
      </trkpt>
      <trkpt lat="61.46547" lon="5.29979">
        <ele>134.041446</ele>
        <time>2020-07-27T12:10:13.367Z</time>
      </trkpt>
      <trkpt lat="61.46541" lon="5.29995">
        <ele>135.164276</ele>
        <time>2020-07-27T12:10:20.384Z</time>
      </trkpt>
      <trkpt lat="61.46536" lon="5.30012">
        <ele>136.301486</ele>
        <time>2020-07-27T12:10:27.377Z</time>
      </trkpt>
      <trkpt lat="61.46531" lon="5.30028">
        <ele>137.366124</ele>
        <time>2020-07-27T12:10:34.383Z</time>
      </trkpt>
      <trkpt lat="61.46526" lon="5.30046">
        <ele>138.475205</ele>
        <time>2020-07-27T12:10:42.384Z</time>
      </trkpt>
      <trkpt lat="61.46522" lon="5.30064">
        <ele>139.592483</ele>
        <time>2020-07-27T12:10:51.373Z</time>
      </trkpt>
      <trkpt lat="61.46519" lon="5.30083">
        <ele>140.728051</ele>
        <time>2020-07-27T12:10:58.403Z</time>
      </trkpt>
      <trkpt lat="61.46514" lon="5.301">
        <ele>141.830466</ele>
        <time>2020-07-27T12:11:05.383Z</time>
      </trkpt>
      <trkpt lat="61.46511" lon="5.30118">
        <ele>142.935927</ele>
        <time>2020-07-27T12:11:12.401Z</time>
      </trkpt>
      <trkpt lat="61.46505" lon="5.30137">
        <ele>144.194054</ele>
        <time>2020-07-27T12:11:19.378Z</time>
      </trkpt>
      <trkpt lat="61.465" lon="5.30154">
        <ele>145.316141</ele>
        <time>2020-07-27T12:11:25.373Z</time>
      </trkpt>
      <trkpt lat="61.46494" lon="5.30172">
        <ele>145.026181</ele>
        <time>2020-07-27T12:11:32.384Z</time>
      </trkpt>
      <trkpt lat="61.46491" lon="5.30191">
        <ele>144.676422</ele>
        <time>2020-07-27T12:11:36.370Z</time>
      </trkpt>
      <trkpt lat="61.46485" lon="5.30209">
        <ele>144.281979</ele>
        <time>2020-07-27T12:11:40.384Z</time>
      </trkpt>
      <trkpt lat="61.46478" lon="5.30231">
        <ele>143.808862</ele>
        <time>2020-07-27T12:11:43.380Z</time>
      </trkpt>
      <trkpt lat="61.46472" lon="5.30251">
        <ele>143.390577</ele>
        <time>2020-07-27T12:11:46.369Z</time>
      </trkpt>
      <trkpt lat="61.46468" lon="5.30273">
        <ele>142.973204</ele>
        <time>2020-07-27T12:11:49.382Z</time>
      </trkpt>
      <trkpt lat="61.4646" lon="5.30295">
        <ele>142.496801</ele>
        <time>2020-07-27T12:11:52.373Z</time>
      </trkpt>
      <trkpt lat="61.46454" lon="5.30317">
        <ele>142.036247</ele>
        <time>2020-07-27T12:11:54.371Z</time>
      </trkpt>
      <trkpt lat="61.46448" lon="5.30342">
        <ele>141.534687</ele>
        <time>2020-07-27T12:11:56.393Z</time>
      </trkpt>
      <trkpt lat="61.46441" lon="5.30366">
        <ele>141.034587</ele>
        <time>2020-07-27T12:11:58.369Z</time>
      </trkpt>
      <trkpt lat="61.46433" lon="5.30393">
        <ele>140.49558</ele>
        <time>2020-07-27T12:12:00.383Z</time>
      </trkpt>
      <trkpt lat="61.46425" lon="5.30422">
        <ele>139.885837</ele>
        <time>2020-07-27T12:12:02.401Z</time>
      </trkpt>
      <trkpt lat="61.46416" lon="5.30454">
        <ele>139.241276</ele>
        <time>2020-07-27T12:12:04.386Z</time>
      </trkpt>
      <trkpt lat="61.46408" lon="5.30485">
        <ele>138.513475</ele>
        <time>2020-07-27T12:12:06.389Z</time>
      </trkpt>
      <trkpt lat="61.464" lon="5.30515">
        <ele>137.440292</ele>
        <time>2020-07-27T12:12:08.377Z</time>
      </trkpt>
      <trkpt lat="61.46393" lon="5.30541">
        <ele>136.482247</ele>
        <time>2020-07-27T12:12:10.381Z</time>
      </trkpt>
      <trkpt lat="61.46385" lon="5.3057">
        <ele>135.443147</ele>
        <time>2020-07-27T12:12:12.386Z</time>
      </trkpt>
      <trkpt lat="61.46378" lon="5.30599">
        <ele>134.392519</ele>
        <time>2020-07-27T12:12:14.381Z</time>
      </trkpt>
      <trkpt lat="61.4637" lon="5.30631">
        <ele>133.269724</ele>
        <time>2020-07-27T12:12:16.371Z</time>
      </trkpt>
      <trkpt lat="61.46365" lon="5.30663">
        <ele>132.20053</ele>
        <time>2020-07-27T12:12:18.390Z</time>
      </trkpt>
      <trkpt lat="61.46363" lon="5.30683">
        <ele>131.543906</ele>
        <time>2020-07-27T12:12:19.366Z</time>
      </trkpt>
      <trkpt lat="61.4636" lon="5.30703">
        <ele>130.878381</ele>
        <time>2020-07-27T12:12:20.378Z</time>
      </trkpt>
      <trkpt lat="61.46356" lon="5.30722">
        <ele>130.227891</ele>
        <time>2020-07-27T12:12:21.373Z</time>
      </trkpt>
      <trkpt lat="61.46353" lon="5.30742">
        <ele>129.581261</ele>
        <time>2020-07-27T12:12:22.382Z</time>
      </trkpt>
      <trkpt lat="61.4635" lon="5.30761">
        <ele>128.94203</ele>
        <time>2020-07-27T12:12:23.393Z</time>
      </trkpt>
      <trkpt lat="61.46342" lon="5.3079">
        <ele>127.878743</ele>
        <time>2020-07-27T12:12:25.388Z</time>
      </trkpt>
      <trkpt lat="61.46337" lon="5.30807">
        <ele>127.2367</ele>
        <time>2020-07-27T12:12:26.380Z</time>
      </trkpt>
      <trkpt lat="61.46327" lon="5.30839">
        <ele>125.752634</ele>
        <time>2020-07-27T12:12:28.379Z</time>
      </trkpt>
      <trkpt lat="61.46322" lon="5.30857">
        <ele>124.918386</ele>
        <time>2020-07-27T12:12:29.379Z</time>
      </trkpt>
      <trkpt lat="61.46318" lon="5.30874">
        <ele>124.077275</ele>
        <time>2020-07-27T12:12:30.394Z</time>
      </trkpt>
      <trkpt lat="61.46313" lon="5.30892">
        <ele>123.19404</ele>
        <time>2020-07-27T12:12:31.394Z</time>
      </trkpt>
      <trkpt lat="61.46308" lon="5.3091">
        <ele>122.339069</ele>
        <time>2020-07-27T12:12:32.369Z</time>
      </trkpt>
      <trkpt lat="61.46304" lon="5.30927">
        <ele>121.479203</ele>
        <time>2020-07-27T12:12:33.381Z</time>
      </trkpt>
      <trkpt lat="61.46299" lon="5.30947">
        <ele>120.577637</ele>
        <time>2020-07-27T12:12:34.381Z</time>
      </trkpt>
      <trkpt lat="61.46295" lon="5.30965">
        <ele>119.702968</ele>
        <time>2020-07-27T12:12:35.391Z</time>
      </trkpt>
      <trkpt lat="61.46292" lon="5.30985">
        <ele>118.787981</ele>
        <time>2020-07-27T12:12:36.378Z</time>
      </trkpt>
      <trkpt lat="61.46289" lon="5.31006">
        <ele>117.880606</ele>
        <time>2020-07-27T12:12:37.391Z</time>
      </trkpt>
      <trkpt lat="61.46285" lon="5.31029">
        <ele>116.843637</ele>
        <time>2020-07-27T12:12:38.377Z</time>
      </trkpt>
      <trkpt lat="61.46281" lon="5.31052">
        <ele>115.817485</ele>
        <time>2020-07-27T12:12:39.418Z</time>
      </trkpt>
      <trkpt lat="61.46278" lon="5.31078">
        <ele>114.687118</ele>
        <time>2020-07-27T12:12:40.387Z</time>
      </trkpt>
      <trkpt lat="61.46275" lon="5.31101">
        <ele>113.659438</ele>
        <time>2020-07-27T12:12:41.390Z</time>
      </trkpt>
      <trkpt lat="61.46272" lon="5.31124">
        <ele>112.649228</ele>
        <time>2020-07-27T12:12:42.413Z</time>
      </trkpt>
      <trkpt lat="61.46269" lon="5.31147">
        <ele>111.627485</ele>
        <time>2020-07-27T12:12:43.373Z</time>
      </trkpt>
      <trkpt lat="61.46265" lon="5.31171">
        <ele>110.554057</ele>
        <time>2020-07-27T12:12:44.398Z</time>
      </trkpt>
      <trkpt lat="61.46262" lon="5.31195">
        <ele>109.464852</ele>
        <time>2020-07-27T12:12:45.397Z</time>
      </trkpt>
      <trkpt lat="61.46259" lon="5.31219">
        <ele>108.390585</ele>
        <time>2020-07-27T12:12:46.371Z</time>
      </trkpt>
      <trkpt lat="61.46256" lon="5.31243">
        <ele>107.32158</ele>
        <time>2020-07-27T12:12:47.371Z</time>
      </trkpt>
      <trkpt lat="61.46252" lon="5.31266">
        <ele>106.252867</ele>
        <time>2020-07-27T12:12:48.366Z</time>
      </trkpt>
      <trkpt lat="61.46249" lon="5.31289">
        <ele>105.197822</ele>
        <time>2020-07-27T12:12:49.375Z</time>
      </trkpt>
      <trkpt lat="61.46245" lon="5.31313">
        <ele>104.106909</ele>
        <time>2020-07-27T12:12:50.396Z</time>
      </trkpt>
      <trkpt lat="61.46241" lon="5.31334">
        <ele>103.122361</ele>
        <time>2020-07-27T12:12:51.378Z</time>
      </trkpt>
      <trkpt lat="61.46238" lon="5.31355">
        <ele>102.154257</ele>
        <time>2020-07-27T12:12:52.379Z</time>
      </trkpt>
      <trkpt lat="61.46228" lon="5.31388">
        <ele>100.510049</ele>
        <time>2020-07-27T12:12:54.388Z</time>
      </trkpt>
      <trkpt lat="61.46222" lon="5.31405">
        <ele>99.548872</ele>
        <time>2020-07-27T12:12:55.367Z</time>
      </trkpt>
      <trkpt lat="61.46215" lon="5.31421">
        <ele>98.608898</ele>
        <time>2020-07-27T12:12:56.383Z</time>
      </trkpt>
      <trkpt lat="61.46207" lon="5.31439">
        <ele>97.564976</ele>
        <time>2020-07-27T12:12:57.394Z</time>
      </trkpt>
      <trkpt lat="61.462" lon="5.31455">
        <ele>96.621996</ele>
        <time>2020-07-27T12:12:58.388Z</time>
      </trkpt>
      <trkpt lat="61.46193" lon="5.31468">
        <ele>95.755855</ele>
        <time>2020-07-27T12:12:59.399Z</time>
      </trkpt>
      <trkpt lat="61.46186" lon="5.31483">
        <ele>94.820088</ele>
        <time>2020-07-27T12:13:00.378Z</time>
      </trkpt>
      <trkpt lat="61.46173" lon="5.31508">
        <ele>94.034365</ele>
        <time>2020-07-27T12:13:02.392Z</time>
      </trkpt>
      <trkpt lat="61.46166" lon="5.31522">
        <ele>93.750222</ele>
        <time>2020-07-27T12:13:03.372Z</time>
      </trkpt>
      <trkpt lat="61.46157" lon="5.31547">
        <ele>93.288276</ele>
        <time>2020-07-27T12:13:05.387Z</time>
      </trkpt>
      <trkpt lat="61.4615" lon="5.31569">
        <ele>92.913468</ele>
        <time>2020-07-27T12:13:07.386Z</time>
      </trkpt>
      <trkpt lat="61.46141" lon="5.31591">
        <ele>92.505759</ele>
        <time>2020-07-27T12:13:08.373Z</time>
      </trkpt>
      <trkpt lat="61.46133" lon="5.31616">
        <ele>92.064323</ele>
        <time>2020-07-27T12:13:10.366Z</time>
      </trkpt>
      <trkpt lat="61.46126" lon="5.31637">
        <ele>91.700948</ele>
        <time>2020-07-27T12:13:12.386Z</time>
      </trkpt>
      <trkpt lat="61.4612" lon="5.31656">
        <ele>91.372318</ele>
        <time>2020-07-27T12:13:14.387Z</time>
      </trkpt>
      <trkpt lat="61.46116" lon="5.31673">
        <ele>91.091221</ele>
        <time>2020-07-27T12:13:16.379Z</time>
      </trkpt>
      <trkpt lat="61.4611" lon="5.31693">
        <ele>90.76017</ele>
        <time>2020-07-27T12:13:19.368Z</time>
      </trkpt>
      <trkpt lat="61.46104" lon="5.31713">
        <ele>90.431925</ele>
        <time>2020-07-27T12:13:23.379Z</time>
      </trkpt>
      <trkpt lat="61.46099" lon="5.31733">
        <ele>90.099931</ele>
        <time>2020-07-27T12:13:28.383Z</time>
      </trkpt>
      <trkpt lat="61.46094" lon="5.31751">
        <ele>89.808412</ele>
        <time>2020-07-27T12:13:34.371Z</time>
      </trkpt>
      <trkpt lat="61.46089" lon="5.3177">
        <ele>89.480859</ele>
        <time>2020-07-27T12:13:39.391Z</time>
      </trkpt>
      <trkpt lat="61.46084" lon="5.31787">
        <ele>89.200614</ele>
        <time>2020-07-27T12:13:45.387Z</time>
      </trkpt>
      <trkpt lat="61.4608" lon="5.31806">
        <ele>88.959627</ele>
        <time>2020-07-27T12:13:51.376Z</time>
      </trkpt>
      <trkpt lat="61.46074" lon="5.31821">
        <ele>88.807245</ele>
        <time>2020-07-27T12:13:57.373Z</time>
      </trkpt>
      <trkpt lat="61.4607" lon="5.31841">
        <ele>88.64473</ele>
        <time>2020-07-27T12:14:04.377Z</time>
      </trkpt>
      <trkpt lat="61.46064" lon="5.31858">
        <ele>88.482667</ele>
        <time>2020-07-27T12:14:13.363Z</time>
      </trkpt>
      <trkpt lat="61.46059" lon="5.31877">
        <ele>88.320831</ele>
        <time>2020-07-27T12:14:17.378Z</time>
      </trkpt>
      <trkpt lat="61.46055" lon="5.31895">
        <ele>88.169357</ele>
        <time>2020-07-27T12:14:22.369Z</time>
      </trkpt>
      <trkpt lat="61.46049" lon="5.31912">
        <ele>88.008831</ele>
        <time>2020-07-27T12:14:28.418Z</time>
      </trkpt>
      <trkpt lat="61.46046" lon="5.31942">
        <ele>87.777093</ele>
        <time>2020-07-27T12:14:34.387Z</time>
      </trkpt>
      <trkpt lat="61.46041" lon="5.3196">
        <ele>87.623165</ele>
        <time>2020-07-27T12:14:38.373Z</time>
      </trkpt>
      <trkpt lat="61.46035" lon="5.31975">
        <ele>87.470472</ele>
        <time>2020-07-27T12:14:44.380Z</time>
      </trkpt>
      <trkpt lat="61.46029" lon="5.31991">
        <ele>87.316708</ele>
        <time>2020-07-27T12:14:47.375Z</time>
      </trkpt>
      <trkpt lat="61.46026" lon="5.3201">
        <ele>87.158488</ele>
        <time>2020-07-27T12:14:51.385Z</time>
      </trkpt>
      <trkpt lat="61.46022" lon="5.32029">
        <ele>87.008255</ele>
        <time>2020-07-27T12:14:55.376Z</time>
      </trkpt>
      <trkpt lat="61.46019" lon="5.32058">
        <ele>86.780552</ele>
        <time>2020-07-27T12:15:00.371Z</time>
      </trkpt>
      <trkpt lat="61.46014" lon="5.32082">
        <ele>86.579727</ele>
        <time>2020-07-27T12:15:04.380Z</time>
      </trkpt>
      <trkpt lat="61.46013" lon="5.32103">
        <ele>86.419083</ele>
        <time>2020-07-27T12:15:08.387Z</time>
      </trkpt>
      <trkpt lat="61.46014" lon="5.32124">
        <ele>86.259542</ele>
        <time>2020-07-27T12:15:12.385Z</time>
      </trkpt>
      <trkpt lat="61.46048" lon="5.32521">
        <ele>1.951789</ele>
        <time>2020-07-27T12:16:27.473Z</time>
      </trkpt>
      <trkpt lat="61.46003" lon="5.33162">
        <ele>-29.08748</ele>
        <time>2020-07-27T12:16:28.407Z</time>
      </trkpt>
      <trkpt lat="61.46009" lon="5.33188">
        <ele>-29.822595</ele>
        <time>2020-07-27T12:16:29.399Z</time>
      </trkpt>
      <trkpt lat="61.46022" lon="5.33218">
        <ele>-30.81128</ele>
        <time>2020-07-27T12:16:30.391Z</time>
      </trkpt>
      <trkpt lat="61.4603" lon="5.33244">
        <ele>-30.356446</ele>
        <time>2020-07-27T12:16:31.368Z</time>
      </trkpt>
      <trkpt lat="61.46044" lon="5.33272">
        <ele>-25.821142</ele>
        <time>2020-07-27T12:16:32.384Z</time>
      </trkpt>
      <trkpt lat="61.46055" lon="5.33299">
        <ele>-21.961255</ele>
        <time>2020-07-27T12:16:33.376Z</time>
      </trkpt>
      <trkpt lat="61.46068" lon="5.33328">
        <ele>-17.579837</ele>
        <time>2020-07-27T12:16:34.396Z</time>
      </trkpt>
      <trkpt lat="61.46076" lon="5.33355">
        <ele>-14.004784</ele>
        <time>2020-07-27T12:16:35.380Z</time>
      </trkpt>
      <trkpt lat="61.46087" lon="5.33385">
        <ele>-9.935876</ele>
        <time>2020-07-27T12:16:36.396Z</time>
      </trkpt>
      <trkpt lat="61.46091" lon="5.33409">
        <ele>-7.041897</ele>
        <time>2020-07-27T12:16:37.399Z</time>
      </trkpt>
      <trkpt lat="61.46094" lon="5.33432">
        <ele>-4.418834</ele>
        <time>2020-07-27T12:16:38.381Z</time>
      </trkpt>
      <trkpt lat="61.46097" lon="5.33453">
        <ele>-1.990962</ele>
        <time>2020-07-27T12:16:39.402Z</time>
      </trkpt>
      <trkpt lat="61.46099" lon="5.33475">
        <ele>0.505687</ele>
        <time>2020-07-27T12:16:40.377Z</time>
      </trkpt>
      <trkpt lat="61.46102" lon="5.33498">
        <ele>3.093519</ele>
        <time>2020-07-27T12:16:41.379Z</time>
      </trkpt>
      <trkpt lat="61.46105" lon="5.33518">
        <ele>5.396877</ele>
        <time>2020-07-27T12:16:42.510Z</time>
      </trkpt>
      <trkpt lat="61.46106" lon="5.33537">
        <ele>7.548354</ele>
        <time>2020-07-27T12:16:43.416Z</time>
      </trkpt>
      <trkpt lat="61.46106" lon="5.33557">
        <ele>9.65715</ele>
        <time>2020-07-27T12:16:44.392Z</time>
      </trkpt>
      <trkpt lat="61.46103" lon="5.33593">
        <ele>12.075314</ele>
        <time>2020-07-27T12:16:46.421Z</time>
      </trkpt>
      <trkpt lat="61.46101" lon="5.33611">
        <ele>13.167126</ele>
        <time>2020-07-27T12:16:47.410Z</time>
      </trkpt>
      <trkpt lat="61.46098" lon="5.3363">
        <ele>14.279143</ele>
        <time>2020-07-27T12:16:48.394Z</time>
      </trkpt>
      <trkpt lat="61.46096" lon="5.33648">
        <ele>15.386926</ele>
        <time>2020-07-27T12:16:49.411Z</time>
      </trkpt>
      <trkpt lat="61.46093" lon="5.33667">
        <ele>16.554235</ele>
        <time>2020-07-27T12:16:50.384Z</time>
      </trkpt>
      <trkpt lat="61.4609" lon="5.33686">
        <ele>17.719764</ele>
        <time>2020-07-27T12:16:51.420Z</time>
      </trkpt>
      <trkpt lat="61.46086" lon="5.33705">
        <ele>18.916712</ele>
        <time>2020-07-27T12:16:52.413Z</time>
      </trkpt>
      <trkpt lat="61.46083" lon="5.33724">
        <ele>20.103909</ele>
        <time>2020-07-27T12:16:53.402Z</time>
      </trkpt>
      <trkpt lat="61.46079" lon="5.33743">
        <ele>21.299838</ele>
        <time>2020-07-27T12:16:54.392Z</time>
      </trkpt>
      <trkpt lat="61.46076" lon="5.33763">
        <ele>22.510264</ele>
        <time>2020-07-27T12:16:55.391Z</time>
      </trkpt>
      <trkpt lat="61.46073" lon="5.33783">
        <ele>23.724158</ele>
        <time>2020-07-27T12:16:56.438Z</time>
      </trkpt>
      <trkpt lat="61.4607" lon="5.33804">
        <ele>24.982837</ele>
        <time>2020-07-27T12:16:57.390Z</time>
      </trkpt>
      <trkpt lat="61.46067" lon="5.33824">
        <ele>26.229702</ele>
        <time>2020-07-27T12:16:58.400Z</time>
      </trkpt>
      <trkpt lat="61.46064" lon="5.33845">
        <ele>27.490916</ele>
        <time>2020-07-27T12:16:59.403Z</time>
      </trkpt>
      <trkpt lat="61.46061" lon="5.33865">
        <ele>28.756429</ele>
        <time>2020-07-27T12:17:00.390Z</time>
      </trkpt>
      <trkpt lat="61.46058" lon="5.33886">
        <ele>30.016368</ele>
        <time>2020-07-27T12:17:01.371Z</time>
      </trkpt>
      <trkpt lat="61.46055" lon="5.33906">
        <ele>31.263239</ele>
        <time>2020-07-27T12:17:02.423Z</time>
      </trkpt>
      <trkpt lat="61.46052" lon="5.33926">
        <ele>32.452645</ele>
        <time>2020-07-27T12:17:03.389Z</time>
      </trkpt>
      <trkpt lat="61.46049" lon="5.33945">
        <ele>33.516579</ele>
        <time>2020-07-27T12:17:04.434Z</time>
      </trkpt>
      <trkpt lat="61.46047" lon="5.33963">
        <ele>34.555647</ele>
        <time>2020-07-27T12:17:05.390Z</time>
      </trkpt>
      <trkpt lat="61.46044" lon="5.33981">
        <ele>35.594488</ele>
        <time>2020-07-27T12:17:06.384Z</time>
      </trkpt>
      <trkpt lat="61.46039" lon="5.34014">
        <ele>37.513094</ele>
        <time>2020-07-27T12:17:08.391Z</time>
      </trkpt>
      <trkpt lat="61.46036" lon="5.34042">
        <ele>39.107449</ele>
        <time>2020-07-27T12:17:10.393Z</time>
      </trkpt>
      <trkpt lat="61.46033" lon="5.34064">
        <ele>40.307396</ele>
        <time>2020-07-27T12:17:12.419Z</time>
      </trkpt>
      <trkpt lat="61.46029" lon="5.3409">
        <ele>41.832423</ele>
        <time>2020-07-27T12:17:15.370Z</time>
      </trkpt>
      <trkpt lat="61.46027" lon="5.34109">
        <ele>42.947192</ele>
        <time>2020-07-27T12:17:17.398Z</time>
      </trkpt>
      <trkpt lat="61.46024" lon="5.34129">
        <ele>44.08227</ele>
        <time>2020-07-27T12:17:19.368Z</time>
      </trkpt>
      <trkpt lat="61.46021" lon="5.3415">
        <ele>45.287467</ele>
        <time>2020-07-27T12:17:21.379Z</time>
      </trkpt>
      <trkpt lat="61.46018" lon="5.34174">
        <ele>46.622409</ele>
        <time>2020-07-27T12:17:23.388Z</time>
      </trkpt>
      <trkpt lat="61.46015" lon="5.34199">
        <ele>48.060411</ele>
        <time>2020-07-27T12:17:25.402Z</time>
      </trkpt>
      <trkpt lat="61.46013" lon="5.34225">
        <ele>49.533875</ele>
        <time>2020-07-27T12:17:27.408Z</time>
      </trkpt>
      <trkpt lat="61.46011" lon="5.34251">
        <ele>50.954977</ele>
        <time>2020-07-27T12:17:29.395Z</time>
      </trkpt>
      <trkpt lat="61.46009" lon="5.34276">
        <ele>52.332957</ele>
        <time>2020-07-27T12:17:31.377Z</time>
      </trkpt>
      <trkpt lat="61.46008" lon="5.34298">
        <ele>53.124749</ele>
        <time>2020-07-27T12:17:33.371Z</time>
      </trkpt>
      <trkpt lat="61.46007" lon="5.34318">
        <ele>53.523936</ele>
        <time>2020-07-27T12:17:35.381Z</time>
      </trkpt>
      <trkpt lat="61.46008" lon="5.34345">
        <ele>54.060095</ele>
        <time>2020-07-27T12:17:38.390Z</time>
      </trkpt>
      <trkpt lat="61.46008" lon="5.3437">
        <ele>54.546244</ele>
        <time>2020-07-27T12:17:41.391Z</time>
      </trkpt>
      <trkpt lat="61.46009" lon="5.34393">
        <ele>55.014397</ele>
        <time>2020-07-27T12:17:44.390Z</time>
      </trkpt>
      <trkpt lat="61.4601" lon="5.34412">
        <ele>55.388573</ele>
        <time>2020-07-27T12:17:46.388Z</time>
      </trkpt>
      <trkpt lat="61.4601" lon="5.34433">
        <ele>55.809262</ele>
        <time>2020-07-27T12:17:48.377Z</time>
      </trkpt>
      <trkpt lat="61.4601" lon="5.34458">
        <ele>56.301802</ele>
        <time>2020-07-27T12:17:50.385Z</time>
      </trkpt>
      <trkpt lat="61.46011" lon="5.34485">
        <ele>56.84167</ele>
        <time>2020-07-27T12:17:52.401Z</time>
      </trkpt>
      <trkpt lat="61.46011" lon="5.34517">
        <ele>57.461267</ele>
        <time>2020-07-27T12:17:54.370Z</time>
      </trkpt>
      <trkpt lat="61.46012" lon="5.34552">
        <ele>58.173689</ele>
        <time>2020-07-27T12:17:56.385Z</time>
      </trkpt>
      <trkpt lat="61.46012" lon="5.34571">
        <ele>58.550725</ele>
        <time>2020-07-27T12:17:57.376Z</time>
      </trkpt>
      <trkpt lat="61.46012" lon="5.34591">
        <ele>58.936034</ele>
        <time>2020-07-27T12:17:58.387Z</time>
      </trkpt>
      <trkpt lat="61.46011" lon="5.34611">
        <ele>59.335415</ele>
        <time>2020-07-27T12:17:59.408Z</time>
      </trkpt>
      <trkpt lat="61.4601" lon="5.34631">
        <ele>59.740807</ele>
        <time>2020-07-27T12:18:00.391Z</time>
      </trkpt>
      <trkpt lat="61.46008" lon="5.34652">
        <ele>60.151273</ele>
        <time>2020-07-27T12:18:01.393Z</time>
      </trkpt>
      <trkpt lat="61.46006" lon="5.34672">
        <ele>60.116379</ele>
        <time>2020-07-27T12:18:02.421Z</time>
      </trkpt>
      <trkpt lat="61.46003" lon="5.34692">
        <ele>59.747433</ele>
        <time>2020-07-27T12:18:03.410Z</time>
      </trkpt>
      <trkpt lat="61.46" lon="5.34713">
        <ele>59.382186</ele>
        <time>2020-07-27T12:18:04.394Z</time>
      </trkpt>
      <trkpt lat="61.45998" lon="5.34732">
        <ele>59.021967</ele>
        <time>2020-07-27T12:18:05.388Z</time>
      </trkpt>
      <trkpt lat="61.45995" lon="5.34752">
        <ele>58.673457</ele>
        <time>2020-07-27T12:18:06.374Z</time>
      </trkpt>
      <trkpt lat="61.45992" lon="5.34771">
        <ele>58.321132</ele>
        <time>2020-07-27T12:18:07.391Z</time>
      </trkpt>
      <trkpt lat="61.4599" lon="5.3479">
        <ele>57.983206</ele>
        <time>2020-07-27T12:18:08.363Z</time>
      </trkpt>
      <trkpt lat="61.45988" lon="5.34808">
        <ele>57.652926</ele>
        <time>2020-07-27T12:18:09.396Z</time>
      </trkpt>
      <trkpt lat="61.45986" lon="5.34827">
        <ele>57.324173</ele>
        <time>2020-07-27T12:18:10.380Z</time>
      </trkpt>
      <trkpt lat="61.45985" lon="5.34863">
        <ele>56.687986</ele>
        <time>2020-07-27T12:18:12.406Z</time>
      </trkpt>
      <trkpt lat="61.45985" lon="5.34898">
        <ele>56.090708</ele>
        <time>2020-07-27T12:18:14.407Z</time>
      </trkpt>
      <trkpt lat="61.45985" lon="5.34929">
        <ele>55.543502</ele>
        <time>2020-07-27T12:18:16.373Z</time>
      </trkpt>
      <trkpt lat="61.45986" lon="5.34957">
        <ele>55.052239</ele>
        <time>2020-07-27T12:18:18.369Z</time>
      </trkpt>
      <trkpt lat="61.45986" lon="5.34984">
        <ele>54.585442</ele>
        <time>2020-07-27T12:18:20.401Z</time>
      </trkpt>
      <trkpt lat="61.45988" lon="5.35012">
        <ele>54.086173</ele>
        <time>2020-07-27T12:18:22.387Z</time>
      </trkpt>
      <trkpt lat="61.45991" lon="5.35041">
        <ele>53.89494</ele>
        <time>2020-07-27T12:18:24.372Z</time>
      </trkpt>
      <trkpt lat="61.45992" lon="5.3507">
        <ele>54.20625</ele>
        <time>2020-07-27T12:18:26.402Z</time>
      </trkpt>
      <trkpt lat="61.45994" lon="5.35098">
        <ele>54.50692</ele>
        <time>2020-07-27T12:18:28.371Z</time>
      </trkpt>
      <trkpt lat="61.45995" lon="5.35126">
        <ele>54.80487</ele>
        <time>2020-07-27T12:18:30.392Z</time>
      </trkpt>
      <trkpt lat="61.45996" lon="5.35152">
        <ele>55.085971</ele>
        <time>2020-07-27T12:18:32.368Z</time>
      </trkpt>
      <trkpt lat="61.45996" lon="5.35177">
        <ele>55.354237</ele>
        <time>2020-07-27T12:18:34.389Z</time>
      </trkpt>
      <trkpt lat="61.45998" lon="5.35199">
        <ele>55.597363</ele>
        <time>2020-07-27T12:18:36.384Z</time>
      </trkpt>
      <trkpt lat="61.46" lon="5.35222">
        <ele>55.841966</ele>
        <time>2020-07-27T12:18:38.388Z</time>
      </trkpt>
      <trkpt lat="61.46002" lon="5.35244">
        <ele>56.084287</ele>
        <time>2020-07-27T12:18:40.374Z</time>
      </trkpt>
      <trkpt lat="61.46004" lon="5.35265">
        <ele>56.314642</ele>
        <time>2020-07-27T12:18:42.431Z</time>
      </trkpt>
      <trkpt lat="61.46008" lon="5.35284">
        <ele>56.529865</ele>
        <time>2020-07-27T12:18:44.371Z</time>
      </trkpt>
      <trkpt lat="61.46013" lon="5.35308">
        <ele>56.80872</ele>
        <time>2020-07-27T12:18:47.384Z</time>
      </trkpt>
      <trkpt lat="61.46018" lon="5.35327">
        <ele>57.034413</ele>
        <time>2020-07-27T12:18:50.406Z</time>
      </trkpt>
      <trkpt lat="61.46021" lon="5.35346">
        <ele>57.261335</ele>
        <time>2020-07-27T12:18:54.379Z</time>
      </trkpt>
      <trkpt lat="61.46025" lon="5.35365">
        <ele>57.476671</ele>
        <time>2020-07-27T12:18:59.388Z</time>
      </trkpt>
      <trkpt lat="61.46029" lon="5.35382">
        <ele>57.680419</ele>
        <time>2020-07-27T12:19:04.391Z</time>
      </trkpt>
      <trkpt lat="61.46032" lon="5.35402">
        <ele>58.120029</ele>
        <time>2020-07-27T12:19:10.366Z</time>
      </trkpt>
      <trkpt lat="61.46035" lon="5.3542">
        <ele>58.774414</ele>
        <time>2020-07-27T12:19:15.390Z</time>
      </trkpt>
      <trkpt lat="61.46039" lon="5.35439">
        <ele>59.489483</ele>
        <time>2020-07-27T12:19:21.414Z</time>
      </trkpt>
      <trkpt lat="61.46041" lon="5.35459">
        <ele>60.168676</ele>
        <time>2020-07-27T12:19:27.378Z</time>
      </trkpt>
      <trkpt lat="61.46043" lon="5.35478">
        <ele>60.832147</ele>
        <time>2020-07-27T12:19:33.410Z</time>
      </trkpt>
      <trkpt lat="61.46044" lon="5.35497">
        <ele>61.491362</ele>
        <time>2020-07-27T12:19:39.383Z</time>
      </trkpt>
      <trkpt lat="61.46046" lon="5.35519">
        <ele>62.243096</ele>
        <time>2020-07-27T12:19:46.403Z</time>
      </trkpt>
      <trkpt lat="61.46048" lon="5.3554">
        <ele>62.945136</ele>
        <time>2020-07-27T12:19:52.383Z</time>
      </trkpt>
      <trkpt lat="61.46048" lon="5.3556">
        <ele>63.625934</ele>
        <time>2020-07-27T12:19:58.390Z</time>
      </trkpt>
      <trkpt lat="61.46047" lon="5.35581">
        <ele>64.366487</ele>
        <time>2020-07-27T12:20:05.410Z</time>
      </trkpt>
      <trkpt lat="61.46048" lon="5.35603">
        <ele>65.098147</ele>
        <time>2020-07-27T12:20:11.397Z</time>
      </trkpt>
      <trkpt lat="61.46048" lon="5.35622">
        <ele>65.746045</ele>
        <time>2020-07-27T12:20:17.418Z</time>
      </trkpt>
      <trkpt lat="61.4605" lon="5.35642">
        <ele>66.432887</ele>
        <time>2020-07-27T12:20:23.389Z</time>
      </trkpt>
      <trkpt lat="61.46048" lon="5.35661">
        <ele>67.096356</ele>
        <time>2020-07-27T12:20:29.399Z</time>
      </trkpt>
      <trkpt lat="61.46049" lon="5.3568">
        <ele>67.740423</ele>
        <time>2020-07-27T12:20:35.390Z</time>
      </trkpt>
      <trkpt lat="61.46049" lon="5.357">
        <ele>68.418427</ele>
        <time>2020-07-27T12:20:41.370Z</time>
      </trkpt>
      <trkpt lat="61.4605" lon="5.3572">
        <ele>69.097172</ele>
        <time>2020-07-27T12:20:48.397Z</time>
      </trkpt>
      <trkpt lat="61.4605" lon="5.35742">
        <ele>69.832709</ele>
        <time>2020-07-27T12:20:55.388Z</time>
      </trkpt>
      <trkpt lat="61.46049" lon="5.35761">
        <ele>70.478744</ele>
        <time>2020-07-27T12:21:01.374Z</time>
      </trkpt>
      <trkpt lat="61.46049" lon="5.35781">
        <ele>70.905627</ele>
        <time>2020-07-27T12:21:07.383Z</time>
      </trkpt>
      <trkpt lat="61.46049" lon="5.35803">
        <ele>71.343272</ele>
        <time>2020-07-27T12:21:14.394Z</time>
      </trkpt>
      <trkpt lat="61.4605" lon="5.35824">
        <ele>71.770417</ele>
        <time>2020-07-27T12:21:20.394Z</time>
      </trkpt>
      <trkpt lat="61.46051" lon="5.35847">
        <ele>72.214712</ele>
        <time>2020-07-27T12:21:27.395Z</time>
      </trkpt>
      <trkpt lat="61.46052" lon="5.35866">
        <ele>72.608792</ele>
        <time>2020-07-27T12:21:33.393Z</time>
      </trkpt>
      <trkpt lat="61.46052" lon="5.35889">
        <ele>73.052873</ele>
        <time>2020-07-27T12:21:39.378Z</time>
      </trkpt>
      <trkpt lat="61.46053" lon="5.3591">
        <ele>73.473337</ele>
        <time>2020-07-27T12:21:45.396Z</time>
      </trkpt>
      <trkpt lat="61.46055" lon="5.3593">
        <ele>73.895168</ele>
        <time>2020-07-27T12:21:51.371Z</time>
      </trkpt>
      <trkpt lat="61.46054" lon="5.35949">
        <ele>74.27299</ele>
        <time>2020-07-27T12:21:56.382Z</time>
      </trkpt>
      <trkpt lat="61.46054" lon="5.35969">
        <ele>74.666874</ele>
        <time>2020-07-27T12:22:01.375Z</time>
      </trkpt>
      <trkpt lat="61.46054" lon="5.35989">
        <ele>75.06878</ele>
        <time>2020-07-27T12:22:06.383Z</time>
      </trkpt>
      <trkpt lat="61.46054" lon="5.36012">
        <ele>75.524308</ele>
        <time>2020-07-27T12:22:11.406Z</time>
      </trkpt>
      <trkpt lat="61.46054" lon="5.36032">
        <ele>75.91872</ele>
        <time>2020-07-27T12:22:15.408Z</time>
      </trkpt>
      <trkpt lat="61.46055" lon="5.36055">
        <ele>76.373194</ele>
        <time>2020-07-27T12:22:19.386Z</time>
      </trkpt>
      <trkpt lat="61.46055" lon="5.36075">
        <ele>76.767606</ele>
        <time>2020-07-27T12:22:22.393Z</time>
      </trkpt>
      <trkpt lat="61.46055" lon="5.36101">
        <ele>77.300858</ele>
        <time>2020-07-27T12:22:25.375Z</time>
      </trkpt>
      <trkpt lat="61.46055" lon="5.36121">
        <ele>77.698895</ele>
        <time>2020-07-27T12:22:27.380Z</time>
      </trkpt>
      <trkpt lat="61.46056" lon="5.36143">
        <ele>77.966295</ele>
        <time>2020-07-27T12:22:29.396Z</time>
      </trkpt>
      <trkpt lat="61.46057" lon="5.36166">
        <ele>77.62425</ele>
        <time>2020-07-27T12:22:31.388Z</time>
      </trkpt>
      <trkpt lat="61.46058" lon="5.36189">
        <ele>77.280706</ele>
        <time>2020-07-27T12:22:33.385Z</time>
      </trkpt>
      <trkpt lat="61.46058" lon="5.36212">
        <ele>76.933448</ele>
        <time>2020-07-27T12:22:35.390Z</time>
      </trkpt>
      <trkpt lat="61.46058" lon="5.36233">
        <ele>76.608723</ele>
        <time>2020-07-27T12:22:37.412Z</time>
      </trkpt>
      <trkpt lat="61.46059" lon="5.36254">
        <ele>76.291508</ele>
        <time>2020-07-27T12:22:39.385Z</time>
      </trkpt>
      <trkpt lat="61.46059" lon="5.36275">
        <ele>75.978167</ele>
        <time>2020-07-27T12:22:41.375Z</time>
      </trkpt>
      <trkpt lat="61.4606" lon="5.36296">
        <ele>75.671466</ele>
        <time>2020-07-27T12:22:43.369Z</time>
      </trkpt>
      <trkpt lat="61.4606" lon="5.36314">
        <ele>75.387434</ele>
        <time>2020-07-27T12:22:45.377Z</time>
      </trkpt>
      <trkpt lat="61.4606" lon="5.36334">
        <ele>75.089745</ele>
        <time>2020-07-27T12:22:47.383Z</time>
      </trkpt>
      <trkpt lat="61.4606" lon="5.36353">
        <ele>74.804072</ele>
        <time>2020-07-27T12:22:49.421Z</time>
      </trkpt>
      <trkpt lat="61.46059" lon="5.3638">
        <ele>74.404149</ele>
        <time>2020-07-27T12:22:52.411Z</time>
      </trkpt>
      <trkpt lat="61.46058" lon="5.36404">
        <ele>74.040032</ele>
        <time>2020-07-27T12:22:55.371Z</time>
      </trkpt>
      <trkpt lat="61.46057" lon="5.3643">
        <ele>73.642304</ele>
        <time>2020-07-27T12:22:58.370Z</time>
      </trkpt>
      <trkpt lat="61.46055" lon="5.36458">
        <ele>73.22573</ele>
        <time>2020-07-27T12:23:01.379Z</time>
      </trkpt>
      <trkpt lat="61.46053" lon="5.36485">
        <ele>72.805245</ele>
        <time>2020-07-27T12:23:04.373Z</time>
      </trkpt>
      <trkpt lat="61.4605" lon="5.36511">
        <ele>72.403127</ele>
        <time>2020-07-27T12:23:07.401Z</time>
      </trkpt>
      <trkpt lat="61.46047" lon="5.36537">
        <ele>72.388889</ele>
        <time>2020-07-27T12:23:10.374Z</time>
      </trkpt>
      <trkpt lat="61.46044" lon="5.36563">
        <ele>72.398128</ele>
        <time>2020-07-27T12:23:13.381Z</time>
      </trkpt>
      <trkpt lat="61.46042" lon="5.36582">
        <ele>72.404741</ele>
        <time>2020-07-27T12:23:15.407Z</time>
      </trkpt>
      <trkpt lat="61.46039" lon="5.36609">
        <ele>72.414181</ele>
        <time>2020-07-27T12:23:18.386Z</time>
      </trkpt>
      <trkpt lat="61.46036" lon="5.36636">
        <ele>72.423438</ele>
        <time>2020-07-27T12:23:21.390Z</time>
      </trkpt>
      <trkpt lat="61.46033" lon="5.36662">
        <ele>72.43276</ele>
        <time>2020-07-27T12:23:24.363Z</time>
      </trkpt>
      <trkpt lat="61.4603" lon="5.36689">
        <ele>72.442199</ele>
        <time>2020-07-27T12:23:27.401Z</time>
      </trkpt>
      <trkpt lat="61.46028" lon="5.36717">
        <ele>72.451739</ele>
        <time>2020-07-27T12:23:30.367Z</time>
      </trkpt>
      <trkpt lat="61.46026" lon="5.36735">
        <ele>72.458171</ele>
        <time>2020-07-27T12:23:32.384Z</time>
      </trkpt>
      <trkpt lat="61.46024" lon="5.36754">
        <ele>72.464661</ele>
        <time>2020-07-27T12:23:34.402Z</time>
      </trkpt>
      <trkpt lat="61.46023" lon="5.3678">
        <ele>72.473729</ele>
        <time>2020-07-27T12:23:37.381Z</time>
      </trkpt>
      <trkpt lat="61.46021" lon="5.36804">
        <ele>72.482117</ele>
        <time>2020-07-27T12:23:40.383Z</time>
      </trkpt>
      <trkpt lat="61.46021" lon="5.36828">
        <ele>72.490048</ele>
        <time>2020-07-27T12:23:43.383Z</time>
      </trkpt>
      <trkpt lat="61.4602" lon="5.36851">
        <ele>72.498127</ele>
        <time>2020-07-27T12:23:46.385Z</time>
      </trkpt>
      <trkpt lat="61.4602" lon="5.36872">
        <ele>72.505336</ele>
        <time>2020-07-27T12:23:49.372Z</time>
      </trkpt>
      <trkpt lat="61.4602" lon="5.36891">
        <ele>72.6787</ele>
        <time>2020-07-27T12:23:52.398Z</time>
      </trkpt>
      <trkpt lat="61.4602" lon="5.36916">
        <ele>73.184298</ele>
        <time>2020-07-27T12:23:56.395Z</time>
      </trkpt>
      <trkpt lat="61.46019" lon="5.36939">
        <ele>73.666444</ele>
        <time>2020-07-27T12:24:00.380Z</time>
      </trkpt>
      <trkpt lat="61.46019" lon="5.36962">
        <ele>74.137164</ele>
        <time>2020-07-27T12:24:04.418Z</time>
      </trkpt>
      <trkpt lat="61.46019" lon="5.36984">
        <ele>74.583474</ele>
        <time>2020-07-27T12:24:08.393Z</time>
      </trkpt>
      <trkpt lat="61.46019" lon="5.37006">
        <ele>75.033892</ele>
        <time>2020-07-27T12:24:12.411Z</time>
      </trkpt>
      <trkpt lat="61.46019" lon="5.37028">
        <ele>75.496332</ele>
        <time>2020-07-27T12:24:16.379Z</time>
      </trkpt>
      <trkpt lat="61.4602" lon="5.37051">
        <ele>75.963667</ele>
        <time>2020-07-27T12:24:20.383Z</time>
      </trkpt>
      <trkpt lat="61.46021" lon="5.37073">
        <ele>76.428858</ele>
        <time>2020-07-27T12:24:24.392Z</time>
      </trkpt>
      <trkpt lat="61.46022" lon="5.37096">
        <ele>76.892607</ele>
        <time>2020-07-27T12:24:28.411Z</time>
      </trkpt>
      <trkpt lat="61.46023" lon="5.37117">
        <ele>77.327298</ele>
        <time>2020-07-27T12:24:32.378Z</time>
      </trkpt>
      <trkpt lat="61.46023" lon="5.37139">
        <ele>77.774291</ele>
        <time>2020-07-27T12:24:36.386Z</time>
      </trkpt>
      <trkpt lat="61.46024" lon="5.37161">
        <ele>78.231275</ele>
        <time>2020-07-27T12:24:40.396Z</time>
      </trkpt>
      <trkpt lat="61.46025" lon="5.37184">
        <ele>78.715056</ele>
        <time>2020-07-27T12:24:44.414Z</time>
      </trkpt>
      <trkpt lat="61.46026" lon="5.37206">
        <ele>79.171287</ele>
        <time>2020-07-27T12:24:48.392Z</time>
      </trkpt>
      <trkpt lat="61.46027" lon="5.37225">
        <ele>79.562934</ele>
        <time>2020-07-27T12:24:52.368Z</time>
      </trkpt>
      <trkpt lat="61.46027" lon="5.37245">
        <ele>79.972121</ele>
        <time>2020-07-27T12:24:56.407Z</time>
      </trkpt>
      <trkpt lat="61.46028" lon="5.37269">
        <ele>80.331206</ele>
        <time>2020-07-27T12:25:01.398Z</time>
      </trkpt>
      <trkpt lat="61.4603" lon="5.3729">
        <ele>80.505528</ele>
        <time>2020-07-27T12:25:05.371Z</time>
      </trkpt>
      <trkpt lat="61.46031" lon="5.37311">
        <ele>80.680791</ele>
        <time>2020-07-27T12:25:09.428Z</time>
      </trkpt>
      <trkpt lat="61.46032" lon="5.37334">
        <ele>80.862335</ele>
        <time>2020-07-27T12:25:13.386Z</time>
      </trkpt>
      <trkpt lat="61.46033" lon="5.37352">
        <ele>81.015491</ele>
        <time>2020-07-27T12:25:17.398Z</time>
      </trkpt>
      <trkpt lat="61.46034" lon="5.37374">
        <ele>81.189138</ele>
        <time>2020-07-27T12:25:21.366Z</time>
      </trkpt>
      <trkpt lat="61.46035" lon="5.37395">
        <ele>81.362927</ele>
        <time>2020-07-27T12:25:25.414Z</time>
      </trkpt>
      <trkpt lat="61.46036" lon="5.37417">
        <ele>81.541874</ele>
        <time>2020-07-27T12:25:29.421Z</time>
      </trkpt>
      <trkpt lat="61.46036" lon="5.37436">
        <ele>81.697243</ele>
        <time>2020-07-27T12:25:32.394Z</time>
      </trkpt>
      <trkpt lat="61.46036" lon="5.37457">
        <ele>81.868065</ele>
        <time>2020-07-27T12:25:35.376Z</time>
      </trkpt>
      <trkpt lat="61.46036" lon="5.3748">
        <ele>82.055961</ele>
        <time>2020-07-27T12:25:38.374Z</time>
      </trkpt>
      <trkpt lat="61.46036" lon="5.37504">
        <ele>82.251991</ele>
        <time>2020-07-27T12:25:41.391Z</time>
      </trkpt>
      <trkpt lat="61.46035" lon="5.37528">
        <ele>82.448493</ele>
        <time>2020-07-27T12:25:44.375Z</time>
      </trkpt>
      <trkpt lat="61.46033" lon="5.37551">
        <ele>82.638922</ele>
        <time>2020-07-27T12:25:47.381Z</time>
      </trkpt>
      <trkpt lat="61.46031" lon="5.37575">
        <ele>82.830679</ele>
        <time>2020-07-27T12:25:50.373Z</time>
      </trkpt>
      <trkpt lat="61.46029" lon="5.37596">
        <ele>83.011913</ele>
        <time>2020-07-27T12:25:53.389Z</time>
      </trkpt>
      <trkpt lat="61.46027" lon="5.37619">
        <ele>83.200997</ele>
        <time>2020-07-27T12:25:56.376Z</time>
      </trkpt>
      <trkpt lat="61.46024" lon="5.37641">
        <ele>83.266011</ele>
        <time>2020-07-27T12:25:59.379Z</time>
      </trkpt>
      <trkpt lat="61.4602" lon="5.37666">
        <ele>83.153924</ele>
        <time>2020-07-27T12:26:02.403Z</time>
      </trkpt>
      <trkpt lat="61.46017" lon="5.37691">
        <ele>83.037279</ele>
        <time>2020-07-27T12:26:05.398Z</time>
      </trkpt>
      <trkpt lat="61.46013" lon="5.37715">
        <ele>82.925522</ele>
        <time>2020-07-27T12:26:08.395Z</time>
      </trkpt>
      <trkpt lat="61.4601" lon="5.3774">
        <ele>82.812832</ele>
        <time>2020-07-27T12:26:11.378Z</time>
      </trkpt>
      <trkpt lat="61.46007" lon="5.37764">
        <ele>82.705731</ele>
        <time>2020-07-27T12:26:14.375Z</time>
      </trkpt>
      <trkpt lat="61.46003" lon="5.37789">
        <ele>82.591232</ele>
        <time>2020-07-27T12:26:17.383Z</time>
      </trkpt>
      <trkpt lat="61.45999" lon="5.37813">
        <ele>82.478788</ele>
        <time>2020-07-27T12:26:20.379Z</time>
      </trkpt>
      <trkpt lat="61.45996" lon="5.37837">
        <ele>82.369394</ele>
        <time>2020-07-27T12:26:23.381Z</time>
      </trkpt>
      <trkpt lat="61.45993" lon="5.37862">
        <ele>82.258242</ele>
        <time>2020-07-27T12:26:26.391Z</time>
      </trkpt>
      <trkpt lat="61.4599" lon="5.37885">
        <ele>82.14831</ele>
        <time>2020-07-27T12:26:29.382Z</time>
      </trkpt>
      <trkpt lat="61.45987" lon="5.37908">
        <ele>82.044835</ele>
        <time>2020-07-27T12:26:32.428Z</time>
      </trkpt>
      <trkpt lat="61.45984" lon="5.37931">
        <ele>81.939907</ele>
        <time>2020-07-27T12:26:35.395Z</time>
      </trkpt>
      <trkpt lat="61.4598" lon="5.37957">
        <ele>81.82419</ele>
        <time>2020-07-27T12:26:38.376Z</time>
      </trkpt>
      <trkpt lat="61.45977" lon="5.37982">
        <ele>81.711007</ele>
        <time>2020-07-27T12:26:41.396Z</time>
      </trkpt>
      <trkpt lat="61.45974" lon="5.38008">
        <ele>81.265794</ele>
        <time>2020-07-27T12:26:44.415Z</time>
      </trkpt>
      <trkpt lat="61.45971" lon="5.38035">
        <ele>80.530706</ele>
        <time>2020-07-27T12:26:47.381Z</time>
      </trkpt>
      <trkpt lat="61.45969" lon="5.38054">
        <ele>80.005535</ele>
        <time>2020-07-27T12:26:49.386Z</time>
      </trkpt>
      <trkpt lat="61.45968" lon="5.38074">
        <ele>79.459752</ele>
        <time>2020-07-27T12:26:51.378Z</time>
      </trkpt>
      <trkpt lat="61.45966" lon="5.38094">
        <ele>78.898198</ele>
        <time>2020-07-27T12:26:53.378Z</time>
      </trkpt>
      <trkpt lat="61.45963" lon="5.38114">
        <ele>78.355023</ele>
        <time>2020-07-27T12:26:55.406Z</time>
      </trkpt>
      <trkpt lat="61.45962" lon="5.38134">
        <ele>77.800376</ele>
        <time>2020-07-27T12:26:57.400Z</time>
      </trkpt>
      <trkpt lat="61.4596" lon="5.38154">
        <ele>77.257234</ele>
        <time>2020-07-27T12:26:59.369Z</time>
      </trkpt>
      <trkpt lat="61.45959" lon="5.38176">
        <ele>76.662777</ele>
        <time>2020-07-27T12:27:01.429Z</time>
      </trkpt>
      <trkpt lat="61.45956" lon="5.38199">
        <ele>76.050522</ele>
        <time>2020-07-27T12:27:03.428Z</time>
      </trkpt>
      <trkpt lat="61.45954" lon="5.3822">
        <ele>75.453934</ele>
        <time>2020-07-27T12:27:05.380Z</time>
      </trkpt>
      <trkpt lat="61.4595" lon="5.38242">
        <ele>74.84143</ele>
        <time>2020-07-27T12:27:07.398Z</time>
      </trkpt>
      <trkpt lat="61.45947" lon="5.38263">
        <ele>74.256145</ele>
        <time>2020-07-27T12:27:09.376Z</time>
      </trkpt>
      <trkpt lat="61.45944" lon="5.38283">
        <ele>73.699529</ele>
        <time>2020-07-27T12:27:11.377Z</time>
      </trkpt>
      <trkpt lat="61.45941" lon="5.383">
        <ele>73.188133</ele>
        <time>2020-07-27T12:27:13.395Z</time>
      </trkpt>
      <trkpt lat="61.45935" lon="5.38324">
        <ele>72.482355</ele>
        <time>2020-07-27T12:27:16.386Z</time>
      </trkpt>
      <trkpt lat="61.45929" lon="5.38346">
        <ele>71.806995</ele>
        <time>2020-07-27T12:27:19.373Z</time>
      </trkpt>
      <trkpt lat="61.45924" lon="5.38367">
        <ele>71.639213</ele>
        <time>2020-07-27T12:27:22.383Z</time>
      </trkpt>
      <trkpt lat="61.45919" lon="5.38386">
        <ele>71.732916</ele>
        <time>2020-07-27T12:27:25.412Z</time>
      </trkpt>
      <trkpt lat="61.45914" lon="5.38404">
        <ele>71.822778</ele>
        <time>2020-07-27T12:27:28.407Z</time>
      </trkpt>
      <trkpt lat="61.45908" lon="5.38424">
        <ele>71.927923</ele>
        <time>2020-07-27T12:27:32.396Z</time>
      </trkpt>
      <trkpt lat="61.45903" lon="5.38444">
        <ele>72.02399</ele>
        <time>2020-07-27T12:27:37.398Z</time>
      </trkpt>
      <trkpt lat="61.45898" lon="5.38463">
        <ele>72.120489</ele>
        <time>2020-07-27T12:27:42.386Z</time>
      </trkpt>
      <trkpt lat="61.45893" lon="5.38483">
        <ele>72.218253</ele>
        <time>2020-07-27T12:27:47.417Z</time>
      </trkpt>
      <trkpt lat="61.45888" lon="5.38502">
        <ele>72.315043</ele>
        <time>2020-07-27T12:27:53.380Z</time>
      </trkpt>
      <trkpt lat="61.45884" lon="5.3852">
        <ele>72.402739</ele>
        <time>2020-07-27T12:27:59.372Z</time>
      </trkpt>
      <trkpt lat="61.45879" lon="5.38538">
        <ele>72.492602</ele>
        <time>2020-07-27T12:28:05.390Z</time>
      </trkpt>
      <trkpt lat="61.45874" lon="5.38557">
        <ele>72.589222</ele>
        <time>2020-07-27T12:28:11.385Z</time>
      </trkpt>
      <trkpt lat="61.4587" lon="5.38577">
        <ele>72.686002</ele>
        <time>2020-07-27T12:28:17.392Z</time>
      </trkpt>
      <trkpt lat="61.45865" lon="5.38594">
        <ele>72.768038</ele>
        <time>2020-07-27T12:28:22.408Z</time>
      </trkpt>
      <trkpt lat="61.4586" lon="5.38612">
        <ele>72.860971</ele>
        <time>2020-07-27T12:28:28.426Z</time>
      </trkpt>
      <trkpt lat="61.45856" lon="5.3863">
        <ele>72.947122</ele>
        <time>2020-07-27T12:28:34.385Z</time>
      </trkpt>
      <trkpt lat="61.45852" lon="5.38648">
        <ele>73.036795</ele>
        <time>2020-07-27T12:28:40.391Z</time>
      </trkpt>
      <trkpt lat="61.45847" lon="5.38668">
        <ele>73.133997</ele>
        <time>2020-07-27T12:28:45.386Z</time>
      </trkpt>
      <trkpt lat="61.45843" lon="5.38685">
        <ele>73.216975</ele>
        <time>2020-07-27T12:28:50.389Z</time>
      </trkpt>
      <trkpt lat="61.45839" lon="5.38703">
        <ele>74.487906</ele>
        <time>2020-07-27T12:28:55.402Z</time>
      </trkpt>
      <trkpt lat="61.45835" lon="5.38721">
        <ele>75.826015</ele>
        <time>2020-07-27T12:29:01.406Z</time>
      </trkpt>
      <trkpt lat="61.4583" lon="5.3874">
        <ele>77.246496</ele>
        <time>2020-07-27T12:29:07.435Z</time>
      </trkpt>
      <trkpt lat="61.45826" lon="5.38758">
        <ele>78.582787</ele>
        <time>2020-07-27T12:29:13.410Z</time>
      </trkpt>
      <trkpt lat="61.45821" lon="5.38776">
        <ele>79.909248</ele>
        <time>2020-07-27T12:29:19.380Z</time>
      </trkpt>
      <trkpt lat="61.45817" lon="5.38795">
        <ele>81.347553</ele>
        <time>2020-07-27T12:29:25.413Z</time>
      </trkpt>
      <trkpt lat="61.45813" lon="5.38816">
        <ele>82.794446</ele>
        <time>2020-07-27T12:29:32.403Z</time>
      </trkpt>
      <trkpt lat="61.45808" lon="5.38834">
        <ele>84.212891</ele>
        <time>2020-07-27T12:29:38.390Z</time>
      </trkpt>
      <trkpt lat="61.45803" lon="5.38854">
        <ele>85.66902</ele>
        <time>2020-07-27T12:29:44.395Z</time>
      </trkpt>
      <trkpt lat="61.45799" lon="5.38871">
        <ele>86.976442</ele>
        <time>2020-07-27T12:29:49.375Z</time>
      </trkpt>
      <trkpt lat="61.45795" lon="5.38889">
        <ele>88.271095</ele>
        <time>2020-07-27T12:29:55.399Z</time>
      </trkpt>
      <trkpt lat="61.45791" lon="5.38906">
        <ele>89.547489</ele>
        <time>2020-07-27T12:30:02.419Z</time>
      </trkpt>
      <trkpt lat="61.45786" lon="5.38924">
        <ele>90.872557</ele>
        <time>2020-07-27T12:30:08.372Z</time>
      </trkpt>
      <trkpt lat="61.45782" lon="5.38941">
        <ele>92.199031</ele>
        <time>2020-07-27T12:30:15.392Z</time>
      </trkpt>
      <trkpt lat="61.45777" lon="5.3896">
        <ele>93.589253</ele>
        <time>2020-07-27T12:30:23.399Z</time>
      </trkpt>
      <trkpt lat="61.45773" lon="5.38977">
        <ele>94.836721</ele>
        <time>2020-07-27T12:30:30.379Z</time>
      </trkpt>
      <trkpt lat="61.4577" lon="5.38995">
        <ele>96.144906</ele>
        <time>2020-07-27T12:30:36.405Z</time>
      </trkpt>
      <trkpt lat="61.45765" lon="5.39013">
        <ele>97.493187</ele>
        <time>2020-07-27T12:30:43.400Z</time>
      </trkpt>
      <trkpt lat="61.45761" lon="5.39031">
        <ele>98.793135</ele>
        <time>2020-07-27T12:30:50.374Z</time>
      </trkpt>
      <trkpt lat="61.45757" lon="5.39047">
        <ele>100.034812</ele>
        <time>2020-07-27T12:30:57.399Z</time>
      </trkpt>
      <trkpt lat="61.45752" lon="5.39065">
        <ele>101.346182</ele>
        <time>2020-07-27T12:31:04.370Z</time>
      </trkpt>
      <trkpt lat="61.45747" lon="5.39084">
        <ele>102.768125</ele>
        <time>2020-07-27T12:31:12.421Z</time>
      </trkpt>
      <trkpt lat="61.45743" lon="5.39102">
        <ele>104.078716</ele>
        <time>2020-07-27T12:31:19.395Z</time>
      </trkpt>
      <trkpt lat="61.45738" lon="5.39121">
        <ele>105.465149</ele>
        <time>2020-07-27T12:31:26.378Z</time>
      </trkpt>
      <trkpt lat="61.45733" lon="5.39139">
        <ele>106.837844</ele>
        <time>2020-07-27T12:31:33.399Z</time>
      </trkpt>
      <trkpt lat="61.45729" lon="5.39157">
        <ele>108.159496</ele>
        <time>2020-07-27T12:31:40.377Z</time>
      </trkpt>
      <trkpt lat="61.45724" lon="5.39175">
        <ele>109.517133</ele>
        <time>2020-07-27T12:31:47.378Z</time>
      </trkpt>
      <trkpt lat="61.45719" lon="5.39193">
        <ele>110.947707</ele>
        <time>2020-07-27T12:31:54.402Z</time>
      </trkpt>
      <trkpt lat="61.45714" lon="5.39212">
        <ele>112.32281</ele>
        <time>2020-07-27T12:32:01.411Z</time>
      </trkpt>
      <trkpt lat="61.45709" lon="5.39229">
        <ele>113.626056</ele>
        <time>2020-07-27T12:32:08.386Z</time>
      </trkpt>
      <trkpt lat="61.45704" lon="5.39244">
        <ele>114.907156</ele>
        <time>2020-07-27T12:32:14.392Z</time>
      </trkpt>
      <trkpt lat="61.45698" lon="5.39259">
        <ele>116.142618</ele>
        <time>2020-07-27T12:32:20.402Z</time>
      </trkpt>
      <trkpt lat="61.45693" lon="5.39275">
        <ele>117.415514</ele>
        <time>2020-07-27T12:32:26.401Z</time>
      </trkpt>
      <trkpt lat="61.45687" lon="5.39292">
        <ele>118.763004</ele>
        <time>2020-07-27T12:32:32.377Z</time>
      </trkpt>
      <trkpt lat="61.45681" lon="5.39308">
        <ele>120.105385</ele>
        <time>2020-07-27T12:32:38.394Z</time>
      </trkpt>
      <trkpt lat="61.45676" lon="5.39323">
        <ele>121.348872</ele>
        <time>2020-07-27T12:32:44.378Z</time>
      </trkpt>
      <trkpt lat="61.4567" lon="5.3934">
        <ele>122.728613</ele>
        <time>2020-07-27T12:32:50.401Z</time>
      </trkpt>
      <trkpt lat="61.45663" lon="5.39358">
        <ele>123.619719</ele>
        <time>2020-07-27T12:32:56.429Z</time>
      </trkpt>
      <trkpt lat="61.45658" lon="5.39373">
        <ele>124.2795</ele>
        <time>2020-07-27T12:33:01.381Z</time>
      </trkpt>
      <trkpt lat="61.45652" lon="5.39388">
        <ele>124.951992</ele>
        <time>2020-07-27T12:33:06.374Z</time>
      </trkpt>
      <trkpt lat="61.45646" lon="5.39403">
        <ele>125.604822</ele>
        <time>2020-07-27T12:33:11.392Z</time>
      </trkpt>
      <trkpt lat="61.45639" lon="5.39418">
        <ele>126.357294</ele>
        <time>2020-07-27T12:33:17.378Z</time>
      </trkpt>
      <trkpt lat="61.45632" lon="5.39435">
        <ele>127.128326</ele>
        <time>2020-07-27T12:33:23.417Z</time>
      </trkpt>
      <trkpt lat="61.45625" lon="5.39451">
        <ele>127.888301</ele>
        <time>2020-07-27T12:33:29.392Z</time>
      </trkpt>
      <trkpt lat="61.45619" lon="5.39467">
        <ele>128.607984</ele>
        <time>2020-07-27T12:33:35.389Z</time>
      </trkpt>
      <trkpt lat="61.45613" lon="5.39481">
        <ele>129.267256</ele>
        <time>2020-07-27T12:33:40.374Z</time>
      </trkpt>
      <trkpt lat="61.45606" lon="5.39494">
        <ele>129.919067</ele>
        <time>2020-07-27T12:33:45.380Z</time>
      </trkpt>
      <trkpt lat="61.456" lon="5.39511">
        <ele>130.658739</ele>
        <time>2020-07-27T12:33:51.385Z</time>
      </trkpt>
      <trkpt lat="61.45593" lon="5.39527">
        <ele>131.4063</ele>
        <time>2020-07-27T12:33:56.376Z</time>
      </trkpt>
      <trkpt lat="61.45587" lon="5.39542">
        <ele>132.103297</ele>
        <time>2020-07-27T12:34:02.394Z</time>
      </trkpt>
      <trkpt lat="61.4558" lon="5.39558">
        <ele>132.828184</ele>
        <time>2020-07-27T12:34:08.406Z</time>
      </trkpt>
      <trkpt lat="61.45573" lon="5.39574">
        <ele>133.580916</ele>
        <time>2020-07-27T12:34:13.367Z</time>
      </trkpt>
      <trkpt lat="61.45568" lon="5.3959">
        <ele>134.275432</ele>
        <time>2020-07-27T12:34:18.395Z</time>
      </trkpt>
      <trkpt lat="61.45562" lon="5.39605">
        <ele>134.965026</ele>
        <time>2020-07-27T12:34:23.395Z</time>
      </trkpt>
      <trkpt lat="61.45556" lon="5.39619">
        <ele>135.616645</ele>
        <time>2020-07-27T12:34:28.433Z</time>
      </trkpt>
      <trkpt lat="61.45549" lon="5.39635">
        <ele>136.147837</ele>
        <time>2020-07-27T12:34:33.376Z</time>
      </trkpt>
      <trkpt lat="61.45543" lon="5.39652">
        <ele>136.429646</ele>
        <time>2020-07-27T12:34:39.389Z</time>
      </trkpt>
      <trkpt lat="61.45538" lon="5.39667">
        <ele>136.690851</ele>
        <time>2020-07-27T12:34:45.376Z</time>
      </trkpt>
      <trkpt lat="61.45532" lon="5.39683">
        <ele>136.94899</ele>
        <time>2020-07-27T12:34:50.388Z</time>
      </trkpt>
      <trkpt lat="61.45527" lon="5.39699">
        <ele>137.20508</ele>
        <time>2020-07-27T12:34:55.387Z</time>
      </trkpt>
      <trkpt lat="61.4552" lon="5.39713">
        <ele>137.46073</ele>
        <time>2020-07-27T12:35:00.407Z</time>
      </trkpt>
      <trkpt lat="61.45515" lon="5.3973">
        <ele>137.732882</ele>
        <time>2020-07-27T12:35:05.393Z</time>
      </trkpt>
      <trkpt lat="61.4551" lon="5.39745">
        <ele>137.982421</ele>
        <time>2020-07-27T12:35:10.381Z</time>
      </trkpt>
      <trkpt lat="61.45504" lon="5.39764">
        <ele>138.267044</ele>
        <time>2020-07-27T12:35:16.372Z</time>
      </trkpt>
      <trkpt lat="61.45499" lon="5.39781">
        <ele>138.546443</ele>
        <time>2020-07-27T12:35:21.407Z</time>
      </trkpt>
      <trkpt lat="61.45493" lon="5.39799">
        <ele>138.834207</ele>
        <time>2020-07-27T12:35:26.387Z</time>
      </trkpt>
      <trkpt lat="61.45488" lon="5.39816">
        <ele>139.092415</ele>
        <time>2020-07-27T12:35:31.396Z</time>
      </trkpt>
      <trkpt lat="61.45482" lon="5.39836">
        <ele>139.396636</ele>
        <time>2020-07-27T12:35:37.410Z</time>
      </trkpt>
      <trkpt lat="61.45478" lon="5.39852">
        <ele>139.645179</ele>
        <time>2020-07-27T12:35:42.421Z</time>
      </trkpt>
      <trkpt lat="61.45473" lon="5.39869">
        <ele>139.908532</ele>
        <time>2020-07-27T12:35:47.390Z</time>
      </trkpt>
      <trkpt lat="61.45469" lon="5.39886">
        <ele>140.170355</ele>
        <time>2020-07-27T12:35:52.393Z</time>
      </trkpt>
      <trkpt lat="61.45464" lon="5.39904">
        <ele>140.435677</ele>
        <time>2020-07-27T12:35:57.386Z</time>
      </trkpt>
      <trkpt lat="61.45459" lon="5.39921">
        <ele>140.692761</ele>
        <time>2020-07-27T12:36:02.376Z</time>
      </trkpt>
      <trkpt lat="61.45454" lon="5.39938">
        <ele>140.960637</ele>
        <time>2020-07-27T12:36:07.383Z</time>
      </trkpt>
      <trkpt lat="61.45449" lon="5.39955">
        <ele>141.294159</ele>
        <time>2020-07-27T12:36:12.398Z</time>
      </trkpt>
      <trkpt lat="61.45443" lon="5.39972">
        <ele>141.656858</ele>
        <time>2020-07-27T12:36:17.389Z</time>
      </trkpt>
      <trkpt lat="61.45438" lon="5.39992">
        <ele>142.047183</ele>
        <time>2020-07-27T12:36:23.387Z</time>
      </trkpt>
      <trkpt lat="61.45433" lon="5.40008">
        <ele>142.385907</ele>
        <time>2020-07-27T12:36:28.380Z</time>
      </trkpt>
      <trkpt lat="61.45428" lon="5.40024">
        <ele>142.714349</ele>
        <time>2020-07-27T12:36:33.389Z</time>
      </trkpt>
      <trkpt lat="61.45423" lon="5.40041">
        <ele>143.056144</ele>
        <time>2020-07-27T12:36:38.412Z</time>
      </trkpt>
      <trkpt lat="61.45418" lon="5.40059">
        <ele>143.424143</ele>
        <time>2020-07-27T12:36:43.387Z</time>
      </trkpt>
      <trkpt lat="61.45413" lon="5.40078">
        <ele>143.789124</ele>
        <time>2020-07-27T12:36:48.406Z</time>
      </trkpt>
      <trkpt lat="61.45408" lon="5.40095">
        <ele>144.144004</ele>
        <time>2020-07-27T12:36:53.381Z</time>
      </trkpt>
      <trkpt lat="61.45404" lon="5.40112">
        <ele>144.489985</ele>
        <time>2020-07-27T12:36:58.399Z</time>
      </trkpt>
      <trkpt lat="61.45399" lon="5.40129">
        <ele>144.822602</ele>
        <time>2020-07-27T12:37:03.399Z</time>
      </trkpt>
      <trkpt lat="61.45394" lon="5.40146">
        <ele>145.169654</ele>
        <time>2020-07-27T12:37:08.389Z</time>
      </trkpt>
      <trkpt lat="61.4539" lon="5.40164">
        <ele>145.510572</ele>
        <time>2020-07-27T12:37:13.406Z</time>
      </trkpt>
      <trkpt lat="61.45386" lon="5.40183">
        <ele>145.879211</ele>
        <time>2020-07-27T12:37:18.392Z</time>
      </trkpt>
      <trkpt lat="61.45381" lon="5.40201">
        <ele>146.23382</ele>
        <time>2020-07-27T12:37:23.390Z</time>
      </trkpt>
      <trkpt lat="61.45377" lon="5.4022">
        <ele>146.599383</ele>
        <time>2020-07-27T12:37:28.386Z</time>
      </trkpt>
      <trkpt lat="61.45372" lon="5.4024">
        <ele>146.993177</ele>
        <time>2020-07-27T12:37:33.409Z</time>
      </trkpt>
      <trkpt lat="61.45368" lon="5.4026">
        <ele>147.359305</ele>
        <time>2020-07-27T12:37:37.382Z</time>
      </trkpt>
      <trkpt lat="61.45365" lon="5.40278">
        <ele>147.517034</ele>
        <time>2020-07-27T12:37:41.380Z</time>
      </trkpt>
      <trkpt lat="61.45361" lon="5.40297">
        <ele>147.392101</ele>
        <time>2020-07-27T12:37:45.375Z</time>
      </trkpt>
      <trkpt lat="61.45357" lon="5.40318">
        <ele>147.249137</ele>
        <time>2020-07-27T12:37:50.387Z</time>
      </trkpt>
      <trkpt lat="61.45353" lon="5.4034">
        <ele>147.109733</ele>
        <time>2020-07-27T12:37:55.396Z</time>
      </trkpt>
      <trkpt lat="61.45349" lon="5.40362">
        <ele>146.970899</ele>
        <time>2020-07-27T12:38:00.374Z</time>
      </trkpt>
      <trkpt lat="61.45346" lon="5.40383">
        <ele>146.831233</ele>
        <time>2020-07-27T12:38:05.369Z</time>
      </trkpt>
      <trkpt lat="61.45342" lon="5.40405">
        <ele>146.693848</ele>
        <time>2020-07-27T12:38:10.390Z</time>
      </trkpt>
      <trkpt lat="61.45339" lon="5.40422">
        <ele>146.580004</ele>
        <time>2020-07-27T12:38:14.401Z</time>
      </trkpt>
      <trkpt lat="61.45335" lon="5.40444">
        <ele>146.441744</ele>
        <time>2020-07-27T12:38:19.381Z</time>
      </trkpt>
      <trkpt lat="61.45332" lon="5.40465">
        <ele>146.310399</ele>
        <time>2020-07-27T12:38:24.438Z</time>
      </trkpt>
      <trkpt lat="61.4533" lon="5.40485">
        <ele>146.185339</ele>
        <time>2020-07-27T12:38:29.391Z</time>
      </trkpt>
      <trkpt lat="61.45327" lon="5.40504">
        <ele>146.062365</ele>
        <time>2020-07-27T12:38:34.401Z</time>
      </trkpt>
      <trkpt lat="61.45325" lon="5.40523">
        <ele>145.9459</ele>
        <time>2020-07-27T12:38:38.382Z</time>
      </trkpt>
      <trkpt lat="61.45323" lon="5.40543">
        <ele>145.821441</ele>
        <time>2020-07-27T12:38:43.404Z</time>
      </trkpt>
      <trkpt lat="61.45321" lon="5.40562">
        <ele>145.7064</ele>
        <time>2020-07-27T12:38:47.407Z</time>
      </trkpt>
      <trkpt lat="61.4532" lon="5.40582">
        <ele>145.582876</ele>
        <time>2020-07-27T12:38:51.373Z</time>
      </trkpt>
      <trkpt lat="61.45318" lon="5.40603">
        <ele>145.448546</ele>
        <time>2020-07-27T12:38:56.399Z</time>
      </trkpt>
      <trkpt lat="61.45316" lon="5.40624">
        <ele>145.320181</ele>
        <time>2020-07-27T12:39:01.376Z</time>
      </trkpt>
      <trkpt lat="61.45315" lon="5.40646">
        <ele>145.723618</ele>
        <time>2020-07-27T12:39:06.377Z</time>
      </trkpt>
      <trkpt lat="61.45314" lon="5.40665">
        <ele>146.261728</ele>
        <time>2020-07-27T12:39:10.394Z</time>
      </trkpt>
      <trkpt lat="61.45312" lon="5.40688">
        <ele>146.92025</ele>
        <time>2020-07-27T12:39:15.391Z</time>
      </trkpt>
      <trkpt lat="61.45311" lon="5.40707">
        <ele>147.474105</ele>
        <time>2020-07-27T12:39:19.389Z</time>
      </trkpt>
      <trkpt lat="61.4531" lon="5.40727">
        <ele>148.032605</ele>
        <time>2020-07-27T12:39:23.374Z</time>
      </trkpt>
      <trkpt lat="61.45309" lon="5.40749">
        <ele>148.672468</ele>
        <time>2020-07-27T12:39:28.395Z</time>
      </trkpt>
      <trkpt lat="61.45308" lon="5.40768">
        <ele>149.214243</ele>
        <time>2020-07-27T12:39:32.381Z</time>
      </trkpt>
      <trkpt lat="61.45307" lon="5.40788">
        <ele>149.776529</ele>
        <time>2020-07-27T12:39:36.372Z</time>
      </trkpt>
      <trkpt lat="61.45306" lon="5.40807">
        <ele>150.315689</ele>
        <time>2020-07-27T12:39:40.378Z</time>
      </trkpt>
      <trkpt lat="61.45305" lon="5.40825">
        <ele>150.854648</ele>
        <time>2020-07-27T12:39:45.390Z</time>
      </trkpt>
      <trkpt lat="61.45304" lon="5.40846">
        <ele>151.438007</ele>
        <time>2020-07-27T12:39:49.434Z</time>
      </trkpt>
      <trkpt lat="61.45303" lon="5.40866">
        <ele>152.026383</ele>
        <time>2020-07-27T12:39:53.429Z</time>
      </trkpt>
      <trkpt lat="61.45302" lon="5.40885">
        <ele>152.563967</ele>
        <time>2020-07-27T12:39:57.374Z</time>
      </trkpt>
      <trkpt lat="61.45301" lon="5.40905">
        <ele>153.121482</ele>
        <time>2020-07-27T12:40:01.420Z</time>
      </trkpt>
      <trkpt lat="61.453" lon="5.40924">
        <ele>153.670421</ele>
        <time>2020-07-27T12:40:05.397Z</time>
      </trkpt>
      <trkpt lat="61.45299" lon="5.40943">
        <ele>154.21076</ele>
        <time>2020-07-27T12:40:09.399Z</time>
      </trkpt>
      <trkpt lat="61.45298" lon="5.40965">
        <ele>154.834679</ele>
        <time>2020-07-27T12:40:13.379Z</time>
      </trkpt>
      <trkpt lat="61.45297" lon="5.40984">
        <ele>155.40215</ele>
        <time>2020-07-27T12:40:17.370Z</time>
      </trkpt>
      <trkpt lat="61.45296" lon="5.41004">
        <ele>155.953789</ele>
        <time>2020-07-27T12:40:21.374Z</time>
      </trkpt>
      <trkpt lat="61.45295" lon="5.41027">
        <ele>156.53847</ele>
        <time>2020-07-27T12:40:26.379Z</time>
      </trkpt>
      <trkpt lat="61.45294" lon="5.41046">
        <ele>157.022638</ele>
        <time>2020-07-27T12:40:30.381Z</time>
      </trkpt>
      <trkpt lat="61.45292" lon="5.41067">
        <ele>157.531548</ele>
        <time>2020-07-27T12:40:34.393Z</time>
      </trkpt>
      <trkpt lat="61.45292" lon="5.41087">
        <ele>158.03108</ele>
        <time>2020-07-27T12:40:38.401Z</time>
      </trkpt>
      <trkpt lat="61.4529" lon="5.41109">
        <ele>158.593161</ele>
        <time>2020-07-27T12:40:42.412Z</time>
      </trkpt>
      <trkpt lat="61.4529" lon="5.4113">
        <ele>159.110479</ele>
        <time>2020-07-27T12:40:46.401Z</time>
      </trkpt>
      <trkpt lat="61.45288" lon="5.41149">
        <ele>159.595292</ele>
        <time>2020-07-27T12:40:50.384Z</time>
      </trkpt>
      <trkpt lat="61.45287" lon="5.41172">
        <ele>160.165625</ele>
        <time>2020-07-27T12:40:55.386Z</time>
      </trkpt>
      <trkpt lat="61.45286" lon="5.41195">
        <ele>160.749522</ele>
        <time>2020-07-27T12:41:00.379Z</time>
      </trkpt>
      <trkpt lat="61.45285" lon="5.41215">
        <ele>161.249839</ele>
        <time>2020-07-27T12:41:05.392Z</time>
      </trkpt>
      <trkpt lat="61.45283" lon="5.41236">
        <ele>161.771129</ele>
        <time>2020-07-27T12:41:10.407Z</time>
      </trkpt>
      <trkpt lat="61.45282" lon="5.41259">
        <ele>162.353866</ele>
        <time>2020-07-27T12:41:15.404Z</time>
      </trkpt>
      <trkpt lat="61.45281" lon="5.41281">
        <ele>162.909318</ele>
        <time>2020-07-27T12:41:20.373Z</time>
      </trkpt>
      <trkpt lat="61.45279" lon="5.41303">
        <ele>163.459458</ele>
        <time>2020-07-27T12:41:25.384Z</time>
      </trkpt>
      <trkpt lat="61.45277" lon="5.41325">
        <ele>164.033665</ele>
        <time>2020-07-27T12:41:30.396Z</time>
      </trkpt>
      <trkpt lat="61.45275" lon="5.41344">
        <ele>164.509341</ele>
        <time>2020-07-27T12:41:34.433Z</time>
      </trkpt>
      <trkpt lat="61.45272" lon="5.41363">
        <ele>165.024645</ele>
        <time>2020-07-27T12:41:38.377Z</time>
      </trkpt>
      <trkpt lat="61.45269" lon="5.41383">
        <ele>165.381841</ele>
        <time>2020-07-27T12:41:42.385Z</time>
      </trkpt>
      <trkpt lat="61.45266" lon="5.41405">
        <ele>165.475976</ele>
        <time>2020-07-27T12:41:47.373Z</time>
      </trkpt>
      <trkpt lat="61.45263" lon="5.41425">
        <ele>165.563343</ele>
        <time>2020-07-27T12:41:52.413Z</time>
      </trkpt>
      <trkpt lat="61.4526" lon="5.41445">
        <ele>165.64973</ele>
        <time>2020-07-27T12:41:56.377Z</time>
      </trkpt>
      <trkpt lat="61.45257" lon="5.41465">
        <ele>165.737955</ele>
        <time>2020-07-27T12:42:00.393Z</time>
      </trkpt>
      <trkpt lat="61.45254" lon="5.41483">
        <ele>165.816356</ele>
        <time>2020-07-27T12:42:04.395Z</time>
      </trkpt>
      <trkpt lat="61.45252" lon="5.41502">
        <ele>165.897693</ele>
        <time>2020-07-27T12:42:08.418Z</time>
      </trkpt>
      <trkpt lat="61.45249" lon="5.41522">
        <ele>165.980802</ele>
        <time>2020-07-27T12:42:12.396Z</time>
      </trkpt>
      <trkpt lat="61.45246" lon="5.4154">
        <ele>166.062337</ele>
        <time>2020-07-27T12:42:16.386Z</time>
      </trkpt>
      <trkpt lat="61.45243" lon="5.41559">
        <ele>166.142719</ele>
        <time>2020-07-27T12:42:20.407Z</time>
      </trkpt>
      <trkpt lat="61.4524" lon="5.41578">
        <ele>166.225476</ele>
        <time>2020-07-27T12:42:24.375Z</time>
      </trkpt>
      <trkpt lat="61.45237" lon="5.41597">
        <ele>166.305223</ele>
        <time>2020-07-27T12:42:28.377Z</time>
      </trkpt>
      <trkpt lat="61.45234" lon="5.41616">
        <ele>166.387697</ele>
        <time>2020-07-27T12:42:32.385Z</time>
      </trkpt>
      <trkpt lat="61.45231" lon="5.41634">
        <ele>166.466767</ele>
        <time>2020-07-27T12:42:36.397Z</time>
      </trkpt>
      <trkpt lat="61.45228" lon="5.41654">
        <ele>166.555267</ele>
        <time>2020-07-27T12:42:40.376Z</time>
      </trkpt>
      <trkpt lat="61.45225" lon="5.41673">
        <ele>166.637741</ele>
        <time>2020-07-27T12:42:44.388Z</time>
      </trkpt>
      <trkpt lat="61.45222" lon="5.41692">
        <ele>166.720791</ele>
        <time>2020-07-27T12:42:48.416Z</time>
      </trkpt>
      <trkpt lat="61.45219" lon="5.4171">
        <ele>166.79984</ele>
        <time>2020-07-27T12:42:52.408Z</time>
      </trkpt>
      <trkpt lat="61.45216" lon="5.41729">
        <ele>166.881974</ele>
        <time>2020-07-27T12:42:56.386Z</time>
      </trkpt>
      <trkpt lat="61.45214" lon="5.41749">
        <ele>166.867872</ele>
        <time>2020-07-27T12:43:00.379Z</time>
      </trkpt>
      <trkpt lat="61.45212" lon="5.41769">
        <ele>166.814508</ele>
        <time>2020-07-27T12:43:04.396Z</time>
      </trkpt>
      <trkpt lat="61.4521" lon="5.4179">
        <ele>166.761496</ele>
        <time>2020-07-27T12:43:08.396Z</time>
      </trkpt>
      <trkpt lat="61.45208" lon="5.41811">
        <ele>166.704973</ele>
        <time>2020-07-27T12:43:12.370Z</time>
      </trkpt>
      <trkpt lat="61.45207" lon="5.41832">
        <ele>166.652518</ele>
        <time>2020-07-27T12:43:16.397Z</time>
      </trkpt>
      <trkpt lat="61.45207" lon="5.41851">
        <ele>166.602542</ele>
        <time>2020-07-27T12:43:20.396Z</time>
      </trkpt>
      <trkpt lat="61.45208" lon="5.41874">
        <ele>166.543026</ele>
        <time>2020-07-27T12:43:25.383Z</time>
      </trkpt>
      <trkpt lat="61.45209" lon="5.41897">
        <ele>166.485531</ele>
        <time>2020-07-27T12:43:29.383Z</time>
      </trkpt>
      <trkpt lat="61.45209" lon="5.4192">
        <ele>166.425666</ele>
        <time>2020-07-27T12:43:33.388Z</time>
      </trkpt>
      <trkpt lat="61.4521" lon="5.41945">
        <ele>166.361672</ele>
        <time>2020-07-27T12:43:37.403Z</time>
      </trkpt>
      <trkpt lat="61.45211" lon="5.41965">
        <ele>166.309769</ele>
        <time>2020-07-27T12:43:40.412Z</time>
      </trkpt>
      <trkpt lat="61.45212" lon="5.41986">
        <ele>166.255861</ele>
        <time>2020-07-27T12:43:43.392Z</time>
      </trkpt>
      <trkpt lat="61.45214" lon="5.4201">
        <ele>166.194408</ele>
        <time>2020-07-27T12:43:46.388Z</time>
      </trkpt>
      <trkpt lat="61.45215" lon="5.42036">
        <ele>166.128056</ele>
        <time>2020-07-27T12:43:49.391Z</time>
      </trkpt>
      <trkpt lat="61.45217" lon="5.42056">
        <ele>166.075692</ele>
        <time>2020-07-27T12:43:51.377Z</time>
      </trkpt>
      <trkpt lat="61.4522" lon="5.42079">
        <ele>166.014575</ele>
        <time>2020-07-27T12:43:53.381Z</time>
      </trkpt>
      <trkpt lat="61.45221" lon="5.42106">
        <ele>165.944128</ele>
        <time>2020-07-27T12:43:55.383Z</time>
      </trkpt>
      <trkpt lat="61.45222" lon="5.42139">
        <ele>165.210048</ele>
        <time>2020-07-27T12:43:57.377Z</time>
      </trkpt>
      <trkpt lat="61.4522" lon="5.42177">
        <ele>164.342077</ele>
        <time>2020-07-27T12:43:59.408Z</time>
      </trkpt>
      <trkpt lat="61.45216" lon="5.42216">
        <ele>163.432298</ele>
        <time>2020-07-27T12:44:01.422Z</time>
      </trkpt>
      <trkpt lat="61.45214" lon="5.42236">
        <ele>162.947141</ele>
        <time>2020-07-27T12:44:02.398Z</time>
      </trkpt>
      <trkpt lat="61.45212" lon="5.42257">
        <ele>162.476074</ele>
        <time>2020-07-27T12:44:03.402Z</time>
      </trkpt>
      <trkpt lat="61.4521" lon="5.4228">
        <ele>161.942535</ele>
        <time>2020-07-27T12:44:04.385Z</time>
      </trkpt>
      <trkpt lat="61.45207" lon="5.42303">
        <ele>161.392685</ele>
        <time>2020-07-27T12:44:05.417Z</time>
      </trkpt>
      <trkpt lat="61.45205" lon="5.42327">
        <ele>160.837346</ele>
        <time>2020-07-27T12:44:06.410Z</time>
      </trkpt>
      <trkpt lat="61.45202" lon="5.42352">
        <ele>160.24969</ele>
        <time>2020-07-27T12:44:07.411Z</time>
      </trkpt>
      <trkpt lat="61.452" lon="5.42377">
        <ele>159.667695</ele>
        <time>2020-07-27T12:44:08.408Z</time>
      </trkpt>
      <trkpt lat="61.45197" lon="5.42403">
        <ele>159.055687</ele>
        <time>2020-07-27T12:44:09.391Z</time>
      </trkpt>
      <trkpt lat="61.45194" lon="5.42429">
        <ele>158.435874</ele>
        <time>2020-07-27T12:44:10.422Z</time>
      </trkpt>
      <trkpt lat="61.45191" lon="5.42455">
        <ele>157.830505</ele>
        <time>2020-07-27T12:44:11.392Z</time>
      </trkpt>
      <trkpt lat="61.45188" lon="5.42481">
        <ele>157.152536</ele>
        <time>2020-07-27T12:44:12.389Z</time>
      </trkpt>
      <trkpt lat="61.45185" lon="5.42508">
        <ele>156.210391</ele>
        <time>2020-07-27T12:44:13.391Z</time>
      </trkpt>
      <trkpt lat="61.45182" lon="5.42535">
        <ele>155.272796</ele>
        <time>2020-07-27T12:44:14.401Z</time>
      </trkpt>
      <trkpt lat="61.4518" lon="5.42562">
        <ele>154.313529</ele>
        <time>2020-07-27T12:44:15.376Z</time>
      </trkpt>
      <trkpt lat="61.45177" lon="5.42589">
        <ele>153.352776</ele>
        <time>2020-07-27T12:44:16.369Z</time>
      </trkpt>
      <trkpt lat="61.45174" lon="5.42616">
        <ele>152.392022</ele>
        <time>2020-07-27T12:44:17.393Z</time>
      </trkpt>
      <trkpt lat="61.45171" lon="5.42644">
        <ele>151.423011</ele>
        <time>2020-07-27T12:44:18.383Z</time>
      </trkpt>
      <trkpt lat="61.45168" lon="5.42672">
        <ele>150.442429</ele>
        <time>2020-07-27T12:44:19.404Z</time>
      </trkpt>
      <trkpt lat="61.45165" lon="5.42699">
        <ele>149.485001</ele>
        <time>2020-07-27T12:44:20.413Z</time>
      </trkpt>
      <trkpt lat="61.45161" lon="5.42724">
        <ele>148.552752</ele>
        <time>2020-07-27T12:44:21.378Z</time>
      </trkpt>
      <trkpt lat="61.45156" lon="5.42751">
        <ele>147.563993</ele>
        <time>2020-07-27T12:44:22.401Z</time>
      </trkpt>
      <trkpt lat="61.45151" lon="5.42778">
        <ele>146.585035</ele>
        <time>2020-07-27T12:44:23.387Z</time>
      </trkpt>
      <trkpt lat="61.45146" lon="5.42803">
        <ele>145.652872</ele>
        <time>2020-07-27T12:44:24.383Z</time>
      </trkpt>
      <trkpt lat="61.4514" lon="5.42827">
        <ele>144.714942</ele>
        <time>2020-07-27T12:44:25.402Z</time>
      </trkpt>
      <trkpt lat="61.45135" lon="5.42851">
        <ele>143.948889</ele>
        <time>2020-07-27T12:44:26.413Z</time>
      </trkpt>
      <trkpt lat="61.4513" lon="5.42874">
        <ele>143.318174</ele>
        <time>2020-07-27T12:44:27.388Z</time>
      </trkpt>
      <trkpt lat="61.45124" lon="5.42896">
        <ele>142.689718</ele>
        <time>2020-07-27T12:44:28.403Z</time>
      </trkpt>
      <trkpt lat="61.4512" lon="5.42917">
        <ele>142.077356</ele>
        <time>2020-07-27T12:44:29.387Z</time>
      </trkpt>
      <trkpt lat="61.45115" lon="5.42938">
        <ele>141.49037</ele>
        <time>2020-07-27T12:44:30.417Z</time>
      </trkpt>
      <trkpt lat="61.45111" lon="5.42959">
        <ele>140.914528</ele>
        <time>2020-07-27T12:44:31.381Z</time>
      </trkpt>
      <trkpt lat="61.45107" lon="5.4298">
        <ele>140.328688</ele>
        <time>2020-07-27T12:44:32.378Z</time>
      </trkpt>
      <trkpt lat="61.45103" lon="5.43001">
        <ele>139.749567</ele>
        <time>2020-07-27T12:44:33.397Z</time>
      </trkpt>
      <trkpt lat="61.45098" lon="5.43023">
        <ele>139.151874</ele>
        <time>2020-07-27T12:44:34.406Z</time>
      </trkpt>
      <trkpt lat="61.45095" lon="5.43044">
        <ele>138.575472</ele>
        <time>2020-07-27T12:44:35.395Z</time>
      </trkpt>
      <trkpt lat="61.45091" lon="5.43065">
        <ele>138.010469</ele>
        <time>2020-07-27T12:44:36.396Z</time>
      </trkpt>
      <trkpt lat="61.45088" lon="5.43086">
        <ele>137.435196</ele>
        <time>2020-07-27T12:44:37.394Z</time>
      </trkpt>
      <trkpt lat="61.45084" lon="5.43109">
        <ele>136.822171</ele>
        <time>2020-07-27T12:44:38.411Z</time>
      </trkpt>
      <trkpt lat="61.4508" lon="5.43131">
        <ele>136.225911</ele>
        <time>2020-07-27T12:44:39.427Z</time>
      </trkpt>
      <trkpt lat="61.45076" lon="5.43154">
        <ele>135.59774</ele>
        <time>2020-07-27T12:44:40.396Z</time>
      </trkpt>
      <trkpt lat="61.45071" lon="5.43177">
        <ele>134.962412</ele>
        <time>2020-07-27T12:44:41.409Z</time>
      </trkpt>
      <trkpt lat="61.45067" lon="5.43201">
        <ele>134.00501</ele>
        <time>2020-07-27T12:44:42.402Z</time>
      </trkpt>
      <trkpt lat="61.45062" lon="5.43226">
        <ele>132.896877</ele>
        <time>2020-07-27T12:44:43.413Z</time>
      </trkpt>
      <trkpt lat="61.45057" lon="5.43252">
        <ele>131.732665</ele>
        <time>2020-07-27T12:44:44.400Z</time>
      </trkpt>
      <trkpt lat="61.45053" lon="5.43279">
        <ele>130.545166</ele>
        <time>2020-07-27T12:44:45.399Z</time>
      </trkpt>
      <trkpt lat="61.45048" lon="5.43306">
        <ele>129.360816</ele>
        <time>2020-07-27T12:44:46.415Z</time>
      </trkpt>
      <trkpt lat="61.45044" lon="5.43332">
        <ele>128.200536</ele>
        <time>2020-07-27T12:44:47.377Z</time>
      </trkpt>
      <trkpt lat="61.4504" lon="5.4336">
        <ele>126.997641</ele>
        <time>2020-07-27T12:44:48.377Z</time>
      </trkpt>
      <trkpt lat="61.45037" lon="5.43388">
        <ele>125.771881</ele>
        <time>2020-07-27T12:44:49.395Z</time>
      </trkpt>
      <trkpt lat="61.45033" lon="5.43417">
        <ele>124.550342</ele>
        <time>2020-07-27T12:44:50.389Z</time>
      </trkpt>
      <trkpt lat="61.4503" lon="5.43446">
        <ele>123.318655</ele>
        <time>2020-07-27T12:44:51.387Z</time>
      </trkpt>
      <trkpt lat="61.45027" lon="5.43476">
        <ele>122.040099</ele>
        <time>2020-07-27T12:44:52.415Z</time>
      </trkpt>
      <trkpt lat="61.45024" lon="5.43505">
        <ele>120.780067</ele>
        <time>2020-07-27T12:44:53.375Z</time>
      </trkpt>
      <trkpt lat="61.4502" lon="5.43536">
        <ele>119.471384</ele>
        <time>2020-07-27T12:44:54.410Z</time>
      </trkpt>
      <trkpt lat="61.45017" lon="5.43565">
        <ele>118.345599</ele>
        <time>2020-07-27T12:44:55.393Z</time>
      </trkpt>
      <trkpt lat="61.45014" lon="5.43595">
        <ele>117.285726</ele>
        <time>2020-07-27T12:44:56.398Z</time>
      </trkpt>
      <trkpt lat="61.45011" lon="5.43624">
        <ele>116.243313</ele>
        <time>2020-07-27T12:44:57.389Z</time>
      </trkpt>
      <trkpt lat="61.45008" lon="5.43652">
        <ele>115.226377</ele>
        <time>2020-07-27T12:44:58.373Z</time>
      </trkpt>
      <trkpt lat="61.45005" lon="5.43681">
        <ele>114.190785</ele>
        <time>2020-07-27T12:44:59.388Z</time>
      </trkpt>
      <trkpt lat="61.45002" lon="5.4371">
        <ele>113.175652</ele>
        <time>2020-07-27T12:45:00.426Z</time>
      </trkpt>
      <trkpt lat="61.44999" lon="5.43737">
        <ele>112.189415</ele>
        <time>2020-07-27T12:45:01.408Z</time>
      </trkpt>
      <trkpt lat="61.44995" lon="5.43764">
        <ele>111.21173</ele>
        <time>2020-07-27T12:45:02.414Z</time>
      </trkpt>
      <trkpt lat="61.44992" lon="5.43791">
        <ele>110.238866</ele>
        <time>2020-07-27T12:45:03.376Z</time>
      </trkpt>
      <trkpt lat="61.44989" lon="5.43817">
        <ele>109.291064</ele>
        <time>2020-07-27T12:45:04.406Z</time>
      </trkpt>
      <trkpt lat="61.44985" lon="5.43844">
        <ele>108.333754</ele>
        <time>2020-07-27T12:45:05.375Z</time>
      </trkpt>
      <trkpt lat="61.4498" lon="5.43869">
        <ele>107.385842</ele>
        <time>2020-07-27T12:45:06.393Z</time>
      </trkpt>
      <trkpt lat="61.44975" lon="5.43894">
        <ele>106.435441</ele>
        <time>2020-07-27T12:45:07.388Z</time>
      </trkpt>
      <trkpt lat="61.4497" lon="5.43919">
        <ele>105.605304</ele>
        <time>2020-07-27T12:45:08.414Z</time>
      </trkpt>
      <trkpt lat="61.44964" lon="5.43944">
        <ele>104.927867</ele>
        <time>2020-07-27T12:45:09.412Z</time>
      </trkpt>
      <trkpt lat="61.44959" lon="5.43968">
        <ele>104.257288</ele>
        <time>2020-07-27T12:45:10.390Z</time>
      </trkpt>
      <trkpt lat="61.44954" lon="5.43992">
        <ele>103.593552</ele>
        <time>2020-07-27T12:45:11.392Z</time>
      </trkpt>
      <trkpt lat="61.44948" lon="5.44016">
        <ele>102.923053</ele>
        <time>2020-07-27T12:45:12.385Z</time>
      </trkpt>
      <trkpt lat="61.44943" lon="5.44039">
        <ele>102.282013</ele>
        <time>2020-07-27T12:45:13.386Z</time>
      </trkpt>
      <trkpt lat="61.44938" lon="5.44062">
        <ele>101.629649</ele>
        <time>2020-07-27T12:45:14.398Z</time>
      </trkpt>
      <trkpt lat="61.44933" lon="5.44085">
        <ele>100.995298</ele>
        <time>2020-07-27T12:45:15.379Z</time>
      </trkpt>
      <trkpt lat="61.44928" lon="5.44109">
        <ele>100.354196</ele>
        <time>2020-07-27T12:45:16.387Z</time>
      </trkpt>
      <trkpt lat="61.44923" lon="5.44133">
        <ele>99.69437</ele>
        <time>2020-07-27T12:45:17.407Z</time>
      </trkpt>
      <trkpt lat="61.44918" lon="5.44158">
        <ele>99.028392</ele>
        <time>2020-07-27T12:45:18.389Z</time>
      </trkpt>
      <trkpt lat="61.44914" lon="5.44182">
        <ele>98.38333</ele>
        <time>2020-07-27T12:45:19.405Z</time>
      </trkpt>
      <trkpt lat="61.44911" lon="5.44207">
        <ele>97.73503</ele>
        <time>2020-07-27T12:45:20.380Z</time>
      </trkpt>
      <trkpt lat="61.44908" lon="5.44231">
        <ele>97.109488</ele>
        <time>2020-07-27T12:45:21.394Z</time>
      </trkpt>
      <trkpt lat="61.44905" lon="5.44254">
        <ele>96.507446</ele>
        <time>2020-07-27T12:45:22.389Z</time>
      </trkpt>
      <trkpt lat="61.44902" lon="5.44277">
        <ele>95.691515</ele>
        <time>2020-07-27T12:45:23.396Z</time>
      </trkpt>
      <trkpt lat="61.44899" lon="5.44298">
        <ele>94.900256</ele>
        <time>2020-07-27T12:45:24.425Z</time>
      </trkpt>
      <trkpt lat="61.44896" lon="5.44319">
        <ele>94.138684</ele>
        <time>2020-07-27T12:45:25.425Z</time>
      </trkpt>
      <trkpt lat="61.44893" lon="5.44338">
        <ele>93.420877</ele>
        <time>2020-07-27T12:45:26.395Z</time>
      </trkpt>
      <trkpt lat="61.4489" lon="5.44357">
        <ele>92.688181</ele>
        <time>2020-07-27T12:45:27.380Z</time>
      </trkpt>
      <trkpt lat="61.44886" lon="5.44376">
        <ele>91.966957</ele>
        <time>2020-07-27T12:45:28.391Z</time>
      </trkpt>
      <trkpt lat="61.44883" lon="5.44395">
        <ele>91.26344</ele>
        <time>2020-07-27T12:45:29.390Z</time>
      </trkpt>
      <trkpt lat="61.44879" lon="5.44414">
        <ele>90.526328</ele>
        <time>2020-07-27T12:45:30.394Z</time>
      </trkpt>
      <trkpt lat="61.44876" lon="5.44433">
        <ele>89.82818</ele>
        <time>2020-07-27T12:45:31.410Z</time>
      </trkpt>
      <trkpt lat="61.44873" lon="5.44451">
        <ele>89.138714</ele>
        <time>2020-07-27T12:45:32.391Z</time>
      </trkpt>
      <trkpt lat="61.44869" lon="5.44469">
        <ele>88.436677</ele>
        <time>2020-07-27T12:45:33.402Z</time>
      </trkpt>
      <trkpt lat="61.44866" lon="5.44488">
        <ele>87.722055</ele>
        <time>2020-07-27T12:45:34.395Z</time>
      </trkpt>
      <trkpt lat="61.44862" lon="5.44508">
        <ele>86.977639</ele>
        <time>2020-07-27T12:45:35.403Z</time>
      </trkpt>
      <trkpt lat="61.44858" lon="5.44528">
        <ele>86.22463</ele>
        <time>2020-07-27T12:45:36.392Z</time>
      </trkpt>
      <trkpt lat="61.44855" lon="5.44548">
        <ele>85.441846</ele>
        <time>2020-07-27T12:45:37.393Z</time>
      </trkpt>
      <trkpt lat="61.44851" lon="5.44569">
        <ele>84.650758</ele>
        <time>2020-07-27T12:45:38.406Z</time>
      </trkpt>
      <trkpt lat="61.44848" lon="5.44592">
        <ele>83.807738</ele>
        <time>2020-07-27T12:45:39.415Z</time>
      </trkpt>
      <trkpt lat="61.44846" lon="5.44614">
        <ele>82.960797</ele>
        <time>2020-07-27T12:45:40.418Z</time>
      </trkpt>
      <trkpt lat="61.44843" lon="5.44636">
        <ele>81.857035</ele>
        <time>2020-07-27T12:45:41.383Z</time>
      </trkpt>
      <trkpt lat="61.4484" lon="5.44658">
        <ele>80.685733</ele>
        <time>2020-07-27T12:45:42.409Z</time>
      </trkpt>
      <trkpt lat="61.44837" lon="5.44682">
        <ele>79.475984</ele>
        <time>2020-07-27T12:45:43.410Z</time>
      </trkpt>
      <trkpt lat="61.44835" lon="5.44706">
        <ele>78.26868</ele>
        <time>2020-07-27T12:45:44.394Z</time>
      </trkpt>
      <trkpt lat="61.44832" lon="5.4473">
        <ele>77.051599</ele>
        <time>2020-07-27T12:45:45.393Z</time>
      </trkpt>
      <trkpt lat="61.44829" lon="5.44754">
        <ele>75.812738</ele>
        <time>2020-07-27T12:45:46.397Z</time>
      </trkpt>
      <trkpt lat="61.44826" lon="5.44778">
        <ele>74.554679</ele>
        <time>2020-07-27T12:45:47.398Z</time>
      </trkpt>
      <trkpt lat="61.44823" lon="5.44803">
        <ele>73.296619</ele>
        <time>2020-07-27T12:45:48.394Z</time>
      </trkpt>
      <trkpt lat="61.4482" lon="5.44827">
        <ele>72.072139</ele>
        <time>2020-07-27T12:45:49.391Z</time>
      </trkpt>
      <trkpt lat="61.44817" lon="5.44851">
        <ele>70.840199</ele>
        <time>2020-07-27T12:45:50.388Z</time>
      </trkpt>
      <trkpt lat="61.44814" lon="5.44874">
        <ele>69.642308</ele>
        <time>2020-07-27T12:45:51.381Z</time>
      </trkpt>
      <trkpt lat="61.44811" lon="5.44898">
        <ele>68.422617</ele>
        <time>2020-07-27T12:45:52.416Z</time>
      </trkpt>
      <trkpt lat="61.44808" lon="5.44921">
        <ele>67.255547</ele>
        <time>2020-07-27T12:45:53.396Z</time>
      </trkpt>
      <trkpt lat="61.44805" lon="5.44944">
        <ele>66.074142</ele>
        <time>2020-07-27T12:45:54.433Z</time>
      </trkpt>
      <trkpt lat="61.44802" lon="5.44967">
        <ele>64.880422</ele>
        <time>2020-07-27T12:45:55.368Z</time>
      </trkpt>
      <trkpt lat="61.44798" lon="5.44991">
        <ele>63.918016</ele>
        <time>2020-07-27T12:45:56.404Z</time>
      </trkpt>
      <trkpt lat="61.44795" lon="5.45014">
        <ele>63.081135</ele>
        <time>2020-07-27T12:45:57.438Z</time>
      </trkpt>
      <trkpt lat="61.44791" lon="5.45037">
        <ele>62.240967</ele>
        <time>2020-07-27T12:45:58.380Z</time>
      </trkpt>
      <trkpt lat="61.44787" lon="5.4506">
        <ele>61.404085</ele>
        <time>2020-07-27T12:45:59.388Z</time>
      </trkpt>
      <trkpt lat="61.44784" lon="5.45083">
        <ele>60.565854</ele>
        <time>2020-07-27T12:46:00.402Z</time>
      </trkpt>
      <trkpt lat="61.4478" lon="5.45105">
        <ele>59.764074</ele>
        <time>2020-07-27T12:46:01.375Z</time>
      </trkpt>
      <trkpt lat="61.44776" lon="5.45127">
        <ele>58.935634</ele>
        <time>2020-07-27T12:46:02.381Z</time>
      </trkpt>
      <trkpt lat="61.44773" lon="5.45152">
        <ele>58.050452</ele>
        <time>2020-07-27T12:46:03.380Z</time>
      </trkpt>
      <trkpt lat="61.44769" lon="5.45176">
        <ele>57.152074</ele>
        <time>2020-07-27T12:46:04.393Z</time>
      </trkpt>
      <trkpt lat="61.44765" lon="5.45201">
        <ele>56.241384</ele>
        <time>2020-07-27T12:46:05.375Z</time>
      </trkpt>
      <trkpt lat="61.4476" lon="5.45227">
        <ele>55.29818</ele>
        <time>2020-07-27T12:46:06.390Z</time>
      </trkpt>
      <trkpt lat="61.44756" lon="5.45252">
        <ele>54.361463</ele>
        <time>2020-07-27T12:46:07.387Z</time>
      </trkpt>
      <trkpt lat="61.44752" lon="5.45278">
        <ele>53.429674</ele>
        <time>2020-07-27T12:46:08.405Z</time>
      </trkpt>
      <trkpt lat="61.44747" lon="5.45304">
        <ele>52.46979</ele>
        <time>2020-07-27T12:46:09.406Z</time>
      </trkpt>
      <trkpt lat="61.44743" lon="5.45331">
        <ele>51.508818</ele>
        <time>2020-07-27T12:46:10.388Z</time>
      </trkpt>
      <trkpt lat="61.44739" lon="5.45358">
        <ele>51.056489</ele>
        <time>2020-07-27T12:46:11.419Z</time>
      </trkpt>
      <trkpt lat="61.44735" lon="5.45385">
        <ele>50.61899</ele>
        <time>2020-07-27T12:46:12.393Z</time>
      </trkpt>
      <trkpt lat="61.44731" lon="5.45412">
        <ele>50.176074</ele>
        <time>2020-07-27T12:46:13.420Z</time>
      </trkpt>
      <trkpt lat="61.44727" lon="5.45439">
        <ele>49.745367</ele>
        <time>2020-07-27T12:46:14.414Z</time>
      </trkpt>
      <trkpt lat="61.44722" lon="5.45464">
        <ele>49.319503</ele>
        <time>2020-07-27T12:46:15.390Z</time>
      </trkpt>
      <trkpt lat="61.44717" lon="5.45487">
        <ele>48.934878</ele>
        <time>2020-07-27T12:46:16.393Z</time>
      </trkpt>
      <trkpt lat="61.44712" lon="5.45508">
        <ele>48.567173</ele>
        <time>2020-07-27T12:46:17.420Z</time>
      </trkpt>
      <trkpt lat="61.44707" lon="5.45528">
        <ele>48.221548</ele>
        <time>2020-07-27T12:46:18.379Z</time>
      </trkpt>
      <trkpt lat="61.44703" lon="5.45545">
        <ele>47.923348</ele>
        <time>2020-07-27T12:46:19.411Z</time>
      </trkpt>
      <trkpt lat="61.44696" lon="5.45577">
        <ele>47.389946</ele>
        <time>2020-07-27T12:46:21.393Z</time>
      </trkpt>
      <trkpt lat="61.44691" lon="5.45609">
        <ele>46.855291</ele>
        <time>2020-07-27T12:46:23.391Z</time>
      </trkpt>
      <trkpt lat="61.44686" lon="5.45635">
        <ele>46.41934</ele>
        <time>2020-07-27T12:46:25.408Z</time>
      </trkpt>
      <trkpt lat="61.44682" lon="5.45655">
        <ele>46.084824</ele>
        <time>2020-07-27T12:46:27.380Z</time>
      </trkpt>
      <trkpt lat="61.44678" lon="5.45674">
        <ele>45.774075</ele>
        <time>2020-07-27T12:46:29.394Z</time>
      </trkpt>
      <trkpt lat="61.44674" lon="5.45694">
        <ele>46.876725</ele>
        <time>2020-07-27T12:46:32.399Z</time>
      </trkpt>
      <trkpt lat="61.4467" lon="5.45716">
        <ele>48.658138</ele>
        <time>2020-07-27T12:46:37.393Z</time>
      </trkpt>
      <trkpt lat="61.44667" lon="5.45737">
        <ele>50.401293</ele>
        <time>2020-07-27T12:46:43.375Z</time>
      </trkpt>
      <trkpt lat="61.44664" lon="5.45755">
        <ele>51.862906</ele>
        <time>2020-07-27T12:46:47.401Z</time>
      </trkpt>
      <trkpt lat="61.4466" lon="5.45773">
        <ele>53.425236</ele>
        <time>2020-07-27T12:46:51.410Z</time>
      </trkpt>
      <trkpt lat="61.44656" lon="5.45796">
        <ele>55.273803</ele>
        <time>2020-07-27T12:46:56.401Z</time>
      </trkpt>
      <trkpt lat="61.44652" lon="5.45816">
        <ele>56.933334</ele>
        <time>2020-07-27T12:47:01.386Z</time>
      </trkpt>
      <trkpt lat="61.44648" lon="5.45835">
        <ele>58.537531</ele>
        <time>2020-07-27T12:47:06.380Z</time>
      </trkpt>
      <trkpt lat="61.44646" lon="5.45854">
        <ele>60.026902</ele>
        <time>2020-07-27T12:47:10.390Z</time>
      </trkpt>
      <trkpt lat="61.44642" lon="5.45871">
        <ele>61.490403</ele>
        <time>2020-07-27T12:47:15.396Z</time>
      </trkpt>
      <trkpt lat="61.44638" lon="5.45889">
        <ele>63.065305</ele>
        <time>2020-07-27T12:47:20.397Z</time>
      </trkpt>
      <trkpt lat="61.44633" lon="5.45909">
        <ele>64.772806</ele>
        <time>2020-07-27T12:47:26.410Z</time>
      </trkpt>
      <trkpt lat="61.44628" lon="5.45929">
        <ele>66.544886</ele>
        <time>2020-07-27T12:47:32.380Z</time>
      </trkpt>
      <trkpt lat="61.44623" lon="5.45947">
        <ele>68.122307</ele>
        <time>2020-07-27T12:47:37.408Z</time>
      </trkpt>
      <trkpt lat="61.44619" lon="5.45964">
        <ele>69.609756</ele>
        <time>2020-07-27T12:47:42.393Z</time>
      </trkpt>
      <trkpt lat="61.44613" lon="5.45982">
        <ele>71.28156</ele>
        <time>2020-07-27T12:47:48.410Z</time>
      </trkpt>
      <trkpt lat="61.44608" lon="5.46001">
        <ele>72.934623</ele>
        <time>2020-07-27T12:47:54.404Z</time>
      </trkpt>
      <trkpt lat="61.44603" lon="5.46018">
        <ele>74.478315</ele>
        <time>2020-07-27T12:47:59.373Z</time>
      </trkpt>
      <trkpt lat="61.44599" lon="5.46036">
        <ele>74.884256</ele>
        <time>2020-07-27T12:48:04.395Z</time>
      </trkpt>
      <trkpt lat="61.44594" lon="5.46053">
        <ele>75.05708</ele>
        <time>2020-07-27T12:48:10.391Z</time>
      </trkpt>
      <trkpt lat="61.44589" lon="5.4607">
        <ele>75.239649</ele>
        <time>2020-07-27T12:48:15.414Z</time>
      </trkpt>
      <trkpt lat="61.44583" lon="5.46086">
        <ele>75.411749</ele>
        <time>2020-07-27T12:48:21.421Z</time>
      </trkpt>
      <trkpt lat="61.44576" lon="5.46102">
        <ele>75.610288</ele>
        <time>2020-07-27T12:48:27.371Z</time>
      </trkpt>
      <trkpt lat="61.4457" lon="5.46116">
        <ele>75.779729</ele>
        <time>2020-07-27T12:48:33.412Z</time>
      </trkpt>
      <trkpt lat="61.44563" lon="5.46129">
        <ele>75.958722</ele>
        <time>2020-07-27T12:48:38.388Z</time>
      </trkpt>
      <trkpt lat="61.44556" lon="5.46142">
        <ele>76.129423</ele>
        <time>2020-07-27T12:48:43.399Z</time>
      </trkpt>
      <trkpt lat="61.44549" lon="5.46157">
        <ele>76.314339</ele>
        <time>2020-07-27T12:48:49.400Z</time>
      </trkpt>
      <trkpt lat="61.44542" lon="5.4617">
        <ele>76.487243</ele>
        <time>2020-07-27T12:48:54.400Z</time>
      </trkpt>
      <trkpt lat="61.44536" lon="5.46184">
        <ele>76.656027</ele>
        <time>2020-07-27T12:48:58.399Z</time>
      </trkpt>
      <trkpt lat="61.4453" lon="5.462">
        <ele>76.838682</ele>
        <time>2020-07-27T12:49:02.403Z</time>
      </trkpt>
      <trkpt lat="61.44524" lon="5.46219">
        <ele>77.041839</ele>
        <time>2020-07-27T12:49:06.398Z</time>
      </trkpt>
      <trkpt lat="61.44518" lon="5.4624">
        <ele>77.254973</ele>
        <time>2020-07-27T12:49:10.386Z</time>
      </trkpt>
      <trkpt lat="61.44512" lon="5.4626">
        <ele>77.464617</ele>
        <time>2020-07-27T12:49:14.385Z</time>
      </trkpt>
      <trkpt lat="61.44506" lon="5.46279">
        <ele>77.666241</ele>
        <time>2020-07-27T12:49:18.419Z</time>
      </trkpt>
      <trkpt lat="61.445" lon="5.46298">
        <ele>77.866114</ele>
        <time>2020-07-27T12:49:22.402Z</time>
      </trkpt>
      <trkpt lat="61.44495" lon="5.46315">
        <ele>78.047891</ele>
        <time>2020-07-27T12:49:26.450Z</time>
      </trkpt>
      <trkpt lat="61.44488" lon="5.4633">
        <ele>78.216088</ele>
        <time>2020-07-27T12:49:31.395Z</time>
      </trkpt>
      <trkpt lat="61.44481" lon="5.46359">
        <ele>78.459434</ele>
        <time>2020-07-27T13:03:14.398Z</time>
      </trkpt>
      <trkpt lat="61.44476" lon="5.46379">
        <ele>78.624265</ele>
        <time>2020-07-27T13:03:18.429Z</time>
      </trkpt>
      <trkpt lat="61.44471" lon="5.46399">
        <ele>78.801332</ele>
        <time>2020-07-27T13:03:22.384Z</time>
      </trkpt>
      <trkpt lat="61.44465" lon="5.46415">
        <ele>78.95346</ele>
        <time>2020-07-27T13:03:25.417Z</time>
      </trkpt>
      <trkpt lat="61.44461" lon="5.46433">
        <ele>79.097696</ele>
        <time>2020-07-27T13:03:28.397Z</time>
      </trkpt>
      <trkpt lat="61.44455" lon="5.46452">
        <ele>79.272346</ele>
        <time>2020-07-27T13:03:31.390Z</time>
      </trkpt>
      <trkpt lat="61.44447" lon="5.46472">
        <ele>79.466009</ele>
        <time>2020-07-27T13:03:34.392Z</time>
      </trkpt>
      <trkpt lat="61.4444" lon="5.46491">
        <ele>79.65781</ele>
        <time>2020-07-27T13:03:37.405Z</time>
      </trkpt>
      <trkpt lat="61.44432" lon="5.46511">
        <ele>79.848232</ele>
        <time>2020-07-27T13:03:40.426Z</time>
      </trkpt>
      <trkpt lat="61.44426" lon="5.46529">
        <ele>80.014487</ele>
        <time>2020-07-27T13:03:43.398Z</time>
      </trkpt>
      <trkpt lat="61.44421" lon="5.46545">
        <ele>80.164416</ele>
        <time>2020-07-27T13:03:46.390Z</time>
      </trkpt>
      <trkpt lat="61.44414" lon="5.46561">
        <ele>80.319722</ele>
        <time>2020-07-27T13:03:49.382Z</time>
      </trkpt>
      <trkpt lat="61.44409" lon="5.46577">
        <ele>80.468196</ele>
        <time>2020-07-27T13:03:52.419Z</time>
      </trkpt>
      <trkpt lat="61.44404" lon="5.46593">
        <ele>80.617566</ele>
        <time>2020-07-27T13:03:55.386Z</time>
      </trkpt>
      <trkpt lat="61.44397" lon="5.46609">
        <ele>80.774207</ele>
        <time>2020-07-27T13:03:58.410Z</time>
      </trkpt>
      <trkpt lat="61.44392" lon="5.46626">
        <ele>80.931971</ele>
        <time>2020-07-27T13:04:01.391Z</time>
      </trkpt>
      <trkpt lat="61.44385" lon="5.46643">
        <ele>81.136261</ele>
        <time>2020-07-27T13:04:04.392Z</time>
      </trkpt>
      <trkpt lat="61.44378" lon="5.46662">
        <ele>81.367535</ele>
        <time>2020-07-27T13:04:07.393Z</time>
      </trkpt>
      <trkpt lat="61.44372" lon="5.46683">
        <ele>81.606577</ele>
        <time>2020-07-27T13:04:10.387Z</time>
      </trkpt>
      <trkpt lat="61.44367" lon="5.46704">
        <ele>81.829958</ele>
        <time>2020-07-27T13:04:13.438Z</time>
      </trkpt>
      <trkpt lat="61.44363" lon="5.46726">
        <ele>82.046775</ele>
        <time>2020-07-27T13:04:16.393Z</time>
      </trkpt>
      <trkpt lat="61.4436" lon="5.46748">
        <ele>82.270083</ele>
        <time>2020-07-27T13:04:19.395Z</time>
      </trkpt>
      <trkpt lat="61.44357" lon="5.46775">
        <ele>82.532123</ele>
        <time>2020-07-27T13:04:22.381Z</time>
      </trkpt>
      <trkpt lat="61.44355" lon="5.46795">
        <ele>82.721452</ele>
        <time>2020-07-27T13:04:24.410Z</time>
      </trkpt>
      <trkpt lat="61.44354" lon="5.46815">
        <ele>82.918312</ele>
        <time>2020-07-27T13:04:26.392Z</time>
      </trkpt>
      <trkpt lat="61.44352" lon="5.46836">
        <ele>83.120126</ele>
        <time>2020-07-27T13:04:28.409Z</time>
      </trkpt>
      <trkpt lat="61.44351" lon="5.46857">
        <ele>83.314871</ele>
        <time>2020-07-27T13:04:30.381Z</time>
      </trkpt>
      <trkpt lat="61.44349" lon="5.46876">
        <ele>83.504585</ele>
        <time>2020-07-27T13:04:32.398Z</time>
      </trkpt>
      <trkpt lat="61.44347" lon="5.46896">
        <ele>83.697905</ele>
        <time>2020-07-27T13:04:34.399Z</time>
      </trkpt>
      <trkpt lat="61.44346" lon="5.46916">
        <ele>83.890605</ele>
        <time>2020-07-27T13:04:36.439Z</time>
      </trkpt>
      <trkpt lat="61.44344" lon="5.46936">
        <ele>84.080475</ele>
        <time>2020-07-27T13:04:38.392Z</time>
      </trkpt>
      <trkpt lat="61.44343" lon="5.46956">
        <ele>84.268186</ele>
        <time>2020-07-27T13:04:40.399Z</time>
      </trkpt>
      <trkpt lat="61.44341" lon="5.46975">
        <ele>84.451801</ele>
        <time>2020-07-27T13:04:42.449Z</time>
      </trkpt>
      <trkpt lat="61.4434" lon="5.46994">
        <ele>84.421772</ele>
        <time>2020-07-27T13:04:44.392Z</time>
      </trkpt>
      <trkpt lat="61.44339" lon="5.47014">
        <ele>84.320287</ele>
        <time>2020-07-27T13:04:46.400Z</time>
      </trkpt>
      <trkpt lat="61.44337" lon="5.47033">
        <ele>84.222865</ele>
        <time>2020-07-27T13:04:48.407Z</time>
      </trkpt>
      <trkpt lat="61.44336" lon="5.47051">
        <ele>84.12594</ele>
        <time>2020-07-27T13:04:50.387Z</time>
      </trkpt>
      <trkpt lat="61.44334" lon="5.4707">
        <ele>84.026164</ele>
        <time>2020-07-27T13:04:52.382Z</time>
      </trkpt>
      <trkpt lat="61.44333" lon="5.47091">
        <ele>83.920646</ele>
        <time>2020-07-27T13:04:54.405Z</time>
      </trkpt>
      <trkpt lat="61.44331" lon="5.47113">
        <ele>83.806494</ele>
        <time>2020-07-27T13:04:56.400Z</time>
      </trkpt>
      <trkpt lat="61.44329" lon="5.47136">
        <ele>83.687104</ele>
        <time>2020-07-27T13:04:58.378Z</time>
      </trkpt>
      <trkpt lat="61.44326" lon="5.4716">
        <ele>83.558621</ele>
        <time>2020-07-27T13:05:00.399Z</time>
      </trkpt>
      <trkpt lat="61.44323" lon="5.47185">
        <ele>83.426432</ele>
        <time>2020-07-27T13:05:02.382Z</time>
      </trkpt>
      <trkpt lat="61.44321" lon="5.4721">
        <ele>83.294147</ele>
        <time>2020-07-27T13:05:04.383Z</time>
      </trkpt>
      <trkpt lat="61.44318" lon="5.47236">
        <ele>83.161146</ele>
        <time>2020-07-27T13:05:06.380Z</time>
      </trkpt>
      <trkpt lat="61.44317" lon="5.4726">
        <ele>83.036501</ele>
        <time>2020-07-27T13:05:08.400Z</time>
      </trkpt>
      <trkpt lat="61.44316" lon="5.47283">
        <ele>82.918607</ele>
        <time>2020-07-27T13:05:10.397Z</time>
      </trkpt>
      <trkpt lat="61.44314" lon="5.47304">
        <ele>82.805998</ele>
        <time>2020-07-27T13:05:12.410Z</time>
      </trkpt>
      <trkpt lat="61.44312" lon="5.47323">
        <ele>82.709072</ele>
        <time>2020-07-27T13:05:14.409Z</time>
      </trkpt>
      <trkpt lat="61.44311" lon="5.47348">
        <ele>82.582138</ele>
        <time>2020-07-27T13:05:17.433Z</time>
      </trkpt>
      <trkpt lat="61.44309" lon="5.47368">
        <ele>82.494644</ele>
        <time>2020-07-27T13:05:20.418Z</time>
      </trkpt>
      <trkpt lat="61.44308" lon="5.4739">
        <ele>82.401713</ele>
        <time>2020-07-27T13:05:24.390Z</time>
      </trkpt>
      <trkpt lat="61.44307" lon="5.47409">
        <ele>82.319737</ele>
        <time>2020-07-27T13:05:28.403Z</time>
      </trkpt>
      <trkpt lat="61.44305" lon="5.47432">
        <ele>82.222563</ele>
        <time>2020-07-27T13:05:33.411Z</time>
      </trkpt>
      <trkpt lat="61.44304" lon="5.47452">
        <ele>82.139356</ele>
        <time>2020-07-27T13:05:37.380Z</time>
      </trkpt>
      <trkpt lat="61.44302" lon="5.47474">
        <ele>82.048629</ele>
        <time>2020-07-27T13:05:41.385Z</time>
      </trkpt>
      <trkpt lat="61.44301" lon="5.47494">
        <ele>81.962152</ele>
        <time>2020-07-27T13:05:45.407Z</time>
      </trkpt>
      <trkpt lat="61.44298" lon="5.47517">
        <ele>81.867118</ele>
        <time>2020-07-27T13:05:49.379Z</time>
      </trkpt>
      <trkpt lat="61.44297" lon="5.47537">
        <ele>81.781235</ele>
        <time>2020-07-27T13:05:52.400Z</time>
      </trkpt>
      <trkpt lat="61.44294" lon="5.47563">
        <ele>81.671692</ele>
        <time>2020-07-27T13:05:55.389Z</time>
      </trkpt>
      <trkpt lat="61.44292" lon="5.47583">
        <ele>81.585438</ele>
        <time>2020-07-27T13:05:57.390Z</time>
      </trkpt>
      <trkpt lat="61.4429" lon="5.47606">
        <ele>81.488832</ele>
        <time>2020-07-27T13:05:59.389Z</time>
      </trkpt>
      <trkpt lat="61.44287" lon="5.47631">
        <ele>81.381729</ele>
        <time>2020-07-27T13:06:01.410Z</time>
      </trkpt>
      <trkpt lat="61.44283" lon="5.47658">
        <ele>81.26526</ele>
        <time>2020-07-27T13:06:03.394Z</time>
      </trkpt>
      <trkpt lat="61.4428" lon="5.47687">
        <ele>81.138286</ele>
        <time>2020-07-27T13:06:05.409Z</time>
      </trkpt>
      <trkpt lat="61.44276" lon="5.47717">
        <ele>81.010934</ele>
        <time>2020-07-27T13:06:07.411Z</time>
      </trkpt>
      <trkpt lat="61.44272" lon="5.47748">
        <ele>80.921608</ele>
        <time>2020-07-27T13:06:09.417Z</time>
      </trkpt>
      <trkpt lat="61.44268" lon="5.4778">
        <ele>80.831405</ele>
        <time>2020-07-27T13:06:11.399Z</time>
      </trkpt>
      <trkpt lat="61.44264" lon="5.47814">
        <ele>80.737046</ele>
        <time>2020-07-27T13:06:13.397Z</time>
      </trkpt>
      <trkpt lat="61.44259" lon="5.47847">
        <ele>80.644321</ele>
        <time>2020-07-27T13:06:15.428Z</time>
      </trkpt>
      <trkpt lat="61.44255" lon="5.47879">
        <ele>80.557376</ele>
        <time>2020-07-27T13:06:17.408Z</time>
      </trkpt>
      <trkpt lat="61.44252" lon="5.47906">
        <ele>80.480792</ele>
        <time>2020-07-27T13:06:19.375Z</time>
      </trkpt>
      <trkpt lat="61.44249" lon="5.4793">
        <ele>80.414265</ele>
        <time>2020-07-27T13:06:21.411Z</time>
      </trkpt>
      <trkpt lat="61.44248" lon="5.47951">
        <ele>80.356673</ele>
        <time>2020-07-27T13:06:23.429Z</time>
      </trkpt>
      <trkpt lat="61.44247" lon="5.4797">
        <ele>80.30578</ele>
        <time>2020-07-27T13:06:25.424Z</time>
      </trkpt>
      <trkpt lat="61.44245" lon="5.47994">
        <ele>80.240768</ele>
        <time>2020-07-27T13:06:28.387Z</time>
      </trkpt>
      <trkpt lat="61.44243" lon="5.48015">
        <ele>80.18307</ele>
        <time>2020-07-27T13:06:31.465Z</time>
      </trkpt>
      <trkpt lat="61.44242" lon="5.48037">
        <ele>80.125372</ele>
        <time>2020-07-27T13:06:34.391Z</time>
      </trkpt>
      <trkpt lat="61.44241" lon="5.48057">
        <ele>80.071476</ele>
        <time>2020-07-27T13:06:37.417Z</time>
      </trkpt>
      <trkpt lat="61.4424" lon="5.48076">
        <ele>80.018449</ele>
        <time>2020-07-27T13:06:40.383Z</time>
      </trkpt>
      <trkpt lat="61.44239" lon="5.481">
        <ele>79.92856</ele>
        <time>2020-07-27T13:06:43.407Z</time>
      </trkpt>
      <trkpt lat="61.44239" lon="5.48126">
        <ele>79.801311</ele>
        <time>2020-07-27T13:06:46.387Z</time>
      </trkpt>
      <trkpt lat="61.44238" lon="5.48146">
        <ele>79.704332</ele>
        <time>2020-07-27T13:06:48.410Z</time>
      </trkpt>
      <trkpt lat="61.44238" lon="5.48169">
        <ele>79.59404</ele>
        <time>2020-07-27T13:06:50.403Z</time>
      </trkpt>
      <trkpt lat="61.44237" lon="5.48197">
        <ele>79.463011</ele>
        <time>2020-07-27T13:06:52.379Z</time>
      </trkpt>
      <trkpt lat="61.44237" lon="5.48226">
        <ele>79.31991</ele>
        <time>2020-07-27T13:06:54.395Z</time>
      </trkpt>
      <trkpt lat="61.44235" lon="5.48261">
        <ele>79.15247</ele>
        <time>2020-07-27T13:06:56.391Z</time>
      </trkpt>
      <trkpt lat="61.44234" lon="5.4828">
        <ele>79.061882</ele>
        <time>2020-07-27T13:06:57.392Z</time>
      </trkpt>
      <trkpt lat="61.44233" lon="5.48299">
        <ele>78.969283</ele>
        <time>2020-07-27T13:06:58.431Z</time>
      </trkpt>
      <trkpt lat="61.44232" lon="5.48318">
        <ele>78.876683</ele>
        <time>2020-07-27T13:06:59.430Z</time>
      </trkpt>
      <trkpt lat="61.44232" lon="5.48338">
        <ele>78.781891</ele>
        <time>2020-07-27T13:07:00.395Z</time>
      </trkpt>
      <trkpt lat="61.44231" lon="5.48358">
        <ele>78.686143</ele>
        <time>2020-07-27T13:07:01.394Z</time>
      </trkpt>
      <trkpt lat="61.4423" lon="5.48377">
        <ele>78.592306</ele>
        <time>2020-07-27T13:07:02.423Z</time>
      </trkpt>
      <trkpt lat="61.44229" lon="5.48397">
        <ele>78.49923</ele>
        <time>2020-07-27T13:07:03.396Z</time>
      </trkpt>
      <trkpt lat="61.44228" lon="5.48416">
        <ele>78.407303</ele>
        <time>2020-07-27T13:07:04.428Z</time>
      </trkpt>
      <trkpt lat="61.44226" lon="5.48452">
        <ele>78.233281</ele>
        <time>2020-07-27T13:07:06.395Z</time>
      </trkpt>
      <trkpt lat="61.44225" lon="5.48486">
        <ele>78.088164</ele>
        <time>2020-07-27T13:07:08.415Z</time>
      </trkpt>
      <trkpt lat="61.44223" lon="5.48518">
        <ele>77.963545</ele>
        <time>2020-07-27T13:07:10.399Z</time>
      </trkpt>
      <trkpt lat="61.44222" lon="5.48547">
        <ele>77.845928</ele>
        <time>2020-07-27T13:07:12.391Z</time>
      </trkpt>
      <trkpt lat="61.4422" lon="5.48572">
        <ele>77.745424</ele>
        <time>2020-07-27T13:07:14.431Z</time>
      </trkpt>
      <trkpt lat="61.44219" lon="5.48594">
        <ele>77.65778</ele>
        <time>2020-07-27T13:07:16.398Z</time>
      </trkpt>
      <trkpt lat="61.44218" lon="5.48614">
        <ele>77.578419</ele>
        <time>2020-07-27T13:07:18.398Z</time>
      </trkpt>
      <trkpt lat="61.44217" lon="5.48634">
        <ele>77.498754</ele>
        <time>2020-07-27T13:07:20.381Z</time>
      </trkpt>
      <trkpt lat="61.44216" lon="5.48653">
        <ele>77.424203</ele>
        <time>2020-07-27T13:07:22.385Z</time>
      </trkpt>
      <trkpt lat="61.44215" lon="5.48679">
        <ele>77.319011</ele>
        <time>2020-07-27T13:07:25.416Z</time>
      </trkpt>
      <trkpt lat="61.44214" lon="5.48706">
        <ele>77.212376</ele>
        <time>2020-07-27T13:07:28.381Z</time>
      </trkpt>
      <trkpt lat="61.44212" lon="5.48734">
        <ele>77.102808</ele>
        <time>2020-07-27T13:07:31.400Z</time>
      </trkpt>
      <trkpt lat="61.44211" lon="5.48759">
        <ele>77.002204</ele>
        <time>2020-07-27T13:07:34.413Z</time>
      </trkpt>
      <trkpt lat="61.4421" lon="5.4878">
        <ele>76.916351</ele>
        <time>2020-07-27T13:07:37.426Z</time>
      </trkpt>
      <trkpt lat="61.44209" lon="5.48804">
        <ele>76.824042</ele>
        <time>2020-07-27T13:07:41.420Z</time>
      </trkpt>
      <trkpt lat="61.4421" lon="5.48827">
        <ele>76.733227</ele>
        <time>2020-07-27T13:07:45.391Z</time>
      </trkpt>
      <trkpt lat="61.44209" lon="5.48849">
        <ele>76.75745</ele>
        <time>2020-07-27T13:07:49.393Z</time>
      </trkpt>
      <trkpt lat="61.44208" lon="5.48869">
        <ele>76.85443</ele>
        <time>2020-07-27T13:07:53.404Z</time>
      </trkpt>
      <trkpt lat="61.44207" lon="5.4889">
        <ele>76.958297</ele>
        <time>2020-07-27T13:07:57.398Z</time>
      </trkpt>
      <trkpt lat="61.44206" lon="5.48914">
        <ele>77.072269</ele>
        <time>2020-07-27T13:08:01.391Z</time>
      </trkpt>
      <trkpt lat="61.44205" lon="5.48936">
        <ele>77.181516</ele>
        <time>2020-07-27T13:08:05.396Z</time>
      </trkpt>
      <trkpt lat="61.44204" lon="5.48961">
        <ele>77.300608</ele>
        <time>2020-07-27T13:08:09.389Z</time>
      </trkpt>
      <trkpt lat="61.44203" lon="5.48982">
        <ele>77.402749</ele>
        <time>2020-07-27T13:08:12.405Z</time>
      </trkpt>
      <trkpt lat="61.44201" lon="5.49005">
        <ele>77.517915</ele>
        <time>2020-07-27T13:08:15.387Z</time>
      </trkpt>
      <trkpt lat="61.44199" lon="5.49033">
        <ele>77.651118</ele>
        <time>2020-07-27T13:08:18.379Z</time>
      </trkpt>
      <trkpt lat="61.44197" lon="5.49053">
        <ele>77.748974</ele>
        <time>2020-07-27T13:08:20.397Z</time>
      </trkpt>
      <trkpt lat="61.44196" lon="5.49075">
        <ele>77.857934</ele>
        <time>2020-07-27T13:08:22.409Z</time>
      </trkpt>
      <trkpt lat="61.44194" lon="5.49102">
        <ele>77.987019</ele>
        <time>2020-07-27T13:08:24.406Z</time>
      </trkpt>
      <trkpt lat="61.44191" lon="5.4913">
        <ele>78.124354</ele>
        <time>2020-07-27T13:08:26.383Z</time>
      </trkpt>
      <trkpt lat="61.44188" lon="5.49156">
        <ele>78.255134</ele>
        <time>2020-07-27T13:08:28.400Z</time>
      </trkpt>
      <trkpt lat="61.44186" lon="5.49183">
        <ele>78.388337</ele>
        <time>2020-07-27T13:08:30.383Z</time>
      </trkpt>
      <trkpt lat="61.44183" lon="5.49209">
        <ele>78.505391</ele>
        <time>2020-07-27T13:08:32.410Z</time>
      </trkpt>
      <trkpt lat="61.44181" lon="5.49234">
        <ele>78.46605</ele>
        <time>2020-07-27T13:08:34.398Z</time>
      </trkpt>
      <trkpt lat="61.44179" lon="5.49256">
        <ele>78.430829</ele>
        <time>2020-07-27T13:08:36.419Z</time>
      </trkpt>
      <trkpt lat="61.44178" lon="5.49277">
        <ele>78.398079</ele>
        <time>2020-07-27T13:08:38.392Z</time>
      </trkpt>
      <trkpt lat="61.44176" lon="5.49296">
        <ele>78.367748</ele>
        <time>2020-07-27T13:08:40.402Z</time>
      </trkpt>
      <trkpt lat="61.44174" lon="5.49323">
        <ele>78.324599</ele>
        <time>2020-07-27T13:08:43.390Z</time>
      </trkpt>
      <trkpt lat="61.44171" lon="5.49349">
        <ele>78.283115</ele>
        <time>2020-07-27T13:08:46.385Z</time>
      </trkpt>
      <trkpt lat="61.44169" lon="5.49373">
        <ele>78.244693</ele>
        <time>2020-07-27T13:08:49.422Z</time>
      </trkpt>
      <trkpt lat="61.44166" lon="5.49396">
        <ele>78.207876</ele>
        <time>2020-07-27T13:08:52.423Z</time>
      </trkpt>
      <trkpt lat="61.44163" lon="5.4942">
        <ele>78.170217</ele>
        <time>2020-07-27T13:08:55.418Z</time>
      </trkpt>
      <trkpt lat="61.44161" lon="5.49442">
        <ele>78.133779</ele>
        <time>2020-07-27T13:08:58.393Z</time>
      </trkpt>
      <trkpt lat="61.44159" lon="5.49463">
        <ele>78.100762</ele>
        <time>2020-07-27T13:09:01.392Z</time>
      </trkpt>
      <trkpt lat="61.44158" lon="5.49483">
        <ele>78.068921</ele>
        <time>2020-07-27T13:09:04.398Z</time>
      </trkpt>
      <trkpt lat="61.44155" lon="5.49503">
        <ele>78.036585</ele>
        <time>2020-07-27T13:09:07.403Z</time>
      </trkpt>
      <trkpt lat="61.44153" lon="5.49526">
        <ele>78.000746</ele>
        <time>2020-07-27T13:09:10.395Z</time>
      </trkpt>
      <trkpt lat="61.44152" lon="5.49549">
        <ele>77.964122</ele>
        <time>2020-07-27T13:09:13.399Z</time>
      </trkpt>
      <trkpt lat="61.4415" lon="5.49572">
        <ele>77.927756</ele>
        <time>2020-07-27T13:09:16.398Z</time>
      </trkpt>
      <trkpt lat="61.44148" lon="5.49595">
        <ele>78.063742</ele>
        <time>2020-07-27T13:09:19.410Z</time>
      </trkpt>
      <trkpt lat="61.44144" lon="5.49619">
        <ele>78.252243</ele>
        <time>2020-07-27T13:09:22.398Z</time>
      </trkpt>
      <trkpt lat="61.44142" lon="5.49646">
        <ele>78.453687</ele>
        <time>2020-07-27T13:09:25.390Z</time>
      </trkpt>
      <trkpt lat="61.44139" lon="5.49671">
        <ele>78.646624</ele>
        <time>2020-07-27T13:09:28.414Z</time>
      </trkpt>
      <trkpt lat="61.44136" lon="5.49697">
        <ele>78.849748</ele>
        <time>2020-07-27T13:09:31.397Z</time>
      </trkpt>
      <trkpt lat="61.44134" lon="5.49723">
        <ele>79.050326</ele>
        <time>2020-07-27T13:09:34.389Z</time>
      </trkpt>
      <trkpt lat="61.44132" lon="5.49742">
        <ele>79.192521</ele>
        <time>2020-07-27T13:09:36.404Z</time>
      </trkpt>
      <trkpt lat="61.44131" lon="5.49768">
        <ele>79.385922</ele>
        <time>2020-07-27T13:09:39.425Z</time>
      </trkpt>
      <trkpt lat="61.4413" lon="5.49793">
        <ele>79.574677</ele>
        <time>2020-07-27T13:09:42.393Z</time>
      </trkpt>
      <trkpt lat="61.44129" lon="5.49816">
        <ele>79.752895</ele>
        <time>2020-07-27T13:09:45.394Z</time>
      </trkpt>
      <trkpt lat="61.4413" lon="5.49837">
        <ele>79.910688</ele>
        <time>2020-07-27T13:09:48.391Z</time>
      </trkpt>
      <trkpt lat="61.4413" lon="5.49857">
        <ele>80.054596</ele>
        <time>2020-07-27T13:09:51.408Z</time>
      </trkpt>
      <trkpt lat="61.44132" lon="5.49875">
        <ele>80.198335</ele>
        <time>2020-07-27T13:09:54.419Z</time>
      </trkpt>
      <trkpt lat="61.44135" lon="5.499">
        <ele>80.38467</ele>
        <time>2020-07-27T13:09:58.417Z</time>
      </trkpt>
      <trkpt lat="61.44139" lon="5.49921">
        <ele>80.558985</ele>
        <time>2020-07-27T13:10:02.390Z</time>
      </trkpt>
      <trkpt lat="61.44144" lon="5.49941">
        <ele>80.727286</ele>
        <time>2020-07-27T13:10:06.394Z</time>
      </trkpt>
      <trkpt lat="61.44149" lon="5.49959">
        <ele>81.015485</ele>
        <time>2020-07-27T13:10:10.409Z</time>
      </trkpt>
      <trkpt lat="61.44153" lon="5.49976">
        <ele>81.288374</ele>
        <time>2020-07-27T13:10:14.384Z</time>
      </trkpt>
      <trkpt lat="61.4416" lon="5.49993">
        <ele>81.595992</ele>
        <time>2020-07-27T13:10:19.395Z</time>
      </trkpt>
      <trkpt lat="61.44165" lon="5.50009">
        <ele>81.885378</ele>
        <time>2020-07-27T13:10:24.415Z</time>
      </trkpt>
      <trkpt lat="61.44171" lon="5.50026">
        <ele>82.19256</ele>
        <time>2020-07-27T13:10:29.415Z</time>
      </trkpt>
      <trkpt lat="61.44177" lon="5.50043">
        <ele>82.490261</ele>
        <time>2020-07-27T13:10:34.401Z</time>
      </trkpt>
      <trkpt lat="61.44182" lon="5.50058">
        <ele>82.761085</ele>
        <time>2020-07-27T13:10:39.403Z</time>
      </trkpt>
      <trkpt lat="61.44188" lon="5.50078">
        <ele>83.091873</ele>
        <time>2020-07-27T13:10:44.415Z</time>
      </trkpt>
      <trkpt lat="61.44194" lon="5.50098">
        <ele>83.425896</ele>
        <time>2020-07-27T13:10:49.385Z</time>
      </trkpt>
      <trkpt lat="61.44196" lon="5.50116">
        <ele>83.695927</ele>
        <time>2020-07-27T13:10:53.382Z</time>
      </trkpt>
      <trkpt lat="61.44199" lon="5.50134">
        <ele>83.966</ele>
        <time>2020-07-27T13:10:57.396Z</time>
      </trkpt>
      <trkpt lat="61.442" lon="5.50154">
        <ele>84.252984</ele>
        <time>2020-07-27T13:11:01.394Z</time>
      </trkpt>
      <trkpt lat="61.44201" lon="5.50176">
        <ele>84.577809</ele>
        <time>2020-07-27T13:11:05.393Z</time>
      </trkpt>
      <trkpt lat="61.44201" lon="5.50199">
        <ele>84.90019</ele>
        <time>2020-07-27T13:11:09.393Z</time>
      </trkpt>
      <trkpt lat="61.442" lon="5.50219">
        <ele>85.189562</ele>
        <time>2020-07-27T13:11:12.393Z</time>
      </trkpt>
      <trkpt lat="61.44198" lon="5.50239">
        <ele>85.487477</ele>
        <time>2020-07-27T13:11:15.399Z</time>
      </trkpt>
      <trkpt lat="61.44196" lon="5.5026">
        <ele>85.801765</ele>
        <time>2020-07-27T13:11:18.404Z</time>
      </trkpt>
      <trkpt lat="61.44193" lon="5.50284">
        <ele>86.150928</ele>
        <time>2020-07-27T13:11:21.392Z</time>
      </trkpt>
      <trkpt lat="61.44189" lon="5.5031">
        <ele>85.933927</ele>
        <time>2020-07-27T13:11:24.407Z</time>
      </trkpt>
      <trkpt lat="61.44186" lon="5.5033">
        <ele>85.764699</ele>
        <time>2020-07-27T13:11:26.378Z</time>
      </trkpt>
      <trkpt lat="61.44183" lon="5.50351">
        <ele>85.579207</ele>
        <time>2020-07-27T13:11:28.384Z</time>
      </trkpt>
      <trkpt lat="61.44181" lon="5.50376">
        <ele>85.374609</ele>
        <time>2020-07-27T13:11:30.418Z</time>
      </trkpt>
      <trkpt lat="61.44179" lon="5.50403">
        <ele>85.147896</ele>
        <time>2020-07-27T13:11:32.374Z</time>
      </trkpt>
      <trkpt lat="61.44179" lon="5.50434">
        <ele>84.893874</ele>
        <time>2020-07-27T13:11:34.404Z</time>
      </trkpt>
      <trkpt lat="61.4418" lon="5.50469">
        <ele>84.599335</ele>
        <time>2020-07-27T13:11:36.380Z</time>
      </trkpt>
      <trkpt lat="61.44181" lon="5.50489">
        <ele>84.437787</ele>
        <time>2020-07-27T13:11:37.416Z</time>
      </trkpt>
      <trkpt lat="61.44182" lon="5.50509">
        <ele>84.271067</ele>
        <time>2020-07-27T13:11:38.413Z</time>
      </trkpt>
      <trkpt lat="61.44182" lon="5.50529">
        <ele>84.101399</ele>
        <time>2020-07-27T13:11:39.403Z</time>
      </trkpt>
      <trkpt lat="61.44182" lon="5.5055">
        <ele>83.928492</ele>
        <time>2020-07-27T13:11:40.426Z</time>
      </trkpt>
      <trkpt lat="61.44182" lon="5.50571">
        <ele>83.753104</ele>
        <time>2020-07-27T13:11:41.406Z</time>
      </trkpt>
      <trkpt lat="61.44181" lon="5.50593">
        <ele>83.570901</ele>
        <time>2020-07-27T13:11:42.403Z</time>
      </trkpt>
      <trkpt lat="61.44181" lon="5.50616">
        <ele>83.378976</ele>
        <time>2020-07-27T13:11:43.391Z</time>
      </trkpt>
      <trkpt lat="61.44181" lon="5.5064">
        <ele>83.18208</ele>
        <time>2020-07-27T13:11:44.395Z</time>
      </trkpt>
      <trkpt lat="61.44181" lon="5.50664">
        <ele>82.880058</ele>
        <time>2020-07-27T13:11:45.407Z</time>
      </trkpt>
      <trkpt lat="61.4418" lon="5.50689">
        <ele>82.352134</ele>
        <time>2020-07-27T13:11:46.428Z</time>
      </trkpt>
      <trkpt lat="61.4418" lon="5.50714">
        <ele>81.817577</ele>
        <time>2020-07-27T13:11:47.408Z</time>
      </trkpt>
      <trkpt lat="61.44179" lon="5.50739">
        <ele>81.278214</ele>
        <time>2020-07-27T13:11:48.429Z</time>
      </trkpt>
      <trkpt lat="61.44177" lon="5.50765">
        <ele>80.719355</ele>
        <time>2020-07-27T13:11:49.380Z</time>
      </trkpt>
      <trkpt lat="61.44176" lon="5.50791">
        <ele>80.145462</ele>
        <time>2020-07-27T13:11:50.383Z</time>
      </trkpt>
      <trkpt lat="61.44173" lon="5.50818">
        <ele>79.565433</ele>
        <time>2020-07-27T13:11:51.392Z</time>
      </trkpt>
      <trkpt lat="61.4417" lon="5.50844">
        <ele>78.980482</ele>
        <time>2020-07-27T13:11:52.397Z</time>
      </trkpt>
      <trkpt lat="61.44167" lon="5.50871">
        <ele>78.389183</ele>
        <time>2020-07-27T13:11:53.386Z</time>
      </trkpt>
      <trkpt lat="61.44163" lon="5.50898">
        <ele>77.789821</ele>
        <time>2020-07-27T13:11:54.416Z</time>
      </trkpt>
      <trkpt lat="61.44159" lon="5.50924">
        <ele>77.207735</ele>
        <time>2020-07-27T13:11:55.393Z</time>
      </trkpt>
      <trkpt lat="61.44157" lon="5.50949">
        <ele>76.661006</ele>
        <time>2020-07-27T13:11:56.407Z</time>
      </trkpt>
      <trkpt lat="61.44155" lon="5.50973">
        <ele>76.139316</ele>
        <time>2020-07-27T13:11:57.417Z</time>
      </trkpt>
      <trkpt lat="61.44154" lon="5.50996">
        <ele>75.639606</ele>
        <time>2020-07-27T13:11:58.399Z</time>
      </trkpt>
      <trkpt lat="61.44153" lon="5.51019">
        <ele>75.150234</ele>
        <time>2020-07-27T13:11:59.415Z</time>
      </trkpt>
      <trkpt lat="61.44153" lon="5.51042">
        <ele>74.493641</ele>
        <time>2020-07-27T13:12:00.389Z</time>
      </trkpt>
      <trkpt lat="61.44153" lon="5.51065">
        <ele>73.734427</ele>
        <time>2020-07-27T13:12:01.392Z</time>
      </trkpt>
      <trkpt lat="61.44152" lon="5.51089">
        <ele>72.975213</ele>
        <time>2020-07-27T13:12:02.390Z</time>
      </trkpt>
      <trkpt lat="61.44152" lon="5.51112">
        <ele>72.218413</ele>
        <time>2020-07-27T13:12:03.414Z</time>
      </trkpt>
      <trkpt lat="61.44151" lon="5.51136">
        <ele>71.436552</ele>
        <time>2020-07-27T13:12:04.371Z</time>
      </trkpt>
      <trkpt lat="61.44149" lon="5.5116">
        <ele>70.651761</ele>
        <time>2020-07-27T13:12:05.374Z</time>
      </trkpt>
      <trkpt lat="61.44146" lon="5.51185">
        <ele>69.857438</ele>
        <time>2020-07-27T13:12:06.385Z</time>
      </trkpt>
      <trkpt lat="61.44144" lon="5.51208">
        <ele>69.073257</ele>
        <time>2020-07-27T13:12:07.406Z</time>
      </trkpt>
      <trkpt lat="61.44142" lon="5.51231">
        <ele>68.322433</ele>
        <time>2020-07-27T13:12:08.455Z</time>
      </trkpt>
      <trkpt lat="61.4414" lon="5.51253">
        <ele>67.60237</ele>
        <time>2020-07-27T13:12:09.396Z</time>
      </trkpt>
      <trkpt lat="61.44138" lon="5.51275">
        <ele>66.881536</ele>
        <time>2020-07-27T13:12:10.400Z</time>
      </trkpt>
      <trkpt lat="61.44136" lon="5.51297">
        <ele>66.169064</ele>
        <time>2020-07-27T13:12:11.388Z</time>
      </trkpt>
      <trkpt lat="61.44134" lon="5.51318">
        <ele>65.467008</ele>
        <time>2020-07-27T13:12:12.416Z</time>
      </trkpt>
      <trkpt lat="61.44131" lon="5.51338">
        <ele>64.791655</ele>
        <time>2020-07-27T13:12:13.409Z</time>
      </trkpt>
      <trkpt lat="61.44129" lon="5.51357">
        <ele>64.160184</ele>
        <time>2020-07-27T13:12:14.412Z</time>
      </trkpt>
      <trkpt lat="61.44126" lon="5.51392">
        <ele>63.008059</ele>
        <time>2020-07-27T13:12:16.416Z</time>
      </trkpt>
      <trkpt lat="61.44123" lon="5.51423">
        <ele>62.576261</ele>
        <time>2020-07-27T13:12:18.382Z</time>
      </trkpt>
      <trkpt lat="61.44121" lon="5.51452">
        <ele>62.293414</ele>
        <time>2020-07-27T13:12:20.398Z</time>
      </trkpt>
      <trkpt lat="61.44119" lon="5.51479">
        <ele>62.024302</ele>
        <time>2020-07-27T13:12:22.359Z</time>
      </trkpt>
      <trkpt lat="61.44118" lon="5.51505">
        <ele>61.770983</ele>
        <time>2020-07-27T13:12:24.390Z</time>
      </trkpt>
      <trkpt lat="61.44117" lon="5.51529">
        <ele>61.542182</ele>
        <time>2020-07-27T13:12:26.400Z</time>
      </trkpt>
      <trkpt lat="61.44117" lon="5.5155">
        <ele>61.335944</ele>
        <time>2020-07-27T13:12:28.379Z</time>
      </trkpt>
      <trkpt lat="61.44115" lon="5.51569">
        <ele>61.15255</ele>
        <time>2020-07-27T13:12:30.392Z</time>
      </trkpt>
      <trkpt lat="61.44114" lon="5.51597">
        <ele>60.878384</ele>
        <time>2020-07-27T13:12:33.399Z</time>
      </trkpt>
      <trkpt lat="61.44113" lon="5.51624">
        <ele>60.617917</ele>
        <time>2020-07-27T13:12:36.379Z</time>
      </trkpt>
      <trkpt lat="61.44113" lon="5.51652">
        <ele>60.348107</ele>
        <time>2020-07-27T13:12:39.383Z</time>
      </trkpt>
      <trkpt lat="61.44112" lon="5.51679">
        <ele>60.080939</ele>
        <time>2020-07-27T13:12:42.391Z</time>
      </trkpt>
      <trkpt lat="61.44112" lon="5.51706">
        <ele>59.815608</ele>
        <time>2020-07-27T13:12:45.399Z</time>
      </trkpt>
      <trkpt lat="61.4411" lon="5.51734">
        <ele>59.546495</ele>
        <time>2020-07-27T13:12:48.388Z</time>
      </trkpt>
      <trkpt lat="61.44108" lon="5.51753">
        <ele>59.355079</ele>
        <time>2020-07-27T13:12:50.384Z</time>
      </trkpt>
      <trkpt lat="61.44107" lon="5.51773">
        <ele>59.2181</ele>
        <time>2020-07-27T13:12:52.422Z</time>
      </trkpt>
      <trkpt lat="61.44105" lon="5.51793">
        <ele>59.799477</ele>
        <time>2020-07-27T13:12:54.380Z</time>
      </trkpt>
      <trkpt lat="61.44104" lon="5.51812">
        <ele>60.353387</ele>
        <time>2020-07-27T13:12:56.418Z</time>
      </trkpt>
      <trkpt lat="61.44103" lon="5.51839">
        <ele>61.134899</ele>
        <time>2020-07-27T13:12:59.396Z</time>
      </trkpt>
      <trkpt lat="61.44103" lon="5.51857">
        <ele>61.677471</ele>
        <time>2020-07-27T13:13:01.428Z</time>
      </trkpt>
      <trkpt lat="61.44103" lon="5.51883">
        <ele>62.419747</ele>
        <time>2020-07-27T13:13:04.410Z</time>
      </trkpt>
      <trkpt lat="61.44106" lon="5.51909">
        <ele>63.195262</ele>
        <time>2020-07-27T13:13:07.388Z</time>
      </trkpt>
      <trkpt lat="61.44109" lon="5.51935">
        <ele>63.966429</ele>
        <time>2020-07-27T13:13:10.396Z</time>
      </trkpt>
      <trkpt lat="61.44113" lon="5.51961">
        <ele>64.753129</ele>
        <time>2020-07-27T13:13:13.407Z</time>
      </trkpt>
      <trkpt lat="61.44117" lon="5.51988">
        <ele>65.557066</ele>
        <time>2020-07-27T13:13:16.379Z</time>
      </trkpt>
      <trkpt lat="61.44119" lon="5.52008">
        <ele>66.137029</ele>
        <time>2020-07-27T13:13:18.392Z</time>
      </trkpt>
      <trkpt lat="61.4412" lon="5.52029">
        <ele>66.746926</ele>
        <time>2020-07-27T13:13:20.381Z</time>
      </trkpt>
      <trkpt lat="61.44121" lon="5.52049">
        <ele>67.328619</ele>
        <time>2020-07-27T13:13:22.389Z</time>
      </trkpt>
      <trkpt lat="61.44123" lon="5.52069">
        <ele>67.930361</ele>
        <time>2020-07-27T13:13:24.391Z</time>
      </trkpt>
      <trkpt lat="61.44122" lon="5.52092">
        <ele>68.583925</ele>
        <time>2020-07-27T13:13:26.397Z</time>
      </trkpt>
      <trkpt lat="61.44122" lon="5.52114">
        <ele>69.221693</ele>
        <time>2020-07-27T13:13:28.402Z</time>
      </trkpt>
      <trkpt lat="61.44121" lon="5.52137">
        <ele>69.874587</ele>
        <time>2020-07-27T13:13:30.402Z</time>
      </trkpt>
      <trkpt lat="61.44121" lon="5.52162">
        <ele>69.954841</ele>
        <time>2020-07-27T13:13:32.391Z</time>
      </trkpt>
      <trkpt lat="61.44118" lon="5.52192">
        <ele>69.83639</ele>
        <time>2020-07-27T13:13:34.411Z</time>
      </trkpt>
      <trkpt lat="61.44116" lon="5.52222">
        <ele>69.715246</ele>
        <time>2020-07-27T13:13:36.401Z</time>
      </trkpt>
      <trkpt lat="61.44115" lon="5.52255">
        <ele>69.584722</ele>
        <time>2020-07-27T13:13:38.381Z</time>
      </trkpt>
      <trkpt lat="61.44113" lon="5.52291">
        <ele>69.441198</ele>
        <time>2020-07-27T13:13:40.410Z</time>
      </trkpt>
      <trkpt lat="61.44111" lon="5.52327">
        <ele>69.29624</ele>
        <time>2020-07-27T13:13:42.396Z</time>
      </trkpt>
      <trkpt lat="61.4411" lon="5.52364">
        <ele>69.149299</ele>
        <time>2020-07-27T13:13:44.395Z</time>
      </trkpt>
      <trkpt lat="61.44108" lon="5.524">
        <ele>69.00592</ele>
        <time>2020-07-27T13:13:46.393Z</time>
      </trkpt>
      <trkpt lat="61.44107" lon="5.52434">
        <ele>68.869397</ele>
        <time>2020-07-27T13:13:48.409Z</time>
      </trkpt>
      <trkpt lat="61.44106" lon="5.52467">
        <ele>68.738979</ele>
        <time>2020-07-27T13:13:50.381Z</time>
      </trkpt>
      <trkpt lat="61.44106" lon="5.52498">
        <ele>68.613758</ele>
        <time>2020-07-27T13:13:52.404Z</time>
      </trkpt>
      <trkpt lat="61.44104" lon="5.52529">
        <ele>68.1744</ele>
        <time>2020-07-27T13:13:54.398Z</time>
      </trkpt>
      <trkpt lat="61.44102" lon="5.52557">
        <ele>67.32108</ele>
        <time>2020-07-27T13:13:56.392Z</time>
      </trkpt>
      <trkpt lat="61.44098" lon="5.52584">
        <ele>66.501234</ele>
        <time>2020-07-27T13:13:58.378Z</time>
      </trkpt>
      <trkpt lat="61.44095" lon="5.52609">
        <ele>65.718139</ele>
        <time>2020-07-27T13:14:00.391Z</time>
      </trkpt>
      <trkpt lat="61.44093" lon="5.52635">
        <ele>64.957456</ele>
        <time>2020-07-27T13:14:02.416Z</time>
      </trkpt>
      <trkpt lat="61.44089" lon="5.52658">
        <ele>64.232932</ele>
        <time>2020-07-27T13:14:04.393Z</time>
      </trkpt>
      <trkpt lat="61.44087" lon="5.52682">
        <ele>63.500755</ele>
        <time>2020-07-27T13:14:06.380Z</time>
      </trkpt>
      <trkpt lat="61.44085" lon="5.52706">
        <ele>62.789608</ele>
        <time>2020-07-27T13:14:08.394Z</time>
      </trkpt>
      <trkpt lat="61.44082" lon="5.52728">
        <ele>62.106739</ele>
        <time>2020-07-27T13:14:10.397Z</time>
      </trkpt>
      <trkpt lat="61.4408" lon="5.5275">
        <ele>61.461933</ele>
        <time>2020-07-27T13:14:12.411Z</time>
      </trkpt>
      <trkpt lat="61.44077" lon="5.52771">
        <ele>60.814381</ele>
        <time>2020-07-27T13:14:14.395Z</time>
      </trkpt>
      <trkpt lat="61.44074" lon="5.52792">
        <ele>60.149944</ele>
        <time>2020-07-27T13:14:16.406Z</time>
      </trkpt>
      <trkpt lat="61.44072" lon="5.52813">
        <ele>59.504379</ele>
        <time>2020-07-27T13:14:18.401Z</time>
      </trkpt>
      <trkpt lat="61.44069" lon="5.52834">
        <ele>58.867612</ele>
        <time>2020-07-27T13:14:20.402Z</time>
      </trkpt>
      <trkpt lat="61.44067" lon="5.52855">
        <ele>58.231966</ele>
        <time>2020-07-27T13:14:22.387Z</time>
      </trkpt>
      <trkpt lat="61.44064" lon="5.52875">
        <ele>57.608164</ele>
        <time>2020-07-27T13:14:24.388Z</time>
      </trkpt>
      <trkpt lat="61.4406" lon="5.52896">
        <ele>57.105044</ele>
        <time>2020-07-27T13:14:26.385Z</time>
      </trkpt>
      <trkpt lat="61.44056" lon="5.52916">
        <ele>56.686233</ele>
        <time>2020-07-27T13:14:28.397Z</time>
      </trkpt>
      <trkpt lat="61.44053" lon="5.52936">
        <ele>56.279669</ele>
        <time>2020-07-27T13:14:30.392Z</time>
      </trkpt>
      <trkpt lat="61.4405" lon="5.52957">
        <ele>55.855988</ele>
        <time>2020-07-27T13:14:32.394Z</time>
      </trkpt>
      <trkpt lat="61.44047" lon="5.52977">
        <ele>55.44639</ele>
        <time>2020-07-27T13:14:34.395Z</time>
      </trkpt>
      <trkpt lat="61.44045" lon="5.52998">
        <ele>55.034837</ele>
        <time>2020-07-27T13:14:36.386Z</time>
      </trkpt>
      <trkpt lat="61.44042" lon="5.53018">
        <ele>54.634544</ele>
        <time>2020-07-27T13:14:38.387Z</time>
      </trkpt>
      <trkpt lat="61.4404" lon="5.53038">
        <ele>54.246147</ele>
        <time>2020-07-27T13:14:40.376Z</time>
      </trkpt>
      <trkpt lat="61.44039" lon="5.53057">
        <ele>53.87233</ele>
        <time>2020-07-27T13:14:42.410Z</time>
      </trkpt>
      <trkpt lat="61.44036" lon="5.53076">
        <ele>53.495471</ele>
        <time>2020-07-27T13:14:44.387Z</time>
      </trkpt>
      <trkpt lat="61.44034" lon="5.53095">
        <ele>53.113363</ele>
        <time>2020-07-27T13:14:46.408Z</time>
      </trkpt>
      <trkpt lat="61.44032" lon="5.53115">
        <ele>52.71381</ele>
        <time>2020-07-27T13:14:48.424Z</time>
      </trkpt>
      <trkpt lat="61.4403" lon="5.53136">
        <ele>52.304428</ele>
        <time>2020-07-27T13:14:50.395Z</time>
      </trkpt>
      <trkpt lat="61.44028" lon="5.53157">
        <ele>51.891649</ele>
        <time>2020-07-27T13:14:52.397Z</time>
      </trkpt>
      <trkpt lat="61.44027" lon="5.53179">
        <ele>51.475796</ele>
        <time>2020-07-27T13:14:54.407Z</time>
      </trkpt>
      <trkpt lat="61.44025" lon="5.53199">
        <ele>51.069009</ele>
        <time>2020-07-27T13:14:56.410Z</time>
      </trkpt>
      <trkpt lat="61.44023" lon="5.5322">
        <ele>50.661523</ele>
        <time>2020-07-27T13:14:58.411Z</time>
      </trkpt>
      <trkpt lat="61.44021" lon="5.53241">
        <ele>50.255934</ele>
        <time>2020-07-27T13:15:00.391Z</time>
      </trkpt>
      <trkpt lat="61.44019" lon="5.53261">
        <ele>50.225577</ele>
        <time>2020-07-27T13:15:02.429Z</time>
      </trkpt>
      <trkpt lat="61.44018" lon="5.53282">
        <ele>50.338701</ele>
        <time>2020-07-27T13:15:04.393Z</time>
      </trkpt>
      <trkpt lat="61.44017" lon="5.53302">
        <ele>50.451526</ele>
        <time>2020-07-27T13:15:06.388Z</time>
      </trkpt>
      <trkpt lat="61.44015" lon="5.53324">
        <ele>50.568018</ele>
        <time>2020-07-27T13:15:08.390Z</time>
      </trkpt>
      <trkpt lat="61.44014" lon="5.53345">
        <ele>50.687111</ele>
        <time>2020-07-27T13:15:10.405Z</time>
      </trkpt>
      <trkpt lat="61.44014" lon="5.53368">
        <ele>50.811711</ele>
        <time>2020-07-27T13:15:12.390Z</time>
      </trkpt>
      <trkpt lat="61.44014" lon="5.53391">
        <ele>50.934078</ele>
        <time>2020-07-27T13:15:14.419Z</time>
      </trkpt>
      <trkpt lat="61.44015" lon="5.53412">
        <ele>51.053851</ele>
        <time>2020-07-27T13:15:16.395Z</time>
      </trkpt>
      <trkpt lat="61.44016" lon="5.53435">
        <ele>51.176649</ele>
        <time>2020-07-27T13:15:18.394Z</time>
      </trkpt>
      <trkpt lat="61.44017" lon="5.53458">
        <ele>51.302542</ele>
        <time>2020-07-27T13:15:20.399Z</time>
      </trkpt>
      <trkpt lat="61.4402" lon="5.5348">
        <ele>51.428</ele>
        <time>2020-07-27T13:15:22.373Z</time>
      </trkpt>
      <trkpt lat="61.44022" lon="5.53502">
        <ele>51.550739</ele>
        <time>2020-07-27T13:15:24.388Z</time>
      </trkpt>
      <trkpt lat="61.44025" lon="5.53524">
        <ele>51.673206</ele>
        <time>2020-07-27T13:15:26.405Z</time>
      </trkpt>
      <trkpt lat="61.44027" lon="5.53546">
        <ele>51.800208</ele>
        <time>2020-07-27T13:15:28.397Z</time>
      </trkpt>
      <trkpt lat="61.44029" lon="5.5357">
        <ele>51.933389</ele>
        <time>2020-07-27T13:15:30.405Z</time>
      </trkpt>
      <trkpt lat="61.44032" lon="5.53595">
        <ele>52.071836</ele>
        <time>2020-07-27T13:15:32.411Z</time>
      </trkpt>
      <trkpt lat="61.44036" lon="5.53619">
        <ele>52.209507</ele>
        <time>2020-07-27T13:15:34.413Z</time>
      </trkpt>
      <trkpt lat="61.44039" lon="5.53642">
        <ele>52.344178</ele>
        <time>2020-07-27T13:15:36.389Z</time>
      </trkpt>
      <trkpt lat="61.44042" lon="5.53664">
        <ele>52.474267</ele>
        <time>2020-07-27T13:15:38.406Z</time>
      </trkpt>
      <trkpt lat="61.44044" lon="5.53686">
        <ele>52.604367</ele>
        <time>2020-07-27T13:15:40.408Z</time>
      </trkpt>
      <trkpt lat="61.44046" lon="5.5371">
        <ele>52.739151</ele>
        <time>2020-07-27T13:15:42.392Z</time>
      </trkpt>
      <trkpt lat="61.44048" lon="5.53733">
        <ele>52.873668</ele>
        <time>2020-07-27T13:15:44.378Z</time>
      </trkpt>
      <trkpt lat="61.4405" lon="5.53757">
        <ele>53.013061</ele>
        <time>2020-07-27T13:15:46.404Z</time>
      </trkpt>
      <trkpt lat="61.44053" lon="5.53782">
        <ele>53.156377</ele>
        <time>2020-07-27T13:15:48.384Z</time>
      </trkpt>
      <trkpt lat="61.44056" lon="5.53806">
        <ele>53.294456</ele>
        <time>2020-07-27T13:15:50.397Z</time>
      </trkpt>
      <trkpt lat="61.44059" lon="5.53829">
        <ele>53.434258</ele>
        <time>2020-07-27T13:15:52.381Z</time>
      </trkpt>
      <trkpt lat="61.44062" lon="5.53853">
        <ele>53.571786</ele>
        <time>2020-07-27T13:15:54.410Z</time>
      </trkpt>
      <trkpt lat="61.44064" lon="5.53876">
        <ele>53.706622</ele>
        <time>2020-07-27T13:15:56.414Z</time>
      </trkpt>
      <trkpt lat="61.44066" lon="5.539">
        <ele>53.841224</ele>
        <time>2020-07-27T13:15:58.428Z</time>
      </trkpt>
      <trkpt lat="61.44069" lon="5.53923">
        <ele>53.975505</ele>
        <time>2020-07-27T13:16:00.393Z</time>
      </trkpt>
      <trkpt lat="61.4407" lon="5.53947">
        <ele>54.114306</ele>
        <time>2020-07-27T13:16:02.390Z</time>
      </trkpt>
      <trkpt lat="61.44072" lon="5.53969">
        <ele>54.240924</ele>
        <time>2020-07-27T13:16:04.382Z</time>
      </trkpt>
      <trkpt lat="61.44071" lon="5.53994">
        <ele>54.301382</ele>
        <time>2020-07-27T13:16:06.409Z</time>
      </trkpt>
      <trkpt lat="61.4407" lon="5.54019">
        <ele>54.218398</ele>
        <time>2020-07-27T13:16:08.421Z</time>
      </trkpt>
      <trkpt lat="61.44069" lon="5.54043">
        <ele>54.137129</ele>
        <time>2020-07-27T13:16:10.394Z</time>
      </trkpt>
      <trkpt lat="61.44068" lon="5.54066">
        <ele>54.059431</ele>
        <time>2020-07-27T13:16:12.454Z</time>
      </trkpt>
      <trkpt lat="61.44067" lon="5.54089">
        <ele>53.985102</ele>
        <time>2020-07-27T13:16:14.388Z</time>
      </trkpt>
      <trkpt lat="61.44066" lon="5.5411">
        <ele>53.912426</ele>
        <time>2020-07-27T13:16:16.397Z</time>
      </trkpt>
      <trkpt lat="61.44065" lon="5.54132">
        <ele>53.839869</ele>
        <time>2020-07-27T13:16:18.401Z</time>
      </trkpt>
      <trkpt lat="61.44064" lon="5.54154">
        <ele>53.768772</ele>
        <time>2020-07-27T13:16:20.379Z</time>
      </trkpt>
      <trkpt lat="61.44064" lon="5.54175">
        <ele>53.696756</ele>
        <time>2020-07-27T13:16:22.390Z</time>
      </trkpt>
      <trkpt lat="61.44064" lon="5.54196">
        <ele>53.626649</ele>
        <time>2020-07-27T13:16:24.411Z</time>
      </trkpt>
      <trkpt lat="61.44063" lon="5.54218">
        <ele>53.554963</ele>
        <time>2020-07-27T13:16:26.378Z</time>
      </trkpt>
      <trkpt lat="61.44062" lon="5.5424">
        <ele>53.481836</ele>
        <time>2020-07-27T13:16:28.432Z</time>
      </trkpt>
      <trkpt lat="61.44062" lon="5.54261">
        <ele>53.410072</ele>
        <time>2020-07-27T13:16:30.402Z</time>
      </trkpt>
      <trkpt lat="61.44061" lon="5.54282">
        <ele>53.340368</ele>
        <time>2020-07-27T13:16:32.387Z</time>
      </trkpt>
      <trkpt lat="61.4406" lon="5.54303">
        <ele>53.272315</ele>
        <time>2020-07-27T13:16:34.393Z</time>
      </trkpt>
      <trkpt lat="61.44059" lon="5.54323">
        <ele>53.204846</ele>
        <time>2020-07-27T13:16:36.412Z</time>
      </trkpt>
      <trkpt lat="61.44058" lon="5.54343">
        <ele>53.136793</ele>
        <time>2020-07-27T13:16:38.418Z</time>
      </trkpt>
      <trkpt lat="61.44057" lon="5.54364">
        <ele>53.143093</ele>
        <time>2020-07-27T13:16:40.404Z</time>
      </trkpt>
      <trkpt lat="61.44056" lon="5.54384">
        <ele>53.447837</ele>
        <time>2020-07-27T13:16:42.401Z</time>
      </trkpt>
      <trkpt lat="61.44054" lon="5.54402">
        <ele>53.737131</ele>
        <time>2020-07-27T13:16:44.415Z</time>
      </trkpt>
      <trkpt lat="61.44052" lon="5.5442">
        <ele>54.023241</ele>
        <time>2020-07-27T13:16:46.417Z</time>
      </trkpt>
      <trkpt lat="61.44049" lon="5.54447">
        <ele>54.432273</ele>
        <time>2020-07-27T13:16:49.412Z</time>
      </trkpt>
      <trkpt lat="61.44047" lon="5.5447">
        <ele>54.797226</ele>
        <time>2020-07-27T13:16:52.397Z</time>
      </trkpt>
      <trkpt lat="61.44045" lon="5.54492">
        <ele>55.136782</ele>
        <time>2020-07-27T13:16:55.419Z</time>
      </trkpt>
      <trkpt lat="61.44043" lon="5.54513">
        <ele>55.465207</ele>
        <time>2020-07-27T13:16:58.399Z</time>
      </trkpt>
      <trkpt lat="61.44041" lon="5.54534">
        <ele>55.791135</ele>
        <time>2020-07-27T13:17:01.401Z</time>
      </trkpt>
      <trkpt lat="61.44039" lon="5.54552">
        <ele>56.081802</ele>
        <time>2020-07-27T13:17:04.439Z</time>
      </trkpt>
      <trkpt lat="61.44038" lon="5.54576">
        <ele>56.440861</ele>
        <time>2020-07-27T13:17:08.404Z</time>
      </trkpt>
      <trkpt lat="61.44036" lon="5.54594">
        <ele>56.728655</ele>
        <time>2020-07-27T13:17:11.436Z</time>
      </trkpt>
      <trkpt lat="61.44034" lon="5.54614">
        <ele>57.035509</ele>
        <time>2020-07-27T13:17:14.401Z</time>
      </trkpt>
      <trkpt lat="61.44031" lon="5.54633">
        <ele>57.340856</ele>
        <time>2020-07-27T13:17:17.394Z</time>
      </trkpt>
      <trkpt lat="61.44029" lon="5.54656">
        <ele>57.695344</ele>
        <time>2020-07-27T13:17:21.400Z</time>
      </trkpt>
      <trkpt lat="61.44027" lon="5.54678">
        <ele>58.034456</ele>
        <time>2020-07-27T13:17:25.396Z</time>
      </trkpt>
      <trkpt lat="61.44025" lon="5.54699">
        <ele>58.374719</ele>
        <time>2020-07-27T13:17:29.427Z</time>
      </trkpt>
      <trkpt lat="61.44023" lon="5.54721">
        <ele>58.710649</ele>
        <time>2020-07-27T13:17:33.410Z</time>
      </trkpt>
      <trkpt lat="61.4402" lon="5.54743">
        <ele>59.263517</ele>
        <time>2020-07-27T13:17:37.392Z</time>
      </trkpt>
      <trkpt lat="61.44019" lon="5.54766">
        <ele>59.943291</ele>
        <time>2020-07-27T13:17:41.390Z</time>
      </trkpt>
      <trkpt lat="61.44017" lon="5.54787">
        <ele>60.557644</ele>
        <time>2020-07-27T13:17:45.385Z</time>
      </trkpt>
      <trkpt lat="61.44015" lon="5.54807">
        <ele>61.170753</ele>
        <time>2020-07-27T13:17:49.410Z</time>
      </trkpt>
      <trkpt lat="61.44012" lon="5.54829">
        <ele>61.822238</ele>
        <time>2020-07-27T13:17:53.411Z</time>
      </trkpt>
      <trkpt lat="61.44011" lon="5.5485">
        <ele>62.444517</ele>
        <time>2020-07-27T13:17:57.391Z</time>
      </trkpt>
      <trkpt lat="61.44009" lon="5.54872">
        <ele>63.090284</ele>
        <time>2020-07-27T13:18:01.393Z</time>
      </trkpt>
      <trkpt lat="61.44007" lon="5.54893">
        <ele>63.715435</ele>
        <time>2020-07-27T13:18:05.425Z</time>
      </trkpt>
      <trkpt lat="61.44004" lon="5.54913">
        <ele>64.321095</ele>
        <time>2020-07-27T13:18:09.438Z</time>
      </trkpt>
      <trkpt lat="61.44003" lon="5.54933">
        <ele>64.924432</ele>
        <time>2020-07-27T13:18:13.435Z</time>
      </trkpt>
      <trkpt lat="61.44001" lon="5.54957">
        <ele>65.6119</ele>
        <time>2020-07-27T13:18:18.386Z</time>
      </trkpt>
      <trkpt lat="61.43999" lon="5.54978">
        <ele>66.254288</ele>
        <time>2020-07-27T13:18:23.397Z</time>
      </trkpt>
      <trkpt lat="61.43999" lon="5.55">
        <ele>66.876302</ele>
        <time>2020-07-27T13:18:28.390Z</time>
      </trkpt>
      <trkpt lat="61.43996" lon="5.55019">
        <ele>67.456473</ele>
        <time>2020-07-27T13:18:33.387Z</time>
      </trkpt>
      <trkpt lat="61.43996" lon="5.55039">
        <ele>68.043245</ele>
        <time>2020-07-27T13:18:39.394Z</time>
      </trkpt>
      <trkpt lat="61.43996" lon="5.55061">
        <ele>68.670463</ele>
        <time>2020-07-27T13:18:45.396Z</time>
      </trkpt>
      <trkpt lat="61.43994" lon="5.55083">
        <ele>69.320325</ele>
        <time>2020-07-27T13:18:51.413Z</time>
      </trkpt>
      <trkpt lat="61.43992" lon="5.55104">
        <ele>69.89893</ele>
        <time>2020-07-27T13:18:57.411Z</time>
      </trkpt>
      <trkpt lat="61.43991" lon="5.55123">
        <ele>70.279734</ele>
        <time>2020-07-27T13:19:03.405Z</time>
      </trkpt>
      <trkpt lat="61.4399" lon="5.55143">
        <ele>70.685954</ele>
        <time>2020-07-27T13:19:09.410Z</time>
      </trkpt>
      <trkpt lat="61.43989" lon="5.55165">
        <ele>71.11727</ele>
        <time>2020-07-27T13:19:15.404Z</time>
      </trkpt>
      <trkpt lat="61.43988" lon="5.55184">
        <ele>71.487575</ele>
        <time>2020-07-27T13:19:20.407Z</time>
      </trkpt>
      <trkpt lat="61.43986" lon="5.55203">
        <ele>71.873725</ele>
        <time>2020-07-27T13:19:25.396Z</time>
      </trkpt>
      <trkpt lat="61.43984" lon="5.55224">
        <ele>72.284593</ele>
        <time>2020-07-27T13:19:30.411Z</time>
      </trkpt>
      <trkpt lat="61.43984" lon="5.55243">
        <ele>72.661109</ele>
        <time>2020-07-27T13:19:35.394Z</time>
      </trkpt>
      <trkpt lat="61.43982" lon="5.55262">
        <ele>73.036688</ele>
        <time>2020-07-27T13:19:39.427Z</time>
      </trkpt>
      <trkpt lat="61.43981" lon="5.55281">
        <ele>73.417914</ele>
        <time>2020-07-27T13:19:43.408Z</time>
      </trkpt>
      <trkpt lat="61.43981" lon="5.55302">
        <ele>73.824434</ele>
        <time>2020-07-27T13:19:47.440Z</time>
      </trkpt>
      <trkpt lat="61.4398" lon="5.55323">
        <ele>74.231949</ele>
        <time>2020-07-27T13:19:51.418Z</time>
      </trkpt>
      <trkpt lat="61.4398" lon="5.55343">
        <ele>74.639774</ele>
        <time>2020-07-27T13:19:55.419Z</time>
      </trkpt>
      <trkpt lat="61.43978" lon="5.55364">
        <ele>75.058035</ele>
        <time>2020-07-27T13:19:59.395Z</time>
      </trkpt>
      <trkpt lat="61.43977" lon="5.55385">
        <ele>75.469462</ele>
        <time>2020-07-27T13:20:03.390Z</time>
      </trkpt>
      <trkpt lat="61.43975" lon="5.55405">
        <ele>75.853608</ele>
        <time>2020-07-27T13:20:07.389Z</time>
      </trkpt>
      <trkpt lat="61.43974" lon="5.55423">
        <ele>76.222093</ele>
        <time>2020-07-27T13:20:11.399Z</time>
      </trkpt>
      <trkpt lat="61.43974" lon="5.55447">
        <ele>76.685561</ele>
        <time>2020-07-27T13:20:16.380Z</time>
      </trkpt>
      <trkpt lat="61.43971" lon="5.55468">
        <ele>77.123994</ele>
        <time>2020-07-27T13:20:22.386Z</time>
      </trkpt>
      <trkpt lat="61.43969" lon="5.5549">
        <ele>77.789292</ele>
        <time>2020-07-27T13:20:27.391Z</time>
      </trkpt>
      <trkpt lat="61.43968" lon="5.55511">
        <ele>78.47577</ele>
        <time>2020-07-27T13:20:32.398Z</time>
      </trkpt>
      <trkpt lat="61.43966" lon="5.55533">
        <ele>79.191779</ele>
        <time>2020-07-27T13:20:38.390Z</time>
      </trkpt>
      <trkpt lat="61.43965" lon="5.55552">
        <ele>79.809225</ele>
        <time>2020-07-27T13:20:43.379Z</time>
      </trkpt>
      <trkpt lat="61.43965" lon="5.55572">
        <ele>80.448407</ele>
        <time>2020-07-27T13:20:49.380Z</time>
      </trkpt>
      <trkpt lat="61.43964" lon="5.55592">
        <ele>81.09621</ele>
        <time>2020-07-27T13:20:55.388Z</time>
      </trkpt>
      <trkpt lat="61.43963" lon="5.55614">
        <ele>81.797076</ele>
        <time>2020-07-27T13:21:02.385Z</time>
      </trkpt>
      <trkpt lat="61.43963" lon="5.55633">
        <ele>82.408241</ele>
        <time>2020-07-27T13:21:08.392Z</time>
      </trkpt>
      <trkpt lat="61.43964" lon="5.55654">
        <ele>83.082859</ele>
        <time>2020-07-27T13:21:15.409Z</time>
      </trkpt>
      <trkpt lat="61.43963" lon="5.55673">
        <ele>83.706092</ele>
        <time>2020-07-27T13:21:21.383Z</time>
      </trkpt>
      <trkpt lat="61.43964" lon="5.55693">
        <ele>84.348591</ele>
        <time>2020-07-27T13:21:28.398Z</time>
      </trkpt>
      <trkpt lat="61.43964" lon="5.55712">
        <ele>84.961194</ele>
        <time>2020-07-27T13:21:34.394Z</time>
      </trkpt>
      <trkpt lat="61.43965" lon="5.55734">
        <ele>85.65186</ele>
        <time>2020-07-27T13:21:41.429Z</time>
      </trkpt>
      <trkpt lat="61.43966" lon="5.55755">
        <ele>86.330372</ele>
        <time>2020-07-27T13:21:48.397Z</time>
      </trkpt>
      <trkpt lat="61.43967" lon="5.55775">
        <ele>86.992923</ele>
        <time>2020-07-27T13:21:54.405Z</time>
      </trkpt>
      <trkpt lat="61.43969" lon="5.55794">
        <ele>87.611508</ele>
        <time>2020-07-27T13:22:00.409Z</time>
      </trkpt>
      <trkpt lat="61.43971" lon="5.55813">
        <ele>88.234954</ele>
        <time>2020-07-27T13:22:07.402Z</time>
      </trkpt>
      <trkpt lat="61.43972" lon="5.55834">
        <ele>88.912134</ele>
        <time>2020-07-27T13:22:15.386Z</time>
      </trkpt>
      <trkpt lat="61.43973" lon="5.55854">
        <ele>89.953059</ele>
        <time>2020-07-27T13:22:23.401Z</time>
      </trkpt>
      <trkpt lat="61.43974" lon="5.55876">
        <ele>91.583718</ele>
        <time>2020-07-27T13:22:30.396Z</time>
      </trkpt>
      <trkpt lat="61.43975" lon="5.55895">
        <ele>93.039399</ele>
        <time>2020-07-27T13:22:37.388Z</time>
      </trkpt>
      <trkpt lat="61.43979" lon="5.55913">
        <ele>94.530841</ele>
        <time>2020-07-27T13:22:42.414Z</time>
      </trkpt>
      <trkpt lat="61.43981" lon="5.55932">
        <ele>95.996309</ele>
        <time>2020-07-27T13:22:49.421Z</time>
      </trkpt>
      <trkpt lat="61.43985" lon="5.55951">
        <ele>97.598497</ele>
        <time>2020-07-27T13:22:56.396Z</time>
      </trkpt>
      <trkpt lat="61.43988" lon="5.55971">
        <ele>99.126917</ele>
        <time>2020-07-27T13:23:03.394Z</time>
      </trkpt>
      <trkpt lat="61.4399" lon="5.55989">
        <ele>100.533761</ele>
        <time>2020-07-27T13:23:10.431Z</time>
      </trkpt>
      <trkpt lat="61.43991" lon="5.56009">
        <ele>102.005636</ele>
        <time>2020-07-27T13:23:17.399Z</time>
      </trkpt>
      <trkpt lat="61.43996" lon="5.56027">
        <ele>103.531949</ele>
        <time>2020-07-27T13:23:23.403Z</time>
      </trkpt>
      <trkpt lat="61.43998" lon="5.56048">
        <ele>105.158122</ele>
        <time>2020-07-27T13:23:31.398Z</time>
      </trkpt>
      <trkpt lat="61.43999" lon="5.56066">
        <ele>106.581321</ele>
        <time>2020-07-27T13:23:38.385Z</time>
      </trkpt>
      <trkpt lat="61.44001" lon="5.56086">
        <ele>108.098794</ele>
        <time>2020-07-27T13:23:45.407Z</time>
      </trkpt>
      <trkpt lat="61.44003" lon="5.56106">
        <ele>109.631004</ele>
        <time>2020-07-27T13:23:52.403Z</time>
      </trkpt>
      <trkpt lat="61.44004" lon="5.56127">
        <ele>111.166138</ele>
        <time>2020-07-27T13:23:59.390Z</time>
      </trkpt>
      <trkpt lat="61.44006" lon="5.56147">
        <ele>112.749826</ele>
        <time>2020-07-27T13:24:06.394Z</time>
      </trkpt>
      <trkpt lat="61.44007" lon="5.56166">
        <ele>114.165384</ele>
        <time>2020-07-27T13:24:12.400Z</time>
      </trkpt>
      <trkpt lat="61.44009" lon="5.56185">
        <ele>115.648954</ele>
        <time>2020-07-27T13:24:19.412Z</time>
      </trkpt>
      <trkpt lat="61.44011" lon="5.56204">
        <ele>117.094038</ele>
        <time>2020-07-27T13:24:26.416Z</time>
      </trkpt>
      <trkpt lat="61.44012" lon="5.56225">
        <ele>118.071727</ele>
        <time>2020-07-27T13:24:34.411Z</time>
      </trkpt>
      <trkpt lat="61.44014" lon="5.56246">
        <ele>118.823404</ele>
        <time>2020-07-27T13:24:41.413Z</time>
      </trkpt>
      <trkpt lat="61.44018" lon="5.56266">
        <ele>119.578409</ele>
        <time>2020-07-27T13:24:49.410Z</time>
      </trkpt>
      <trkpt lat="61.44016" lon="5.56286">
        <ele>120.317811</ele>
        <time>2020-07-27T13:24:56.391Z</time>
      </trkpt>
      <trkpt lat="61.44015" lon="5.56308">
        <ele>121.069023</ele>
        <time>2020-07-27T13:25:04.392Z</time>
      </trkpt>
      <trkpt lat="61.44017" lon="5.56327">
        <ele>121.772141</ele>
        <time>2020-07-27T13:25:11.425Z</time>
      </trkpt>
      <trkpt lat="61.44022" lon="5.56343">
        <ele>122.436647</ele>
        <time>2020-07-27T13:25:17.390Z</time>
      </trkpt>
      <trkpt lat="61.44024" lon="5.56362">
        <ele>123.130898</ele>
        <time>2020-07-27T13:25:24.413Z</time>
      </trkpt>
      <trkpt lat="61.44024" lon="5.56381">
        <ele>123.797123</ele>
        <time>2020-07-27T13:25:31.388Z</time>
      </trkpt>
      <trkpt lat="61.44025" lon="5.564">
        <ele>124.472264</ele>
        <time>2020-07-27T13:25:37.393Z</time>
      </trkpt>
      <trkpt lat="61.44027" lon="5.56419">
        <ele>125.18949</ele>
        <time>2020-07-27T13:25:43.398Z</time>
      </trkpt>
      <trkpt lat="61.44029" lon="5.56441">
        <ele>125.95638</ele>
        <time>2020-07-27T13:25:50.399Z</time>
      </trkpt>
      <trkpt lat="61.44029" lon="5.56462">
        <ele>126.708052</ele>
        <time>2020-07-27T13:25:58.402Z</time>
      </trkpt>
      <trkpt lat="61.4403" lon="5.56482">
        <ele>127.433868</ele>
        <time>2020-07-27T13:26:06.453Z</time>
      </trkpt>
      <trkpt lat="61.44032" lon="5.56502">
        <ele>128.132634</ele>
        <time>2020-07-27T13:26:13.396Z</time>
      </trkpt>
      <trkpt lat="61.44031" lon="5.56522">
        <ele>128.855643</ele>
        <time>2020-07-27T13:26:21.397Z</time>
      </trkpt>
      <trkpt lat="61.44029" lon="5.56543">
        <ele>129.611408</ele>
        <time>2020-07-27T13:26:29.393Z</time>
      </trkpt>
      <trkpt lat="61.44027" lon="5.56561">
        <ele>130.275357</ele>
        <time>2020-07-27T13:26:36.395Z</time>
      </trkpt>
      <trkpt lat="61.44027" lon="5.56582">
        <ele>130.934021</ele>
        <time>2020-07-27T13:26:43.392Z</time>
      </trkpt>
      <trkpt lat="61.44028" lon="5.56601">
        <ele>131.223501</ele>
        <time>2020-07-27T13:26:49.388Z</time>
      </trkpt>
      <trkpt lat="61.4403" lon="5.56619">
        <ele>131.517255</ele>
        <time>2020-07-27T13:26:55.400Z</time>
      </trkpt>
      <trkpt lat="61.44032" lon="5.5664">
        <ele>131.835103</ele>
        <time>2020-07-27T13:27:02.414Z</time>
      </trkpt>
      <trkpt lat="61.44033" lon="5.56658">
        <ele>132.123059</ele>
        <time>2020-07-27T13:27:08.410Z</time>
      </trkpt>
      <trkpt lat="61.44035" lon="5.5668">
        <ele>132.456734</ele>
        <time>2020-07-27T13:27:16.411Z</time>
      </trkpt>
      <trkpt lat="61.44036" lon="5.56701">
        <ele>132.780901</ele>
        <time>2020-07-27T13:27:23.379Z</time>
      </trkpt>
      <trkpt lat="61.44037" lon="5.56721">
        <ele>133.10201</ele>
        <time>2020-07-27T13:27:30.431Z</time>
      </trkpt>
      <trkpt lat="61.4404" lon="5.5674">
        <ele>133.409717</ele>
        <time>2020-07-27T13:27:37.395Z</time>
      </trkpt>
      <trkpt lat="61.44041" lon="5.56759">
        <ele>133.699876</ele>
        <time>2020-07-27T13:27:43.423Z</time>
      </trkpt>
      <trkpt lat="61.44041" lon="5.56779">
        <ele>134.014095</ele>
        <time>2020-07-27T13:27:49.391Z</time>
      </trkpt>
      <trkpt lat="61.44041" lon="5.568">
        <ele>134.329788</ele>
        <time>2020-07-27T13:27:55.385Z</time>
      </trkpt>
      <trkpt lat="61.44042" lon="5.56821">
        <ele>134.649602</ele>
        <time>2020-07-27T13:28:01.413Z</time>
      </trkpt>
      <trkpt lat="61.44043" lon="5.5684">
        <ele>134.953758</ele>
        <time>2020-07-27T13:28:06.395Z</time>
      </trkpt>
      <trkpt lat="61.44044" lon="5.5686">
        <ele>135.257405</ele>
        <time>2020-07-27T13:28:12.407Z</time>
      </trkpt>
      <trkpt lat="61.44045" lon="5.5688">
        <ele>135.57087</ele>
        <time>2020-07-27T13:28:18.405Z</time>
      </trkpt>
      <trkpt lat="61.44045" lon="5.569">
        <ele>135.877594</ele>
        <time>2020-07-27T13:28:24.399Z</time>
      </trkpt>
      <trkpt lat="61.44046" lon="5.56921">
        <ele>136.204321</ele>
        <time>2020-07-27T13:28:30.415Z</time>
      </trkpt>
      <trkpt lat="61.44047" lon="5.56943">
        <ele>136.539192</ele>
        <time>2020-07-27T13:28:36.403Z</time>
      </trkpt>
      <trkpt lat="61.44048" lon="5.56963">
        <ele>137.378191</ele>
        <time>2020-07-27T13:28:42.428Z</time>
      </trkpt>
      <trkpt lat="61.44049" lon="5.56984">
        <ele>138.604199</ele>
        <time>2020-07-27T13:28:48.434Z</time>
      </trkpt>
      <trkpt lat="61.44049" lon="5.57005">
        <ele>139.810011</ele>
        <time>2020-07-27T13:28:54.384Z</time>
      </trkpt>
      <trkpt lat="61.4405" lon="5.57024">
        <ele>140.947784</ele>
        <time>2020-07-27T13:29:00.388Z</time>
      </trkpt>
      <trkpt lat="61.44051" lon="5.57045">
        <ele>142.163707</ele>
        <time>2020-07-27T13:29:07.414Z</time>
      </trkpt>
      <trkpt lat="61.44052" lon="5.57065">
        <ele>143.352799</ele>
        <time>2020-07-27T13:29:14.399Z</time>
      </trkpt>
      <trkpt lat="61.44052" lon="5.57086">
        <ele>144.543948</ele>
        <time>2020-07-27T13:29:21.411Z</time>
      </trkpt>
      <trkpt lat="61.44055" lon="5.57106">
        <ele>145.747634</ele>
        <time>2020-07-27T13:29:28.391Z</time>
      </trkpt>
      <trkpt lat="61.44056" lon="5.57125">
        <ele>146.895616</ele>
        <time>2020-07-27T13:29:34.421Z</time>
      </trkpt>
      <trkpt lat="61.44056" lon="5.57148">
        <ele>148.200244</ele>
        <time>2020-07-27T13:29:41.433Z</time>
      </trkpt>
      <trkpt lat="61.44057" lon="5.57168">
        <ele>149.407444</ele>
        <time>2020-07-27T13:29:47.420Z</time>
      </trkpt>
      <trkpt lat="61.44057" lon="5.57187">
        <ele>150.52009</ele>
        <time>2020-07-27T13:29:53.421Z</time>
      </trkpt>
      <trkpt lat="61.44057" lon="5.57207">
        <ele>151.661849</ele>
        <time>2020-07-27T13:30:00.394Z</time>
      </trkpt>
      <trkpt lat="61.44056" lon="5.57229">
        <ele>152.920358</ele>
        <time>2020-07-27T13:30:06.393Z</time>
      </trkpt>
      <trkpt lat="61.44056" lon="5.57249">
        <ele>154.12405</ele>
        <time>2020-07-27T13:30:12.389Z</time>
      </trkpt>
      <trkpt lat="61.44054" lon="5.57268">
        <ele>155.229281</ele>
        <time>2020-07-27T13:30:18.412Z</time>
      </trkpt>
      <trkpt lat="61.4405" lon="5.57288">
        <ele>156.454561</ele>
        <time>2020-07-27T13:30:24.432Z</time>
      </trkpt>
      <trkpt lat="61.44051" lon="5.57306">
        <ele>157.551164</ele>
        <time>2020-07-27T13:30:31.396Z</time>
      </trkpt>
      <trkpt lat="61.44051" lon="5.57327">
        <ele>158.676287</ele>
        <time>2020-07-27T13:30:38.388Z</time>
      </trkpt>
      <trkpt lat="61.4405" lon="5.57347">
        <ele>159.263257</ele>
        <time>2020-07-27T13:30:45.396Z</time>
      </trkpt>
      <trkpt lat="61.44051" lon="5.57366">
        <ele>159.842552</ele>
        <time>2020-07-27T13:30:52.394Z</time>
      </trkpt>
      <trkpt lat="61.44053" lon="5.57387">
        <ele>160.468748</ele>
        <time>2020-07-27T13:30:58.402Z</time>
      </trkpt>
      <trkpt lat="61.44054" lon="5.57408">
        <ele>161.099783</ele>
        <time>2020-07-27T13:31:05.418Z</time>
      </trkpt>
      <trkpt lat="61.44052" lon="5.57427">
        <ele>161.675371</ele>
        <time>2020-07-27T13:31:12.405Z</time>
      </trkpt>
      <trkpt lat="61.4405" lon="5.57445">
        <ele>162.248841</ele>
        <time>2020-07-27T13:31:18.409Z</time>
      </trkpt>
      <trkpt lat="61.4405" lon="5.57465">
        <ele>162.847722</ele>
        <time>2020-07-27T13:31:25.400Z</time>
      </trkpt>
      <trkpt lat="61.44051" lon="5.57485">
        <ele>163.461576</ele>
        <time>2020-07-27T13:31:32.418Z</time>
      </trkpt>
      <trkpt lat="61.44051" lon="5.57507">
        <ele>164.093859</ele>
        <time>2020-07-27T13:31:39.404Z</time>
      </trkpt>
      <trkpt lat="61.4405" lon="5.57526">
        <ele>164.675701</ele>
        <time>2020-07-27T13:31:45.411Z</time>
      </trkpt>
      <trkpt lat="61.44049" lon="5.57546">
        <ele>165.275696</ele>
        <time>2020-07-27T13:31:51.404Z</time>
      </trkpt>
      <trkpt lat="61.4405" lon="5.57567">
        <ele>165.912427</ele>
        <time>2020-07-27T13:31:58.391Z</time>
      </trkpt>
      <trkpt lat="61.44052" lon="5.57587">
        <ele>166.535407</ele>
        <time>2020-07-27T13:32:04.372Z</time>
      </trkpt>
      <trkpt lat="61.44054" lon="5.57605">
        <ele>167.097242</ele>
        <time>2020-07-27T13:32:10.393Z</time>
      </trkpt>
      <trkpt lat="61.44056" lon="5.57626">
        <ele>167.730733</ele>
        <time>2020-07-27T13:32:16.389Z</time>
      </trkpt>
      <trkpt lat="61.44057" lon="5.57648">
        <ele>168.393448</ele>
        <time>2020-07-27T13:32:22.415Z</time>
      </trkpt>
      <trkpt lat="61.44058" lon="5.5767">
        <ele>169.045022</ele>
        <time>2020-07-27T13:32:28.389Z</time>
      </trkpt>
      <trkpt lat="61.4406" lon="5.57692">
        <ele>169.711446</ele>
        <time>2020-07-27T13:32:34.386Z</time>
      </trkpt>
      <trkpt lat="61.44062" lon="5.57711">
        <ele>170.073902</ele>
        <time>2020-07-27T13:32:39.392Z</time>
      </trkpt>
      <trkpt lat="61.44063" lon="5.57732">
        <ele>170.393149</ele>
        <time>2020-07-27T13:32:44.462Z</time>
      </trkpt>
      <trkpt lat="61.44065" lon="5.57754">
        <ele>170.732138</ele>
        <time>2020-07-27T13:32:49.433Z</time>
      </trkpt>
      <trkpt lat="61.44066" lon="5.57773">
        <ele>171.018684</ele>
        <time>2020-07-27T13:32:54.400Z</time>
      </trkpt>
      <trkpt lat="61.44065" lon="5.57794">
        <ele>171.337564</ele>
        <time>2020-07-27T13:32:59.392Z</time>
      </trkpt>
      <trkpt lat="61.44064" lon="5.57815">
        <ele>171.660633</ele>
        <time>2020-07-27T13:33:04.399Z</time>
      </trkpt>
      <trkpt lat="61.44064" lon="5.57836">
        <ele>171.977602</ele>
        <time>2020-07-27T13:33:09.394Z</time>
      </trkpt>
      <trkpt lat="61.44063" lon="5.57858">
        <ele>172.305433</ele>
        <time>2020-07-27T13:33:15.429Z</time>
      </trkpt>
      <trkpt lat="61.44062" lon="5.57878">
        <ele>172.61799</ele>
        <time>2020-07-27T13:33:21.393Z</time>
      </trkpt>
      <trkpt lat="61.44062" lon="5.579">
        <ele>172.94867</ele>
        <time>2020-07-27T13:33:27.411Z</time>
      </trkpt>
      <trkpt lat="61.44061" lon="5.57922">
        <ele>173.287822</ele>
        <time>2020-07-27T13:33:33.411Z</time>
      </trkpt>
      <trkpt lat="61.4406" lon="5.57944">
        <ele>173.622979</ele>
        <time>2020-07-27T13:33:39.420Z</time>
      </trkpt>
      <trkpt lat="61.44058" lon="5.57963">
        <ele>173.911665</ele>
        <time>2020-07-27T13:33:45.408Z</time>
      </trkpt>
      <trkpt lat="61.44057" lon="5.57982">
        <ele>174.20726</ele>
        <time>2020-07-27T13:33:51.427Z</time>
      </trkpt>
      <trkpt lat="61.44057" lon="5.58001">
        <ele>174.495571</ele>
        <time>2020-07-27T13:33:57.399Z</time>
      </trkpt>
      <trkpt lat="61.44056" lon="5.5802">
        <ele>174.785466</ele>
        <time>2020-07-27T13:34:03.402Z</time>
      </trkpt>
      <trkpt lat="61.44055" lon="5.5804">
        <ele>175.093147</ele>
        <time>2020-07-27T13:34:09.407Z</time>
      </trkpt>
      <trkpt lat="61.44053" lon="5.5806">
        <ele>175.397694</ele>
        <time>2020-07-27T13:34:16.398Z</time>
      </trkpt>
      <trkpt lat="61.44052" lon="5.58079">
        <ele>175.86698</ele>
        <time>2020-07-27T13:34:23.406Z</time>
      </trkpt>
      <trkpt lat="61.44049" lon="5.58099">
        <ele>176.573643</ele>
        <time>2020-07-27T13:34:30.393Z</time>
      </trkpt>
      <trkpt lat="61.44049" lon="5.5812">
        <ele>177.271626</ele>
        <time>2020-07-27T13:34:37.400Z</time>
      </trkpt>
      <trkpt lat="61.44049" lon="5.58141">
        <ele>177.993304</ele>
        <time>2020-07-27T13:34:44.411Z</time>
      </trkpt>
      <trkpt lat="61.44048" lon="5.58161">
        <ele>178.655568</ele>
        <time>2020-07-27T13:34:51.421Z</time>
      </trkpt>
      <trkpt lat="61.44047" lon="5.58179">
        <ele>179.295541</ele>
        <time>2020-07-27T13:34:58.416Z</time>
      </trkpt>
      <trkpt lat="61.44045" lon="5.582">
        <ele>180.019371</ele>
        <time>2020-07-27T13:35:05.415Z</time>
      </trkpt>
      <trkpt lat="61.44042" lon="5.5822">
        <ele>180.722809</ele>
        <time>2020-07-27T13:35:11.394Z</time>
      </trkpt>
      <trkpt lat="61.44041" lon="5.5824">
        <ele>181.40067</ele>
        <time>2020-07-27T13:35:17.402Z</time>
      </trkpt>
      <trkpt lat="61.44039" lon="5.5826">
        <ele>182.085811</ele>
        <time>2020-07-27T13:35:23.424Z</time>
      </trkpt>
      <trkpt lat="61.44038" lon="5.5828">
        <ele>182.770984</ele>
        <time>2020-07-27T13:35:28.434Z</time>
      </trkpt>
      <trkpt lat="61.44036" lon="5.583">
        <ele>183.478964</ele>
        <time>2020-07-27T13:35:34.395Z</time>
      </trkpt>
      <trkpt lat="61.44034" lon="5.58321">
        <ele>184.181521</ele>
        <time>2020-07-27T13:35:40.420Z</time>
      </trkpt>
      <trkpt lat="61.44033" lon="5.5834">
        <ele>184.8259</ele>
        <time>2020-07-27T13:35:46.437Z</time>
      </trkpt>
      <trkpt lat="61.44031" lon="5.58361">
        <ele>185.570618</ele>
        <time>2020-07-27T13:35:53.400Z</time>
      </trkpt>
      <trkpt lat="61.44028" lon="5.58382">
        <ele>186.296976</ele>
        <time>2020-07-27T13:36:00.392Z</time>
      </trkpt>
      <trkpt lat="61.44027" lon="5.58403">
        <ele>186.998283</ele>
        <time>2020-07-27T13:36:07.405Z</time>
      </trkpt>
      <trkpt lat="61.44025" lon="5.58423">
        <ele>187.690604</ele>
        <time>2020-07-27T13:36:14.413Z</time>
      </trkpt>
      <trkpt lat="61.44023" lon="5.58443">
        <ele>188.414963</ele>
        <time>2020-07-27T13:36:21.417Z</time>
      </trkpt>
      <trkpt lat="61.44022" lon="5.58463">
        <ele>189.179849</ele>
        <time>2020-07-27T13:36:29.391Z</time>
      </trkpt>
      <trkpt lat="61.4402" lon="5.58484">
        <ele>189.987136</ele>
        <time>2020-07-27T13:36:37.382Z</time>
      </trkpt>
      <trkpt lat="61.44017" lon="5.58502">
        <ele>190.72914</ele>
        <time>2020-07-27T13:36:44.397Z</time>
      </trkpt>
      <trkpt lat="61.44014" lon="5.5852">
        <ele>191.458767</ele>
        <time>2020-07-27T13:36:51.427Z</time>
      </trkpt>
      <trkpt lat="61.44011" lon="5.58538">
        <ele>192.184596</ele>
        <time>2020-07-27T13:36:57.394Z</time>
      </trkpt>
      <trkpt lat="61.4401" lon="5.58558">
        <ele>192.959204</ele>
        <time>2020-07-27T13:37:04.407Z</time>
      </trkpt>
      <trkpt lat="61.44009" lon="5.58577">
        <ele>193.720923</ele>
        <time>2020-07-27T13:37:12.404Z</time>
      </trkpt>
      <trkpt lat="61.44006" lon="5.58598">
        <ele>194.526452</ele>
        <time>2020-07-27T13:37:20.385Z</time>
      </trkpt>
      <trkpt lat="61.44004" lon="5.58616">
        <ele>195.260722</ele>
        <time>2020-07-27T13:37:26.408Z</time>
      </trkpt>
      <trkpt lat="61.44" lon="5.58636">
        <ele>196.077867</ele>
        <time>2020-07-27T13:37:34.415Z</time>
      </trkpt>
      <trkpt lat="61.43998" lon="5.58656">
        <ele>196.897825</ele>
        <time>2020-07-27T13:37:42.402Z</time>
      </trkpt>
      <trkpt lat="61.43997" lon="5.58676">
        <ele>197.656491</ele>
        <time>2020-07-27T13:37:49.405Z</time>
      </trkpt>
      <trkpt lat="61.43997" lon="5.58697">
        <ele>198.459317</ele>
        <time>2020-07-27T13:37:56.392Z</time>
      </trkpt>
      <trkpt lat="61.43996" lon="5.58716">
        <ele>199.186771</ele>
        <time>2020-07-27T13:38:02.424Z</time>
      </trkpt>
      <trkpt lat="61.43995" lon="5.58737">
        <ele>200.019058</ele>
        <time>2020-07-27T13:38:08.430Z</time>
      </trkpt>
      <trkpt lat="61.43992" lon="5.58758">
        <ele>200.818438</ele>
        <time>2020-07-27T13:38:14.408Z</time>
      </trkpt>
      <trkpt lat="61.43989" lon="5.58778">
        <ele>201.632124</ele>
        <time>2020-07-27T13:38:20.419Z</time>
      </trkpt>
      <trkpt lat="61.43987" lon="5.58797">
        <ele>202.388954</ele>
        <time>2020-07-27T13:38:26.420Z</time>
      </trkpt>
      <trkpt lat="61.43985" lon="5.58816">
        <ele>203.164441</ele>
        <time>2020-07-27T13:38:32.392Z</time>
      </trkpt>
      <trkpt lat="61.43982" lon="5.58835">
        <ele>203.899835</ele>
        <time>2020-07-27T13:38:38.407Z</time>
      </trkpt>
      <trkpt lat="61.4398" lon="5.58854">
        <ele>204.667377</ele>
        <time>2020-07-27T13:38:44.399Z</time>
      </trkpt>
      <trkpt lat="61.43979" lon="5.58873">
        <ele>205.429494</ele>
        <time>2020-07-27T13:38:50.393Z</time>
      </trkpt>
      <trkpt lat="61.43974" lon="5.5889">
        <ele>206.174867</ele>
        <time>2020-07-27T13:38:56.397Z</time>
      </trkpt>
      <trkpt lat="61.4397" lon="5.58908">
        <ele>206.930479</ele>
        <time>2020-07-27T13:39:02.412Z</time>
      </trkpt>
      <trkpt lat="61.43967" lon="5.58927">
        <ele>207.754922</ele>
        <time>2020-07-27T13:39:10.402Z</time>
      </trkpt>
      <trkpt lat="61.43963" lon="5.58946">
        <ele>208.547392</ele>
        <time>2020-07-27T13:39:18.427Z</time>
      </trkpt>
      <trkpt lat="61.4396" lon="5.58965">
        <ele>209.312017</ele>
        <time>2020-07-27T13:39:27.407Z</time>
      </trkpt>
      <trkpt lat="61.43956" lon="5.58983">
        <ele>210.088704</ele>
        <time>2020-07-27T13:39:34.389Z</time>
      </trkpt>
      <trkpt lat="61.43951" lon="5.59001">
        <ele>210.88474</ele>
        <time>2020-07-27T13:39:41.404Z</time>
      </trkpt>
      <trkpt lat="61.43948" lon="5.59019">
        <ele>211.641992</ele>
        <time>2020-07-27T13:39:48.402Z</time>
      </trkpt>
      <trkpt lat="61.43945" lon="5.59038">
        <ele>212.443182</ele>
        <time>2020-07-27T13:39:55.410Z</time>
      </trkpt>
      <trkpt lat="61.43941" lon="5.59056">
        <ele>213.199231</ele>
        <time>2020-07-27T13:40:02.427Z</time>
      </trkpt>
      <trkpt lat="61.43936" lon="5.59073">
        <ele>213.976694</ele>
        <time>2020-07-27T13:40:10.427Z</time>
      </trkpt>
      <trkpt lat="61.43932" lon="5.5909">
        <ele>214.742819</ele>
        <time>2020-07-27T13:40:17.426Z</time>
      </trkpt>
      <trkpt lat="61.43928" lon="5.5911">
        <ele>215.549175</ele>
        <time>2020-07-27T13:40:24.403Z</time>
      </trkpt>
      <trkpt lat="61.43928" lon="5.5913">
        <ele>216.347699</ele>
        <time>2020-07-27T13:40:31.393Z</time>
      </trkpt>
      <trkpt lat="61.43925" lon="5.59149">
        <ele>217.119069</ele>
        <time>2020-07-27T13:40:39.426Z</time>
      </trkpt>
      <trkpt lat="61.43924" lon="5.59168">
        <ele>217.802368</ele>
        <time>2020-07-27T13:40:45.421Z</time>
      </trkpt>
      <trkpt lat="61.43921" lon="5.59188">
        <ele>218.525995</ele>
        <time>2020-07-27T13:40:52.405Z</time>
      </trkpt>
      <trkpt lat="61.43917" lon="5.59207">
        <ele>219.210016</ele>
        <time>2020-07-27T13:40:58.417Z</time>
      </trkpt>
      <trkpt lat="61.43914" lon="5.59228">
        <ele>219.936886</ele>
        <time>2020-07-27T13:41:04.416Z</time>
      </trkpt>
      <trkpt lat="61.43911" lon="5.59249">
        <ele>220.702474</ele>
        <time>2020-07-27T13:41:10.415Z</time>
      </trkpt>
      <trkpt lat="61.43908" lon="5.59267">
        <ele>221.341239</ele>
        <time>2020-07-27T13:41:15.417Z</time>
      </trkpt>
      <trkpt lat="61.43906" lon="5.59285">
        <ele>221.987323</ele>
        <time>2020-07-27T13:41:20.399Z</time>
      </trkpt>
      <trkpt lat="61.43902" lon="5.59305">
        <ele>222.696039</ele>
        <time>2020-07-27T13:41:25.400Z</time>
      </trkpt>
      <trkpt lat="61.439" lon="5.59323">
        <ele>223.336142</ele>
        <time>2020-07-27T13:41:29.423Z</time>
      </trkpt>
      <trkpt lat="61.43898" lon="5.59343">
        <ele>224.010869</ele>
        <time>2020-07-27T13:41:33.403Z</time>
      </trkpt>
      <trkpt lat="61.43895" lon="5.59364">
        <ele>224.759836</ele>
        <time>2020-07-27T13:41:38.429Z</time>
      </trkpt>
      <trkpt lat="61.43891" lon="5.59383">
        <ele>225.476927</ele>
        <time>2020-07-27T13:41:43.414Z</time>
      </trkpt>
      <trkpt lat="61.43888" lon="5.59403">
        <ele>226.185519</ele>
        <time>2020-07-27T13:41:48.417Z</time>
      </trkpt>
      <trkpt lat="61.43885" lon="5.59424">
        <ele>226.910228</ele>
        <time>2020-07-27T13:41:54.392Z</time>
      </trkpt>
      <trkpt lat="61.43883" lon="5.59444">
        <ele>227.610959</ele>
        <time>2020-07-27T13:42:00.392Z</time>
      </trkpt>
      <trkpt lat="61.4388" lon="5.59462">
        <ele>228.250729</ele>
        <time>2020-07-27T13:42:06.419Z</time>
      </trkpt>
      <trkpt lat="61.43878" lon="5.59482">
        <ele>228.938362</ele>
        <time>2020-07-27T13:42:13.395Z</time>
      </trkpt>
      <trkpt lat="61.43876" lon="5.59501">
        <ele>229.609455</ele>
        <time>2020-07-27T13:42:20.406Z</time>
      </trkpt>
      <trkpt lat="61.43873" lon="5.5952">
        <ele>230.260049</ele>
        <time>2020-07-27T13:42:27.391Z</time>
      </trkpt>
      <trkpt lat="61.43869" lon="5.5954">
        <ele>230.881214</ele>
        <time>2020-07-27T13:42:34.419Z</time>
      </trkpt>
      <trkpt lat="61.43867" lon="5.59559">
        <ele>231.418094</ele>
        <time>2020-07-27T13:42:40.436Z</time>
      </trkpt>
      <trkpt lat="61.43865" lon="5.59579">
        <ele>232.00989</ele>
        <time>2020-07-27T13:42:47.418Z</time>
      </trkpt>
      <trkpt lat="61.43864" lon="5.59601">
        <ele>232.623052</ele>
        <time>2020-07-27T13:42:53.422Z</time>
      </trkpt>
      <trkpt lat="61.4386" lon="5.59619">
        <ele>233.196078</ele>
        <time>2020-07-27T13:42:59.403Z</time>
      </trkpt>
      <trkpt lat="61.43857" lon="5.59638">
        <ele>233.752062</ele>
        <time>2020-07-27T13:43:05.413Z</time>
      </trkpt>
      <trkpt lat="61.43855" lon="5.5966">
        <ele>234.360909</ele>
        <time>2020-07-27T13:43:11.446Z</time>
      </trkpt>
      <trkpt lat="61.43854" lon="5.59678">
        <ele>234.902708</ele>
        <time>2020-07-27T13:43:17.418Z</time>
      </trkpt>
      <trkpt lat="61.43852" lon="5.59698">
        <ele>235.475108</ele>
        <time>2020-07-27T13:43:23.430Z</time>
      </trkpt>
      <trkpt lat="61.43851" lon="5.59718">
        <ele>236.036463</ele>
        <time>2020-07-27T13:43:28.412Z</time>
      </trkpt>
      <trkpt lat="61.4385" lon="5.5974">
        <ele>236.644674</ele>
        <time>2020-07-27T13:43:34.389Z</time>
      </trkpt>
      <trkpt lat="61.43849" lon="5.59763">
        <ele>237.296587</ele>
        <time>2020-07-27T13:43:40.422Z</time>
      </trkpt>
      <trkpt lat="61.43847" lon="5.59785">
        <ele>237.92587</ele>
        <time>2020-07-27T13:43:45.402Z</time>
      </trkpt>
      <trkpt lat="61.43846" lon="5.59807">
        <ele>238.553123</ele>
        <time>2020-07-27T13:43:50.414Z</time>
      </trkpt>
      <trkpt lat="61.43845" lon="5.59829">
        <ele>239.179212</ele>
        <time>2020-07-27T13:43:55.390Z</time>
      </trkpt>
      <trkpt lat="61.43843" lon="5.59848">
        <ele>239.717399</ele>
        <time>2020-07-27T13:44:00.412Z</time>
      </trkpt>
      <trkpt lat="61.43843" lon="5.59867">
        <ele>240.264778</ele>
        <time>2020-07-27T13:44:05.423Z</time>
      </trkpt>
      <trkpt lat="61.43841" lon="5.59887">
        <ele>240.819555</ele>
        <time>2020-07-27T13:44:10.412Z</time>
      </trkpt>
      <trkpt lat="61.4384" lon="5.59908">
        <ele>241.220649</ele>
        <time>2020-07-27T13:44:15.408Z</time>
      </trkpt>
      <trkpt lat="61.4384" lon="5.5993">
        <ele>241.647962</ele>
        <time>2020-07-27T13:44:20.421Z</time>
      </trkpt>
      <trkpt lat="61.43839" lon="5.59952">
        <ele>242.073861</ele>
        <time>2020-07-27T13:44:25.387Z</time>
      </trkpt>
      <trkpt lat="61.43839" lon="5.59974">
        <ele>242.49731</ele>
        <time>2020-07-27T13:44:30.418Z</time>
      </trkpt>
      <trkpt lat="61.43839" lon="5.59995">
        <ele>242.903372</ele>
        <time>2020-07-27T13:44:35.403Z</time>
      </trkpt>
      <trkpt lat="61.43838" lon="5.60014">
        <ele>243.279395</ele>
        <time>2020-07-27T13:44:40.432Z</time>
      </trkpt>
      <trkpt lat="61.43838" lon="5.60035">
        <ele>243.677565</ele>
        <time>2020-07-27T13:44:45.410Z</time>
      </trkpt>
      <trkpt lat="61.43837" lon="5.60055">
        <ele>244.062716</ele>
        <time>2020-07-27T13:44:50.400Z</time>
      </trkpt>
      <trkpt lat="61.43837" lon="5.60075">
        <ele>244.461051</ele>
        <time>2020-07-27T13:44:55.401Z</time>
      </trkpt>
      <trkpt lat="61.43836" lon="5.60095">
        <ele>244.849245</ele>
        <time>2020-07-27T13:45:00.398Z</time>
      </trkpt>
      <trkpt lat="61.43835" lon="5.60115">
        <ele>245.241784</ele>
        <time>2020-07-27T13:45:05.400Z</time>
      </trkpt>
      <trkpt lat="61.43834" lon="5.60136">
        <ele>245.646716</ele>
        <time>2020-07-27T13:45:10.404Z</time>
      </trkpt>
      <trkpt lat="61.43835" lon="5.60158">
        <ele>246.065152</ele>
        <time>2020-07-27T13:45:15.392Z</time>
      </trkpt>
      <trkpt lat="61.43835" lon="5.60178">
        <ele>246.461369</ele>
        <time>2020-07-27T13:45:20.404Z</time>
      </trkpt>
      <trkpt lat="61.43835" lon="5.602">
        <ele>246.890463</ele>
        <time>2020-07-27T13:45:25.403Z</time>
      </trkpt>
      <trkpt lat="61.43833" lon="5.60221">
        <ele>247.294529</ele>
        <time>2020-07-27T13:45:30.404Z</time>
      </trkpt>
      <trkpt lat="61.43832" lon="5.60244">
        <ele>247.741168</ele>
        <time>2020-07-27T13:45:35.388Z</time>
      </trkpt>
      <trkpt lat="61.43831" lon="5.60263">
        <ele>248.069199</ele>
        <time>2020-07-27T13:45:39.398Z</time>
      </trkpt>
      <trkpt lat="61.4383" lon="5.60284">
        <ele>248.251524</ele>
        <time>2020-07-27T13:45:43.393Z</time>
      </trkpt>
      <trkpt lat="61.4383" lon="5.60304">
        <ele>248.426676</ele>
        <time>2020-07-27T13:45:47.419Z</time>
      </trkpt>
      <trkpt lat="61.43829" lon="5.60325">
        <ele>248.604403</ele>
        <time>2020-07-27T13:45:52.415Z</time>
      </trkpt>
      <trkpt lat="61.43827" lon="5.60343">
        <ele>248.766665</ele>
        <time>2020-07-27T13:45:58.399Z</time>
      </trkpt>
      <trkpt lat="61.43825" lon="5.60365">
        <ele>248.959873</ele>
        <time>2020-07-27T13:46:05.458Z</time>
      </trkpt>
      <trkpt lat="61.43824" lon="5.60386">
        <ele>249.147883</ele>
        <time>2020-07-27T13:46:10.407Z</time>
      </trkpt>
      <trkpt lat="61.43821" lon="5.60408">
        <ele>249.343862</ele>
        <time>2020-07-27T13:46:15.404Z</time>
      </trkpt>
      <trkpt lat="61.4382" lon="5.6043">
        <ele>249.537317</ele>
        <time>2020-07-27T13:46:20.419Z</time>
      </trkpt>
      <trkpt lat="61.43817" lon="5.60453">
        <ele>249.738421</ele>
        <time>2020-07-27T13:46:25.425Z</time>
      </trkpt>
      <trkpt lat="61.43814" lon="5.60473">
        <ele>249.920086</ele>
        <time>2020-07-27T13:46:30.394Z</time>
      </trkpt>
      <trkpt lat="61.43812" lon="5.60494">
        <ele>250.104861</ele>
        <time>2020-07-27T13:46:35.400Z</time>
      </trkpt>
      <trkpt lat="61.43808" lon="5.60516">
        <ele>250.306982</ele>
        <time>2020-07-27T13:46:40.419Z</time>
      </trkpt>
      <trkpt lat="61.43804" lon="5.60532">
        <ele>250.470415</ele>
        <time>2020-07-27T13:46:44.408Z</time>
      </trkpt>
      <trkpt lat="61.438" lon="5.60552">
        <ele>250.657314</ele>
        <time>2020-07-27T13:46:49.396Z</time>
      </trkpt>
      <trkpt lat="61.43795" lon="5.60573">
        <ele>250.854354</ele>
        <time>2020-07-27T13:46:54.392Z</time>
      </trkpt>
      <trkpt lat="61.4379" lon="5.60593">
        <ele>251.051407</ele>
        <time>2020-07-27T13:46:59.407Z</time>
      </trkpt>
      <trkpt lat="61.43786" lon="5.60612">
        <ele>251.233002</ele>
        <time>2020-07-27T13:47:04.403Z</time>
      </trkpt>
      <trkpt lat="61.43782" lon="5.60632">
        <ele>251.679722</ele>
        <time>2020-07-27T13:47:09.400Z</time>
      </trkpt>
      <trkpt lat="61.43778" lon="5.60652">
        <ele>252.251058</ele>
        <time>2020-07-27T13:47:14.430Z</time>
      </trkpt>
      <trkpt lat="61.43774" lon="5.60671">
        <ele>252.817932</ele>
        <time>2020-07-27T13:47:19.412Z</time>
      </trkpt>
      <trkpt lat="61.43771" lon="5.60691">
        <ele>253.382546</ele>
        <time>2020-07-27T13:47:25.421Z</time>
      </trkpt>
      <trkpt lat="61.43771" lon="5.60711">
        <ele>253.923651</ele>
        <time>2020-07-27T13:47:30.400Z</time>
      </trkpt>
      <trkpt lat="61.4377" lon="5.60731">
        <ele>254.457731</ele>
        <time>2020-07-27T13:47:35.404Z</time>
      </trkpt>
      <trkpt lat="61.43768" lon="5.6075">
        <ele>254.976827</ele>
        <time>2020-07-27T13:47:40.396Z</time>
      </trkpt>
      <trkpt lat="61.43766" lon="5.60771">
        <ele>255.54988</ele>
        <time>2020-07-27T13:47:45.389Z</time>
      </trkpt>
      <trkpt lat="61.43764" lon="5.60789">
        <ele>256.070899</ele>
        <time>2020-07-27T13:47:50.411Z</time>
      </trkpt>
      <trkpt lat="61.43763" lon="5.60808">
        <ele>256.583463</ele>
        <time>2020-07-27T13:47:55.405Z</time>
      </trkpt>
      <trkpt lat="61.43763" lon="5.60828">
        <ele>257.108991</ele>
        <time>2020-07-27T13:48:00.401Z</time>
      </trkpt>
      <trkpt lat="61.43764" lon="5.60847">
        <ele>257.615424</ele>
        <time>2020-07-27T13:48:05.407Z</time>
      </trkpt>
      <trkpt lat="61.43762" lon="5.60869">
        <ele>258.218588</ele>
        <time>2020-07-27T13:48:11.400Z</time>
      </trkpt>
      <trkpt lat="61.43761" lon="5.60888">
        <ele>258.728768</ele>
        <time>2020-07-27T13:48:16.401Z</time>
      </trkpt>
      <trkpt lat="61.43761" lon="5.60908">
        <ele>259.291989</ele>
        <time>2020-07-27T13:48:22.388Z</time>
      </trkpt>
      <trkpt lat="61.43759" lon="5.6093">
        <ele>259.872528</ele>
        <time>2020-07-27T13:48:28.451Z</time>
      </trkpt>
      <trkpt lat="61.43758" lon="5.60952">
        <ele>260.467291</ele>
        <time>2020-07-27T13:48:34.388Z</time>
      </trkpt>
      <trkpt lat="61.43755" lon="5.60973">
        <ele>261.070581</ele>
        <time>2020-07-27T13:48:40.389Z</time>
      </trkpt>
      <trkpt lat="61.43753" lon="5.60992">
        <ele>261.543201</ele>
        <time>2020-07-27T13:48:45.415Z</time>
      </trkpt>
      <trkpt lat="61.43752" lon="5.61011">
        <ele>261.889287</ele>
        <time>2020-07-27T13:48:50.412Z</time>
      </trkpt>
      <trkpt lat="61.43751" lon="5.61033">
        <ele>262.311045</ele>
        <time>2020-07-27T13:48:56.407Z</time>
      </trkpt>
      <trkpt lat="61.43749" lon="5.61054">
        <ele>262.70164</ele>
        <time>2020-07-27T13:49:01.423Z</time>
      </trkpt>
      <trkpt lat="61.43749" lon="5.61074">
        <ele>263.055329</ele>
        <time>2020-07-27T13:49:06.413Z</time>
      </trkpt>
      <trkpt lat="61.43748" lon="5.61093">
        <ele>263.411855</ele>
        <time>2020-07-27T13:49:11.409Z</time>
      </trkpt>
      <trkpt lat="61.43747" lon="5.61113">
        <ele>263.788154</ele>
        <time>2020-07-27T13:49:16.403Z</time>
      </trkpt>
      <trkpt lat="61.43745" lon="5.61134">
        <ele>264.173138</ele>
        <time>2020-07-27T13:49:21.423Z</time>
      </trkpt>
      <trkpt lat="61.43743" lon="5.61155">
        <ele>264.563619</ele>
        <time>2020-07-27T13:49:26.440Z</time>
      </trkpt>
      <trkpt lat="61.43742" lon="5.61175">
        <ele>264.942118</ele>
        <time>2020-07-27T13:49:31.395Z</time>
      </trkpt>
      <trkpt lat="61.43742" lon="5.61195">
        <ele>265.315484</ele>
        <time>2020-07-27T13:49:36.418Z</time>
      </trkpt>
      <trkpt lat="61.4374" lon="5.61216">
        <ele>265.702452</ele>
        <time>2020-07-27T13:49:41.421Z</time>
      </trkpt>
      <trkpt lat="61.43739" lon="5.61235">
        <ele>266.054038</ele>
        <time>2020-07-27T13:49:46.415Z</time>
      </trkpt>
      <trkpt lat="61.43737" lon="5.61254">
        <ele>266.411455</ele>
        <time>2020-07-27T13:49:51.419Z</time>
      </trkpt>
      <trkpt lat="61.43734" lon="5.61273">
        <ele>266.770931</ele>
        <time>2020-07-27T13:49:56.390Z</time>
      </trkpt>
      <trkpt lat="61.43732" lon="5.61293">
        <ele>267.14789</ele>
        <time>2020-07-27T13:50:01.401Z</time>
      </trkpt>
      <trkpt lat="61.43731" lon="5.61315">
        <ele>267.551417</ele>
        <time>2020-07-27T13:50:06.417Z</time>
      </trkpt>
      <trkpt lat="61.43729" lon="5.61338">
        <ele>267.99487</ele>
        <time>2020-07-27T13:50:11.402Z</time>
      </trkpt>
      <trkpt lat="61.43728" lon="5.61358">
        <ele>268.334927</ele>
        <time>2020-07-27T13:50:15.390Z</time>
      </trkpt>
      <trkpt lat="61.43728" lon="5.61378">
        <ele>268.161128</ele>
        <time>2020-07-27T13:50:19.397Z</time>
      </trkpt>
      <trkpt lat="61.43728" lon="5.614">
        <ele>267.980399</ele>
        <time>2020-07-27T13:50:23.393Z</time>
      </trkpt>
      <trkpt lat="61.43728" lon="5.61422">
        <ele>267.792294</ele>
        <time>2020-07-27T13:50:27.401Z</time>
      </trkpt>
      <trkpt lat="61.43727" lon="5.61445">
        <ele>267.605496</ele>
        <time>2020-07-27T13:50:31.400Z</time>
      </trkpt>
      <trkpt lat="61.43728" lon="5.61465">
        <ele>267.432938</ele>
        <time>2020-07-27T13:50:35.410Z</time>
      </trkpt>
      <trkpt lat="61.43727" lon="5.61485">
        <ele>267.265405</ele>
        <time>2020-07-27T13:50:39.417Z</time>
      </trkpt>
      <trkpt lat="61.43728" lon="5.61507">
        <ele>267.07918</ele>
        <time>2020-07-27T13:50:43.409Z</time>
      </trkpt>
      <trkpt lat="61.43729" lon="5.61526">
        <ele>266.92036</ele>
        <time>2020-07-27T13:50:46.407Z</time>
      </trkpt>
      <trkpt lat="61.4373" lon="5.61549">
        <ele>266.729373</ele>
        <time>2020-07-27T13:50:49.402Z</time>
      </trkpt>
      <trkpt lat="61.43731" lon="5.61574">
        <ele>266.516745</ele>
        <time>2020-07-27T13:50:52.459Z</time>
      </trkpt>
      <trkpt lat="61.43731" lon="5.61601">
        <ele>266.288203</ele>
        <time>2020-07-27T13:50:55.396Z</time>
      </trkpt>
      <trkpt lat="61.43731" lon="5.61621">
        <ele>266.120273</ele>
        <time>2020-07-27T13:50:57.404Z</time>
      </trkpt>
      <trkpt lat="61.43732" lon="5.61641">
        <ele>265.949937</ele>
        <time>2020-07-27T13:50:59.395Z</time>
      </trkpt>
      <trkpt lat="61.43733" lon="5.61662">
        <ele>265.772702</ele>
        <time>2020-07-27T13:51:01.432Z</time>
      </trkpt>
      <trkpt lat="61.43733" lon="5.61684">
        <ele>265.591339</ele>
        <time>2020-07-27T13:51:03.431Z</time>
      </trkpt>
      <trkpt lat="61.43732" lon="5.61706">
        <ele>265.403136</ele>
        <time>2020-07-27T13:51:05.410Z</time>
      </trkpt>
      <trkpt lat="61.43731" lon="5.6173">
        <ele>265.201979</ele>
        <time>2020-07-27T13:51:07.402Z</time>
      </trkpt>
      <trkpt lat="61.4373" lon="5.61754">
        <ele>265.684819</ele>
        <time>2020-07-27T13:51:09.418Z</time>
      </trkpt>
      <trkpt lat="61.43729" lon="5.61778">
        <ele>266.246067</ele>
        <time>2020-07-27T13:51:11.419Z</time>
      </trkpt>
      <trkpt lat="61.43727" lon="5.618">
        <ele>266.766336</ele>
        <time>2020-07-27T13:51:13.418Z</time>
      </trkpt>
      <trkpt lat="61.43725" lon="5.61821">
        <ele>267.27613</ele>
        <time>2020-07-27T13:51:15.401Z</time>
      </trkpt>
      <trkpt lat="61.43723" lon="5.61842">
        <ele>267.767927</ele>
        <time>2020-07-27T13:51:17.414Z</time>
      </trkpt>
      <trkpt lat="61.43722" lon="5.61861">
        <ele>268.223585</ele>
        <time>2020-07-27T13:51:19.432Z</time>
      </trkpt>
      <trkpt lat="61.4372" lon="5.61884">
        <ele>268.770665</ele>
        <time>2020-07-27T13:51:22.399Z</time>
      </trkpt>
      <trkpt lat="61.43717" lon="5.61908">
        <ele>269.346208</ele>
        <time>2020-07-27T13:51:26.406Z</time>
      </trkpt>
      <trkpt lat="61.43713" lon="5.61931">
        <ele>269.901902</ele>
        <time>2020-07-27T13:51:30.422Z</time>
      </trkpt>
      <trkpt lat="61.43711" lon="5.61951">
        <ele>270.38778</ele>
        <time>2020-07-27T13:51:34.416Z</time>
      </trkpt>
      <trkpt lat="61.43708" lon="5.61972">
        <ele>270.90917</ele>
        <time>2020-07-27T13:51:39.415Z</time>
      </trkpt>
      <trkpt lat="61.43705" lon="5.61992">
        <ele>271.388302</ele>
        <time>2020-07-27T13:51:44.415Z</time>
      </trkpt>
      <trkpt lat="61.43702" lon="5.62011">
        <ele>271.856832</ele>
        <time>2020-07-27T13:51:49.431Z</time>
      </trkpt>
      <trkpt lat="61.43698" lon="5.62031">
        <ele>272.373679</ele>
        <time>2020-07-27T13:51:55.388Z</time>
      </trkpt>
      <trkpt lat="61.43695" lon="5.62051">
        <ele>272.851488</ele>
        <time>2020-07-27T13:52:01.423Z</time>
      </trkpt>
      <trkpt lat="61.43694" lon="5.62069">
        <ele>273.290295</ele>
        <time>2020-07-27T13:52:07.423Z</time>
      </trkpt>
      <trkpt lat="61.43691" lon="5.62089">
        <ele>273.773677</ele>
        <time>2020-07-27T13:52:14.405Z</time>
      </trkpt>
      <trkpt lat="61.43689" lon="5.62108">
        <ele>274.280988</ele>
        <time>2020-07-27T13:52:21.436Z</time>
      </trkpt>
      <trkpt lat="61.43686" lon="5.62127">
        <ele>274.815253</ele>
        <time>2020-07-27T13:52:27.405Z</time>
      </trkpt>
      <trkpt lat="61.43683" lon="5.62147">
        <ele>275.376235</ele>
        <time>2020-07-27T13:52:33.407Z</time>
      </trkpt>
      <trkpt lat="61.43683" lon="5.62168">
        <ele>275.955622</ele>
        <time>2020-07-27T13:52:40.398Z</time>
      </trkpt>
      <trkpt lat="61.4368" lon="5.62188">
        <ele>276.512504</ele>
        <time>2020-07-27T13:52:46.396Z</time>
      </trkpt>
      <trkpt lat="61.43681" lon="5.62209">
        <ele>277.099138</ele>
        <time>2020-07-27T13:52:53.394Z</time>
      </trkpt>
      <trkpt lat="61.43679" lon="5.6223">
        <ele>277.673535</ele>
        <time>2020-07-27T13:52:59.396Z</time>
      </trkpt>
      <trkpt lat="61.43679" lon="5.62251">
        <ele>278.23249</ele>
        <time>2020-07-27T13:53:05.412Z</time>
      </trkpt>
      <trkpt lat="61.43679" lon="5.6227">
        <ele>278.758729</ele>
        <time>2020-07-27T13:53:12.389Z</time>
      </trkpt>
      <trkpt lat="61.4368" lon="5.6229">
        <ele>279.304142</ele>
        <time>2020-07-27T13:53:18.411Z</time>
      </trkpt>
      <trkpt lat="61.43679" lon="5.62309">
        <ele>279.815138</ele>
        <time>2020-07-27T13:53:24.399Z</time>
      </trkpt>
      <trkpt lat="61.43679" lon="5.62331">
        <ele>280.412344</ele>
        <time>2020-07-27T13:53:30.404Z</time>
      </trkpt>
      <trkpt lat="61.4368" lon="5.62351">
        <ele>280.972316</ele>
        <time>2020-07-27T13:53:36.397Z</time>
      </trkpt>
      <trkpt lat="61.43681" lon="5.62373">
        <ele>281.56287</ele>
        <time>2020-07-27T13:53:42.403Z</time>
      </trkpt>
      <trkpt lat="61.43683" lon="5.62391">
        <ele>282.075452</ele>
        <time>2020-07-27T13:53:48.426Z</time>
      </trkpt>
      <trkpt lat="61.43685" lon="5.62412">
        <ele>282.644466</ele>
        <time>2020-07-27T13:53:55.401Z</time>
      </trkpt>
      <trkpt lat="61.43687" lon="5.62433">
        <ele>283.227184</ele>
        <time>2020-07-27T13:54:02.401Z</time>
      </trkpt>
      <trkpt lat="61.43687" lon="5.62453">
        <ele>283.786225</ele>
        <time>2020-07-27T13:54:08.410Z</time>
      </trkpt>
      <trkpt lat="61.43687" lon="5.62474">
        <ele>284.315279</ele>
        <time>2020-07-27T13:54:14.414Z</time>
      </trkpt>
      <trkpt lat="61.43686" lon="5.62495">
        <ele>284.693508</ele>
        <time>2020-07-27T13:54:20.406Z</time>
      </trkpt>
      <trkpt lat="61.43685" lon="5.62516">
        <ele>285.089876</ele>
        <time>2020-07-27T13:54:26.415Z</time>
      </trkpt>
      <trkpt lat="61.43685" lon="5.62537">
        <ele>285.463963</ele>
        <time>2020-07-27T13:54:32.393Z</time>
      </trkpt>
      <trkpt lat="61.43686" lon="5.62558">
        <ele>285.862566</ele>
        <time>2020-07-27T13:54:38.412Z</time>
      </trkpt>
      <trkpt lat="61.43684" lon="5.62578">
        <ele>286.221789</ele>
        <time>2020-07-27T13:54:44.394Z</time>
      </trkpt>
      <trkpt lat="61.43682" lon="5.626">
        <ele>286.634005</ele>
        <time>2020-07-27T13:54:50.409Z</time>
      </trkpt>
      <trkpt lat="61.43681" lon="5.62622">
        <ele>287.044255</ele>
        <time>2020-07-27T13:54:55.411Z</time>
      </trkpt>
      <trkpt lat="61.43679" lon="5.62644">
        <ele>287.4449</ele>
        <time>2020-07-27T13:55:00.398Z</time>
      </trkpt>
      <trkpt lat="61.43678" lon="5.62664">
        <ele>287.808319</ele>
        <time>2020-07-27T13:55:04.393Z</time>
      </trkpt>
      <trkpt lat="61.43675" lon="5.62683">
        <ele>288.177465</ele>
        <time>2020-07-27T13:55:08.390Z</time>
      </trkpt>
      <trkpt lat="61.43672" lon="5.62705">
        <ele>288.58965</ele>
        <time>2020-07-27T13:55:13.420Z</time>
      </trkpt>
      <trkpt lat="61.4367" lon="5.62727">
        <ele>289.000792</ele>
        <time>2020-07-27T13:55:18.417Z</time>
      </trkpt>
      <trkpt lat="61.43668" lon="5.62747">
        <ele>289.377412</ele>
        <time>2020-07-27T13:55:22.419Z</time>
      </trkpt>
      <trkpt lat="61.43664" lon="5.62766">
        <ele>289.748645</ele>
        <time>2020-07-27T13:55:26.413Z</time>
      </trkpt>
      <trkpt lat="61.43661" lon="5.62788">
        <ele>290.163017</ele>
        <time>2020-07-27T13:55:30.402Z</time>
      </trkpt>
      <trkpt lat="61.43659" lon="5.62811">
        <ele>290.599605</ele>
        <time>2020-07-27T13:55:34.414Z</time>
      </trkpt>
      <trkpt lat="61.43656" lon="5.62834">
        <ele>291.023848</ele>
        <time>2020-07-27T13:55:38.406Z</time>
      </trkpt>
      <trkpt lat="61.43654" lon="5.62857">
        <ele>290.906909</ele>
        <time>2020-07-27T13:55:42.415Z</time>
      </trkpt>
      <trkpt lat="61.43651" lon="5.62877">
        <ele>290.695767</ele>
        <time>2020-07-27T13:55:46.402Z</time>
      </trkpt>
      <trkpt lat="61.43649" lon="5.62896">
        <ele>290.509811</ele>
        <time>2020-07-27T13:55:50.391Z</time>
      </trkpt>
      <trkpt lat="61.43646" lon="5.62915">
        <ele>290.313252</ele>
        <time>2020-07-27T13:55:54.422Z</time>
      </trkpt>
      <trkpt lat="61.43642" lon="5.62936">
        <ele>290.099019</ele>
        <time>2020-07-27T13:55:58.410Z</time>
      </trkpt>
      <trkpt lat="61.43639" lon="5.62953">
        <ele>289.914185</ele>
        <time>2020-07-27T13:56:01.411Z</time>
      </trkpt>
      <trkpt lat="61.43636" lon="5.62976">
        <ele>289.682139</ele>
        <time>2020-07-27T13:56:05.411Z</time>
      </trkpt>
      <trkpt lat="61.43633" lon="5.63001">
        <ele>289.434355</ele>
        <time>2020-07-27T13:56:09.424Z</time>
      </trkpt>
      <trkpt lat="61.43631" lon="5.63022">
        <ele>289.2204</ele>
        <time>2020-07-27T13:56:12.408Z</time>
      </trkpt>
      <trkpt lat="61.43628" lon="5.63044">
        <ele>288.998362</ele>
        <time>2020-07-27T13:56:15.424Z</time>
      </trkpt>
      <trkpt lat="61.43626" lon="5.63067">
        <ele>288.771555</ele>
        <time>2020-07-27T13:56:18.406Z</time>
      </trkpt>
      <trkpt lat="61.43623" lon="5.63089">
        <ele>288.542385</ele>
        <time>2020-07-27T13:56:21.413Z</time>
      </trkpt>
      <trkpt lat="61.43621" lon="5.63112">
        <ele>288.316473</ele>
        <time>2020-07-27T13:56:24.394Z</time>
      </trkpt>
      <trkpt lat="61.43618" lon="5.63133">
        <ele>288.109626</ele>
        <time>2020-07-27T13:56:27.402Z</time>
      </trkpt>
      <trkpt lat="61.43615" lon="5.63154">
        <ele>287.888773</ele>
        <time>2020-07-27T13:56:31.406Z</time>
      </trkpt>
      <trkpt lat="61.43612" lon="5.63174">
        <ele>287.679395</ele>
        <time>2020-07-27T13:56:35.412Z</time>
      </trkpt>
      <trkpt lat="61.43609" lon="5.63196">
        <ele>287.459258</ele>
        <time>2020-07-27T13:56:39.433Z</time>
      </trkpt>
      <trkpt lat="61.43606" lon="5.63218">
        <ele>287.688906</ele>
        <time>2020-07-27T13:56:43.435Z</time>
      </trkpt>
      <trkpt lat="61.43604" lon="5.63242">
        <ele>288.036274</ele>
        <time>2020-07-27T13:56:47.400Z</time>
      </trkpt>
      <trkpt lat="61.43602" lon="5.63264">
        <ele>288.357878</ele>
        <time>2020-07-27T13:56:51.410Z</time>
      </trkpt>
      <trkpt lat="61.43599" lon="5.63287">
        <ele>288.699935</ele>
        <time>2020-07-27T13:56:55.408Z</time>
      </trkpt>
      <trkpt lat="61.43599" lon="5.6331">
        <ele>289.020014</ele>
        <time>2020-07-27T13:56:59.393Z</time>
      </trkpt>
      <trkpt lat="61.43599" lon="5.63332">
        <ele>289.341357</ele>
        <time>2020-07-27T13:57:03.398Z</time>
      </trkpt>
      <trkpt lat="61.43598" lon="5.63354">
        <ele>289.656631</ele>
        <time>2020-07-27T13:57:07.439Z</time>
      </trkpt>
      <trkpt lat="61.43599" lon="5.63374">
        <ele>289.947619</ele>
        <time>2020-07-27T13:57:11.404Z</time>
      </trkpt>
      <trkpt lat="61.43599" lon="5.63396">
        <ele>290.264732</ele>
        <time>2020-07-27T13:57:15.410Z</time>
      </trkpt>
      <trkpt lat="61.436" lon="5.6342">
        <ele>290.609419</ele>
        <time>2020-07-27T13:57:19.411Z</time>
      </trkpt>
      <trkpt lat="61.43602" lon="5.63443">
        <ele>290.947484</ele>
        <time>2020-07-27T13:57:23.397Z</time>
      </trkpt>
      <trkpt lat="61.43603" lon="5.63466">
        <ele>291.272926</ele>
        <time>2020-07-27T13:57:27.441Z</time>
      </trkpt>
      <trkpt lat="61.43605" lon="5.63491">
        <ele>291.634591</ele>
        <time>2020-07-27T13:57:31.405Z</time>
      </trkpt>
      <trkpt lat="61.43607" lon="5.63514">
        <ele>291.968208</ele>
        <time>2020-07-27T13:57:34.438Z</time>
      </trkpt>
      <trkpt lat="61.4361" lon="5.63537">
        <ele>292.316477</ele>
        <time>2020-07-27T13:57:37.413Z</time>
      </trkpt>
      <trkpt lat="61.43612" lon="5.63561">
        <ele>292.663198</ele>
        <time>2020-07-27T13:57:40.435Z</time>
      </trkpt>
      <trkpt lat="61.43614" lon="5.63586">
        <ele>292.55206</ele>
        <time>2020-07-27T13:57:43.402Z</time>
      </trkpt>
      <trkpt lat="61.43617" lon="5.63612">
        <ele>292.096209</ele>
        <time>2020-07-27T13:57:46.431Z</time>
      </trkpt>
      <trkpt lat="61.43619" lon="5.63637">
        <ele>291.635999</ele>
        <time>2020-07-27T13:57:49.414Z</time>
      </trkpt>
      <trkpt lat="61.43622" lon="5.63664">
        <ele>291.159354</ele>
        <time>2020-07-27T13:57:52.407Z</time>
      </trkpt>
      <trkpt lat="61.43623" lon="5.63683">
        <ele>290.821366</ele>
        <time>2020-07-27T13:57:54.413Z</time>
      </trkpt>
      <trkpt lat="61.43625" lon="5.63702">
        <ele>290.484447</ele>
        <time>2020-07-27T13:57:56.387Z</time>
      </trkpt>
      <trkpt lat="61.43626" lon="5.63721">
        <ele>290.148211</ele>
        <time>2020-07-27T13:57:58.424Z</time>
      </trkpt>
      <trkpt lat="61.43627" lon="5.63748">
        <ele>289.668538</ele>
        <time>2020-07-27T13:58:01.430Z</time>
      </trkpt>
      <trkpt lat="61.43627" lon="5.63775">
        <ele>289.204152</ele>
        <time>2020-07-27T13:58:04.401Z</time>
      </trkpt>
      <trkpt lat="61.43625" lon="5.63801">
        <ele>288.745777</ele>
        <time>2020-07-27T13:58:07.396Z</time>
      </trkpt>
      <trkpt lat="61.43625" lon="5.63826">
        <ele>288.303915</ele>
        <time>2020-07-27T13:58:10.433Z</time>
      </trkpt>
      <trkpt lat="61.43624" lon="5.63852">
        <ele>287.839962</ele>
        <time>2020-07-27T13:58:13.388Z</time>
      </trkpt>
      <trkpt lat="61.43623" lon="5.63877">
        <ele>287.406852</ele>
        <time>2020-07-27T13:58:16.396Z</time>
      </trkpt>
      <trkpt lat="61.43623" lon="5.63898">
        <ele>287.035284</ele>
        <time>2020-07-27T13:58:19.385Z</time>
      </trkpt>
      <trkpt lat="61.43622" lon="5.63922">
        <ele>286.626848</ele>
        <time>2020-07-27T13:58:23.392Z</time>
      </trkpt>
      <trkpt lat="61.43621" lon="5.63942">
        <ele>286.262326</ele>
        <time>2020-07-27T13:58:27.442Z</time>
      </trkpt>
      <trkpt lat="61.4362" lon="5.63964">
        <ele>286.160268</ele>
        <time>2020-07-27T13:58:32.377Z</time>
      </trkpt>
      <trkpt lat="61.43619" lon="5.63983">
        <ele>286.097404</ele>
        <time>2020-07-27T13:58:36.401Z</time>
      </trkpt>
      <trkpt lat="61.43616" lon="5.64005">
        <ele>286.02266</ele>
        <time>2020-07-27T13:58:40.403Z</time>
      </trkpt>
      <trkpt lat="61.43614" lon="5.64029">
        <ele>285.9432</ele>
        <time>2020-07-27T13:58:44.433Z</time>
      </trkpt>
      <trkpt lat="61.43613" lon="5.64049">
        <ele>285.8787</ele>
        <time>2020-07-27T13:58:47.401Z</time>
      </trkpt>
      <trkpt lat="61.43612" lon="5.6407">
        <ele>285.811346</ele>
        <time>2020-07-27T13:58:50.403Z</time>
      </trkpt>
      <trkpt lat="61.43611" lon="5.64089">
        <ele>285.748855</ele>
        <time>2020-07-27T13:58:53.418Z</time>
      </trkpt>
      <trkpt lat="61.43611" lon="5.64114">
        <ele>285.668816</ele>
        <time>2020-07-27T13:58:57.406Z</time>
      </trkpt>
      <trkpt lat="61.4361" lon="5.64136">
        <ele>285.596987</ele>
        <time>2020-07-27T13:59:00.415Z</time>
      </trkpt>
      <trkpt lat="61.43611" lon="5.6416">
        <ele>285.518667</ele>
        <time>2020-07-27T13:59:03.411Z</time>
      </trkpt>
      <trkpt lat="61.43612" lon="5.64187">
        <ele>285.428861</ele>
        <time>2020-07-27T13:59:06.431Z</time>
      </trkpt>
      <trkpt lat="61.43612" lon="5.64208">
        <ele>285.361221</ele>
        <time>2020-07-27T13:59:08.392Z</time>
      </trkpt>
      <trkpt lat="61.43612" lon="5.6423">
        <ele>285.29009</ele>
        <time>2020-07-27T13:59:10.409Z</time>
      </trkpt>
      <trkpt lat="61.43613" lon="5.64255">
        <ele>285.209115</ele>
        <time>2020-07-27T13:59:12.425Z</time>
      </trkpt>
      <trkpt lat="61.43613" lon="5.64283">
        <ele>285.116542</ele>
        <time>2020-07-27T13:59:14.427Z</time>
      </trkpt>
      <trkpt lat="61.43613" lon="5.64316">
        <ele>285.010004</ele>
        <time>2020-07-27T13:59:16.414Z</time>
      </trkpt>
      <trkpt lat="61.43612" lon="5.64352">
        <ele>284.007599</ele>
        <time>2020-07-27T13:59:18.389Z</time>
      </trkpt>
      <trkpt lat="61.43612" lon="5.64388">
        <ele>282.923686</ele>
        <time>2020-07-27T13:59:20.423Z</time>
      </trkpt>
      <trkpt lat="61.43612" lon="5.64407">
        <ele>282.357592</ele>
        <time>2020-07-27T13:59:21.395Z</time>
      </trkpt>
      <trkpt lat="61.43613" lon="5.64427">
        <ele>281.770914</ele>
        <time>2020-07-27T13:59:22.405Z</time>
      </trkpt>
      <trkpt lat="61.43613" lon="5.64448">
        <ele>281.154767</ele>
        <time>2020-07-27T13:59:23.419Z</time>
      </trkpt>
      <trkpt lat="61.43612" lon="5.64468">
        <ele>280.538495</ele>
        <time>2020-07-27T13:59:24.394Z</time>
      </trkpt>
      <trkpt lat="61.43612" lon="5.64489">
        <ele>279.913387</ele>
        <time>2020-07-27T13:59:25.450Z</time>
      </trkpt>
      <trkpt lat="61.43612" lon="5.6451">
        <ele>279.291163</ele>
        <time>2020-07-27T13:59:26.432Z</time>
      </trkpt>
      <trkpt lat="61.43612" lon="5.64531">
        <ele>278.669063</ele>
        <time>2020-07-27T13:59:27.395Z</time>
      </trkpt>
      <trkpt lat="61.43612" lon="5.64552">
        <ele>278.049939</ele>
        <time>2020-07-27T13:59:28.412Z</time>
      </trkpt>
      <trkpt lat="61.43612" lon="5.64573">
        <ele>277.43351</ele>
        <time>2020-07-27T13:59:29.411Z</time>
      </trkpt>
      <trkpt lat="61.43614" lon="5.64593">
        <ele>276.812071</ele>
        <time>2020-07-27T13:59:30.390Z</time>
      </trkpt>
      <trkpt lat="61.43616" lon="5.64614">
        <ele>276.195137</ele>
        <time>2020-07-27T13:59:31.391Z</time>
      </trkpt>
      <trkpt lat="61.43618" lon="5.64634">
        <ele>275.568293</ele>
        <time>2020-07-27T13:59:32.409Z</time>
      </trkpt>
      <trkpt lat="61.43621" lon="5.64654">
        <ele>274.946968</ele>
        <time>2020-07-27T13:59:33.393Z</time>
      </trkpt>
      <trkpt lat="61.43625" lon="5.64673">
        <ele>274.334475</ele>
        <time>2020-07-27T13:59:34.391Z</time>
      </trkpt>
      <trkpt lat="61.4363" lon="5.64692">
        <ele>273.71223</ele>
        <time>2020-07-27T13:59:35.424Z</time>
      </trkpt>
      <trkpt lat="61.43634" lon="5.64711">
        <ele>273.104889</ele>
        <time>2020-07-27T13:59:36.419Z</time>
      </trkpt>
      <trkpt lat="61.43639" lon="5.6473">
        <ele>272.505165</ele>
        <time>2020-07-27T13:59:37.436Z</time>
      </trkpt>
      <trkpt lat="61.43644" lon="5.6475">
        <ele>271.892164</ele>
        <time>2020-07-27T13:59:38.401Z</time>
      </trkpt>
      <trkpt lat="61.43649" lon="5.64769">
        <ele>271.274711</ele>
        <time>2020-07-27T13:59:39.410Z</time>
      </trkpt>
      <trkpt lat="61.43654" lon="5.64789">
        <ele>270.652106</ele>
        <time>2020-07-27T13:59:40.400Z</time>
      </trkpt>
      <trkpt lat="61.43659" lon="5.64809">
        <ele>270.021852</ele>
        <time>2020-07-27T13:59:41.418Z</time>
      </trkpt>
      <trkpt lat="61.43664" lon="5.6483">
        <ele>269.379192</ele>
        <time>2020-07-27T13:59:42.429Z</time>
      </trkpt>
      <trkpt lat="61.43669" lon="5.64851">
        <ele>268.709024</ele>
        <time>2020-07-27T13:59:43.438Z</time>
      </trkpt>
      <trkpt lat="61.43674" lon="5.64873">
        <ele>268.031176</ele>
        <time>2020-07-27T13:59:44.407Z</time>
      </trkpt>
      <trkpt lat="61.43679" lon="5.64895">
        <ele>267.366033</ele>
        <time>2020-07-27T13:59:45.412Z</time>
      </trkpt>
      <trkpt lat="61.43684" lon="5.64916">
        <ele>266.693302</ele>
        <time>2020-07-27T13:59:46.398Z</time>
      </trkpt>
      <trkpt lat="61.43689" lon="5.64938">
        <ele>266.028183</ele>
        <time>2020-07-27T13:59:47.412Z</time>
      </trkpt>
      <trkpt lat="61.43693" lon="5.64959">
        <ele>265.375642</ele>
        <time>2020-07-27T13:59:48.426Z</time>
      </trkpt>
      <trkpt lat="61.43698" lon="5.6498">
        <ele>264.735668</ele>
        <time>2020-07-27T13:59:49.437Z</time>
      </trkpt>
      <trkpt lat="61.43703" lon="5.65001">
        <ele>264.095579</ele>
        <time>2020-07-27T13:59:50.416Z</time>
      </trkpt>
      <trkpt lat="61.43707" lon="5.65022">
        <ele>263.430425</ele>
        <time>2020-07-27T13:59:51.409Z</time>
      </trkpt>
      <trkpt lat="61.43712" lon="5.65045">
        <ele>262.82819</ele>
        <time>2020-07-27T13:59:52.410Z</time>
      </trkpt>
      <trkpt lat="61.43716" lon="5.65069">
        <ele>262.230639</ele>
        <time>2020-07-27T13:59:53.408Z</time>
      </trkpt>
      <trkpt lat="61.4372" lon="5.65094">
        <ele>261.616805</ele>
        <time>2020-07-27T13:59:54.419Z</time>
      </trkpt>
      <trkpt lat="61.43724" lon="5.65119">
        <ele>260.990218</ele>
        <time>2020-07-27T13:59:55.419Z</time>
      </trkpt>
      <trkpt lat="61.43728" lon="5.65143">
        <ele>260.373219</ele>
        <time>2020-07-27T13:59:56.404Z</time>
      </trkpt>
      <trkpt lat="61.43732" lon="5.65168">
        <ele>259.761626</ele>
        <time>2020-07-27T13:59:57.432Z</time>
      </trkpt>
      <trkpt lat="61.43735" lon="5.65192">
        <ele>259.167258</ele>
        <time>2020-07-27T13:59:58.398Z</time>
      </trkpt>
      <trkpt lat="61.43739" lon="5.65215">
        <ele>258.589429</ele>
        <time>2020-07-27T13:59:59.443Z</time>
      </trkpt>
      <trkpt lat="61.43743" lon="5.65238">
        <ele>258.036865</ele>
        <time>2020-07-27T14:00:00.415Z</time>
      </trkpt>
      <trkpt lat="61.43746" lon="5.65259">
        <ele>257.500836</ele>
        <time>2020-07-27T14:00:01.392Z</time>
      </trkpt>
      <trkpt lat="61.4375" lon="5.6528">
        <ele>256.967721</ele>
        <time>2020-07-27T14:00:02.432Z</time>
      </trkpt>
      <trkpt lat="61.43752" lon="5.65302">
        <ele>256.446722</ele>
        <time>2020-07-27T14:00:03.411Z</time>
      </trkpt>
      <trkpt lat="61.43754" lon="5.65322">
        <ele>255.963408</ele>
        <time>2020-07-27T14:00:04.398Z</time>
      </trkpt>
      <trkpt lat="61.43754" lon="5.65341">
        <ele>255.506661</ele>
        <time>2020-07-27T14:00:05.474Z</time>
      </trkpt>
      <trkpt lat="61.43754" lon="5.65375">
        <ele>254.716134</ele>
        <time>2020-07-27T14:00:07.396Z</time>
      </trkpt>
      <trkpt lat="61.43754" lon="5.65401">
        <ele>254.466364</ele>
        <time>2020-07-27T14:00:09.404Z</time>
      </trkpt>
      <trkpt lat="61.43754" lon="5.65426">
        <ele>254.546001</ele>
        <time>2020-07-27T14:00:12.397Z</time>
      </trkpt>
      <trkpt lat="61.43753" lon="5.6545">
        <ele>254.618443</ele>
        <time>2020-07-27T14:00:16.451Z</time>
      </trkpt>
      <trkpt lat="61.43754" lon="5.65471">
        <ele>254.683943</ele>
        <time>2020-07-27T14:00:20.405Z</time>
      </trkpt>
      <trkpt lat="61.43755" lon="5.6549">
        <ele>254.743539</ele>
        <time>2020-07-27T14:00:23.421Z</time>
      </trkpt>
      <trkpt lat="61.43756" lon="5.65513">
        <ele>254.817125</ele>
        <time>2020-07-27T14:00:26.396Z</time>
      </trkpt>
      <trkpt lat="61.43758" lon="5.6554">
        <ele>254.901311</ele>
        <time>2020-07-27T14:00:29.436Z</time>
      </trkpt>
      <trkpt lat="61.43761" lon="5.65558">
        <ele>254.960842</ele>
        <time>2020-07-27T14:00:31.427Z</time>
      </trkpt>
      <trkpt lat="61.43764" lon="5.65577">
        <ele>255.02321</ele>
        <time>2020-07-27T14:00:33.418Z</time>
      </trkpt>
      <trkpt lat="61.43768" lon="5.65596">
        <ele>255.088265</ele>
        <time>2020-07-27T14:00:35.398Z</time>
      </trkpt>
      <trkpt lat="61.43773" lon="5.65613">
        <ele>255.153641</ele>
        <time>2020-07-27T14:00:37.416Z</time>
      </trkpt>
      <trkpt lat="61.43779" lon="5.6563">
        <ele>255.217941</ele>
        <time>2020-07-27T14:00:39.407Z</time>
      </trkpt>
      <trkpt lat="61.43786" lon="5.65644">
        <ele>255.278853</ele>
        <time>2020-07-27T14:00:41.420Z</time>
      </trkpt>
      <trkpt lat="61.43793" lon="5.65657">
        <ele>255.339843</ele>
        <time>2020-07-27T14:00:43.408Z</time>
      </trkpt>
      <trkpt lat="61.438" lon="5.65669">
        <ele>255.399241</ele>
        <time>2020-07-27T14:00:45.421Z</time>
      </trkpt>
      <trkpt lat="61.43811" lon="5.65683">
        <ele>255.484583</ele>
        <time>2020-07-27T14:00:48.423Z</time>
      </trkpt>
      <trkpt lat="61.43821" lon="5.65694">
        <ele>255.558211</ele>
        <time>2020-07-27T14:00:51.398Z</time>
      </trkpt>
      <trkpt lat="61.4383" lon="5.65701">
        <ele>255.777151</ele>
        <time>2020-07-27T14:00:54.409Z</time>
      </trkpt>
      <trkpt lat="61.43842" lon="5.65704">
        <ele>256.316391</ele>
        <time>2020-07-27T14:00:57.406Z</time>
      </trkpt>
      <trkpt lat="61.43852" lon="5.65705">
        <ele>256.777507</ele>
        <time>2020-07-27T14:01:00.402Z</time>
      </trkpt>
      <trkpt lat="61.43861" lon="5.65704">
        <ele>257.197632</ele>
        <time>2020-07-27T14:01:03.408Z</time>
      </trkpt>
      <trkpt lat="61.43873" lon="5.657">
        <ele>257.719764</ele>
        <time>2020-07-27T14:01:07.402Z</time>
      </trkpt>
      <trkpt lat="61.43883" lon="5.65692">
        <ele>258.230655</ele>
        <time>2020-07-27T14:01:11.458Z</time>
      </trkpt>
      <trkpt lat="61.43894" lon="5.65682">
        <ele>258.760081</ele>
        <time>2020-07-27T14:01:15.478Z</time>
      </trkpt>
      <trkpt lat="61.43902" lon="5.65673">
        <ele>259.177764</ele>
        <time>2020-07-27T14:01:18.412Z</time>
      </trkpt>
      <trkpt lat="61.43912" lon="5.65661">
        <ele>259.697267</ele>
        <time>2020-07-27T14:01:22.421Z</time>
      </trkpt>
      <trkpt lat="61.43921" lon="5.6565">
        <ele>260.181805</ele>
        <time>2020-07-27T14:01:26.431Z</time>
      </trkpt>
      <trkpt lat="61.43931" lon="5.65642">
        <ele>260.672937</ele>
        <time>2020-07-27T14:01:30.419Z</time>
      </trkpt>
      <trkpt lat="61.4394" lon="5.65633">
        <ele>261.122333</ele>
        <time>2020-07-27T14:01:34.407Z</time>
      </trkpt>
      <trkpt lat="61.43948" lon="5.65622">
        <ele>261.560839</ele>
        <time>2020-07-27T14:01:38.414Z</time>
      </trkpt>
      <trkpt lat="61.43956" lon="5.65611">
        <ele>262.011526</ele>
        <time>2020-07-27T14:01:42.419Z</time>
      </trkpt>
      <trkpt lat="61.43963" lon="5.65595">
        <ele>262.491146</ele>
        <time>2020-07-27T14:01:46.390Z</time>
      </trkpt>
      <trkpt lat="61.43971" lon="5.65578">
        <ele>262.999217</ele>
        <time>2020-07-27T14:01:50.400Z</time>
      </trkpt>
      <trkpt lat="61.43977" lon="5.65563">
        <ele>263.422548</ele>
        <time>2020-07-27T14:01:53.393Z</time>
      </trkpt>
      <trkpt lat="61.43982" lon="5.65545">
        <ele>263.789305</ele>
        <time>2020-07-27T14:01:56.437Z</time>
      </trkpt>
      <trkpt lat="61.43988" lon="5.65524">
        <ele>263.679321</ele>
        <time>2020-07-27T14:01:59.403Z</time>
      </trkpt>
      <trkpt lat="61.43992" lon="5.65502">
        <ele>263.566412</ele>
        <time>2020-07-27T14:02:02.412Z</time>
      </trkpt>
      <trkpt lat="61.43995" lon="5.65479">
        <ele>263.454891</ele>
        <time>2020-07-27T14:02:05.414Z</time>
      </trkpt>
      <trkpt lat="61.43998" lon="5.65458">
        <ele>263.355313</ele>
        <time>2020-07-27T14:02:08.414Z</time>
      </trkpt>
      <trkpt lat="61.44001" lon="5.65438">
        <ele>263.255518</ele>
        <time>2020-07-27T14:02:12.396Z</time>
      </trkpt>
      <trkpt lat="61.44002" lon="5.65411">
        <ele>263.125356</ele>
        <time>2020-07-27T14:04:53.433Z</time>
      </trkpt>
      <trkpt lat="61.44005" lon="5.65387">
        <ele>263.01051</ele>
        <time>2020-07-27T14:04:58.398Z</time>
      </trkpt>
      <trkpt lat="61.44008" lon="5.65368">
        <ele>262.91884</ele>
        <time>2020-07-27T14:05:01.393Z</time>
      </trkpt>
      <trkpt lat="61.44012" lon="5.65349">
        <ele>262.82017</ele>
        <time>2020-07-27T14:05:04.401Z</time>
      </trkpt>
      <trkpt lat="61.44017" lon="5.65329">
        <ele>262.71396</ele>
        <time>2020-07-27T14:05:07.408Z</time>
      </trkpt>
      <trkpt lat="61.44025" lon="5.65305">
        <ele>262.57914</ele>
        <time>2020-07-27T14:05:10.415Z</time>
      </trkpt>
      <trkpt lat="61.44033" lon="5.65289">
        <ele>262.467878</ele>
        <time>2020-07-27T14:05:12.411Z</time>
      </trkpt>
      <trkpt lat="61.44044" lon="5.65278">
        <ele>262.345594</ele>
        <time>2020-07-27T14:05:14.395Z</time>
      </trkpt>
      <trkpt lat="61.44059" lon="5.65265">
        <ele>262.189534</ele>
        <time>2020-07-27T14:05:16.420Z</time>
      </trkpt>
      <trkpt lat="61.44076" lon="5.65248">
        <ele>262.226542</ele>
        <time>2020-07-27T14:05:18.397Z</time>
      </trkpt>
      <trkpt lat="61.44085" lon="5.65241">
        <ele>262.689584</ele>
        <time>2020-07-27T14:05:19.389Z</time>
      </trkpt>
      <trkpt lat="61.44095" lon="5.65233">
        <ele>263.174196</ele>
        <time>2020-07-27T14:05:20.431Z</time>
      </trkpt>
      <trkpt lat="61.44105" lon="5.65225">
        <ele>263.677622</ele>
        <time>2020-07-27T14:05:21.426Z</time>
      </trkpt>
      <trkpt lat="61.44115" lon="5.65218">
        <ele>264.168067</ele>
        <time>2020-07-27T14:05:22.420Z</time>
      </trkpt>
      <trkpt lat="61.44126" lon="5.65211">
        <ele>264.658827</ele>
        <time>2020-07-27T14:05:23.406Z</time>
      </trkpt>
      <trkpt lat="61.44136" lon="5.65206">
        <ele>265.153972</ele>
        <time>2020-07-27T14:05:24.412Z</time>
      </trkpt>
      <trkpt lat="61.44146" lon="5.65202">
        <ele>265.636539</ele>
        <time>2020-07-27T14:05:25.443Z</time>
      </trkpt>
      <trkpt lat="61.44156" lon="5.65199">
        <ele>266.102484</ele>
        <time>2020-07-27T14:05:26.412Z</time>
      </trkpt>
      <trkpt lat="61.44166" lon="5.65196">
        <ele>266.538604</ele>
        <time>2020-07-27T14:05:27.394Z</time>
      </trkpt>
      <trkpt lat="61.44182" lon="5.6519">
        <ele>267.282218</ele>
        <time>2020-07-27T14:05:29.408Z</time>
      </trkpt>
      <trkpt lat="61.44194" lon="5.65188">
        <ele>267.869119</ele>
        <time>2020-07-27T14:05:31.443Z</time>
      </trkpt>
      <trkpt lat="61.44204" lon="5.65186">
        <ele>268.303187</ele>
        <time>2020-07-27T14:05:33.394Z</time>
      </trkpt>
      <trkpt lat="61.44214" lon="5.65185">
        <ele>268.763965</ele>
        <time>2020-07-27T14:05:37.395Z</time>
      </trkpt>
      <trkpt lat="61.44224" lon="5.65191">
        <ele>269.232717</ele>
        <time>2020-07-27T14:05:43.449Z</time>
      </trkpt>
      <trkpt lat="61.44234" lon="5.65195">
        <ele>269.722431</ele>
        <time>2020-07-27T14:05:48.401Z</time>
      </trkpt>
      <trkpt lat="61.44244" lon="5.65199">
        <ele>270.200066</ele>
        <time>2020-07-27T14:05:54.399Z</time>
      </trkpt>
      <trkpt lat="61.44254" lon="5.65193">
        <ele>270.612267</ele>
        <time>2020-07-27T14:06:02.410Z</time>
      </trkpt>
      <trkpt lat="61.44263" lon="5.65186">
        <ele>270.967623</ele>
        <time>2020-07-27T14:06:07.418Z</time>
      </trkpt>
      <trkpt lat="61.44272" lon="5.65187">
        <ele>271.316747</ele>
        <time>2020-07-27T14:06:13.435Z</time>
      </trkpt>
      <trkpt lat="61.4428" lon="5.65199">
        <ele>271.723773</ele>
        <time>2020-07-27T14:06:18.406Z</time>
      </trkpt>
      <trkpt lat="61.4429" lon="5.65206">
        <ele>272.121966</ele>
        <time>2020-07-27T14:06:24.398Z</time>
      </trkpt>
      <trkpt lat="61.443" lon="5.65204">
        <ele>272.491744</ele>
        <time>2020-07-27T14:06:31.433Z</time>
      </trkpt>
      <trkpt lat="61.44309" lon="5.65199">
        <ele>272.870429</ele>
        <time>2020-07-27T14:06:38.404Z</time>
      </trkpt>
      <trkpt lat="61.44318" lon="5.65199">
        <ele>273.234659</ele>
        <time>2020-07-27T14:06:44.430Z</time>
      </trkpt>
      <trkpt lat="61.44329" lon="5.65201">
        <ele>273.639165</ele>
        <time>2020-07-27T14:06:52.422Z</time>
      </trkpt>
      <trkpt lat="61.44338" lon="5.65208">
        <ele>274.016802</ele>
        <time>2020-07-27T14:06:58.395Z</time>
      </trkpt>
      <trkpt lat="61.44347" lon="5.65217">
        <ele>274.404126</ele>
        <time>2020-07-27T14:07:04.390Z</time>
      </trkpt>
      <trkpt lat="61.44356" lon="5.65224">
        <ele>274.770004</ele>
        <time>2020-07-27T14:07:11.444Z</time>
      </trkpt>
      <trkpt lat="61.44366" lon="5.65226">
        <ele>275.163468</ele>
        <time>2020-07-27T14:07:18.399Z</time>
      </trkpt>
      <trkpt lat="61.44376" lon="5.65229">
        <ele>275.557333</ele>
        <time>2020-07-27T14:07:25.436Z</time>
      </trkpt>
      <trkpt lat="61.44386" lon="5.6523">
        <ele>275.941936</ele>
        <time>2020-07-27T14:07:33.400Z</time>
      </trkpt>
      <trkpt lat="61.44396" lon="5.6523">
        <ele>276.329569</ele>
        <time>2020-07-27T14:07:40.392Z</time>
      </trkpt>
      <trkpt lat="61.44405" lon="5.65231">
        <ele>276.679552</ele>
        <time>2020-07-27T14:07:46.398Z</time>
      </trkpt>
      <trkpt lat="61.44414" lon="5.65232">
        <ele>277.039979</ele>
        <time>2020-07-27T14:07:52.413Z</time>
      </trkpt>
      <trkpt lat="61.44424" lon="5.65229">
        <ele>277.699511</ele>
        <time>2020-07-27T14:07:59.396Z</time>
      </trkpt>
      <trkpt lat="61.44434" lon="5.65232">
        <ele>278.920898</ele>
        <time>2020-07-27T14:08:06.416Z</time>
      </trkpt>
      <trkpt lat="61.44443" lon="5.65236">
        <ele>280.056363</ele>
        <time>2020-07-27T14:08:11.427Z</time>
      </trkpt>
      <trkpt lat="61.44453" lon="5.65237">
        <ele>281.368365</ele>
        <time>2020-07-27T14:08:17.445Z</time>
      </trkpt>
      <trkpt lat="61.44463" lon="5.65239">
        <ele>282.633264</ele>
        <time>2020-07-27T14:08:23.423Z</time>
      </trkpt>
      <trkpt lat="61.44473" lon="5.65247">
        <ele>283.924425</ele>
        <time>2020-07-27T14:08:29.399Z</time>
      </trkpt>
      <trkpt lat="61.44481" lon="5.65256">
        <ele>285.132409</ele>
        <time>2020-07-27T14:08:34.446Z</time>
      </trkpt>
      <trkpt lat="61.4449" lon="5.65264">
        <ele>286.287833</ele>
        <time>2020-07-27T14:08:39.404Z</time>
      </trkpt>
      <trkpt lat="61.44499" lon="5.65274">
        <ele>287.622662</ele>
        <time>2020-07-27T14:08:45.398Z</time>
      </trkpt>
      <trkpt lat="61.44508" lon="5.6528">
        <ele>288.804165</ele>
        <time>2020-07-27T14:08:50.399Z</time>
      </trkpt>
      <trkpt lat="61.44518" lon="5.65284">
        <ele>290.077583</ele>
        <time>2020-07-27T14:08:57.410Z</time>
      </trkpt>
      <trkpt lat="61.44527" lon="5.6529">
        <ele>291.214743</ele>
        <time>2020-07-27T14:09:02.425Z</time>
      </trkpt>
      <trkpt lat="61.44537" lon="5.65298">
        <ele>292.53351</ele>
        <time>2020-07-27T14:09:07.428Z</time>
      </trkpt>
      <trkpt lat="61.44547" lon="5.65303">
        <ele>293.790333</ele>
        <time>2020-07-27T14:09:12.403Z</time>
      </trkpt>
      <trkpt lat="61.44557" lon="5.65303">
        <ele>295.02526</ele>
        <time>2020-07-27T14:09:19.407Z</time>
      </trkpt>
      <trkpt lat="61.44566" lon="5.65308">
        <ele>296.263296</ele>
        <time>2020-07-27T14:09:25.433Z</time>
      </trkpt>
      <trkpt lat="61.44577" lon="5.65312">
        <ele>297.582273</ele>
        <time>2020-07-27T14:09:31.406Z</time>
      </trkpt>
      <trkpt lat="61.44586" lon="5.65314">
        <ele>298.762089</ele>
        <time>2020-07-27T14:09:37.413Z</time>
      </trkpt>
      <trkpt lat="61.44596" lon="5.65311">
        <ele>299.827812</ele>
        <time>2020-07-27T14:09:44.395Z</time>
      </trkpt>
      <trkpt lat="61.44606" lon="5.65314">
        <ele>300.345724</ele>
        <time>2020-07-27T14:09:51.404Z</time>
      </trkpt>
      <trkpt lat="61.44615" lon="5.65314">
        <ele>300.828614</ele>
        <time>2020-07-27T14:09:58.416Z</time>
      </trkpt>
      <trkpt lat="61.44626" lon="5.65314">
        <ele>301.362953</ele>
        <time>2020-07-27T14:10:04.416Z</time>
      </trkpt>
      <trkpt lat="61.44635" lon="5.65316">
        <ele>301.851008</ele>
        <time>2020-07-27T14:10:09.395Z</time>
      </trkpt>
      <trkpt lat="61.44646" lon="5.65315">
        <ele>302.401279</ele>
        <time>2020-07-27T14:10:15.411Z</time>
      </trkpt>
      <trkpt lat="61.44655" lon="5.65313">
        <ele>302.908689</ele>
        <time>2020-07-27T14:10:21.399Z</time>
      </trkpt>
      <trkpt lat="61.44665" lon="5.65308">
        <ele>303.404001</ele>
        <time>2020-07-27T14:10:26.418Z</time>
      </trkpt>
      <trkpt lat="61.44674" lon="5.65308">
        <ele>303.88686</ele>
        <time>2020-07-27T14:10:31.391Z</time>
      </trkpt>
      <trkpt lat="61.44684" lon="5.65309">
        <ele>304.375224</ele>
        <time>2020-07-27T14:10:36.408Z</time>
      </trkpt>
      <trkpt lat="61.44694" lon="5.6531">
        <ele>304.904975</ele>
        <time>2020-07-27T14:10:41.438Z</time>
      </trkpt>
      <trkpt lat="61.44705" lon="5.65313">
        <ele>305.45474</ele>
        <time>2020-07-27T14:10:47.412Z</time>
      </trkpt>
      <trkpt lat="61.44714" lon="5.65315">
        <ele>305.960056</ele>
        <time>2020-07-27T14:10:53.420Z</time>
      </trkpt>
      <trkpt lat="61.44725" lon="5.65316">
        <ele>306.499748</ele>
        <time>2020-07-27T14:11:00.399Z</time>
      </trkpt>
      <trkpt lat="61.44735" lon="5.65322">
        <ele>307.047005</ele>
        <time>2020-07-27T14:11:06.414Z</time>
      </trkpt>
      <trkpt lat="61.44745" lon="5.65326">
        <ele>307.53924</ele>
        <time>2020-07-27T14:11:12.421Z</time>
      </trkpt>
      <trkpt lat="61.44755" lon="5.65329">
        <ele>308.064317</ele>
        <time>2020-07-27T14:11:17.394Z</time>
      </trkpt>
      <trkpt lat="61.44764" lon="5.65329">
        <ele>308.562565</ele>
        <time>2020-07-27T14:11:23.439Z</time>
      </trkpt>
      <trkpt lat="61.44774" lon="5.65328">
        <ele>309.063026</ele>
        <time>2020-07-27T14:11:29.410Z</time>
      </trkpt>
      <trkpt lat="61.44782" lon="5.65321">
        <ele>309.66349</ele>
        <time>2020-07-27T14:11:36.424Z</time>
      </trkpt>
      <trkpt lat="61.44791" lon="5.65318">
        <ele>310.259612</ele>
        <time>2020-07-27T14:11:43.408Z</time>
      </trkpt>
      <trkpt lat="61.44801" lon="5.65321">
        <ele>310.940942</ele>
        <time>2020-07-27T14:11:50.399Z</time>
      </trkpt>
      <trkpt lat="61.44811" lon="5.65319">
        <ele>311.567278</ele>
        <time>2020-07-27T14:11:58.474Z</time>
      </trkpt>
      <trkpt lat="61.4482" lon="5.6532">
        <ele>312.201783</ele>
        <time>2020-07-27T14:12:06.410Z</time>
      </trkpt>
      <trkpt lat="61.4483" lon="5.65322">
        <ele>312.865883</ele>
        <time>2020-07-27T14:12:13.397Z</time>
      </trkpt>
      <trkpt lat="61.44839" lon="5.6532">
        <ele>313.462136</ele>
        <time>2020-07-27T14:12:21.408Z</time>
      </trkpt>
      <trkpt lat="61.4485" lon="5.65324">
        <ele>314.138467</ele>
        <time>2020-07-27T14:12:28.428Z</time>
      </trkpt>
      <trkpt lat="61.44858" lon="5.65332">
        <ele>314.735284</ele>
        <time>2020-07-27T14:12:35.410Z</time>
      </trkpt>
      <trkpt lat="61.44867" lon="5.6534">
        <ele>315.37597</ele>
        <time>2020-07-27T14:12:42.407Z</time>
      </trkpt>
      <trkpt lat="61.44876" lon="5.65351">
        <ele>316.070473</ele>
        <time>2020-07-27T14:12:49.412Z</time>
      </trkpt>
      <trkpt lat="61.44882" lon="5.65366">
        <ele>316.727502</ele>
        <time>2020-07-27T14:12:56.423Z</time>
      </trkpt>
      <trkpt lat="61.44887" lon="5.65384">
        <ele>317.36316</ele>
        <time>2020-07-27T14:13:03.408Z</time>
      </trkpt>
      <trkpt lat="61.44891" lon="5.65402">
        <ele>317.975871</ele>
        <time>2020-07-27T14:13:09.433Z</time>
      </trkpt>
      <trkpt lat="61.44893" lon="5.65422">
        <ele>318.609601</ele>
        <time>2020-07-27T14:13:16.411Z</time>
      </trkpt>
      <trkpt lat="61.44893" lon="5.65442">
        <ele>319.260069</ele>
        <time>2020-07-27T14:13:25.443Z</time>
      </trkpt>
      <trkpt lat="61.44893" lon="5.65463">
        <ele>319.916311</ele>
        <time>2020-07-27T14:13:33.424Z</time>
      </trkpt>
      <trkpt lat="61.44894" lon="5.65482">
        <ele>320.533488</ele>
        <time>2020-07-27T14:13:41.395Z</time>
      </trkpt>
      <trkpt lat="61.44895" lon="5.65502">
        <ele>321.270871</ele>
        <time>2020-07-27T14:13:50.455Z</time>
      </trkpt>
      <trkpt lat="61.44898" lon="5.6552">
        <ele>322.10531</ele>
        <time>2020-07-27T14:13:58.427Z</time>
      </trkpt>
      <trkpt lat="61.44899" lon="5.6554">
        <ele>323.021634</ele>
        <time>2020-07-27T14:14:06.408Z</time>
      </trkpt>
      <trkpt lat="61.449" lon="5.65559">
        <ele>323.856765</ele>
        <time>2020-07-27T14:14:13.428Z</time>
      </trkpt>
      <trkpt lat="61.44902" lon="5.65578">
        <ele>324.693079</ele>
        <time>2020-07-27T14:14:20.435Z</time>
      </trkpt>
      <trkpt lat="61.44905" lon="5.65596">
        <ele>325.585612</ele>
        <time>2020-07-27T14:14:28.393Z</time>
      </trkpt>
      <trkpt lat="61.4491" lon="5.65614">
        <ele>326.495378</ele>
        <time>2020-07-27T14:14:38.418Z</time>
      </trkpt>
      <trkpt lat="61.44917" lon="5.65629">
        <ele>327.408927</ele>
        <time>2020-07-27T14:14:45.406Z</time>
      </trkpt>
      <trkpt lat="61.44924" lon="5.65643">
        <ele>328.273017</ele>
        <time>2020-07-27T14:14:52.431Z</time>
      </trkpt>
      <trkpt lat="61.4493" lon="5.65655">
        <ele>329.117433</ele>
        <time>2020-07-27T14:15:00.400Z</time>
      </trkpt>
      <trkpt lat="61.44938" lon="5.65667">
        <ele>329.974563</ele>
        <time>2020-07-27T14:15:08.410Z</time>
      </trkpt>
      <trkpt lat="61.44947" lon="5.65675">
        <ele>330.910882</ele>
        <time>2020-07-27T14:15:15.417Z</time>
      </trkpt>
      <trkpt lat="61.44957" lon="5.65682">
        <ele>331.880711</ele>
        <time>2020-07-27T14:15:22.426Z</time>
      </trkpt>
      <trkpt lat="61.44966" lon="5.6568">
        <ele>332.727274</ele>
        <time>2020-07-27T14:15:29.429Z</time>
      </trkpt>
      <trkpt lat="61.44976" lon="5.6568">
        <ele>333.599224</ele>
        <time>2020-07-27T14:15:37.404Z</time>
      </trkpt>
      <trkpt lat="61.44985" lon="5.65677">
        <ele>334.507954</ele>
        <time>2020-07-27T14:15:46.394Z</time>
      </trkpt>
      <trkpt lat="61.44995" lon="5.65673">
        <ele>335.418444</ele>
        <time>2020-07-27T14:15:54.438Z</time>
      </trkpt>
      <trkpt lat="61.45004" lon="5.6567">
        <ele>336.286944</ele>
        <time>2020-07-27T14:16:03.423Z</time>
      </trkpt>
      <trkpt lat="61.45014" lon="5.65667">
        <ele>337.220405</ele>
        <time>2020-07-27T14:16:13.425Z</time>
      </trkpt>
      <trkpt lat="61.45023" lon="5.65659">
        <ele>338.141808</ele>
        <time>2020-07-27T14:16:22.409Z</time>
      </trkpt>
      <trkpt lat="61.45032" lon="5.65663">
        <ele>339.104801</ele>
        <time>2020-07-27T14:16:30.404Z</time>
      </trkpt>
      <trkpt lat="61.45042" lon="5.65671">
        <ele>340.182872</ele>
        <time>2020-07-27T14:16:36.397Z</time>
      </trkpt>
      <trkpt lat="61.4505" lon="5.6568">
        <ele>341.122896</ele>
        <time>2020-07-27T14:16:41.397Z</time>
      </trkpt>
      <trkpt lat="61.45057" lon="5.65691">
        <ele>342.04235</ele>
        <time>2020-07-27T14:16:47.417Z</time>
      </trkpt>
      <trkpt lat="61.45062" lon="5.65709">
        <ele>343.06049</ele>
        <time>2020-07-27T14:16:56.407Z</time>
      </trkpt>
      <trkpt lat="61.45067" lon="5.65725">
        <ele>344.023863</ele>
        <time>2020-07-27T14:17:03.410Z</time>
      </trkpt>
      <trkpt lat="61.45072" lon="5.65742">
        <ele>345.005718</ele>
        <time>2020-07-27T14:17:10.411Z</time>
      </trkpt>
      <trkpt lat="61.45076" lon="5.65761">
        <ele>345.996468</ele>
        <time>2020-07-27T14:17:17.400Z</time>
      </trkpt>
      <trkpt lat="61.45077" lon="5.6578">
        <ele>346.919315</ele>
        <time>2020-07-27T14:17:22.410Z</time>
      </trkpt>
      <trkpt lat="61.4508" lon="5.65798">
        <ele>347.858963</ele>
        <time>2020-07-27T14:17:29.401Z</time>
      </trkpt>
      <trkpt lat="61.45083" lon="5.65818">
        <ele>348.917659</ele>
        <time>2020-07-27T14:17:36.403Z</time>
      </trkpt>
      <trkpt lat="61.45089" lon="5.65835">
        <ele>349.920871</ele>
        <time>2020-07-27T14:17:44.421Z</time>
      </trkpt>
      <trkpt lat="61.45097" lon="5.65848">
        <ele>350.917648</ele>
        <time>2020-07-27T14:17:52.400Z</time>
      </trkpt>
      <trkpt lat="61.45104" lon="5.6586">
        <ele>351.840287</ele>
        <time>2020-07-27T14:18:00.403Z</time>
      </trkpt>
      <trkpt lat="61.45112" lon="5.65868">
        <ele>352.831556</ele>
        <time>2020-07-27T14:18:07.405Z</time>
      </trkpt>
      <trkpt lat="61.45122" lon="5.65876">
        <ele>353.893055</ele>
        <time>2020-07-27T14:18:13.404Z</time>
      </trkpt>
      <trkpt lat="61.45132" lon="5.65881">
        <ele>354.944514</ele>
        <time>2020-07-27T14:18:18.416Z</time>
      </trkpt>
      <trkpt lat="61.4514" lon="5.65895">
        <ele>355.925803</ele>
        <time>2020-07-27T14:18:22.438Z</time>
      </trkpt>
      <trkpt lat="61.45147" lon="5.65905">
        <ele>355.386213</ele>
        <time>2020-07-27T14:18:26.415Z</time>
      </trkpt>
      <trkpt lat="61.45154" lon="5.6592">
        <ele>354.782904</ele>
        <time>2020-07-27T14:18:31.402Z</time>
      </trkpt>
      <trkpt lat="61.45159" lon="5.65936">
        <ele>354.242259</ele>
        <time>2020-07-27T14:18:34.418Z</time>
      </trkpt>
      <trkpt lat="61.45161" lon="5.65958">
        <ele>353.616693</ele>
        <time>2020-07-27T14:18:37.428Z</time>
      </trkpt>
      <trkpt lat="61.45166" lon="5.6598">
        <ele>352.925654</ele>
        <time>2020-07-27T14:18:40.416Z</time>
      </trkpt>
      <trkpt lat="61.4517" lon="5.65997">
        <ele>352.378779</ele>
        <time>2020-07-27T14:18:42.417Z</time>
      </trkpt>
      <trkpt lat="61.45175" lon="5.66016">
        <ele>351.753097</ele>
        <time>2020-07-27T14:18:44.421Z</time>
      </trkpt>
      <trkpt lat="61.4518" lon="5.66037">
        <ele>351.067254</ele>
        <time>2020-07-27T14:18:46.409Z</time>
      </trkpt>
      <trkpt lat="61.45185" lon="5.66061">
        <ele>350.340687</ele>
        <time>2020-07-27T14:18:48.404Z</time>
      </trkpt>
      <trkpt lat="61.45188" lon="5.66088">
        <ele>349.529791</ele>
        <time>2020-07-27T14:18:50.440Z</time>
      </trkpt>
      <trkpt lat="61.45193" lon="5.66118">
        <ele>348.64669</ele>
        <time>2020-07-27T14:18:52.439Z</time>
      </trkpt>
      <trkpt lat="61.45196" lon="5.66151">
        <ele>347.672062</ele>
        <time>2020-07-27T14:18:54.404Z</time>
      </trkpt>
      <trkpt lat="61.452" lon="5.66188">
        <ele>346.598985</ele>
        <time>2020-07-27T14:18:56.414Z</time>
      </trkpt>
      <trkpt lat="61.45202" lon="5.66207">
        <ele>346.038892</ele>
        <time>2020-07-27T14:18:57.420Z</time>
      </trkpt>
      <trkpt lat="61.45204" lon="5.66226">
        <ele>345.47883</ele>
        <time>2020-07-27T14:18:58.409Z</time>
      </trkpt>
      <trkpt lat="61.45207" lon="5.66245">
        <ele>344.775339</ele>
        <time>2020-07-27T14:18:59.425Z</time>
      </trkpt>
      <trkpt lat="61.45209" lon="5.66265">
        <ele>343.936686</ele>
        <time>2020-07-27T14:19:00.402Z</time>
      </trkpt>
      <trkpt lat="61.45211" lon="5.66285">
        <ele>343.079812</ele>
        <time>2020-07-27T14:19:01.430Z</time>
      </trkpt>
      <trkpt lat="61.45213" lon="5.66306">
        <ele>342.196288</ele>
        <time>2020-07-27T14:19:02.408Z</time>
      </trkpt>
      <trkpt lat="61.45215" lon="5.66326">
        <ele>341.318629</ele>
        <time>2020-07-27T14:19:03.414Z</time>
      </trkpt>
      <trkpt lat="61.45217" lon="5.66347">
        <ele>340.460705</ele>
        <time>2020-07-27T14:19:04.409Z</time>
      </trkpt>
      <trkpt lat="61.45218" lon="5.66367">
        <ele>339.614049</ele>
        <time>2020-07-27T14:19:05.427Z</time>
      </trkpt>
      <trkpt lat="61.4522" lon="5.66386">
        <ele>338.775628</ele>
        <time>2020-07-27T14:19:06.414Z</time>
      </trkpt>
      <trkpt lat="61.45222" lon="5.66406">
        <ele>337.948031</ele>
        <time>2020-07-27T14:19:07.414Z</time>
      </trkpt>
      <trkpt lat="61.45223" lon="5.66426">
        <ele>337.112219</ele>
        <time>2020-07-27T14:19:08.404Z</time>
      </trkpt>
      <trkpt lat="61.45225" lon="5.66445">
        <ele>336.273799</ele>
        <time>2020-07-27T14:19:09.400Z</time>
      </trkpt>
      <trkpt lat="61.45227" lon="5.66465">
        <ele>335.455159</ele>
        <time>2020-07-27T14:19:10.404Z</time>
      </trkpt>
      <trkpt lat="61.45229" lon="5.66483">
        <ele>334.636382</ele>
        <time>2020-07-27T14:19:11.454Z</time>
      </trkpt>
      <trkpt lat="61.45232" lon="5.66502">
        <ele>333.804886</ele>
        <time>2020-07-27T14:19:12.408Z</time>
      </trkpt>
      <trkpt lat="61.45236" lon="5.66521">
        <ele>332.955999</ele>
        <time>2020-07-27T14:19:13.403Z</time>
      </trkpt>
      <trkpt lat="61.45241" lon="5.6654">
        <ele>332.088999</ele>
        <time>2020-07-27T14:19:14.411Z</time>
      </trkpt>
      <trkpt lat="61.45246" lon="5.66557">
        <ele>331.222486</ele>
        <time>2020-07-27T14:19:15.435Z</time>
      </trkpt>
      <trkpt lat="61.45251" lon="5.66575">
        <ele>330.343158</ele>
        <time>2020-07-27T14:19:16.407Z</time>
      </trkpt>
      <trkpt lat="61.45257" lon="5.66591">
        <ele>329.473911</ele>
        <time>2020-07-27T14:19:17.420Z</time>
      </trkpt>
      <trkpt lat="61.45264" lon="5.66608">
        <ele>328.865595</ele>
        <time>2020-07-27T14:19:18.421Z</time>
      </trkpt>
      <trkpt lat="61.45271" lon="5.66624">
        <ele>328.245172</ele>
        <time>2020-07-27T14:19:19.405Z</time>
      </trkpt>
      <trkpt lat="61.45277" lon="5.66641">
        <ele>327.625179</ele>
        <time>2020-07-27T14:19:20.430Z</time>
      </trkpt>
      <trkpt lat="61.45284" lon="5.66657">
        <ele>327.003603</ele>
        <time>2020-07-27T14:19:21.396Z</time>
      </trkpt>
      <trkpt lat="61.45291" lon="5.66673">
        <ele>326.393615</ele>
        <time>2020-07-27T14:19:22.405Z</time>
      </trkpt>
      <trkpt lat="61.45298" lon="5.66689">
        <ele>325.785805</ele>
        <time>2020-07-27T14:19:23.414Z</time>
      </trkpt>
      <trkpt lat="61.45304" lon="5.66705">
        <ele>325.191098</ele>
        <time>2020-07-27T14:19:24.410Z</time>
      </trkpt>
      <trkpt lat="61.4531" lon="5.66722">
        <ele>324.607713</ele>
        <time>2020-07-27T14:19:25.417Z</time>
      </trkpt>
      <trkpt lat="61.45315" lon="5.66738">
        <ele>324.037044</ele>
        <time>2020-07-27T14:19:26.408Z</time>
      </trkpt>
      <trkpt lat="61.4532" lon="5.66754">
        <ele>323.490715</ele>
        <time>2020-07-27T14:19:27.458Z</time>
      </trkpt>
      <trkpt lat="61.45329" lon="5.66785">
        <ele>322.452019</ele>
        <time>2020-07-27T14:19:29.398Z</time>
      </trkpt>
      <trkpt lat="61.45335" lon="5.66817">
        <ele>321.454637</ele>
        <time>2020-07-27T14:19:31.431Z</time>
      </trkpt>
      <trkpt lat="61.4534" lon="5.66852">
        <ele>320.420413</ele>
        <time>2020-07-27T14:19:33.411Z</time>
      </trkpt>
      <trkpt lat="61.45341" lon="5.66871">
        <ele>319.879783</ele>
        <time>2020-07-27T14:19:34.435Z</time>
      </trkpt>
      <trkpt lat="61.45342" lon="5.6689">
        <ele>319.312736</ele>
        <time>2020-07-27T14:19:35.414Z</time>
      </trkpt>
      <trkpt lat="61.45342" lon="5.6691">
        <ele>318.738132</ele>
        <time>2020-07-27T14:19:36.404Z</time>
      </trkpt>
      <trkpt lat="61.45343" lon="5.66932">
        <ele>318.308856</ele>
        <time>2020-07-27T14:19:37.423Z</time>
      </trkpt>
      <trkpt lat="61.45344" lon="5.66953">
        <ele>317.889839</ele>
        <time>2020-07-27T14:19:38.423Z</time>
      </trkpt>
      <trkpt lat="61.45345" lon="5.66974">
        <ele>317.474694</ele>
        <time>2020-07-27T14:19:39.415Z</time>
      </trkpt>
      <trkpt lat="61.45346" lon="5.66997">
        <ele>317.039624</ele>
        <time>2020-07-27T14:19:40.423Z</time>
      </trkpt>
      <trkpt lat="61.45346" lon="5.6702">
        <ele>316.583419</ele>
        <time>2020-07-27T14:19:41.407Z</time>
      </trkpt>
      <trkpt lat="61.45347" lon="5.67044">
        <ele>316.120575</ele>
        <time>2020-07-27T14:19:42.423Z</time>
      </trkpt>
      <trkpt lat="61.45349" lon="5.67067">
        <ele>315.663402</ele>
        <time>2020-07-27T14:19:43.435Z</time>
      </trkpt>
      <trkpt lat="61.45351" lon="5.6709">
        <ele>315.208288</ele>
        <time>2020-07-27T14:19:44.412Z</time>
      </trkpt>
      <trkpt lat="61.45353" lon="5.67114">
        <ele>314.733969</ele>
        <time>2020-07-27T14:19:45.402Z</time>
      </trkpt>
      <trkpt lat="61.45357" lon="5.67137">
        <ele>314.261553</ele>
        <time>2020-07-27T14:19:46.422Z</time>
      </trkpt>
      <trkpt lat="61.45361" lon="5.6716">
        <ele>313.790108</ele>
        <time>2020-07-27T14:19:47.417Z</time>
      </trkpt>
      <trkpt lat="61.45365" lon="5.67182">
        <ele>313.328584</ele>
        <time>2020-07-27T14:19:48.403Z</time>
      </trkpt>
      <trkpt lat="61.45369" lon="5.67204">
        <ele>312.875421</ele>
        <time>2020-07-27T14:19:49.419Z</time>
      </trkpt>
      <trkpt lat="61.45373" lon="5.67225">
        <ele>312.419889</ele>
        <time>2020-07-27T14:19:50.419Z</time>
      </trkpt>
      <trkpt lat="61.45377" lon="5.67247">
        <ele>311.966354</ele>
        <time>2020-07-27T14:19:51.396Z</time>
      </trkpt>
      <trkpt lat="61.45382" lon="5.67268">
        <ele>311.507897</ele>
        <time>2020-07-27T14:19:52.399Z</time>
      </trkpt>
      <trkpt lat="61.45387" lon="5.67288">
        <ele>311.161312</ele>
        <time>2020-07-27T14:19:53.428Z</time>
      </trkpt>
      <trkpt lat="61.45391" lon="5.67309">
        <ele>310.854654</ele>
        <time>2020-07-27T14:19:54.400Z</time>
      </trkpt>
      <trkpt lat="61.45396" lon="5.67329">
        <ele>310.552826</ele>
        <time>2020-07-27T14:19:55.414Z</time>
      </trkpt>
      <trkpt lat="61.454" lon="5.67349">
        <ele>310.256901</ele>
        <time>2020-07-27T14:19:56.419Z</time>
      </trkpt>
      <trkpt lat="61.45404" lon="5.6737">
        <ele>309.955817</ele>
        <time>2020-07-27T14:19:57.423Z</time>
      </trkpt>
      <trkpt lat="61.45408" lon="5.6739">
        <ele>309.663625</ele>
        <time>2020-07-27T14:19:58.407Z</time>
      </trkpt>
      <trkpt lat="61.45412" lon="5.67409">
        <ele>309.377391</ele>
        <time>2020-07-27T14:19:59.406Z</time>
      </trkpt>
      <trkpt lat="61.45416" lon="5.67428">
        <ele>309.099578</ele>
        <time>2020-07-27T14:20:00.432Z</time>
      </trkpt>
      <trkpt lat="61.45419" lon="5.67447">
        <ele>308.825673</ele>
        <time>2020-07-27T14:20:01.420Z</time>
      </trkpt>
      <trkpt lat="61.45423" lon="5.67465">
        <ele>308.551881</ele>
        <time>2020-07-27T14:20:02.405Z</time>
      </trkpt>
      <trkpt lat="61.45427" lon="5.67484">
        <ele>308.275322</ele>
        <time>2020-07-27T14:20:03.440Z</time>
      </trkpt>
      <trkpt lat="61.45431" lon="5.67503">
        <ele>308.00234</ele>
        <time>2020-07-27T14:20:04.423Z</time>
      </trkpt>
      <trkpt lat="61.45435" lon="5.67521">
        <ele>307.731089</ele>
        <time>2020-07-27T14:20:05.404Z</time>
      </trkpt>
      <trkpt lat="61.45439" lon="5.67539">
        <ele>307.462244</ele>
        <time>2020-07-27T14:20:06.418Z</time>
      </trkpt>
      <trkpt lat="61.45442" lon="5.67557">
        <ele>307.201773</ele>
        <time>2020-07-27T14:20:07.408Z</time>
      </trkpt>
      <trkpt lat="61.45446" lon="5.67575">
        <ele>306.943469</ele>
        <time>2020-07-27T14:20:08.397Z</time>
      </trkpt>
      <trkpt lat="61.45449" lon="5.67592">
        <ele>306.690337</ele>
        <time>2020-07-27T14:20:09.413Z</time>
      </trkpt>
      <trkpt lat="61.45456" lon="5.67625">
        <ele>306.531708</ele>
        <time>2020-07-27T14:20:11.426Z</time>
      </trkpt>
      <trkpt lat="61.45464" lon="5.67655">
        <ele>307.962252</ele>
        <time>2020-07-27T14:20:13.404Z</time>
      </trkpt>
      <trkpt lat="61.45471" lon="5.67682">
        <ele>309.264667</ele>
        <time>2020-07-27T14:20:15.415Z</time>
      </trkpt>
      <trkpt lat="61.45478" lon="5.67706">
        <ele>310.450393</ele>
        <time>2020-07-27T14:20:17.406Z</time>
      </trkpt>
      <trkpt lat="61.45484" lon="5.67727">
        <ele>311.458729</ele>
        <time>2020-07-27T14:20:19.407Z</time>
      </trkpt>
      <trkpt lat="61.45489" lon="5.67748">
        <ele>312.484875</ele>
        <time>2020-07-27T14:20:22.446Z</time>
      </trkpt>
      <trkpt lat="61.45494" lon="5.67765">
        <ele>313.347068</ele>
        <time>2020-07-27T14:20:26.453Z</time>
      </trkpt>
      <trkpt lat="61.45499" lon="5.67781">
        <ele>314.152623</ele>
        <time>2020-07-27T14:20:30.437Z</time>
      </trkpt>
      <trkpt lat="61.45506" lon="5.678">
        <ele>315.123039</ele>
        <time>2020-07-27T14:20:35.416Z</time>
      </trkpt>
      <trkpt lat="61.45511" lon="5.67817">
        <ele>315.981093</ele>
        <time>2020-07-27T14:20:39.399Z</time>
      </trkpt>
      <trkpt lat="61.45517" lon="5.67835">
        <ele>316.917794</ele>
        <time>2020-07-27T14:20:45.415Z</time>
      </trkpt>
      <trkpt lat="61.45523" lon="5.67853">
        <ele>317.848043</ele>
        <time>2020-07-27T14:20:50.401Z</time>
      </trkpt>
      <trkpt lat="61.45529" lon="5.6787">
        <ele>318.737688</ele>
        <time>2020-07-27T14:20:55.410Z</time>
      </trkpt>
      <trkpt lat="61.45534" lon="5.67886">
        <ele>319.533701</ele>
        <time>2020-07-27T14:21:00.437Z</time>
      </trkpt>
      <trkpt lat="61.45541" lon="5.67902">
        <ele>320.438068</ele>
        <time>2020-07-27T14:21:06.431Z</time>
      </trkpt>
      <trkpt lat="61.45551" lon="5.67946">
        <ele>322.632711</ele>
        <time>2020-07-27T14:26:14.398Z</time>
      </trkpt>
      <trkpt lat="61.45562" lon="5.67977">
        <ele>324.74653</ele>
        <time>2020-07-27T14:26:25.396Z</time>
      </trkpt>
      <trkpt lat="61.45572" lon="5.68011">
        <ele>326.922581</ele>
        <time>2020-07-27T14:26:39.428Z</time>
      </trkpt>
      <trkpt lat="61.45578" lon="5.68048">
        <ele>329.007057</ele>
        <time>2020-07-27T14:26:51.405Z</time>
      </trkpt>
      <trkpt lat="61.45582" lon="5.68085">
        <ele>331.092735</ele>
        <time>2020-07-27T14:27:02.387Z</time>
      </trkpt>
      <trkpt lat="61.45582" lon="5.68162">
        <ele>335.298817</ele>
        <time>2020-07-27T14:27:29.416Z</time>
      </trkpt>
      <trkpt lat="61.4558" lon="5.68199">
        <ele>337.376792</ele>
        <time>2020-07-27T14:27:49.399Z</time>
      </trkpt>
      <trkpt lat="61.4558" lon="5.68231">
        <ele>339.106136</ele>
        <time>2020-07-27T14:27:50.397Z</time>
      </trkpt>
      <trkpt lat="61.45569" lon="5.68284">
        <ele>342.258913</ele>
        <time>2020-07-27T14:28:15.398Z</time>
      </trkpt>
      <trkpt lat="61.45562" lon="5.68315">
        <ele>343.90557</ele>
        <time>2020-07-27T14:28:22.398Z</time>
      </trkpt>
      <trkpt lat="61.45554" lon="5.68365">
        <ele>346.410389</ele>
        <time>2020-07-27T14:28:50.387Z</time>
      </trkpt>
      <trkpt lat="61.45543" lon="5.68397">
        <ele>348.275467</ele>
        <time>2020-07-27T14:29:05.401Z</time>
      </trkpt>
      <trkpt lat="61.45531" lon="5.68426">
        <ele>350.057635</ele>
        <time>2020-07-27T14:29:13.410Z</time>
      </trkpt>
      <trkpt lat="61.45517" lon="5.68461">
        <ele>352.207627</ele>
        <time>2020-07-27T14:29:20.397Z</time>
      </trkpt>
      <trkpt lat="61.45511" lon="5.6848">
        <ele>353.249311</ele>
        <time>2020-07-27T14:29:25.408Z</time>
      </trkpt>
      <trkpt lat="61.45507" lon="5.68496">
        <ele>354.136965</ele>
        <time>2020-07-27T14:29:29.404Z</time>
      </trkpt>
      <trkpt lat="61.45502" lon="5.68513">
        <ele>355.030078</ele>
        <time>2020-07-27T14:29:34.409Z</time>
      </trkpt>
      <trkpt lat="61.45498" lon="5.6853">
        <ele>355.950692</ele>
        <time>2020-07-27T14:29:39.410Z</time>
      </trkpt>
      <trkpt lat="61.45496" lon="5.68551">
        <ele>356.931634</ele>
        <time>2020-07-27T14:29:44.419Z</time>
      </trkpt>
      <trkpt lat="61.45493" lon="5.68571">
        <ele>357.944023</ele>
        <time>2020-07-27T14:29:50.408Z</time>
      </trkpt>
      <trkpt lat="61.4549" lon="5.68591">
        <ele>358.91602</ele>
        <time>2020-07-27T14:29:57.437Z</time>
      </trkpt>
      <trkpt lat="61.45488" lon="5.68612">
        <ele>359.921941</ele>
        <time>2020-07-27T14:30:05.410Z</time>
      </trkpt>
      <trkpt lat="61.45487" lon="5.68632">
        <ele>360.660719</ele>
        <time>2020-07-27T14:30:13.410Z</time>
      </trkpt>
      <trkpt lat="61.45487" lon="5.68653">
        <ele>361.210191</ele>
        <time>2020-07-27T14:30:21.407Z</time>
      </trkpt>
      <trkpt lat="61.45489" lon="5.68673">
        <ele>361.749314</ele>
        <time>2020-07-27T14:30:28.460Z</time>
      </trkpt>
      <trkpt lat="61.45491" lon="5.68692">
        <ele>362.279796</ele>
        <time>2020-07-27T14:30:34.413Z</time>
      </trkpt>
      <trkpt lat="61.45495" lon="5.68711">
        <ele>362.830312</ele>
        <time>2020-07-27T14:30:40.415Z</time>
      </trkpt>
      <trkpt lat="61.45498" lon="5.68729">
        <ele>363.326964</ele>
        <time>2020-07-27T14:30:45.423Z</time>
      </trkpt>
      <trkpt lat="61.45501" lon="5.68749">
        <ele>363.890696</ele>
        <time>2020-07-27T14:30:51.429Z</time>
      </trkpt>
      <trkpt lat="61.45506" lon="5.68767">
        <ele>364.443108</ele>
        <time>2020-07-27T14:30:58.407Z</time>
      </trkpt>
      <trkpt lat="61.45511" lon="5.68784">
        <ele>364.942162</ele>
        <time>2020-07-27T14:31:05.409Z</time>
      </trkpt>
      <trkpt lat="61.45516" lon="5.68803">
        <ele>365.524052</ele>
        <time>2020-07-27T14:31:12.815Z</time>
      </trkpt>
      <trkpt lat="61.45521" lon="5.68821">
        <ele>366.064838</ele>
        <time>2020-07-27T14:31:19.402Z</time>
      </trkpt>
      <trkpt lat="61.45527" lon="5.68837">
        <ele>366.62211</ele>
        <time>2020-07-27T14:31:27.402Z</time>
      </trkpt>
      <trkpt lat="61.45532" lon="5.68854">
        <ele>367.146459</ele>
        <time>2020-07-27T14:31:35.405Z</time>
      </trkpt>
      <trkpt lat="61.45537" lon="5.68872">
        <ele>367.690729</ele>
        <time>2020-07-27T14:31:42.424Z</time>
      </trkpt>
      <trkpt lat="61.45543" lon="5.68889">
        <ele>368.250105</ele>
        <time>2020-07-27T14:31:49.415Z</time>
      </trkpt>
      <trkpt lat="61.45547" lon="5.68906">
        <ele>368.755379</ele>
        <time>2020-07-27T14:31:56.432Z</time>
      </trkpt>
      <trkpt lat="61.4555" lon="5.68925">
        <ele>369.280501</ele>
        <time>2020-07-27T14:32:03.414Z</time>
      </trkpt>
      <trkpt lat="61.45554" lon="5.68944">
        <ele>369.815059</ele>
        <time>2020-07-27T14:32:10.417Z</time>
      </trkpt>
      <trkpt lat="61.45559" lon="5.68962">
        <ele>370.37484</ele>
        <time>2020-07-27T14:32:17.409Z</time>
      </trkpt>
      <trkpt lat="61.45565" lon="5.68978">
        <ele>370.669154</ele>
        <time>2020-07-27T14:32:24.451Z</time>
      </trkpt>
      <trkpt lat="61.45571" lon="5.68993">
        <ele>370.942257</ele>
        <time>2020-07-27T14:32:30.430Z</time>
      </trkpt>
      <trkpt lat="61.45577" lon="5.69008">
        <ele>371.231574</ele>
        <time>2020-07-27T14:32:37.417Z</time>
      </trkpt>
      <trkpt lat="61.45583" lon="5.69024">
        <ele>371.528653</ele>
        <time>2020-07-27T14:32:45.451Z</time>
      </trkpt>
      <trkpt lat="61.45588" lon="5.69043">
        <ele>371.835266</ele>
        <time>2020-07-27T14:32:51.421Z</time>
      </trkpt>
      <trkpt lat="61.45595" lon="5.69055">
        <ele>372.106449</ele>
        <time>2020-07-27T14:32:56.419Z</time>
      </trkpt>
      <trkpt lat="61.45601" lon="5.69072">
        <ele>372.407727</ele>
        <time>2020-07-27T14:33:03.408Z</time>
      </trkpt>
      <trkpt lat="61.45606" lon="5.69091">
        <ele>372.716093</ele>
        <time>2020-07-27T14:33:09.406Z</time>
      </trkpt>
      <trkpt lat="61.45612" lon="5.69107">
        <ele>373.001605</ele>
        <time>2020-07-27T14:33:15.427Z</time>
      </trkpt>
      <trkpt lat="61.45617" lon="5.69123">
        <ele>373.277061</ele>
        <time>2020-07-27T14:33:21.434Z</time>
      </trkpt>
      <trkpt lat="61.45624" lon="5.69137">
        <ele>373.564246</ele>
        <time>2020-07-27T14:33:27.412Z</time>
      </trkpt>
      <trkpt lat="61.45631" lon="5.6915">
        <ele>373.843394</ele>
        <time>2020-07-27T14:33:33.395Z</time>
      </trkpt>
      <trkpt lat="61.45639" lon="5.69161">
        <ele>374.138016</ele>
        <time>2020-07-27T14:33:40.406Z</time>
      </trkpt>
      <trkpt lat="61.45648" lon="5.69165">
        <ele>374.418201</ele>
        <time>2020-07-27T14:33:47.411Z</time>
      </trkpt>
      <trkpt lat="61.45658" lon="5.69166">
        <ele>374.713082</ele>
        <time>2020-07-27T14:33:54.402Z</time>
      </trkpt>
      <trkpt lat="61.45667" lon="5.69164">
        <ele>374.987431</ele>
        <time>2020-07-27T14:34:00.399Z</time>
      </trkpt>
      <trkpt lat="61.45677" lon="5.69161">
        <ele>375.298445</ele>
        <time>2020-07-27T14:34:07.392Z</time>
      </trkpt>
      <trkpt lat="61.45687" lon="5.69156">
        <ele>375.591307</ele>
        <time>2020-07-27T14:34:14.401Z</time>
      </trkpt>
      <trkpt lat="61.45695" lon="5.6915">
        <ele>376.059062</ele>
        <time>2020-07-27T14:34:20.401Z</time>
      </trkpt>
      <trkpt lat="61.45705" lon="5.69142">
        <ele>376.929971</ele>
        <time>2020-07-27T14:34:26.412Z</time>
      </trkpt>
      <trkpt lat="61.45715" lon="5.69137">
        <ele>377.743197</ele>
        <time>2020-07-27T14:34:33.427Z</time>
      </trkpt>
      <trkpt lat="61.45724" lon="5.69128">
        <ele>378.524406</ele>
        <time>2020-07-27T14:34:40.443Z</time>
      </trkpt>
      <trkpt lat="61.45732" lon="5.6912">
        <ele>379.255352</ele>
        <time>2020-07-27T14:34:47.405Z</time>
      </trkpt>
      <trkpt lat="61.45742" lon="5.69115">
        <ele>380.060751</ele>
        <time>2020-07-27T14:34:56.419Z</time>
      </trkpt>
      <trkpt lat="61.45751" lon="5.69109">
        <ele>380.848098</ele>
        <time>2020-07-27T14:35:04.419Z</time>
      </trkpt>
      <trkpt lat="61.4576" lon="5.691">
        <ele>381.656243</ele>
        <time>2020-07-27T14:35:12.398Z</time>
      </trkpt>
      <trkpt lat="61.45769" lon="5.6909">
        <ele>382.458573</ele>
        <time>2020-07-27T14:35:19.400Z</time>
      </trkpt>
      <trkpt lat="61.45777" lon="5.69084">
        <ele>383.208328</ele>
        <time>2020-07-27T14:35:25.404Z</time>
      </trkpt>
      <trkpt lat="61.45787" lon="5.69078">
        <ele>383.972601</ele>
        <time>2020-07-27T14:35:31.408Z</time>
      </trkpt>
      <trkpt lat="61.45796" lon="5.6907">
        <ele>384.779083</ele>
        <time>2020-07-27T14:35:38.410Z</time>
      </trkpt>
      <trkpt lat="61.45805" lon="5.69063">
        <ele>385.564591</ele>
        <time>2020-07-27T14:35:45.397Z</time>
      </trkpt>
      <trkpt lat="61.45814" lon="5.69056">
        <ele>386.34746</ele>
        <time>2020-07-27T14:35:52.415Z</time>
      </trkpt>
      <trkpt lat="61.45823" lon="5.69046">
        <ele>387.158674</ele>
        <time>2020-07-27T14:36:00.415Z</time>
      </trkpt>
      <trkpt lat="61.45832" lon="5.69039">
        <ele>387.966165</ele>
        <time>2020-07-27T14:36:07.441Z</time>
      </trkpt>
      <trkpt lat="61.45841" lon="5.69029">
        <ele>388.786426</ele>
        <time>2020-07-27T14:36:14.411Z</time>
      </trkpt>
      <trkpt lat="61.4585" lon="5.69022">
        <ele>389.545116</ele>
        <time>2020-07-27T14:36:20.412Z</time>
      </trkpt>
      <trkpt lat="61.45859" lon="5.69014">
        <ele>390.321015</ele>
        <time>2020-07-27T14:36:26.413Z</time>
      </trkpt>
      <trkpt lat="61.45867" lon="5.69004">
        <ele>391.085496</ele>
        <time>2020-07-27T14:36:33.428Z</time>
      </trkpt>
      <trkpt lat="61.45876" lon="5.68997">
        <ele>391.839049</ele>
        <time>2020-07-27T14:36:41.397Z</time>
      </trkpt>
      <trkpt lat="61.45885" lon="5.68987">
        <ele>392.645643</ele>
        <time>2020-07-27T14:36:49.460Z</time>
      </trkpt>
      <trkpt lat="61.45894" lon="5.68981">
        <ele>393.369574</ele>
        <time>2020-07-27T14:36:55.411Z</time>
      </trkpt>
      <trkpt lat="61.45903" lon="5.68975">
        <ele>394.13708</ele>
        <time>2020-07-27T14:37:02.395Z</time>
      </trkpt>
      <trkpt lat="61.45912" lon="5.68969">
        <ele>394.883095</ele>
        <time>2020-07-27T14:37:09.431Z</time>
      </trkpt>
      <trkpt lat="61.45921" lon="5.68965">
        <ele>395.589832</ele>
        <time>2020-07-27T14:37:16.445Z</time>
      </trkpt>
      <trkpt lat="61.45931" lon="5.68961">
        <ele>396.350224</ele>
        <time>2020-07-27T14:37:23.425Z</time>
      </trkpt>
      <trkpt lat="61.4594" lon="5.68962">
        <ele>397.091837</ele>
        <time>2020-07-27T14:37:29.438Z</time>
      </trkpt>
      <trkpt lat="61.4595" lon="5.68962">
        <ele>397.832513</ele>
        <time>2020-07-27T14:37:35.400Z</time>
      </trkpt>
      <trkpt lat="61.45959" lon="5.68959">
        <ele>398.574435</ele>
        <time>2020-07-27T14:37:41.430Z</time>
      </trkpt>
      <trkpt lat="61.45969" lon="5.68956">
        <ele>399.334179</ele>
        <time>2020-07-27T14:37:47.401Z</time>
      </trkpt>
      <trkpt lat="61.45978" lon="5.68957">
        <ele>400.061135</ele>
        <time>2020-07-27T14:37:54.409Z</time>
      </trkpt>
      <trkpt lat="61.45988" lon="5.68955">
        <ele>400.859209</ele>
        <time>2020-07-27T14:38:01.436Z</time>
      </trkpt>
      <trkpt lat="61.45998" lon="5.68953">
        <ele>401.642784</ele>
        <time>2020-07-27T14:38:08.439Z</time>
      </trkpt>
      <trkpt lat="61.46008" lon="5.68951">
        <ele>402.371684</ele>
        <time>2020-07-27T14:38:15.398Z</time>
      </trkpt>
      <trkpt lat="61.46017" lon="5.68947">
        <ele>403.126473</ele>
        <time>2020-07-27T14:38:22.429Z</time>
      </trkpt>
      <trkpt lat="61.46027" lon="5.68945">
        <ele>403.857512</ele>
        <time>2020-07-27T14:38:29.427Z</time>
      </trkpt>
      <trkpt lat="61.46036" lon="5.68945">
        <ele>404.644167</ele>
        <time>2020-07-27T14:38:37.456Z</time>
      </trkpt>
      <trkpt lat="61.46046" lon="5.68943">
        <ele>405.56829</ele>
        <time>2020-07-27T14:38:44.404Z</time>
      </trkpt>
      <trkpt lat="61.46056" lon="5.68943">
        <ele>406.556837</ele>
        <time>2020-07-27T14:38:52.432Z</time>
      </trkpt>
      <trkpt lat="61.46065" lon="5.68944">
        <ele>407.469185</ele>
        <time>2020-07-27T14:38:59.427Z</time>
      </trkpt>
      <trkpt lat="61.46075" lon="5.68942">
        <ele>408.395897</ele>
        <time>2020-07-27T14:39:06.440Z</time>
      </trkpt>
      <trkpt lat="61.46085" lon="5.68941">
        <ele>409.328909</ele>
        <time>2020-07-27T14:39:13.416Z</time>
      </trkpt>
      <trkpt lat="61.46094" lon="5.68938">
        <ele>410.219141</ele>
        <time>2020-07-27T14:39:20.401Z</time>
      </trkpt>
      <trkpt lat="61.46104" lon="5.68939">
        <ele>411.169843</ele>
        <time>2020-07-27T14:39:28.443Z</time>
      </trkpt>
      <trkpt lat="61.46113" lon="5.68938">
        <ele>412.053094</ele>
        <time>2020-07-27T14:39:35.400Z</time>
      </trkpt>
      <trkpt lat="61.46123" lon="5.6894">
        <ele>412.998408</ele>
        <time>2020-07-27T14:39:42.418Z</time>
      </trkpt>
      <trkpt lat="61.46132" lon="5.68943">
        <ele>413.906043</ele>
        <time>2020-07-27T14:39:49.414Z</time>
      </trkpt>
      <trkpt lat="61.46142" lon="5.68944">
        <ele>414.857143</ele>
        <time>2020-07-27T14:39:57.454Z</time>
      </trkpt>
      <trkpt lat="61.46151" lon="5.68947">
        <ele>415.736402</ele>
        <time>2020-07-27T14:40:05.410Z</time>
      </trkpt>
      <trkpt lat="61.4616" lon="5.68952">
        <ele>416.655551</ele>
        <time>2020-07-27T14:40:13.413Z</time>
      </trkpt>
      <trkpt lat="61.46169" lon="5.68957">
        <ele>417.547918</ele>
        <time>2020-07-27T14:40:21.417Z</time>
      </trkpt>
      <trkpt lat="61.46179" lon="5.68963">
        <ele>418.515954</ele>
        <time>2020-07-27T14:40:30.405Z</time>
      </trkpt>
      <trkpt lat="61.46188" lon="5.6897">
        <ele>419.456123</ele>
        <time>2020-07-27T14:40:38.412Z</time>
      </trkpt>
      <trkpt lat="61.46197" lon="5.6898">
        <ele>420.381168</ele>
        <time>2020-07-27T14:40:46.410Z</time>
      </trkpt>
      <trkpt lat="61.46205" lon="5.6899">
        <ele>421.281238</ele>
        <time>2020-07-27T14:40:56.408Z</time>
      </trkpt>
      <trkpt lat="61.46213" lon="5.68999">
        <ele>422.166447</ele>
        <time>2020-07-27T14:41:06.440Z</time>
      </trkpt>
      <trkpt lat="61.46223" lon="5.69006">
        <ele>423.071736</ele>
        <time>2020-07-27T14:41:14.417Z</time>
      </trkpt>
      <trkpt lat="61.46231" lon="5.69013">
        <ele>423.888972</ele>
        <time>2020-07-27T14:41:22.440Z</time>
      </trkpt>
      <trkpt lat="61.46239" lon="5.69022">
        <ele>424.717353</ele>
        <time>2020-07-27T14:41:29.432Z</time>
      </trkpt>
      <trkpt lat="61.46248" lon="5.6903">
        <ele>425.583707</ele>
        <time>2020-07-27T14:41:36.428Z</time>
      </trkpt>
      <trkpt lat="61.46255" lon="5.69042">
        <ele>426.404643</ele>
        <time>2020-07-27T14:41:43.431Z</time>
      </trkpt>
      <trkpt lat="61.46264" lon="5.69051">
        <ele>427.241024</ele>
        <time>2020-07-27T14:41:52.413Z</time>
      </trkpt>
      <trkpt lat="61.46271" lon="5.69064">
        <ele>428.121868</ele>
        <time>2020-07-27T14:42:01.411Z</time>
      </trkpt>
      <trkpt lat="61.46278" lon="5.69079">
        <ele>429.006754</ele>
        <time>2020-07-27T14:42:08.412Z</time>
      </trkpt>
      <trkpt lat="61.46284" lon="5.69096">
        <ele>429.899815</ele>
        <time>2020-07-27T14:42:16.431Z</time>
      </trkpt>
      <trkpt lat="61.4629" lon="5.69112">
        <ele>430.766211</ele>
        <time>2020-07-27T14:42:24.398Z</time>
      </trkpt>
      <trkpt lat="61.46294" lon="5.6913">
        <ele>431.633931</ele>
        <time>2020-07-27T14:42:32.419Z</time>
      </trkpt>
      <trkpt lat="61.46299" lon="5.69146">
        <ele>432.470326</ele>
        <time>2020-07-27T14:42:41.450Z</time>
      </trkpt>
      <trkpt lat="61.46303" lon="5.69163">
        <ele>433.297094</ele>
        <time>2020-07-27T14:42:49.467Z</time>
      </trkpt>
      <trkpt lat="61.46305" lon="5.69183">
        <ele>434.168203</ele>
        <time>2020-07-27T14:42:59.428Z</time>
      </trkpt>
      <trkpt lat="61.46309" lon="5.69203">
        <ele>435.063289</ele>
        <time>2020-07-27T14:43:08.420Z</time>
      </trkpt>
      <trkpt lat="61.46309" lon="5.69222">
        <ele>435.904674</ele>
        <time>2020-07-27T14:43:16.407Z</time>
      </trkpt>
      <trkpt lat="61.46308" lon="5.69243">
        <ele>436.779018</ele>
        <time>2020-07-27T14:43:25.407Z</time>
      </trkpt>
      <trkpt lat="61.46308" lon="5.69262">
        <ele>437.62913</ele>
        <time>2020-07-27T14:43:33.420Z</time>
      </trkpt>
      <trkpt lat="61.46307" lon="5.69284">
        <ele>438.506339</ele>
        <time>2020-07-27T14:43:43.402Z</time>
      </trkpt>
      <trkpt lat="61.46305" lon="5.69304">
        <ele>439.287666</ele>
        <time>2020-07-27T14:43:50.422Z</time>
      </trkpt>
      <trkpt lat="61.46304" lon="5.69323">
        <ele>440.039276</ele>
        <time>2020-07-27T14:43:58.415Z</time>
      </trkpt>
      <trkpt lat="61.46301" lon="5.69341">
        <ele>440.799831</ele>
        <time>2020-07-27T14:44:06.406Z</time>
      </trkpt>
      <trkpt lat="61.46298" lon="5.69361">
        <ele>441.630837</ele>
        <time>2020-07-27T14:44:14.408Z</time>
      </trkpt>
      <trkpt lat="61.46293" lon="5.69379">
        <ele>442.455458</ele>
        <time>2020-07-27T14:44:21.413Z</time>
      </trkpt>
      <trkpt lat="61.46287" lon="5.69396">
        <ele>443.254497</ele>
        <time>2020-07-27T14:44:28.431Z</time>
      </trkpt>
      <trkpt lat="61.46282" lon="5.69413">
        <ele>444.042764</ele>
        <time>2020-07-27T14:44:35.402Z</time>
      </trkpt>
      <trkpt lat="61.46278" lon="5.69431">
        <ele>444.806434</ele>
        <time>2020-07-27T14:44:42.452Z</time>
      </trkpt>
      <trkpt lat="61.46274" lon="5.69448">
        <ele>445.556283</ele>
        <time>2020-07-27T14:44:50.409Z</time>
      </trkpt>
      <trkpt lat="61.46269" lon="5.69464">
        <ele>446.367372</ele>
        <time>2020-07-27T14:44:58.437Z</time>
      </trkpt>
      <trkpt lat="61.46263" lon="5.69482">
        <ele>447.192861</ele>
        <time>2020-07-27T14:45:06.459Z</time>
      </trkpt>
      <trkpt lat="61.46259" lon="5.69499">
        <ele>447.943263</ele>
        <time>2020-07-27T14:45:13.422Z</time>
      </trkpt>
      <trkpt lat="61.46253" lon="5.69513">
        <ele>448.705989</ele>
        <time>2020-07-27T14:45:21.426Z</time>
      </trkpt>
      <trkpt lat="61.46248" lon="5.69531">
        <ele>449.523818</ele>
        <time>2020-07-27T14:45:28.438Z</time>
      </trkpt>
      <trkpt lat="61.46243" lon="5.69549">
        <ele>450.337447</ele>
        <time>2020-07-27T14:45:36.415Z</time>
      </trkpt>
      <trkpt lat="61.46239" lon="5.69567">
        <ele>451.090527</ele>
        <time>2020-07-27T14:45:44.418Z</time>
      </trkpt>
      <trkpt lat="61.46236" lon="5.69586">
        <ele>451.916424</ele>
        <time>2020-07-27T14:45:52.420Z</time>
      </trkpt>
      <trkpt lat="61.4623" lon="5.69603">
        <ele>452.71912</ele>
        <time>2020-07-27T14:45:59.434Z</time>
      </trkpt>
      <trkpt lat="61.46224" lon="5.6962">
        <ele>453.483524</ele>
        <time>2020-07-27T14:46:08.412Z</time>
      </trkpt>
      <trkpt lat="61.46218" lon="5.69637">
        <ele>454.243717</ele>
        <time>2020-07-27T14:46:17.447Z</time>
      </trkpt>
      <trkpt lat="61.46215" lon="5.69655">
        <ele>454.973831</ele>
        <time>2020-07-27T14:46:25.401Z</time>
      </trkpt>
      <trkpt lat="61.46211" lon="5.69675">
        <ele>455.744323</ele>
        <time>2020-07-27T14:46:32.411Z</time>
      </trkpt>
      <trkpt lat="61.46209" lon="5.69695">
        <ele>456.503901</ele>
        <time>2020-07-27T14:46:39.410Z</time>
      </trkpt>
      <trkpt lat="61.46206" lon="5.69713">
        <ele>457.208856</ele>
        <time>2020-07-27T14:46:46.415Z</time>
      </trkpt>
      <trkpt lat="61.46205" lon="5.69733">
        <ele>457.961584</ele>
        <time>2020-07-27T14:46:54.406Z</time>
      </trkpt>
      <trkpt lat="61.46204" lon="5.69752">
        <ele>458.663107</ele>
        <time>2020-07-27T14:47:01.432Z</time>
      </trkpt>
      <trkpt lat="61.46203" lon="5.69773">
        <ele>459.431634</ele>
        <time>2020-07-27T14:47:09.404Z</time>
      </trkpt>
      <trkpt lat="61.46203" lon="5.69793">
        <ele>460.171151</ele>
        <time>2020-07-27T14:47:17.420Z</time>
      </trkpt>
      <trkpt lat="61.46202" lon="5.69814">
        <ele>460.941523</ele>
        <time>2020-07-27T14:47:25.411Z</time>
      </trkpt>
      <trkpt lat="61.46201" lon="5.69834">
        <ele>461.667343</ele>
        <time>2020-07-27T14:47:33.418Z</time>
      </trkpt>
      <trkpt lat="61.46202" lon="5.69853">
        <ele>462.37181</ele>
        <time>2020-07-27T14:47:40.414Z</time>
      </trkpt>
      <trkpt lat="61.46201" lon="5.69872">
        <ele>463.087961</ele>
        <time>2020-07-27T14:47:48.422Z</time>
      </trkpt>
      <trkpt lat="61.462" lon="5.69892">
        <ele>463.815014</ele>
        <time>2020-07-27T14:47:56.411Z</time>
      </trkpt>
      <trkpt lat="61.46199" lon="5.69913">
        <ele>464.606318</ele>
        <time>2020-07-27T14:48:04.444Z</time>
      </trkpt>
      <trkpt lat="61.46199" lon="5.69934">
        <ele>465.357278</ele>
        <time>2020-07-27T14:48:12.411Z</time>
      </trkpt>
      <trkpt lat="61.46199" lon="5.69954">
        <ele>466.092765</ele>
        <time>2020-07-27T14:48:21.407Z</time>
      </trkpt>
      <trkpt lat="61.46198" lon="5.69973">
        <ele>466.894731</ele>
        <time>2020-07-27T14:48:30.415Z</time>
      </trkpt>
      <trkpt lat="61.46199" lon="5.69994">
        <ele>467.779145</ele>
        <time>2020-07-27T14:48:37.408Z</time>
      </trkpt>
      <trkpt lat="61.46198" lon="5.70014">
        <ele>468.671971</ele>
        <time>2020-07-27T14:48:45.426Z</time>
      </trkpt>
      <trkpt lat="61.46196" lon="5.70034">
        <ele>469.57259</ele>
        <time>2020-07-27T14:48:54.417Z</time>
      </trkpt>
      <trkpt lat="61.46196" lon="5.70054">
        <ele>470.438941</ele>
        <time>2020-07-27T14:49:03.411Z</time>
      </trkpt>
      <trkpt lat="61.46196" lon="5.70074">
        <ele>471.296398</ele>
        <time>2020-07-27T14:49:11.423Z</time>
      </trkpt>
      <trkpt lat="61.46196" lon="5.70094">
        <ele>472.184853</ele>
        <time>2020-07-27T14:49:19.438Z</time>
      </trkpt>
      <trkpt lat="61.46194" lon="5.70113">
        <ele>473.03649</ele>
        <time>2020-07-27T14:49:28.427Z</time>
      </trkpt>
      <trkpt lat="61.46194" lon="5.70133">
        <ele>473.916201</ele>
        <time>2020-07-27T14:49:36.401Z</time>
      </trkpt>
      <trkpt lat="61.46194" lon="5.70153">
        <ele>474.786926</ele>
        <time>2020-07-27T14:49:44.446Z</time>
      </trkpt>
      <trkpt lat="61.46196" lon="5.70173">
        <ele>475.661807</ele>
        <time>2020-07-27T14:49:51.407Z</time>
      </trkpt>
      <trkpt lat="61.46197" lon="5.70192">
        <ele>476.495863</ele>
        <time>2020-07-27T14:49:58.412Z</time>
      </trkpt>
      <trkpt lat="61.462" lon="5.70211">
        <ele>477.357971</ele>
        <time>2020-07-27T14:50:05.417Z</time>
      </trkpt>
      <trkpt lat="61.46201" lon="5.70231">
        <ele>478.275177</ele>
        <time>2020-07-27T14:50:12.426Z</time>
      </trkpt>
      <trkpt lat="61.46205" lon="5.7025">
        <ele>479.171273</ele>
        <time>2020-07-27T14:50:19.431Z</time>
      </trkpt>
      <trkpt lat="61.46209" lon="5.70267">
        <ele>480.01215</ele>
        <time>2020-07-27T14:50:27.418Z</time>
      </trkpt>
      <trkpt lat="61.46213" lon="5.70285">
        <ele>480.881026</ele>
        <time>2020-07-27T14:50:34.413Z</time>
      </trkpt>
      <trkpt lat="61.46215" lon="5.70304">
        <ele>481.713287</ele>
        <time>2020-07-27T14:50:40.421Z</time>
      </trkpt>
      <trkpt lat="61.46223" lon="5.70319">
        <ele>482.678365</ele>
        <time>2020-07-27T14:50:47.434Z</time>
      </trkpt>
      <trkpt lat="61.4623" lon="5.70333">
        <ele>483.211454</ele>
        <time>2020-07-27T14:50:53.408Z</time>
      </trkpt>
      <trkpt lat="61.46237" lon="5.70348">
        <ele>483.628622</ele>
        <time>2020-07-27T14:50:58.425Z</time>
      </trkpt>
      <trkpt lat="61.46244" lon="5.70362">
        <ele>484.055288</ele>
        <time>2020-07-27T14:51:02.432Z</time>
      </trkpt>
      <trkpt lat="61.46252" lon="5.70376">
        <ele>484.496384</ele>
        <time>2020-07-27T14:51:06.404Z</time>
      </trkpt>
      <trkpt lat="61.46261" lon="5.7039">
        <ele>484.970556</ele>
        <time>2020-07-27T14:51:10.421Z</time>
      </trkpt>
      <trkpt lat="61.4627" lon="5.70403">
        <ele>485.434951</ele>
        <time>2020-07-27T14:51:14.407Z</time>
      </trkpt>
      <trkpt lat="61.46279" lon="5.70415">
        <ele>485.890324</ele>
        <time>2020-07-27T14:51:18.412Z</time>
      </trkpt>
      <trkpt lat="61.46287" lon="5.70426">
        <ele>486.316786</ele>
        <time>2020-07-27T14:51:22.416Z</time>
      </trkpt>
      <trkpt lat="61.46295" lon="5.70435">
        <ele>486.700574</ele>
        <time>2020-07-27T14:51:26.425Z</time>
      </trkpt>
      <trkpt lat="61.46303" lon="5.70444">
        <ele>487.093818</ele>
        <time>2020-07-27T14:51:30.415Z</time>
      </trkpt>
      <trkpt lat="61.46312" lon="5.70455">
        <ele>487.526666</ele>
        <time>2020-07-27T14:51:34.420Z</time>
      </trkpt>
      <trkpt lat="61.4632" lon="5.70467">
        <ele>487.964681</ele>
        <time>2020-07-27T14:51:38.431Z</time>
      </trkpt>
      <trkpt lat="61.46329" lon="5.70479">
        <ele>488.388161</ele>
        <time>2020-07-27T14:51:43.416Z</time>
      </trkpt>
      <trkpt lat="61.46337" lon="5.70491">
        <ele>488.831504</ele>
        <time>2020-07-27T14:51:48.416Z</time>
      </trkpt>
      <trkpt lat="61.46346" lon="5.70502">
        <ele>489.266305</ele>
        <time>2020-07-27T14:51:52.418Z</time>
      </trkpt>
      <trkpt lat="61.46354" lon="5.70515">
        <ele>489.701878</ele>
        <time>2020-07-27T14:51:56.455Z</time>
      </trkpt>
      <trkpt lat="61.4636" lon="5.70529">
        <ele>490.086621</ele>
        <time>2020-07-27T14:52:00.407Z</time>
      </trkpt>
      <trkpt lat="61.46367" lon="5.70544">
        <ele>490.505267</ele>
        <time>2020-07-27T14:52:05.424Z</time>
      </trkpt>
      <trkpt lat="61.46374" lon="5.7056">
        <ele>491.161247</ele>
        <time>2020-07-27T14:52:11.431Z</time>
      </trkpt>
      <trkpt lat="61.46381" lon="5.70573">
        <ele>491.752716</ele>
        <time>2020-07-27T14:52:16.419Z</time>
      </trkpt>
      <trkpt lat="61.46387" lon="5.70587">
        <ele>492.349831</ele>
        <time>2020-07-27T14:52:21.446Z</time>
      </trkpt>
      <trkpt lat="61.46392" lon="5.70603">
        <ele>492.953058</ele>
        <time>2020-07-27T14:52:26.415Z</time>
      </trkpt>
      <trkpt lat="61.46398" lon="5.7062">
        <ele>493.609114</ele>
        <time>2020-07-27T14:52:32.438Z</time>
      </trkpt>
      <trkpt lat="61.46403" lon="5.70639">
        <ele>494.280169</ele>
        <time>2020-07-27T14:52:39.420Z</time>
      </trkpt>
      <trkpt lat="61.46407" lon="5.70659">
        <ele>494.954564</ele>
        <time>2020-07-27T14:52:45.413Z</time>
      </trkpt>
      <trkpt lat="61.4641" lon="5.70678">
        <ele>495.571107</ele>
        <time>2020-07-27T14:52:51.418Z</time>
      </trkpt>
      <trkpt lat="61.46412" lon="5.70697">
        <ele>496.183957</ele>
        <time>2020-07-27T14:52:57.420Z</time>
      </trkpt>
      <trkpt lat="61.46415" lon="5.70718">
        <ele>496.849686</ele>
        <time>2020-07-27T14:53:04.434Z</time>
      </trkpt>
      <trkpt lat="61.46418" lon="5.70736">
        <ele>497.431359</ele>
        <time>2020-07-27T14:53:12.405Z</time>
      </trkpt>
      <trkpt lat="61.4642" lon="5.70756">
        <ele>498.061031</ele>
        <time>2020-07-27T14:53:20.408Z</time>
      </trkpt>
      <trkpt lat="61.46423" lon="5.70776">
        <ele>498.725487</ele>
        <time>2020-07-27T14:53:28.416Z</time>
      </trkpt>
      <trkpt lat="61.46425" lon="5.70795">
        <ele>499.319377</ele>
        <time>2020-07-27T14:53:34.432Z</time>
      </trkpt>
      <trkpt lat="61.46427" lon="5.70813">
        <ele>499.910217</ele>
        <time>2020-07-27T14:53:41.412Z</time>
      </trkpt>
      <trkpt lat="61.46429" lon="5.70834">
        <ele>500.562326</ele>
        <time>2020-07-27T14:53:49.410Z</time>
      </trkpt>
      <trkpt lat="61.46432" lon="5.70853">
        <ele>501.163332</ele>
        <time>2020-07-27T14:53:56.411Z</time>
      </trkpt>
      <trkpt lat="61.46433" lon="5.70872">
        <ele>501.77439</ele>
        <time>2020-07-27T14:54:03.420Z</time>
      </trkpt>
      <trkpt lat="61.46437" lon="5.70891">
        <ele>502.437112</ele>
        <time>2020-07-27T14:54:10.434Z</time>
      </trkpt>
      <trkpt lat="61.4644" lon="5.70912">
        <ele>503.155784</ele>
        <time>2020-07-27T14:54:17.413Z</time>
      </trkpt>
      <trkpt lat="61.46444" lon="5.70932">
        <ele>503.865849</ele>
        <time>2020-07-27T14:54:24.394Z</time>
      </trkpt>
      <trkpt lat="61.46444" lon="5.70951">
        <ele>504.520994</ele>
        <time>2020-07-27T14:54:32.410Z</time>
      </trkpt>
      <trkpt lat="61.46451" lon="5.70963">
        <ele>505.171564</ele>
        <time>2020-07-27T14:54:39.432Z</time>
      </trkpt>
      <trkpt lat="61.46455" lon="5.70984">
        <ele>505.914461</ele>
        <time>2020-07-27T14:54:46.446Z</time>
      </trkpt>
      <trkpt lat="61.4646" lon="5.71002">
        <ele>506.598909</ele>
        <time>2020-07-27T14:54:52.450Z</time>
      </trkpt>
      <trkpt lat="61.46643" lon="5.71712">
        <ele>520.041542</ele>
        <time>2020-07-27T14:57:52.443Z</time>
      </trkpt>
      <trkpt lat="61.46647" lon="5.71733">
        <ele>519.36132</ele>
        <time>2020-07-27T14:57:55.421Z</time>
      </trkpt>
      <trkpt lat="61.4665" lon="5.71752">
        <ele>518.744276</ele>
        <time>2020-07-27T14:57:57.428Z</time>
      </trkpt>
      <trkpt lat="61.46654" lon="5.71771">
        <ele>518.096551</ele>
        <time>2020-07-27T14:57:59.442Z</time>
      </trkpt>
      <trkpt lat="61.46659" lon="5.71788">
        <ele>517.508221</ele>
        <time>2020-07-27T14:58:01.427Z</time>
      </trkpt>
      <trkpt lat="61.46663" lon="5.71812">
        <ele>516.73609</ele>
        <time>2020-07-27T14:58:04.428Z</time>
      </trkpt>
      <trkpt lat="61.46669" lon="5.71833">
        <ele>515.989286</ele>
        <time>2020-07-27T14:58:07.432Z</time>
      </trkpt>
      <trkpt lat="61.46674" lon="5.71849">
        <ele>515.376862</ele>
        <time>2020-07-27T14:58:09.411Z</time>
      </trkpt>
      <trkpt lat="61.4668" lon="5.71872">
        <ele>514.592857</ele>
        <time>2020-07-27T14:58:11.407Z</time>
      </trkpt>
      <trkpt lat="61.46687" lon="5.71898">
        <ele>513.451645</ele>
        <time>2020-07-27T14:58:13.422Z</time>
      </trkpt>
      <trkpt lat="61.46694" lon="5.71925">
        <ele>512.015835</ele>
        <time>2020-07-27T14:58:15.415Z</time>
      </trkpt>
      <trkpt lat="61.46702" lon="5.71953">
        <ele>510.544367</ele>
        <time>2020-07-27T14:58:17.419Z</time>
      </trkpt>
      <trkpt lat="61.4671" lon="5.71981">
        <ele>509.036427</ele>
        <time>2020-07-27T14:58:19.419Z</time>
      </trkpt>
      <trkpt lat="61.4672" lon="5.72009">
        <ele>507.453793</ele>
        <time>2020-07-27T14:58:21.433Z</time>
      </trkpt>
      <trkpt lat="61.46732" lon="5.72036">
        <ele>505.78034</ele>
        <time>2020-07-27T14:58:23.441Z</time>
      </trkpt>
      <trkpt lat="61.46739" lon="5.72049">
        <ele>504.881923</ele>
        <time>2020-07-27T14:58:24.415Z</time>
      </trkpt>
      <trkpt lat="61.46746" lon="5.72061">
        <ele>503.942545</ele>
        <time>2020-07-27T14:58:25.422Z</time>
      </trkpt>
      <trkpt lat="61.46754" lon="5.72074">
        <ele>502.964309</ele>
        <time>2020-07-27T14:58:26.408Z</time>
      </trkpt>
      <trkpt lat="61.46763" lon="5.72086">
        <ele>501.997076</ele>
        <time>2020-07-27T14:58:27.407Z</time>
      </trkpt>
      <trkpt lat="61.46771" lon="5.72097">
        <ele>501.033138</ele>
        <time>2020-07-27T14:58:28.411Z</time>
      </trkpt>
      <trkpt lat="61.4678" lon="5.72107">
        <ele>500.07245</ele>
        <time>2020-07-27T14:58:29.427Z</time>
      </trkpt>
      <trkpt lat="61.46789" lon="5.72116">
        <ele>499.096376</ele>
        <time>2020-07-27T14:58:30.444Z</time>
      </trkpt>
      <trkpt lat="61.46799" lon="5.72123">
        <ele>498.105609</ele>
        <time>2020-07-27T14:58:31.432Z</time>
      </trkpt>
      <trkpt lat="61.46809" lon="5.72129">
        <ele>497.096478</ele>
        <time>2020-07-27T14:58:32.463Z</time>
      </trkpt>
      <trkpt lat="61.4682" lon="5.72133">
        <ele>496.135538</ele>
        <time>2020-07-27T14:58:33.434Z</time>
      </trkpt>
      <trkpt lat="61.4683" lon="5.72135">
        <ele>495.17927</ele>
        <time>2020-07-27T14:58:34.414Z</time>
      </trkpt>
      <trkpt lat="61.46841" lon="5.72135">
        <ele>494.198979</ele>
        <time>2020-07-27T14:58:35.426Z</time>
      </trkpt>
      <trkpt lat="61.46852" lon="5.72136">
        <ele>493.227515</ele>
        <time>2020-07-27T14:58:36.447Z</time>
      </trkpt>
      <trkpt lat="61.46863" lon="5.72137">
        <ele>492.27281</ele>
        <time>2020-07-27T14:58:37.446Z</time>
      </trkpt>
      <trkpt lat="61.46874" lon="5.72139">
        <ele>491.333469</ele>
        <time>2020-07-27T14:58:38.414Z</time>
      </trkpt>
      <trkpt lat="61.46884" lon="5.72143">
        <ele>490.394032</ele>
        <time>2020-07-27T14:58:39.409Z</time>
      </trkpt>
      <trkpt lat="61.46895" lon="5.72148">
        <ele>489.457538</ele>
        <time>2020-07-27T14:58:40.416Z</time>
      </trkpt>
      <trkpt lat="61.46905" lon="5.72155">
        <ele>488.513654</ele>
        <time>2020-07-27T14:58:41.412Z</time>
      </trkpt>
      <trkpt lat="61.46915" lon="5.72162">
        <ele>487.545121</ele>
        <time>2020-07-27T14:58:42.418Z</time>
      </trkpt>
      <trkpt lat="61.46925" lon="5.72172">
        <ele>486.558661</ele>
        <time>2020-07-27T14:58:43.424Z</time>
      </trkpt>
      <trkpt lat="61.46935" lon="5.72184">
        <ele>485.53949</ele>
        <time>2020-07-27T14:58:44.425Z</time>
      </trkpt>
      <trkpt lat="61.46945" lon="5.72197">
        <ele>484.503175</ele>
        <time>2020-07-27T14:58:45.423Z</time>
      </trkpt>
      <trkpt lat="61.46955" lon="5.72212">
        <ele>483.443632</ele>
        <time>2020-07-27T14:58:46.416Z</time>
      </trkpt>
      <trkpt lat="61.46965" lon="5.72227">
        <ele>482.362165</ele>
        <time>2020-07-27T14:58:47.428Z</time>
      </trkpt>
      <trkpt lat="61.46975" lon="5.72242">
        <ele>481.254288</ele>
        <time>2020-07-27T14:58:48.447Z</time>
      </trkpt>
      <trkpt lat="61.46985" lon="5.72257">
        <ele>480.112593</ele>
        <time>2020-07-27T14:58:49.442Z</time>
      </trkpt>
      <trkpt lat="61.46996" lon="5.72272">
        <ele>478.907817</ele>
        <time>2020-07-27T14:58:50.426Z</time>
      </trkpt>
      <trkpt lat="61.47007" lon="5.72288">
        <ele>477.741072</ele>
        <time>2020-07-27T14:58:51.411Z</time>
      </trkpt>
      <trkpt lat="61.47018" lon="5.72302">
        <ele>476.556413</ele>
        <time>2020-07-27T14:58:52.417Z</time>
      </trkpt>
      <trkpt lat="61.47029" lon="5.72316">
        <ele>475.377338</ele>
        <time>2020-07-27T14:58:53.421Z</time>
      </trkpt>
      <trkpt lat="61.4704" lon="5.72329">
        <ele>474.220841</ele>
        <time>2020-07-27T14:58:54.433Z</time>
      </trkpt>
      <trkpt lat="61.47051" lon="5.7234">
        <ele>473.07572</ele>
        <time>2020-07-27T14:58:55.409Z</time>
      </trkpt>
      <trkpt lat="61.47063" lon="5.7235">
        <ele>471.935162</ele>
        <time>2020-07-27T14:58:56.440Z</time>
      </trkpt>
      <trkpt lat="61.47074" lon="5.72359">
        <ele>470.790434</ele>
        <time>2020-07-27T14:58:57.458Z</time>
      </trkpt>
      <trkpt lat="61.47086" lon="5.72368">
        <ele>469.661726</ele>
        <time>2020-07-27T14:58:58.413Z</time>
      </trkpt>
      <trkpt lat="61.47098" lon="5.72375">
        <ele>468.544751</ele>
        <time>2020-07-27T14:58:59.408Z</time>
      </trkpt>
      <trkpt lat="61.47109" lon="5.72382">
        <ele>467.449028</ele>
        <time>2020-07-27T14:59:00.408Z</time>
      </trkpt>
      <trkpt lat="61.47121" lon="5.72388">
        <ele>466.364505</ele>
        <time>2020-07-27T14:59:01.412Z</time>
      </trkpt>
      <trkpt lat="61.47132" lon="5.72396">
        <ele>465.292085</ele>
        <time>2020-07-27T14:59:02.436Z</time>
      </trkpt>
      <trkpt lat="61.47142" lon="5.72405">
        <ele>464.209224</ele>
        <time>2020-07-27T14:59:03.433Z</time>
      </trkpt>
      <trkpt lat="61.47152" lon="5.72416">
        <ele>463.052117</ele>
        <time>2020-07-27T14:59:04.454Z</time>
      </trkpt>
      <trkpt lat="61.47161" lon="5.72429">
        <ele>461.877912</ele>
        <time>2020-07-27T14:59:05.433Z</time>
      </trkpt>
      <trkpt lat="61.4717" lon="5.72443">
        <ele>460.670141</ele>
        <time>2020-07-27T14:59:06.435Z</time>
      </trkpt>
      <trkpt lat="61.47179" lon="5.7246">
        <ele>459.434668</ele>
        <time>2020-07-27T14:59:07.431Z</time>
      </trkpt>
      <trkpt lat="61.47187" lon="5.72478">
        <ele>458.169848</ele>
        <time>2020-07-27T14:59:08.435Z</time>
      </trkpt>
      <trkpt lat="61.47195" lon="5.72498">
        <ele>456.897312</ele>
        <time>2020-07-27T14:59:09.440Z</time>
      </trkpt>
      <trkpt lat="61.47202" lon="5.72519">
        <ele>455.610637</ele>
        <time>2020-07-27T14:59:10.442Z</time>
      </trkpt>
      <trkpt lat="61.47208" lon="5.7254">
        <ele>454.336577</ele>
        <time>2020-07-27T14:59:11.409Z</time>
      </trkpt>
      <trkpt lat="61.47214" lon="5.72561">
        <ele>453.086737</ele>
        <time>2020-07-27T14:59:12.423Z</time>
      </trkpt>
      <trkpt lat="61.47219" lon="5.72583">
        <ele>451.858657</ele>
        <time>2020-07-27T14:59:13.427Z</time>
      </trkpt>
      <trkpt lat="61.47224" lon="5.72606">
        <ele>450.61984</ele>
        <time>2020-07-27T14:59:14.455Z</time>
      </trkpt>
      <trkpt lat="61.47228" lon="5.72629">
        <ele>449.393146</ele>
        <time>2020-07-27T14:59:15.435Z</time>
      </trkpt>
      <trkpt lat="61.47231" lon="5.72652">
        <ele>448.166827</ele>
        <time>2020-07-27T14:59:16.420Z</time>
      </trkpt>
      <trkpt lat="61.47234" lon="5.72676">
        <ele>446.905043</ele>
        <time>2020-07-27T14:59:17.426Z</time>
      </trkpt>
      <trkpt lat="61.47238" lon="5.727">
        <ele>445.641376</ele>
        <time>2020-07-27T14:59:18.407Z</time>
      </trkpt>
      <trkpt lat="61.47241" lon="5.72724">
        <ele>444.486684</ele>
        <time>2020-07-27T14:59:19.430Z</time>
      </trkpt>
      <trkpt lat="61.47245" lon="5.72748">
        <ele>443.314297</ele>
        <time>2020-07-27T14:59:20.404Z</time>
      </trkpt>
      <trkpt lat="61.47249" lon="5.72772">
        <ele>442.138909</ele>
        <time>2020-07-27T14:59:21.449Z</time>
      </trkpt>
      <trkpt lat="61.47254" lon="5.72796">
        <ele>440.954164</ele>
        <time>2020-07-27T14:59:22.454Z</time>
      </trkpt>
      <trkpt lat="61.47259" lon="5.7282">
        <ele>439.74944</ele>
        <time>2020-07-27T14:59:23.414Z</time>
      </trkpt>
      <trkpt lat="61.47265" lon="5.72844">
        <ele>438.528225</ele>
        <time>2020-07-27T14:59:24.415Z</time>
      </trkpt>
      <trkpt lat="61.47271" lon="5.72867">
        <ele>437.313433</ele>
        <time>2020-07-27T14:59:25.420Z</time>
      </trkpt>
      <trkpt lat="61.47277" lon="5.7289">
        <ele>436.101171</ele>
        <time>2020-07-27T14:59:26.413Z</time>
      </trkpt>
      <trkpt lat="61.47284" lon="5.72912">
        <ele>434.876984</ele>
        <time>2020-07-27T14:59:27.437Z</time>
      </trkpt>
      <trkpt lat="61.47291" lon="5.72934">
        <ele>433.672289</ele>
        <time>2020-07-27T14:59:28.422Z</time>
      </trkpt>
      <trkpt lat="61.47297" lon="5.72958">
        <ele>432.440758</ele>
        <time>2020-07-27T14:59:29.427Z</time>
      </trkpt>
      <trkpt lat="61.47303" lon="5.72981">
        <ele>431.219679</ele>
        <time>2020-07-27T14:59:30.410Z</time>
      </trkpt>
      <trkpt lat="61.4731" lon="5.73003">
        <ele>429.999251</ele>
        <time>2020-07-27T14:59:31.411Z</time>
      </trkpt>
      <trkpt lat="61.47317" lon="5.73024">
        <ele>428.779448</ele>
        <time>2020-07-27T14:59:32.415Z</time>
      </trkpt>
      <trkpt lat="61.47325" lon="5.73047">
        <ele>427.646635</ele>
        <time>2020-07-27T14:59:33.421Z</time>
      </trkpt>
      <trkpt lat="61.47332" lon="5.73071">
        <ele>426.542936</ele>
        <time>2020-07-27T14:59:34.436Z</time>
      </trkpt>
      <trkpt lat="61.47339" lon="5.73096">
        <ele>425.423684</ele>
        <time>2020-07-27T14:59:35.435Z</time>
      </trkpt>
      <trkpt lat="61.47346" lon="5.73122">
        <ele>424.303148</ele>
        <time>2020-07-27T14:59:36.468Z</time>
      </trkpt>
      <trkpt lat="61.47353" lon="5.73147">
        <ele>423.188675</ele>
        <time>2020-07-27T14:59:37.428Z</time>
      </trkpt>
      <trkpt lat="61.4736" lon="5.73172">
        <ele>422.069986</ele>
        <time>2020-07-27T14:59:38.424Z</time>
      </trkpt>
      <trkpt lat="61.47368" lon="5.73196">
        <ele>420.955547</ele>
        <time>2020-07-27T14:59:39.430Z</time>
      </trkpt>
      <trkpt lat="61.47375" lon="5.7322">
        <ele>419.855796</ele>
        <time>2020-07-27T14:59:40.428Z</time>
      </trkpt>
      <trkpt lat="61.47383" lon="5.73244">
        <ele>418.742518</ele>
        <time>2020-07-27T14:59:41.428Z</time>
      </trkpt>
      <trkpt lat="61.4739" lon="5.73269">
        <ele>417.618439</ele>
        <time>2020-07-27T14:59:42.415Z</time>
      </trkpt>
      <trkpt lat="61.47398" lon="5.73293">
        <ele>416.520273</ele>
        <time>2020-07-27T14:59:43.434Z</time>
      </trkpt>
      <trkpt lat="61.47405" lon="5.73317">
        <ele>415.453395</ele>
        <time>2020-07-27T14:59:44.426Z</time>
      </trkpt>
      <trkpt lat="61.47412" lon="5.73339">
        <ele>414.413482</ele>
        <time>2020-07-27T14:59:45.420Z</time>
      </trkpt>
      <trkpt lat="61.47419" lon="5.73362">
        <ele>413.417477</ele>
        <time>2020-07-27T14:59:46.418Z</time>
      </trkpt>
      <trkpt lat="61.47426" lon="5.73384">
        <ele>412.492459</ele>
        <time>2020-07-27T14:59:47.432Z</time>
      </trkpt>
      <trkpt lat="61.47433" lon="5.73406">
        <ele>411.548869</ele>
        <time>2020-07-27T14:59:48.413Z</time>
      </trkpt>
      <trkpt lat="61.47441" lon="5.73428">
        <ele>410.595683</ele>
        <time>2020-07-27T14:59:49.418Z</time>
      </trkpt>
      <trkpt lat="61.4745" lon="5.73449">
        <ele>409.634668</ele>
        <time>2020-07-27T14:59:50.424Z</time>
      </trkpt>
      <trkpt lat="61.47459" lon="5.73468">
        <ele>408.658388</ele>
        <time>2020-07-27T14:59:51.426Z</time>
      </trkpt>
      <trkpt lat="61.47469" lon="5.73486">
        <ele>407.702164</ele>
        <time>2020-07-27T14:59:52.473Z</time>
      </trkpt>
      <trkpt lat="61.47479" lon="5.73504">
        <ele>406.724909</ele>
        <time>2020-07-27T14:59:53.450Z</time>
      </trkpt>
      <trkpt lat="61.4749" lon="5.73521">
        <ele>405.763735</ele>
        <time>2020-07-27T14:59:54.464Z</time>
      </trkpt>
      <trkpt lat="61.475" lon="5.73537">
        <ele>404.807545</ele>
        <time>2020-07-27T14:59:55.436Z</time>
      </trkpt>
      <trkpt lat="61.47511" lon="5.73553">
        <ele>403.869076</ele>
        <time>2020-07-27T14:59:56.406Z</time>
      </trkpt>
      <trkpt lat="61.47521" lon="5.73569">
        <ele>402.944427</ele>
        <time>2020-07-27T14:59:57.429Z</time>
      </trkpt>
      <trkpt lat="61.47531" lon="5.73584">
        <ele>402.031434</ele>
        <time>2020-07-27T14:59:58.430Z</time>
      </trkpt>
      <trkpt lat="61.4754" lon="5.73601">
        <ele>401.134908</ele>
        <time>2020-07-27T14:59:59.412Z</time>
      </trkpt>
      <trkpt lat="61.47549" lon="5.73617">
        <ele>400.394505</ele>
        <time>2020-07-27T15:00:00.418Z</time>
      </trkpt>
      <trkpt lat="61.47558" lon="5.73633">
        <ele>399.883097</ele>
        <time>2020-07-27T15:00:01.411Z</time>
      </trkpt>
      <trkpt lat="61.47566" lon="5.73648">
        <ele>399.39226</ele>
        <time>2020-07-27T15:00:02.436Z</time>
      </trkpt>
      <trkpt lat="61.47575" lon="5.73663">
        <ele>398.9089</ele>
        <time>2020-07-27T15:00:03.407Z</time>
      </trkpt>
      <trkpt lat="61.47583" lon="5.73677">
        <ele>398.444508</ele>
        <time>2020-07-27T15:00:04.432Z</time>
      </trkpt>
      <trkpt lat="61.47591" lon="5.73691">
        <ele>397.992281</ele>
        <time>2020-07-27T15:00:05.408Z</time>
      </trkpt>
      <trkpt lat="61.47599" lon="5.73704">
        <ele>397.543239</ele>
        <time>2020-07-27T15:00:06.413Z</time>
      </trkpt>
      <trkpt lat="61.47606" lon="5.73717">
        <ele>397.107167</ele>
        <time>2020-07-27T15:00:07.416Z</time>
      </trkpt>
      <trkpt lat="61.47614" lon="5.7373">
        <ele>396.685342</ele>
        <time>2020-07-27T15:00:08.431Z</time>
      </trkpt>
      <trkpt lat="61.47621" lon="5.73742">
        <ele>396.275674</ele>
        <time>2020-07-27T15:00:09.420Z</time>
      </trkpt>
      <trkpt lat="61.47635" lon="5.73764">
        <ele>395.513228</ele>
        <time>2020-07-27T15:00:11.430Z</time>
      </trkpt>
      <trkpt lat="61.47646" lon="5.73785">
        <ele>394.831179</ele>
        <time>2020-07-27T15:00:13.431Z</time>
      </trkpt>
      <trkpt lat="61.47657" lon="5.73803">
        <ele>394.206519</ele>
        <time>2020-07-27T15:00:15.460Z</time>
      </trkpt>
      <trkpt lat="61.47668" lon="5.7382">
        <ele>393.634387</ele>
        <time>2020-07-27T15:00:17.405Z</time>
      </trkpt>
      <trkpt lat="61.47676" lon="5.73836">
        <ele>393.141683</ele>
        <time>2020-07-27T15:00:19.422Z</time>
      </trkpt>
      <trkpt lat="61.47683" lon="5.73851">
        <ele>392.701627</ele>
        <time>2020-07-27T15:00:21.421Z</time>
      </trkpt>
      <trkpt lat="61.47691" lon="5.7387">
        <ele>393.756779</ele>
        <time>2020-07-27T15:00:24.408Z</time>
      </trkpt>
      <trkpt lat="61.47698" lon="5.73886">
        <ele>394.801624</ele>
        <time>2020-07-27T15:00:28.418Z</time>
      </trkpt>
      <trkpt lat="61.47705" lon="5.73899">
        <ele>395.747939</ele>
        <time>2020-07-27T15:00:33.418Z</time>
      </trkpt>
      <trkpt lat="61.47712" lon="5.73916">
        <ele>396.777286</ele>
        <time>2020-07-27T15:00:40.467Z</time>
      </trkpt>
      <trkpt lat="61.47717" lon="5.73931">
        <ele>397.668554</ele>
        <time>2020-07-27T15:00:47.436Z</time>
      </trkpt>
      <trkpt lat="61.47722" lon="5.73947">
        <ele>398.567897</ele>
        <time>2020-07-27T15:00:53.416Z</time>
      </trkpt>
      <trkpt lat="61.47727" lon="5.73964">
        <ele>399.539396</ele>
        <time>2020-07-27T15:00:59.441Z</time>
      </trkpt>
      <trkpt lat="61.47734" lon="5.73981">
        <ele>400.561425</ele>
        <time>2020-07-27T15:01:06.419Z</time>
      </trkpt>
      <trkpt lat="61.47739" lon="5.74">
        <ele>401.590799</ele>
        <time>2020-07-27T15:01:13.413Z</time>
      </trkpt>
      <trkpt lat="61.47742" lon="5.74018">
        <ele>402.515996</ele>
        <time>2020-07-27T15:01:19.412Z</time>
      </trkpt>
      <trkpt lat="61.47747" lon="5.74034">
        <ele>403.414482</ele>
        <time>2020-07-27T15:01:26.427Z</time>
      </trkpt>
      <trkpt lat="61.47753" lon="5.74049">
        <ele>404.349098</ele>
        <time>2020-07-27T15:01:34.416Z</time>
      </trkpt>
      <trkpt lat="61.47757" lon="5.74069">
        <ele>405.383966</ele>
        <time>2020-07-27T15:01:40.430Z</time>
      </trkpt>
      <trkpt lat="61.47762" lon="5.74088">
        <ele>406.41913</ele>
        <time>2020-07-27T15:01:46.419Z</time>
      </trkpt>
      <trkpt lat="61.47768" lon="5.74105">
        <ele>407.402896</ele>
        <time>2020-07-27T15:01:52.440Z</time>
      </trkpt>
      <trkpt lat="61.47773" lon="5.74123">
        <ele>408.371101</ele>
        <time>2020-07-27T15:01:58.417Z</time>
      </trkpt>
      <trkpt lat="61.47778" lon="5.74139">
        <ele>409.283822</ele>
        <time>2020-07-27T15:02:04.422Z</time>
      </trkpt>
      <trkpt lat="61.47782" lon="5.74156">
        <ele>410.193876</ele>
        <time>2020-07-27T15:02:10.451Z</time>
      </trkpt>
      <trkpt lat="61.47786" lon="5.74173">
        <ele>411.094575</ele>
        <time>2020-07-27T15:02:17.410Z</time>
      </trkpt>
      <trkpt lat="61.47788" lon="5.74193">
        <ele>412.039097</ele>
        <time>2020-07-27T15:02:23.440Z</time>
      </trkpt>
      <trkpt lat="61.47793" lon="5.7421">
        <ele>412.941236</ele>
        <time>2020-07-27T15:02:29.420Z</time>
      </trkpt>
      <trkpt lat="61.47798" lon="5.74228">
        <ele>413.921096</ele>
        <time>2020-07-27T15:02:35.418Z</time>
      </trkpt>
      <trkpt lat="61.47802" lon="5.74245">
        <ele>414.800806</ele>
        <time>2020-07-27T15:02:41.411Z</time>
      </trkpt>
      <trkpt lat="61.47805" lon="5.74263">
        <ele>415.678354</ele>
        <time>2020-07-27T15:02:47.407Z</time>
      </trkpt>
      <trkpt lat="61.47808" lon="5.74283">
        <ele>416.624416</ele>
        <time>2020-07-27T15:02:53.405Z</time>
      </trkpt>
      <trkpt lat="61.47811" lon="5.74303">
        <ele>417.579235</ele>
        <time>2020-07-27T15:03:00.418Z</time>
      </trkpt>
      <trkpt lat="61.47814" lon="5.74323">
        <ele>418.557484</ele>
        <time>2020-07-27T15:03:07.424Z</time>
      </trkpt>
      <trkpt lat="61.47816" lon="5.74345">
        <ele>419.575194</ele>
        <time>2020-07-27T15:03:13.410Z</time>
      </trkpt>
      <trkpt lat="61.47818" lon="5.74365">
        <ele>420.503487</ele>
        <time>2020-07-27T15:03:19.449Z</time>
      </trkpt>
      <trkpt lat="61.4782" lon="5.74384">
        <ele>421.426735</ele>
        <time>2020-07-27T15:03:25.434Z</time>
      </trkpt>
      <trkpt lat="61.47824" lon="5.74403">
        <ele>422.355071</ele>
        <time>2020-07-27T15:03:31.428Z</time>
      </trkpt>
      <trkpt lat="61.47825" lon="5.74424">
        <ele>423.311392</ele>
        <time>2020-07-27T15:03:37.423Z</time>
      </trkpt>
      <trkpt lat="61.47824" lon="5.74445">
        <ele>424.295784</ele>
        <time>2020-07-27T15:03:42.435Z</time>
      </trkpt>
      <trkpt lat="61.47824" lon="5.74465">
        <ele>425.232875</ele>
        <time>2020-07-27T15:03:46.412Z</time>
      </trkpt>
      <trkpt lat="61.47825" lon="5.74484">
        <ele>426.111488</ele>
        <time>2020-07-27T15:03:49.419Z</time>
      </trkpt>
      <trkpt lat="61.47826" lon="5.74509">
        <ele>427.250868</ele>
        <time>2020-07-27T15:03:52.402Z</time>
      </trkpt>
      <trkpt lat="61.47825" lon="5.74535">
        <ele>427.615789</ele>
        <time>2020-07-27T15:03:55.423Z</time>
      </trkpt>
      <trkpt lat="61.47825" lon="5.7456">
        <ele>427.104309</ele>
        <time>2020-07-27T15:03:58.418Z</time>
      </trkpt>
      <trkpt lat="61.47826" lon="5.74581">
        <ele>426.680255</ele>
        <time>2020-07-27T15:04:00.431Z</time>
      </trkpt>
      <trkpt lat="61.47826" lon="5.74602">
        <ele>426.246252</ele>
        <time>2020-07-27T15:04:02.418Z</time>
      </trkpt>
      <trkpt lat="61.47825" lon="5.74624">
        <ele>425.800749</ele>
        <time>2020-07-27T15:04:04.449Z</time>
      </trkpt>
      <trkpt lat="61.47823" lon="5.74648">
        <ele>425.291952</ele>
        <time>2020-07-27T15:04:06.420Z</time>
      </trkpt>
      <trkpt lat="61.47822" lon="5.74674">
        <ele>424.773396</ele>
        <time>2020-07-27T15:04:08.434Z</time>
      </trkpt>
      <trkpt lat="61.4782" lon="5.747">
        <ele>424.23158</ele>
        <time>2020-07-27T15:04:10.447Z</time>
      </trkpt>
      <trkpt lat="61.47819" lon="5.7473">
        <ele>423.610427</ele>
        <time>2020-07-27T15:04:12.442Z</time>
      </trkpt>
      <trkpt lat="61.47817" lon="5.74765">
        <ele>422.906361</ele>
        <time>2020-07-27T15:04:14.427Z</time>
      </trkpt>
      <trkpt lat="61.47815" lon="5.74802">
        <ele>422.1483</ele>
        <time>2020-07-27T15:04:16.464Z</time>
      </trkpt>
      <trkpt lat="61.47814" lon="5.74821">
        <ele>421.746971</ele>
        <time>2020-07-27T15:04:17.418Z</time>
      </trkpt>
      <trkpt lat="61.47813" lon="5.74842">
        <ele>421.328486</ele>
        <time>2020-07-27T15:04:18.428Z</time>
      </trkpt>
      <trkpt lat="61.47811" lon="5.74862">
        <ele>420.898838</ele>
        <time>2020-07-27T15:04:19.412Z</time>
      </trkpt>
      <trkpt lat="61.47809" lon="5.74884">
        <ele>420.452867</ele>
        <time>2020-07-27T15:04:20.425Z</time>
      </trkpt>
      <trkpt lat="61.47807" lon="5.74906">
        <ele>419.805488</ele>
        <time>2020-07-27T15:04:21.451Z</time>
      </trkpt>
      <trkpt lat="61.47805" lon="5.74927">
        <ele>418.898803</ele>
        <time>2020-07-27T15:04:22.437Z</time>
      </trkpt>
      <trkpt lat="61.47803" lon="5.74948">
        <ele>418.004158</ele>
        <time>2020-07-27T15:04:23.413Z</time>
      </trkpt>
      <trkpt lat="61.47801" lon="5.7497">
        <ele>417.117536</ele>
        <time>2020-07-27T15:04:24.424Z</time>
      </trkpt>
      <trkpt lat="61.47799" lon="5.7499">
        <ele>416.242474</ele>
        <time>2020-07-27T15:04:25.434Z</time>
      </trkpt>
      <trkpt lat="61.47797" lon="5.75011">
        <ele>415.368064</ele>
        <time>2020-07-27T15:04:26.446Z</time>
      </trkpt>
      <trkpt lat="61.47795" lon="5.75033">
        <ele>414.474477</ele>
        <time>2020-07-27T15:04:27.442Z</time>
      </trkpt>
      <trkpt lat="61.47793" lon="5.75054">
        <ele>413.592995</ele>
        <time>2020-07-27T15:04:28.445Z</time>
      </trkpt>
      <trkpt lat="61.47791" lon="5.75075">
        <ele>412.704145</ele>
        <time>2020-07-27T15:04:29.429Z</time>
      </trkpt>
      <trkpt lat="61.47789" lon="5.75096">
        <ele>411.823333</ele>
        <time>2020-07-27T15:04:30.424Z</time>
      </trkpt>
      <trkpt lat="61.47786" lon="5.75117">
        <ele>410.940659</ele>
        <time>2020-07-27T15:04:31.443Z</time>
      </trkpt>
      <trkpt lat="61.47784" lon="5.75138">
        <ele>410.043878</ele>
        <time>2020-07-27T15:04:32.415Z</time>
      </trkpt>
      <trkpt lat="61.47781" lon="5.75159">
        <ele>409.151374</ele>
        <time>2020-07-27T15:04:33.451Z</time>
      </trkpt>
      <trkpt lat="61.47779" lon="5.7518">
        <ele>408.280331</ele>
        <time>2020-07-27T15:04:34.441Z</time>
      </trkpt>
      <trkpt lat="61.47777" lon="5.752">
        <ele>407.42538</ele>
        <time>2020-07-27T15:04:35.442Z</time>
      </trkpt>
      <trkpt lat="61.47775" lon="5.75221">
        <ele>406.570428</ele>
        <time>2020-07-27T15:04:36.432Z</time>
      </trkpt>
      <trkpt lat="61.47773" lon="5.75241">
        <ele>405.72522</ele>
        <time>2020-07-27T15:04:37.427Z</time>
      </trkpt>
      <trkpt lat="61.47772" lon="5.75261">
        <ele>404.877596</ele>
        <time>2020-07-27T15:04:38.420Z</time>
      </trkpt>
      <trkpt lat="61.4777" lon="5.75282">
        <ele>403.783137</ele>
        <time>2020-07-27T15:04:39.404Z</time>
      </trkpt>
      <trkpt lat="61.47768" lon="5.75301">
        <ele>402.655411</ele>
        <time>2020-07-27T15:04:40.408Z</time>
      </trkpt>
      <trkpt lat="61.47766" lon="5.75321">
        <ele>401.548423</ele>
        <time>2020-07-27T15:04:41.429Z</time>
      </trkpt>
      <trkpt lat="61.47765" lon="5.75341">
        <ele>400.445355</ele>
        <time>2020-07-27T15:04:42.414Z</time>
      </trkpt>
      <trkpt lat="61.47763" lon="5.7536">
        <ele>399.367764</ele>
        <time>2020-07-27T15:04:43.442Z</time>
      </trkpt>
      <trkpt lat="61.47759" lon="5.75397">
        <ele>397.270092</ele>
        <time>2020-07-27T15:04:45.467Z</time>
      </trkpt>
      <trkpt lat="61.47757" lon="5.75417">
        <ele>396.141224</ele>
        <time>2020-07-27T15:04:46.445Z</time>
      </trkpt>
      <trkpt lat="61.47756" lon="5.75438">
        <ele>394.963083</ele>
        <time>2020-07-27T15:04:47.418Z</time>
      </trkpt>
      <trkpt lat="61.47754" lon="5.75459">
        <ele>393.771993</ele>
        <time>2020-07-27T15:04:48.446Z</time>
      </trkpt>
      <trkpt lat="61.47752" lon="5.7548">
        <ele>392.571932</ele>
        <time>2020-07-27T15:04:49.452Z</time>
      </trkpt>
      <trkpt lat="61.4775" lon="5.75501">
        <ele>391.356889</ele>
        <time>2020-07-27T15:04:50.423Z</time>
      </trkpt>
      <trkpt lat="61.47748" lon="5.75523">
        <ele>390.15058</ele>
        <time>2020-07-27T15:04:51.410Z</time>
      </trkpt>
      <trkpt lat="61.47747" lon="5.75544">
        <ele>388.955998</ele>
        <time>2020-07-27T15:04:52.420Z</time>
      </trkpt>
      <trkpt lat="61.47745" lon="5.75565">
        <ele>387.764905</ele>
        <time>2020-07-27T15:04:53.411Z</time>
      </trkpt>
      <trkpt lat="61.47743" lon="5.75586">
        <ele>386.599001</ele>
        <time>2020-07-27T15:04:54.442Z</time>
      </trkpt>
      <trkpt lat="61.47741" lon="5.75606">
        <ele>385.458048</ele>
        <time>2020-07-27T15:04:55.439Z</time>
      </trkpt>
      <trkpt lat="61.47739" lon="5.75625">
        <ele>384.349771</ele>
        <time>2020-07-27T15:04:56.418Z</time>
      </trkpt>
      <trkpt lat="61.47735" lon="5.75644">
        <ele>383.173217</ele>
        <time>2020-07-27T15:04:57.437Z</time>
      </trkpt>
      <trkpt lat="61.47732" lon="5.75663">
        <ele>381.965336</ele>
        <time>2020-07-27T15:04:58.435Z</time>
      </trkpt>
      <trkpt lat="61.47728" lon="5.75681">
        <ele>380.792982</ele>
        <time>2020-07-27T15:04:59.422Z</time>
      </trkpt>
      <trkpt lat="61.47724" lon="5.75698">
        <ele>379.647188</ele>
        <time>2020-07-27T15:05:00.429Z</time>
      </trkpt>
      <trkpt lat="61.47719" lon="5.75715">
        <ele>378.479259</ele>
        <time>2020-07-27T15:05:01.429Z</time>
      </trkpt>
      <trkpt lat="61.47714" lon="5.75733">
        <ele>377.253867</ele>
        <time>2020-07-27T15:05:02.414Z</time>
      </trkpt>
      <trkpt lat="61.47709" lon="5.75751">
        <ele>375.997297</ele>
        <time>2020-07-27T15:05:03.454Z</time>
      </trkpt>
      <trkpt lat="61.47703" lon="5.75769">
        <ele>374.690416</ele>
        <time>2020-07-27T15:05:04.420Z</time>
      </trkpt>
      <trkpt lat="61.47697" lon="5.75789">
        <ele>373.319913</ele>
        <time>2020-07-27T15:05:05.424Z</time>
      </trkpt>
      <trkpt lat="61.47692" lon="5.75809">
        <ele>371.942978</ele>
        <time>2020-07-27T15:05:06.413Z</time>
      </trkpt>
      <trkpt lat="61.47689" lon="5.75832">
        <ele>370.549937</ele>
        <time>2020-07-27T15:05:07.406Z</time>
      </trkpt>
      <trkpt lat="61.47686" lon="5.75855">
        <ele>369.138065</ele>
        <time>2020-07-27T15:05:08.425Z</time>
      </trkpt>
      <trkpt lat="61.47686" lon="5.75878">
        <ele>367.731338</ele>
        <time>2020-07-27T15:05:09.426Z</time>
      </trkpt>
      <trkpt lat="61.47688" lon="5.75902">
        <ele>366.285627</ele>
        <time>2020-07-27T15:05:10.465Z</time>
      </trkpt>
      <trkpt lat="61.47692" lon="5.75925">
        <ele>364.833928</ele>
        <time>2020-07-27T15:05:11.407Z</time>
      </trkpt>
      <trkpt lat="61.47698" lon="5.75946">
        <ele>363.354513</ele>
        <time>2020-07-27T15:05:12.430Z</time>
      </trkpt>
      <trkpt lat="61.47706" lon="5.75964">
        <ele>361.880123</ele>
        <time>2020-07-27T15:05:13.432Z</time>
      </trkpt>
      <trkpt lat="61.47715" lon="5.75981">
        <ele>360.547747</ele>
        <time>2020-07-27T15:05:14.415Z</time>
      </trkpt>
      <trkpt lat="61.47724" lon="5.75996">
        <ele>359.31491</ele>
        <time>2020-07-27T15:05:15.412Z</time>
      </trkpt>
      <trkpt lat="61.47732" lon="5.76011">
        <ele>358.108336</ele>
        <time>2020-07-27T15:05:16.424Z</time>
      </trkpt>
      <trkpt lat="61.4774" lon="5.76027">
        <ele>356.943254</ele>
        <time>2020-07-27T15:05:17.438Z</time>
      </trkpt>
      <trkpt lat="61.47747" lon="5.76043">
        <ele>355.819552</ele>
        <time>2020-07-27T15:05:18.410Z</time>
      </trkpt>
      <trkpt lat="61.47753" lon="5.7606">
        <ele>354.73484</ele>
        <time>2020-07-27T15:05:19.430Z</time>
      </trkpt>
      <trkpt lat="61.47757" lon="5.76079">
        <ele>353.62553</ele>
        <time>2020-07-27T15:05:20.413Z</time>
      </trkpt>
      <trkpt lat="61.47762" lon="5.76099">
        <ele>352.503153</ele>
        <time>2020-07-27T15:05:21.443Z</time>
      </trkpt>
      <trkpt lat="61.47766" lon="5.76119">
        <ele>351.385314</ele>
        <time>2020-07-27T15:05:22.416Z</time>
      </trkpt>
      <trkpt lat="61.4777" lon="5.7614">
        <ele>350.228108</ele>
        <time>2020-07-27T15:05:23.420Z</time>
      </trkpt>
      <trkpt lat="61.47774" lon="5.76162">
        <ele>349.024395</ele>
        <time>2020-07-27T15:05:24.451Z</time>
      </trkpt>
      <trkpt lat="61.47778" lon="5.76184">
        <ele>347.793957</ele>
        <time>2020-07-27T15:05:25.414Z</time>
      </trkpt>
      <trkpt lat="61.47782" lon="5.76207">
        <ele>346.525878</ele>
        <time>2020-07-27T15:05:26.446Z</time>
      </trkpt>
      <trkpt lat="61.47786" lon="5.7623">
        <ele>345.247211</ele>
        <time>2020-07-27T15:05:27.446Z</time>
      </trkpt>
      <trkpt lat="61.4779" lon="5.76253">
        <ele>343.986929</ele>
        <time>2020-07-27T15:05:28.490Z</time>
      </trkpt>
      <trkpt lat="61.47795" lon="5.76275">
        <ele>342.740212</ele>
        <time>2020-07-27T15:05:29.412Z</time>
      </trkpt>
      <trkpt lat="61.47799" lon="5.76297">
        <ele>341.637599</ele>
        <time>2020-07-27T15:05:30.417Z</time>
      </trkpt>
      <trkpt lat="61.47803" lon="5.76319">
        <ele>340.80077</ele>
        <time>2020-07-27T15:05:31.439Z</time>
      </trkpt>
      <trkpt lat="61.47808" lon="5.76341">
        <ele>339.963219</ele>
        <time>2020-07-27T15:05:32.451Z</time>
      </trkpt>
      <trkpt lat="61.47811" lon="5.76363">
        <ele>339.141668</ele>
        <time>2020-07-27T15:05:33.421Z</time>
      </trkpt>
      <trkpt lat="61.47815" lon="5.76384">
        <ele>338.326807</ele>
        <time>2020-07-27T15:05:34.422Z</time>
      </trkpt>
      <trkpt lat="61.47819" lon="5.76406">
        <ele>337.491518</ele>
        <time>2020-07-27T15:05:35.422Z</time>
      </trkpt>
      <trkpt lat="61.47822" lon="5.76429">
        <ele>336.634023</ele>
        <time>2020-07-27T15:05:36.411Z</time>
      </trkpt>
      <trkpt lat="61.47825" lon="5.76452">
        <ele>335.787825</ele>
        <time>2020-07-27T15:05:37.419Z</time>
      </trkpt>
      <trkpt lat="61.47826" lon="5.76477">
        <ele>334.918694</ele>
        <time>2020-07-27T15:05:38.437Z</time>
      </trkpt>
      <trkpt lat="61.47826" lon="5.76501">
        <ele>334.055791</ele>
        <time>2020-07-27T15:05:39.417Z</time>
      </trkpt>
      <trkpt lat="61.47825" lon="5.76525">
        <ele>333.201634</ele>
        <time>2020-07-27T15:05:40.417Z</time>
      </trkpt>
      <trkpt lat="61.47823" lon="5.76547">
        <ele>332.396532</ele>
        <time>2020-07-27T15:05:41.426Z</time>
      </trkpt>
      <trkpt lat="61.4782" lon="5.76569">
        <ele>331.599037</ele>
        <time>2020-07-27T15:05:42.428Z</time>
      </trkpt>
      <trkpt lat="61.47816" lon="5.7659">
        <ele>330.781636</ele>
        <time>2020-07-27T15:05:43.459Z</time>
      </trkpt>
      <trkpt lat="61.47811" lon="5.7661">
        <ele>329.970252</ele>
        <time>2020-07-27T15:05:44.428Z</time>
      </trkpt>
      <trkpt lat="61.47805" lon="5.7663">
        <ele>329.13054</ele>
        <time>2020-07-27T15:05:45.428Z</time>
      </trkpt>
      <trkpt lat="61.47798" lon="5.76651">
        <ele>328.188185</ele>
        <time>2020-07-27T15:05:46.406Z</time>
      </trkpt>
      <trkpt lat="61.47792" lon="5.76672">
        <ele>327.100345</ele>
        <time>2020-07-27T15:05:47.422Z</time>
      </trkpt>
      <trkpt lat="61.47785" lon="5.76694">
        <ele>325.993144</ele>
        <time>2020-07-27T15:05:48.419Z</time>
      </trkpt>
      <trkpt lat="61.47779" lon="5.76716">
        <ele>324.90023</ele>
        <time>2020-07-27T15:05:49.411Z</time>
      </trkpt>
      <trkpt lat="61.47773" lon="5.76738">
        <ele>323.806182</ele>
        <time>2020-07-27T15:05:50.412Z</time>
      </trkpt>
      <trkpt lat="61.47767" lon="5.7676">
        <ele>322.714563</ele>
        <time>2020-07-27T15:05:51.452Z</time>
      </trkpt>
      <trkpt lat="61.47762" lon="5.76784">
        <ele>321.607391</ele>
        <time>2020-07-27T15:05:52.403Z</time>
      </trkpt>
      <trkpt lat="61.47758" lon="5.76808">
        <ele>320.487146</ele>
        <time>2020-07-27T15:05:53.428Z</time>
      </trkpt>
      <trkpt lat="61.47755" lon="5.76834">
        <ele>319.348327</ele>
        <time>2020-07-27T15:05:54.460Z</time>
      </trkpt>
      <trkpt lat="61.47753" lon="5.76861">
        <ele>318.178069</ele>
        <time>2020-07-27T15:05:55.447Z</time>
      </trkpt>
      <trkpt lat="61.47751" lon="5.76888">
        <ele>316.993102</ele>
        <time>2020-07-27T15:05:56.411Z</time>
      </trkpt>
      <trkpt lat="61.47751" lon="5.76916">
        <ele>315.79239</ele>
        <time>2020-07-27T15:05:57.418Z</time>
      </trkpt>
      <trkpt lat="61.47752" lon="5.76944">
        <ele>314.597562</ele>
        <time>2020-07-27T15:05:58.413Z</time>
      </trkpt>
      <trkpt lat="61.47754" lon="5.76971">
        <ele>313.413889</ele>
        <time>2020-07-27T15:05:59.420Z</time>
      </trkpt>
      <trkpt lat="61.47756" lon="5.76998">
        <ele>312.224337</ele>
        <time>2020-07-27T15:06:00.428Z</time>
      </trkpt>
      <trkpt lat="61.47757" lon="5.77026">
        <ele>310.987278</ele>
        <time>2020-07-27T15:06:01.420Z</time>
      </trkpt>
      <trkpt lat="61.47759" lon="5.77052">
        <ele>309.768597</ele>
        <time>2020-07-27T15:06:02.419Z</time>
      </trkpt>
      <trkpt lat="61.47759" lon="5.77079">
        <ele>308.554031</ele>
        <time>2020-07-27T15:06:03.418Z</time>
      </trkpt>
      <trkpt lat="61.47758" lon="5.77107">
        <ele>307.315457</ele>
        <time>2020-07-27T15:06:04.423Z</time>
      </trkpt>
      <trkpt lat="61.47756" lon="5.77135">
        <ele>306.044991</ele>
        <time>2020-07-27T15:06:05.454Z</time>
      </trkpt>
      <trkpt lat="61.47754" lon="5.77163">
        <ele>304.764105</ele>
        <time>2020-07-27T15:06:06.450Z</time>
      </trkpt>
      <trkpt lat="61.47751" lon="5.77191">
        <ele>303.454377</ele>
        <time>2020-07-27T15:06:07.414Z</time>
      </trkpt>
      <trkpt lat="61.47749" lon="5.7722">
        <ele>302.143618</ele>
        <time>2020-07-27T15:06:08.424Z</time>
      </trkpt>
      <trkpt lat="61.47746" lon="5.77248">
        <ele>300.86048</ele>
        <time>2020-07-27T15:06:09.417Z</time>
      </trkpt>
      <trkpt lat="61.47744" lon="5.77275">
        <ele>299.58247</ele>
        <time>2020-07-27T15:06:10.428Z</time>
      </trkpt>
      <trkpt lat="61.47742" lon="5.77304">
        <ele>298.288215</ele>
        <time>2020-07-27T15:06:11.419Z</time>
      </trkpt>
      <trkpt lat="61.47739" lon="5.77332">
        <ele>296.981898</ele>
        <time>2020-07-27T15:06:12.446Z</time>
      </trkpt>
      <trkpt lat="61.47737" lon="5.77361">
        <ele>295.65886</ele>
        <time>2020-07-27T15:06:13.402Z</time>
      </trkpt>
      <trkpt lat="61.47734" lon="5.7739">
        <ele>294.1711</ele>
        <time>2020-07-27T15:06:14.417Z</time>
      </trkpt>
      <trkpt lat="61.47733" lon="5.77419">
        <ele>292.609526</ele>
        <time>2020-07-27T15:06:15.434Z</time>
      </trkpt>
      <trkpt lat="61.47732" lon="5.77448">
        <ele>291.063761</ele>
        <time>2020-07-27T15:06:16.434Z</time>
      </trkpt>
      <trkpt lat="61.47731" lon="5.77477">
        <ele>289.56484</ele>
        <time>2020-07-27T15:06:17.414Z</time>
      </trkpt>
      <trkpt lat="61.47731" lon="5.77505">
        <ele>288.076636</ele>
        <time>2020-07-27T15:06:18.414Z</time>
      </trkpt>
      <trkpt lat="61.47731" lon="5.77532">
        <ele>286.64644</ele>
        <time>2020-07-27T15:06:19.423Z</time>
      </trkpt>
      <trkpt lat="61.47731" lon="5.77558">
        <ele>285.279436</ele>
        <time>2020-07-27T15:06:20.403Z</time>
      </trkpt>
      <trkpt lat="61.47731" lon="5.77583">
        <ele>283.964965</ele>
        <time>2020-07-27T15:06:21.459Z</time>
      </trkpt>
      <trkpt lat="61.47732" lon="5.77607">
        <ele>282.708769</ele>
        <time>2020-07-27T15:06:22.411Z</time>
      </trkpt>
      <trkpt lat="61.47732" lon="5.7763">
        <ele>281.500263</ele>
        <time>2020-07-27T15:06:23.461Z</time>
      </trkpt>
      <trkpt lat="61.47732" lon="5.77652">
        <ele>280.344319</ele>
        <time>2020-07-27T15:06:24.430Z</time>
      </trkpt>
      <trkpt lat="61.47733" lon="5.77673">
        <ele>279.215859</ele>
        <time>2020-07-27T15:06:25.420Z</time>
      </trkpt>
      <trkpt lat="61.47735" lon="5.77694">
        <ele>278.061969</ele>
        <time>2020-07-27T15:06:26.418Z</time>
      </trkpt>
      <trkpt lat="61.47738" lon="5.77717">
        <ele>276.817967</ele>
        <time>2020-07-27T15:06:27.424Z</time>
      </trkpt>
      <trkpt lat="61.47742" lon="5.7774">
        <ele>275.519383</ele>
        <time>2020-07-27T15:06:28.433Z</time>
      </trkpt>
      <trkpt lat="61.47747" lon="5.77763">
        <ele>274.456692</ele>
        <time>2020-07-27T15:06:29.427Z</time>
      </trkpt>
      <trkpt lat="61.47752" lon="5.77783">
        <ele>273.470732</ele>
        <time>2020-07-27T15:06:30.414Z</time>
      </trkpt>
      <trkpt lat="61.47758" lon="5.77803">
        <ele>272.489584</ele>
        <time>2020-07-27T15:06:31.421Z</time>
      </trkpt>
      <trkpt lat="61.47764" lon="5.77824">
        <ele>271.510195</ele>
        <time>2020-07-27T15:06:32.458Z</time>
      </trkpt>
      <trkpt lat="61.47769" lon="5.77844">
        <ele>270.537684</ele>
        <time>2020-07-27T15:06:33.406Z</time>
      </trkpt>
      <trkpt lat="61.47773" lon="5.77866">
        <ele>269.567544</ele>
        <time>2020-07-27T15:06:34.429Z</time>
      </trkpt>
      <trkpt lat="61.47777" lon="5.77888">
        <ele>268.578697</ele>
        <time>2020-07-27T15:06:35.407Z</time>
      </trkpt>
      <trkpt lat="61.4778" lon="5.77911">
        <ele>267.595145</ele>
        <time>2020-07-27T15:06:36.435Z</time>
      </trkpt>
      <trkpt lat="61.47782" lon="5.77934">
        <ele>266.615709</ele>
        <time>2020-07-27T15:06:37.422Z</time>
      </trkpt>
      <trkpt lat="61.47784" lon="5.77956">
        <ele>265.637968</ele>
        <time>2020-07-27T15:06:38.413Z</time>
      </trkpt>
      <trkpt lat="61.47787" lon="5.77979">
        <ele>264.657076</ele>
        <time>2020-07-27T15:06:39.441Z</time>
      </trkpt>
      <trkpt lat="61.4779" lon="5.78002">
        <ele>263.650166</ele>
        <time>2020-07-27T15:06:40.411Z</time>
      </trkpt>
      <trkpt lat="61.47794" lon="5.78025">
        <ele>262.624571</ele>
        <time>2020-07-27T15:06:41.442Z</time>
      </trkpt>
      <trkpt lat="61.47798" lon="5.78049">
        <ele>261.579447</ele>
        <time>2020-07-27T15:06:42.429Z</time>
      </trkpt>
      <trkpt lat="61.47803" lon="5.7807">
        <ele>260.576603</ele>
        <time>2020-07-27T15:06:43.416Z</time>
      </trkpt>
      <trkpt lat="61.47809" lon="5.7809">
        <ele>259.591872</ele>
        <time>2020-07-27T15:06:44.457Z</time>
      </trkpt>
      <trkpt lat="61.47816" lon="5.78108">
        <ele>258.573967</ele>
        <time>2020-07-27T15:06:45.475Z</time>
      </trkpt>
      <trkpt lat="61.47824" lon="5.78123">
        <ele>257.576226</ele>
        <time>2020-07-27T15:06:46.423Z</time>
      </trkpt>
      <trkpt lat="61.47831" lon="5.78138">
        <ele>256.585822</ele>
        <time>2020-07-27T15:06:47.455Z</time>
      </trkpt>
      <trkpt lat="61.47838" lon="5.78153">
        <ele>255.697059</ele>
        <time>2020-07-27T15:06:48.487Z</time>
      </trkpt>
      <trkpt lat="61.47844" lon="5.78168">
        <ele>254.860405</ele>
        <time>2020-07-27T15:06:49.443Z</time>
      </trkpt>
      <trkpt lat="61.47852" lon="5.78201">
        <ele>253.206976</ele>
        <time>2020-07-27T15:06:51.445Z</time>
      </trkpt>
      <trkpt lat="61.47855" lon="5.78219">
        <ele>252.357364</ele>
        <time>2020-07-27T15:06:52.441Z</time>
      </trkpt>
      <trkpt lat="61.47858" lon="5.78238">
        <ele>251.45011</ele>
        <time>2020-07-27T15:06:53.447Z</time>
      </trkpt>
      <trkpt lat="61.4786" lon="5.78258">
        <ele>250.531734</ele>
        <time>2020-07-27T15:06:54.485Z</time>
      </trkpt>
      <trkpt lat="61.47861" lon="5.78278">
        <ele>249.643556</ele>
        <time>2020-07-27T15:06:55.443Z</time>
      </trkpt>
      <trkpt lat="61.4786" lon="5.78299">
        <ele>248.715518</ele>
        <time>2020-07-27T15:06:56.411Z</time>
      </trkpt>
      <trkpt lat="61.47859" lon="5.7832">
        <ele>247.80777</ele>
        <time>2020-07-27T15:06:57.418Z</time>
      </trkpt>
      <trkpt lat="61.47858" lon="5.78339">
        <ele>246.940227</ele>
        <time>2020-07-27T15:06:58.455Z</time>
      </trkpt>
      <trkpt lat="61.47856" lon="5.78376">
        <ele>245.308498</ele>
        <time>2020-07-27T15:07:00.411Z</time>
      </trkpt>
      <trkpt lat="61.47855" lon="5.78408">
        <ele>243.853294</ele>
        <time>2020-07-27T15:07:02.417Z</time>
      </trkpt>
      <trkpt lat="61.47854" lon="5.78438">
        <ele>242.491025</ele>
        <time>2020-07-27T15:07:04.439Z</time>
      </trkpt>
      <trkpt lat="61.47852" lon="5.78463">
        <ele>241.352351</ele>
        <time>2020-07-27T15:07:06.428Z</time>
      </trkpt>
      <trkpt lat="61.47852" lon="5.78483">
        <ele>240.414857</ele>
        <time>2020-07-27T15:07:10.422Z</time>
      </trkpt>
      <trkpt lat="61.4785" lon="5.78501">
        <ele>239.536641</ele>
        <time>2020-07-27T15:07:14.421Z</time>
      </trkpt>
      <trkpt lat="61.47851" lon="5.7852">
        <ele>238.647191</ele>
        <time>2020-07-27T15:07:16.410Z</time>
      </trkpt>
      <trkpt lat="61.4785" lon="5.78545">
        <ele>237.464753</ele>
        <time>2020-07-27T15:07:18.445Z</time>
      </trkpt>
      <trkpt lat="61.47849" lon="5.78572">
        <ele>236.229686</ele>
        <time>2020-07-27T15:07:20.420Z</time>
      </trkpt>
      <trkpt lat="61.47847" lon="5.786">
        <ele>234.907803</ele>
        <time>2020-07-27T15:07:22.421Z</time>
      </trkpt>
      <trkpt lat="61.47845" lon="5.78629">
        <ele>233.542187</ele>
        <time>2020-07-27T15:07:24.430Z</time>
      </trkpt>
      <trkpt lat="61.4784" lon="5.78657">
        <ele>232.159024</ele>
        <time>2020-07-27T15:07:26.415Z</time>
      </trkpt>
      <trkpt lat="61.47833" lon="5.78686">
        <ele>230.618975</ele>
        <time>2020-07-27T15:07:28.417Z</time>
      </trkpt>
      <trkpt lat="61.47822" lon="5.78714">
        <ele>228.902007</ele>
        <time>2020-07-27T15:07:30.408Z</time>
      </trkpt>
      <trkpt lat="61.47809" lon="5.78738">
        <ele>227.197374</ele>
        <time>2020-07-27T15:07:32.413Z</time>
      </trkpt>
      <trkpt lat="61.47794" lon="5.78758">
        <ele>225.505875</ele>
        <time>2020-07-27T15:07:34.420Z</time>
      </trkpt>
      <trkpt lat="61.4778" lon="5.78776">
        <ele>224.079387</ele>
        <time>2020-07-27T15:07:36.425Z</time>
      </trkpt>
      <trkpt lat="61.47765" lon="5.78795">
        <ele>222.676584</ele>
        <time>2020-07-27T15:07:38.408Z</time>
      </trkpt>
      <trkpt lat="61.4775" lon="5.78814">
        <ele>221.280766</ele>
        <time>2020-07-27T15:07:40.434Z</time>
      </trkpt>
      <trkpt lat="61.47736" lon="5.78834">
        <ele>219.884595</ele>
        <time>2020-07-27T15:07:42.445Z</time>
      </trkpt>
      <trkpt lat="61.47723" lon="5.78855">
        <ele>218.523453</ele>
        <time>2020-07-27T15:07:44.434Z</time>
      </trkpt>
      <trkpt lat="61.47711" lon="5.78879">
        <ele>217.133413</ele>
        <time>2020-07-27T15:07:46.406Z</time>
      </trkpt>
      <trkpt lat="61.47698" lon="5.78907">
        <ele>215.627191</ele>
        <time>2020-07-27T15:07:48.449Z</time>
      </trkpt>
      <trkpt lat="61.47692" lon="5.78923">
        <ele>214.832846</ele>
        <time>2020-07-27T15:07:49.418Z</time>
      </trkpt>
      <trkpt lat="61.47687" lon="5.7894">
        <ele>214.023879</ele>
        <time>2020-07-27T15:07:50.449Z</time>
      </trkpt>
      <trkpt lat="61.47682" lon="5.78958">
        <ele>213.227161</ele>
        <time>2020-07-27T15:07:51.422Z</time>
      </trkpt>
      <trkpt lat="61.47678" lon="5.78975">
        <ele>212.45608</ele>
        <time>2020-07-27T15:07:52.411Z</time>
      </trkpt>
      <trkpt lat="61.47673" lon="5.78992">
        <ele>211.697787</ele>
        <time>2020-07-27T15:07:53.431Z</time>
      </trkpt>
      <trkpt lat="61.47667" lon="5.79007">
        <ele>210.937889</ele>
        <time>2020-07-27T15:07:54.428Z</time>
      </trkpt>
      <trkpt lat="61.4766" lon="5.79019">
        <ele>210.224067</ele>
        <time>2020-07-27T15:07:55.431Z</time>
      </trkpt>
      <trkpt lat="61.47645" lon="5.79041">
        <ele>208.899648</ele>
        <time>2020-07-27T15:07:57.400Z</time>
      </trkpt>
      <trkpt lat="61.47637" lon="5.79049">
        <ele>208.214485</ele>
        <time>2020-07-27T15:07:58.420Z</time>
      </trkpt>
      <trkpt lat="61.47628" lon="5.79056">
        <ele>207.518764</ele>
        <time>2020-07-27T15:07:59.418Z</time>
      </trkpt>
      <trkpt lat="61.47619" lon="5.79063">
        <ele>206.828575</ele>
        <time>2020-07-27T15:08:00.437Z</time>
      </trkpt>
      <trkpt lat="61.4761" lon="5.79067">
        <ele>206.149389</ele>
        <time>2020-07-27T15:08:01.427Z</time>
      </trkpt>
      <trkpt lat="61.47601" lon="5.79071">
        <ele>205.462582</ele>
        <time>2020-07-27T15:08:02.430Z</time>
      </trkpt>
      <trkpt lat="61.47591" lon="5.79073">
        <ele>204.732342</ele>
        <time>2020-07-27T15:08:03.422Z</time>
      </trkpt>
      <trkpt lat="61.47581" lon="5.79075">
        <ele>203.987729</ele>
        <time>2020-07-27T15:08:04.411Z</time>
      </trkpt>
      <trkpt lat="61.47572" lon="5.79078">
        <ele>203.272221</ele>
        <time>2020-07-27T15:08:05.426Z</time>
      </trkpt>
      <trkpt lat="61.47563" lon="5.7908">
        <ele>202.593923</ele>
        <time>2020-07-27T15:08:06.418Z</time>
      </trkpt>
      <trkpt lat="61.47546" lon="5.79084">
        <ele>201.367525</ele>
        <time>2020-07-27T15:08:08.432Z</time>
      </trkpt>
      <trkpt lat="61.47532" lon="5.79089">
        <ele>200.28984</ele>
        <time>2020-07-27T15:08:10.416Z</time>
      </trkpt>
      <trkpt lat="61.47519" lon="5.79092">
        <ele>199.340319</ele>
        <time>2020-07-27T15:08:12.413Z</time>
      </trkpt>
      <trkpt lat="61.47508" lon="5.79096">
        <ele>198.500795</ele>
        <time>2020-07-27T15:08:14.410Z</time>
      </trkpt>
      <trkpt lat="61.47498" lon="5.79095">
        <ele>197.737376</ele>
        <time>2020-07-27T15:08:16.434Z</time>
      </trkpt>
      <trkpt lat="61.47486" lon="5.79087">
        <ele>197.036867</ele>
        <time>2020-07-27T15:08:19.412Z</time>
      </trkpt>
      <trkpt lat="61.47465" lon="5.79099">
        <ele>196.073786</ele>
        <time>2020-07-27T15:09:55.413Z</time>
      </trkpt>
      <trkpt lat="61.47454" lon="5.79099">
        <ele>195.63843</ele>
        <time>2020-07-27T15:09:57.420Z</time>
      </trkpt>
      <trkpt lat="61.47443" lon="5.79098">
        <ele>195.150337</ele>
        <time>2020-07-27T15:09:59.437Z</time>
      </trkpt>
      <trkpt lat="61.4743" lon="5.79094">
        <ele>194.577968</ele>
        <time>2020-07-27T15:10:01.423Z</time>
      </trkpt>
      <trkpt lat="61.47415" lon="5.79091">
        <ele>193.939479</ele>
        <time>2020-07-27T15:10:03.444Z</time>
      </trkpt>
      <trkpt lat="61.47399" lon="5.79098">
        <ele>193.256821</ele>
        <time>2020-07-27T15:10:05.410Z</time>
      </trkpt>
      <trkpt lat="61.47383" lon="5.79116">
        <ele>192.472776</ele>
        <time>2020-07-27T15:10:07.401Z</time>
      </trkpt>
      <trkpt lat="61.47376" lon="5.79129">
        <ele>192.067438</ele>
        <time>2020-07-27T15:10:08.435Z</time>
      </trkpt>
      <trkpt lat="61.47369" lon="5.79142">
        <ele>191.664691</ele>
        <time>2020-07-27T15:10:09.420Z</time>
      </trkpt>
      <trkpt lat="61.47362" lon="5.79157">
        <ele>191.266718</ele>
        <time>2020-07-27T15:10:10.408Z</time>
      </trkpt>
      <trkpt lat="61.4735" lon="5.79181">
        <ele>190.545497</ele>
        <time>2020-07-27T15:10:12.429Z</time>
      </trkpt>
      <trkpt lat="61.47338" lon="5.792">
        <ele>189.87814</ele>
        <time>2020-07-27T15:10:14.426Z</time>
      </trkpt>
      <trkpt lat="61.47324" lon="5.79214">
        <ele>188.992539</ele>
        <time>2020-07-27T15:10:16.438Z</time>
      </trkpt>
      <trkpt lat="61.47309" lon="5.79223">
        <ele>187.804111</ele>
        <time>2020-07-27T15:10:18.425Z</time>
      </trkpt>
      <trkpt lat="61.47291" lon="5.79225">
        <ele>186.543914</ele>
        <time>2020-07-27T15:10:20.421Z</time>
      </trkpt>
      <trkpt lat="61.47274" lon="5.79222">
        <ele>185.296197</ele>
        <time>2020-07-27T15:10:22.435Z</time>
      </trkpt>
      <trkpt lat="61.47257" lon="5.79221">
        <ele>184.044309</ele>
        <time>2020-07-27T15:10:24.401Z</time>
      </trkpt>
      <trkpt lat="61.47248" lon="5.7922">
        <ele>183.389578</ele>
        <time>2020-07-27T15:10:25.447Z</time>
      </trkpt>
      <trkpt lat="61.47239" lon="5.79221">
        <ele>182.719758</ele>
        <time>2020-07-27T15:10:26.456Z</time>
      </trkpt>
      <trkpt lat="61.47229" lon="5.79225">
        <ele>182.001252</ele>
        <time>2020-07-27T15:10:27.448Z</time>
      </trkpt>
      <trkpt lat="61.4722" lon="5.79231">
        <ele>181.276354</ele>
        <time>2020-07-27T15:10:28.413Z</time>
      </trkpt>
      <trkpt lat="61.4721" lon="5.79241">
        <ele>180.531684</ele>
        <time>2020-07-27T15:10:29.434Z</time>
      </trkpt>
      <trkpt lat="61.47202" lon="5.79253">
        <ele>179.758136</ele>
        <time>2020-07-27T15:10:30.451Z</time>
      </trkpt>
      <trkpt lat="61.47193" lon="5.79267">
        <ele>178.969956</ele>
        <time>2020-07-27T15:10:31.422Z</time>
      </trkpt>
      <trkpt lat="61.47184" lon="5.79282">
        <ele>178.166749</ele>
        <time>2020-07-27T15:10:32.445Z</time>
      </trkpt>
      <trkpt lat="61.47175" lon="5.79296">
        <ele>177.33909</ele>
        <time>2020-07-27T15:10:33.421Z</time>
      </trkpt>
      <trkpt lat="61.47167" lon="5.79311">
        <ele>176.532685</ele>
        <time>2020-07-27T15:10:34.410Z</time>
      </trkpt>
      <trkpt lat="61.47159" lon="5.79326">
        <ele>175.550945</ele>
        <time>2020-07-27T15:10:35.423Z</time>
      </trkpt>
      <trkpt lat="61.47152" lon="5.79342">
        <ele>174.588978</ele>
        <time>2020-07-27T15:10:36.407Z</time>
      </trkpt>
      <trkpt lat="61.47146" lon="5.7936">
        <ele>173.693034</ele>
        <time>2020-07-27T15:10:37.427Z</time>
      </trkpt>
      <trkpt lat="61.47143" lon="5.79377">
        <ele>172.865277</ele>
        <time>2020-07-27T15:10:38.455Z</time>
      </trkpt>
      <trkpt lat="61.47138" lon="5.79409">
        <ele>171.409939</ele>
        <time>2020-07-27T15:10:40.413Z</time>
      </trkpt>
      <trkpt lat="61.47131" lon="5.79437">
        <ele>170.036986</ele>
        <time>2020-07-27T15:10:42.421Z</time>
      </trkpt>
      <trkpt lat="61.4712" lon="5.79457">
        <ele>168.758425</ele>
        <time>2020-07-27T15:10:44.434Z</time>
      </trkpt>
      <trkpt lat="61.47106" lon="5.79464">
        <ele>167.40104</ele>
        <time>2020-07-27T15:10:46.412Z</time>
      </trkpt>
      <trkpt lat="61.47088" lon="5.79461">
        <ele>165.719789</ele>
        <time>2020-07-27T15:10:48.411Z</time>
      </trkpt>
      <trkpt lat="61.47077" lon="5.79456">
        <ele>164.74158</ele>
        <time>2020-07-27T15:10:49.439Z</time>
      </trkpt>
      <trkpt lat="61.47066" lon="5.7945">
        <ele>163.721141</ele>
        <time>2020-07-27T15:10:50.426Z</time>
      </trkpt>
      <trkpt lat="61.47056" lon="5.79444">
        <ele>162.730493</ele>
        <time>2020-07-27T15:10:51.426Z</time>
      </trkpt>
      <trkpt lat="61.47046" lon="5.79438">
        <ele>161.779518</ele>
        <time>2020-07-27T15:10:52.412Z</time>
      </trkpt>
      <trkpt lat="61.47036" lon="5.79432">
        <ele>160.842643</ele>
        <time>2020-07-27T15:10:53.428Z</time>
      </trkpt>
      <trkpt lat="61.47026" lon="5.79425">
        <ele>159.953184</ele>
        <time>2020-07-27T15:10:54.406Z</time>
      </trkpt>
      <trkpt lat="61.47016" lon="5.7942">
        <ele>159.165802</ele>
        <time>2020-07-27T15:10:55.416Z</time>
      </trkpt>
      <trkpt lat="61.47007" lon="5.79418">
        <ele>158.394061</ele>
        <time>2020-07-27T15:10:56.414Z</time>
      </trkpt>
      <trkpt lat="61.46997" lon="5.7942">
        <ele>157.637243</ele>
        <time>2020-07-27T15:10:57.431Z</time>
      </trkpt>
      <trkpt lat="61.46988" lon="5.79423">
        <ele>156.906236</ele>
        <time>2020-07-27T15:10:58.406Z</time>
      </trkpt>
      <trkpt lat="61.46979" lon="5.79427">
        <ele>156.159093</ele>
        <time>2020-07-27T15:10:59.432Z</time>
      </trkpt>
      <trkpt lat="61.46969" lon="5.79431">
        <ele>155.383531</ele>
        <time>2020-07-27T15:11:00.424Z</time>
      </trkpt>
      <trkpt lat="61.46959" lon="5.79435">
        <ele>154.57443</ele>
        <time>2020-07-27T15:11:01.417Z</time>
      </trkpt>
      <trkpt lat="61.46948" lon="5.79438">
        <ele>153.751369</ele>
        <time>2020-07-27T15:11:02.420Z</time>
      </trkpt>
      <trkpt lat="61.46938" lon="5.79441">
        <ele>152.922528</ele>
        <time>2020-07-27T15:11:03.420Z</time>
      </trkpt>
      <trkpt lat="61.46928" lon="5.79448">
        <ele>152.0872</ele>
        <time>2020-07-27T15:11:04.413Z</time>
      </trkpt>
      <trkpt lat="61.46918" lon="5.79457">
        <ele>151.292162</ele>
        <time>2020-07-27T15:11:05.420Z</time>
      </trkpt>
      <trkpt lat="61.4691" lon="5.79468">
        <ele>150.517525</ele>
        <time>2020-07-27T15:11:06.426Z</time>
      </trkpt>
      <trkpt lat="61.46902" lon="5.79482">
        <ele>149.698276</ele>
        <time>2020-07-27T15:11:07.417Z</time>
      </trkpt>
      <trkpt lat="61.46895" lon="5.79496">
        <ele>148.951671</ele>
        <time>2020-07-27T15:11:08.447Z</time>
      </trkpt>
      <trkpt lat="61.46888" lon="5.79507">
        <ele>148.233153</ele>
        <time>2020-07-27T15:11:09.433Z</time>
      </trkpt>
      <trkpt lat="61.46879" lon="5.79516">
        <ele>147.473542</ele>
        <time>2020-07-27T15:11:10.416Z</time>
      </trkpt>
      <trkpt lat="61.46869" lon="5.79523">
        <ele>146.660025</ele>
        <time>2020-07-27T15:11:11.423Z</time>
      </trkpt>
      <trkpt lat="61.46859" lon="5.79527">
        <ele>145.763125</ele>
        <time>2020-07-27T15:11:12.416Z</time>
      </trkpt>
      <trkpt lat="61.46849" lon="5.7953">
        <ele>144.632582</ele>
        <time>2020-07-27T15:11:13.407Z</time>
      </trkpt>
      <trkpt lat="61.46838" lon="5.79536">
        <ele>143.462612</ele>
        <time>2020-07-27T15:11:14.444Z</time>
      </trkpt>
      <trkpt lat="61.46828" lon="5.79543">
        <ele>142.303899</ele>
        <time>2020-07-27T15:11:15.456Z</time>
      </trkpt>
      <trkpt lat="61.46818" lon="5.79553">
        <ele>141.162251</ele>
        <time>2020-07-27T15:11:16.418Z</time>
      </trkpt>
      <trkpt lat="61.46808" lon="5.79563">
        <ele>140.02389</ele>
        <time>2020-07-27T15:11:17.483Z</time>
      </trkpt>
      <trkpt lat="61.46799" lon="5.79573">
        <ele>138.894034</ele>
        <time>2020-07-27T15:11:18.454Z</time>
      </trkpt>
      <trkpt lat="61.46789" lon="5.79582">
        <ele>137.727645</ele>
        <time>2020-07-27T15:11:19.422Z</time>
      </trkpt>
      <trkpt lat="61.46778" lon="5.79591">
        <ele>136.537833</ele>
        <time>2020-07-27T15:11:20.459Z</time>
      </trkpt>
      <trkpt lat="61.46767" lon="5.79598">
        <ele>135.3115</ele>
        <time>2020-07-27T15:11:21.420Z</time>
      </trkpt>
      <trkpt lat="61.46756" lon="5.79605">
        <ele>134.073494</ele>
        <time>2020-07-27T15:11:22.427Z</time>
      </trkpt>
      <trkpt lat="61.46746" lon="5.79613">
        <ele>132.859315</ele>
        <time>2020-07-27T15:11:23.419Z</time>
      </trkpt>
      <trkpt lat="61.46736" lon="5.79623">
        <ele>131.716501</ele>
        <time>2020-07-27T15:11:24.425Z</time>
      </trkpt>
      <trkpt lat="61.46727" lon="5.79632">
        <ele>130.639398</ele>
        <time>2020-07-27T15:11:25.431Z</time>
      </trkpt>
      <trkpt lat="61.46718" lon="5.79642">
        <ele>129.571547</ele>
        <time>2020-07-27T15:11:26.433Z</time>
      </trkpt>
      <trkpt lat="61.46709" lon="5.79652">
        <ele>128.541457</ele>
        <time>2020-07-27T15:11:27.442Z</time>
      </trkpt>
      <trkpt lat="61.46702" lon="5.79661">
        <ele>127.589267</ele>
        <time>2020-07-27T15:11:28.427Z</time>
      </trkpt>
      <trkpt lat="61.46686" lon="5.79678">
        <ele>125.513143</ele>
        <time>2020-07-27T15:11:30.442Z</time>
      </trkpt>
      <trkpt lat="61.46672" lon="5.79693">
        <ele>123.467383</ele>
        <time>2020-07-27T15:11:32.417Z</time>
      </trkpt>
      <trkpt lat="61.46657" lon="5.79703">
        <ele>121.350555</ele>
        <time>2020-07-27T15:11:34.408Z</time>
      </trkpt>
      <trkpt lat="61.4664" lon="5.79708">
        <ele>119.118268</ele>
        <time>2020-07-27T15:11:36.423Z</time>
      </trkpt>
      <trkpt lat="61.46622" lon="5.79708">
        <ele>116.812735</ele>
        <time>2020-07-27T15:11:38.407Z</time>
      </trkpt>
      <trkpt lat="61.46605" lon="5.79709">
        <ele>114.60832</ele>
        <time>2020-07-27T15:11:40.461Z</time>
      </trkpt>
      <trkpt lat="61.46592" lon="5.79726">
        <ele>112.656697</ele>
        <time>2020-07-27T15:11:42.413Z</time>
      </trkpt>
      <trkpt lat="61.46588" lon="5.79743">
        <ele>111.466529</ele>
        <time>2020-07-27T15:11:43.427Z</time>
      </trkpt>
      <trkpt lat="61.46585" lon="5.79761">
        <ele>110.297121</ele>
        <time>2020-07-27T15:11:44.411Z</time>
      </trkpt>
      <trkpt lat="61.46585" lon="5.79794">
        <ele>108.249141</ele>
        <time>2020-07-27T15:11:46.408Z</time>
      </trkpt>
      <trkpt lat="61.46586" lon="5.79829">
        <ele>106.100295</ele>
        <time>2020-07-27T15:11:48.460Z</time>
      </trkpt>
      <trkpt lat="61.46585" lon="5.79865">
        <ele>103.845799</ele>
        <time>2020-07-27T15:11:50.427Z</time>
      </trkpt>
      <trkpt lat="61.46584" lon="5.79884">
        <ele>102.931795</ele>
        <time>2020-07-27T15:11:51.419Z</time>
      </trkpt>
      <trkpt lat="61.46583" lon="5.79903">
        <ele>102.065144</ele>
        <time>2020-07-27T15:11:52.435Z</time>
      </trkpt>
      <trkpt lat="61.4658" lon="5.79922">
        <ele>101.205055</ele>
        <time>2020-07-27T15:11:53.412Z</time>
      </trkpt>
      <trkpt lat="61.46577" lon="5.79941">
        <ele>100.330959</ele>
        <time>2020-07-27T15:11:54.418Z</time>
      </trkpt>
      <trkpt lat="61.46573" lon="5.7996">
        <ele>99.419349</ele>
        <time>2020-07-27T15:11:55.418Z</time>
      </trkpt>
      <trkpt lat="61.46568" lon="5.79978">
        <ele>98.507792</ele>
        <time>2020-07-27T15:11:56.415Z</time>
      </trkpt>
      <trkpt lat="61.46562" lon="5.79994">
        <ele>97.614225</ele>
        <time>2020-07-27T15:11:57.413Z</time>
      </trkpt>
      <trkpt lat="61.46556" lon="5.80009">
        <ele>96.698546</ele>
        <time>2020-07-27T15:11:58.416Z</time>
      </trkpt>
      <trkpt lat="61.46549" lon="5.80023">
        <ele>95.798686</ele>
        <time>2020-07-27T15:11:59.426Z</time>
      </trkpt>
      <trkpt lat="61.46541" lon="5.80036">
        <ele>94.905362</ele>
        <time>2020-07-27T15:12:00.411Z</time>
      </trkpt>
      <trkpt lat="61.46533" lon="5.80048">
        <ele>94.024617</ele>
        <time>2020-07-27T15:12:01.427Z</time>
      </trkpt>
      <trkpt lat="61.46526" lon="5.80059">
        <ele>93.164038</ele>
        <time>2020-07-27T15:12:02.432Z</time>
      </trkpt>
      <trkpt lat="61.46518" lon="5.80072">
        <ele>92.292002</ele>
        <time>2020-07-27T15:12:03.452Z</time>
      </trkpt>
      <trkpt lat="61.46512" lon="5.80086">
        <ele>91.442669</ele>
        <time>2020-07-27T15:12:04.420Z</time>
      </trkpt>
      <trkpt lat="61.46507" lon="5.80103">
        <ele>90.581945</ele>
        <time>2020-07-27T15:12:05.424Z</time>
      </trkpt>
      <trkpt lat="61.46503" lon="5.8012">
        <ele>89.693816</ele>
        <time>2020-07-27T15:12:06.434Z</time>
      </trkpt>
      <trkpt lat="61.46499" lon="5.80139">
        <ele>88.792412</ele>
        <time>2020-07-27T15:12:07.414Z</time>
      </trkpt>
      <trkpt lat="61.46496" lon="5.80159">
        <ele>87.891471</ele>
        <time>2020-07-27T15:12:08.408Z</time>
      </trkpt>
      <trkpt lat="61.46493" lon="5.80178">
        <ele>87.005117</ele>
        <time>2020-07-27T15:12:09.420Z</time>
      </trkpt>
      <trkpt lat="61.4649" lon="5.80197">
        <ele>86.179259</ele>
        <time>2020-07-27T15:12:10.425Z</time>
      </trkpt>
      <trkpt lat="61.46486" lon="5.80216">
        <ele>85.339246</ele>
        <time>2020-07-27T15:12:11.443Z</time>
      </trkpt>
      <trkpt lat="61.46483" lon="5.80236">
        <ele>84.479043</ele>
        <time>2020-07-27T15:12:12.445Z</time>
      </trkpt>
      <trkpt lat="61.46478" lon="5.80255">
        <ele>83.605115</ele>
        <time>2020-07-27T15:12:13.435Z</time>
      </trkpt>
      <trkpt lat="61.46474" lon="5.80275">
        <ele>82.716575</ele>
        <time>2020-07-27T15:12:14.445Z</time>
      </trkpt>
      <trkpt lat="61.46469" lon="5.80295">
        <ele>81.824326</ele>
        <time>2020-07-27T15:12:15.427Z</time>
      </trkpt>
      <trkpt lat="61.46464" lon="5.80314">
        <ele>80.923776</ele>
        <time>2020-07-27T15:12:16.409Z</time>
      </trkpt>
      <trkpt lat="61.46459" lon="5.80334">
        <ele>80.022732</ele>
        <time>2020-07-27T15:12:17.447Z</time>
      </trkpt>
      <trkpt lat="61.46454" lon="5.80354">
        <ele>79.100873</ele>
        <time>2020-07-27T15:12:18.424Z</time>
      </trkpt>
      <trkpt lat="61.4645" lon="5.80375">
        <ele>78.17187</ele>
        <time>2020-07-27T15:12:19.410Z</time>
      </trkpt>
      <trkpt lat="61.46448" lon="5.80398">
        <ele>77.225377</ele>
        <time>2020-07-27T15:12:20.459Z</time>
      </trkpt>
      <trkpt lat="61.46448" lon="5.80422">
        <ele>76.264727</ele>
        <time>2020-07-27T15:12:21.434Z</time>
      </trkpt>
      <trkpt lat="61.46451" lon="5.80444">
        <ele>75.32621</ele>
        <time>2020-07-27T15:12:22.408Z</time>
      </trkpt>
      <trkpt lat="61.46455" lon="5.80464">
        <ele>74.437224</ele>
        <time>2020-07-27T15:12:23.429Z</time>
      </trkpt>
      <trkpt lat="61.4646" lon="5.80482">
        <ele>73.584748</ele>
        <time>2020-07-27T15:12:24.405Z</time>
      </trkpt>
      <trkpt lat="61.46465" lon="5.805">
        <ele>72.749589</ele>
        <time>2020-07-27T15:12:25.446Z</time>
      </trkpt>
      <trkpt lat="61.46469" lon="5.80517">
        <ele>71.952742</ele>
        <time>2020-07-27T15:12:26.423Z</time>
      </trkpt>
      <trkpt lat="61.46472" lon="5.80552">
        <ele>71.115448</ele>
        <time>2020-07-27T15:12:28.424Z</time>
      </trkpt>
      <trkpt lat="61.4647" lon="5.80587">
        <ele>70.423049</ele>
        <time>2020-07-27T15:12:30.437Z</time>
      </trkpt>
      <trkpt lat="61.46464" lon="5.8062">
        <ele>69.70709</ele>
        <time>2020-07-27T15:12:32.410Z</time>
      </trkpt>
      <trkpt lat="61.46455" lon="5.80649">
        <ele>69.024402</ele>
        <time>2020-07-27T15:12:34.417Z</time>
      </trkpt>
      <trkpt lat="61.46444" lon="5.80676">
        <ele>68.319068</ele>
        <time>2020-07-27T15:12:36.430Z</time>
      </trkpt>
      <trkpt lat="61.46433" lon="5.80705">
        <ele>67.593623</ele>
        <time>2020-07-27T15:12:38.418Z</time>
      </trkpt>
      <trkpt lat="61.46423" lon="5.80733">
        <ele>66.884822</ele>
        <time>2020-07-27T15:12:40.432Z</time>
      </trkpt>
      <trkpt lat="61.46411" lon="5.80759">
        <ele>66.168026</ele>
        <time>2020-07-27T15:12:42.411Z</time>
      </trkpt>
      <trkpt lat="61.46397" lon="5.80781">
        <ele>65.440912</ele>
        <time>2020-07-27T15:12:44.444Z</time>
      </trkpt>
      <trkpt lat="61.46382" lon="5.80801">
        <ele>64.710113</ele>
        <time>2020-07-27T15:12:46.442Z</time>
      </trkpt>
      <trkpt lat="61.46366" lon="5.80815">
        <ele>64.177923</ele>
        <time>2020-07-27T15:12:48.415Z</time>
      </trkpt>
      <trkpt lat="61.46357" lon="5.80822">
        <ele>64.12956</ele>
        <time>2020-07-27T15:12:49.425Z</time>
      </trkpt>
      <trkpt lat="61.46341" lon="5.80837">
        <ele>64.034994</ele>
        <time>2020-07-27T15:12:51.412Z</time>
      </trkpt>
      <trkpt lat="61.46326" lon="5.80859">
        <ele>63.937521</ele>
        <time>2020-07-27T15:12:53.463Z</time>
      </trkpt>
      <trkpt lat="61.46319" lon="5.80871">
        <ele>63.887126</ele>
        <time>2020-07-27T15:12:54.412Z</time>
      </trkpt>
      <trkpt lat="61.46312" lon="5.80884">
        <ele>63.837103</ele>
        <time>2020-07-27T15:12:55.440Z</time>
      </trkpt>
      <trkpt lat="61.46305" lon="5.80898">
        <ele>63.787695</ele>
        <time>2020-07-27T15:12:56.435Z</time>
      </trkpt>
      <trkpt lat="61.46299" lon="5.8091">
        <ele>63.738356</ele>
        <time>2020-07-27T15:12:57.408Z</time>
      </trkpt>
      <trkpt lat="61.46292" lon="5.80923">
        <ele>63.688275</ele>
        <time>2020-07-27T15:12:58.411Z</time>
      </trkpt>
      <trkpt lat="61.46284" lon="5.80935">
        <ele>63.638531</ele>
        <time>2020-07-27T15:12:59.440Z</time>
      </trkpt>
      <trkpt lat="61.46277" lon="5.80947">
        <ele>63.589315</ele>
        <time>2020-07-27T15:13:00.407Z</time>
      </trkpt>
      <trkpt lat="61.46263" lon="5.80969">
        <ele>63.494167</ele>
        <time>2020-07-27T15:13:02.432Z</time>
      </trkpt>
      <trkpt lat="61.46248" lon="5.8099">
        <ele>63.400216</ele>
        <time>2020-07-27T15:13:04.436Z</time>
      </trkpt>
      <trkpt lat="61.46234" lon="5.8101">
        <ele>63.306987</ele>
        <time>2020-07-27T15:13:06.422Z</time>
      </trkpt>
      <trkpt lat="61.4622" lon="5.8103">
        <ele>63.405287</ele>
        <time>2020-07-27T15:13:08.417Z</time>
      </trkpt>
      <trkpt lat="61.46206" lon="5.81049">
        <ele>63.938704</ele>
        <time>2020-07-27T15:13:10.431Z</time>
      </trkpt>
      <trkpt lat="61.46193" lon="5.8107">
        <ele>64.462347</ele>
        <time>2020-07-27T15:13:12.417Z</time>
      </trkpt>
      <trkpt lat="61.46182" lon="5.81092">
        <ele>64.962541</ele>
        <time>2020-07-27T15:13:14.432Z</time>
      </trkpt>
      <trkpt lat="61.46171" lon="5.81114">
        <ele>65.435862</ele>
        <time>2020-07-27T15:13:16.410Z</time>
      </trkpt>
      <trkpt lat="61.46161" lon="5.81136">
        <ele>65.907683</ele>
        <time>2020-07-27T15:13:18.423Z</time>
      </trkpt>
      <trkpt lat="61.46152" lon="5.81158">
        <ele>66.348919</ele>
        <time>2020-07-27T15:13:20.418Z</time>
      </trkpt>
      <trkpt lat="61.46144" lon="5.81178">
        <ele>66.762444</ele>
        <time>2020-07-27T15:13:22.410Z</time>
      </trkpt>
      <trkpt lat="61.46136" lon="5.81198">
        <ele>67.150896</ele>
        <time>2020-07-27T15:13:24.421Z</time>
      </trkpt>
      <trkpt lat="61.46128" lon="5.81217">
        <ele>67.53052</ele>
        <time>2020-07-27T15:13:26.421Z</time>
      </trkpt>
      <trkpt lat="61.46121" lon="5.81234">
        <ele>67.878628</ele>
        <time>2020-07-27T15:13:28.415Z</time>
      </trkpt>
      <trkpt lat="61.46115" lon="5.8125">
        <ele>68.203463</ele>
        <time>2020-07-27T15:13:30.418Z</time>
      </trkpt>
      <trkpt lat="61.46108" lon="5.81264">
        <ele>68.510017</ele>
        <time>2020-07-27T15:13:32.408Z</time>
      </trkpt>
      <trkpt lat="61.46101" lon="5.81278">
        <ele>68.818023</ele>
        <time>2020-07-27T15:13:34.413Z</time>
      </trkpt>
      <trkpt lat="61.46094" lon="5.81292">
        <ele>69.025195</ele>
        <time>2020-07-27T15:13:36.474Z</time>
      </trkpt>
      <trkpt lat="61.46086" lon="5.81307">
        <ele>69.033142</ele>
        <time>2020-07-27T15:13:38.420Z</time>
      </trkpt>
      <trkpt lat="61.46078" lon="5.8132">
        <ele>69.041101</ele>
        <time>2020-07-27T15:13:40.421Z</time>
      </trkpt>
      <trkpt lat="61.46069" lon="5.81334">
        <ele>69.048927</ele>
        <time>2020-07-27T15:13:42.454Z</time>
      </trkpt>
      <trkpt lat="61.46061" lon="5.81345">
        <ele>69.056258</ele>
        <time>2020-07-27T15:13:44.423Z</time>
      </trkpt>
      <trkpt lat="61.46053" lon="5.81358">
        <ele>69.063813</ele>
        <time>2020-07-27T15:13:46.419Z</time>
      </trkpt>
      <trkpt lat="61.46046" lon="5.81373">
        <ele>69.071319</ele>
        <time>2020-07-27T15:13:48.452Z</time>
      </trkpt>
      <trkpt lat="61.46039" lon="5.81386">
        <ele>69.078725</ele>
        <time>2020-07-27T15:13:50.438Z</time>
      </trkpt>
      <trkpt lat="61.46029" lon="5.81405">
        <ele>69.088661</ele>
        <time>2020-07-27T15:13:53.406Z</time>
      </trkpt>
      <trkpt lat="61.4602" lon="5.81424">
        <ele>69.098257</ele>
        <time>2020-07-27T15:13:56.417Z</time>
      </trkpt>
      <trkpt lat="61.46013" lon="5.81444">
        <ele>69.106953</ele>
        <time>2020-07-27T15:13:59.419Z</time>
      </trkpt>
      <trkpt lat="61.46007" lon="5.81463">
        <ele>69.115373</ele>
        <time>2020-07-27T15:14:02.430Z</time>
      </trkpt>
      <trkpt lat="61.45999" lon="5.81485">
        <ele>69.124926</ele>
        <time>2020-07-27T15:14:05.415Z</time>
      </trkpt>
      <trkpt lat="61.45993" lon="5.81507">
        <ele>69.133994</ele>
        <time>2020-07-27T15:14:08.422Z</time>
      </trkpt>
      <trkpt lat="61.45988" lon="5.81528">
        <ele>69.142355</ele>
        <time>2020-07-27T15:14:11.426Z</time>
      </trkpt>
      <trkpt lat="61.45984" lon="5.81549">
        <ele>69.150363</ele>
        <time>2020-07-27T15:14:14.414Z</time>
      </trkpt>
      <trkpt lat="61.45982" lon="5.81567">
        <ele>69.157202</ele>
        <time>2020-07-27T15:14:17.417Z</time>
      </trkpt>
      <trkpt lat="61.45977" lon="5.81585">
        <ele>69.134821</ele>
        <time>2020-07-27T15:14:21.432Z</time>
      </trkpt>
      <trkpt lat="61.45969" lon="5.81603">
        <ele>69.108951</ele>
        <time>2020-07-27T15:14:25.399Z</time>
      </trkpt>
      <trkpt lat="61.45961" lon="5.81616">
        <ele>69.084965</ele>
        <time>2020-07-27T15:14:29.452Z</time>
      </trkpt>
      <trkpt lat="61.45954" lon="5.81631">
        <ele>69.062513</ele>
        <time>2020-07-27T15:14:33.408Z</time>
      </trkpt>
      <trkpt lat="61.45947" lon="5.81648">
        <ele>69.038115</ele>
        <time>2020-07-27T15:14:37.419Z</time>
      </trkpt>
      <trkpt lat="61.4594" lon="5.81661">
        <ele>69.015051</ele>
        <time>2020-07-27T15:14:41.426Z</time>
      </trkpt>
      <trkpt lat="61.45871" lon="5.82016">
        <ele>69.777319</ele>
        <time>2020-07-27T15:15:27.524Z</time>
      </trkpt>
      <trkpt lat="61.45905" lon="5.82036">
        <ele>70.339885</ele>
        <time>2020-07-27T15:15:29.414Z</time>
      </trkpt>
      <trkpt lat="61.45959" lon="5.82063">
        <ele>71.236129</ele>
        <time>2020-07-27T15:15:38.402Z</time>
      </trkpt>
      <trkpt lat="61.45968" lon="5.82071">
        <ele>71.379654</ele>
        <time>2020-07-27T15:15:39.416Z</time>
      </trkpt>
      <trkpt lat="61.45975" lon="5.82089">
        <ele>71.561153</ele>
        <time>2020-07-27T15:15:41.431Z</time>
      </trkpt>
      <trkpt lat="61.45984" lon="5.82108">
        <ele>71.564182</ele>
        <time>2020-07-27T15:15:43.429Z</time>
      </trkpt>
      <trkpt lat="61.45991" lon="5.82128">
        <ele>71.507866</ele>
        <time>2020-07-27T15:15:45.425Z</time>
      </trkpt>
      <trkpt lat="61.45993" lon="5.82147">
        <ele>71.46502</ele>
        <time>2020-07-27T15:15:47.415Z</time>
      </trkpt>
      <trkpt lat="61.45992" lon="5.82175">
        <ele>71.403458</ele>
        <time>2020-07-27T15:15:50.440Z</time>
      </trkpt>
      <trkpt lat="61.45988" lon="5.82202">
        <ele>71.340723</ele>
        <time>2020-07-27T15:15:53.453Z</time>
      </trkpt>
      <trkpt lat="61.45984" lon="5.82223">
        <ele>71.289347</ele>
        <time>2020-07-27T15:15:55.408Z</time>
      </trkpt>
      <trkpt lat="61.4598" lon="5.82247">
        <ele>71.232393</ele>
        <time>2020-07-27T15:15:57.409Z</time>
      </trkpt>
      <trkpt lat="61.45977" lon="5.82273">
        <ele>71.174183</ele>
        <time>2020-07-27T15:15:59.430Z</time>
      </trkpt>
      <trkpt lat="61.45973" lon="5.82299">
        <ele>71.112646</ele>
        <time>2020-07-27T15:16:01.436Z</time>
      </trkpt>
      <trkpt lat="61.45971" lon="5.82326">
        <ele>71.053415</ele>
        <time>2020-07-27T15:16:03.421Z</time>
      </trkpt>
      <trkpt lat="61.45968" lon="5.8235">
        <ele>70.9964</ele>
        <time>2020-07-27T15:16:05.413Z</time>
      </trkpt>
      <trkpt lat="61.45966" lon="5.82372">
        <ele>70.94632</ele>
        <time>2020-07-27T15:16:07.407Z</time>
      </trkpt>
      <trkpt lat="61.45962" lon="5.82392">
        <ele>70.899132</ele>
        <time>2020-07-27T15:16:09.442Z</time>
      </trkpt>
      <trkpt lat="61.4596" lon="5.82412">
        <ele>70.853708</ele>
        <time>2020-07-27T15:16:11.408Z</time>
      </trkpt>
      <trkpt lat="61.45955" lon="5.82432">
        <ele>70.80494</ele>
        <time>2020-07-27T15:16:13.426Z</time>
      </trkpt>
      <trkpt lat="61.45948" lon="5.82454">
        <ele>70.595906</ele>
        <time>2020-07-27T15:16:15.420Z</time>
      </trkpt>
      <trkpt lat="61.45941" lon="5.8248">
        <ele>70.165314</ele>
        <time>2020-07-27T15:16:17.436Z</time>
      </trkpt>
      <trkpt lat="61.45937" lon="5.82505">
        <ele>69.761578</ele>
        <time>2020-07-27T15:16:19.450Z</time>
      </trkpt>
      <trkpt lat="61.45935" lon="5.82529">
        <ele>69.406177</ele>
        <time>2020-07-27T15:16:21.433Z</time>
      </trkpt>
      <trkpt lat="61.45932" lon="5.82551">
        <ele>69.061528</ele>
        <time>2020-07-27T15:16:23.412Z</time>
      </trkpt>
      <trkpt lat="61.45927" lon="5.82572">
        <ele>68.729165</ele>
        <time>2020-07-27T15:16:25.454Z</time>
      </trkpt>
      <trkpt lat="61.45922" lon="5.82589">
        <ele>68.427429</ele>
        <time>2020-07-27T15:16:27.439Z</time>
      </trkpt>
      <trkpt lat="61.45917" lon="5.82605">
        <ele>68.149263</ele>
        <time>2020-07-27T15:16:29.418Z</time>
      </trkpt>
      <trkpt lat="61.45915" lon="5.8263">
        <ele>67.769838</ele>
        <time>2020-07-27T15:16:31.419Z</time>
      </trkpt>
      <trkpt lat="61.45913" lon="5.82651">
        <ele>67.46067</ele>
        <time>2020-07-27T15:16:33.423Z</time>
      </trkpt>
      <trkpt lat="61.45912" lon="5.8267">
        <ele>67.170506</ele>
        <time>2020-07-27T15:16:35.451Z</time>
      </trkpt>
      <trkpt lat="61.45909" lon="5.82692">
        <ele>66.838209</ele>
        <time>2020-07-27T15:16:37.443Z</time>
      </trkpt>
      <trkpt lat="61.45907" lon="5.82715">
        <ele>66.495132</ele>
        <time>2020-07-27T15:16:39.437Z</time>
      </trkpt>
      <trkpt lat="61.45906" lon="5.82734">
        <ele>66.201427</ele>
        <time>2020-07-27T15:16:41.423Z</time>
      </trkpt>
      <trkpt lat="61.45903" lon="5.82761">
        <ele>65.792188</ele>
        <time>2020-07-27T15:16:44.434Z</time>
      </trkpt>
      <trkpt lat="61.45898" lon="5.82785">
        <ele>65.414215</ele>
        <time>2020-07-27T15:16:47.440Z</time>
      </trkpt>
      <trkpt lat="61.45891" lon="5.828">
        <ele>65.239146</ele>
        <time>2020-07-27T15:16:50.418Z</time>
      </trkpt>
      <trkpt lat="61.45882" lon="5.82811">
        <ele>65.359992</ele>
        <time>2020-07-27T15:16:54.441Z</time>
      </trkpt>
      <trkpt lat="61.45871" lon="5.82813">
        <ele>65.474448</ele>
        <time>2020-07-27T15:16:58.426Z</time>
      </trkpt>
      <trkpt lat="61.45861" lon="5.82816">
        <ele>65.588259</ele>
        <time>2020-07-27T15:17:02.417Z</time>
      </trkpt>
      <trkpt lat="61.45851" lon="5.82818">
        <ele>65.699275</ele>
        <time>2020-07-27T15:17:06.422Z</time>
      </trkpt>
      <trkpt lat="61.45842" lon="5.82822">
        <ele>65.80489</ele>
        <time>2020-07-27T15:17:10.431Z</time>
      </trkpt>
      <trkpt lat="61.45833" lon="5.8283">
        <ele>65.916867</ele>
        <time>2020-07-27T15:17:15.442Z</time>
      </trkpt>
      <trkpt lat="61.45825" lon="5.8284">
        <ele>66.021561</ele>
        <time>2020-07-27T15:17:20.409Z</time>
      </trkpt>
      <trkpt lat="61.45816" lon="5.82848">
        <ele>66.129837</ele>
        <time>2020-07-27T15:17:24.459Z</time>
      </trkpt>
      <trkpt lat="61.45807" lon="5.82857">
        <ele>66.235271</ele>
        <time>2020-07-27T15:17:28.433Z</time>
      </trkpt>
      <trkpt lat="61.45798" lon="5.82866">
        <ele>66.354084</ele>
        <time>2020-07-27T15:17:33.409Z</time>
      </trkpt>
      <trkpt lat="61.45789" lon="5.82877">
        <ele>66.469829</ele>
        <time>2020-07-27T15:17:39.415Z</time>
      </trkpt>
      <trkpt lat="61.4578" lon="5.82887">
        <ele>66.577583</ele>
        <time>2020-07-27T15:17:44.436Z</time>
      </trkpt>
      <trkpt lat="61.4577" lon="5.82898">
        <ele>66.707867</ele>
        <time>2020-07-27T15:17:48.456Z</time>
      </trkpt>
      <trkpt lat="61.45762" lon="5.82907">
        <ele>66.811052</ele>
        <time>2020-07-27T15:17:51.477Z</time>
      </trkpt>
      <trkpt lat="61.45753" lon="5.82916">
        <ele>66.921037</ele>
        <time>2020-07-27T15:17:54.430Z</time>
      </trkpt>
      <trkpt lat="61.45744" lon="5.82929">
        <ele>67.040405</ele>
        <time>2020-07-27T15:17:57.431Z</time>
      </trkpt>
      <trkpt lat="61.45736" lon="5.82943">
        <ele>67.157918</ele>
        <time>2020-07-27T15:18:00.411Z</time>
      </trkpt>
      <trkpt lat="61.45728" lon="5.82955">
        <ele>67.148214</ele>
        <time>2020-07-27T15:18:03.429Z</time>
      </trkpt>
      <trkpt lat="61.45719" lon="5.82966">
        <ele>67.033052</ele>
        <time>2020-07-27T15:18:06.427Z</time>
      </trkpt>
      <trkpt lat="61.45709" lon="5.82975">
        <ele>66.907404</ele>
        <time>2020-07-27T15:18:09.441Z</time>
      </trkpt>
      <trkpt lat="61.45699" lon="5.82984">
        <ele>66.78321</ele>
        <time>2020-07-27T15:18:12.411Z</time>
      </trkpt>
      <trkpt lat="61.4569" lon="5.82995">
        <ele>66.666795</ele>
        <time>2020-07-27T15:18:15.447Z</time>
      </trkpt>
      <trkpt lat="61.4568" lon="5.83005">
        <ele>66.534877</ele>
        <time>2020-07-27T15:18:18.422Z</time>
      </trkpt>
      <trkpt lat="61.45669" lon="5.83015">
        <ele>66.396749</ele>
        <time>2020-07-27T15:18:21.453Z</time>
      </trkpt>
      <trkpt lat="61.4566" lon="5.83028">
        <ele>66.26949</ele>
        <time>2020-07-27T15:18:24.444Z</time>
      </trkpt>
      <trkpt lat="61.45652" lon="5.83043">
        <ele>66.148507</ele>
        <time>2020-07-27T15:18:27.427Z</time>
      </trkpt>
      <trkpt lat="61.45646" lon="5.83059">
        <ele>66.036499</ele>
        <time>2020-07-27T15:18:30.405Z</time>
      </trkpt>
      <trkpt lat="61.45639" lon="5.83072">
        <ele>65.933509</ele>
        <time>2020-07-27T15:18:33.461Z</time>
      </trkpt>
      <trkpt lat="61.45632" lon="5.83085">
        <ele>65.823255</ele>
        <time>2020-07-27T15:18:36.428Z</time>
      </trkpt>
      <trkpt lat="61.45623" lon="5.83097">
        <ele>65.700903</ele>
        <time>2020-07-27T15:18:39.418Z</time>
      </trkpt>
      <trkpt lat="61.45613" lon="5.83115">
        <ele>65.553972</ele>
        <time>2020-07-27T15:18:42.465Z</time>
      </trkpt>
      <trkpt lat="61.45607" lon="5.8313">
        <ele>65.444208</ele>
        <time>2020-07-27T15:18:44.431Z</time>
      </trkpt>
      <trkpt lat="61.456" lon="5.83146">
        <ele>65.327242</ele>
        <time>2020-07-27T15:18:46.435Z</time>
      </trkpt>
      <trkpt lat="61.45594" lon="5.83163">
        <ele>65.210811</ele>
        <time>2020-07-27T15:18:48.422Z</time>
      </trkpt>
      <trkpt lat="61.45589" lon="5.83181">
        <ele>64.917026</ele>
        <time>2020-07-27T15:18:50.415Z</time>
      </trkpt>
      <trkpt lat="61.45584" lon="5.832">
        <ele>64.418316</ele>
        <time>2020-07-27T15:18:52.405Z</time>
      </trkpt>
      <trkpt lat="61.45581" lon="5.83219">
        <ele>63.948741</ele>
        <time>2020-07-27T15:18:54.439Z</time>
      </trkpt>
      <trkpt lat="61.45579" lon="5.83238">
        <ele>63.488634</ele>
        <time>2020-07-27T15:18:56.421Z</time>
      </trkpt>
      <trkpt lat="61.45577" lon="5.83264">
        <ele>62.87571</ele>
        <time>2020-07-27T15:18:59.419Z</time>
      </trkpt>
      <trkpt lat="61.45581" lon="5.83287">
        <ele>62.290277</ele>
        <time>2020-07-27T15:19:02.427Z</time>
      </trkpt>
      <trkpt lat="61.45582" lon="5.83306">
        <ele>61.847739</ele>
        <time>2020-07-27T15:19:04.425Z</time>
      </trkpt>
      <trkpt lat="61.45581" lon="5.83326">
        <ele>61.373633</ele>
        <time>2020-07-27T15:19:06.422Z</time>
      </trkpt>
      <trkpt lat="61.45582" lon="5.83353">
        <ele>60.733469</ele>
        <time>2020-07-27T15:19:09.450Z</time>
      </trkpt>
      <trkpt lat="61.45585" lon="5.83381">
        <ele>60.075049</ele>
        <time>2020-07-27T15:19:12.427Z</time>
      </trkpt>
      <trkpt lat="61.45586" lon="5.83407">
        <ele>59.445521</ele>
        <time>2020-07-27T15:19:15.426Z</time>
      </trkpt>
      <trkpt lat="61.45585" lon="5.83427">
        <ele>58.993222</ele>
        <time>2020-07-27T15:19:17.418Z</time>
      </trkpt>
      <trkpt lat="61.45583" lon="5.83453">
        <ele>58.357388</ele>
        <time>2020-07-27T15:19:20.418Z</time>
      </trkpt>
      <trkpt lat="61.45579" lon="5.83478">
        <ele>57.747312</ele>
        <time>2020-07-27T15:19:23.414Z</time>
      </trkpt>
      <trkpt lat="61.45573" lon="5.83498">
        <ele>57.196064</ele>
        <time>2020-07-27T15:19:26.417Z</time>
      </trkpt>
      <trkpt lat="61.45568" lon="5.83516">
        <ele>56.686896</ele>
        <time>2020-07-27T15:19:29.407Z</time>
      </trkpt>
      <trkpt lat="61.45563" lon="5.83534">
        <ele>56.43565</ele>
        <time>2020-07-27T15:19:32.423Z</time>
      </trkpt>
      <trkpt lat="61.45557" lon="5.83552">
        <ele>56.829415</ele>
        <time>2020-07-27T15:19:35.440Z</time>
      </trkpt>
      <trkpt lat="61.45552" lon="5.8357">
        <ele>57.198561</ele>
        <time>2020-07-27T15:19:38.419Z</time>
      </trkpt>
      <trkpt lat="61.45547" lon="5.83588">
        <ele>57.572307</ele>
        <time>2020-07-27T15:19:41.432Z</time>
      </trkpt>
      <trkpt lat="61.45544" lon="5.83609">
        <ele>57.963265</ele>
        <time>2020-07-27T15:19:44.408Z</time>
      </trkpt>
      <trkpt lat="61.4554" lon="5.83631">
        <ele>58.392231</ele>
        <time>2020-07-27T15:19:47.407Z</time>
      </trkpt>
      <trkpt lat="61.45535" lon="5.83656">
        <ele>58.881779</ele>
        <time>2020-07-27T15:19:50.420Z</time>
      </trkpt>
      <trkpt lat="61.45531" lon="5.83674">
        <ele>59.224764</ele>
        <time>2020-07-27T15:19:52.432Z</time>
      </trkpt>
      <trkpt lat="61.45527" lon="5.83691">
        <ele>59.570924</ele>
        <time>2020-07-27T15:19:54.418Z</time>
      </trkpt>
      <trkpt lat="61.45522" lon="5.83707">
        <ele>59.922226</ele>
        <time>2020-07-27T15:19:56.414Z</time>
      </trkpt>
      <trkpt lat="61.45516" lon="5.83722">
        <ele>60.280071</ele>
        <time>2020-07-27T15:19:58.455Z</time>
      </trkpt>
      <trkpt lat="61.45509" lon="5.83737">
        <ele>60.648534</ele>
        <time>2020-07-27T15:20:00.421Z</time>
      </trkpt>
      <trkpt lat="61.45502" lon="5.8375">
        <ele>61.016166</ele>
        <time>2020-07-27T15:20:02.411Z</time>
      </trkpt>
      <trkpt lat="61.45495" lon="5.83764">
        <ele>61.373162</ele>
        <time>2020-07-27T15:20:04.439Z</time>
      </trkpt>
      <trkpt lat="61.45489" lon="5.83779">
        <ele>61.726104</ele>
        <time>2020-07-27T15:20:06.431Z</time>
      </trkpt>
      <trkpt lat="61.45482" lon="5.83794">
        <ele>62.082202</ele>
        <time>2020-07-27T15:20:08.458Z</time>
      </trkpt>
      <trkpt lat="61.45477" lon="5.8381">
        <ele>62.437925</ele>
        <time>2020-07-27T15:20:10.404Z</time>
      </trkpt>
      <trkpt lat="61.45473" lon="5.83827">
        <ele>62.789498</ele>
        <time>2020-07-27T15:20:12.442Z</time>
      </trkpt>
      <trkpt lat="61.45469" lon="5.83845">
        <ele>63.099876</ele>
        <time>2020-07-27T15:20:14.431Z</time>
      </trkpt>
      <trkpt lat="61.45465" lon="5.83862">
        <ele>62.934046</ele>
        <time>2020-07-27T15:20:16.413Z</time>
      </trkpt>
      <trkpt lat="61.45463" lon="5.83882">
        <ele>62.758712</ele>
        <time>2020-07-27T15:20:18.416Z</time>
      </trkpt>
      <trkpt lat="61.45461" lon="5.83902">
        <ele>62.576553</ele>
        <time>2020-07-27T15:20:20.413Z</time>
      </trkpt>
      <trkpt lat="61.45459" lon="5.83923">
        <ele>62.398812</ele>
        <time>2020-07-27T15:20:22.435Z</time>
      </trkpt>
      <trkpt lat="61.45455" lon="5.83942">
        <ele>62.216512</ele>
        <time>2020-07-27T15:20:24.410Z</time>
      </trkpt>
      <trkpt lat="61.45448" lon="5.83957">
        <ele>62.035394</ele>
        <time>2020-07-27T15:20:26.418Z</time>
      </trkpt>
      <trkpt lat="61.4544" lon="5.8397">
        <ele>61.856705</ele>
        <time>2020-07-27T15:20:28.449Z</time>
      </trkpt>
      <trkpt lat="61.45432" lon="5.8398">
        <ele>61.679873</ele>
        <time>2020-07-27T15:20:30.428Z</time>
      </trkpt>
      <trkpt lat="61.45423" lon="5.83989">
        <ele>61.504324</ele>
        <time>2020-07-27T15:20:32.419Z</time>
      </trkpt>
      <trkpt lat="61.45415" lon="5.84">
        <ele>61.332725</ele>
        <time>2020-07-27T15:20:34.447Z</time>
      </trkpt>
      <trkpt lat="61.45409" lon="5.84014">
        <ele>61.167933</ele>
        <time>2020-07-27T15:20:36.414Z</time>
      </trkpt>
      <trkpt lat="61.45403" lon="5.84029">
        <ele>60.997374</ele>
        <time>2020-07-27T15:20:38.426Z</time>
      </trkpt>
      <trkpt lat="61.45397" lon="5.84045">
        <ele>60.823736</ele>
        <time>2020-07-27T15:20:40.409Z</time>
      </trkpt>
      <trkpt lat="61.45391" lon="5.84061">
        <ele>60.645186</ele>
        <time>2020-07-27T15:20:42.447Z</time>
      </trkpt>
      <trkpt lat="61.45386" lon="5.84077">
        <ele>60.471842</ele>
        <time>2020-07-27T15:20:44.416Z</time>
      </trkpt>
      <trkpt lat="61.4538" lon="5.84092">
        <ele>60.307998</ele>
        <time>2020-07-27T15:20:46.428Z</time>
      </trkpt>
      <trkpt lat="61.45373" lon="5.84116">
        <ele>60.06486</ele>
        <time>2020-07-27T15:20:49.456Z</time>
      </trkpt>
      <trkpt lat="61.45368" lon="5.84132">
        <ele>59.902104</ele>
        <time>2020-07-27T15:20:51.420Z</time>
      </trkpt>
      <trkpt lat="61.45363" lon="5.84148">
        <ele>60.109734</ele>
        <time>2020-07-27T15:20:53.424Z</time>
      </trkpt>
      <trkpt lat="61.45358" lon="5.84163">
        <ele>60.46644</ele>
        <time>2020-07-27T15:20:55.453Z</time>
      </trkpt>
      <trkpt lat="61.45352" lon="5.84177">
        <ele>60.827166</ele>
        <time>2020-07-27T15:20:57.417Z</time>
      </trkpt>
      <trkpt lat="61.45343" lon="5.84198">
        <ele>61.357369</ele>
        <time>2020-07-27T15:21:00.419Z</time>
      </trkpt>
      <trkpt lat="61.45335" lon="5.84217">
        <ele>61.84671</ele>
        <time>2020-07-27T15:21:03.442Z</time>
      </trkpt>
      <trkpt lat="61.45327" lon="5.84235">
        <ele>62.304202</ele>
        <time>2020-07-27T15:21:06.439Z</time>
      </trkpt>
      <trkpt lat="61.45321" lon="5.84252">
        <ele>62.717613</ele>
        <time>2020-07-27T15:21:09.451Z</time>
      </trkpt>
      <trkpt lat="61.45314" lon="5.84268">
        <ele>63.140608</ele>
        <time>2020-07-27T15:21:13.429Z</time>
      </trkpt>
      <trkpt lat="61.45308" lon="5.84286">
        <ele>63.538787</ele>
        <time>2020-07-27T15:21:18.441Z</time>
      </trkpt>
      <trkpt lat="61.45303" lon="5.84303">
        <ele>63.941767</ele>
        <time>2020-07-27T15:21:23.427Z</time>
      </trkpt>
      <trkpt lat="61.45297" lon="5.84319">
        <ele>64.310828</ele>
        <time>2020-07-27T15:21:28.414Z</time>
      </trkpt>
      <trkpt lat="61.45292" lon="5.84334">
        <ele>64.670351</ele>
        <time>2020-07-27T15:21:33.409Z</time>
      </trkpt>
      <trkpt lat="61.45283" lon="5.84345">
        <ele>65.07738</ele>
        <time>2020-07-27T15:21:40.408Z</time>
      </trkpt>
      <trkpt lat="61.45273" lon="5.84351">
        <ele>65.488415</ele>
        <time>2020-07-27T15:21:48.415Z</time>
      </trkpt>
      <trkpt lat="61.45263" lon="5.84351">
        <ele>65.884403</ele>
        <time>2020-07-27T15:21:54.475Z</time>
      </trkpt>
      <trkpt lat="61.45254" lon="5.84348">
        <ele>66.269429</ele>
        <time>2020-07-27T15:22:00.420Z</time>
      </trkpt>
      <trkpt lat="61.4525" lon="5.84365">
        <ele>66.633198</ele>
        <time>2020-07-27T15:22:04.405Z</time>
      </trkpt>
      <trkpt lat="61.45248" lon="5.84385">
        <ele>67.020013</ele>
        <time>2020-07-27T15:22:07.424Z</time>
      </trkpt>
      <trkpt lat="61.45246" lon="5.84407">
        <ele>66.773495</ele>
        <time>2020-07-27T15:22:10.424Z</time>
      </trkpt>
      <trkpt lat="61.45239" lon="5.84428">
        <ele>66.457118</ele>
        <time>2020-07-27T15:22:13.447Z</time>
      </trkpt>
      <trkpt lat="61.45233" lon="5.84445">
        <ele>66.195813</ele>
        <time>2020-07-27T15:22:15.440Z</time>
      </trkpt>
      <trkpt lat="61.45225" lon="5.84466">
        <ele>65.862591</ele>
        <time>2020-07-27T15:22:17.425Z</time>
      </trkpt>
      <trkpt lat="61.45216" lon="5.84493">
        <ele>65.43822</ele>
        <time>2020-07-27T15:22:19.445Z</time>
      </trkpt>
      <trkpt lat="61.45206" lon="5.84524">
        <ele>64.987314</ele>
        <time>2020-07-27T15:22:21.441Z</time>
      </trkpt>
      <trkpt lat="61.45197" lon="5.84551">
        <ele>64.576482</ele>
        <time>2020-07-27T15:22:23.423Z</time>
      </trkpt>
      <trkpt lat="61.45189" lon="5.84575">
        <ele>64.206671</ele>
        <time>2020-07-27T15:22:25.450Z</time>
      </trkpt>
      <trkpt lat="61.4518" lon="5.84598">
        <ele>63.831892</ele>
        <time>2020-07-27T15:22:27.425Z</time>
      </trkpt>
      <trkpt lat="61.4517" lon="5.84619">
        <ele>63.471421</ele>
        <time>2020-07-27T15:22:29.411Z</time>
      </trkpt>
      <trkpt lat="61.4516" lon="5.84637">
        <ele>63.118312</ele>
        <time>2020-07-27T15:22:31.425Z</time>
      </trkpt>
      <trkpt lat="61.4515" lon="5.84656">
        <ele>62.768861</ele>
        <time>2020-07-27T15:22:33.469Z</time>
      </trkpt>
      <trkpt lat="61.4514" lon="5.84675">
        <ele>62.432959</ele>
        <time>2020-07-27T15:22:35.439Z</time>
      </trkpt>
      <trkpt lat="61.45131" lon="5.84693">
        <ele>62.055976</ele>
        <time>2020-07-27T15:22:37.414Z</time>
      </trkpt>
      <trkpt lat="61.45122" lon="5.8471">
        <ele>61.686813</ele>
        <time>2020-07-27T15:22:39.453Z</time>
      </trkpt>
      <trkpt lat="61.45113" lon="5.84726">
        <ele>61.338234</ele>
        <time>2020-07-27T15:22:41.421Z</time>
      </trkpt>
      <trkpt lat="61.45105" lon="5.8474">
        <ele>61.017733</ele>
        <time>2020-07-27T15:22:43.414Z</time>
      </trkpt>
      <trkpt lat="61.45097" lon="5.84753">
        <ele>60.703788</ele>
        <time>2020-07-27T15:22:45.424Z</time>
      </trkpt>
      <trkpt lat="61.4509" lon="5.84766">
        <ele>60.412299</ele>
        <time>2020-07-27T15:22:47.425Z</time>
      </trkpt>
      <trkpt lat="61.45083" lon="5.84779">
        <ele>60.12782</ele>
        <time>2020-07-27T15:22:49.427Z</time>
      </trkpt>
      <trkpt lat="61.45073" lon="5.84797">
        <ele>59.726359</ele>
        <time>2020-07-27T15:22:52.435Z</time>
      </trkpt>
      <trkpt lat="61.45063" lon="5.84814">
        <ele>59.342693</ele>
        <time>2020-07-27T15:22:55.419Z</time>
      </trkpt>
      <trkpt lat="61.45054" lon="5.8483">
        <ele>58.978204</ele>
        <time>2020-07-27T15:22:58.421Z</time>
      </trkpt>
      <trkpt lat="61.45045" lon="5.84844">
        <ele>58.641139</ele>
        <time>2020-07-27T15:23:01.481Z</time>
      </trkpt>
      <trkpt lat="61.45038" lon="5.84861">
        <ele>58.305759</ele>
        <time>2020-07-27T15:23:04.434Z</time>
      </trkpt>
      <trkpt lat="61.45032" lon="5.8488">
        <ele>57.976572</ele>
        <time>2020-07-27T15:23:07.409Z</time>
      </trkpt>
      <trkpt lat="61.45028" lon="5.84901">
        <ele>57.646384</ele>
        <time>2020-07-27T15:23:10.447Z</time>
      </trkpt>
      <trkpt lat="61.45024" lon="5.8492">
        <ele>57.346488</ele>
        <time>2020-07-27T15:23:13.468Z</time>
      </trkpt>
      <trkpt lat="61.45022" lon="5.8494">
        <ele>57.050821</ele>
        <time>2020-07-27T15:23:16.440Z</time>
      </trkpt>
      <trkpt lat="61.45023" lon="5.84961">
        <ele>56.671842</ele>
        <time>2020-07-27T15:23:24.469Z</time>
      </trkpt>
      <trkpt lat="61.45028" lon="5.84979">
        <ele>56.202281</ele>
        <time>2020-07-27T15:23:29.432Z</time>
      </trkpt>
      <trkpt lat="61.45038" lon="5.84983">
        <ele>55.692824</ele>
        <time>2020-07-27T15:23:32.431Z</time>
      </trkpt>
      <trkpt lat="61.45051" lon="5.84983">
        <ele>55.128682</ele>
        <time>2020-07-27T15:23:35.431Z</time>
      </trkpt>
      <trkpt lat="61.45063" lon="5.84986">
        <ele>54.547286</ele>
        <time>2020-07-27T15:23:38.501Z</time>
      </trkpt>
      <trkpt lat="61.45076" lon="5.84988">
        <ele>53.949894</ele>
        <time>2020-07-27T15:23:41.473Z</time>
      </trkpt>
      <trkpt lat="61.45088" lon="5.84989">
        <ele>53.394714</ele>
        <time>2020-07-27T15:23:44.435Z</time>
      </trkpt>
      <trkpt lat="61.45099" lon="5.8499">
        <ele>52.885895</ele>
        <time>2020-07-27T15:23:48.453Z</time>
      </trkpt>
      <trkpt lat="61.45108" lon="5.84986">
        <ele>52.467662</ele>
        <time>2020-07-27T15:23:52.452Z</time>
      </trkpt>
      <trkpt lat="61.45112" lon="5.84967">
        <ele>52.010582</ele>
        <time>2020-07-27T15:23:56.449Z</time>
      </trkpt>
      <trkpt lat="61.45112" lon="5.84945">
        <ele>51.525952</ele>
        <time>2020-07-27T15:23:59.439Z</time>
      </trkpt>
      <trkpt lat="61.45115" lon="5.84921">
        <ele>50.976796</ele>
        <time>2020-07-27T15:24:02.438Z</time>
      </trkpt>
      <trkpt lat="61.45119" lon="5.849">
        <ele>50.468441</ele>
        <time>2020-07-27T15:24:05.418Z</time>
      </trkpt>
      <trkpt lat="61.45126" lon="5.84883">
        <ele>50.002986</ele>
        <time>2020-07-27T15:24:08.418Z</time>
      </trkpt>
      <trkpt lat="61.45133" lon="5.84872">
        <ele>49.575791</ele>
        <time>2020-07-27T15:24:11.415Z</time>
      </trkpt>
      <trkpt lat="61.45143" lon="5.84859">
        <ele>49.048369</ele>
        <time>2020-07-27T15:24:16.429Z</time>
      </trkpt>
      <trkpt lat="61.45153" lon="5.84864">
        <ele>48.568573</ele>
        <time>2020-07-27T15:24:21.461Z</time>
      </trkpt>
      <trkpt lat="61.45166" lon="5.84895">
        <ele>48.787209</ele>
        <time>2020-07-27T15:26:43.419Z</time>
      </trkpt>
      <trkpt lat="61.4514" lon="5.84835">
        <ele>49.237974</ele>
        <time>2020-07-27T15:47:30.479Z</time>
      </trkpt>
      <trkpt lat="61.4515" lon="5.84873">
        <ele>49.481564</ele>
        <time>2020-07-27T15:47:37.422Z</time>
      </trkpt>
      <trkpt lat="61.45165" lon="5.84899">
        <ele>49.709155</ele>
        <time>2020-07-27T15:47:38.415Z</time>
      </trkpt>
      <trkpt lat="61.45141" lon="5.84888">
        <ele>49.996248</ele>
        <time>2020-07-27T15:51:26.440Z</time>
      </trkpt>
      <trkpt lat="61.45129" lon="5.84888">
        <ele>50.13986</ele>
        <time>2020-07-27T15:51:28.440Z</time>
      </trkpt>
      <trkpt lat="61.45122" lon="5.8491">
        <ele>50.28772</ele>
        <time>2020-07-27T15:51:31.476Z</time>
      </trkpt>
      <trkpt lat="61.45117" lon="5.8493">
        <ele>50.415597</ele>
        <time>2020-07-27T15:51:34.439Z</time>
      </trkpt>
      <trkpt lat="61.45113" lon="5.8495">
        <ele>50.532467</ele>
        <time>2020-07-27T15:51:37.411Z</time>
      </trkpt>
      <trkpt lat="61.45111" lon="5.84969">
        <ele>50.641351</ele>
        <time>2020-07-27T15:51:40.444Z</time>
      </trkpt>
      <trkpt lat="61.45104" lon="5.84986">
        <ele>50.864809</ele>
        <time>2020-07-27T15:51:44.426Z</time>
      </trkpt>
      <trkpt lat="61.45093" lon="5.8499">
        <ele>51.110461</ele>
        <time>2020-07-27T15:51:48.445Z</time>
      </trkpt>
      <trkpt lat="61.45084" lon="5.84989">
        <ele>51.316305</ele>
        <time>2020-07-27T15:51:51.426Z</time>
      </trkpt>
      <trkpt lat="61.45075" lon="5.84987">
        <ele>51.531534</ele>
        <time>2020-07-27T15:51:54.420Z</time>
      </trkpt>
      <trkpt lat="61.45064" lon="5.84984">
        <ele>51.773089</ele>
        <time>2020-07-27T15:51:57.445Z</time>
      </trkpt>
      <trkpt lat="61.45053" lon="5.84982">
        <ele>52.029584</ele>
        <time>2020-07-27T15:52:00.435Z</time>
      </trkpt>
      <trkpt lat="61.45041" lon="5.84979">
        <ele>52.292928</ele>
        <time>2020-07-27T15:52:03.516Z</time>
      </trkpt>
      <trkpt lat="61.45031" lon="5.84977">
        <ele>52.516009</ele>
        <time>2020-07-27T15:52:06.441Z</time>
      </trkpt>
      <trkpt lat="61.45027" lon="5.84995">
        <ele>52.729309</ele>
        <time>2020-07-27T15:52:16.453Z</time>
      </trkpt>
      <trkpt lat="61.45021" lon="5.85009">
        <ele>52.944743</ele>
        <time>2020-07-27T15:52:20.459Z</time>
      </trkpt>
      <trkpt lat="61.45019" lon="5.8503">
        <ele>53.18351</ele>
        <time>2020-07-27T15:52:23.414Z</time>
      </trkpt>
      <trkpt lat="61.45018" lon="5.85052">
        <ele>53.415262</ele>
        <time>2020-07-27T15:52:26.435Z</time>
      </trkpt>
      <trkpt lat="61.45016" lon="5.85072">
        <ele>53.642755</ele>
        <time>2020-07-27T15:52:29.423Z</time>
      </trkpt>
      <trkpt lat="61.45014" lon="5.85096">
        <ele>53.899418</ele>
        <time>2020-07-27T15:52:32.501Z</time>
      </trkpt>
      <trkpt lat="61.45013" lon="5.85121">
        <ele>54.171256</ele>
        <time>2020-07-27T15:52:35.410Z</time>
      </trkpt>
      <trkpt lat="61.45012" lon="5.85146">
        <ele>54.436458</ele>
        <time>2020-07-27T15:52:38.436Z</time>
      </trkpt>
      <trkpt lat="61.45012" lon="5.8517">
        <ele>54.698121</ele>
        <time>2020-07-27T15:52:41.438Z</time>
      </trkpt>
      <trkpt lat="61.4501" lon="5.85192">
        <ele>55.221957</ele>
        <time>2020-07-27T15:52:44.431Z</time>
      </trkpt>
      <trkpt lat="61.45007" lon="5.85213">
        <ele>55.758472</ele>
        <time>2020-07-27T15:52:47.462Z</time>
      </trkpt>
      <trkpt lat="61.45006" lon="5.85238">
        <ele>56.372004</ele>
        <time>2020-07-27T15:52:50.453Z</time>
      </trkpt>
      <trkpt lat="61.45005" lon="5.85264">
        <ele>57.023709</ele>
        <time>2020-07-27T15:52:53.420Z</time>
      </trkpt>
      <trkpt lat="61.45004" lon="5.85291">
        <ele>57.694487</ele>
        <time>2020-07-27T15:52:56.421Z</time>
      </trkpt>
      <trkpt lat="61.45" lon="5.85315">
        <ele>58.312431</ele>
        <time>2020-07-27T15:52:59.428Z</time>
      </trkpt>
      <trkpt lat="61.44997" lon="5.85333">
        <ele>58.778081</ele>
        <time>2020-07-27T15:53:06.438Z</time>
      </trkpt>
      <trkpt lat="61.45001" lon="5.85355">
        <ele>59.33144</ele>
        <time>2020-07-27T15:53:10.433Z</time>
      </trkpt>
      <trkpt lat="61.45004" lon="5.85377">
        <ele>59.898232</ele>
        <time>2020-07-27T15:53:14.415Z</time>
      </trkpt>
      <trkpt lat="61.45005" lon="5.85396">
        <ele>60.359822</ele>
        <time>2020-07-27T15:53:17.447Z</time>
      </trkpt>
      <trkpt lat="61.45006" lon="5.85415">
        <ele>60.844286</ele>
        <time>2020-07-27T15:53:20.409Z</time>
      </trkpt>
      <trkpt lat="61.45009" lon="5.85436">
        <ele>61.380455</ele>
        <time>2020-07-27T15:53:23.436Z</time>
      </trkpt>
      <trkpt lat="61.45013" lon="5.85458">
        <ele>61.947883</ele>
        <time>2020-07-27T15:53:26.429Z</time>
      </trkpt>
      <trkpt lat="61.45015" lon="5.85478">
        <ele>62.468468</ele>
        <time>2020-07-27T15:53:29.435Z</time>
      </trkpt>
      <trkpt lat="61.45017" lon="5.85498">
        <ele>62.9653</ele>
        <time>2020-07-27T15:53:32.417Z</time>
      </trkpt>
      <trkpt lat="61.45018" lon="5.8552">
        <ele>63.505112</ele>
        <time>2020-07-27T15:53:36.436Z</time>
      </trkpt>
      <trkpt lat="61.4502" lon="5.85542">
        <ele>63.976267</ele>
        <time>2020-07-27T15:53:39.481Z</time>
      </trkpt>
      <trkpt lat="61.45023" lon="5.85564">
        <ele>63.912636</ele>
        <time>2020-07-27T15:53:42.461Z</time>
      </trkpt>
      <trkpt lat="61.45026" lon="5.85582">
        <ele>63.858627</ele>
        <time>2020-07-27T15:53:45.420Z</time>
      </trkpt>
      <trkpt lat="61.45026" lon="5.85601">
        <ele>63.805091</ele>
        <time>2020-07-27T15:53:48.427Z</time>
      </trkpt>
      <trkpt lat="61.45026" lon="5.85624">
        <ele>63.739815</ele>
        <time>2020-07-27T15:53:52.447Z</time>
      </trkpt>
      <trkpt lat="61.45027" lon="5.85643">
        <ele>63.687147</ele>
        <time>2020-07-27T15:53:55.422Z</time>
      </trkpt>
      <trkpt lat="61.4503" lon="5.85665">
        <ele>63.622133</ele>
        <time>2020-07-27T15:53:59.444Z</time>
      </trkpt>
      <trkpt lat="61.45028" lon="5.85684">
        <ele>63.566871</ele>
        <time>2020-07-27T15:54:05.418Z</time>
      </trkpt>
      <trkpt lat="61.45018" lon="5.85683">
        <ele>63.509896</ele>
        <time>2020-07-27T15:54:10.441Z</time>
      </trkpt>
      <trkpt lat="61.45009" lon="5.85679">
        <ele>63.454298</ele>
        <time>2020-07-27T15:54:14.420Z</time>
      </trkpt>
      <trkpt lat="61.44999" lon="5.85676">
        <ele>63.397482</ele>
        <time>2020-07-27T15:54:17.462Z</time>
      </trkpt>
      <trkpt lat="61.4499" lon="5.85669">
        <ele>63.339362</ele>
        <time>2020-07-27T15:54:20.464Z</time>
      </trkpt>
      <trkpt lat="61.44979" lon="5.85665">
        <ele>63.273034</ele>
        <time>2020-07-27T15:54:23.432Z</time>
      </trkpt>
      <trkpt lat="61.44969" lon="5.85661">
        <ele>63.214805</ele>
        <time>2020-07-27T15:54:26.417Z</time>
      </trkpt>
      <trkpt lat="61.44953" lon="5.85668">
        <ele>63.119677</ele>
        <time>2020-07-27T15:54:46.458Z</time>
      </trkpt>
      <trkpt lat="61.44951" lon="5.85691">
        <ele>63.05369</ele>
        <time>2020-07-27T15:54:49.440Z</time>
      </trkpt>
      <trkpt lat="61.44949" lon="5.85716">
        <ele>62.984432</ele>
        <time>2020-07-27T15:54:52.435Z</time>
      </trkpt>
      <trkpt lat="61.44946" lon="5.85742">
        <ele>62.812123</ele>
        <time>2020-07-27T15:54:55.420Z</time>
      </trkpt>
      <trkpt lat="61.44944" lon="5.85761">
        <ele>62.537907</ele>
        <time>2020-07-27T15:54:57.417Z</time>
      </trkpt>
      <trkpt lat="61.44942" lon="5.85788">
        <ele>62.147606</ele>
        <time>2020-07-27T15:55:00.422Z</time>
      </trkpt>
      <trkpt lat="61.44941" lon="5.85814">
        <ele>61.765707</ele>
        <time>2020-07-27T15:55:03.440Z</time>
      </trkpt>
      <trkpt lat="61.4494" lon="5.8584">
        <ele>61.383652</ele>
        <time>2020-07-27T15:55:06.428Z</time>
      </trkpt>
      <trkpt lat="61.44939" lon="5.85866">
        <ele>61.004778</ele>
        <time>2020-07-27T15:55:09.442Z</time>
      </trkpt>
      <trkpt lat="61.44938" lon="5.85894">
        <ele>60.602352</ele>
        <time>2020-07-27T15:55:12.440Z</time>
      </trkpt>
      <trkpt lat="61.44938" lon="5.85923">
        <ele>60.191706</ele>
        <time>2020-07-27T15:55:15.430Z</time>
      </trkpt>
      <trkpt lat="61.44936" lon="5.85942">
        <ele>59.912493</ele>
        <time>2020-07-27T15:55:17.439Z</time>
      </trkpt>
      <trkpt lat="61.44935" lon="5.8596">
        <ele>59.639692</ele>
        <time>2020-07-27T15:55:19.440Z</time>
      </trkpt>
      <trkpt lat="61.44934" lon="5.85979">
        <ele>59.364578</ele>
        <time>2020-07-27T15:55:21.434Z</time>
      </trkpt>
      <trkpt lat="61.44933" lon="5.85999">
        <ele>59.082406</ele>
        <time>2020-07-27T15:55:23.444Z</time>
      </trkpt>
      <trkpt lat="61.44932" lon="5.86027">
        <ele>58.675821</ele>
        <time>2020-07-27T15:55:26.414Z</time>
      </trkpt>
      <trkpt lat="61.44932" lon="5.86054">
        <ele>58.285495</ele>
        <time>2020-07-27T15:55:29.448Z</time>
      </trkpt>
      <trkpt lat="61.44932" lon="5.8608">
        <ele>57.912499</ele>
        <time>2020-07-27T15:55:32.434Z</time>
      </trkpt>
      <trkpt lat="61.44933" lon="5.86106">
        <ele>57.525938</ele>
        <time>2020-07-27T15:55:35.446Z</time>
      </trkpt>
      <trkpt lat="61.44935" lon="5.86132">
        <ele>57.518418</ele>
        <time>2020-07-27T15:55:38.447Z</time>
      </trkpt>
      <trkpt lat="61.44939" lon="5.86155">
        <ele>57.546016</ele>
        <time>2020-07-27T15:55:41.421Z</time>
      </trkpt>
      <trkpt lat="61.44942" lon="5.86178">
        <ele>57.572953</ele>
        <time>2020-07-27T15:55:44.442Z</time>
      </trkpt>
      <trkpt lat="61.44945" lon="5.86197">
        <ele>57.595196</ele>
        <time>2020-07-27T15:55:46.463Z</time>
      </trkpt>
      <trkpt lat="61.44947" lon="5.86218">
        <ele>57.618834</ele>
        <time>2020-07-27T15:55:48.429Z</time>
      </trkpt>
      <trkpt lat="61.4495" lon="5.86238">
        <ele>57.642303</ele>
        <time>2020-07-27T15:55:50.447Z</time>
      </trkpt>
      <trkpt lat="61.44951" lon="5.86259">
        <ele>57.666005</ele>
        <time>2020-07-27T15:55:52.448Z</time>
      </trkpt>
      <trkpt lat="61.44952" lon="5.8628">
        <ele>57.689307</ele>
        <time>2020-07-27T15:55:54.419Z</time>
      </trkpt>
      <trkpt lat="61.44952" lon="5.86301">
        <ele>57.713094</ele>
        <time>2020-07-27T15:55:56.434Z</time>
      </trkpt>
      <trkpt lat="61.44952" lon="5.86322">
        <ele>57.736211</ele>
        <time>2020-07-27T15:55:58.432Z</time>
      </trkpt>
      <trkpt lat="61.44952" lon="5.86341">
        <ele>57.757217</ele>
        <time>2020-07-27T15:56:00.462Z</time>
      </trkpt>
      <trkpt lat="61.44952" lon="5.86368">
        <ele>57.787599</ele>
        <time>2020-07-27T15:56:03.427Z</time>
      </trkpt>
      <trkpt lat="61.44951" lon="5.86396">
        <ele>57.81862</ele>
        <time>2020-07-27T15:56:06.433Z</time>
      </trkpt>
      <trkpt lat="61.4495" lon="5.86425">
        <ele>57.8512</ele>
        <time>2020-07-27T15:56:09.428Z</time>
      </trkpt>
      <trkpt lat="61.44949" lon="5.86445">
        <ele>57.874223</ele>
        <time>2020-07-27T15:56:11.429Z</time>
      </trkpt>
      <trkpt lat="61.44949" lon="5.86466">
        <ele>57.897005</ele>
        <time>2020-07-27T15:56:13.430Z</time>
      </trkpt>
      <trkpt lat="61.44949" lon="5.86485">
        <ele>57.899305</ele>
        <time>2020-07-27T15:56:15.454Z</time>
      </trkpt>
      <trkpt lat="61.44948" lon="5.86505">
        <ele>57.853769</ele>
        <time>2020-07-27T15:56:17.430Z</time>
      </trkpt>
      <trkpt lat="61.44947" lon="5.86525">
        <ele>57.806514</ele>
        <time>2020-07-27T15:56:19.422Z</time>
      </trkpt>
      <trkpt lat="61.44946" lon="5.86545">
        <ele>57.759458</ele>
        <time>2020-07-27T15:56:21.416Z</time>
      </trkpt>
      <trkpt lat="61.44945" lon="5.86566">
        <ele>57.711315</ele>
        <time>2020-07-27T15:56:23.430Z</time>
      </trkpt>
      <trkpt lat="61.44945" lon="5.86588">
        <ele>57.660164</ele>
        <time>2020-07-27T15:56:25.444Z</time>
      </trkpt>
      <trkpt lat="61.44944" lon="5.8661">
        <ele>57.608283</ele>
        <time>2020-07-27T15:56:27.460Z</time>
      </trkpt>
      <trkpt lat="61.44943" lon="5.86632">
        <ele>57.557143</ele>
        <time>2020-07-27T15:56:29.415Z</time>
      </trkpt>
      <trkpt lat="61.44941" lon="5.86654">
        <ele>57.505817</ele>
        <time>2020-07-27T15:56:31.429Z</time>
      </trkpt>
      <trkpt lat="61.4494" lon="5.86677">
        <ele>57.452742</ele>
        <time>2020-07-27T15:56:33.428Z</time>
      </trkpt>
      <trkpt lat="61.44939" lon="5.867">
        <ele>57.400219</ele>
        <time>2020-07-27T15:56:35.436Z</time>
      </trkpt>
      <trkpt lat="61.44937" lon="5.86721">
        <ele>57.350349</ele>
        <time>2020-07-27T15:56:37.443Z</time>
      </trkpt>
      <trkpt lat="61.44936" lon="5.86741">
        <ele>57.303222</ele>
        <time>2020-07-27T15:56:39.418Z</time>
      </trkpt>
      <trkpt lat="61.44933" lon="5.8676">
        <ele>57.256032</ele>
        <time>2020-07-27T15:56:41.477Z</time>
      </trkpt>
      <trkpt lat="61.4493" lon="5.86779">
        <ele>57.210268</ele>
        <time>2020-07-27T15:56:43.420Z</time>
      </trkpt>
      <trkpt lat="61.44927" lon="5.86798">
        <ele>57.164065</ele>
        <time>2020-07-27T15:56:45.438Z</time>
      </trkpt>
      <trkpt lat="61.44925" lon="5.86817">
        <ele>57.119266</ele>
        <time>2020-07-27T15:56:47.441Z</time>
      </trkpt>
      <trkpt lat="61.44921" lon="5.86834">
        <ele>57.07458</ele>
        <time>2020-07-27T15:56:49.422Z</time>
      </trkpt>
      <trkpt lat="61.44918" lon="5.86854">
        <ele>56.982096</ele>
        <time>2020-07-27T15:56:51.430Z</time>
      </trkpt>
      <trkpt lat="61.44916" lon="5.86873">
        <ele>56.784196</ele>
        <time>2020-07-27T15:56:53.423Z</time>
      </trkpt>
      <trkpt lat="61.44913" lon="5.86892">
        <ele>56.592159</ele>
        <time>2020-07-27T15:56:55.408Z</time>
      </trkpt>
      <trkpt lat="61.4491" lon="5.8691">
        <ele>56.403909</ele>
        <time>2020-07-27T15:56:57.462Z</time>
      </trkpt>
      <trkpt lat="61.44907" lon="5.86928">
        <ele>56.213634</ele>
        <time>2020-07-27T15:56:59.452Z</time>
      </trkpt>
      <trkpt lat="61.44904" lon="5.86947">
        <ele>56.016104</ele>
        <time>2020-07-27T15:57:01.417Z</time>
      </trkpt>
      <trkpt lat="61.44901" lon="5.86965">
        <ele>55.820515</ele>
        <time>2020-07-27T15:57:03.437Z</time>
      </trkpt>
      <trkpt lat="61.44899" lon="5.86984">
        <ele>55.626449</ele>
        <time>2020-07-27T15:57:05.440Z</time>
      </trkpt>
      <trkpt lat="61.44896" lon="5.87004">
        <ele>55.425864</ele>
        <time>2020-07-27T15:57:07.431Z</time>
      </trkpt>
      <trkpt lat="61.44892" lon="5.87023">
        <ele>55.220907</ele>
        <time>2020-07-27T15:57:09.442Z</time>
      </trkpt>
      <trkpt lat="61.44887" lon="5.87042">
        <ele>55.003656</ele>
        <time>2020-07-27T15:57:11.447Z</time>
      </trkpt>
      <trkpt lat="61.44881" lon="5.8706">
        <ele>54.790231</ele>
        <time>2020-07-27T15:57:13.418Z</time>
      </trkpt>
      <trkpt lat="61.44877" lon="5.87077">
        <ele>54.589865</ele>
        <time>2020-07-27T15:57:15.425Z</time>
      </trkpt>
      <trkpt lat="61.44875" lon="5.87098">
        <ele>54.378668</ele>
        <time>2020-07-27T15:57:17.441Z</time>
      </trkpt>
      <trkpt lat="61.44877" lon="5.87124">
        <ele>54.124622</ele>
        <time>2020-07-27T15:57:19.436Z</time>
      </trkpt>
      <trkpt lat="61.44878" lon="5.8715">
        <ele>53.860679</ele>
        <time>2020-07-27T15:57:21.457Z</time>
      </trkpt>
      <trkpt lat="61.44876" lon="5.87176">
        <ele>53.598782</ele>
        <time>2020-07-27T15:57:23.422Z</time>
      </trkpt>
      <trkpt lat="61.44873" lon="5.87202">
        <ele>53.338754</ele>
        <time>2020-07-27T15:57:25.450Z</time>
      </trkpt>
      <trkpt lat="61.44872" lon="5.87227">
        <ele>53.257704</ele>
        <time>2020-07-27T15:57:27.420Z</time>
      </trkpt>
      <trkpt lat="61.44869" lon="5.87252">
        <ele>53.211729</ele>
        <time>2020-07-27T15:57:29.436Z</time>
      </trkpt>
      <trkpt lat="61.44867" lon="5.87277">
        <ele>53.165352</ele>
        <time>2020-07-27T15:57:31.458Z</time>
      </trkpt>
      <trkpt lat="61.44865" lon="5.87302">
        <ele>53.118367</ele>
        <time>2020-07-27T15:57:33.420Z</time>
      </trkpt>
      <trkpt lat="61.44862" lon="5.87327">
        <ele>53.072141</ele>
        <time>2020-07-27T15:57:35.424Z</time>
      </trkpt>
      <trkpt lat="61.4486" lon="5.87351">
        <ele>53.027091</ele>
        <time>2020-07-27T15:57:37.445Z</time>
      </trkpt>
      <trkpt lat="61.44857" lon="5.87374">
        <ele>52.98463</ele>
        <time>2020-07-27T15:57:39.410Z</time>
      </trkpt>
      <trkpt lat="61.44854" lon="5.87397">
        <ele>52.941625</ele>
        <time>2020-07-27T15:57:41.418Z</time>
      </trkpt>
      <trkpt lat="61.44851" lon="5.87419">
        <ele>52.898872</ele>
        <time>2020-07-27T15:57:43.443Z</time>
      </trkpt>
      <trkpt lat="61.44849" lon="5.87445">
        <ele>52.850632</ele>
        <time>2020-07-27T15:57:45.436Z</time>
      </trkpt>
      <trkpt lat="61.44847" lon="5.8747">
        <ele>52.805149</ele>
        <time>2020-07-27T15:57:47.422Z</time>
      </trkpt>
      <trkpt lat="61.44846" lon="5.87494">
        <ele>52.761782</ele>
        <time>2020-07-27T15:57:49.443Z</time>
      </trkpt>
      <trkpt lat="61.44844" lon="5.87516">
        <ele>52.719701</ele>
        <time>2020-07-27T15:57:51.421Z</time>
      </trkpt>
      <trkpt lat="61.44843" lon="5.87539">
        <ele>52.678028</ele>
        <time>2020-07-27T15:57:53.432Z</time>
      </trkpt>
      <trkpt lat="61.44843" lon="5.87562">
        <ele>52.635497</ele>
        <time>2020-07-27T15:57:55.419Z</time>
      </trkpt>
      <trkpt lat="61.44842" lon="5.87586">
        <ele>52.529984</ele>
        <time>2020-07-27T15:57:57.427Z</time>
      </trkpt>
      <trkpt lat="61.44841" lon="5.87609">
        <ele>52.342393</ele>
        <time>2020-07-27T15:57:59.483Z</time>
      </trkpt>
      <trkpt lat="61.4484" lon="5.87631">
        <ele>52.157109</ele>
        <time>2020-07-27T15:58:01.459Z</time>
      </trkpt>
      <trkpt lat="61.44839" lon="5.87654">
        <ele>51.968961</ele>
        <time>2020-07-27T15:58:03.426Z</time>
      </trkpt>
      <trkpt lat="61.44838" lon="5.87678">
        <ele>51.777211</ele>
        <time>2020-07-27T15:58:05.422Z</time>
      </trkpt>
      <trkpt lat="61.44836" lon="5.87701">
        <ele>51.590442</ele>
        <time>2020-07-27T15:58:07.415Z</time>
      </trkpt>
      <trkpt lat="61.44835" lon="5.87723">
        <ele>51.409788</ele>
        <time>2020-07-27T15:58:09.440Z</time>
      </trkpt>
      <trkpt lat="61.44833" lon="5.87745">
        <ele>51.227586</ele>
        <time>2020-07-27T15:58:11.424Z</time>
      </trkpt>
      <trkpt lat="61.44832" lon="5.87766">
        <ele>51.05395</ele>
        <time>2020-07-27T15:58:13.409Z</time>
      </trkpt>
      <trkpt lat="61.4483" lon="5.87787">
        <ele>50.874961</ele>
        <time>2020-07-27T15:58:15.421Z</time>
      </trkpt>
      <trkpt lat="61.44828" lon="5.87809">
        <ele>50.693283</ele>
        <time>2020-07-27T15:58:17.417Z</time>
      </trkpt>
      <trkpt lat="61.44826" lon="5.87831">
        <ele>50.51802</ele>
        <time>2020-07-27T15:58:19.430Z</time>
      </trkpt>
      <trkpt lat="61.44824" lon="5.87852">
        <ele>50.337648</ele>
        <time>2020-07-27T15:58:21.448Z</time>
      </trkpt>
      <trkpt lat="61.44822" lon="5.87875">
        <ele>50.149621</ele>
        <time>2020-07-27T15:58:23.439Z</time>
      </trkpt>
      <trkpt lat="61.4482" lon="5.87897">
        <ele>49.963927</ele>
        <time>2020-07-27T15:58:25.442Z</time>
      </trkpt>
      <trkpt lat="61.44817" lon="5.87919">
        <ele>49.78342</ele>
        <time>2020-07-27T15:58:27.432Z</time>
      </trkpt>
      <trkpt lat="61.44815" lon="5.87941">
        <ele>49.600938</ele>
        <time>2020-07-27T15:58:29.418Z</time>
      </trkpt>
      <trkpt lat="61.44812" lon="5.87962">
        <ele>49.60818</ele>
        <time>2020-07-27T15:58:31.424Z</time>
      </trkpt>
      <trkpt lat="61.4481" lon="5.87984">
        <ele>49.69601</ele>
        <time>2020-07-27T15:58:33.437Z</time>
      </trkpt>
      <trkpt lat="61.44807" lon="5.88005">
        <ele>49.780403</ele>
        <time>2020-07-27T15:58:35.475Z</time>
      </trkpt>
      <trkpt lat="61.44803" lon="5.88024">
        <ele>49.862984</ele>
        <time>2020-07-27T15:58:37.460Z</time>
      </trkpt>
      <trkpt lat="61.448" lon="5.88043">
        <ele>49.940697</ele>
        <time>2020-07-27T15:58:39.422Z</time>
      </trkpt>
      <trkpt lat="61.44795" lon="5.88069">
        <ele>50.048883</ele>
        <time>2020-07-27T15:58:42.497Z</time>
      </trkpt>
      <trkpt lat="61.4479" lon="5.88095">
        <ele>50.157311</ele>
        <time>2020-07-27T15:58:45.431Z</time>
      </trkpt>
      <trkpt lat="61.44787" lon="5.88113">
        <ele>50.232943</ele>
        <time>2020-07-27T15:58:47.432Z</time>
      </trkpt>
      <trkpt lat="61.44784" lon="5.88131">
        <ele>50.309241</ele>
        <time>2020-07-27T15:58:49.405Z</time>
      </trkpt>
      <trkpt lat="61.44779" lon="5.88156">
        <ele>50.416638</ele>
        <time>2020-07-27T15:58:52.433Z</time>
      </trkpt>
      <trkpt lat="61.44775" lon="5.88184">
        <ele>50.527844</ele>
        <time>2020-07-27T15:58:55.426Z</time>
      </trkpt>
      <trkpt lat="61.44773" lon="5.88202">
        <ele>50.602752</ele>
        <time>2020-07-27T15:58:57.423Z</time>
      </trkpt>
      <trkpt lat="61.4477" lon="5.88229">
        <ele>50.710122</ele>
        <time>2020-07-27T15:59:00.441Z</time>
      </trkpt>
      <trkpt lat="61.44767" lon="5.88247">
        <ele>50.783686</ele>
        <time>2020-07-27T15:59:02.430Z</time>
      </trkpt>
      <trkpt lat="61.44764" lon="5.88272">
        <ele>50.885455</ele>
        <time>2020-07-27T15:59:05.456Z</time>
      </trkpt>
      <trkpt lat="61.44759" lon="5.88289">
        <ele>50.960213</ele>
        <time>2020-07-27T15:59:07.443Z</time>
      </trkpt>
      <trkpt lat="61.44751" lon="5.88309">
        <ele>51.103947</ele>
        <time>2020-07-27T15:59:10.461Z</time>
      </trkpt>
      <trkpt lat="61.44745" lon="5.88331">
        <ele>51.303117</ele>
        <time>2020-07-27T15:59:13.436Z</time>
      </trkpt>
      <trkpt lat="61.44745" lon="5.88352">
        <ele>51.465588</ele>
        <time>2020-07-27T15:59:15.442Z</time>
      </trkpt>
      <trkpt lat="61.44752" lon="5.88368">
        <ele>51.62171</ele>
        <time>2020-07-27T15:59:17.432Z</time>
      </trkpt>
      <trkpt lat="61.44764" lon="5.88373">
        <ele>51.816774</ele>
        <time>2020-07-27T15:59:20.430Z</time>
      </trkpt>
      <trkpt lat="61.44773" lon="5.88378">
        <ele>51.964274</ele>
        <time>2020-07-27T15:59:22.447Z</time>
      </trkpt>
      <trkpt lat="61.44781" lon="5.88389">
        <ele>52.126423</ele>
        <time>2020-07-27T15:59:24.434Z</time>
      </trkpt>
      <trkpt lat="61.44788" lon="5.88406">
        <ele>52.29403</ele>
        <time>2020-07-27T15:59:26.426Z</time>
      </trkpt>
      <trkpt lat="61.44792" lon="5.88425">
        <ele>52.454261</ele>
        <time>2020-07-27T15:59:28.447Z</time>
      </trkpt>
      <trkpt lat="61.44795" lon="5.88445">
        <ele>52.607098</ele>
        <time>2020-07-27T15:59:30.422Z</time>
      </trkpt>
      <trkpt lat="61.44798" lon="5.88462">
        <ele>52.753638</ele>
        <time>2020-07-27T15:59:32.435Z</time>
      </trkpt>
      <trkpt lat="61.44804" lon="5.88479">
        <ele>52.911319</ele>
        <time>2020-07-27T15:59:34.418Z</time>
      </trkpt>
      <trkpt lat="61.4481" lon="5.88494">
        <ele>53.064521</ele>
        <time>2020-07-27T15:59:36.448Z</time>
      </trkpt>
      <trkpt lat="61.44817" lon="5.88507">
        <ele>53.216384</ele>
        <time>2020-07-27T15:59:38.418Z</time>
      </trkpt>
      <trkpt lat="61.44825" lon="5.88521">
        <ele>53.385599</ele>
        <time>2020-07-27T15:59:40.420Z</time>
      </trkpt>
      <trkpt lat="61.44834" lon="5.88535">
        <ele>53.561166</ele>
        <time>2020-07-27T15:59:42.426Z</time>
      </trkpt>
      <trkpt lat="61.44842" lon="5.88548">
        <ele>53.722456</ele>
        <time>2020-07-27T15:59:44.432Z</time>
      </trkpt>
      <trkpt lat="61.44849" lon="5.88561">
        <ele>53.877374</ele>
        <time>2020-07-27T15:59:46.433Z</time>
      </trkpt>
      <trkpt lat="61.44857" lon="5.88575">
        <ele>53.951287</ele>
        <time>2020-07-27T15:59:48.421Z</time>
      </trkpt>
      <trkpt lat="61.44864" lon="5.88588">
        <ele>54.011393</ele>
        <time>2020-07-27T15:59:50.427Z</time>
      </trkpt>
      <trkpt lat="61.44871" lon="5.88602">
        <ele>54.072856</ele>
        <time>2020-07-27T15:59:52.417Z</time>
      </trkpt>
      <trkpt lat="61.44878" lon="5.88616">
        <ele>54.132296</ele>
        <time>2020-07-27T15:59:54.417Z</time>
      </trkpt>
      <trkpt lat="61.44883" lon="5.88633">
        <ele>54.192612</ele>
        <time>2020-07-27T15:59:56.441Z</time>
      </trkpt>
      <trkpt lat="61.44886" lon="5.88651">
        <ele>54.251443</ele>
        <time>2020-07-27T15:59:58.410Z</time>
      </trkpt>
      <trkpt lat="61.44892" lon="5.88667">
        <ele>54.311945</ele>
        <time>2020-07-27T16:00:00.426Z</time>
      </trkpt>
      <trkpt lat="61.44901" lon="5.88678">
        <ele>54.376792</ele>
        <time>2020-07-27T16:00:02.442Z</time>
      </trkpt>
      <trkpt lat="61.44912" lon="5.88683">
        <ele>54.445017</ele>
        <time>2020-07-27T16:00:04.430Z</time>
      </trkpt>
      <trkpt lat="61.44922" lon="5.8869">
        <ele>54.50975</ele>
        <time>2020-07-27T16:00:06.414Z</time>
      </trkpt>
      <trkpt lat="61.44931" lon="5.88702">
        <ele>54.580006</ele>
        <time>2020-07-27T16:00:08.439Z</time>
      </trkpt>
      <trkpt lat="61.44938" lon="5.88717">
        <ele>54.644488</ele>
        <time>2020-07-27T16:00:10.445Z</time>
      </trkpt>
      <trkpt lat="61.44946" lon="5.88731">
        <ele>54.707396</ele>
        <time>2020-07-27T16:00:12.420Z</time>
      </trkpt>
      <trkpt lat="61.44954" lon="5.88745">
        <ele>54.772687</ele>
        <time>2020-07-27T16:00:14.447Z</time>
      </trkpt>
      <trkpt lat="61.44961" lon="5.88759">
        <ele>54.83461</ele>
        <time>2020-07-27T16:00:16.427Z</time>
      </trkpt>
      <trkpt lat="61.44968" lon="5.88773">
        <ele>54.895377</ele>
        <time>2020-07-27T16:00:18.449Z</time>
      </trkpt>
      <trkpt lat="61.44976" lon="5.88787">
        <ele>54.960021</ele>
        <time>2020-07-27T16:00:20.438Z</time>
      </trkpt>
      <trkpt lat="61.44983" lon="5.88802">
        <ele>55.022947</ele>
        <time>2020-07-27T16:00:22.431Z</time>
      </trkpt>
      <trkpt lat="61.44991" lon="5.88816">
        <ele>55.026561</ele>
        <time>2020-07-27T16:00:24.408Z</time>
      </trkpt>
      <trkpt lat="61.44998" lon="5.8883">
        <ele>55.026561</ele>
        <time>2020-07-27T16:00:26.431Z</time>
      </trkpt>
      <trkpt lat="61.45005" lon="5.8885">
        <ele>55.026561</ele>
        <time>2020-07-27T16:00:29.431Z</time>
      </trkpt>
      <trkpt lat="61.45002" lon="5.8887">
        <ele>55.026561</ele>
        <time>2020-07-27T16:00:32.495Z</time>
      </trkpt>
      <trkpt lat="61.44992" lon="5.88881">
        <ele>55.026561</ele>
        <time>2020-07-27T16:00:35.422Z</time>
      </trkpt>
      <trkpt lat="61.44984" lon="5.8889">
        <ele>55.026561</ele>
        <time>2020-07-27T16:00:37.419Z</time>
      </trkpt>
      <trkpt lat="61.44974" lon="5.88897">
        <ele>55.026561</ele>
        <time>2020-07-27T16:00:39.415Z</time>
      </trkpt>
      <trkpt lat="61.44965" lon="5.88906">
        <ele>55.026561</ele>
        <time>2020-07-27T16:00:41.448Z</time>
      </trkpt>
      <trkpt lat="61.44957" lon="5.88916">
        <ele>55.026561</ele>
        <time>2020-07-27T16:00:43.427Z</time>
      </trkpt>
      <trkpt lat="61.44947" lon="5.88935">
        <ele>55.026561</ele>
        <time>2020-07-27T16:00:46.411Z</time>
      </trkpt>
      <trkpt lat="61.44942" lon="5.88951">
        <ele>55.026561</ele>
        <time>2020-07-27T16:00:48.426Z</time>
      </trkpt>
      <trkpt lat="61.44936" lon="5.88975">
        <ele>55.026561</ele>
        <time>2020-07-27T16:00:51.422Z</time>
      </trkpt>
      <trkpt lat="61.44933" lon="5.89">
        <ele>55.026561</ele>
        <time>2020-07-27T16:00:54.426Z</time>
      </trkpt>
      <trkpt lat="61.44932" lon="5.89021">
        <ele>55.026561</ele>
        <time>2020-07-27T16:00:57.418Z</time>
      </trkpt>
      <trkpt lat="61.44932" lon="5.89042">
        <ele>55.026561</ele>
        <time>2020-07-27T16:01:00.421Z</time>
      </trkpt>
      <trkpt lat="61.44932" lon="5.89063">
        <ele>55.026561</ele>
        <time>2020-07-27T16:01:03.414Z</time>
      </trkpt>
      <trkpt lat="61.44933" lon="5.89086">
        <ele>55.026561</ele>
        <time>2020-07-27T16:01:06.422Z</time>
      </trkpt>
      <trkpt lat="61.44934" lon="5.89107">
        <ele>55.026561</ele>
        <time>2020-07-27T16:01:09.434Z</time>
      </trkpt>
      <trkpt lat="61.44935" lon="5.89129">
        <ele>55.026561</ele>
        <time>2020-07-27T16:01:12.421Z</time>
      </trkpt>
      <trkpt lat="61.44938" lon="5.8915">
        <ele>55.026561</ele>
        <time>2020-07-27T16:01:16.448Z</time>
      </trkpt>
      <trkpt lat="61.44941" lon="5.89171">
        <ele>55.026561</ele>
        <time>2020-07-27T16:01:22.422Z</time>
      </trkpt>
      <trkpt lat="61.44943" lon="5.8919">
        <ele>55.026561</ele>
        <time>2020-07-27T16:01:26.416Z</time>
      </trkpt>
      <trkpt lat="61.44947" lon="5.89203">
        <ele>55.026561</ele>
        <time>2020-07-27T16:02:16.534Z</time>
      </trkpt>
    </trkseg>
  </trk>
</gpx>